<?xml version='1.0' encoding='UTF-8'?><gpx version="1.1" creator="JPX - https://github.com/jenetics/jpx" xmlns="http://www.topografix.com/GPX/1/1"><trk><trkseg><trkpt lat="45.60834416727355" lon="11.354279000952326"><ele>194.00000000000003</ele><time>2026-05-02T05:58:53.433Z</time></trkpt><trkpt lat="45.60826608678021" lon="11.354340815472526"><ele>194.0</ele><time>2026-05-02T05:58:56.433Z</time></trkpt><trkpt lat="45.60821902347445" lon="11.354419253504263"><ele>194.0</ele><time>2026-05-02T05:58:58.433Z</time></trkpt><trkpt lat="45.608209169011936" lon="11.354528902514541"><ele>194.0</ele><time>2026-05-02T05:59:00.433Z</time></trkpt><trkpt lat="45.60828878402502" lon="11.354557886023043"><ele>194.00000000000003</ele><time>2026-05-02T05:59:02.433Z</time></trkpt><trkpt lat="45.60837017362002" lon="11.354520290674568"><ele>194.0</ele><time>2026-05-02T05:59:04.433Z</time></trkpt><trkpt lat="45.608451200572766" lon="11.354428442594976"><ele>194.0</ele><time>2026-05-02T05:59:06.433Z</time></trkpt><trkpt lat="45.60852598695222" lon="11.354325661622111"><ele>194.0</ele><time>2026-05-02T05:59:08.433Z</time></trkpt><trkpt lat="45.608617926734006" lon="11.35415861655911"><ele>194.0</ele><time>2026-05-02T05:59:10.433Z</time></trkpt><trkpt lat="45.60864060377078" lon="11.354025447437124"><ele>194.0</ele><time>2026-05-02T05:59:11.433Z</time></trkpt><trkpt lat="45.608699509458695" lon="11.353927245581668"><ele>194.0</ele><time>2026-05-02T05:59:12.433Z</time></trkpt><trkpt lat="45.60878535438556" lon="11.353791447694855"><ele>197.0</ele><time>2026-05-02T05:59:14.433Z</time></trkpt><trkpt lat="45.60883033543395" lon="11.353720292503715"><ele>200.0</ele><time>2026-05-02T05:59:15.433Z</time></trkpt><trkpt lat="45.60888337950436" lon="11.353597909548217"><ele>203.0</ele><time>2026-05-02T05:59:17.433Z</time></trkpt><trkpt lat="45.608696625647084" lon="11.353363321089418"><ele>206.0</ele><time>2026-05-02T05:59:18.433Z</time></trkpt><trkpt lat="45.60873876855582" lon="11.353271933233609"><ele>206.0</ele><time>2026-05-02T05:59:27.433Z</time></trkpt><trkpt lat="45.60875876336075" lon="11.353131492988325"><ele>206.0</ele><time>2026-05-02T05:59:29.433Z</time></trkpt><trkpt lat="45.60862699741707" lon="11.35304321539885"><ele>206.0</ele><time>2026-05-02T05:59:31.433Z</time></trkpt><trkpt lat="45.60851845865294" lon="11.352974202554387"><ele>206.0</ele><time>2026-05-02T05:59:33.433Z</time></trkpt><trkpt lat="45.60846005570687" lon="11.352891115042924"><ele>206.0</ele><time>2026-05-02T05:59:36.433Z</time></trkpt><trkpt lat="45.60849921835584" lon="11.352805958788037"><ele>204.20000000000002</ele><time>2026-05-02T05:59:37.433Z</time></trkpt><trkpt lat="45.608577280434744" lon="11.35276952229321"><ele>202.4</ele><time>2026-05-02T05:59:38.433Z</time></trkpt><trkpt lat="45.60863409705284" lon="11.352657713196987"><ele>200.6</ele><time>2026-05-02T05:59:39.433Z</time></trkpt><trkpt lat="45.608673010859576" lon="11.352536061005"><ele>198.8</ele><time>2026-05-02T05:59:41.433Z</time></trkpt><trkpt lat="45.608659144637954" lon="11.352394342344938"><ele>197.0</ele><time>2026-05-02T05:59:43.433Z</time></trkpt><trkpt lat="45.608515353744274" lon="11.352393818952017"><ele>194.0</ele><time>2026-05-02T05:59:44.433Z</time></trkpt><trkpt lat="45.60838439365223" lon="11.352326525342871"><ele>191.0</ele><time>2026-05-02T05:59:45.433Z</time></trkpt><trkpt lat="45.60830639332428" lon="11.352279898886954"><ele>188.0</ele><time>2026-05-02T05:59:46.433Z</time></trkpt><trkpt lat="45.60822820100248" lon="11.352220498456752"><ele>185.0</ele><time>2026-05-02T05:59:47.433Z</time></trkpt><trkpt lat="45.60816108728677" lon="11.352174464463625"><ele>182.0</ele><time>2026-05-02T05:59:48.433Z</time></trkpt><trkpt lat="45.60809584472589" lon="11.352134799891854"><ele>182.0</ele><time>2026-05-02T05:59:49.433Z</time></trkpt><trkpt lat="45.60803691496405" lon="11.352090208418039"><ele>182.0</ele><time>2026-05-02T05:59:50.433Z</time></trkpt><trkpt lat="45.60796942074184" lon="11.352043777410731"><ele>182.0</ele><time>2026-05-02T05:59:52.433Z</time></trkpt><trkpt lat="45.607900516022" lon="11.352237105253275"><ele>182.0</ele><time>2026-05-02T05:59:54.433Z</time></trkpt><trkpt lat="45.60786181331913" lon="11.352331272702296"><ele>182.0</ele><time>2026-05-02T05:59:55.433Z</time></trkpt><trkpt lat="45.60780592318654" lon="11.352504311173252"><ele>181.66666666666666</ele><time>2026-05-02T05:59:56.433Z</time></trkpt><trkpt lat="45.60772828652962" lon="11.352669380099536"><ele>181.33333333333334</ele><time>2026-05-02T05:59:57.433Z</time></trkpt><trkpt lat="45.60763808902487" lon="11.352827903071104"><ele>181.0</ele><time>2026-05-02T05:59:58.433Z</time></trkpt><trkpt lat="45.60747302186698" lon="11.353056498716805"><ele>181.0</ele><time>2026-05-02T05:59:59.433Z</time></trkpt><trkpt lat="45.60725509142858" lon="11.35329881738252"><ele>181.0</ele><time>2026-05-02T06:00:00.433Z</time></trkpt><trkpt lat="45.607066978551074" lon="11.35353043786091"><ele>180.0</ele><time>2026-05-02T06:00:01.433Z</time></trkpt><trkpt lat="45.606898350023" lon="11.353760101645713"><ele>179.0</ele><time>2026-05-02T06:00:02.433Z</time></trkpt><trkpt lat="45.60674607023464" lon="11.353967856632035"><ele>178.0</ele><time>2026-05-02T06:00:03.433Z</time></trkpt><trkpt lat="45.60659521882604" lon="11.354173134910129"><ele>178.0</ele><time>2026-05-02T06:00:04.433Z</time></trkpt><trkpt lat="45.606414949236374" lon="11.354365679308799"><ele>178.0</ele><time>2026-05-02T06:00:05.433Z</time></trkpt><trkpt lat="45.606203153729034" lon="11.354540689355714"><ele>176.5</ele><time>2026-05-02T06:00:06.433Z</time></trkpt><trkpt lat="45.60599211632342" lon="11.354711483939562"><ele>175.0</ele><time>2026-05-02T06:00:07.433Z</time></trkpt><trkpt lat="45.60581524263873" lon="11.354885148506881"><ele>175.0</ele><time>2026-05-02T06:00:08.433Z</time></trkpt><trkpt lat="45.60566577187147" lon="11.355073087046332"><ele>175.0</ele><time>2026-05-02T06:00:09.433Z</time></trkpt><trkpt lat="45.605545035273494" lon="11.355245483488984"><ele>175.0</ele><time>2026-05-02T06:00:10.433Z</time></trkpt><trkpt lat="45.60544460391365" lon="11.355486692636394"><ele>174.5</ele><time>2026-05-02T06:00:11.433Z</time></trkpt><trkpt lat="45.605325592802394" lon="11.355747608730674"><ele>174.0</ele><time>2026-05-02T06:00:12.433Z</time></trkpt><trkpt lat="45.605202003443466" lon="11.356051666004541"><ele>174.0</ele><time>2026-05-02T06:00:13.433Z</time></trkpt><trkpt lat="45.60510999220311" lon="11.35638696357473"><ele>174.0</ele><time>2026-05-02T06:00:14.433Z</time></trkpt><trkpt lat="45.60497613632103" lon="11.356718996205853"><ele>174.0</ele><time>2026-05-02T06:00:15.433Z</time></trkpt><trkpt lat="45.60485234536424" lon="11.357031137762592"><ele>174.0</ele><time>2026-05-02T06:00:16.433Z</time></trkpt><trkpt lat="45.6047502679287" lon="11.357308926450434"><ele>174.0</ele><time>2026-05-02T06:00:17.433Z</time></trkpt><trkpt lat="45.60465394480905" lon="11.357549786487667"><ele>174.0</ele><time>2026-05-02T06:00:18.433Z</time></trkpt><trkpt lat="45.60451824506505" lon="11.357751818051948"><ele>174.0</ele><time>2026-05-02T06:00:19.433Z</time></trkpt><trkpt lat="45.60440042356957" lon="11.357955643295092"><ele>174.33333333333334</ele><time>2026-05-02T06:00:20.433Z</time></trkpt><trkpt lat="45.604265796365056" lon="11.358188541553822"><ele>174.66666666666669</ele><time>2026-05-02T06:00:21.433Z</time></trkpt><trkpt lat="45.60411423828397" lon="11.358449782332086"><ele>175.0</ele><time>2026-05-02T06:00:22.433Z</time></trkpt><trkpt lat="45.60397636242842" lon="11.358687171290962"><ele>175.0</ele><time>2026-05-02T06:00:23.433Z</time></trkpt><trkpt lat="45.603840021461906" lon="11.358923715369647"><ele>175.0</ele><time>2026-05-02T06:00:24.433Z</time></trkpt><trkpt lat="45.603718106494874" lon="11.359163618108981"><ele>175.0</ele><time>2026-05-02T06:00:25.433Z</time></trkpt><trkpt lat="45.60357926333159" lon="11.35940042863839"><ele>174.66666666666669</ele><time>2026-05-02T06:00:26.433Z</time></trkpt><trkpt lat="45.603441991067974" lon="11.359646258195065"><ele>174.33333333333334</ele><time>2026-05-02T06:00:27.433Z</time></trkpt><trkpt lat="45.60329151085399" lon="11.359892431883853"><ele>174.0</ele><time>2026-05-02T06:00:28.433Z</time></trkpt><trkpt lat="45.60315613235404" lon="11.360115954678253"><ele>173.0</ele><time>2026-05-02T06:00:29.433Z</time></trkpt><trkpt lat="45.60304411098839" lon="11.36033179730008"><ele>172.0</ele><time>2026-05-02T06:00:30.433Z</time></trkpt><trkpt lat="45.60294130861859" lon="11.360555151675339"><ele>171.0</ele><time>2026-05-02T06:00:31.433Z</time></trkpt><trkpt lat="45.602843644180545" lon="11.360774756747935"><ele>170.75</ele><time>2026-05-02T06:00:32.433Z</time></trkpt><trkpt lat="45.60276043356797" lon="11.360974326514198"><ele>170.5</ele><time>2026-05-02T06:00:33.433Z</time></trkpt><trkpt lat="45.60271451862184" lon="11.361163120881532"><ele>170.25</ele><time>2026-05-02T06:00:34.433Z</time></trkpt><trkpt lat="45.602682644946974" lon="11.361360432339767"><ele>170.0</ele><time>2026-05-02T06:00:35.433Z</time></trkpt><trkpt lat="45.602645895212525" lon="11.361547853560234"><ele>170.0</ele><time>2026-05-02T06:00:36.433Z</time></trkpt><trkpt lat="45.60261017517507" lon="11.361727918878897"><ele>170.0</ele><time>2026-05-02T06:00:37.433Z</time></trkpt><trkpt lat="45.602572743602266" lon="11.361906367004002"><ele>170.0</ele><time>2026-05-02T06:00:38.433Z</time></trkpt><trkpt lat="45.60253140121923" lon="11.362065323377404"><ele>170.0</ele><time>2026-05-02T06:00:39.433Z</time></trkpt><trkpt lat="45.60249273691485" lon="11.362267742388775"><ele>170.33333333333331</ele><time>2026-05-02T06:00:40.433Z</time></trkpt><trkpt lat="45.6024177514721" lon="11.362463240391847"><ele>170.66666666666666</ele><time>2026-05-02T06:00:41.433Z</time></trkpt><trkpt lat="45.60234155083865" lon="11.362708726079033"><ele>171.0</ele><time>2026-05-02T06:00:42.433Z</time></trkpt><trkpt lat="45.60225614247716" lon="11.363001833460647"><ele>170.5</ele><time>2026-05-02T06:00:43.433Z</time></trkpt><trkpt lat="45.6021573315037" lon="11.363281773033792"><ele>170.0</ele><time>2026-05-02T06:00:44.433Z</time></trkpt><trkpt lat="45.602030941589675" lon="11.363565934242626"><ele>169.0</ele><time>2026-05-02T06:00:45.433Z</time></trkpt><trkpt lat="45.60184585898086" lon="11.363830319154197"><ele>168.0</ele><time>2026-05-02T06:00:46.433Z</time></trkpt><trkpt lat="45.60166006389481" lon="11.364141800841386"><ele>167.5</ele><time>2026-05-02T06:00:47.433Z</time></trkpt><trkpt lat="45.60148857509534" lon="11.36442879451029"><ele>167.0</ele><time>2026-05-02T06:00:48.433Z</time></trkpt><trkpt lat="45.6013245638173" lon="11.364752489682148"><ele>167.0</ele><time>2026-05-02T06:00:49.433Z</time></trkpt><trkpt lat="45.6011743192858" lon="11.365047717468977"><ele>167.0</ele><time>2026-05-02T06:00:50.433Z</time></trkpt><trkpt lat="45.601051471853324" lon="11.365340817317591"><ele>167.0</ele><time>2026-05-02T06:00:51.433Z</time></trkpt><trkpt lat="45.60094098896147" lon="11.365622984597566"><ele>167.0</ele><time>2026-05-02T06:00:52.434Z</time></trkpt><trkpt lat="45.60084371339201" lon="11.365867009747165"><ele>167.0</ele><time>2026-05-02T06:00:53.434Z</time></trkpt><trkpt lat="45.600758763970724" lon="11.366124814559134"><ele>167.0</ele><time>2026-05-02T06:00:54.434Z</time></trkpt><trkpt lat="45.60066584149379" lon="11.366348536135042"><ele>167.0</ele><time>2026-05-02T06:00:55.434Z</time></trkpt><trkpt lat="45.600558365801476" lon="11.366530928691368"><ele>167.0</ele><time>2026-05-02T06:00:56.434Z</time></trkpt><trkpt lat="45.60047150882483" lon="11.366679465476599"><ele>167.0</ele><time>2026-05-02T06:00:57.434Z</time></trkpt><trkpt lat="45.60039842964572" lon="11.36681366255287"><ele>167.0</ele><time>2026-05-02T06:00:58.434Z</time></trkpt><trkpt lat="45.60034518235945" lon="11.366939771369923"><ele>167.0</ele><time>2026-05-02T06:00:59.434Z</time></trkpt><trkpt lat="45.60026630896961" lon="11.36702197076248"><ele>167.0</ele><time>2026-05-02T06:01:00.434Z</time></trkpt><trkpt lat="45.60019511271217" lon="11.367082518741164"><ele>167.0</ele><time>2026-05-02T06:01:01.434Z</time></trkpt><trkpt lat="45.600134822416656" lon="11.36713294501294"><ele>166.5</ele><time>2026-05-02T06:01:02.434Z</time></trkpt><trkpt lat="45.60005270747697" lon="11.36707357574377"><ele>166.0</ele><time>2026-05-02T06:01:03.434Z</time></trkpt><trkpt lat="45.59994180048942" lon="11.366940867484956"><ele>165.5</ele><time>2026-05-02T06:01:04.434Z</time></trkpt><trkpt lat="45.59981218910993" lon="11.366724229451556"><ele>165.0</ele><time>2026-05-02T06:01:05.434Z</time></trkpt><trkpt lat="45.59964834585678" lon="11.366578119270129"><ele>165.33333333333334</ele><time>2026-05-02T06:01:06.434Z</time></trkpt><trkpt lat="45.599484675234365" lon="11.366412413549062"><ele>165.66666666666669</ele><time>2026-05-02T06:01:07.434Z</time></trkpt><trkpt lat="45.59934708522099" lon="11.366291847666565"><ele>166.0</ele><time>2026-05-02T06:01:08.434Z</time></trkpt><trkpt lat="45.59922079513102" lon="11.366154892987531"><ele>166.0</ele><time>2026-05-02T06:01:09.434Z</time></trkpt><trkpt lat="45.599125197698356" lon="11.366048119941551"><ele>166.0</ele><time>2026-05-02T06:01:10.434Z</time></trkpt><trkpt lat="45.59905718706599" lon="11.365993333411149"><ele>166.0</ele><time>2026-05-02T06:01:11.434Z</time></trkpt><trkpt lat="45.599059707887605" lon="11.36583640367779"><ele>166.0</ele><time>2026-05-02T06:01:12.434Z</time></trkpt><trkpt lat="45.59905460808889" lon="11.36568510570781"><ele>166.0</ele><time>2026-05-02T06:01:13.434Z</time></trkpt><trkpt lat="45.59907348671396" lon="11.365559769451988"><ele>166.0</ele><time>2026-05-02T06:01:14.434Z</time></trkpt><trkpt lat="45.59908252919098" lon="11.365445925068975"><ele>166.0</ele><time>2026-05-02T06:01:15.434Z</time></trkpt><trkpt lat="45.598987377942514" lon="11.365430329261919"><ele>166.0</ele><time>2026-05-02T06:01:16.434Z</time></trkpt><trkpt lat="45.59886097973155" lon="11.365457106930617"><ele>166.0</ele><time>2026-05-02T06:01:17.434Z</time></trkpt><trkpt lat="45.59875408720384" lon="11.365594271173162"><ele>166.0</ele><time>2026-05-02T06:01:18.434Z</time></trkpt><trkpt lat="45.59872999427055" lon="11.365732454254832"><ele>166.0</ele><time>2026-05-02T06:01:19.434Z</time></trkpt><trkpt lat="45.59873332101381" lon="11.365894315294193"><ele>166.0</ele><time>2026-05-02T06:01:20.434Z</time></trkpt><trkpt lat="45.5986771261836" lon="11.36604972301916"><ele>166.0</ele><time>2026-05-02T06:01:21.434Z</time></trkpt><trkpt lat="45.59857202405144" lon="11.366234530965649"><ele>166.0</ele><time>2026-05-02T06:01:22.434Z</time></trkpt><trkpt lat="45.598456865543326" lon="11.366429571391249"><ele>166.0</ele><time>2026-05-02T06:01:23.434Z</time></trkpt><trkpt lat="45.598314985570916" lon="11.366706435472938"><ele>166.0</ele><time>2026-05-02T06:01:24.434Z</time></trkpt><trkpt lat="45.598152019309715" lon="11.367013396900843"><ele>164.5</ele><time>2026-05-02T06:01:25.434Z</time></trkpt><trkpt lat="45.598026731185016" lon="11.36730814354221"><ele>163.0</ele><time>2026-05-02T06:01:26.434Z</time></trkpt><trkpt lat="45.59790025080944" lon="11.36757746370843"><ele>163.33333333333334</ele><time>2026-05-02T06:01:27.434Z</time></trkpt><trkpt lat="45.597775706727525" lon="11.367821213065707"><ele>163.66666666666666</ele><time>2026-05-02T06:01:28.434Z</time></trkpt><trkpt lat="45.597665521198394" lon="11.368055409318965"><ele>164.0</ele><time>2026-05-02T06:01:29.434Z</time></trkpt><trkpt lat="45.5975647088565" lon="11.368282214282093"><ele>164.33333333333331</ele><time>2026-05-02T06:01:30.434Z</time></trkpt><trkpt lat="45.59747242485134" lon="11.368505101191973"><ele>164.66666666666666</ele><time>2026-05-02T06:01:31.434Z</time></trkpt><trkpt lat="45.597391010497326" lon="11.368714313711507"><ele>165.0</ele><time>2026-05-02T06:01:32.434Z</time></trkpt><trkpt lat="45.59729095061925" lon="11.368927888233536"><ele>164.33333333333334</ele><time>2026-05-02T06:01:33.434Z</time></trkpt><trkpt lat="45.59720344062049" lon="11.369169129444934"><ele>163.66666666666669</ele><time>2026-05-02T06:01:34.434Z</time></trkpt><trkpt lat="45.59708605992161" lon="11.369385319425247"><ele>163.0</ele><time>2026-05-02T06:01:35.434Z</time></trkpt><trkpt lat="45.59697615208312" lon="11.369600945200359"><ele>162.66666666666669</ele><time>2026-05-02T06:01:36.434Z</time></trkpt><trkpt lat="45.59684615323337" lon="11.369803741367182"><ele>162.33333333333334</ele><time>2026-05-02T06:01:37.434Z</time></trkpt><trkpt lat="45.596725510676926" lon="11.36999439250924"><ele>162.0</ele><time>2026-05-02T06:01:38.434Z</time></trkpt><trkpt lat="45.59657529267169" lon="11.370212363674394"><ele>162.0</ele><time>2026-05-02T06:01:39.434Z</time></trkpt><trkpt lat="45.596439310625186" lon="11.37044162464932"><ele>162.0</ele><time>2026-05-02T06:01:40.434Z</time></trkpt><trkpt lat="45.59627968259161" lon="11.370693874184406"><ele>162.0</ele><time>2026-05-02T06:01:41.434Z</time></trkpt><trkpt lat="45.596101748987245" lon="11.370963521615597"><ele>161.0</ele><time>2026-05-02T06:01:42.434Z</time></trkpt><trkpt lat="45.595890435238005" lon="11.371248684948723"><ele>160.0</ele><time>2026-05-02T06:01:43.434Z</time></trkpt><trkpt lat="45.595708665307136" lon="11.371570716406508"><ele>160.0</ele><time>2026-05-02T06:01:44.434Z</time></trkpt><trkpt lat="45.59547858544761" lon="11.371885159933608"><ele>160.0</ele><time>2026-05-02T06:01:45.434Z</time></trkpt><trkpt lat="45.59525048226734" lon="11.372219919953471"><ele>159.5</ele><time>2026-05-02T06:01:46.434Z</time></trkpt><trkpt lat="45.59503425191424" lon="11.372520124981776"><ele>159.0</ele><time>2026-05-02T06:01:47.434Z</time></trkpt><trkpt lat="45.59480789718913" lon="11.372799935348594"><ele>159.0</ele><time>2026-05-02T06:01:48.434Z</time></trkpt><trkpt lat="45.59459193713507" lon="11.373090723196125"><ele>159.0</ele><time>2026-05-02T06:01:49.434Z</time></trkpt><trkpt lat="45.59437042410326" lon="11.37338364653245"><ele>159.0</ele><time>2026-05-02T06:01:50.434Z</time></trkpt><trkpt lat="45.59414750950293" lon="11.373671754345278"><ele>159.0</ele><time>2026-05-02T06:01:51.434Z</time></trkpt><trkpt lat="45.59390417651752" lon="11.373966301405442"><ele>159.0</ele><time>2026-05-02T06:01:52.434Z</time></trkpt><trkpt lat="45.59365440302348" lon="11.37426546175579"><ele>159.0</ele><time>2026-05-02T06:01:53.434Z</time></trkpt><trkpt lat="45.593416192363456" lon="11.374554473971639"><ele>158.5</ele><time>2026-05-02T06:01:54.434Z</time></trkpt><trkpt lat="45.59321112299985" lon="11.3748207355989"><ele>158.0</ele><time>2026-05-02T06:01:55.434Z</time></trkpt><trkpt lat="45.592998054264854" lon="11.375045817102775"><ele>157.0</ele><time>2026-05-02T06:01:56.434Z</time></trkpt><trkpt lat="45.59281711929811" lon="11.375245994177671"><ele>156.0</ele><time>2026-05-02T06:01:57.434Z</time></trkpt><trkpt lat="45.59265240342576" lon="11.375420720466074"><ele>155.0</ele><time>2026-05-02T06:01:58.434Z</time></trkpt><trkpt lat="45.59251249456552" lon="11.375565779791476"><ele>155.0</ele><time>2026-05-02T06:01:59.434Z</time></trkpt><trkpt lat="45.59237135594986" lon="11.375705060773992"><ele>155.0</ele><time>2026-05-02T06:02:00.434Z</time></trkpt><trkpt lat="45.59225551761912" lon="11.375811171154734"><ele>155.0</ele><time>2026-05-02T06:02:01.434Z</time></trkpt><trkpt lat="45.59217245688479" lon="11.375923831319593"><ele>155.0</ele><time>2026-05-02T06:02:02.434Z</time></trkpt><trkpt lat="45.59207585997163" lon="11.375969212262838"><ele>154.75</ele><time>2026-05-02T06:02:03.434Z</time></trkpt><trkpt lat="45.59196229921668" lon="11.375925411570334"><ele>154.5</ele><time>2026-05-02T06:02:04.434Z</time></trkpt><trkpt lat="45.59181597661272" lon="11.37582184976119"><ele>154.25</ele><time>2026-05-02T06:02:05.434Z</time></trkpt><trkpt lat="45.591668737533794" lon="11.375755272472801"><ele>154.0</ele><time>2026-05-02T06:02:06.434Z</time></trkpt><trkpt lat="45.591536801290715" lon="11.375715038343127"><ele>154.0</ele><time>2026-05-02T06:02:07.434Z</time></trkpt><trkpt lat="45.59142214337181" lon="11.375613856762463"><ele>154.0</ele><time>2026-05-02T06:02:08.434Z</time></trkpt><trkpt lat="45.59128208147567" lon="11.375460516097469"><ele>154.0</ele><time>2026-05-02T06:02:09.434Z</time></trkpt><trkpt lat="45.591194427540394" lon="11.375236577288668"><ele>154.0</ele><time>2026-05-02T06:02:10.434Z</time></trkpt><trkpt lat="45.59107516448616" lon="11.37495827073728"><ele>154.0</ele><time>2026-05-02T06:02:11.434Z</time></trkpt><trkpt lat="45.59098539375935" lon="11.374659288302421"><ele>154.0</ele><time>2026-05-02T06:02:12.434Z</time></trkpt><trkpt lat="45.590921698558915" lon="11.374357524648056"><ele>154.0</ele><time>2026-05-02T06:02:13.434Z</time></trkpt><trkpt lat="45.59088149062054" lon="11.374086467310036"><ele>154.0</ele><time>2026-05-02T06:02:14.434Z</time></trkpt><trkpt lat="45.59086298516921" lon="11.373786014917018"><ele>154.66666666666669</ele><time>2026-05-02T06:02:15.434Z</time></trkpt><trkpt lat="45.590877606274425" lon="11.373498207217288"><ele>155.33333333333334</ele><time>2026-05-02T06:02:16.434Z</time></trkpt><trkpt lat="45.590908343342456" lon="11.37319936815806"><ele>156.0</ele><time>2026-05-02T06:02:17.434Z</time></trkpt><trkpt lat="45.5909423668879" lon="11.372948452676345"><ele>156.2</ele><time>2026-05-02T06:02:18.434Z</time></trkpt><trkpt lat="45.590975403209306" lon="11.37275259432351"><ele>156.39999999999998</ele><time>2026-05-02T06:02:19.434Z</time></trkpt><trkpt lat="45.59100036173629" lon="11.372583744270482"><ele>156.6</ele><time>2026-05-02T06:02:20.434Z</time></trkpt><trkpt lat="45.591022752301996" lon="11.372453437370277"><ele>156.79999999999998</ele><time>2026-05-02T06:02:21.434Z</time></trkpt><trkpt lat="45.59105663785931" lon="11.372344872078738"><ele>157.0</ele><time>2026-05-02T06:02:22.434Z</time></trkpt><trkpt lat="45.59106202723497" lon="11.372240294948112"><ele>156.79999999999998</ele><time>2026-05-02T06:02:23.434Z</time></trkpt><trkpt lat="45.59119375229633" lon="11.372185453523896"><ele>156.6</ele><time>2026-05-02T06:02:24.434Z</time></trkpt><trkpt lat="45.59125859591623" lon="11.372120381866862"><ele>156.39999999999998</ele><time>2026-05-02T06:02:35.434Z</time></trkpt><trkpt lat="45.59114728191367" lon="11.372055813480342"><ele>156.2</ele><time>2026-05-02T06:04:25.435Z</time></trkpt><trkpt lat="45.5911372961478" lon="11.37196473053449"><ele>156.0</ele><time>2026-05-02T06:04:31.435Z</time></trkpt><trkpt lat="45.59102073636732" lon="11.37207705444979"><ele>156.25</ele><time>2026-05-02T06:04:34.435Z</time></trkpt><trkpt lat="45.59097419289236" lon="11.37223547308977"><ele>156.5</ele><time>2026-05-02T06:04:35.435Z</time></trkpt><trkpt lat="45.59095927883302" lon="11.37238479379585"><ele>156.75</ele><time>2026-05-02T06:04:36.435Z</time></trkpt><trkpt lat="45.59096719953083" lon="11.372529897926949"><ele>157.0</ele><time>2026-05-02T06:04:37.435Z</time></trkpt><trkpt lat="45.59096316230584" lon="11.372728978221676"><ele>157.0</ele><time>2026-05-02T06:04:38.435Z</time></trkpt><trkpt lat="45.59093844516914" lon="11.372916917292029"><ele>157.0</ele><time>2026-05-02T06:04:39.435Z</time></trkpt><trkpt lat="45.59091812538874" lon="11.373089127414028"><ele>157.0</ele><time>2026-05-02T06:04:40.435Z</time></trkpt><trkpt lat="45.590901049130586" lon="11.373233133356148"><ele>157.0</ele><time>2026-05-02T06:04:41.435Z</time></trkpt><trkpt lat="45.590869875859724" lon="11.373374406076113"><ele>156.75</ele><time>2026-05-02T06:04:42.435Z</time></trkpt><trkpt lat="45.5908625345922" lon="11.373533740509073"><ele>156.5</ele><time>2026-05-02T06:04:43.435Z</time></trkpt><trkpt lat="45.59084885101312" lon="11.373718658239943"><ele>156.25</ele><time>2026-05-02T06:04:44.435Z</time></trkpt><trkpt lat="45.590848054857986" lon="11.37390741471576"><ele>156.0</ele><time>2026-05-02T06:04:45.435Z</time></trkpt><trkpt lat="45.590847055179815" lon="11.374079755791604"><ele>155.5</ele><time>2026-05-02T06:04:46.435Z</time></trkpt><trkpt lat="45.590844522778184" lon="11.37426970390253"><ele>155.0</ele><time>2026-05-02T06:04:47.435Z</time></trkpt><trkpt lat="45.590875006225225" lon="11.374469439780922"><ele>154.5</ele><time>2026-05-02T06:04:48.435Z</time></trkpt><trkpt lat="45.59091441955849" lon="11.374687636635528"><ele>154.0</ele><time>2026-05-02T06:04:49.435Z</time></trkpt><trkpt lat="45.59096814898845" lon="11.374877458275932"><ele>154.0</ele><time>2026-05-02T06:04:50.435Z</time></trkpt><trkpt lat="45.591020152077" lon="11.375051212703168"><ele>154.0</ele><time>2026-05-02T06:04:51.435Z</time></trkpt><trkpt lat="45.59108804798433" lon="11.375199834668472"><ele>154.0</ele><time>2026-05-02T06:04:52.435Z</time></trkpt><trkpt lat="45.59115455906537" lon="11.375331654805"><ele>154.0</ele><time>2026-05-02T06:04:53.435Z</time></trkpt><trkpt lat="45.59121603912328" lon="11.375458648872236"><ele>154.0</ele><time>2026-05-02T06:04:54.435Z</time></trkpt><trkpt lat="45.59127579238774" lon="11.37555613125971"><ele>154.0</ele><time>2026-05-02T06:04:55.435Z</time></trkpt><trkpt lat="45.591361361286054" lon="11.375620238175797"><ele>154.0</ele><time>2026-05-02T06:04:56.435Z</time></trkpt><trkpt lat="45.59139117620135" lon="11.37572239588615"><ele>154.0</ele><time>2026-05-02T06:04:57.435Z</time></trkpt><trkpt lat="45.59142818472028" lon="11.37584920171767"><ele>154.0</ele><time>2026-05-02T06:04:58.435Z</time></trkpt><trkpt lat="45.591389483490545" lon="11.376009049970623"><ele>154.0</ele><time>2026-05-02T06:04:59.435Z</time></trkpt><trkpt lat="45.59135855738123" lon="11.376159799844057"><ele>154.0</ele><time>2026-05-02T06:05:00.435Z</time></trkpt><trkpt lat="45.591338604436025" lon="11.37629058745938"><ele>154.0</ele><time>2026-05-02T06:05:01.435Z</time></trkpt><trkpt lat="45.59138666387796" lon="11.376410995718643"><ele>154.0</ele><time>2026-05-02T06:05:02.435Z</time></trkpt><trkpt lat="45.591440753428536" lon="11.376523922622239"><ele>154.0</ele><time>2026-05-02T06:05:03.435Z</time></trkpt><trkpt lat="45.591522810334126" lon="11.376602282109774"><ele>154.2</ele><time>2026-05-02T06:05:04.436Z</time></trkpt><trkpt lat="45.59161162605663" lon="11.37662009261194"><ele>154.4</ele><time>2026-05-02T06:05:05.436Z</time></trkpt><trkpt lat="45.591733081073784" lon="11.376589568212728"><ele>154.6</ele><time>2026-05-02T06:05:06.436Z</time></trkpt><trkpt lat="45.59182273456848" lon="11.376580033038978"><ele>154.8</ele><time>2026-05-02T06:05:07.436Z</time></trkpt><trkpt lat="45.591894952066596" lon="11.376495970064441"><ele>155.0</ele><time>2026-05-02T06:05:08.436Z</time></trkpt><trkpt lat="45.59195006992597" lon="11.376419116233409"><ele>155.0</ele><time>2026-05-02T06:05:09.436Z</time></trkpt><trkpt lat="45.59197869073354" lon="11.376279914980223"><ele>155.0</ele><time>2026-05-02T06:05:10.436Z</time></trkpt><trkpt lat="45.592034164247686" lon="11.376159914941015"><ele>155.0</ele><time>2026-05-02T06:05:11.436Z</time></trkpt><trkpt lat="45.59211197937079" lon="11.376022059670747"><ele>155.0</ele><time>2026-05-02T06:05:12.436Z</time></trkpt><trkpt lat="45.59223777810228" lon="11.37590389471461"><ele>155.0</ele><time>2026-05-02T06:05:13.436Z</time></trkpt><trkpt lat="45.592368940516174" lon="11.375783509517852"><ele>155.0</ele><time>2026-05-02T06:05:14.436Z</time></trkpt><trkpt lat="45.5924945681291" lon="11.37566104316681"><ele>155.0</ele><time>2026-05-02T06:05:15.436Z</time></trkpt><trkpt lat="45.59262327390629" lon="11.375540004052635"><ele>155.0</ele><time>2026-05-02T06:05:16.436Z</time></trkpt><trkpt lat="45.59274987860482" lon="11.375414506581036"><ele>155.0</ele><time>2026-05-02T06:05:17.436Z</time></trkpt><trkpt lat="45.59287100284574" lon="11.375303221929418"><ele>155.0</ele><time>2026-05-02T06:05:18.436Z</time></trkpt><trkpt lat="45.59298063659933" lon="11.375170776992762"><ele>155.0</ele><time>2026-05-02T06:05:19.436Z</time></trkpt><trkpt lat="45.593092370407" lon="11.375055919894878"><ele>155.75</ele><time>2026-05-02T06:05:20.436Z</time></trkpt><trkpt lat="45.59319232578686" lon="11.374958413850964"><ele>156.5</ele><time>2026-05-02T06:05:21.436Z</time></trkpt><trkpt lat="45.593316013212984" lon="11.37489621572973"><ele>157.25</ele><time>2026-05-02T06:05:22.436Z</time></trkpt><trkpt lat="45.593450364564504" lon="11.374872362738625"><ele>158.0</ele><time>2026-05-02T06:05:23.436Z</time></trkpt><trkpt lat="45.59358093665597" lon="11.374866877384807"><ele>158.0</ele><time>2026-05-02T06:05:24.436Z</time></trkpt><trkpt lat="45.59373292792238" lon="11.37490457561051"><ele>158.0</ele><time>2026-05-02T06:05:25.436Z</time></trkpt><trkpt lat="45.59386985980861" lon="11.374965006553687"><ele>158.0</ele><time>2026-05-02T06:05:26.436Z</time></trkpt><trkpt lat="45.59399893439128" lon="11.375005505837287"><ele>158.0</ele><time>2026-05-02T06:05:27.436Z</time></trkpt><trkpt lat="45.59413728374222" lon="11.37502472411759"><ele>158.0</ele><time>2026-05-02T06:05:28.436Z</time></trkpt><trkpt lat="45.594306661485355" lon="11.375060035911726"><ele>158.0</ele><time>2026-05-02T06:05:29.436Z</time></trkpt><trkpt lat="45.594488472210834" lon="11.375117589354726"><ele>158.0</ele><time>2026-05-02T06:05:30.436Z</time></trkpt><trkpt lat="45.59467035376821" lon="11.375160262746482"><ele>158.33333333333331</ele><time>2026-05-02T06:05:31.436Z</time></trkpt><trkpt lat="45.59485471869874" lon="11.375217390701359"><ele>158.66666666666666</ele><time>2026-05-02T06:05:32.436Z</time></trkpt><trkpt lat="45.59503646672915" lon="11.37529177545919"><ele>159.0</ele><time>2026-05-02T06:05:33.436Z</time></trkpt><trkpt lat="45.59519197052242" lon="11.375428596403506"><ele>158.66666666666666</ele><time>2026-05-02T06:05:34.436Z</time></trkpt><trkpt lat="45.59534070938164" lon="11.375506087985375"><ele>158.33333333333331</ele><time>2026-05-02T06:05:35.436Z</time></trkpt><trkpt lat="45.59551343741683" lon="11.37560787411427"><ele>158.0</ele><time>2026-05-02T06:05:36.436Z</time></trkpt><trkpt lat="45.5956755851989" lon="11.375713945697385"><ele>158.0</ele><time>2026-05-02T06:05:37.436Z</time></trkpt><trkpt lat="45.59583477591533" lon="11.37582702650667"><ele>158.0</ele><time>2026-05-02T06:05:38.436Z</time></trkpt><trkpt lat="45.59598698952149" lon="11.375945298946059"><ele>158.0</ele><time>2026-05-02T06:05:39.436Z</time></trkpt><trkpt lat="45.59612674728539" lon="11.376065876353554"><ele>158.25</ele><time>2026-05-02T06:05:40.436Z</time></trkpt><trkpt lat="45.5962538010981" lon="11.376183088549999"><ele>158.5</ele><time>2026-05-02T06:05:41.436Z</time></trkpt><trkpt lat="45.596370175709666" lon="11.376299324150763"><ele>158.75</ele><time>2026-05-02T06:05:42.436Z</time></trkpt><trkpt lat="45.596474080547694" lon="11.376411203849182"><ele>159.0</ele><time>2026-05-02T06:05:43.436Z</time></trkpt><trkpt lat="45.5965788678081" lon="11.376530372430295"><ele>158.4</ele><time>2026-05-02T06:05:44.436Z</time></trkpt><trkpt lat="45.59666105570959" lon="11.376629599042962"><ele>157.8</ele><time>2026-05-02T06:05:45.436Z</time></trkpt><trkpt lat="45.59674512478362" lon="11.376702939868446"><ele>157.2</ele><time>2026-05-02T06:05:46.436Z</time></trkpt><trkpt lat="45.59678999063081" lon="11.376831531205903"><ele>156.6</ele><time>2026-05-02T06:05:47.436Z</time></trkpt><trkpt lat="45.59678909672416" lon="11.377007784083416"><ele>156.0</ele><time>2026-05-02T06:05:48.436Z</time></trkpt><trkpt lat="45.5968118425544" lon="11.37714988055071"><ele>156.0</ele><time>2026-05-02T06:05:49.436Z</time></trkpt><trkpt lat="45.59684672157631" lon="11.377294137683677"><ele>156.0</ele><time>2026-05-02T06:05:50.436Z</time></trkpt><trkpt lat="45.59694388625484" lon="11.37739218223716"><ele>156.0</ele><time>2026-05-02T06:05:51.436Z</time></trkpt><trkpt lat="45.59706449311586" lon="11.377392101817"><ele>156.0</ele><time>2026-05-02T06:05:52.436Z</time></trkpt><trkpt lat="45.59717631658803" lon="11.377391196828558"><ele>156.0</ele><time>2026-05-02T06:05:53.436Z</time></trkpt><trkpt lat="45.597286525627716" lon="11.377527464730957"><ele>156.0</ele><time>2026-05-02T06:05:54.436Z</time></trkpt><trkpt lat="45.59736179404861" lon="11.377701957613588"><ele>156.0</ele><time>2026-05-02T06:05:55.436Z</time></trkpt><trkpt lat="45.59745332043987" lon="11.377893081634351"><ele>155.33333333333334</ele><time>2026-05-02T06:05:56.436Z</time></trkpt><trkpt lat="45.59755905809109" lon="11.378104645144145"><ele>154.66666666666669</ele><time>2026-05-02T06:05:57.436Z</time></trkpt><trkpt lat="45.597661049756496" lon="11.378356180242475"><ele>154.0</ele><time>2026-05-02T06:05:58.436Z</time></trkpt><trkpt lat="45.59776018696778" lon="11.37860155037952"><ele>155.0</ele><time>2026-05-02T06:05:59.436Z</time></trkpt><trkpt lat="45.59785110372134" lon="11.37885767410699"><ele>156.0</ele><time>2026-05-02T06:06:00.436Z</time></trkpt><trkpt lat="45.59795451543735" lon="11.379090647922531"><ele>157.0</ele><time>2026-05-02T06:06:01.436Z</time></trkpt><trkpt lat="45.59803628241155" lon="11.379315178215926"><ele>157.0</ele><time>2026-05-02T06:06:02.436Z</time></trkpt><trkpt lat="45.59814472062199" lon="11.379513227700823"><ele>157.0</ele><time>2026-05-02T06:06:03.436Z</time></trkpt><trkpt lat="45.59823642884467" lon="11.37970446788687"><ele>157.0</ele><time>2026-05-02T06:06:04.436Z</time></trkpt><trkpt lat="45.59832575140132" lon="11.379916624788605"><ele>157.0</ele><time>2026-05-02T06:06:05.436Z</time></trkpt><trkpt lat="45.59843835299878" lon="11.380108316662634"><ele>157.0</ele><time>2026-05-02T06:06:06.436Z</time></trkpt><trkpt lat="45.59855309740811" lon="11.38031228298939"><ele>157.0</ele><time>2026-05-02T06:06:07.436Z</time></trkpt><trkpt lat="45.59867361366434" lon="11.380496670411722"><ele>157.0</ele><time>2026-05-02T06:06:08.436Z</time></trkpt><trkpt lat="45.59880456960429" lon="11.380668093878985"><ele>157.0</ele><time>2026-05-02T06:06:09.436Z</time></trkpt><trkpt lat="45.598931371204756" lon="11.380849177182192"><ele>157.0</ele><time>2026-05-02T06:06:10.436Z</time></trkpt><trkpt lat="45.59906761854349" lon="11.381005078489153"><ele>157.0</ele><time>2026-05-02T06:06:11.436Z</time></trkpt><trkpt lat="45.59921955785877" lon="11.381162009904966"><ele>157.0</ele><time>2026-05-02T06:06:12.436Z</time></trkpt><trkpt lat="45.59937626436562" lon="11.381310113563092"><ele>157.0</ele><time>2026-05-02T06:06:13.436Z</time></trkpt><trkpt lat="45.5995584983092" lon="11.381455334259421"><ele>156.0</ele><time>2026-05-02T06:06:14.436Z</time></trkpt><trkpt lat="45.59973098521908" lon="11.381579544152547"><ele>155.0</ele><time>2026-05-02T06:06:15.436Z</time></trkpt><trkpt lat="45.59990701003516" lon="11.381689476174246"><ele>154.0</ele><time>2026-05-02T06:06:16.436Z</time></trkpt><trkpt lat="45.60008934354548" lon="11.381787696354115"><ele>154.0</ele><time>2026-05-02T06:06:17.436Z</time></trkpt><trkpt lat="45.600269104927214" lon="11.38186867901066"><ele>154.0</ele><time>2026-05-02T06:06:18.436Z</time></trkpt><trkpt lat="45.60045539433452" lon="11.381942808711731"><ele>154.0</ele><time>2026-05-02T06:06:19.436Z</time></trkpt><trkpt lat="45.600651191803294" lon="11.381996872336678"><ele>153.66666666666669</ele><time>2026-05-02T06:06:20.436Z</time></trkpt><trkpt lat="45.60085126819332" lon="11.382038190122115"><ele>153.33333333333334</ele><time>2026-05-02T06:06:21.436Z</time></trkpt><trkpt lat="45.60105991839357" lon="11.38206391493887"><ele>153.0</ele><time>2026-05-02T06:06:22.436Z</time></trkpt><trkpt lat="45.601262830516944" lon="11.382069878776408"><ele>152.33333333333334</ele><time>2026-05-02T06:06:23.436Z</time></trkpt><trkpt lat="45.60144734648377" lon="11.382073017284151"><ele>151.66666666666669</ele><time>2026-05-02T06:06:24.436Z</time></trkpt><trkpt lat="45.601624746122496" lon="11.382074793273954"><ele>151.0</ele><time>2026-05-02T06:06:25.436Z</time></trkpt><trkpt lat="45.601803981864144" lon="11.3820765876473"><ele>151.0</ele><time>2026-05-02T06:06:26.436Z</time></trkpt><trkpt lat="45.602004514326154" lon="11.38207859522424"><ele>151.0</ele><time>2026-05-02T06:06:27.436Z</time></trkpt><trkpt lat="45.602194731559095" lon="11.382080499532773"><ele>151.0</ele><time>2026-05-02T06:06:28.436Z</time></trkpt><trkpt lat="45.602386021499505" lon="11.382070801376743"><ele>151.0</ele><time>2026-05-02T06:06:29.436Z</time></trkpt><trkpt lat="45.6025716725021" lon="11.382065725431245"><ele>151.0</ele><time>2026-05-02T06:06:30.436Z</time></trkpt><trkpt lat="45.60276352409153" lon="11.382082354584716"><ele>151.0</ele><time>2026-05-02T06:06:31.436Z</time></trkpt><trkpt lat="45.60295827730485" lon="11.382083160123369"><ele>150.33333333333334</ele><time>2026-05-02T06:06:32.436Z</time></trkpt><trkpt lat="45.60316468570125" lon="11.382063981112518"><ele>149.66666666666666</ele><time>2026-05-02T06:06:33.436Z</time></trkpt><trkpt lat="45.60336799694661" lon="11.382049304670952"><ele>149.0</ele><time>2026-05-02T06:06:34.436Z</time></trkpt><trkpt lat="45.60356588504632" lon="11.382025370777797"><ele>149.33333333333331</ele><time>2026-05-02T06:06:35.436Z</time></trkpt><trkpt lat="45.603759604578144" lon="11.381991160048592"><ele>149.66666666666666</ele><time>2026-05-02T06:06:36.436Z</time></trkpt><trkpt lat="45.6039642513351" lon="11.381938211773267"><ele>150.0</ele><time>2026-05-02T06:06:37.436Z</time></trkpt><trkpt lat="45.604150361037156" lon="11.381886023001838"><ele>150.0</ele><time>2026-05-02T06:06:38.436Z</time></trkpt><trkpt lat="45.604338248068544" lon="11.381821807341"><ele>150.0</ele><time>2026-05-02T06:06:39.436Z</time></trkpt><trkpt lat="45.604512136579785" lon="11.381752574632099"><ele>150.0</ele><time>2026-05-02T06:06:40.436Z</time></trkpt><trkpt lat="45.6046850584924" lon="11.381649954436607"><ele>151.0</ele><time>2026-05-02T06:06:41.436Z</time></trkpt><trkpt lat="45.60485178017508" lon="11.381547055626529"><ele>152.0</ele><time>2026-05-02T06:06:42.436Z</time></trkpt><trkpt lat="45.605017179158146" lon="11.381440804342041"><ele>153.0</ele><time>2026-05-02T06:06:43.436Z</time></trkpt><trkpt lat="45.60517844096255" lon="11.381317501817716"><ele>153.66666666666666</ele><time>2026-05-02T06:06:44.436Z</time></trkpt><trkpt lat="45.605342434035045" lon="11.38120040422921"><ele>154.33333333333331</ele><time>2026-05-02T06:06:45.436Z</time></trkpt><trkpt lat="45.60550624015219" lon="11.38107023298147"><ele>155.0</ele><time>2026-05-02T06:06:46.436Z</time></trkpt><trkpt lat="45.60567151593137" lon="11.380930564001101"><ele>155.0</ele><time>2026-05-02T06:06:47.436Z</time></trkpt><trkpt lat="45.60584789976488" lon="11.380786824946863"><ele>155.0</ele><time>2026-05-02T06:06:48.436Z</time></trkpt><trkpt lat="45.60602365162623" lon="11.380660162916717"><ele>155.0</ele><time>2026-05-02T06:06:49.436Z</time></trkpt><trkpt lat="45.60619558170978" lon="11.380524947043464"><ele>156.66666666666666</ele><time>2026-05-02T06:06:50.436Z</time></trkpt><trkpt lat="45.60636184201638" lon="11.38039463119802"><ele>158.33333333333334</ele><time>2026-05-02T06:06:51.436Z</time></trkpt><trkpt lat="45.606517531101396" lon="11.380263807579516"><ele>160.0</ele><time>2026-05-02T06:06:52.436Z</time></trkpt><trkpt lat="45.60666938583077" lon="11.380144061476756"><ele>160.0</ele><time>2026-05-02T06:06:53.436Z</time></trkpt><trkpt lat="45.606815647544266" lon="11.380018457657572"><ele>160.0</ele><time>2026-05-02T06:06:54.436Z</time></trkpt><trkpt lat="45.60695991250917" lon="11.379900229863923"><ele>160.0</ele><time>2026-05-02T06:06:55.436Z</time></trkpt><trkpt lat="45.607105412049386" lon="11.379791982073435"><ele>161.0</ele><time>2026-05-02T06:06:56.436Z</time></trkpt><trkpt lat="45.607252193546756" lon="11.379682746718881"><ele>162.0</ele><time>2026-05-02T06:06:57.436Z</time></trkpt><trkpt lat="45.6074045024375" lon="11.37958020848373"><ele>163.0</ele><time>2026-05-02T06:06:58.436Z</time></trkpt><trkpt lat="45.60757813756309" lon="11.37948487801314"><ele>163.0</ele><time>2026-05-02T06:06:59.436Z</time></trkpt><trkpt lat="45.60774787812452" lon="11.379415977077294"><ele>163.0</ele><time>2026-05-02T06:07:00.436Z</time></trkpt><trkpt lat="45.6079244527567" lon="11.379360192195552"><ele>163.0</ele><time>2026-05-02T06:07:01.436Z</time></trkpt><trkpt lat="45.60809526978226" lon="11.379302686722992"><ele>162.33333333333334</ele><time>2026-05-02T06:07:02.436Z</time></trkpt><trkpt lat="45.60826828559212" lon="11.379269860441683"><ele>161.66666666666666</ele><time>2026-05-02T06:07:03.436Z</time></trkpt><trkpt lat="45.6084507287278" lon="11.379273409066965"><ele>161.0</ele><time>2026-05-02T06:07:04.436Z</time></trkpt><trkpt lat="45.608632570207014" lon="11.379270540994366"><ele>161.66666666666666</ele><time>2026-05-02T06:07:05.436Z</time></trkpt><trkpt lat="45.60881620682189" lon="11.379258866771524"><ele>162.33333333333334</ele><time>2026-05-02T06:07:06.436Z</time></trkpt><trkpt lat="45.60901451057781" lon="11.37927272131128"><ele>163.0</ele><time>2026-05-02T06:07:07.436Z</time></trkpt><trkpt lat="45.609195881999135" lon="11.379313146112576"><ele>163.0</ele><time>2026-05-02T06:07:08.436Z</time></trkpt><trkpt lat="45.609394417249455" lon="11.37932084941492"><ele>163.0</ele><time>2026-05-02T06:07:09.436Z</time></trkpt><trkpt lat="45.60958342401769" lon="11.379349275290851"><ele>163.0</ele><time>2026-05-02T06:07:10.437Z</time></trkpt><trkpt lat="45.609749699830324" lon="11.379366313745312"><ele>164.0</ele><time>2026-05-02T06:07:11.437Z</time></trkpt><trkpt lat="45.60991074853713" lon="11.379388860204168"><ele>165.0</ele><time>2026-05-02T06:07:12.437Z</time></trkpt><trkpt lat="45.61007481924745" lon="11.379440705786656"><ele>166.0</ele><time>2026-05-02T06:07:13.437Z</time></trkpt><trkpt lat="45.61023197204431" lon="11.379481095637018"><ele>167.66666666666669</ele><time>2026-05-02T06:07:14.437Z</time></trkpt><trkpt lat="45.61038907723199" lon="11.379520691879623"><ele>169.33333333333334</ele><time>2026-05-02T06:07:15.437Z</time></trkpt><trkpt lat="45.610547343038455" lon="11.37958208087735"><ele>171.0</ele><time>2026-05-02T06:07:16.437Z</time></trkpt><trkpt lat="45.61070970797295" lon="11.37965928947064"><ele>170.66666666666666</ele><time>2026-05-02T06:07:17.437Z</time></trkpt><trkpt lat="45.610867504920556" lon="11.379718225671631"><ele>170.33333333333331</ele><time>2026-05-02T06:07:18.437Z</time></trkpt><trkpt lat="45.611033276826774" lon="11.379779007476808"><ele>170.0</ele><time>2026-05-02T06:07:19.437Z</time></trkpt><trkpt lat="45.611195746147885" lon="11.37983844092809"><ele>170.0</ele><time>2026-05-02T06:07:20.437Z</time></trkpt><trkpt lat="45.61135403290738" lon="11.379896344293304"><ele>170.0</ele><time>2026-05-02T06:07:21.437Z</time></trkpt><trkpt lat="45.61150524259391" lon="11.37994817470136"><ele>170.0</ele><time>2026-05-02T06:07:22.437Z</time></trkpt><trkpt lat="45.611655312689244" lon="11.379995784551275"><ele>170.0</ele><time>2026-05-02T06:07:23.437Z</time></trkpt><trkpt lat="45.611814929765046" lon="11.38004576870006"><ele>170.0</ele><time>2026-05-02T06:07:24.437Z</time></trkpt><trkpt lat="45.611961459504066" lon="11.380085779132866"><ele>170.0</ele><time>2026-05-02T06:07:25.437Z</time></trkpt><trkpt lat="45.61211620460598" lon="11.380123969950965"><ele>171.66666666666666</ele><time>2026-05-02T06:07:26.437Z</time></trkpt><trkpt lat="45.61227320128754" lon="11.380160511946803"><ele>173.33333333333334</ele><time>2026-05-02T06:07:27.437Z</time></trkpt><trkpt lat="45.61243526005077" lon="11.380194641688902"><ele>175.0</ele><time>2026-05-02T06:07:28.437Z</time></trkpt><trkpt lat="45.61258684163104" lon="11.380226465431376"><ele>175.0</ele><time>2026-05-02T06:07:29.437Z</time></trkpt><trkpt lat="45.61274616280773" lon="11.380259914089976"><ele>175.0</ele><time>2026-05-02T06:07:30.437Z</time></trkpt><trkpt lat="45.61292260918971" lon="11.38029538805625"><ele>175.0</ele><time>2026-05-02T06:07:31.437Z</time></trkpt><trkpt lat="45.61310590229629" lon="11.3803313172033"><ele>174.66666666666669</ele><time>2026-05-02T06:07:32.437Z</time></trkpt><trkpt lat="45.61329122148992" lon="11.38036738778642"><ele>174.33333333333334</ele><time>2026-05-02T06:07:33.437Z</time></trkpt><trkpt lat="45.61346421561318" lon="11.380390335832807"><ele>174.0</ele><time>2026-05-02T06:07:34.437Z</time></trkpt><trkpt lat="45.61363815394276" lon="11.380416740452858"><ele>174.33333333333334</ele><time>2026-05-02T06:07:35.437Z</time></trkpt><trkpt lat="45.6138041600576" lon="11.380452813486157"><ele>174.66666666666669</ele><time>2026-05-02T06:07:36.437Z</time></trkpt><trkpt lat="45.613960513154595" lon="11.380485186419547"><ele>175.0</ele><time>2026-05-02T06:07:37.437Z</time></trkpt><trkpt lat="45.614111491782054" lon="11.380532765735316"><ele>175.66666666666669</ele><time>2026-05-02T06:07:38.437Z</time></trkpt><trkpt lat="45.614282620597876" lon="11.380578502482374"><ele>176.33333333333334</ele><time>2026-05-02T06:07:39.437Z</time></trkpt><trkpt lat="45.61445318338793" lon="11.380621969085153"><ele>177.0</ele><time>2026-05-02T06:07:40.437Z</time></trkpt><trkpt lat="45.614614861043854" lon="11.380672942631753"><ele>177.0</ele><time>2026-05-02T06:07:41.437Z</time></trkpt><trkpt lat="45.61478374432252" lon="11.38075221353292"><ele>177.0</ele><time>2026-05-02T06:07:42.437Z</time></trkpt><trkpt lat="45.6149201353329" lon="11.380853249244465"><ele>177.0</ele><time>2026-05-02T06:07:43.437Z</time></trkpt><trkpt lat="45.61505229271807" lon="11.380916196697095"><ele>177.0</ele><time>2026-05-02T06:07:44.437Z</time></trkpt><trkpt lat="45.6151340950687" lon="11.381003248998418"><ele>177.0</ele><time>2026-05-02T06:07:45.437Z</time></trkpt><trkpt lat="45.61520782674647" lon="11.381043448241009"><ele>177.0</ele><time>2026-05-02T06:07:46.437Z</time></trkpt><trkpt lat="45.61528681515753" lon="11.38113173934962"><ele>177.0</ele><time>2026-05-02T06:07:48.437Z</time></trkpt><trkpt lat="45.6153535171333" lon="11.381178159266113"><ele>177.0</ele><time>2026-05-02T06:07:52.437Z</time></trkpt><trkpt lat="45.615399190919554" lon="11.381260347663346"><ele>177.0</ele><time>2026-05-02T06:08:01.437Z</time></trkpt><trkpt lat="45.61545593172424" lon="11.381305874730776"><ele>177.33333333333334</ele><time>2026-05-02T06:08:02.437Z</time></trkpt><trkpt lat="45.61556958680606" lon="11.381366889634638"><ele>177.66666666666669</ele><time>2026-05-02T06:08:03.437Z</time></trkpt><trkpt lat="45.61572086495235" lon="11.381495341640612"><ele>178.0</ele><time>2026-05-02T06:08:04.437Z</time></trkpt><trkpt lat="45.615869545765364" lon="11.381618378379242"><ele>178.0</ele><time>2026-05-02T06:08:05.437Z</time></trkpt><trkpt lat="45.61605609201195" lon="11.381735839521335"><ele>178.0</ele><time>2026-05-02T06:08:06.437Z</time></trkpt><trkpt lat="45.61626848407166" lon="11.381855034164685"><ele>178.0</ele><time>2026-05-02T06:08:07.437Z</time></trkpt><trkpt lat="45.61645552092857" lon="11.381941852041242"><ele>180.66666666666669</ele><time>2026-05-02T06:08:08.437Z</time></trkpt><trkpt lat="45.616624871015304" lon="11.381990502576759"><ele>183.33333333333334</ele><time>2026-05-02T06:08:09.437Z</time></trkpt><trkpt lat="45.616792189119856" lon="11.382027523068555"><ele>186.0</ele><time>2026-05-02T06:08:10.437Z</time></trkpt><trkpt lat="45.616973972050694" lon="11.382070733665797"><ele>187.0</ele><time>2026-05-02T06:08:11.437Z</time></trkpt><trkpt lat="45.61715057273685" lon="11.38209939154936"><ele>188.0</ele><time>2026-05-02T06:08:12.437Z</time></trkpt><trkpt lat="45.617321649259935" lon="11.382105979017554"><ele>189.0</ele><time>2026-05-02T06:08:13.437Z</time></trkpt><trkpt lat="45.617511911192246" lon="11.382052403271985"><ele>189.0</ele><time>2026-05-02T06:08:14.437Z</time></trkpt><trkpt lat="45.617697603766636" lon="11.382022049682206"><ele>189.0</ele><time>2026-05-02T06:08:15.437Z</time></trkpt><trkpt lat="45.61789664914841" lon="11.381991072363535"><ele>189.0</ele><time>2026-05-02T06:08:16.437Z</time></trkpt><trkpt lat="45.618094709911006" lon="11.381954481852647"><ele>191.66666666666669</ele><time>2026-05-02T06:08:17.437Z</time></trkpt><trkpt lat="45.618302764234514" lon="11.381923914320414"><ele>194.33333333333334</ele><time>2026-05-02T06:08:18.437Z</time></trkpt><trkpt lat="45.61850993259273" lon="11.381899251973419"><ele>197.0</ele><time>2026-05-02T06:08:19.437Z</time></trkpt><trkpt lat="45.61872375459371" lon="11.38189321792557"><ele>198.33333333333334</ele><time>2026-05-02T06:08:20.437Z</time></trkpt><trkpt lat="45.61895435406516" lon="11.381898655432577"><ele>199.66666666666669</ele><time>2026-05-02T06:08:21.437Z</time></trkpt><trkpt lat="45.619158655037005" lon="11.381909803325383"><ele>201.0</ele><time>2026-05-02T06:08:22.437Z</time></trkpt><trkpt lat="45.61937650029715" lon="11.381920633545244"><ele>203.66666666666669</ele><time>2026-05-02T06:08:23.437Z</time></trkpt><trkpt lat="45.61955503707886" lon="11.381929346803615"><ele>206.33333333333334</ele><time>2026-05-02T06:08:24.437Z</time></trkpt><trkpt lat="45.61978502292657" lon="11.381938822355076"><ele>209.0</ele><time>2026-05-02T06:08:25.437Z</time></trkpt><trkpt lat="45.62003451072115" lon="11.38193015917117"><ele>209.0</ele><time>2026-05-02T06:08:26.437Z</time></trkpt><trkpt lat="45.6202904455668" lon="11.381861839554476"><ele>209.0</ele><time>2026-05-02T06:08:27.437Z</time></trkpt><trkpt lat="45.62052032348458" lon="11.38179900925728"><ele>207.5</ele><time>2026-05-02T06:08:28.437Z</time></trkpt><trkpt lat="45.62073406743544" lon="11.381650780394555"><ele>206.0</ele><time>2026-05-02T06:08:29.437Z</time></trkpt><trkpt lat="45.62096165075211" lon="11.381502985935825"><ele>210.0</ele><time>2026-05-02T06:08:30.437Z</time></trkpt><trkpt lat="45.62116724037748" lon="11.381313179958173"><ele>214.0</ele><time>2026-05-02T06:08:31.437Z</time></trkpt><trkpt lat="45.621336558244565" lon="11.381121878630218"><ele>214.0</ele><time>2026-05-02T06:08:32.437Z</time></trkpt><trkpt lat="45.62151433293884" lon="11.380876994601415"><ele>214.0</ele><time>2026-05-02T06:08:33.437Z</time></trkpt><trkpt lat="45.62166997602098" lon="11.380588964981971"><ele>214.0</ele><time>2026-05-02T06:08:34.437Z</time></trkpt><trkpt lat="45.62183119107687" lon="11.380332853594995"><ele>214.0</ele><time>2026-05-02T06:08:35.437Z</time></trkpt><trkpt lat="45.62198367775291" lon="11.38007999995077"><ele>214.0</ele><time>2026-05-02T06:08:36.437Z</time></trkpt><trkpt lat="45.62214597142944" lon="11.37984457741973"><ele>214.0</ele><time>2026-05-02T06:08:37.437Z</time></trkpt><trkpt lat="45.62229279766577" lon="11.379604336270502"><ele>219.66666666666666</ele><time>2026-05-02T06:08:38.437Z</time></trkpt><trkpt lat="45.62243168448394" lon="11.379364378430644"><ele>225.33333333333331</ele><time>2026-05-02T06:08:39.437Z</time></trkpt><trkpt lat="45.62259698519681" lon="11.37916019653362"><ele>231.0</ele><time>2026-05-02T06:08:40.437Z</time></trkpt><trkpt lat="45.62278155438182" lon="11.378975404369376"><ele>236.33333333333331</ele><time>2026-05-02T06:08:41.437Z</time></trkpt><trkpt lat="45.622971858805" lon="11.378818896802581"><ele>241.66666666666666</ele><time>2026-05-02T06:08:42.437Z</time></trkpt><trkpt lat="45.623183588260325" lon="11.378691235357646"><ele>247.0</ele><time>2026-05-02T06:08:43.437Z</time></trkpt><trkpt lat="45.62340403434684" lon="11.378594917917905"><ele>247.0</ele><time>2026-05-02T06:08:44.437Z</time></trkpt><trkpt lat="45.62361150633668" lon="11.378485382600092"><ele>247.0</ele><time>2026-05-02T06:08:45.437Z</time></trkpt><trkpt lat="45.623814295556976" lon="11.378321857270379"><ele>250.0</ele><time>2026-05-02T06:08:46.437Z</time></trkpt><trkpt lat="45.62401248997593" lon="11.378146653473202"><ele>253.0</ele><time>2026-05-02T06:08:47.437Z</time></trkpt><trkpt lat="45.624210446726934" lon="11.377955872456171"><ele>253.0</ele><time>2026-05-02T06:08:48.437Z</time></trkpt><trkpt lat="45.62437510658738" lon="11.37774390309501"><ele>253.0</ele><time>2026-05-02T06:08:49.437Z</time></trkpt><trkpt lat="45.62451048322124" lon="11.377548625074445"><ele>253.0</ele><time>2026-05-02T06:08:50.437Z</time></trkpt><trkpt lat="45.624679472490904" lon="11.377386427994367"><ele>253.33333333333331</ele><time>2026-05-02T06:08:51.437Z</time></trkpt><trkpt lat="45.62486620988709" lon="11.377261330493084"><ele>253.66666666666669</ele><time>2026-05-02T06:08:52.437Z</time></trkpt><trkpt lat="45.62508976109998" lon="11.37714696490149"><ele>254.0</ele><time>2026-05-02T06:08:53.437Z</time></trkpt><trkpt lat="45.62531499632582" lon="11.377048574018282"><ele>246.5</ele><time>2026-05-02T06:08:54.437Z</time></trkpt><trkpt lat="45.625557167463256" lon="11.37700008447422"><ele>239.0</ele><time>2026-05-02T06:08:55.437Z</time></trkpt><trkpt lat="45.6257693586358" lon="11.376922959771784"><ele>239.0</ele><time>2026-05-02T06:08:56.437Z</time></trkpt><trkpt lat="45.62597564681618" lon="11.376850086059823"><ele>239.0</ele><time>2026-05-02T06:08:57.437Z</time></trkpt><trkpt lat="45.62616171472264" lon="11.376792786072599"><ele>239.0</ele><time>2026-05-02T06:08:58.437Z</time></trkpt><trkpt lat="45.626374577764395" lon="11.376744223791775"><ele>238.5</ele><time>2026-05-02T06:08:59.437Z</time></trkpt><trkpt lat="45.62659473510344" lon="11.376668674018886"><ele>238.0</ele><time>2026-05-02T06:09:00.437Z</time></trkpt><trkpt lat="45.626825343594646" lon="11.376591180128935"><ele>237.0</ele><time>2026-05-02T06:09:01.437Z</time></trkpt><trkpt lat="45.62706217435571" lon="11.37649852001386"><ele>236.0</ele><time>2026-05-02T06:09:02.437Z</time></trkpt><trkpt lat="45.6273037958817" lon="11.376379390824592"><ele>241.5</ele><time>2026-05-02T06:09:03.437Z</time></trkpt><trkpt lat="45.62752237465181" lon="11.376290077830038"><ele>247.0</ele><time>2026-05-02T06:09:04.437Z</time></trkpt><trkpt lat="45.62774370511684" lon="11.376173207609057"><ele>245.5</ele><time>2026-05-02T06:09:05.437Z</time></trkpt><trkpt lat="45.62795403597372" lon="11.376041379478657"><ele>244.0</ele><time>2026-05-02T06:09:06.437Z</time></trkpt><trkpt lat="45.62816096795576" lon="11.375894013933841"><ele>244.0</ele><time>2026-05-02T06:09:07.437Z</time></trkpt><trkpt lat="45.62836556107975" lon="11.375778904098206"><ele>244.0</ele><time>2026-05-02T06:09:08.437Z</time></trkpt><trkpt lat="45.62857202745444" lon="11.375636944693762"><ele>244.0</ele><time>2026-05-02T06:09:09.437Z</time></trkpt><trkpt lat="45.628772110862265" lon="11.375479935414772"><ele>244.5</ele><time>2026-05-02T06:09:10.437Z</time></trkpt><trkpt lat="45.628988764844635" lon="11.375347001844464"><ele>245.0</ele><time>2026-05-02T06:09:11.437Z</time></trkpt><trkpt lat="45.62921187099236" lon="11.37519177939832"><ele>245.0</ele><time>2026-05-02T06:09:12.437Z</time></trkpt><trkpt lat="45.62943080430617" lon="11.375039460152404"><ele>245.0</ele><time>2026-05-02T06:09:13.437Z</time></trkpt><trkpt lat="45.62965182741402" lon="11.374859467384569"><ele>246.5</ele><time>2026-05-02T06:09:14.437Z</time></trkpt><trkpt lat="45.62987009505028" lon="11.374696417485897"><ele>248.0</ele><time>2026-05-02T06:09:15.437Z</time></trkpt><trkpt lat="45.630066492194615" lon="11.374539645955037"><ele>247.33333333333334</ele><time>2026-05-02T06:09:16.438Z</time></trkpt><trkpt lat="45.63025503350813" lon="11.374370433461218"><ele>246.66666666666669</ele><time>2026-05-02T06:09:17.438Z</time></trkpt><trkpt lat="45.63043161875847" lon="11.37419090164875"><ele>246.0</ele><time>2026-05-02T06:09:18.438Z</time></trkpt><trkpt lat="45.63059188954684" lon="11.37400112221739"><ele>248.33333333333331</ele><time>2026-05-02T06:09:19.438Z</time></trkpt><trkpt lat="45.63074570785767" lon="11.373805459640908"><ele>250.66666666666666</ele><time>2026-05-02T06:09:20.438Z</time></trkpt><trkpt lat="45.63089797789997" lon="11.373620613910566"><ele>253.0</ele><time>2026-05-02T06:09:21.438Z</time></trkpt><trkpt lat="45.63105013362412" lon="11.373450967189179"><ele>252.0</ele><time>2026-05-02T06:09:22.438Z</time></trkpt><trkpt lat="45.631198894225015" lon="11.373294321168832"><ele>251.0</ele><time>2026-05-02T06:09:23.438Z</time></trkpt><trkpt lat="45.63133569844572" lon="11.373134504852748"><ele>250.0</ele><time>2026-05-02T06:09:24.438Z</time></trkpt><trkpt lat="45.63146628204603" lon="11.372982226701513"><ele>250.0</ele><time>2026-05-02T06:09:25.438Z</time></trkpt><trkpt lat="45.631597613696385" lon="11.372820085474467"><ele>250.0</ele><time>2026-05-02T06:09:26.438Z</time></trkpt><trkpt lat="45.63172352493078" lon="11.372677680496935"><ele>250.0</ele><time>2026-05-02T06:09:27.438Z</time></trkpt><trkpt lat="45.631855774346974" lon="11.372553226416088"><ele>250.33333333333331</ele><time>2026-05-02T06:09:28.438Z</time></trkpt><trkpt lat="45.63200297089926" lon="11.372470857040554"><ele>250.66666666666669</ele><time>2026-05-02T06:09:29.438Z</time></trkpt><trkpt lat="45.63214518351846" lon="11.372419986224777"><ele>251.0</ele><time>2026-05-02T06:09:30.438Z</time></trkpt><trkpt lat="45.63230929226481" lon="11.372420104469064"><ele>251.0</ele><time>2026-05-02T06:09:31.438Z</time></trkpt><trkpt lat="45.63245328252451" lon="11.372471262964751"><ele>251.0</ele><time>2026-05-02T06:09:32.438Z</time></trkpt><trkpt lat="45.63260139950291" lon="11.372547350520641"><ele>251.0</ele><time>2026-05-02T06:09:33.438Z</time></trkpt><trkpt lat="45.6327497683422" lon="11.372635280582246"><ele>252.5</ele><time>2026-05-02T06:09:34.438Z</time></trkpt><trkpt lat="45.63287414327041" lon="11.372710229468037"><ele>254.0</ele><time>2026-05-02T06:09:35.438Z</time></trkpt><trkpt lat="45.63298285774735" lon="11.37277492006523"><ele>255.5</ele><time>2026-05-02T06:09:36.438Z</time></trkpt><trkpt lat="45.63308468519547" lon="11.372833965935992"><ele>257.0</ele><time>2026-05-02T06:09:37.438Z</time></trkpt><trkpt lat="45.633181875353415" lon="11.37290292087404"><ele>257.0</ele><time>2026-05-02T06:09:38.438Z</time></trkpt><trkpt lat="45.63327250245026" lon="11.372949552603778"><ele>257.0</ele><time>2026-05-02T06:09:39.438Z</time></trkpt><trkpt lat="45.63336189752841" lon="11.373041719715546"><ele>257.0</ele><time>2026-05-02T06:09:40.438Z</time></trkpt><trkpt lat="45.633472056331826" lon="11.373091777769512"><ele>257.0</ele><time>2026-05-02T06:09:41.438Z</time></trkpt><trkpt lat="45.633583848426454" lon="11.373147620971542"><ele>257.0</ele><time>2026-05-02T06:09:42.438Z</time></trkpt><trkpt lat="45.633687570651915" lon="11.373215274884252"><ele>257.4</ele><time>2026-05-02T06:09:43.438Z</time></trkpt><trkpt lat="45.633794574509594" lon="11.373258876027249"><ele>257.79999999999995</ele><time>2026-05-02T06:09:44.438Z</time></trkpt><trkpt lat="45.63389978981729" lon="11.373293932348801"><ele>258.2</ele><time>2026-05-02T06:09:45.438Z</time></trkpt><trkpt lat="45.633995618127585" lon="11.373332920354526"><ele>258.59999999999997</ele><time>2026-05-02T06:09:46.438Z</time></trkpt><trkpt lat="45.63409700364932" lon="11.373386715075682"><ele>259.0</ele><time>2026-05-02T06:09:47.438Z</time></trkpt><trkpt lat="45.63420579156336" lon="11.373443355552178"><ele>259.0</ele><time>2026-05-02T06:09:48.438Z</time></trkpt><trkpt lat="45.63430693240216" lon="11.373499582456624"><ele>259.0</ele><time>2026-05-02T06:09:49.438Z</time></trkpt><trkpt lat="45.63440726887532" lon="11.373538965941536"><ele>259.0</ele><time>2026-05-02T06:09:50.438Z</time></trkpt><trkpt lat="45.634519952066775" lon="11.373585141355385"><ele>259.0</ele><time>2026-05-02T06:09:51.438Z</time></trkpt><trkpt lat="45.6346302025958" lon="11.373600255662602"><ele>259.0</ele><time>2026-05-02T06:09:52.438Z</time></trkpt><trkpt lat="45.6347459983138" lon="11.373614158461397"><ele>256.2</ele><time>2026-05-02T06:09:53.438Z</time></trkpt><trkpt lat="45.63486182449412" lon="11.373589793815537"><ele>253.39999999999998</ele><time>2026-05-02T06:09:54.438Z</time></trkpt><trkpt lat="45.634951603789055" lon="11.373633612689806"><ele>250.6</ele><time>2026-05-02T06:09:55.438Z</time></trkpt><trkpt lat="45.635068061997295" lon="11.373619364101517"><ele>247.8</ele><time>2026-05-02T06:09:56.438Z</time></trkpt><trkpt lat="45.63517758019276" lon="11.373607044533534"><ele>245.0</ele><time>2026-05-02T06:09:57.438Z</time></trkpt><trkpt lat="45.63528964197972" lon="11.373605889462121"><ele>247.25</ele><time>2026-05-02T06:09:58.438Z</time></trkpt><trkpt lat="45.63541078402283" lon="11.37360229144727"><ele>249.5</ele><time>2026-05-02T06:09:59.438Z</time></trkpt><trkpt lat="45.63552029362622" lon="11.373654038776365"><ele>251.75</ele><time>2026-05-02T06:10:00.438Z</time></trkpt><trkpt lat="45.63561425999464" lon="11.37378065373684"><ele>254.0</ele><time>2026-05-02T06:10:01.438Z</time></trkpt><trkpt lat="45.63569339568233" lon="11.37386224271362"><ele>254.0</ele><time>2026-05-02T06:10:02.438Z</time></trkpt><trkpt lat="45.63580046571404" lon="11.37397690361266"><ele>253.99999999999997</ele><time>2026-05-02T06:10:04.438Z</time></trkpt><trkpt lat="45.63587204765048" lon="11.374039399054242"><ele>253.99999999999997</ele><time>2026-05-02T06:10:05.438Z</time></trkpt><trkpt lat="45.6359686741772" lon="11.374067835651811"><ele>254.0</ele><time>2026-05-02T06:10:06.438Z</time></trkpt><trkpt lat="45.63605819134761" lon="11.3740610065265"><ele>254.0</ele><time>2026-05-02T06:10:07.438Z</time></trkpt><trkpt lat="45.6361406065482" lon="11.37419156747348"><ele>250.79999999999998</ele><time>2026-05-02T06:10:09.438Z</time></trkpt><trkpt lat="45.63619158774332" lon="11.374246543946997"><ele>247.59999999999997</ele><time>2026-05-02T06:10:10.438Z</time></trkpt><trkpt lat="45.63625908057176" lon="11.374261598019087"><ele>244.4</ele><time>2026-05-02T06:10:11.438Z</time></trkpt><trkpt lat="45.63636191845298" lon="11.374224143271011"><ele>241.2</ele><time>2026-05-02T06:10:13.438Z</time></trkpt><trkpt lat="45.636349708468835" lon="11.374071877784502"><ele>238.0</ele><time>2026-05-02T06:10:15.438Z</time></trkpt><trkpt lat="45.63625474046783" lon="11.373966240111995"><ele>238.0</ele><time>2026-05-02T06:10:17.438Z</time></trkpt><trkpt lat="45.63616949372913" lon="11.37392322427012"><ele>238.0</ele><time>2026-05-02T06:10:18.438Z</time></trkpt><trkpt lat="45.636072778517594" lon="11.373855740502414"><ele>238.0</ele><time>2026-05-02T06:10:19.438Z</time></trkpt><trkpt lat="45.63597744840626" lon="11.373785899220094"><ele>238.0</ele><time>2026-05-02T06:10:20.438Z</time></trkpt><trkpt lat="45.635884383788216" lon="11.373694931985034"><ele>238.0</ele><time>2026-05-02T06:10:21.438Z</time></trkpt><trkpt lat="45.63580424332184" lon="11.37358686436563"><ele>234.0</ele><time>2026-05-02T06:10:22.438Z</time></trkpt><trkpt lat="45.63571768503698" lon="11.3735042802526"><ele>230.0</ele><time>2026-05-02T06:10:23.438Z</time></trkpt><trkpt lat="45.635623143776996" lon="11.37337734100751"><ele>226.0</ele><time>2026-05-02T06:10:24.438Z</time></trkpt><trkpt lat="45.63551462922692" lon="11.373273160655398"><ele>222.0</ele><time>2026-05-02T06:10:25.438Z</time></trkpt><trkpt lat="45.635412703851365" lon="11.373229867567922"><ele>222.0</ele><time>2026-05-02T06:10:26.438Z</time></trkpt><trkpt lat="45.63531556856059" lon="11.373187996589765"><ele>222.0</ele><time>2026-05-02T06:10:27.438Z</time></trkpt><trkpt lat="45.63522795523857" lon="11.373157857281038"><ele>222.0</ele><time>2026-05-02T06:10:28.438Z</time></trkpt><trkpt lat="45.63515069517569" lon="11.373116309624672"><ele>222.0</ele><time>2026-05-02T06:10:29.438Z</time></trkpt><trkpt lat="45.63508664047696" lon="11.373035872525005"><ele>222.0</ele><time>2026-05-02T06:10:30.438Z</time></trkpt><trkpt lat="45.63504252708412" lon="11.372930405650145"><ele>222.0</ele><time>2026-05-02T06:10:31.438Z</time></trkpt><trkpt lat="45.635043648675335" lon="11.372809511467958"><ele>221.0</ele><time>2026-05-02T06:10:32.438Z</time></trkpt><trkpt lat="45.635079893199304" lon="11.372683405871095"><ele>220.0</ele><time>2026-05-02T06:10:33.438Z</time></trkpt><trkpt lat="45.6351598984154" lon="11.372570911286894"><ele>219.0</ele><time>2026-05-02T06:10:34.438Z</time></trkpt><trkpt lat="45.635268661693466" lon="11.372478999186072"><ele>218.0</ele><time>2026-05-02T06:10:35.438Z</time></trkpt><trkpt lat="45.6353884096953" lon="11.37241228886215"><ele>218.0</ele><time>2026-05-02T06:10:36.438Z</time></trkpt><trkpt lat="45.635538114460395" lon="11.372313833015605"><ele>218.0</ele><time>2026-05-02T06:10:37.438Z</time></trkpt><trkpt lat="45.63567919384785" lon="11.3722062050715"><ele>218.0</ele><time>2026-05-02T06:10:38.438Z</time></trkpt><trkpt lat="45.63581012588737" lon="11.372142654490336"><ele>217.0</ele><time>2026-05-02T06:10:39.438Z</time></trkpt><trkpt lat="45.63596011437296" lon="11.37211998447322"><ele>216.0</ele><time>2026-05-02T06:10:40.438Z</time></trkpt><trkpt lat="45.63610405000227" lon="11.372128208205323"><ele>215.0</ele><time>2026-05-02T06:10:41.438Z</time></trkpt><trkpt lat="45.636238411969124" lon="11.372164968523728"><ele>214.0</ele><time>2026-05-02T06:10:42.438Z</time></trkpt><trkpt lat="45.63638710943186" lon="11.3722235706619"><ele>214.0</ele><time>2026-05-02T06:10:43.438Z</time></trkpt><trkpt lat="45.63652471449621" lon="11.372292043349521"><ele>214.0</ele><time>2026-05-02T06:10:44.438Z</time></trkpt><trkpt lat="45.63666202439488" lon="11.372357116184265"><ele>214.0</ele><time>2026-05-02T06:10:45.438Z</time></trkpt><trkpt lat="45.636804098645555" lon="11.3724128245302"><ele>214.0</ele><time>2026-05-02T06:10:46.438Z</time></trkpt><trkpt lat="45.636936522518376" lon="11.372467630337018"><ele>215.25</ele><time>2026-05-02T06:10:47.438Z</time></trkpt><trkpt lat="45.637056252422525" lon="11.372555097806353"><ele>216.5</ele><time>2026-05-02T06:10:48.438Z</time></trkpt><trkpt lat="45.637156437786466" lon="11.372672687780177"><ele>217.75</ele><time>2026-05-02T06:10:49.438Z</time></trkpt><trkpt lat="45.63724716679254" lon="11.372814883885278"><ele>219.0</ele><time>2026-05-02T06:10:50.438Z</time></trkpt><trkpt lat="45.63732951584049" lon="11.372991313150616"><ele>215.66666666666669</ele><time>2026-05-02T06:10:51.438Z</time></trkpt><trkpt lat="45.63740889761333" lon="11.373169893554728"><ele>212.33333333333334</ele><time>2026-05-02T06:10:52.438Z</time></trkpt><trkpt lat="45.63748804885051" lon="11.373360824246637"><ele>209.0</ele><time>2026-05-02T06:10:53.438Z</time></trkpt><trkpt lat="45.6375631866817" lon="11.37354852623281"><ele>209.0</ele><time>2026-05-02T06:10:54.438Z</time></trkpt><trkpt lat="45.63762831104449" lon="11.373724258453118"><ele>209.0</ele><time>2026-05-02T06:10:55.438Z</time></trkpt><trkpt lat="45.63769664228972" lon="11.373874977827688"><ele>209.0</ele><time>2026-05-02T06:10:56.438Z</time></trkpt><trkpt lat="45.63777929445014" lon="11.374016522000854"><ele>209.0</ele><time>2026-05-02T06:10:57.438Z</time></trkpt><trkpt lat="45.63788665818626" lon="11.374133465201348"><ele>208.25</ele><time>2026-05-02T06:10:58.438Z</time></trkpt><trkpt lat="45.638002858827825" lon="11.37423987536707"><ele>207.5</ele><time>2026-05-02T06:10:59.438Z</time></trkpt><trkpt lat="45.63814321247543" lon="11.374315229506646"><ele>206.75</ele><time>2026-05-02T06:11:00.438Z</time></trkpt><trkpt lat="45.63828000518658" lon="11.374376687088626"><ele>206.0</ele><time>2026-05-02T06:11:01.438Z</time></trkpt><trkpt lat="45.638409317071776" lon="11.374454176992673"><ele>206.0</ele><time>2026-05-02T06:11:02.438Z</time></trkpt><trkpt lat="45.63852978337946" lon="11.374545110992196"><ele>206.0</ele><time>2026-05-02T06:11:03.438Z</time></trkpt><trkpt lat="45.638649876503266" lon="11.374666233447806"><ele>206.0</ele><time>2026-05-02T06:11:04.438Z</time></trkpt><trkpt lat="45.638763679395886" lon="11.374794682176992"><ele>206.0</ele><time>2026-05-02T06:11:05.438Z</time></trkpt><trkpt lat="45.63885312795615" lon="11.374959802988672"><ele>205.0</ele><time>2026-05-02T06:11:06.438Z</time></trkpt><trkpt lat="45.638927388752236" lon="11.375133348649003"><ele>204.0</ele><time>2026-05-02T06:11:07.438Z</time></trkpt><trkpt lat="45.63898322735744" lon="11.37528642669843"><ele>203.0</ele><time>2026-05-02T06:11:08.438Z</time></trkpt><trkpt lat="45.63903976194963" lon="11.375428728702357"><ele>202.0</ele><time>2026-05-02T06:11:09.438Z</time></trkpt><trkpt lat="45.63909239096871" lon="11.375574700741046"><ele>200.0</ele><time>2026-05-02T06:11:10.438Z</time></trkpt><trkpt lat="45.639147751153374" lon="11.375699174650562"><ele>198.0</ele><time>2026-05-02T06:11:11.438Z</time></trkpt><trkpt lat="45.6392317299904" lon="11.375753450679314"><ele>196.0</ele><time>2026-05-02T06:11:12.438Z</time></trkpt><trkpt lat="45.63933368219792" lon="11.375776228151926"><ele>194.0</ele><time>2026-05-02T06:11:13.438Z</time></trkpt><trkpt lat="45.63942995253659" lon="11.375767864101588"><ele>192.0</ele><time>2026-05-02T06:11:14.438Z</time></trkpt><trkpt lat="45.63954728738047" lon="11.375670182848184"><ele>191.8</ele><time>2026-05-02T06:11:15.438Z</time></trkpt><trkpt lat="45.63965347138643" lon="11.375570834590437"><ele>191.6</ele><time>2026-05-02T06:11:16.438Z</time></trkpt><trkpt lat="45.63975228840597" lon="11.375509788009275"><ele>191.4</ele><time>2026-05-02T06:11:17.438Z</time></trkpt><trkpt lat="45.63984610743282" lon="11.375454726431505"><ele>191.20000000000002</ele><time>2026-05-02T06:11:18.438Z</time></trkpt><trkpt lat="45.63993147920611" lon="11.375408258533943"><ele>191.0</ele><time>2026-05-02T06:11:19.438Z</time></trkpt><trkpt lat="45.64001555258855" lon="11.37540442899413"><ele>191.0</ele><time>2026-05-02T06:11:20.438Z</time></trkpt><trkpt lat="45.64010440729269" lon="11.375453966006775"><ele>191.0</ele><time>2026-05-02T06:11:21.438Z</time></trkpt><trkpt lat="45.64015905330527" lon="11.37557504811408"><ele>191.0</ele><time>2026-05-02T06:11:22.439Z</time></trkpt><trkpt lat="45.64016586116919" lon="11.375682177100947"><ele>191.0</ele><time>2026-05-02T06:11:23.439Z</time></trkpt><trkpt lat="45.64014714922133" lon="11.375794694878214"><ele>191.0</ele><time>2026-05-02T06:11:24.439Z</time></trkpt><trkpt lat="45.640089191798396" lon="11.375885267498559"><ele>191.0</ele><time>2026-05-02T06:11:25.439Z</time></trkpt><trkpt lat="45.63998756554696" lon="11.376015597156181"><ele>191.0</ele><time>2026-05-02T06:11:26.439Z</time></trkpt><trkpt lat="45.6398696077593" lon="11.37617930103977"><ele>191.0</ele><time>2026-05-02T06:11:27.439Z</time></trkpt><trkpt lat="45.6397662699651" lon="11.37632478540953"><ele>191.0</ele><time>2026-05-02T06:11:28.439Z</time></trkpt><trkpt lat="45.63966353227934" lon="11.376480949572796"><ele>189.5</ele><time>2026-05-02T06:11:29.439Z</time></trkpt><trkpt lat="45.639582138694244" lon="11.376649088199756"><ele>188.0</ele><time>2026-05-02T06:11:30.439Z</time></trkpt><trkpt lat="45.63949064578661" lon="11.376818258680172"><ele>186.5</ele><time>2026-05-02T06:11:31.439Z</time></trkpt><trkpt lat="45.63942427035756" lon="11.37697993829074"><ele>185.0</ele><time>2026-05-02T06:11:32.439Z</time></trkpt><trkpt lat="45.6393762768021" lon="11.377146841027473"><ele>183.0</ele><time>2026-05-02T06:11:33.439Z</time></trkpt><trkpt lat="45.63932109368403" lon="11.377298434110907"><ele>181.0</ele><time>2026-05-02T06:11:34.439Z</time></trkpt><trkpt lat="45.63928006869916" lon="11.377442795167884"><ele>179.0</ele><time>2026-05-02T06:11:35.439Z</time></trkpt><trkpt lat="45.6392847566567" lon="11.377630676897317"><ele>177.0</ele><time>2026-05-02T06:11:36.439Z</time></trkpt><trkpt lat="45.63928497938462" lon="11.377785897561045"><ele>177.0</ele><time>2026-05-02T06:11:37.439Z</time></trkpt><trkpt lat="45.63931827263811" lon="11.377913633481311"><ele>177.0</ele><time>2026-05-02T06:11:38.439Z</time></trkpt><trkpt lat="45.639361617263106" lon="11.378025495217504"><ele>177.0</ele><time>2026-05-02T06:11:39.439Z</time></trkpt><trkpt lat="45.639437386771846" lon="11.378124751512782"><ele>177.0</ele><time>2026-05-02T06:11:40.439Z</time></trkpt><trkpt lat="45.63951707931349" lon="11.378189746552392"><ele>177.0</ele><time>2026-05-02T06:11:41.439Z</time></trkpt><trkpt lat="45.639617071262705" lon="11.378228363877588"><ele>176.6</ele><time>2026-05-02T06:11:42.439Z</time></trkpt><trkpt lat="45.639714201826095" lon="11.378224493467973"><ele>176.2</ele><time>2026-05-02T06:11:43.439Z</time></trkpt><trkpt lat="45.63981337418463" lon="11.378190108581045"><ele>175.8</ele><time>2026-05-02T06:11:44.439Z</time></trkpt><trkpt lat="45.639887418310884" lon="11.37809632530639"><ele>175.4</ele><time>2026-05-02T06:11:45.439Z</time></trkpt><trkpt lat="45.63993394841852" lon="11.37799272349298"><ele>175.0</ele><time>2026-05-02T06:11:46.439Z</time></trkpt><trkpt lat="45.63997850173527" lon="11.377892003470874"><ele>175.0</ele><time>2026-05-02T06:11:47.439Z</time></trkpt><trkpt lat="45.64003468459295" lon="11.37779892357471"><ele>175.0</ele><time>2026-05-02T06:11:48.439Z</time></trkpt><trkpt lat="45.64009951602878" lon="11.377686933000547"><ele>175.0</ele><time>2026-05-02T06:11:49.439Z</time></trkpt><trkpt lat="45.640161231354526" lon="11.377574116676298"><ele>175.0</ele><time>2026-05-02T06:11:50.439Z</time></trkpt><trkpt lat="45.64022217428532" lon="11.377491305484511"><ele>175.0</ele><time>2026-05-02T06:11:51.439Z</time></trkpt><trkpt lat="45.640271113244644" lon="11.37743085456936"><ele>175.0</ele><time>2026-05-02T06:11:52.439Z</time></trkpt><trkpt lat="45.64033772912406" lon="11.377397769060705"><ele>174.66666666666669</ele><time>2026-05-02T06:11:53.439Z</time></trkpt><trkpt lat="45.64040438391137" lon="11.377415928452967"><ele>174.33333333333334</ele><time>2026-05-02T06:11:54.439Z</time></trkpt><trkpt lat="45.640452682937564" lon="11.37748475902477"><ele>174.0</ele><time>2026-05-02T06:11:55.439Z</time></trkpt><trkpt lat="45.640459454961054" lon="11.377599027102784"><ele>173.66666666666666</ele><time>2026-05-02T06:11:56.439Z</time></trkpt><trkpt lat="45.640488997993224" lon="11.37777185069242"><ele>173.33333333333331</ele><time>2026-05-02T06:11:58.439Z</time></trkpt><trkpt lat="45.640541845977154" lon="11.377877926344853"><ele>173.0</ele><time>2026-05-02T06:11:59.439Z</time></trkpt><trkpt lat="45.64062608552708" lon="11.377991177378755"><ele>171.0</ele><time>2026-05-02T06:12:00.439Z</time></trkpt><trkpt lat="45.64070406375774" lon="11.378078040236282"><ele>169.0</ele><time>2026-05-02T06:12:01.439Z</time></trkpt><trkpt lat="45.64077930766041" lon="11.3781622425751"><ele>167.0</ele><time>2026-05-02T06:12:02.439Z</time></trkpt><trkpt lat="45.64085607664911" lon="11.378232811070971"><ele>165.0</ele><time>2026-05-02T06:12:03.439Z</time></trkpt><trkpt lat="45.640929230414706" lon="11.378337467415621"><ele>163.0</ele><time>2026-05-02T06:12:04.439Z</time></trkpt><trkpt lat="45.6409883791979" lon="11.37843337573009"><ele>163.0</ele><time>2026-05-02T06:12:05.439Z</time></trkpt><trkpt lat="45.64101560836306" lon="11.378534968281215"><ele>163.0</ele><time>2026-05-02T06:12:06.439Z</time></trkpt><trkpt lat="45.64101342998546" lon="11.378636229463293"><ele>163.0</ele><time>2026-05-02T06:12:07.439Z</time></trkpt><trkpt lat="45.64093707335805" lon="11.378768286761407"><ele>163.0</ele><time>2026-05-02T06:12:08.439Z</time></trkpt><trkpt lat="45.64085529956341" lon="11.378869462132219"><ele>163.0</ele><time>2026-05-02T06:12:09.439Z</time></trkpt><trkpt lat="45.64074890993975" lon="11.378961066203242"><ele>161.5</ele><time>2026-05-02T06:12:10.439Z</time></trkpt><trkpt lat="45.64067343312614" lon="11.37908227095294"><ele>160.0</ele><time>2026-05-02T06:12:11.439Z</time></trkpt><trkpt lat="45.64063005370795" lon="11.37924216022174"><ele>158.5</ele><time>2026-05-02T06:12:12.439Z</time></trkpt><trkpt lat="45.640594112329644" lon="11.379396543863137"><ele>157.0</ele><time>2026-05-02T06:12:13.439Z</time></trkpt><trkpt lat="45.64058304915883" lon="11.379549574850577"><ele>155.75</ele><time>2026-05-02T06:12:14.439Z</time></trkpt><trkpt lat="45.64058725833625" lon="11.379709959258076"><ele>154.5</ele><time>2026-05-02T06:12:15.439Z</time></trkpt><trkpt lat="45.64062680019457" lon="11.379864957014599"><ele>153.25</ele><time>2026-05-02T06:12:16.439Z</time></trkpt><trkpt lat="45.64068265571545" lon="11.380018931989431"><ele>152.0</ele><time>2026-05-02T06:12:17.439Z</time></trkpt><trkpt lat="45.64076821160013" lon="11.380184428271459"><ele>152.0</ele><time>2026-05-02T06:12:18.439Z</time></trkpt><trkpt lat="45.6408627596293" lon="11.380355508191633"><ele>152.0</ele><time>2026-05-02T06:12:19.439Z</time></trkpt><trkpt lat="45.640929275813214" lon="11.38053118563936"><ele>152.0</ele><time>2026-05-02T06:12:20.439Z</time></trkpt><trkpt lat="45.641007941419666" lon="11.380679963417746"><ele>152.0</ele><time>2026-05-02T06:12:21.439Z</time></trkpt><trkpt lat="45.64105784493354" lon="11.380859468450597"><ele>151.25</ele><time>2026-05-02T06:12:22.439Z</time></trkpt><trkpt lat="45.64107984462639" lon="11.3810369346522"><ele>150.5</ele><time>2026-05-02T06:12:23.439Z</time></trkpt><trkpt lat="45.64109278975187" lon="11.381230759209547"><ele>149.75</ele><time>2026-05-02T06:12:24.439Z</time></trkpt><trkpt lat="45.641085727388706" lon="11.38142745646537"><ele>149.0</ele><time>2026-05-02T06:12:25.439Z</time></trkpt><trkpt lat="45.64109222175815" lon="11.381606752430772"><ele>148.75</ele><time>2026-05-02T06:12:26.439Z</time></trkpt><trkpt lat="45.641112134337234" lon="11.38178984265143"><ele>148.5</ele><time>2026-05-02T06:12:27.439Z</time></trkpt><trkpt lat="45.641127980987" lon="11.382004829125457"><ele>148.25</ele><time>2026-05-02T06:12:28.439Z</time></trkpt><trkpt lat="45.64116113298948" lon="11.382179297745223"><ele>148.0</ele><time>2026-05-02T06:12:29.439Z</time></trkpt><trkpt lat="45.641216368051744" lon="11.382371997877673"><ele>147.5</ele><time>2026-05-02T06:12:30.439Z</time></trkpt><trkpt lat="45.64127913921554" lon="11.382542849290223"><ele>147.0</ele><time>2026-05-02T06:12:31.439Z</time></trkpt><trkpt lat="45.64134738775666" lon="11.382711137133414"><ele>146.5</ele><time>2026-05-02T06:12:32.439Z</time></trkpt><trkpt lat="45.64142271689588" lon="11.38287281047952"><ele>146.0</ele><time>2026-05-02T06:12:33.439Z</time></trkpt><trkpt lat="45.641505979234225" lon="11.383030155747818"><ele>146.0</ele><time>2026-05-02T06:12:34.439Z</time></trkpt><trkpt lat="45.64159056631221" lon="11.38317810986245"><ele>146.0</ele><time>2026-05-02T06:12:35.439Z</time></trkpt><trkpt lat="45.64170248306523" lon="11.383326421710183"><ele>146.0</ele><time>2026-05-02T06:12:36.439Z</time></trkpt><trkpt lat="45.64181905702955" lon="11.38345583457381"><ele>146.0</ele><time>2026-05-02T06:12:37.439Z</time></trkpt><trkpt lat="45.641944674920175" lon="11.383571955254897"><ele>148.0</ele><time>2026-05-02T06:12:38.439Z</time></trkpt><trkpt lat="45.64208252861318" lon="11.383658931466764"><ele>150.0</ele><time>2026-05-02T06:12:39.439Z</time></trkpt><trkpt lat="45.64224283464124" lon="11.383734180615212"><ele>152.0</ele><time>2026-05-02T06:12:40.439Z</time></trkpt><trkpt lat="45.642434491336104" lon="11.383804073925582"><ele>144.5</ele><time>2026-05-02T06:12:41.439Z</time></trkpt><trkpt lat="45.64265667142466" lon="11.383879910306003"><ele>137.0</ele><time>2026-05-02T06:12:42.439Z</time></trkpt><trkpt lat="45.642902041218434" lon="11.383962138400983"><ele>136.0</ele><time>2026-05-02T06:12:43.439Z</time></trkpt><trkpt lat="45.643153844442736" lon="11.384047749702226"><ele>135.0</ele><time>2026-05-02T06:12:44.439Z</time></trkpt><trkpt lat="45.64340786013209" lon="11.384133219534789"><ele>135.5</ele><time>2026-05-02T06:12:45.439Z</time></trkpt><trkpt lat="45.64368433964222" lon="11.384226375379892"><ele>136.0</ele><time>2026-05-02T06:12:46.439Z</time></trkpt><trkpt lat="45.643981073636176" lon="11.384327437471953"><ele>136.0</ele><time>2026-05-02T06:12:47.439Z</time></trkpt><trkpt lat="45.6442838163438" lon="11.384430924051346"><ele>136.0</ele><time>2026-05-02T06:12:48.439Z</time></trkpt><trkpt lat="45.64458828264508" lon="11.38453500179796"><ele>136.0</ele><time>2026-05-02T06:12:49.439Z</time></trkpt><trkpt lat="45.64487472463957" lon="11.384614902396255"><ele>136.0</ele><time>2026-05-02T06:12:50.439Z</time></trkpt><trkpt lat="45.64514671029779" lon="11.384726061928603"><ele>134.5</ele><time>2026-05-02T06:12:51.439Z</time></trkpt><trkpt lat="45.64540317255194" lon="11.38481384430401"><ele>133.0</ele><time>2026-05-02T06:12:52.439Z</time></trkpt><trkpt lat="45.64565659099385" lon="11.384900584854975"><ele>133.0</ele><time>2026-05-02T06:12:53.439Z</time></trkpt><trkpt lat="45.6458928840465" lon="11.384981463691924"><ele>133.0</ele><time>2026-05-02T06:12:54.439Z</time></trkpt><trkpt lat="45.6461496283498" lon="11.38506918057904"><ele>133.0</ele><time>2026-05-02T06:12:55.439Z</time></trkpt><trkpt lat="45.646409099606416" lon="11.385156562174128"><ele>133.0</ele><time>2026-05-02T06:12:56.439Z</time></trkpt><trkpt lat="45.6466577207354" lon="11.385240289810545"><ele>133.0</ele><time>2026-05-02T06:12:57.439Z</time></trkpt><trkpt lat="45.64689270767418" lon="11.385319425872684"><ele>133.0</ele><time>2026-05-02T06:12:58.439Z</time></trkpt><trkpt lat="45.64713044696298" lon="11.385399488840319"><ele>132.0</ele><time>2026-05-02T06:12:59.439Z</time></trkpt><trkpt lat="45.64735510107003" lon="11.385475145118107"><ele>131.0</ele><time>2026-05-02T06:13:00.439Z</time></trkpt><trkpt lat="45.64757718187785" lon="11.385549934795467"><ele>129.0</ele><time>2026-05-02T06:13:01.439Z</time></trkpt><trkpt lat="45.64780668058429" lon="11.385627222625894"><ele>127.0</ele><time>2026-05-02T06:13:02.439Z</time></trkpt><trkpt lat="45.64803140033279" lon="11.385702548809748"><ele>127.0</ele><time>2026-05-02T06:13:03.439Z</time></trkpt><trkpt lat="45.648254840192074" lon="11.385777441411607"><ele>127.0</ele><time>2026-05-02T06:13:04.439Z</time></trkpt><trkpt lat="45.6484766416134" lon="11.385851510704866"><ele>127.0</ele><time>2026-05-02T06:13:05.439Z</time></trkpt><trkpt lat="45.648705052872295" lon="11.385927175023658"><ele>127.0</ele><time>2026-05-02T06:13:06.439Z</time></trkpt><trkpt lat="45.648934183196374" lon="11.386003077606881"><ele>127.0</ele><time>2026-05-02T06:13:07.439Z</time></trkpt><trkpt lat="45.64916589743629" lon="11.386079223807345"><ele>127.0</ele><time>2026-05-02T06:13:08.439Z</time></trkpt><trkpt lat="45.649380324910254" lon="11.386150413231341"><ele>126.5</ele><time>2026-05-02T06:13:09.439Z</time></trkpt><trkpt lat="45.64960914473518" lon="11.386226428907724"><ele>126.0</ele><time>2026-05-02T06:13:10.439Z</time></trkpt><trkpt lat="45.64982124815701" lon="11.386296891215547"><ele>125.33333333333334</ele><time>2026-05-02T06:13:11.439Z</time></trkpt><trkpt lat="45.65004026944123" lon="11.386365971544592"><ele>124.66666666666667</ele><time>2026-05-02T06:13:12.439Z</time></trkpt><trkpt lat="45.65024410489203" lon="11.386432854658198"><ele>124.0</ele><time>2026-05-02T06:13:13.439Z</time></trkpt><trkpt lat="45.65045097210667" lon="11.386521237521658"><ele>124.0</ele><time>2026-05-02T06:13:14.439Z</time></trkpt><trkpt lat="45.65064644712392" lon="11.386621864628507"><ele>124.0</ele><time>2026-05-02T06:13:15.439Z</time></trkpt><trkpt lat="45.65083548056645" lon="11.386750340139919"><ele>124.0</ele><time>2026-05-02T06:13:16.439Z</time></trkpt><trkpt lat="45.65099905172535" lon="11.386919250219474"><ele>123.33333333333334</ele><time>2026-05-02T06:13:17.439Z</time></trkpt><trkpt lat="45.6511504386519" lon="11.387120372665734"><ele>122.66666666666666</ele><time>2026-05-02T06:13:18.439Z</time></trkpt><trkpt lat="45.65128177219514" lon="11.387355716037161"><ele>122.0</ele><time>2026-05-02T06:13:19.439Z</time></trkpt><trkpt lat="45.651407328582714" lon="11.387639411718636"><ele>122.0</ele><time>2026-05-02T06:13:20.439Z</time></trkpt><trkpt lat="45.65152980357541" lon="11.387946219917739"><ele>122.0</ele><time>2026-05-02T06:13:21.439Z</time></trkpt><trkpt lat="45.65164174949633" lon="11.388234237401893"><ele>122.5</ele><time>2026-05-02T06:13:22.439Z</time></trkpt><trkpt lat="45.6517621697791" lon="11.388530134198628"><ele>123.0</ele><time>2026-05-02T06:13:23.439Z</time></trkpt><trkpt lat="45.651872673390784" lon="11.38879928786617"><ele>123.0</ele><time>2026-05-02T06:13:24.439Z</time></trkpt><trkpt lat="45.651983510466096" lon="11.389069254417425"><ele>123.0</ele><time>2026-05-02T06:13:25.439Z</time></trkpt><trkpt lat="45.65217841383622" lon="11.38929358058728"><ele>123.0</ele><time>2026-05-02T06:13:26.439Z</time></trkpt><trkpt lat="45.65229710538732" lon="11.389579245580792"><ele>123.0</ele><time>2026-05-02T06:13:27.439Z</time></trkpt><trkpt lat="45.65238755933923" lon="11.389908156429685"><ele>122.33333333333334</ele><time>2026-05-02T06:13:28.439Z</time></trkpt><trkpt lat="45.65248872973487" lon="11.390189770659132"><ele>121.66666666666667</ele><time>2026-05-02T06:13:29.439Z</time></trkpt><trkpt lat="45.65258293099461" lon="11.390456749235781"><ele>121.0</ele><time>2026-05-02T06:13:30.439Z</time></trkpt><trkpt lat="45.652669259347924" lon="11.390729332171032"><ele>121.0</ele><time>2026-05-02T06:13:31.439Z</time></trkpt><trkpt lat="45.65277044807353" lon="11.391000120313278"><ele>121.0</ele><time>2026-05-02T06:13:32.439Z</time></trkpt><trkpt lat="45.65286933358357" lon="11.391235953279331"><ele>121.0</ele><time>2026-05-02T06:13:33.439Z</time></trkpt><trkpt lat="45.65297750815292" lon="11.391461511557658"><ele>121.0</ele><time>2026-05-02T06:13:34.439Z</time></trkpt><trkpt lat="45.65308659394269" lon="11.391676753576492"><ele>121.0</ele><time>2026-05-02T06:13:35.439Z</time></trkpt><trkpt lat="45.65318244135896" lon="11.391906067190103"><ele>121.0</ele><time>2026-05-02T06:13:36.439Z</time></trkpt><trkpt lat="45.65326349016233" lon="11.392150323243836"><ele>120.33333333333334</ele><time>2026-05-02T06:13:37.439Z</time></trkpt><trkpt lat="45.65334728162983" lon="11.392359054693463"><ele>119.66666666666666</ele><time>2026-05-02T06:13:38.439Z</time></trkpt><trkpt lat="45.65342061136583" lon="11.392572436296575"><ele>119.0</ele><time>2026-05-02T06:13:39.439Z</time></trkpt><trkpt lat="45.653516518535724" lon="11.392726554390109"><ele>119.0</ele><time>2026-05-02T06:13:40.439Z</time></trkpt><trkpt lat="45.6535805984767" lon="11.392907602920655"><ele>119.0</ele><time>2026-05-02T06:13:41.439Z</time></trkpt><trkpt lat="45.653642460976094" lon="11.393059118939632"><ele>119.0</ele><time>2026-05-02T06:13:42.439Z</time></trkpt><trkpt lat="45.65369343774792" lon="11.393175336056155"><ele>119.0</ele><time>2026-05-02T06:13:43.439Z</time></trkpt><trkpt lat="45.65371300462947" lon="11.393317864064073"><ele>118.80000000000001</ele><time>2026-05-02T06:13:44.439Z</time></trkpt><trkpt lat="45.65370921182752" lon="11.39348159969074"><ele>118.60000000000001</ele><time>2026-05-02T06:13:45.439Z</time></trkpt><trkpt lat="45.65369898395238" lon="11.393626636529728"><ele>118.4</ele><time>2026-05-02T06:13:46.439Z</time></trkpt><trkpt lat="45.65372916227686" lon="11.39378362138865"><ele>118.2</ele><time>2026-05-02T06:13:47.439Z</time></trkpt><trkpt lat="45.653814121104304" lon="11.393860129869593"><ele>118.0</ele><time>2026-05-02T06:13:48.439Z</time></trkpt><trkpt lat="45.653907662072506" lon="11.393929345142967"><ele>118.0</ele><time>2026-05-02T06:13:49.439Z</time></trkpt><trkpt lat="45.65398242032662" lon="11.394076867674455"><ele>118.0</ele><time>2026-05-02T06:13:50.439Z</time></trkpt><trkpt lat="45.65406492237738" lon="11.394278645683286"><ele>118.0</ele><time>2026-05-02T06:13:51.439Z</time></trkpt><trkpt lat="45.65415596846181" lon="11.394543933570775"><ele>117.66666666666667</ele><time>2026-05-02T06:13:52.439Z</time></trkpt><trkpt lat="45.65426580308947" lon="11.394774062081137"><ele>117.33333333333334</ele><time>2026-05-02T06:13:53.439Z</time></trkpt><trkpt lat="45.65436251535941" lon="11.395017513654789"><ele>117.0</ele><time>2026-05-02T06:13:54.439Z</time></trkpt><trkpt lat="45.65444643583232" lon="11.39524524588487"><ele>117.0</ele><time>2026-05-02T06:13:55.439Z</time></trkpt><trkpt lat="45.65451899520467" lon="11.395463099798457"><ele>117.0</ele><time>2026-05-02T06:13:56.439Z</time></trkpt><trkpt lat="45.65459709618937" lon="11.395672854741159"><ele>117.0</ele><time>2026-05-02T06:13:57.439Z</time></trkpt><trkpt lat="45.654674259430784" lon="11.395869140341588"><ele>116.33333333333334</ele><time>2026-05-02T06:13:58.439Z</time></trkpt><trkpt lat="45.65474977707781" lon="11.396073578342879"><ele>115.66666666666667</ele><time>2026-05-02T06:13:59.439Z</time></trkpt><trkpt lat="45.654834155738506" lon="11.39629492129794"><ele>115.0</ele><time>2026-05-02T06:14:00.439Z</time></trkpt><trkpt lat="45.65493825834677" lon="11.396520827499103"><ele>114.66666666666667</ele><time>2026-05-02T06:14:01.439Z</time></trkpt><trkpt lat="45.655026545675916" lon="11.39675374697706"><ele>114.33333333333334</ele><time>2026-05-02T06:14:02.439Z</time></trkpt><trkpt lat="45.65512796264159" lon="11.396967323572456"><ele>114.0</ele><time>2026-05-02T06:14:03.439Z</time></trkpt><trkpt lat="45.65522047146004" lon="11.397187095373475"><ele>114.33333333333334</ele><time>2026-05-02T06:14:04.439Z</time></trkpt><trkpt lat="45.65530412818647" lon="11.397430306951826"><ele>114.66666666666667</ele><time>2026-05-02T06:14:05.439Z</time></trkpt><trkpt lat="45.65539902188034" lon="11.397659260711668"><ele>115.0</ele><time>2026-05-02T06:14:06.439Z</time></trkpt><trkpt lat="45.65550894141391" lon="11.397854815764612"><ele>115.0</ele><time>2026-05-02T06:14:07.439Z</time></trkpt><trkpt lat="45.655645172790024" lon="11.397992235399895"><ele>115.0</ele><time>2026-05-02T06:14:08.439Z</time></trkpt><trkpt lat="45.65577954994247" lon="11.398146647315842"><ele>115.0</ele><time>2026-05-02T06:14:09.439Z</time></trkpt><trkpt lat="45.65593558235455" lon="11.398275857371999"><ele>115.0</ele><time>2026-05-02T06:14:10.439Z</time></trkpt><trkpt lat="45.65611589601372" lon="11.398361719053321"><ele>115.0</ele><time>2026-05-02T06:14:11.439Z</time></trkpt><trkpt lat="45.656296537636706" lon="11.398424676872311"><ele>115.0</ele><time>2026-05-02T06:14:12.439Z</time></trkpt><trkpt lat="45.65648769460782" lon="11.39846846923602"><ele>115.0</ele><time>2026-05-02T06:14:13.439Z</time></trkpt><trkpt lat="45.65668274361233" lon="11.398507513059068"><ele>115.0</ele><time>2026-05-02T06:14:14.439Z</time></trkpt><trkpt lat="45.656884769286215" lon="11.398539899247545"><ele>115.0</ele><time>2026-05-02T06:14:15.439Z</time></trkpt><trkpt lat="45.65707842488471" lon="11.398579167229197"><ele>115.33333333333334</ele><time>2026-05-02T06:14:16.439Z</time></trkpt><trkpt lat="45.657256391994245" lon="11.398612447416438"><ele>115.66666666666666</ele><time>2026-05-02T06:14:17.439Z</time></trkpt><trkpt lat="45.65741390178457" lon="11.398640269503163"><ele>116.0</ele><time>2026-05-02T06:14:18.439Z</time></trkpt><trkpt lat="45.6575529722946" lon="11.398669362204982"><ele>116.0</ele><time>2026-05-02T06:14:19.439Z</time></trkpt><trkpt lat="45.65767535922694" lon="11.398693816588196"><ele>116.0</ele><time>2026-05-02T06:14:20.439Z</time></trkpt><trkpt lat="45.657783672015206" lon="11.398719937650613"><ele>116.0</ele><time>2026-05-02T06:14:21.439Z</time></trkpt><trkpt lat="45.65787477752229" lon="11.398800160452948"><ele>116.0</ele><time>2026-05-02T06:14:22.439Z</time></trkpt><trkpt lat="45.657940047981384" lon="11.398935866491474"><ele>116.75</ele><time>2026-05-02T06:14:23.439Z</time></trkpt><trkpt lat="45.65801341940693" lon="11.399084494002857"><ele>117.5</ele><time>2026-05-02T06:14:24.439Z</time></trkpt><trkpt lat="45.6581118114881" lon="11.399184860185544"><ele>118.25</ele><time>2026-05-02T06:14:25.439Z</time></trkpt><trkpt lat="45.658254553539756" lon="11.39920477936119"><ele>119.0</ele><time>2026-05-02T06:14:26.439Z</time></trkpt><trkpt lat="45.65840424908951" lon="11.399235025948197"><ele>119.0</ele><time>2026-05-02T06:14:27.439Z</time></trkpt><trkpt lat="45.65852843152592" lon="11.39935935843398"><ele>119.0</ele><time>2026-05-02T06:14:28.439Z</time></trkpt><trkpt lat="45.658663419047805" lon="11.399523647811705"><ele>119.0</ele><time>2026-05-02T06:14:29.439Z</time></trkpt><trkpt lat="45.6588194152168" lon="11.399693825355355"><ele>119.33333333333333</ele><time>2026-05-02T06:14:30.439Z</time></trkpt><trkpt lat="45.65896322050501" lon="11.399945596444175"><ele>119.66666666666666</ele><time>2026-05-02T06:14:31.439Z</time></trkpt><trkpt lat="45.65913142986775" lon="11.400146401878025"><ele>120.0</ele><time>2026-05-02T06:14:32.439Z</time></trkpt><trkpt lat="45.659274198612" lon="11.400317634373758"><ele>120.0</ele><time>2026-05-02T06:14:33.439Z</time></trkpt><trkpt lat="45.659416507109285" lon="11.4004886165014"><ele>120.0</ele><time>2026-05-02T06:14:34.439Z</time></trkpt><trkpt lat="45.65955730838166" lon="11.400657787728404"><ele>120.0</ele><time>2026-05-02T06:14:35.439Z</time></trkpt><trkpt lat="45.65969000888071" lon="11.400816880408115"><ele>120.66666666666666</ele><time>2026-05-02T06:14:36.439Z</time></trkpt><trkpt lat="45.659822690196194" lon="11.400975013900368"><ele>121.33333333333333</ele><time>2026-05-02T06:14:37.439Z</time></trkpt><trkpt lat="45.659935753622456" lon="11.40111093805006"><ele>122.0</ele><time>2026-05-02T06:14:38.439Z</time></trkpt><trkpt lat="45.66004783274397" lon="11.401244876331502"><ele>122.0</ele><time>2026-05-02T06:14:39.439Z</time></trkpt><trkpt lat="45.66015881455987" lon="11.401375368449898"><ele>122.0</ele><time>2026-05-02T06:14:40.439Z</time></trkpt><trkpt lat="45.66026345195823" lon="11.401500557816787"><ele>122.0</ele><time>2026-05-02T06:14:41.439Z</time></trkpt><trkpt lat="45.66036499532934" lon="11.401624380435564"><ele>122.0</ele><time>2026-05-02T06:14:42.439Z</time></trkpt><trkpt lat="45.66046596429332" lon="11.401744810879155"><ele>122.0</ele><time>2026-05-02T06:14:43.439Z</time></trkpt><trkpt lat="45.660549083978054" lon="11.401843702603779"><ele>121.99999999999999</ele><time>2026-05-02T06:14:44.439Z</time></trkpt><trkpt lat="45.66062659039165" lon="11.401934394478097"><ele>121.99999999999999</ele><time>2026-05-02T06:14:45.439Z</time></trkpt><trkpt lat="45.660739005114216" lon="11.401945150917076"><ele>122.0</ele><time>2026-05-02T06:14:46.439Z</time></trkpt><trkpt lat="45.66080118382852" lon="11.40201883581866"><ele>122.0</ele><time>2026-05-02T06:14:47.439Z</time></trkpt><trkpt lat="45.66086860795211" lon="11.402077806989848"><ele>122.0</ele><time>2026-05-02T06:14:48.439Z</time></trkpt><trkpt lat="45.66089611764708" lon="11.402228018718255"><ele>121.99999999999999</ele><time>2026-05-02T06:14:50.439Z</time></trkpt><trkpt lat="45.66095309025876" lon="11.402155253041448"><ele>121.99999999999999</ele><time>2026-05-02T06:14:51.439Z</time></trkpt><trkpt lat="45.66101148881" lon="11.402230169911325"><ele>122.0</ele><time>2026-05-02T06:14:55.439Z</time></trkpt><trkpt lat="45.661092257147025" lon="11.402355914519172"><ele>122.0</ele><time>2026-05-02T06:14:57.439Z</time></trkpt><trkpt lat="45.661110681501945" lon="11.40251295487132"><ele>121.99999999999999</ele><time>2026-05-02T06:14:58.439Z</time></trkpt><trkpt lat="45.661199566854215" lon="11.402568252078138"><ele>122.0</ele><time>2026-05-02T06:14:59.439Z</time></trkpt><trkpt lat="45.66129881173614" lon="11.402552031839809"><ele>122.0</ele><time>2026-05-02T06:15:00.439Z</time></trkpt><trkpt lat="45.66127358340383" lon="11.402660641345188"><ele>122.0</ele><time>2026-05-02T06:15:01.439Z</time></trkpt><trkpt lat="45.66132583617173" lon="11.40275863286159"><ele>121.99999999999999</ele><time>2026-05-02T06:15:02.439Z</time></trkpt><trkpt lat="45.661384733239586" lon="11.40283909589993"><ele>122.0</ele><time>2026-05-02T06:15:03.439Z</time></trkpt><trkpt lat="45.6614583076811" lon="11.402927567223431"><ele>122.0</ele><time>2026-05-02T06:15:04.439Z</time></trkpt><trkpt lat="45.66154715393212" lon="11.403035828087551"><ele>121.99999999999999</ele><time>2026-05-02T06:15:05.439Z</time></trkpt><trkpt lat="45.66169616682782" lon="11.402972357597504"><ele>121.99999999999999</ele><time>2026-05-02T06:15:06.439Z</time></trkpt><trkpt lat="45.661760019001505" lon="11.403044907711177"><ele>122.0</ele><time>2026-05-02T06:15:07.439Z</time></trkpt><trkpt lat="45.66181094050874" lon="11.403127991938314"><ele>122.0</ele><time>2026-05-02T06:15:08.439Z</time></trkpt><trkpt lat="45.661863637936754" lon="11.40320958400218"><ele>121.8</ele><time>2026-05-02T06:15:09.439Z</time></trkpt><trkpt lat="45.661913951185184" lon="11.403283970431268"><ele>121.6</ele><time>2026-05-02T06:15:10.439Z</time></trkpt><trkpt lat="45.661966275396566" lon="11.403356954893766"><ele>121.39999999999999</ele><time>2026-05-02T06:15:11.439Z</time></trkpt><trkpt lat="45.66196540307289" lon="11.40354262916497"><ele>121.19999999999999</ele><time>2026-05-02T06:15:12.439Z</time></trkpt><trkpt lat="45.66203784807913" lon="11.40362998040611"><ele>121.0</ele><time>2026-05-02T06:15:13.439Z</time></trkpt><trkpt lat="45.6621105758226" lon="11.4037178925987"><ele>121.0</ele><time>2026-05-02T06:15:14.439Z</time></trkpt><trkpt lat="45.662181918313316" lon="11.403808206115336"><ele>121.0</ele><time>2026-05-02T06:15:15.439Z</time></trkpt><trkpt lat="45.6622623333785" lon="11.40392663484575"><ele>121.0</ele><time>2026-05-02T06:15:16.439Z</time></trkpt><trkpt lat="45.66233914356078" lon="11.404058399482066"><ele>121.0</ele><time>2026-05-02T06:15:17.439Z</time></trkpt><trkpt lat="45.66241211966637" lon="11.404222975818877"><ele>120.5</ele><time>2026-05-02T06:15:18.439Z</time></trkpt><trkpt lat="45.662460958985186" lon="11.40439885816401"><ele>120.0</ele><time>2026-05-02T06:15:19.439Z</time></trkpt><trkpt lat="45.66250977066041" lon="11.404578787409672"><ele>119.5</ele><time>2026-05-02T06:15:20.439Z</time></trkpt><trkpt lat="45.66256356766206" lon="11.404794738603373"><ele>119.0</ele><time>2026-05-02T06:15:21.439Z</time></trkpt><trkpt lat="45.66262549694665" lon="11.405047675702539"><ele>119.0</ele><time>2026-05-02T06:15:22.439Z</time></trkpt><trkpt lat="45.66271152423363" lon="11.405309703492906"><ele>119.0</ele><time>2026-05-02T06:15:23.439Z</time></trkpt><trkpt lat="45.662794539214815" lon="11.405598900392544"><ele>119.0</ele><time>2026-05-02T06:15:24.439Z</time></trkpt><trkpt lat="45.6628465088519" lon="11.405874622832242"><ele>119.0</ele><time>2026-05-02T06:15:25.439Z</time></trkpt><trkpt lat="45.662906445458646" lon="11.406140074145293"><ele>119.0</ele><time>2026-05-02T06:15:26.439Z</time></trkpt><trkpt lat="45.66296705637519" lon="11.406381335553805"><ele>119.0</ele><time>2026-05-02T06:15:27.439Z</time></trkpt><trkpt lat="45.663018082385335" lon="11.406603321238878"><ele>118.66666666666666</ele><time>2026-05-02T06:15:28.439Z</time></trkpt><trkpt lat="45.663055287069405" lon="11.406834438370955"><ele>118.33333333333334</ele><time>2026-05-02T06:15:29.439Z</time></trkpt><trkpt lat="45.66305698324128" lon="11.40710179235189"><ele>118.0</ele><time>2026-05-02T06:15:30.439Z</time></trkpt><trkpt lat="45.663041811053205" lon="11.407361829335368"><ele>118.0</ele><time>2026-05-02T06:15:31.439Z</time></trkpt><trkpt lat="45.66302041053421" lon="11.407601897501252"><ele>118.0</ele><time>2026-05-02T06:15:32.439Z</time></trkpt><trkpt lat="45.66295795151065" lon="11.407829298446952"><ele>118.0</ele><time>2026-05-02T06:15:33.439Z</time></trkpt><trkpt lat="45.66288606676176" lon="11.408041899478485"><ele>118.0</ele><time>2026-05-02T06:15:34.44Z</time></trkpt><trkpt lat="45.66279077863246" lon="11.40825596629365"><ele>118.0</ele><time>2026-05-02T06:15:35.44Z</time></trkpt><trkpt lat="45.66267217572442" lon="11.408439417941352"><ele>118.0</ele><time>2026-05-02T06:15:36.44Z</time></trkpt><trkpt lat="45.66254952820172" lon="11.408594577404063"><ele>117.25</ele><time>2026-05-02T06:15:37.44Z</time></trkpt><trkpt lat="45.66242900738077" lon="11.408721631378231"><ele>116.5</ele><time>2026-05-02T06:15:38.44Z</time></trkpt><trkpt lat="45.66231671230514" lon="11.40882882333799"><ele>115.75</ele><time>2026-05-02T06:15:39.44Z</time></trkpt><trkpt lat="45.66219767548235" lon="11.408892301366953"><ele>115.0</ele><time>2026-05-02T06:15:40.44Z</time></trkpt><trkpt lat="45.66207772459077" lon="11.408930891810058"><ele>115.0</ele><time>2026-05-02T06:15:41.44Z</time></trkpt><trkpt lat="45.661985967200344" lon="11.409052481193365"><ele>115.0</ele><time>2026-05-02T06:15:42.44Z</time></trkpt><trkpt lat="45.6618773578993" lon="11.409160731459172"><ele>115.0</ele><time>2026-05-02T06:15:43.44Z</time></trkpt><trkpt lat="45.661735928202376" lon="11.4093017649069"><ele>115.0</ele><time>2026-05-02T06:15:44.44Z</time></trkpt><trkpt lat="45.661566727234415" lon="11.409402982565828"><ele>114.33333333333334</ele><time>2026-05-02T06:15:45.44Z</time></trkpt><trkpt lat="45.66144187979236" lon="11.40953426776841"><ele>113.66666666666666</ele><time>2026-05-02T06:15:46.44Z</time></trkpt><trkpt lat="45.66127703798529" lon="11.409632683867112"><ele>113.0</ele><time>2026-05-02T06:15:47.44Z</time></trkpt><trkpt lat="45.66111308992692" lon="11.409760259887115"><ele>113.0</ele><time>2026-05-02T06:15:48.44Z</time></trkpt><trkpt lat="45.66097474200793" lon="11.40986430522199"><ele>113.0</ele><time>2026-05-02T06:15:49.44Z</time></trkpt><trkpt lat="45.660830860952004" lon="11.409972511769361"><ele>113.0</ele><time>2026-05-02T06:15:50.44Z</time></trkpt><trkpt lat="45.660687937974004" lon="11.410079729339797"><ele>113.0</ele><time>2026-05-02T06:15:51.44Z</time></trkpt><trkpt lat="45.660538097033665" lon="11.41019048135464"><ele>113.0</ele><time>2026-05-02T06:15:52.44Z</time></trkpt><trkpt lat="45.660383240760815" lon="11.41030587931531"><ele>113.0</ele><time>2026-05-02T06:15:53.44Z</time></trkpt><trkpt lat="45.66018989738846" lon="11.410451569111217"><ele>112.5</ele><time>2026-05-02T06:15:54.44Z</time></trkpt><trkpt lat="45.65997825742331" lon="11.410611135849802"><ele>112.0</ele><time>2026-05-02T06:15:55.44Z</time></trkpt><trkpt lat="45.65975471460564" lon="11.410779746839301"><ele>112.0</ele><time>2026-05-02T06:15:56.44Z</time></trkpt><trkpt lat="45.659543798165195" lon="11.410937135750443"><ele>112.0</ele><time>2026-05-02T06:15:57.44Z</time></trkpt><trkpt lat="45.659342757399756" lon="11.411059911271568"><ele>112.0</ele><time>2026-05-02T06:15:58.44Z</time></trkpt><trkpt lat="45.65916996611545" lon="11.41121508691276"><ele>112.0</ele><time>2026-05-02T06:15:59.44Z</time></trkpt><trkpt lat="45.65898620347456" lon="11.41132747765752"><ele>112.0</ele><time>2026-05-02T06:16:00.44Z</time></trkpt><trkpt lat="45.658832671371954" lon="11.411465871890403"><ele>112.0</ele><time>2026-05-02T06:16:01.44Z</time></trkpt><trkpt lat="45.658666870888155" lon="11.411576714327492"><ele>112.0</ele><time>2026-05-02T06:16:02.44Z</time></trkpt><trkpt lat="45.658531298098474" lon="11.411706735245039"><ele>112.0</ele><time>2026-05-02T06:16:03.44Z</time></trkpt><trkpt lat="45.65839749537468" lon="11.41185574208186"><ele>111.5</ele><time>2026-05-02T06:16:04.44Z</time></trkpt><trkpt lat="45.65825780521443" lon="11.411952876539365"><ele>111.0</ele><time>2026-05-02T06:16:05.44Z</time></trkpt><trkpt lat="45.658145447036475" lon="11.412054955524683"><ele>110.5</ele><time>2026-05-02T06:16:06.44Z</time></trkpt><trkpt lat="45.65805217590908" lon="11.412148963415557"><ele>110.0</ele><time>2026-05-02T06:16:07.44Z</time></trkpt><trkpt lat="45.65794877994076" lon="11.412249698719439"><ele>109.5</ele><time>2026-05-02T06:16:08.44Z</time></trkpt><trkpt lat="45.657885539313625" lon="11.412426766194603"><ele>109.0</ele><time>2026-05-02T06:16:09.44Z</time></trkpt><trkpt lat="45.657860186838334" lon="11.412611074004154"><ele>108.5</ele><time>2026-05-02T06:16:10.44Z</time></trkpt><trkpt lat="45.657881577941865" lon="11.412798465695525"><ele>108.0</ele><time>2026-05-02T06:16:11.44Z</time></trkpt><trkpt lat="45.65792729050631" lon="11.412978739183446"><ele>108.25</ele><time>2026-05-02T06:16:12.44Z</time></trkpt><trkpt lat="45.657970131638955" lon="11.413179320101538"><ele>108.5</ele><time>2026-05-02T06:16:13.44Z</time></trkpt><trkpt lat="45.658024871064015" lon="11.413378909461008"><ele>108.75</ele><time>2026-05-02T06:16:14.44Z</time></trkpt><trkpt lat="45.658075826627666" lon="11.413573674719188"><ele>109.0</ele><time>2026-05-02T06:16:15.44Z</time></trkpt><trkpt lat="45.65811801424191" lon="11.413744610251078"><ele>109.0</ele><time>2026-05-02T06:16:16.44Z</time></trkpt><trkpt lat="45.65815462344498" lon="11.41392141066273"><ele>109.0</ele><time>2026-05-02T06:16:17.44Z</time></trkpt><trkpt lat="45.65818543384458" lon="11.414047538508186"><ele>109.0</ele><time>2026-05-02T06:16:18.44Z</time></trkpt><trkpt lat="45.658255819526104" lon="11.414155438125942"><ele>109.0</ele><time>2026-05-02T06:16:19.44Z</time></trkpt><trkpt lat="45.65825598301658" lon="11.414272874953495"><ele>109.0</ele><time>2026-05-02T06:16:20.44Z</time></trkpt><trkpt lat="45.65821131370137" lon="11.414371693801833"><ele>109.0</ele><time>2026-05-02T06:16:21.44Z</time></trkpt><trkpt lat="45.65815570893499" lon="11.41445315721575"><ele>109.0</ele><time>2026-05-02T06:16:22.44Z</time></trkpt><trkpt lat="45.658070158705605" lon="11.414546591206893"><ele>109.0</ele><time>2026-05-02T06:16:23.44Z</time></trkpt><trkpt lat="45.658024992798175" lon="11.414651724369946"><ele>109.0</ele><time>2026-05-02T06:16:24.44Z</time></trkpt><trkpt lat="45.65801666851725" lon="11.414758407950625"><ele>109.0</ele><time>2026-05-02T06:16:25.44Z</time></trkpt><trkpt lat="45.6580901527135" lon="11.41487548318557"><ele>109.0</ele><time>2026-05-02T06:16:26.44Z</time></trkpt><trkpt lat="45.65816261969809" lon="11.414927297743752"><ele>109.0</ele><time>2026-05-02T06:16:27.44Z</time></trkpt><trkpt lat="45.658254660594025" lon="11.414936045234628"><ele>109.0</ele><time>2026-05-02T06:16:28.44Z</time></trkpt><trkpt lat="45.658345153531585" lon="11.414980567077476"><ele>109.0</ele><time>2026-05-02T06:16:29.44Z</time></trkpt><trkpt lat="45.658429258296344" lon="11.415084191666216"><ele>109.0</ele><time>2026-05-02T06:16:30.44Z</time></trkpt><trkpt lat="45.65846061373031" lon="11.415240740258247"><ele>109.0</ele><time>2026-05-02T06:16:31.44Z</time></trkpt><trkpt lat="45.65850480650937" lon="11.415428232616094"><ele>109.0</ele><time>2026-05-02T06:16:32.44Z</time></trkpt><trkpt lat="45.65855870898947" lon="11.415663723385512"><ele>109.0</ele><time>2026-05-02T06:16:33.44Z</time></trkpt><trkpt lat="45.65866298576926" lon="11.415928337408298"><ele>109.66666666666667</ele><time>2026-05-02T06:16:34.44Z</time></trkpt><trkpt lat="45.658727469779166" lon="11.416187079755383"><ele>110.33333333333334</ele><time>2026-05-02T06:16:35.44Z</time></trkpt><trkpt lat="45.65878308083453" lon="11.416422905013077"><ele>111.0</ele><time>2026-05-02T06:16:36.44Z</time></trkpt><trkpt lat="45.65882548237324" lon="11.416701862536216"><ele>111.0</ele><time>2026-05-02T06:16:37.44Z</time></trkpt><trkpt lat="45.65886140409886" lon="11.416998524678625"><ele>111.0</ele><time>2026-05-02T06:16:38.44Z</time></trkpt><trkpt lat="45.65893532399099" lon="11.417320782581633"><ele>111.0</ele><time>2026-05-02T06:16:39.44Z</time></trkpt><trkpt lat="45.65901475961139" lon="11.41766678027147"><ele>110.5</ele><time>2026-05-02T06:16:40.44Z</time></trkpt><trkpt lat="45.6590849863468" lon="11.41797436028807"><ele>110.0</ele><time>2026-05-02T06:16:41.44Z</time></trkpt><trkpt lat="45.65915743569853" lon="11.418291428537728"><ele>109.66666666666666</ele><time>2026-05-02T06:16:42.44Z</time></trkpt><trkpt lat="45.659223118972115" lon="11.41857797944729"><ele>109.33333333333334</ele><time>2026-05-02T06:16:43.44Z</time></trkpt><trkpt lat="45.65929781019922" lon="11.418871259861934"><ele>109.0</ele><time>2026-05-02T06:16:44.44Z</time></trkpt><trkpt lat="45.65938163538614" lon="11.419206638678112"><ele>108.0</ele><time>2026-05-02T06:16:45.44Z</time></trkpt><trkpt lat="45.65945813712197" lon="11.419551886637548"><ele>107.0</ele><time>2026-05-02T06:16:46.44Z</time></trkpt><trkpt lat="45.6595267255613" lon="11.41987085611323"><ele>107.0</ele><time>2026-05-02T06:16:47.44Z</time></trkpt><trkpt lat="45.659594056862865" lon="11.420171098325696"><ele>107.0</ele><time>2026-05-02T06:16:48.44Z</time></trkpt><trkpt lat="45.659653136365975" lon="11.420466088453221"><ele>107.0</ele><time>2026-05-02T06:16:49.44Z</time></trkpt><trkpt lat="45.65970766648208" lon="11.420794752077517"><ele>107.0</ele><time>2026-05-02T06:16:50.44Z</time></trkpt><trkpt lat="45.65978297063321" lon="11.421112467706866"><ele>107.0</ele><time>2026-05-02T06:16:51.44Z</time></trkpt><trkpt lat="45.65985276988464" lon="11.421418239185702"><ele>107.33333333333333</ele><time>2026-05-02T06:16:52.44Z</time></trkpt><trkpt lat="45.659917116854835" lon="11.421681858022131"><ele>107.66666666666666</ele><time>2026-05-02T06:16:53.44Z</time></trkpt><trkpt lat="45.659991657825515" lon="11.42194186413995"><ele>108.0</ele><time>2026-05-02T06:16:54.44Z</time></trkpt><trkpt lat="45.66003562139929" lon="11.422220760319467"><ele>108.0</ele><time>2026-05-02T06:16:55.44Z</time></trkpt><trkpt lat="45.66010001195414" lon="11.422473918016635"><ele>108.0</ele><time>2026-05-02T06:16:56.44Z</time></trkpt><trkpt lat="45.660170124198075" lon="11.422725706525299"><ele>108.0</ele><time>2026-05-02T06:16:57.44Z</time></trkpt><trkpt lat="45.66023500067855" lon="11.423005362555205"><ele>107.66666666666666</ele><time>2026-05-02T06:16:58.44Z</time></trkpt><trkpt lat="45.66029763403548" lon="11.42328781254113"><ele>107.33333333333333</ele><time>2026-05-02T06:16:59.44Z</time></trkpt><trkpt lat="45.660361267459535" lon="11.423568300325663"><ele>107.0</ele><time>2026-05-02T06:17:00.44Z</time></trkpt><trkpt lat="45.660427721653875" lon="11.423848827927715"><ele>107.0</ele><time>2026-05-02T06:17:01.44Z</time></trkpt><trkpt lat="45.66048106265684" lon="11.424124518885105"><ele>107.0</ele><time>2026-05-02T06:17:02.44Z</time></trkpt><trkpt lat="45.66052352605325" lon="11.424422960042865"><ele>107.0</ele><time>2026-05-02T06:17:03.44Z</time></trkpt><trkpt lat="45.66058926440964" lon="11.424702411301178"><ele>107.33333333333333</ele><time>2026-05-02T06:17:04.44Z</time></trkpt><trkpt lat="45.66063531069857" lon="11.425003982905137"><ele>107.66666666666666</ele><time>2026-05-02T06:17:05.44Z</time></trkpt><trkpt lat="45.66069914700024" lon="11.425280708683538"><ele>108.0</ele><time>2026-05-02T06:17:06.44Z</time></trkpt><trkpt lat="45.66075905823492" lon="11.425558558808259"><ele>108.0</ele><time>2026-05-02T06:17:07.44Z</time></trkpt><trkpt lat="45.660829407548384" lon="11.42582560053448"><ele>108.0</ele><time>2026-05-02T06:17:08.44Z</time></trkpt><trkpt lat="45.660908074608855" lon="11.426080563728028"><ele>108.0</ele><time>2026-05-02T06:17:09.44Z</time></trkpt><trkpt lat="45.660972118397495" lon="11.426322178513376"><ele>108.0</ele><time>2026-05-02T06:17:10.44Z</time></trkpt><trkpt lat="45.66102400067037" lon="11.426580813302573"><ele>108.0</ele><time>2026-05-02T06:17:11.44Z</time></trkpt><trkpt lat="45.66108804359406" lon="11.426844888694054"><ele>108.0</ele><time>2026-05-02T06:17:12.44Z</time></trkpt><trkpt lat="45.66114936228379" lon="11.427103796311124"><ele>107.66666666666666</ele><time>2026-05-02T06:17:13.44Z</time></trkpt><trkpt lat="45.661228701579276" lon="11.427365783915102"><ele>107.33333333333333</ele><time>2026-05-02T06:17:14.44Z</time></trkpt><trkpt lat="45.66129813706472" lon="11.42763324697468"><ele>107.0</ele><time>2026-05-02T06:17:15.44Z</time></trkpt><trkpt lat="45.66135743203432" lon="11.427903528405183"><ele>106.33333333333333</ele><time>2026-05-02T06:17:16.44Z</time></trkpt><trkpt lat="45.6614068919834" lon="11.42817879464535"><ele>105.66666666666666</ele><time>2026-05-02T06:17:17.44Z</time></trkpt><trkpt lat="45.6614723044131" lon="11.428465069446704"><ele>105.0</ele><time>2026-05-02T06:17:18.44Z</time></trkpt><trkpt lat="45.66155234010207" lon="11.428739723947434"><ele>105.33333333333334</ele><time>2026-05-02T06:17:19.44Z</time></trkpt><trkpt lat="45.66160099075088" lon="11.429029217430772"><ele>105.66666666666667</ele><time>2026-05-02T06:17:20.44Z</time></trkpt><trkpt lat="45.66166461782523" lon="11.429308976647487"><ele>106.0</ele><time>2026-05-02T06:17:21.44Z</time></trkpt><trkpt lat="45.66174076651562" lon="11.42960525427884"><ele>106.0</ele><time>2026-05-02T06:17:22.44Z</time></trkpt><trkpt lat="45.66180886683594" lon="11.42989579695348"><ele>106.0</ele><time>2026-05-02T06:17:23.44Z</time></trkpt><trkpt lat="45.66186370284507" lon="11.430188444636162"><ele>106.0</ele><time>2026-05-02T06:17:24.44Z</time></trkpt><trkpt lat="45.66194625953272" lon="11.430485971231839"><ele>106.0</ele><time>2026-05-02T06:17:25.44Z</time></trkpt><trkpt lat="45.662020216081245" lon="11.430806726185068"><ele>106.0</ele><time>2026-05-02T06:17:26.44Z</time></trkpt><trkpt lat="45.66209284676965" lon="11.431142329113337"><ele>106.0</ele><time>2026-05-02T06:17:27.44Z</time></trkpt><trkpt lat="45.662174662462334" lon="11.431492738921172"><ele>106.0</ele><time>2026-05-02T06:17:28.44Z</time></trkpt><trkpt lat="45.66223845951734" lon="11.431853871179243"><ele>105.0</ele><time>2026-05-02T06:17:29.44Z</time></trkpt><trkpt lat="45.66233038660531" lon="11.432185486319842"><ele>104.0</ele><time>2026-05-02T06:17:30.44Z</time></trkpt><trkpt lat="45.662384765082614" lon="11.432501807386398"><ele>104.0</ele><time>2026-05-02T06:17:31.44Z</time></trkpt><trkpt lat="45.662453073234055" lon="11.432802689745378"><ele>104.0</ele><time>2026-05-02T06:17:32.44Z</time></trkpt><trkpt lat="45.662526934640624" lon="11.433092983900957"><ele>104.0</ele><time>2026-05-02T06:17:33.44Z</time></trkpt><trkpt lat="45.662585213984435" lon="11.433384740592654"><ele>104.33333333333333</ele><time>2026-05-02T06:17:34.44Z</time></trkpt><trkpt lat="45.66264346770374" lon="11.433641335374114"><ele>104.66666666666666</ele><time>2026-05-02T06:17:35.44Z</time></trkpt><trkpt lat="45.66270479850929" lon="11.433911484057068"><ele>105.0</ele><time>2026-05-02T06:17:36.44Z</time></trkpt><trkpt lat="45.66276258602013" lon="11.434171908448743"><ele>105.0</ele><time>2026-05-02T06:17:37.44Z</time></trkpt><trkpt lat="45.66282036364829" lon="11.434438025962574"><ele>105.0</ele><time>2026-05-02T06:17:38.44Z</time></trkpt><trkpt lat="45.662878523504986" lon="11.434705902754281"><ele>105.0</ele><time>2026-05-02T06:17:39.44Z</time></trkpt><trkpt lat="45.66293976283418" lon="11.434976107925904"><ele>104.66666666666666</ele><time>2026-05-02T06:17:40.441Z</time></trkpt><trkpt lat="45.66300187535011" lon="11.43525328591855"><ele>104.33333333333333</ele><time>2026-05-02T06:17:41.441Z</time></trkpt><trkpt lat="45.66306146983576" lon="11.435525675631563"><ele>104.0</ele><time>2026-05-02T06:17:42.441Z</time></trkpt><trkpt lat="45.66311890778102" lon="11.435788207984835"><ele>104.0</ele><time>2026-05-02T06:17:43.441Z</time></trkpt><trkpt lat="45.66317940651299" lon="11.43606472767448"><ele>104.0</ele><time>2026-05-02T06:17:44.441Z</time></trkpt><trkpt lat="45.66324050208888" lon="11.436343975343402"><ele>104.0</ele><time>2026-05-02T06:17:45.441Z</time></trkpt><trkpt lat="45.6633313200943" lon="11.436608971877126"><ele>104.0</ele><time>2026-05-02T06:17:46.441Z</time></trkpt><trkpt lat="45.6633836269349" lon="11.436863927232444"><ele>104.0</ele><time>2026-05-02T06:17:47.441Z</time></trkpt><trkpt lat="45.663439712826005" lon="11.437119616765484"><ele>104.0</ele><time>2026-05-02T06:17:48.441Z</time></trkpt><trkpt lat="45.663505596226585" lon="11.43738762580875"><ele>104.0</ele><time>2026-05-02T06:17:49.441Z</time></trkpt><trkpt lat="45.66356660378389" lon="11.437650033059505"><ele>104.0</ele><time>2026-05-02T06:17:50.441Z</time></trkpt><trkpt lat="45.6636204884626" lon="11.437918422503856"><ele>104.0</ele><time>2026-05-02T06:17:51.441Z</time></trkpt><trkpt lat="45.663689696429365" lon="11.438190189995838"><ele>104.33333333333333</ele><time>2026-05-02T06:17:52.441Z</time></trkpt><trkpt lat="45.66375651943771" lon="11.438463925998658"><ele>104.66666666666666</ele><time>2026-05-02T06:17:53.441Z</time></trkpt><trkpt lat="45.6638108491473" lon="11.43874456494329"><ele>105.0</ele><time>2026-05-02T06:17:54.441Z</time></trkpt><trkpt lat="45.663870239990636" lon="11.439018382508506"><ele>105.0</ele><time>2026-05-02T06:17:55.441Z</time></trkpt><trkpt lat="45.66392871748874" lon="11.439307132723243"><ele>105.0</ele><time>2026-05-02T06:17:56.441Z</time></trkpt><trkpt lat="45.66400366809749" lon="11.439601303270837"><ele>105.0</ele><time>2026-05-02T06:17:57.441Z</time></trkpt><trkpt lat="45.664081088239165" lon="11.43987626525734"><ele>105.0</ele><time>2026-05-02T06:17:58.441Z</time></trkpt><trkpt lat="45.664166973417714" lon="11.440143298831984"><ele>105.0</ele><time>2026-05-02T06:17:59.441Z</time></trkpt><trkpt lat="45.664252939136645" lon="11.440420938282964"><ele>105.0</ele><time>2026-05-02T06:18:00.441Z</time></trkpt><trkpt lat="45.66434251782177" lon="11.440689247683673"><ele>104.66666666666666</ele><time>2026-05-02T06:18:01.441Z</time></trkpt><trkpt lat="45.664433127667564" lon="11.44096780320173"><ele>104.33333333333333</ele><time>2026-05-02T06:18:02.441Z</time></trkpt><trkpt lat="45.6645210737656" lon="11.44123925277178"><ele>104.0</ele><time>2026-05-02T06:18:03.441Z</time></trkpt><trkpt lat="45.66460735799347" lon="11.441504463398141"><ele>104.0</ele><time>2026-05-02T06:18:04.441Z</time></trkpt><trkpt lat="45.664701978081474" lon="11.441734437535686"><ele>104.0</ele><time>2026-05-02T06:18:05.441Z</time></trkpt><trkpt lat="45.66477554586082" lon="11.44198070256772"><ele>104.0</ele><time>2026-05-02T06:18:06.441Z</time></trkpt><trkpt lat="45.66483587437255" lon="11.442228749050537"><ele>104.33333333333333</ele><time>2026-05-02T06:18:07.441Z</time></trkpt><trkpt lat="45.66488998836286" lon="11.442466822515849"><ele>104.66666666666666</ele><time>2026-05-02T06:18:08.441Z</time></trkpt><trkpt lat="45.66493770327218" lon="11.442708635029073"><ele>105.0</ele><time>2026-05-02T06:18:09.441Z</time></trkpt><trkpt lat="45.66498857778186" lon="11.442956025632059"><ele>104.66666666666666</ele><time>2026-05-02T06:18:10.441Z</time></trkpt><trkpt lat="45.665045679545294" lon="11.443202756938067"><ele>104.33333333333333</ele><time>2026-05-02T06:18:11.441Z</time></trkpt><trkpt lat="45.66510389850351" lon="11.44345420999636"><ele>104.0</ele><time>2026-05-02T06:18:12.441Z</time></trkpt><trkpt lat="45.665170918400214" lon="11.443704557418974"><ele>104.33333333333333</ele><time>2026-05-02T06:18:13.441Z</time></trkpt><trkpt lat="45.66524670414528" lon="11.443952710490194"><ele>104.66666666666666</ele><time>2026-05-02T06:18:14.441Z</time></trkpt><trkpt lat="45.665319961535175" lon="11.444215035365138"><ele>105.0</ele><time>2026-05-02T06:18:15.441Z</time></trkpt><trkpt lat="45.66539290784996" lon="11.444496152373478"><ele>105.0</ele><time>2026-05-02T06:18:16.441Z</time></trkpt><trkpt lat="45.66548514661664" lon="11.444788906800605"><ele>105.0</ele><time>2026-05-02T06:18:17.441Z</time></trkpt><trkpt lat="45.66556813011994" lon="11.445091570777999"><ele>105.0</ele><time>2026-05-02T06:18:18.441Z</time></trkpt><trkpt lat="45.66565445524658" lon="11.445397264170666"><ele>105.0</ele><time>2026-05-02T06:18:19.441Z</time></trkpt><trkpt lat="45.66573911501187" lon="11.445684192770889"><ele>105.0</ele><time>2026-05-02T06:18:20.441Z</time></trkpt><trkpt lat="45.665806557764334" lon="11.44595401336663"><ele>104.66666666666666</ele><time>2026-05-02T06:18:21.441Z</time></trkpt><trkpt lat="45.66587783757376" lon="11.446225372187481"><ele>104.33333333333333</ele><time>2026-05-02T06:18:22.441Z</time></trkpt><trkpt lat="45.66595211016946" lon="11.446496831910487"><ele>104.0</ele><time>2026-05-02T06:18:23.441Z</time></trkpt><trkpt lat="45.66601814848291" lon="11.446771418508384"><ele>104.0</ele><time>2026-05-02T06:18:24.441Z</time></trkpt><trkpt lat="45.666087154784485" lon="11.447047538360062"><ele>104.0</ele><time>2026-05-02T06:18:25.441Z</time></trkpt><trkpt lat="45.666160918674144" lon="11.447308865984569"><ele>104.0</ele><time>2026-05-02T06:18:26.441Z</time></trkpt><trkpt lat="45.66623247444305" lon="11.447570696470995"><ele>104.0</ele><time>2026-05-02T06:18:27.441Z</time></trkpt><trkpt lat="45.66630670106379" lon="11.447832127330594"><ele>104.0</ele><time>2026-05-02T06:18:28.441Z</time></trkpt><trkpt lat="45.66637641276381" lon="11.448088657797998"><ele>104.0</ele><time>2026-05-02T06:18:29.441Z</time></trkpt><trkpt lat="45.66643539114923" lon="11.448355256611492"><ele>104.0</ele><time>2026-05-02T06:18:30.441Z</time></trkpt><trkpt lat="45.666513765493136" lon="11.448621582635573"><ele>104.0</ele><time>2026-05-02T06:18:31.441Z</time></trkpt><trkpt lat="45.66658088039861" lon="11.448898356814679"><ele>104.0</ele><time>2026-05-02T06:18:32.441Z</time></trkpt><trkpt lat="45.666677047182844" lon="11.449174904240802"><ele>103.0</ele><time>2026-05-02T06:18:33.441Z</time></trkpt><trkpt lat="45.66675550643" lon="11.44946409124804"><ele>102.0</ele><time>2026-05-02T06:18:34.441Z</time></trkpt><trkpt lat="45.66683261658377" lon="11.449769480852883"><ele>101.0</ele><time>2026-05-02T06:18:35.441Z</time></trkpt><trkpt lat="45.666915064031635" lon="11.450077556233147"><ele>99.0</ele><time>2026-05-02T06:18:36.441Z</time></trkpt><trkpt lat="45.667009140489526" lon="11.450381533690367"><ele>97.0</ele><time>2026-05-02T06:18:37.441Z</time></trkpt><trkpt lat="45.66708766175826" lon="11.450704485921312"><ele>97.0</ele><time>2026-05-02T06:18:38.441Z</time></trkpt><trkpt lat="45.66715939768663" lon="11.451008067191298"><ele>97.0</ele><time>2026-05-02T06:18:39.441Z</time></trkpt><trkpt lat="45.667235201447475" lon="11.451292293978804"><ele>97.0</ele><time>2026-05-02T06:18:40.441Z</time></trkpt><trkpt lat="45.66732288846271" lon="11.451577346480715"><ele>98.0</ele><time>2026-05-02T06:18:41.441Z</time></trkpt><trkpt lat="45.66740643996896" lon="11.451870233836384"><ele>99.0</ele><time>2026-05-02T06:18:42.441Z</time></trkpt><trkpt lat="45.667495724446404" lon="11.452145802944868"><ele>100.0</ele><time>2026-05-02T06:18:43.441Z</time></trkpt><trkpt lat="45.667569446802545" lon="11.45244439525117"><ele>100.5</ele><time>2026-05-02T06:18:44.441Z</time></trkpt><trkpt lat="45.66764132971301" lon="11.4527464724128"><ele>101.0</ele><time>2026-05-02T06:18:45.441Z</time></trkpt><trkpt lat="45.66773345366784" lon="11.453058763368823"><ele>101.0</ele><time>2026-05-02T06:18:46.441Z</time></trkpt><trkpt lat="45.66782546489414" lon="11.453374590451318"><ele>101.0</ele><time>2026-05-02T06:18:47.441Z</time></trkpt><trkpt lat="45.667907074744974" lon="11.453669965976873"><ele>100.66666666666666</ele><time>2026-05-02T06:18:48.441Z</time></trkpt><trkpt lat="45.667974931110194" lon="11.453955680542409"><ele>100.33333333333334</ele><time>2026-05-02T06:18:49.441Z</time></trkpt><trkpt lat="45.66803557236033" lon="11.45423623779709"><ele>100.0</ele><time>2026-05-02T06:18:50.441Z</time></trkpt><trkpt lat="45.66809805229658" lon="11.454494062572897"><ele>100.33333333333334</ele><time>2026-05-02T06:18:51.441Z</time></trkpt><trkpt lat="45.66815901238422" lon="11.454745253580205"><ele>100.66666666666666</ele><time>2026-05-02T06:18:52.441Z</time></trkpt><trkpt lat="45.6682038117022" lon="11.45497677718268"><ele>101.0</ele><time>2026-05-02T06:18:53.441Z</time></trkpt><trkpt lat="45.668280002120994" lon="11.455166437252293"><ele>101.0</ele><time>2026-05-02T06:18:54.441Z</time></trkpt><trkpt lat="45.668342389522735" lon="11.455391505936396"><ele>101.0</ele><time>2026-05-02T06:18:55.441Z</time></trkpt><trkpt lat="45.668412699979505" lon="11.455593033508167"><ele>101.0</ele><time>2026-05-02T06:18:56.441Z</time></trkpt><trkpt lat="45.66847438732396" lon="11.455814521897816"><ele>100.66666666666666</ele><time>2026-05-02T06:18:57.441Z</time></trkpt><trkpt lat="45.66852893583484" lon="11.456038419648655"><ele>100.33333333333334</ele><time>2026-05-02T06:18:58.441Z</time></trkpt><trkpt lat="45.66858831882661" lon="11.456262379883858"><ele>100.0</ele><time>2026-05-02T06:18:59.441Z</time></trkpt><trkpt lat="45.668652076728655" lon="11.456479330425681"><ele>100.0</ele><time>2026-05-02T06:19:00.441Z</time></trkpt><trkpt lat="45.66872047422251" lon="11.456690492316305"><ele>100.0</ele><time>2026-05-02T06:19:01.441Z</time></trkpt><trkpt lat="45.66878004859185" lon="11.456903198375374"><ele>100.0</ele><time>2026-05-02T06:19:02.441Z</time></trkpt><trkpt lat="45.6688366704931" lon="11.457107975021199"><ele>99.5</ele><time>2026-05-02T06:19:03.441Z</time></trkpt><trkpt lat="45.66889127100185" lon="11.457312693560963"><ele>99.0</ele><time>2026-05-02T06:19:04.441Z</time></trkpt><trkpt lat="45.66893845051328" lon="11.457501378767398"><ele>98.5</ele><time>2026-05-02T06:19:05.441Z</time></trkpt><trkpt lat="45.66896706714059" lon="11.457693701499272"><ele>98.0</ele><time>2026-05-02T06:19:06.441Z</time></trkpt><trkpt lat="45.668976268959035" lon="11.457868290488486"><ele>97.75</ele><time>2026-05-02T06:19:07.441Z</time></trkpt><trkpt lat="45.66892855926099" lon="11.458059448691756"><ele>97.5</ele><time>2026-05-02T06:19:08.441Z</time></trkpt><trkpt lat="45.66887380088553" lon="11.45821740898408"><ele>97.25</ele><time>2026-05-02T06:19:09.441Z</time></trkpt><trkpt lat="45.66888613190667" lon="11.458374626213233"><ele>97.0</ele><time>2026-05-02T06:19:10.441Z</time></trkpt><trkpt lat="45.6689445920872" lon="11.458499008371085"><ele>97.0</ele><time>2026-05-02T06:19:11.441Z</time></trkpt><trkpt lat="45.669039385428086" lon="11.45854930659917"><ele>97.0</ele><time>2026-05-02T06:19:12.441Z</time></trkpt><trkpt lat="45.669141381457536" lon="11.458589381880683"><ele>97.0</ele><time>2026-05-02T06:19:13.441Z</time></trkpt><trkpt lat="45.669233695433306" lon="11.4585668875585"><ele>97.0</ele><time>2026-05-02T06:19:14.441Z</time></trkpt><trkpt lat="45.66932793434247" lon="11.458527149462887"><ele>97.0</ele><time>2026-05-02T06:19:15.441Z</time></trkpt><trkpt lat="45.6693986460279" lon="11.45843494074717"><ele>97.5</ele><time>2026-05-02T06:19:16.441Z</time></trkpt><trkpt lat="45.66944892459244" lon="11.458299746300625"><ele>98.0</ele><time>2026-05-02T06:19:17.441Z</time></trkpt><trkpt lat="45.669518649460905" lon="11.458206750171586"><ele>98.5</ele><time>2026-05-02T06:19:18.441Z</time></trkpt><trkpt lat="45.66962001480311" lon="11.458086319537772"><ele>99.0</ele><time>2026-05-02T06:19:19.441Z</time></trkpt><trkpt lat="45.669748179449854" lon="11.457974251723895"><ele>99.0</ele><time>2026-05-02T06:19:20.441Z</time></trkpt><trkpt lat="45.669951126235986" lon="11.457977485533192"><ele>99.0</ele><time>2026-05-02T06:19:21.441Z</time></trkpt><trkpt lat="45.67014478175699" lon="11.457896155709177"><ele>99.0</ele><time>2026-05-02T06:19:22.441Z</time></trkpt><trkpt lat="45.67034678480825" lon="11.45782719553517"><ele>99.66666666666666</ele><time>2026-05-02T06:19:23.441Z</time></trkpt><trkpt lat="45.670532111538186" lon="11.457774109216333"><ele>100.33333333333333</ele><time>2026-05-02T06:19:24.441Z</time></trkpt><trkpt lat="45.67070704626593" lon="11.457691283812197"><ele>101.0</ele><time>2026-05-02T06:19:25.441Z</time></trkpt><trkpt lat="45.67088730190695" lon="11.457618037648228"><ele>101.0</ele><time>2026-05-02T06:19:26.441Z</time></trkpt><trkpt lat="45.67105701272976" lon="11.457538103342278"><ele>101.0</ele><time>2026-05-02T06:19:27.441Z</time></trkpt><trkpt lat="45.67124209406419" lon="11.457430247188215"><ele>101.0</ele><time>2026-05-02T06:19:28.441Z</time></trkpt><trkpt lat="45.67142836044578" lon="11.457284961998365"><ele>101.0</ele><time>2026-05-02T06:19:29.441Z</time></trkpt><trkpt lat="45.67160267985388" lon="11.457113969827112"><ele>101.0</ele><time>2026-05-02T06:19:30.441Z</time></trkpt><trkpt lat="45.67179883280944" lon="11.456951193007015"><ele>101.0</ele><time>2026-05-02T06:19:31.441Z</time></trkpt><trkpt lat="45.671959651289654" lon="11.45678067018241"><ele>101.0</ele><time>2026-05-02T06:19:32.441Z</time></trkpt><trkpt lat="45.67212042563496" lon="11.456633280875225"><ele>101.0</ele><time>2026-05-02T06:19:33.441Z</time></trkpt><trkpt lat="45.67229009602698" lon="11.456477555378571"><ele>101.0</ele><time>2026-05-02T06:19:34.441Z</time></trkpt><trkpt lat="45.672443755271345" lon="11.456326547025789"><ele>101.33333333333333</ele><time>2026-05-02T06:19:35.441Z</time></trkpt><trkpt lat="45.67261059507382" lon="11.456166579999381"><ele>101.66666666666666</ele><time>2026-05-02T06:19:36.441Z</time></trkpt><trkpt lat="45.67280255660498" lon="11.456034952353432"><ele>102.0</ele><time>2026-05-02T06:19:37.441Z</time></trkpt><trkpt lat="45.673015598032755" lon="11.455932098915104"><ele>102.0</ele><time>2026-05-02T06:19:38.441Z</time></trkpt><trkpt lat="45.673244741552566" lon="11.455839928827269"><ele>102.0</ele><time>2026-05-02T06:19:39.441Z</time></trkpt><trkpt lat="45.67346777337546" lon="11.455786098263236"><ele>102.5</ele><time>2026-05-02T06:19:40.441Z</time></trkpt><trkpt lat="45.6737186752898" lon="11.455756936589994"><ele>103.0</ele><time>2026-05-02T06:19:41.441Z</time></trkpt><trkpt lat="45.67392315756863" lon="11.45575417071055"><ele>103.0</ele><time>2026-05-02T06:19:42.441Z</time></trkpt><trkpt lat="45.67414351470437" lon="11.455781342025283"><ele>103.0</ele><time>2026-05-02T06:19:43.441Z</time></trkpt><trkpt lat="45.67435743072156" lon="11.455828527064249"><ele>103.0</ele><time>2026-05-02T06:19:44.441Z</time></trkpt><trkpt lat="45.67453821624796" lon="11.45588850661559"><ele>103.66666666666667</ele><time>2026-05-02T06:19:45.441Z</time></trkpt><trkpt lat="45.67471744145075" lon="11.455973588741916"><ele>104.33333333333334</ele><time>2026-05-02T06:19:46.442Z</time></trkpt><trkpt lat="45.67488019280165" lon="11.456065292136381"><ele>105.0</ele><time>2026-05-02T06:19:47.442Z</time></trkpt><trkpt lat="45.67502120861181" lon="11.456158387387447"><ele>105.0</ele><time>2026-05-02T06:19:48.442Z</time></trkpt><trkpt lat="45.67515892908031" lon="11.45626350504904"><ele>105.0</ele><time>2026-05-02T06:19:49.442Z</time></trkpt><trkpt lat="45.67529901294637" lon="11.456391518999336"><ele>105.0</ele><time>2026-05-02T06:19:50.442Z</time></trkpt><trkpt lat="45.675422620457795" lon="11.456516024940607"><ele>105.0</ele><time>2026-05-02T06:19:51.442Z</time></trkpt><trkpt lat="45.675543883524064" lon="11.45665215223472"><ele>105.0</ele><time>2026-05-02T06:19:52.442Z</time></trkpt><trkpt lat="45.67564105366743" lon="11.456765706065697"><ele>105.0</ele><time>2026-05-02T06:19:53.442Z</time></trkpt><trkpt lat="45.675706377597244" lon="11.456861004147886"><ele>105.0</ele><time>2026-05-02T06:19:54.442Z</time></trkpt><trkpt lat="45.67575142789261" lon="11.456984485585672"><ele>105.0</ele><time>2026-05-02T06:19:55.442Z</time></trkpt><trkpt lat="45.6757777990611" lon="11.457106811230524"><ele>105.0</ele><time>2026-05-02T06:19:56.442Z</time></trkpt><trkpt lat="45.67579263914805" lon="11.457220391326993"><ele>105.0</ele><time>2026-05-02T06:19:57.442Z</time></trkpt><trkpt lat="45.67577157359646" lon="11.457430762475477"><ele>105.0</ele><time>2026-05-02T06:19:58.442Z</time></trkpt><trkpt lat="45.67582846017456" lon="11.457593895862964"><ele>105.0</ele><time>2026-05-02T06:19:59.442Z</time></trkpt><trkpt lat="45.675905171191395" lon="11.457720985313614"><ele>105.25</ele><time>2026-05-02T06:20:00.442Z</time></trkpt><trkpt lat="45.676062660863856" lon="11.457792630555543"><ele>105.5</ele><time>2026-05-02T06:20:01.442Z</time></trkpt><trkpt lat="45.67616955193622" lon="11.457834675071018"><ele>105.75</ele><time>2026-05-02T06:20:02.442Z</time></trkpt><trkpt lat="45.67626627711537" lon="11.457947558612444"><ele>106.0</ele><time>2026-05-02T06:20:03.442Z</time></trkpt><trkpt lat="45.676385142880996" lon="11.458110282074271"><ele>107.0</ele><time>2026-05-02T06:20:04.442Z</time></trkpt><trkpt lat="45.6764556597536" lon="11.45834956701147"><ele>108.0</ele><time>2026-05-02T06:20:05.442Z</time></trkpt><trkpt lat="45.67657306679317" lon="11.458604555750991"><ele>109.0</ele><time>2026-05-02T06:20:06.442Z</time></trkpt><trkpt lat="45.676703620094116" lon="11.458859699312857"><ele>109.0</ele><time>2026-05-02T06:20:07.442Z</time></trkpt><trkpt lat="45.6768350893357" lon="11.459164208324975"><ele>109.0</ele><time>2026-05-02T06:20:08.442Z</time></trkpt><trkpt lat="45.67695756692992" lon="11.459435406801997"><ele>108.33333333333334</ele><time>2026-05-02T06:20:09.442Z</time></trkpt><trkpt lat="45.67707361586025" lon="11.459684398567259"><ele>107.66666666666666</ele><time>2026-05-02T06:20:10.442Z</time></trkpt><trkpt lat="45.677234772525416" lon="11.459927688834235"><ele>107.0</ele><time>2026-05-02T06:20:11.442Z</time></trkpt><trkpt lat="45.67738856921858" lon="11.460163300658632"><ele>107.0</ele><time>2026-05-02T06:20:12.442Z</time></trkpt><trkpt lat="45.677543585749284" lon="11.460401229306187"><ele>107.0</ele><time>2026-05-02T06:20:13.442Z</time></trkpt><trkpt lat="45.67769026883763" lon="11.460638238868052"><ele>107.0</ele><time>2026-05-02T06:20:14.442Z</time></trkpt><trkpt lat="45.677851349341104" lon="11.460871416553685"><ele>107.0</ele><time>2026-05-02T06:20:15.442Z</time></trkpt><trkpt lat="45.67801124139796" lon="11.461080840330416"><ele>107.0</ele><time>2026-05-02T06:20:16.442Z</time></trkpt><trkpt lat="45.678168296857" lon="11.46128191377742"><ele>107.0</ele><time>2026-05-02T06:20:17.442Z</time></trkpt><trkpt lat="45.678330000266264" lon="11.461487133086614"><ele>107.0</ele><time>2026-05-02T06:20:18.442Z</time></trkpt><trkpt lat="45.67850249613701" lon="11.461673863987668"><ele>107.0</ele><time>2026-05-02T06:20:19.442Z</time></trkpt><trkpt lat="45.67865303372888" lon="11.461889437242801"><ele>107.0</ele><time>2026-05-02T06:20:20.442Z</time></trkpt><trkpt lat="45.678815962319824" lon="11.462087145749285"><ele>106.66666666666666</ele><time>2026-05-02T06:20:21.442Z</time></trkpt><trkpt lat="45.67898714834804" lon="11.462297694912428"><ele>106.33333333333334</ele><time>2026-05-02T06:20:22.442Z</time></trkpt><trkpt lat="45.679143145716345" lon="11.462495753913414"><ele>106.0</ele><time>2026-05-02T06:20:23.442Z</time></trkpt><trkpt lat="45.67930481484382" lon="11.462698871319603"><ele>107.0</ele><time>2026-05-02T06:20:24.442Z</time></trkpt><trkpt lat="45.67946987364898" lon="11.462896668201102"><ele>108.0</ele><time>2026-05-02T06:20:25.442Z</time></trkpt><trkpt lat="45.679626026125085" lon="11.463090980435535"><ele>109.0</ele><time>2026-05-02T06:20:26.442Z</time></trkpt><trkpt lat="45.67978925730683" lon="11.463289190996687"><ele>109.5</ele><time>2026-05-02T06:20:27.442Z</time></trkpt><trkpt lat="45.67996271846919" lon="11.463511370481843"><ele>110.0</ele><time>2026-05-02T06:20:28.442Z</time></trkpt><trkpt lat="45.680123859023595" lon="11.463740052852419"><ele>109.0</ele><time>2026-05-02T06:20:29.442Z</time></trkpt><trkpt lat="45.68029993303101" lon="11.463960651853018"><ele>108.0</ele><time>2026-05-02T06:20:30.442Z</time></trkpt><trkpt lat="45.680489032585875" lon="11.464194164514948"><ele>108.0</ele><time>2026-05-02T06:20:31.442Z</time></trkpt><trkpt lat="45.68068553910373" lon="11.464431305958204"><ele>108.0</ele><time>2026-05-02T06:20:32.442Z</time></trkpt><trkpt lat="45.68087073859581" lon="11.464650230868813"><ele>108.0</ele><time>2026-05-02T06:20:33.442Z</time></trkpt><trkpt lat="45.681056195945565" lon="11.464859525871493"><ele>108.0</ele><time>2026-05-02T06:20:34.442Z</time></trkpt><trkpt lat="45.68124035127779" lon="11.465052171640217"><ele>108.33333333333334</ele><time>2026-05-02T06:20:35.442Z</time></trkpt><trkpt lat="45.68141259663705" lon="11.465222067993302"><ele>108.66666666666667</ele><time>2026-05-02T06:20:36.442Z</time></trkpt><trkpt lat="45.68159275681787" lon="11.46539812820795"><ele>109.0</ele><time>2026-05-02T06:20:37.442Z</time></trkpt><trkpt lat="45.68177745323898" lon="11.465588066836585"><ele>109.66666666666667</ele><time>2026-05-02T06:20:38.442Z</time></trkpt><trkpt lat="45.681955701121545" lon="11.465778944415192"><ele>110.33333333333334</ele><time>2026-05-02T06:20:39.442Z</time></trkpt><trkpt lat="45.68213224159196" lon="11.465974190297052"><ele>111.0</ele><time>2026-05-02T06:20:40.442Z</time></trkpt><trkpt lat="45.68230209393164" lon="11.466168251752645"><ele>111.33333333333334</ele><time>2026-05-02T06:20:41.442Z</time></trkpt><trkpt lat="45.68245874414701" lon="11.466353153888445"><ele>111.66666666666667</ele><time>2026-05-02T06:20:42.442Z</time></trkpt><trkpt lat="45.68260711538763" lon="11.466530332394642"><ele>112.0</ele><time>2026-05-02T06:20:43.442Z</time></trkpt><trkpt lat="45.682745382915364" lon="11.466695444827215"><ele>112.0</ele><time>2026-05-02T06:20:44.442Z</time></trkpt><trkpt lat="45.68286265915055" lon="11.466835490466789"><ele>112.0</ele><time>2026-05-02T06:20:45.442Z</time></trkpt><trkpt lat="45.68297583127943" lon="11.466942154058192"><ele>112.0</ele><time>2026-05-02T06:20:46.442Z</time></trkpt><trkpt lat="45.683069435056275" lon="11.467049590179634"><ele>112.0</ele><time>2026-05-02T06:20:47.442Z</time></trkpt><trkpt lat="45.68314630037139" lon="11.467172605926104"><ele>112.0</ele><time>2026-05-02T06:20:48.442Z</time></trkpt><trkpt lat="45.68318188395944" lon="11.467351003504303"><ele>112.0</ele><time>2026-05-02T06:20:49.442Z</time></trkpt><trkpt lat="45.68318521118089" lon="11.467543998533943"><ele>112.0</ele><time>2026-05-02T06:20:50.442Z</time></trkpt><trkpt lat="45.68316844238141" lon="11.467770143856576"><ele>112.0</ele><time>2026-05-02T06:20:51.442Z</time></trkpt><trkpt lat="45.683154133485885" lon="11.468023743235637"><ele>112.0</ele><time>2026-05-02T06:20:52.442Z</time></trkpt><trkpt lat="45.68317411548978" lon="11.468321843964938"><ele>112.0</ele><time>2026-05-02T06:20:53.442Z</time></trkpt><trkpt lat="45.68318570500672" lon="11.46862939934044"><ele>112.0</ele><time>2026-05-02T06:20:54.442Z</time></trkpt><trkpt lat="45.68321812936175" lon="11.46889990425633"><ele>112.33333333333334</ele><time>2026-05-02T06:20:55.442Z</time></trkpt><trkpt lat="45.68323989935676" lon="11.469160801821868"><ele>112.66666666666666</ele><time>2026-05-02T06:20:56.442Z</time></trkpt><trkpt lat="45.683262655324725" lon="11.469442032363608"><ele>113.0</ele><time>2026-05-02T06:20:57.442Z</time></trkpt><trkpt lat="45.683267740164744" lon="11.469738030058945"><ele>113.5</ele><time>2026-05-02T06:20:58.442Z</time></trkpt><trkpt lat="45.68328636339224" lon="11.470059138415808"><ele>114.0</ele><time>2026-05-02T06:20:59.442Z</time></trkpt><trkpt lat="45.6832986852524" lon="11.470388603296325"><ele>113.66666666666666</ele><time>2026-05-02T06:21:00.442Z</time></trkpt><trkpt lat="45.68331193086295" lon="11.470696908654965"><ele>113.33333333333333</ele><time>2026-05-02T06:21:01.442Z</time></trkpt><trkpt lat="45.68331711837516" lon="11.470983194187108"><ele>113.0</ele><time>2026-05-02T06:21:02.442Z</time></trkpt><trkpt lat="45.68333274880859" lon="11.47124856419407"><ele>113.0</ele><time>2026-05-02T06:21:03.442Z</time></trkpt><trkpt lat="45.68334192046308" lon="11.471493430964378"><ele>113.0</ele><time>2026-05-02T06:21:04.442Z</time></trkpt><trkpt lat="45.68334938243932" lon="11.471734519803928"><ele>113.0</ele><time>2026-05-02T06:21:05.442Z</time></trkpt><trkpt lat="45.68335291356262" lon="11.471957477554124"><ele>113.0</ele><time>2026-05-02T06:21:06.442Z</time></trkpt><trkpt lat="45.68333379429906" lon="11.472196194129294"><ele>113.0</ele><time>2026-05-02T06:21:07.442Z</time></trkpt><trkpt lat="45.683334901913284" lon="11.472416949245488"><ele>113.0</ele><time>2026-05-02T06:21:08.442Z</time></trkpt><trkpt lat="45.68334560191926" lon="11.47264694650654"><ele>113.0</ele><time>2026-05-02T06:21:09.442Z</time></trkpt><trkpt lat="45.68337136076437" lon="11.472879771914762"><ele>113.0</ele><time>2026-05-02T06:21:10.442Z</time></trkpt><trkpt lat="45.68342519618049" lon="11.473099171260145"><ele>113.0</ele><time>2026-05-02T06:21:11.442Z</time></trkpt><trkpt lat="45.68349986476496" lon="11.473305905199393"><ele>113.0</ele><time>2026-05-02T06:21:12.442Z</time></trkpt><trkpt lat="45.683596610419904" lon="11.473500743662335"><ele>113.0</ele><time>2026-05-02T06:21:13.442Z</time></trkpt><trkpt lat="45.683679245978425" lon="11.47368483662142"><ele>113.0</ele><time>2026-05-02T06:21:14.442Z</time></trkpt><trkpt lat="45.683755749874834" lon="11.473840053743269"><ele>113.0</ele><time>2026-05-02T06:21:15.442Z</time></trkpt><trkpt lat="45.68383318638651" lon="11.473966321565475"><ele>113.00000000000001</ele><time>2026-05-02T06:21:16.442Z</time></trkpt><trkpt lat="45.68390265296148" lon="11.474090495010241"><ele>113.00000000000001</ele><time>2026-05-02T06:21:17.442Z</time></trkpt><trkpt lat="45.683954611875805" lon="11.474174542425631"><ele>113.0</ele><time>2026-05-02T06:21:18.442Z</time></trkpt><trkpt lat="45.68402090976626" lon="11.474270296877712"><ele>113.0</ele><time>2026-05-02T06:21:20.442Z</time></trkpt><trkpt lat="45.6841129880212" lon="11.474437731526303"><ele>113.0</ele><time>2026-05-02T06:21:22.442Z</time></trkpt><trkpt lat="45.684158523051444" lon="11.474537429062275"><ele>113.00000000000001</ele><time>2026-05-02T06:21:23.442Z</time></trkpt><trkpt lat="45.68421098793368" lon="11.474614326592466"><ele>113.00000000000001</ele><time>2026-05-02T06:21:24.442Z</time></trkpt><trkpt lat="45.68426367385256" lon="11.474731012758314"><ele>113.0</ele><time>2026-05-02T06:21:25.442Z</time></trkpt><trkpt lat="45.68431546713475" lon="11.474854914930331"><ele>113.0</ele><time>2026-05-02T06:21:26.442Z</time></trkpt><trkpt lat="45.68436908684258" lon="11.47499033273559"><ele>113.25</ele><time>2026-05-02T06:21:27.442Z</time></trkpt><trkpt lat="45.6844484880512" lon="11.475126146369394"><ele>113.5</ele><time>2026-05-02T06:21:28.442Z</time></trkpt><trkpt lat="45.68451502294567" lon="11.475256475509445"><ele>113.75</ele><time>2026-05-02T06:21:29.442Z</time></trkpt><trkpt lat="45.68458966546362" lon="11.475378361321289"><ele>114.0</ele><time>2026-05-02T06:21:30.442Z</time></trkpt><trkpt lat="45.68468092143669" lon="11.475465934555674"><ele>114.0</ele><time>2026-05-02T06:21:31.442Z</time></trkpt><trkpt lat="45.68475314268068" lon="11.475573126921592"><ele>114.0</ele><time>2026-05-02T06:21:32.442Z</time></trkpt><trkpt lat="45.684809753591104" lon="11.475713152162287"><ele>114.0</ele><time>2026-05-02T06:21:33.442Z</time></trkpt><trkpt lat="45.684884700169896" lon="11.475828937006732"><ele>114.0</ele><time>2026-05-02T06:21:34.442Z</time></trkpt><trkpt lat="45.684920940806" lon="11.47596346215316"><ele>114.0</ele><time>2026-05-02T06:21:35.442Z</time></trkpt><trkpt lat="45.68497804755878" lon="11.476085997918632"><ele>114.0</ele><time>2026-05-02T06:21:36.442Z</time></trkpt><trkpt lat="45.68502971668329" lon="11.476192989064161"><ele>114.0</ele><time>2026-05-02T06:21:37.442Z</time></trkpt><trkpt lat="45.68505576323619" lon="11.47632088148474"><ele>114.0</ele><time>2026-05-02T06:21:38.442Z</time></trkpt><trkpt lat="45.68507280331666" lon="11.476449935561304"><ele>114.0</ele><time>2026-05-02T06:21:39.442Z</time></trkpt><trkpt lat="45.68515152184381" lon="11.476511345908397"><ele>114.0</ele><time>2026-05-02T06:21:40.442Z</time></trkpt><trkpt lat="45.6852303386949" lon="11.476576833695866"><ele>114.2</ele><time>2026-05-02T06:21:41.442Z</time></trkpt><trkpt lat="45.685308890822775" lon="11.476672419997278"><ele>114.4</ele><time>2026-05-02T06:21:42.442Z</time></trkpt><trkpt lat="45.685382757963964" lon="11.476794662038397"><ele>114.6</ele><time>2026-05-02T06:21:43.442Z</time></trkpt><trkpt lat="45.685458381935945" lon="11.47692928965881"><ele>114.8</ele><time>2026-05-02T06:21:44.442Z</time></trkpt><trkpt lat="45.685516066994545" lon="11.477051475040879"><ele>115.0</ele><time>2026-05-02T06:21:45.442Z</time></trkpt><trkpt lat="45.68556132533125" lon="11.477185074221662"><ele>115.2</ele><time>2026-05-02T06:21:46.442Z</time></trkpt><trkpt lat="45.68561695102462" lon="11.477303603528487"><ele>115.4</ele><time>2026-05-02T06:21:47.442Z</time></trkpt><trkpt lat="45.68567713915974" lon="11.477436221081014"><ele>115.6</ele><time>2026-05-02T06:21:48.442Z</time></trkpt><trkpt lat="45.68574135632398" lon="11.477548662344528"><ele>115.8</ele><time>2026-05-02T06:21:49.442Z</time></trkpt><trkpt lat="45.685792157407455" lon="11.47768520262837"><ele>116.0</ele><time>2026-05-02T06:21:50.442Z</time></trkpt><trkpt lat="45.68584524818726" lon="11.477814284383411"><ele>115.99999999999999</ele><time>2026-05-02T06:21:51.442Z</time></trkpt><trkpt lat="45.68589949800253" lon="11.477929656255116"><ele>116.0</ele><time>2026-05-02T06:21:52.443Z</time></trkpt><trkpt lat="45.68593594903657" lon="11.478056409432615"><ele>116.0</ele><time>2026-05-02T06:21:53.443Z</time></trkpt><trkpt lat="45.685954323308216" lon="11.478156964876359"><ele>116.0</ele><time>2026-05-02T06:21:54.443Z</time></trkpt><trkpt lat="45.68597179891904" lon="11.478276093398371"><ele>115.99999999999999</ele><time>2026-05-02T06:21:55.443Z</time></trkpt><trkpt lat="45.68604790821345" lon="11.478339331203339"><ele>116.0</ele><time>2026-05-02T06:21:56.443Z</time></trkpt><trkpt lat="45.686154078630906" lon="11.47841347519159"><ele>116.0</ele><time>2026-05-02T06:21:57.443Z</time></trkpt><trkpt lat="45.68625794335387" lon="11.47852372117959"><ele>116.0</ele><time>2026-05-02T06:21:58.443Z</time></trkpt><trkpt lat="45.68636722148139" lon="11.478680294836646"><ele>116.0</ele><time>2026-05-02T06:21:59.443Z</time></trkpt><trkpt lat="45.68645334685062" lon="11.478938864314642"><ele>116.0</ele><time>2026-05-02T06:22:00.443Z</time></trkpt><trkpt lat="45.6865920779101" lon="11.479162185836264"><ele>116.0</ele><time>2026-05-02T06:22:01.443Z</time></trkpt><trkpt lat="45.6867356917153" lon="11.47936333756796"><ele>116.0</ele><time>2026-05-02T06:22:02.443Z</time></trkpt><trkpt lat="45.686846713577005" lon="11.479570545804759"><ele>115.66666666666666</ele><time>2026-05-02T06:22:03.443Z</time></trkpt><trkpt lat="45.686961389271005" lon="11.479771275926241"><ele>115.33333333333334</ele><time>2026-05-02T06:22:04.443Z</time></trkpt><trkpt lat="45.687092388192546" lon="11.479951010459411"><ele>115.0</ele><time>2026-05-02T06:22:05.443Z</time></trkpt><trkpt lat="45.687154454554516" lon="11.48020704764528"><ele>115.0</ele><time>2026-05-02T06:22:06.443Z</time></trkpt><trkpt lat="45.68726233136621" lon="11.480399232499472"><ele>115.0</ele><time>2026-05-02T06:22:07.443Z</time></trkpt><trkpt lat="45.68736410796792" lon="11.48057311081041"><ele>115.0</ele><time>2026-05-02T06:22:08.443Z</time></trkpt><trkpt lat="45.6874656753991" lon="11.480740220862517"><ele>115.25</ele><time>2026-05-02T06:22:09.443Z</time></trkpt><trkpt lat="45.68756982002758" lon="11.480901139869252"><ele>115.5</ele><time>2026-05-02T06:22:10.443Z</time></trkpt><trkpt lat="45.68769457230279" lon="11.481014996092663"><ele>115.75</ele><time>2026-05-02T06:22:11.443Z</time></trkpt><trkpt lat="45.687795885050626" lon="11.481169057144283"><ele>116.0</ele><time>2026-05-02T06:22:12.443Z</time></trkpt><trkpt lat="45.687893172269185" lon="11.48134535485592"><ele>116.0</ele><time>2026-05-02T06:22:13.443Z</time></trkpt><trkpt lat="45.68797946472734" lon="11.481532134463341"><ele>116.0</ele><time>2026-05-02T06:22:14.443Z</time></trkpt><trkpt lat="45.68806225248488" lon="11.481720620108065"><ele>116.0</ele><time>2026-05-02T06:22:15.443Z</time></trkpt><trkpt lat="45.68816487723924" lon="11.481891726603742"><ele>116.0</ele><time>2026-05-02T06:22:16.443Z</time></trkpt><trkpt lat="45.68825521855635" lon="11.482056431907825"><ele>116.0</ele><time>2026-05-02T06:22:17.443Z</time></trkpt><trkpt lat="45.688346300703934" lon="11.48222460284544"><ele>116.0</ele><time>2026-05-02T06:22:18.443Z</time></trkpt><trkpt lat="45.68843468073758" lon="11.48239935328598"><ele>116.0</ele><time>2026-05-02T06:22:19.443Z</time></trkpt><trkpt lat="45.68850023173054" lon="11.482589463958295"><ele>115.75</ele><time>2026-05-02T06:22:20.443Z</time></trkpt><trkpt lat="45.68857162982042" lon="11.482772289066867"><ele>115.5</ele><time>2026-05-02T06:22:21.443Z</time></trkpt><trkpt lat="45.68863528191705" lon="11.482932080921412"><ele>115.25</ele><time>2026-05-02T06:22:22.443Z</time></trkpt><trkpt lat="45.68870728302477" lon="11.483056115923675"><ele>115.0</ele><time>2026-05-02T06:22:23.443Z</time></trkpt><trkpt lat="45.68879486861896" lon="11.483137229425529"><ele>115.75</ele><time>2026-05-02T06:22:24.443Z</time></trkpt><trkpt lat="45.68890188314972" lon="11.483180354068603"><ele>116.5</ele><time>2026-05-02T06:22:25.443Z</time></trkpt><trkpt lat="45.689028624876414" lon="11.483179266558423"><ele>117.25</ele><time>2026-05-02T06:22:26.443Z</time></trkpt><trkpt lat="45.689171707050804" lon="11.483158930077101"><ele>118.0</ele><time>2026-05-02T06:22:27.443Z</time></trkpt><trkpt lat="45.68927689828638" lon="11.483116520792041"><ele>118.0</ele><time>2026-05-02T06:22:28.443Z</time></trkpt><trkpt lat="45.689382996738544" lon="11.483040844611661"><ele>118.0</ele><time>2026-05-02T06:22:29.443Z</time></trkpt><trkpt lat="45.68950922287462" lon="11.482967196087467"><ele>118.0</ele><time>2026-05-02T06:22:30.443Z</time></trkpt><trkpt lat="45.68964707447132" lon="11.482945918971087"><ele>118.0</ele><time>2026-05-02T06:22:31.443Z</time></trkpt><trkpt lat="45.6897904309907" lon="11.482945762209019"><ele>118.0</ele><time>2026-05-02T06:22:32.443Z</time></trkpt><trkpt lat="45.689946052424496" lon="11.482984087837481"><ele>118.0</ele><time>2026-05-02T06:22:33.443Z</time></trkpt><trkpt lat="45.690113523595315" lon="11.482997138342542"><ele>118.0</ele><time>2026-05-02T06:22:34.443Z</time></trkpt><trkpt lat="45.69027142512417" lon="11.482993431308723"><ele>118.25</ele><time>2026-05-02T06:22:35.443Z</time></trkpt><trkpt lat="45.69042405428106" lon="11.482999193076836"><ele>118.5</ele><time>2026-05-02T06:22:36.443Z</time></trkpt><trkpt lat="45.69057050690035" lon="11.483004082917986"><ele>118.75</ele><time>2026-05-02T06:22:37.443Z</time></trkpt><trkpt lat="45.690710298236596" lon="11.483024462640481"><ele>119.0</ele><time>2026-05-02T06:22:38.443Z</time></trkpt><trkpt lat="45.6908584130281" lon="11.483021958199146"><ele>119.0</ele><time>2026-05-02T06:22:39.443Z</time></trkpt><trkpt lat="45.691011548943834" lon="11.483018224841143"><ele>119.0</ele><time>2026-05-02T06:22:40.443Z</time></trkpt><trkpt lat="45.691140457936264" lon="11.483004967641001"><ele>119.0</ele><time>2026-05-02T06:22:41.443Z</time></trkpt><trkpt lat="45.69126289986257" lon="11.483012500272322"><ele>119.0</ele><time>2026-05-02T06:22:42.443Z</time></trkpt><trkpt lat="45.69138802937836" lon="11.483013283482853"><ele>119.0</ele><time>2026-05-02T06:22:43.443Z</time></trkpt><trkpt lat="45.69151065633542" lon="11.483019620429449"><ele>119.0</ele><time>2026-05-02T06:22:44.443Z</time></trkpt><trkpt lat="45.69160901865871" lon="11.48305515432709"><ele>119.0</ele><time>2026-05-02T06:22:45.443Z</time></trkpt><trkpt lat="45.69171483104426" lon="11.483093560120716"><ele>119.0</ele><time>2026-05-02T06:22:46.443Z</time></trkpt><trkpt lat="45.69182164729078" lon="11.483153040191876"><ele>119.0</ele><time>2026-05-02T06:22:47.443Z</time></trkpt><trkpt lat="45.69190738995646" lon="11.483239945417951"><ele>119.5</ele><time>2026-05-02T06:22:48.443Z</time></trkpt><trkpt lat="45.691984831324696" lon="11.483348101426948"><ele>120.0</ele><time>2026-05-02T06:22:49.443Z</time></trkpt><trkpt lat="45.69205505676323" lon="11.483492438140523"><ele>120.5</ele><time>2026-05-02T06:22:50.443Z</time></trkpt><trkpt lat="45.69211336105807" lon="11.48363636494658"><ele>121.0</ele><time>2026-05-02T06:22:51.443Z</time></trkpt><trkpt lat="45.692156082376975" lon="11.483835910506725"><ele>121.0</ele><time>2026-05-02T06:22:52.443Z</time></trkpt><trkpt lat="45.692161889541445" lon="11.484085880050012"><ele>121.0</ele><time>2026-05-02T06:22:53.443Z</time></trkpt><trkpt lat="45.69220550586949" lon="11.484372030280593"><ele>121.0</ele><time>2026-05-02T06:22:54.443Z</time></trkpt><trkpt lat="45.69225205396752" lon="11.484677414747178"><ele>120.33333333333334</ele><time>2026-05-02T06:22:55.443Z</time></trkpt><trkpt lat="45.69229468939535" lon="11.484952212858722"><ele>119.66666666666666</ele><time>2026-05-02T06:22:56.443Z</time></trkpt><trkpt lat="45.692334362773664" lon="11.485207823772125"><ele>119.0</ele><time>2026-05-02T06:22:57.443Z</time></trkpt><trkpt lat="45.69237714685466" lon="11.485483476672638"><ele>119.0</ele><time>2026-05-02T06:22:58.443Z</time></trkpt><trkpt lat="45.69241978739134" lon="11.485758204706743"><ele>119.0</ele><time>2026-05-02T06:22:59.443Z</time></trkpt><trkpt lat="45.69247141418229" lon="11.486091097621877"><ele>119.0</ele><time>2026-05-02T06:23:00.443Z</time></trkpt><trkpt lat="45.69251870820202" lon="11.486396053049264"><ele>119.66666666666666</ele><time>2026-05-02T06:23:01.443Z</time></trkpt><trkpt lat="45.692564846848825" lon="11.486693558540516"><ele>120.33333333333334</ele><time>2026-05-02T06:23:02.443Z</time></trkpt><trkpt lat="45.69261083280056" lon="11.486990121818982"><ele>121.0</ele><time>2026-05-02T06:23:03.443Z</time></trkpt><trkpt lat="45.69265482895398" lon="11.487274454043803"><ele>121.0</ele><time>2026-05-02T06:23:04.443Z</time></trkpt><trkpt lat="45.69271810652823" lon="11.48759393423801"><ele>121.0</ele><time>2026-05-02T06:23:05.443Z</time></trkpt><trkpt lat="45.692763011841976" lon="11.48792783746858"><ele>121.0</ele><time>2026-05-02T06:23:06.443Z</time></trkpt><trkpt lat="45.692795661618575" lon="11.488278950571019"><ele>121.0</ele><time>2026-05-02T06:23:07.443Z</time></trkpt><trkpt lat="45.69282734744863" lon="11.488601863166947"><ele>120.5</ele><time>2026-05-02T06:23:08.443Z</time></trkpt><trkpt lat="45.69289571540726" lon="11.488941380356371"><ele>120.0</ele><time>2026-05-02T06:23:09.443Z</time></trkpt><trkpt lat="45.69295014710995" lon="11.489293153744665"><ele>120.0</ele><time>2026-05-02T06:23:10.443Z</time></trkpt><trkpt lat="45.69300478236637" lon="11.489620308972297"><ele>120.0</ele><time>2026-05-02T06:23:11.443Z</time></trkpt><trkpt lat="45.693055904541204" lon="11.489931463272102"><ele>120.0</ele><time>2026-05-02T06:23:12.443Z</time></trkpt><trkpt lat="45.693102220263654" lon="11.49024813531705"><ele>120.0</ele><time>2026-05-02T06:23:13.443Z</time></trkpt><trkpt lat="45.69316546834742" lon="11.490579991768456"><ele>119.5</ele><time>2026-05-02T06:23:14.443Z</time></trkpt><trkpt lat="45.69321837268811" lon="11.490902081028374"><ele>119.0</ele><time>2026-05-02T06:23:15.443Z</time></trkpt><trkpt lat="45.693268031809126" lon="11.49122556374567"><ele>118.0</ele><time>2026-05-02T06:23:16.443Z</time></trkpt><trkpt lat="45.69330547570871" lon="11.49156634373347"><ele>117.0</ele><time>2026-05-02T06:23:17.443Z</time></trkpt><trkpt lat="45.693374454895235" lon="11.491927458013055"><ele>116.5</ele><time>2026-05-02T06:23:18.443Z</time></trkpt><trkpt lat="45.69343853058312" lon="11.492285782746178"><ele>116.0</ele><time>2026-05-02T06:23:19.443Z</time></trkpt><trkpt lat="45.6935086550314" lon="11.492618135747659"><ele>115.66666666666666</ele><time>2026-05-02T06:23:20.443Z</time></trkpt><trkpt lat="45.69356231596289" lon="11.492932891211382"><ele>115.33333333333334</ele><time>2026-05-02T06:23:21.443Z</time></trkpt><trkpt lat="45.69360678025321" lon="11.493241828301645"><ele>115.0</ele><time>2026-05-02T06:23:22.443Z</time></trkpt><trkpt lat="45.69365977308319" lon="11.493552705340543"><ele>115.0</ele><time>2026-05-02T06:23:23.443Z</time></trkpt><trkpt lat="45.69369579464187" lon="11.493865617122603"><ele>115.0</ele><time>2026-05-02T06:23:24.443Z</time></trkpt><trkpt lat="45.69373898024801" lon="11.494145367912381"><ele>115.0</ele><time>2026-05-02T06:23:25.443Z</time></trkpt><trkpt lat="45.6937804609106" lon="11.4944192993754"><ele>115.66666666666667</ele><time>2026-05-02T06:23:26.443Z</time></trkpt><trkpt lat="45.69381928400438" lon="11.494670813161154"><ele>116.33333333333334</ele><time>2026-05-02T06:23:27.443Z</time></trkpt><trkpt lat="45.693853915751404" lon="11.494895267289534"><ele>117.0</ele><time>2026-05-02T06:23:28.443Z</time></trkpt><trkpt lat="45.69389733762459" lon="11.495086917251609"><ele>117.0</ele><time>2026-05-02T06:23:29.443Z</time></trkpt><trkpt lat="45.69390804273103" lon="11.495276656512083"><ele>117.0</ele><time>2026-05-02T06:23:30.443Z</time></trkpt><trkpt lat="45.69393838337574" lon="11.495442475645667"><ele>117.0</ele><time>2026-05-02T06:23:31.443Z</time></trkpt><trkpt lat="45.69394733225019" lon="11.495590188205577"><ele>117.0</ele><time>2026-05-02T06:23:32.443Z</time></trkpt><trkpt lat="45.69390067208961" lon="11.49572483545755"><ele>116.5</ele><time>2026-05-02T06:23:33.443Z</time></trkpt><trkpt lat="45.69386366933671" lon="11.495868720568888"><ele>116.0</ele><time>2026-05-02T06:23:34.443Z</time></trkpt><trkpt lat="45.69383369194263" lon="11.496048445606723"><ele>115.5</ele><time>2026-05-02T06:23:35.443Z</time></trkpt><trkpt lat="45.69376067850112" lon="11.496200018875365"><ele>115.0</ele><time>2026-05-02T06:23:36.443Z</time></trkpt><trkpt lat="45.6937496085032" lon="11.496379638629069"><ele>115.0</ele><time>2026-05-02T06:23:37.443Z</time></trkpt><trkpt lat="45.6938217872863" lon="11.496549567561946"><ele>115.0</ele><time>2026-05-02T06:23:38.443Z</time></trkpt><trkpt lat="45.69388450893276" lon="11.496657479499016"><ele>115.0</ele><time>2026-05-02T06:23:39.443Z</time></trkpt><trkpt lat="45.693968771753134" lon="11.49674508286658"><ele>115.0</ele><time>2026-05-02T06:23:40.443Z</time></trkpt><trkpt lat="45.694074363938924" lon="11.496822600499936"><ele>115.0</ele><time>2026-05-02T06:23:41.443Z</time></trkpt><trkpt lat="45.69414807490334" lon="11.496949332065501"><ele>115.0</ele><time>2026-05-02T06:23:42.443Z</time></trkpt><trkpt lat="45.69420429679553" lon="11.497107173765864"><ele>115.0</ele><time>2026-05-02T06:23:43.443Z</time></trkpt><trkpt lat="45.6942422591121" lon="11.497322874740796"><ele>115.0</ele><time>2026-05-02T06:23:44.443Z</time></trkpt><trkpt lat="45.69426273917884" lon="11.497554149570876"><ele>114.66666666666667</ele><time>2026-05-02T06:23:45.443Z</time></trkpt><trkpt lat="45.69430620399924" lon="11.497835405912506"><ele>114.33333333333334</ele><time>2026-05-02T06:23:46.443Z</time></trkpt><trkpt lat="45.69434892063849" lon="11.498146375785131"><ele>114.0</ele><time>2026-05-02T06:23:47.443Z</time></trkpt><trkpt lat="45.69438144565715" lon="11.498505646483343"><ele>114.5</ele><time>2026-05-02T06:23:48.443Z</time></trkpt><trkpt lat="45.694420495417965" lon="11.498869819082017"><ele>115.0</ele><time>2026-05-02T06:23:49.443Z</time></trkpt><trkpt lat="45.694435563027945" lon="11.499242932876781"><ele>114.5</ele><time>2026-05-02T06:23:50.443Z</time></trkpt><trkpt lat="45.69443632603902" lon="11.49958685652707"><ele>114.0</ele><time>2026-05-02T06:23:51.443Z</time></trkpt><trkpt lat="45.69442733346792" lon="11.49994638655674"><ele>112.5</ele><time>2026-05-02T06:23:52.443Z</time></trkpt><trkpt lat="45.69442092344656" lon="11.500380669869017"><ele>111.0</ele><time>2026-05-02T06:23:53.443Z</time></trkpt><trkpt lat="45.69438867093902" lon="11.50081034169525"><ele>111.0</ele><time>2026-05-02T06:23:54.443Z</time></trkpt><trkpt lat="45.69434935500837" lon="11.501263833633509"><ele>111.0</ele><time>2026-05-02T06:23:55.443Z</time></trkpt><trkpt lat="45.69430627669346" lon="11.501679008310347"><ele>111.0</ele><time>2026-05-02T06:23:56.443Z</time></trkpt><trkpt lat="45.69426730806658" lon="11.502073115656017"><ele>111.0</ele><time>2026-05-02T06:23:57.443Z</time></trkpt><trkpt lat="45.6942378825739" lon="11.502448179186608"><ele>111.0</ele><time>2026-05-02T06:23:58.444Z</time></trkpt><trkpt lat="45.69421234695372" lon="11.502824549235234"><ele>111.0</ele><time>2026-05-02T06:23:59.444Z</time></trkpt><trkpt lat="45.69418231873093" lon="11.50319013898948"><ele>110.0</ele><time>2026-05-02T06:24:00.444Z</time></trkpt><trkpt lat="45.694155346692035" lon="11.50352438322079"><ele>109.0</ele><time>2026-05-02T06:24:01.444Z</time></trkpt><trkpt lat="45.69412074459341" lon="11.503854658497923"><ele>109.0</ele><time>2026-05-02T06:24:02.444Z</time></trkpt><trkpt lat="45.69409071686313" lon="11.504156537239135"><ele>109.0</ele><time>2026-05-02T06:24:03.444Z</time></trkpt><trkpt lat="45.694082760468085" lon="11.504500845824975"><ele>107.5</ele><time>2026-05-02T06:24:04.444Z</time></trkpt><trkpt lat="45.69406860430552" lon="11.504837202739171"><ele>106.0</ele><time>2026-05-02T06:24:05.444Z</time></trkpt><trkpt lat="45.694047805327045" lon="11.505180914894618"><ele>106.5</ele><time>2026-05-02T06:24:06.444Z</time></trkpt><trkpt lat="45.69403050504954" lon="11.50549732335727"><ele>107.0</ele><time>2026-05-02T06:24:07.444Z</time></trkpt><trkpt lat="45.6940217486488" lon="11.505830412732584"><ele>107.0</ele><time>2026-05-02T06:24:08.444Z</time></trkpt><trkpt lat="45.69400783023628" lon="11.50615457684549"><ele>107.0</ele><time>2026-05-02T06:24:09.444Z</time></trkpt><trkpt lat="45.69398751706612" lon="11.50648544077397"><ele>107.33333333333333</ele><time>2026-05-02T06:24:10.444Z</time></trkpt><trkpt lat="45.69395989479707" lon="11.506783251353355"><ele>107.66666666666666</ele><time>2026-05-02T06:24:11.444Z</time></trkpt><trkpt lat="45.693936285888334" lon="11.507074278311023"><ele>108.0</ele><time>2026-05-02T06:24:12.444Z</time></trkpt><trkpt lat="45.69389570517473" lon="11.507360663407793"><ele>108.0</ele><time>2026-05-02T06:24:13.444Z</time></trkpt><trkpt lat="45.69388946646863" lon="11.50766952300351"><ele>108.0</ele><time>2026-05-02T06:24:14.444Z</time></trkpt><trkpt lat="45.69388522510124" lon="11.50798414807063"><ele>108.0</ele><time>2026-05-02T06:24:15.444Z</time></trkpt><trkpt lat="45.69386629755987" lon="11.508280693222124"><ele>107.5</ele><time>2026-05-02T06:24:16.444Z</time></trkpt><trkpt lat="45.693828886611925" lon="11.508587643008015"><ele>107.0</ele><time>2026-05-02T06:24:17.444Z</time></trkpt><trkpt lat="45.693804521934496" lon="11.508927398390236"><ele>107.0</ele><time>2026-05-02T06:24:18.444Z</time></trkpt><trkpt lat="45.69379400781902" lon="11.509272781847717"><ele>107.0</ele><time>2026-05-02T06:24:19.444Z</time></trkpt><trkpt lat="45.693769962611185" lon="11.509589707660394"><ele>107.0</ele><time>2026-05-02T06:24:20.444Z</time></trkpt><trkpt lat="45.69374322217811" lon="11.509891328306866"><ele>107.0</ele><time>2026-05-02T06:24:21.444Z</time></trkpt><trkpt lat="45.69372231694671" lon="11.510177925547083"><ele>107.0</ele><time>2026-05-02T06:24:22.444Z</time></trkpt><trkpt lat="45.69370021365102" lon="11.51044916415238"><ele>106.33333333333333</ele><time>2026-05-02T06:24:23.444Z</time></trkpt><trkpt lat="45.693684119670344" lon="11.510700978427483"><ele>105.66666666666666</ele><time>2026-05-02T06:24:24.444Z</time></trkpt><trkpt lat="45.693673961820416" lon="11.510951149874879"><ele>105.0</ele><time>2026-05-02T06:24:25.444Z</time></trkpt><trkpt lat="45.69364846737582" lon="11.511233538696153"><ele>104.66666666666666</ele><time>2026-05-02T06:24:26.444Z</time></trkpt><trkpt lat="45.69362975897516" lon="11.511541603571526"><ele>104.33333333333333</ele><time>2026-05-02T06:24:27.444Z</time></trkpt><trkpt lat="45.69359801551741" lon="11.51186602495442"><ele>104.0</ele><time>2026-05-02T06:24:28.444Z</time></trkpt><trkpt lat="45.6935744255104" lon="11.512210658325685"><ele>103.0</ele><time>2026-05-02T06:24:29.444Z</time></trkpt><trkpt lat="45.69354764233181" lon="11.512583123306133"><ele>102.0</ele><time>2026-05-02T06:24:30.444Z</time></trkpt><trkpt lat="45.693530532588454" lon="11.51296056433944"><ele>102.0</ele><time>2026-05-02T06:24:31.444Z</time></trkpt><trkpt lat="45.69348961203862" lon="11.513359988768899"><ele>102.0</ele><time>2026-05-02T06:24:32.444Z</time></trkpt><trkpt lat="45.693468152005835" lon="11.51375847058757"><ele>102.0</ele><time>2026-05-02T06:24:33.444Z</time></trkpt><trkpt lat="45.693428882966835" lon="11.514113518302231"><ele>102.0</ele><time>2026-05-02T06:24:34.444Z</time></trkpt><trkpt lat="45.69340076509399" lon="11.514465432328159"><ele>102.5</ele><time>2026-05-02T06:24:35.444Z</time></trkpt><trkpt lat="45.69338278491974" lon="11.514818589801932"><ele>103.0</ele><time>2026-05-02T06:24:36.444Z</time></trkpt><trkpt lat="45.69335056481528" lon="11.515151395936728"><ele>102.5</ele><time>2026-05-02T06:24:37.444Z</time></trkpt><trkpt lat="45.69332684283743" lon="11.515502417371152"><ele>102.0</ele><time>2026-05-02T06:24:38.444Z</time></trkpt><trkpt lat="45.69329739387404" lon="11.515841127540787"><ele>102.0</ele><time>2026-05-02T06:24:39.444Z</time></trkpt><trkpt lat="45.693269236276" lon="11.51620559929039"><ele>102.0</ele><time>2026-05-02T06:24:40.444Z</time></trkpt><trkpt lat="45.69324547565192" lon="11.516588838610325"><ele>102.0</ele><time>2026-05-02T06:24:41.444Z</time></trkpt><trkpt lat="45.69323268767191" lon="11.516970240798216"><ele>102.0</ele><time>2026-05-02T06:24:42.444Z</time></trkpt><trkpt lat="45.69323023009337" lon="11.517396090811902"><ele>102.0</ele><time>2026-05-02T06:24:43.444Z</time></trkpt><trkpt lat="45.693210052949674" lon="11.517771223150842"><ele>102.0</ele><time>2026-05-02T06:24:44.444Z</time></trkpt><trkpt lat="45.69320753111201" lon="11.518142757994415"><ele>101.5</ele><time>2026-05-02T06:24:45.444Z</time></trkpt><trkpt lat="45.69318098742862" lon="11.518524325649468"><ele>101.0</ele><time>2026-05-02T06:24:46.444Z</time></trkpt><trkpt lat="45.693155262808226" lon="11.518882296793935"><ele>100.5</ele><time>2026-05-02T06:24:47.444Z</time></trkpt><trkpt lat="45.693124031422485" lon="11.519269802305736"><ele>100.0</ele><time>2026-05-02T06:24:48.444Z</time></trkpt><trkpt lat="45.69309713969029" lon="11.519654779419904"><ele>100.0</ele><time>2026-05-02T06:24:49.444Z</time></trkpt><trkpt lat="45.69306478297954" lon="11.520031202189767"><ele>100.0</ele><time>2026-05-02T06:24:50.444Z</time></trkpt><trkpt lat="45.69302361583739" lon="11.520422681220682"><ele>99.5</ele><time>2026-05-02T06:24:51.444Z</time></trkpt><trkpt lat="45.692990793465825" lon="11.520785787472846"><ele>99.0</ele><time>2026-05-02T06:24:52.444Z</time></trkpt><trkpt lat="45.69295353796967" lon="11.521165689714872"><ele>98.5</ele><time>2026-05-02T06:24:53.444Z</time></trkpt><trkpt lat="45.69292746992274" lon="11.521528543767637"><ele>98.0</ele><time>2026-05-02T06:24:54.444Z</time></trkpt><trkpt lat="45.69288898356319" lon="11.52188801886946"><ele>99.0</ele><time>2026-05-02T06:24:55.444Z</time></trkpt><trkpt lat="45.69286111771976" lon="11.522239989185865"><ele>100.0</ele><time>2026-05-02T06:24:56.444Z</time></trkpt><trkpt lat="45.69282730985104" lon="11.522597275857676"><ele>100.0</ele><time>2026-05-02T06:24:57.444Z</time></trkpt><trkpt lat="45.69280682935181" lon="11.522931657228293"><ele>100.0</ele><time>2026-05-02T06:24:58.444Z</time></trkpt><trkpt lat="45.69278262752654" lon="11.523276977193664"><ele>100.0</ele><time>2026-05-02T06:24:59.444Z</time></trkpt><trkpt lat="45.69276716585407" lon="11.523617617959113"><ele>100.0</ele><time>2026-05-02T06:25:00.444Z</time></trkpt><trkpt lat="45.69272469328066" lon="11.523975510400142"><ele>101.0</ele><time>2026-05-02T06:25:01.444Z</time></trkpt><trkpt lat="45.69268396579175" lon="11.524347348912327"><ele>102.0</ele><time>2026-05-02T06:25:02.444Z</time></trkpt><trkpt lat="45.69266433822012" lon="11.524708778819775"><ele>102.5</ele><time>2026-05-02T06:25:03.444Z</time></trkpt><trkpt lat="45.69264391451697" lon="11.525058374329932"><ele>103.0</ele><time>2026-05-02T06:25:04.444Z</time></trkpt><trkpt lat="45.692630330645244" lon="11.525407986494763"><ele>103.0</ele><time>2026-05-02T06:25:05.444Z</time></trkpt><trkpt lat="45.692606559036115" lon="11.525777603016346"><ele>103.0</ele><time>2026-05-02T06:25:06.444Z</time></trkpt><trkpt lat="45.69257625876949" lon="11.526129454512342"><ele>102.5</ele><time>2026-05-02T06:25:07.444Z</time></trkpt><trkpt lat="45.692539535305265" lon="11.526508755959997"><ele>102.0</ele><time>2026-05-02T06:25:08.444Z</time></trkpt><trkpt lat="45.692519469375476" lon="11.526905972025304"><ele>103.0</ele><time>2026-05-02T06:25:09.444Z</time></trkpt><trkpt lat="45.69250250134315" lon="11.527238601470046"><ele>104.0</ele><time>2026-05-02T06:25:10.444Z</time></trkpt><trkpt lat="45.692492125399845" lon="11.527570147842784"><ele>104.0</ele><time>2026-05-02T06:25:11.444Z</time></trkpt><trkpt lat="45.69246659646164" lon="11.527913742098011"><ele>104.0</ele><time>2026-05-02T06:25:12.444Z</time></trkpt><trkpt lat="45.69245643140228" lon="11.528238718516443"><ele>104.0</ele><time>2026-05-02T06:25:13.444Z</time></trkpt><trkpt lat="45.692435658975654" lon="11.528606033991917"><ele>104.0</ele><time>2026-05-02T06:25:14.444Z</time></trkpt><trkpt lat="45.69242577722995" lon="11.528962935531789"><ele>103.5</ele><time>2026-05-02T06:25:15.444Z</time></trkpt><trkpt lat="45.69240371552883" lon="11.529325677318301"><ele>103.0</ele><time>2026-05-02T06:25:16.444Z</time></trkpt><trkpt lat="45.692401037886626" lon="11.529662397787677"><ele>103.0</ele><time>2026-05-02T06:25:17.444Z</time></trkpt><trkpt lat="45.692418701442705" lon="11.530017583313693"><ele>103.0</ele><time>2026-05-02T06:25:18.444Z</time></trkpt><trkpt lat="45.69243150025118" lon="11.530360120938777"><ele>102.5</ele><time>2026-05-02T06:25:19.444Z</time></trkpt><trkpt lat="45.69246157432832" lon="11.530699111000994"><ele>102.0</ele><time>2026-05-02T06:25:20.444Z</time></trkpt><trkpt lat="45.692499969788315" lon="11.531052544581357"><ele>102.5</ele><time>2026-05-02T06:25:21.444Z</time></trkpt><trkpt lat="45.692531790072785" lon="11.531381342065353"><ele>103.0</ele><time>2026-05-02T06:25:22.444Z</time></trkpt><trkpt lat="45.692579644752996" lon="11.531757867506771"><ele>103.0</ele><time>2026-05-02T06:25:23.444Z</time></trkpt><trkpt lat="45.69262374893063" lon="11.532094262184318"><ele>103.0</ele><time>2026-05-02T06:25:24.444Z</time></trkpt><trkpt lat="45.69266638095512" lon="11.532423990174008"><ele>103.0</ele><time>2026-05-02T06:25:25.444Z</time></trkpt><trkpt lat="45.6927012318917" lon="11.53277123684208"><ele>103.0</ele><time>2026-05-02T06:25:26.444Z</time></trkpt><trkpt lat="45.69274002786479" lon="11.533130567239722"><ele>104.0</ele><time>2026-05-02T06:25:27.444Z</time></trkpt><trkpt lat="45.692784022491374" lon="11.533502553517815"><ele>105.0</ele><time>2026-05-02T06:25:28.444Z</time></trkpt><trkpt lat="45.69281966051659" lon="11.533855926801992"><ele>105.0</ele><time>2026-05-02T06:25:29.444Z</time></trkpt><trkpt lat="45.69286193499785" lon="11.534223373970951"><ele>105.0</ele><time>2026-05-02T06:25:30.444Z</time></trkpt><trkpt lat="45.69289376320944" lon="11.53458068662087"><ele>105.5</ele><time>2026-05-02T06:25:31.444Z</time></trkpt><trkpt lat="45.69293127068484" lon="11.534923767734817"><ele>106.0</ele><time>2026-05-02T06:25:32.444Z</time></trkpt><trkpt lat="45.69297256178036" lon="11.535258749526902"><ele>104.5</ele><time>2026-05-02T06:25:33.444Z</time></trkpt><trkpt lat="45.69300382799918" lon="11.535604421172936"><ele>103.0</ele><time>2026-05-02T06:25:34.444Z</time></trkpt><trkpt lat="45.693041423148784" lon="11.53594548394114"><ele>102.5</ele><time>2026-05-02T06:25:35.444Z</time></trkpt><trkpt lat="45.69308168082002" lon="11.53627325406347"><ele>102.0</ele><time>2026-05-02T06:25:36.444Z</time></trkpt><trkpt lat="45.69311243784899" lon="11.536604058573195"><ele>102.0</ele><time>2026-05-02T06:25:37.444Z</time></trkpt><trkpt lat="45.693156576920785" lon="11.536903725421025"><ele>102.0</ele><time>2026-05-02T06:25:38.444Z</time></trkpt><trkpt lat="45.6931854117126" lon="11.537181105872733"><ele>102.0</ele><time>2026-05-02T06:25:39.444Z</time></trkpt><trkpt lat="45.693214545350926" lon="11.537443242531957"><ele>102.66666666666666</ele><time>2026-05-02T06:25:40.444Z</time></trkpt><trkpt lat="45.693236590229354" lon="11.537693315239277"><ele>103.33333333333333</ele><time>2026-05-02T06:25:41.444Z</time></trkpt><trkpt lat="45.69326604222515" lon="11.537936629646893"><ele>104.0</ele><time>2026-05-02T06:25:42.444Z</time></trkpt><trkpt lat="45.69327501775385" lon="11.538145458357558"><ele>104.0</ele><time>2026-05-02T06:25:43.444Z</time></trkpt><trkpt lat="45.69329179830514" lon="11.538327350347277"><ele>104.0</ele><time>2026-05-02T06:25:44.444Z</time></trkpt><trkpt lat="45.69330708650262" lon="11.538502691727238"><ele>104.0</ele><time>2026-05-02T06:25:45.444Z</time></trkpt><trkpt lat="45.69332132950194" lon="11.538651008887838"><ele>104.0</ele><time>2026-05-02T06:25:46.444Z</time></trkpt><trkpt lat="45.693316800231464" lon="11.538775713093832"><ele>104.0</ele><time>2026-05-02T06:25:47.444Z</time></trkpt><trkpt lat="45.693315177778736" lon="11.538893332916865"><ele>104.0</ele><time>2026-05-02T06:25:48.444Z</time></trkpt><trkpt lat="45.69327499831029" lon="11.538985196982479"><ele>104.0</ele><time>2026-05-02T06:25:49.444Z</time></trkpt><trkpt lat="45.69320787050646" lon="11.539114378171782"><ele>104.0</ele><time>2026-05-02T06:25:50.444Z</time></trkpt><trkpt lat="45.69315927035113" lon="11.53929540715622"><ele>104.0</ele><time>2026-05-02T06:25:51.444Z</time></trkpt><trkpt lat="45.693189701322844" lon="11.539467121836088"><ele>104.0</ele><time>2026-05-02T06:25:52.444Z</time></trkpt><trkpt lat="45.69326767400499" lon="11.539623821529686"><ele>104.0</ele><time>2026-05-02T06:25:53.444Z</time></trkpt><trkpt lat="45.693289953967685" lon="11.539877821688602"><ele>104.0</ele><time>2026-05-02T06:25:54.444Z</time></trkpt><trkpt lat="45.693315221130796" lon="11.540141361318513"><ele>104.0</ele><time>2026-05-02T06:25:55.444Z</time></trkpt><trkpt lat="45.69334811247558" lon="11.54046096299045"><ele>104.0</ele><time>2026-05-02T06:25:56.444Z</time></trkpt><trkpt lat="45.69343519435542" lon="11.540772057379035"><ele>104.0</ele><time>2026-05-02T06:25:57.444Z</time></trkpt><trkpt lat="45.69350657868444" lon="11.541052610969775"><ele>104.0</ele><time>2026-05-02T06:25:58.444Z</time></trkpt><trkpt lat="45.69357667403791" lon="11.541336873387634"><ele>104.33333333333333</ele><time>2026-05-02T06:25:59.444Z</time></trkpt><trkpt lat="45.69364223650226" lon="11.541632164743541"><ele>104.66666666666666</ele><time>2026-05-02T06:26:00.444Z</time></trkpt><trkpt lat="45.69368921712128" lon="11.541937866681577"><ele>105.0</ele><time>2026-05-02T06:26:01.444Z</time></trkpt><trkpt lat="45.69376526155484" lon="11.542309219524025"><ele>104.0</ele><time>2026-05-02T06:26:02.444Z</time></trkpt><trkpt lat="45.693818212992085" lon="11.542701773484595"><ele>103.0</ele><time>2026-05-02T06:26:03.444Z</time></trkpt><trkpt lat="45.693854532498754" lon="11.54310538542518"><ele>102.5</ele><time>2026-05-02T06:26:04.445Z</time></trkpt><trkpt lat="45.69389512817627" lon="11.543467142962228"><ele>102.0</ele><time>2026-05-02T06:26:05.445Z</time></trkpt><trkpt lat="45.693932470866216" lon="11.543819051053967"><ele>102.0</ele><time>2026-05-02T06:26:06.445Z</time></trkpt><trkpt lat="45.693970604873456" lon="11.544183581725243"><ele>102.0</ele><time>2026-05-02T06:26:07.445Z</time></trkpt><trkpt lat="45.694008979867135" lon="11.544540154298426"><ele>103.0</ele><time>2026-05-02T06:26:08.445Z</time></trkpt><trkpt lat="45.69405572628923" lon="11.54488929449185"><ele>104.0</ele><time>2026-05-02T06:26:09.445Z</time></trkpt><trkpt lat="45.69409679141202" lon="11.545260734122055"><ele>104.0</ele><time>2026-05-02T06:26:10.445Z</time></trkpt><trkpt lat="45.69414539700977" lon="11.545639583804494"><ele>104.0</ele><time>2026-05-02T06:26:11.445Z</time></trkpt><trkpt lat="45.69418737570197" lon="11.546032997795633"><ele>102.5</ele><time>2026-05-02T06:26:12.445Z</time></trkpt><trkpt lat="45.69422496571232" lon="11.546397318227577"><ele>101.0</ele><time>2026-05-02T06:26:13.445Z</time></trkpt><trkpt lat="45.694256041144115" lon="11.546740817849738"><ele>101.5</ele><time>2026-05-02T06:26:14.445Z</time></trkpt><trkpt lat="45.69430299936363" lon="11.547099028957058"><ele>102.0</ele><time>2026-05-02T06:26:15.445Z</time></trkpt><trkpt lat="45.694342536817636" lon="11.547442137880996"><ele>102.0</ele><time>2026-05-02T06:26:16.445Z</time></trkpt><trkpt lat="45.69437500796362" lon="11.547804091566196"><ele>102.0</ele><time>2026-05-02T06:26:17.445Z</time></trkpt><trkpt lat="45.69441021792112" lon="11.548150234820449"><ele>101.5</ele><time>2026-05-02T06:26:18.445Z</time></trkpt><trkpt lat="45.69447100088531" lon="11.54849630525441"><ele>101.0</ele><time>2026-05-02T06:26:19.445Z</time></trkpt><trkpt lat="45.69451598685803" lon="11.548833647089163"><ele>98.0</ele><time>2026-05-02T06:26:20.445Z</time></trkpt><trkpt lat="45.69456242536358" lon="11.549169220363291"><ele>95.0</ele><time>2026-05-02T06:26:21.445Z</time></trkpt><trkpt lat="45.69458420276435" lon="11.549480358641683"><ele>95.33333333333334</ele><time>2026-05-02T06:26:22.445Z</time></trkpt><trkpt lat="45.694617490254714" lon="11.54977203218737"><ele>95.66666666666667</ele><time>2026-05-02T06:26:23.445Z</time></trkpt><trkpt lat="45.694649199090684" lon="11.55005303152226"><ele>96.0</ele><time>2026-05-02T06:26:24.445Z</time></trkpt><trkpt lat="45.694678546238784" lon="11.550311328264701"><ele>97.33333333333334</ele><time>2026-05-02T06:26:25.445Z</time></trkpt><trkpt lat="45.694706538698554" lon="11.550556922721185"><ele>98.66666666666667</ele><time>2026-05-02T06:26:26.445Z</time></trkpt><trkpt lat="45.69473249181665" lon="11.550787813070627"><ele>100.0</ele><time>2026-05-02T06:26:27.445Z</time></trkpt><trkpt lat="45.694755948132155" lon="11.550998909422313"><ele>100.0</ele><time>2026-05-02T06:26:28.445Z</time></trkpt><trkpt lat="45.694775988921066" lon="11.551175310086828"><ele>100.0</ele><time>2026-05-02T06:26:29.445Z</time></trkpt><trkpt lat="45.69479424049118" lon="11.551335961925725"><ele>100.0</ele><time>2026-05-02T06:26:30.445Z</time></trkpt><trkpt lat="45.69480873332599" lon="11.551478097452726"><ele>100.0</ele><time>2026-05-02T06:26:31.445Z</time></trkpt><trkpt lat="45.69484386164931" lon="11.551577902248034"><ele>100.0</ele><time>2026-05-02T06:26:32.445Z</time></trkpt><trkpt lat="45.69476980170884" lon="11.551677408268548"><ele>100.0</ele><time>2026-05-02T06:26:33.445Z</time></trkpt><trkpt lat="45.69470089999556" lon="11.551777987314646"><ele>100.0</ele><time>2026-05-02T06:26:34.445Z</time></trkpt><trkpt lat="45.69455015270732" lon="11.551806612688212"><ele>100.0</ele><time>2026-05-02T06:26:35.445Z</time></trkpt><trkpt lat="45.69444778151785" lon="11.551935920175314"><ele>100.0</ele><time>2026-05-02T06:26:36.445Z</time></trkpt><trkpt lat="45.694379896141974" lon="11.552105562326425"><ele>100.0</ele><time>2026-05-02T06:26:37.445Z</time></trkpt><trkpt lat="45.69437512230754" lon="11.55231871409587"><ele>100.0</ele><time>2026-05-02T06:26:38.445Z</time></trkpt><trkpt lat="45.694427849339355" lon="11.552468373279293"><ele>100.0</ele><time>2026-05-02T06:26:39.445Z</time></trkpt><trkpt lat="45.694541252604125" lon="11.552559605122813"><ele>100.0</ele><time>2026-05-02T06:26:40.445Z</time></trkpt><trkpt lat="45.69463642168297" lon="11.552636504692535"><ele>100.0</ele><time>2026-05-02T06:26:41.445Z</time></trkpt><trkpt lat="45.69470918544215" lon="11.552759945413449"><ele>100.0</ele><time>2026-05-02T06:26:42.445Z</time></trkpt><trkpt lat="45.69474500801957" lon="11.55296619293276"><ele>100.0</ele><time>2026-05-02T06:26:43.445Z</time></trkpt><trkpt lat="45.69477509039362" lon="11.553197971612553"><ele>100.0</ele><time>2026-05-02T06:26:44.445Z</time></trkpt><trkpt lat="45.694833172481765" lon="11.553458131350915"><ele>100.0</ele><time>2026-05-02T06:26:45.445Z</time></trkpt><trkpt lat="45.69487163277896" lon="11.55374851358536"><ele>100.0</ele><time>2026-05-02T06:26:46.445Z</time></trkpt><trkpt lat="45.69493607112638" lon="11.554071772912874"><ele>100.0</ele><time>2026-05-02T06:26:47.445Z</time></trkpt><trkpt lat="45.69497162354119" lon="11.554418530706142"><ele>100.66666666666667</ele><time>2026-05-02T06:26:48.445Z</time></trkpt><trkpt lat="45.695002048273295" lon="11.554736533450217"><ele>101.33333333333334</ele><time>2026-05-02T06:26:49.445Z</time></trkpt><trkpt lat="45.695016278283504" lon="11.555048150862863"><ele>102.0</ele><time>2026-05-02T06:26:50.445Z</time></trkpt><trkpt lat="45.69504332384322" lon="11.555360612731318"><ele>102.0</ele><time>2026-05-02T06:26:51.445Z</time></trkpt><trkpt lat="45.69506706877834" lon="11.55569118518932"><ele>102.0</ele><time>2026-05-02T06:26:52.445Z</time></trkpt><trkpt lat="45.69509339690289" lon="11.556027695775555"><ele>101.5</ele><time>2026-05-02T06:26:53.445Z</time></trkpt><trkpt lat="45.695097764322334" lon="11.556360319231736"><ele>101.0</ele><time>2026-05-02T06:26:54.445Z</time></trkpt><trkpt lat="45.69511459822257" lon="11.556675644959427"><ele>101.0</ele><time>2026-05-02T06:26:55.445Z</time></trkpt><trkpt lat="45.695130083505525" lon="11.556965708329809"><ele>101.0</ele><time>2026-05-02T06:26:56.445Z</time></trkpt><trkpt lat="45.695145857034284" lon="11.557273362169239"><ele>101.0</ele><time>2026-05-02T06:26:57.445Z</time></trkpt><trkpt lat="45.695160476482265" lon="11.557576990516985"><ele>101.66666666666666</ele><time>2026-05-02T06:26:58.445Z</time></trkpt><trkpt lat="45.695172534651554" lon="11.557852583504992"><ele>102.33333333333334</ele><time>2026-05-02T06:26:59.445Z</time></trkpt><trkpt lat="45.695174772923124" lon="11.558155013816311"><ele>103.0</ele><time>2026-05-02T06:27:00.445Z</time></trkpt><trkpt lat="45.69515597805437" lon="11.558451051690714"><ele>102.0</ele><time>2026-05-02T06:27:01.445Z</time></trkpt><trkpt lat="45.69511532841028" lon="11.558732192078287"><ele>101.0</ele><time>2026-05-02T06:27:02.445Z</time></trkpt><trkpt lat="45.6950545677566" lon="11.559003044407502"><ele>100.0</ele><time>2026-05-02T06:27:03.445Z</time></trkpt><trkpt lat="45.69498930242682" lon="11.559253875603"><ele>100.0</ele><time>2026-05-02T06:27:04.445Z</time></trkpt><trkpt lat="45.6948810646121" lon="11.55949124333076"><ele>100.0</ele><time>2026-05-02T06:27:05.445Z</time></trkpt><trkpt lat="45.694757722591625" lon="11.55970378239203"><ele>100.0</ele><time>2026-05-02T06:27:06.445Z</time></trkpt><trkpt lat="45.69461256346681" lon="11.559904298296594"><ele>100.0</ele><time>2026-05-02T06:27:07.445Z</time></trkpt><trkpt lat="45.69445981271651" lon="11.560099039290126"><ele>100.0</ele><time>2026-05-02T06:27:08.445Z</time></trkpt><trkpt lat="45.69430909268843" lon="11.560278905210252"><ele>100.0</ele><time>2026-05-02T06:27:09.445Z</time></trkpt><trkpt lat="45.69416678764929" lon="11.560457801830825"><ele>99.33333333333334</ele><time>2026-05-02T06:27:10.445Z</time></trkpt><trkpt lat="45.69407284312928" lon="11.560634622126484"><ele>98.66666666666666</ele><time>2026-05-02T06:27:11.445Z</time></trkpt><trkpt lat="45.69399708235454" lon="11.560836533341982"><ele>98.0</ele><time>2026-05-02T06:27:12.445Z</time></trkpt><trkpt lat="45.693930282370246" lon="11.56102628044669"><ele>98.0</ele><time>2026-05-02T06:27:13.445Z</time></trkpt><trkpt lat="45.693876698650186" lon="11.561224704179415"><ele>98.0</ele><time>2026-05-02T06:27:14.445Z</time></trkpt><trkpt lat="45.693825636853234" lon="11.561431854346246"><ele>98.0</ele><time>2026-05-02T06:27:15.445Z</time></trkpt><trkpt lat="45.69377428625182" lon="11.561635038680846"><ele>98.0</ele><time>2026-05-02T06:27:16.445Z</time></trkpt><trkpt lat="45.693724487135476" lon="11.561826872776452"><ele>98.0</ele><time>2026-05-02T06:27:17.445Z</time></trkpt><trkpt lat="45.693687556217505" lon="11.561992500167388"><ele>98.0</ele><time>2026-05-02T06:27:18.445Z</time></trkpt><trkpt lat="45.69364915426827" lon="11.56215311396183"><ele>98.0</ele><time>2026-05-02T06:27:19.445Z</time></trkpt><trkpt lat="45.69362210573233" lon="11.562305713576185"><ele>98.0</ele><time>2026-05-02T06:27:20.445Z</time></trkpt><trkpt lat="45.69359607956003" lon="11.562443660921332"><ele>98.0</ele><time>2026-05-02T06:27:21.445Z</time></trkpt><trkpt lat="45.69356799839602" lon="11.562586179694813"><ele>98.0</ele><time>2026-05-02T06:27:22.445Z</time></trkpt><trkpt lat="45.693526439899955" lon="11.56272185441892"><ele>98.0</ele><time>2026-05-02T06:27:23.445Z</time></trkpt><trkpt lat="45.693493911549496" lon="11.562854169098292"><ele>98.0</ele><time>2026-05-02T06:27:24.445Z</time></trkpt><trkpt lat="45.693381888209565" lon="11.562960743235914"><ele>98.0</ele><time>2026-05-02T06:27:25.445Z</time></trkpt><trkpt lat="45.693283201606796" lon="11.563039036902355"><ele>98.0</ele><time>2026-05-02T06:27:26.445Z</time></trkpt><trkpt lat="45.69322141049604" lon="11.563160908048541"><ele>98.0</ele><time>2026-05-02T06:27:27.445Z</time></trkpt><trkpt lat="45.69321665766385" lon="11.563305850640164"><ele>98.0</ele><time>2026-05-02T06:27:28.445Z</time></trkpt><trkpt lat="45.69318519096788" lon="11.563455649391768"><ele>98.0</ele><time>2026-05-02T06:27:29.445Z</time></trkpt><trkpt lat="45.69328691552951" lon="11.563580365811768"><ele>98.0</ele><time>2026-05-02T06:27:30.445Z</time></trkpt><trkpt lat="45.69338357174268" lon="11.563708809292221"><ele>98.0</ele><time>2026-05-02T06:27:31.445Z</time></trkpt><trkpt lat="45.69348620958685" lon="11.5638964291482"><ele>98.0</ele><time>2026-05-02T06:27:32.445Z</time></trkpt><trkpt lat="45.693586053529835" lon="11.564133088687479"><ele>98.33333333333333</ele><time>2026-05-02T06:27:33.445Z</time></trkpt><trkpt lat="45.69361542922378" lon="11.56437062820165"><ele>98.66666666666666</ele><time>2026-05-02T06:27:34.445Z</time></trkpt><trkpt lat="45.69368513474887" lon="11.564605774146148"><ele>99.0</ele><time>2026-05-02T06:27:35.445Z</time></trkpt><trkpt lat="45.69374663448715" lon="11.564879964132933"><ele>99.0</ele><time>2026-05-02T06:27:36.445Z</time></trkpt><trkpt lat="45.69377724962202" lon="11.565193224725498"><ele>99.0</ele><time>2026-05-02T06:27:37.445Z</time></trkpt><trkpt lat="45.693794025485246" lon="11.5654981644244"><ele>99.0</ele><time>2026-05-02T06:27:38.445Z</time></trkpt><trkpt lat="45.69382379193519" lon="11.565791237071037"><ele>99.0</ele><time>2026-05-02T06:27:39.445Z</time></trkpt><trkpt lat="45.69383010482398" lon="11.566096968348802"><ele>99.0</ele><time>2026-05-02T06:27:40.445Z</time></trkpt><trkpt lat="45.693836005191095" lon="11.56641265359774"><ele>99.0</ele><time>2026-05-02T06:27:41.445Z</time></trkpt><trkpt lat="45.69384247926064" lon="11.566732629394576"><ele>98.0</ele><time>2026-05-02T06:27:42.445Z</time></trkpt><trkpt lat="45.69384736545933" lon="11.567027851028822"><ele>97.0</ele><time>2026-05-02T06:27:43.445Z</time></trkpt><trkpt lat="45.69385670265289" lon="11.567298931337573"><ele>96.0</ele><time>2026-05-02T06:27:44.445Z</time></trkpt><trkpt lat="45.69387487252648" lon="11.567580456292745"><ele>96.0</ele><time>2026-05-02T06:27:45.445Z</time></trkpt><trkpt lat="45.693893342628996" lon="11.567849108703278"><ele>96.0</ele><time>2026-05-02T06:27:46.445Z</time></trkpt><trkpt lat="45.69395800512918" lon="11.568097139714846"><ele>96.0</ele><time>2026-05-02T06:27:47.445Z</time></trkpt><trkpt lat="45.694045559310844" lon="11.568326026129466"><ele>95.66666666666667</ele><time>2026-05-02T06:27:48.445Z</time></trkpt><trkpt lat="45.69416390448197" lon="11.568527797869674"><ele>95.33333333333334</ele><time>2026-05-02T06:27:49.445Z</time></trkpt><trkpt lat="45.6943123042169" lon="11.56869880662026"><ele>95.0</ele><time>2026-05-02T06:27:50.445Z</time></trkpt><trkpt lat="45.694483302062324" lon="11.568853283797717"><ele>95.0</ele><time>2026-05-02T06:27:51.445Z</time></trkpt><trkpt lat="45.69468201056027" lon="11.568977281510872"><ele>95.0</ele><time>2026-05-02T06:27:52.445Z</time></trkpt><trkpt lat="45.69488009950664" lon="11.569119201777848"><ele>95.0</ele><time>2026-05-02T06:27:53.445Z</time></trkpt><trkpt lat="45.6950567216866" lon="11.569244320416695"><ele>95.0</ele><time>2026-05-02T06:27:54.445Z</time></trkpt><trkpt lat="45.69521828020832" lon="11.569412340783401"><ele>95.0</ele><time>2026-05-02T06:27:55.445Z</time></trkpt><trkpt lat="45.69534555953165" lon="11.56961128710036"><ele>95.0</ele><time>2026-05-02T06:27:56.445Z</time></trkpt><trkpt lat="45.695448865751366" lon="11.569842170173434"><ele>95.0</ele><time>2026-05-02T06:27:57.445Z</time></trkpt><trkpt lat="45.69552393055057" lon="11.57007710103186"><ele>95.0</ele><time>2026-05-02T06:27:58.445Z</time></trkpt><trkpt lat="45.69557140580068" lon="11.570361069848394"><ele>95.0</ele><time>2026-05-02T06:27:59.445Z</time></trkpt><trkpt lat="45.69560437777131" lon="11.570680953504874"><ele>95.0</ele><time>2026-05-02T06:28:00.445Z</time></trkpt><trkpt lat="45.695631357546894" lon="11.570997395688405"><ele>95.0</ele><time>2026-05-02T06:28:01.445Z</time></trkpt><trkpt lat="45.69566211040274" lon="11.571358092014016"><ele>95.0</ele><time>2026-05-02T06:28:02.445Z</time></trkpt><trkpt lat="45.695693760062305" lon="11.571724714142437"><ele>95.0</ele><time>2026-05-02T06:28:03.445Z</time></trkpt><trkpt lat="45.69573058099733" lon="11.57213147179183"><ele>95.0</ele><time>2026-05-02T06:28:04.445Z</time></trkpt><trkpt lat="45.695769523257965" lon="11.57253914988591"><ele>95.0</ele><time>2026-05-02T06:28:05.445Z</time></trkpt><trkpt lat="45.695817108507526" lon="11.572935819450244"><ele>94.5</ele><time>2026-05-02T06:28:06.445Z</time></trkpt><trkpt lat="45.69586446394698" lon="11.573327694906036"><ele>94.0</ele><time>2026-05-02T06:28:07.445Z</time></trkpt><trkpt lat="45.695916279932554" lon="11.573728523418444"><ele>93.5</ele><time>2026-05-02T06:28:08.445Z</time></trkpt><trkpt lat="45.69596891843413" lon="11.574151625959"><ele>93.0</ele><time>2026-05-02T06:28:09.445Z</time></trkpt><trkpt lat="45.696027931683794" lon="11.57457145019486"><ele>93.0</ele><time>2026-05-02T06:28:10.446Z</time></trkpt><trkpt lat="45.69608304730201" lon="11.574937296691026"><ele>93.0</ele><time>2026-05-02T06:28:11.446Z</time></trkpt><trkpt lat="45.696139699458435" lon="11.575290225268878"><ele>93.5</ele><time>2026-05-02T06:28:12.446Z</time></trkpt><trkpt lat="45.69619471479915" lon="11.57563295807816"><ele>94.0</ele><time>2026-05-02T06:28:13.446Z</time></trkpt><trkpt lat="45.6962453471055" lon="11.57594838532862"><ele>93.66666666666666</ele><time>2026-05-02T06:28:14.446Z</time></trkpt><trkpt lat="45.69629225871162" lon="11.57624063355781"><ele>93.33333333333333</ele><time>2026-05-02T06:28:15.446Z</time></trkpt><trkpt lat="45.696339938195514" lon="11.576537665180467"><ele>93.0</ele><time>2026-05-02T06:28:16.446Z</time></trkpt><trkpt lat="45.696382942259554" lon="11.576805030898575"><ele>92.33333333333333</ele><time>2026-05-02T06:28:17.446Z</time></trkpt><trkpt lat="45.69642081216892" lon="11.577039767373302"><ele>91.66666666666666</ele><time>2026-05-02T06:28:18.446Z</time></trkpt><trkpt lat="45.69645566033971" lon="11.577255774609123"><ele>91.0</ele><time>2026-05-02T06:28:19.446Z</time></trkpt><trkpt lat="45.69648833506866" lon="11.577464708656525"><ele>91.0</ele><time>2026-05-02T06:28:20.446Z</time></trkpt><trkpt lat="45.696514858583846" lon="11.577625845805592"><ele>91.0</ele><time>2026-05-02T06:28:21.446Z</time></trkpt><trkpt lat="45.69654740140934" lon="11.577781279429782"><ele>91.0</ele><time>2026-05-02T06:28:22.446Z</time></trkpt><trkpt lat="45.696686846027596" lon="11.577854734360116"><ele>91.0</ele><time>2026-05-02T06:28:23.446Z</time></trkpt><trkpt lat="45.696763268255125" lon="11.577949181000196"><ele>91.19999999999999</ele><time>2026-05-02T06:28:24.446Z</time></trkpt><trkpt lat="45.69683947322229" lon="11.578034802356102"><ele>91.39999999999999</ele><time>2026-05-02T06:28:25.446Z</time></trkpt><trkpt lat="45.69690087248449" lon="11.578115696080781"><ele>91.6</ele><time>2026-05-02T06:28:26.446Z</time></trkpt><trkpt lat="45.69693767027846" lon="11.578309069970917"><ele>91.8</ele><time>2026-05-02T06:28:27.446Z</time></trkpt><trkpt lat="45.69697639253868" lon="11.578470822168955"><ele>92.0</ele><time>2026-05-02T06:28:28.446Z</time></trkpt><trkpt lat="45.69703749810868" lon="11.578590625024285"><ele>92.39999999999999</ele><time>2026-05-02T06:28:29.446Z</time></trkpt><trkpt lat="45.697124520179784" lon="11.57867031407232"><ele>92.8</ele><time>2026-05-02T06:28:30.446Z</time></trkpt><trkpt lat="45.6972038092276" lon="11.57877338535753"><ele>93.2</ele><time>2026-05-02T06:28:31.446Z</time></trkpt><trkpt lat="45.69727616879249" lon="11.578856577100352"><ele>93.6</ele><time>2026-05-02T06:28:32.446Z</time></trkpt><trkpt lat="45.69741292767787" lon="11.57890837203435"><ele>94.0</ele><time>2026-05-02T06:28:33.446Z</time></trkpt><trkpt lat="45.69747080540779" lon="11.579111928624256"><ele>94.33333333333333</ele><time>2026-05-02T06:28:34.446Z</time></trkpt><trkpt lat="45.69752390759759" lon="11.579380820158208"><ele>94.66666666666667</ele><time>2026-05-02T06:28:35.446Z</time></trkpt><trkpt lat="45.697581973708736" lon="11.579673100907511"><ele>95.0</ele><time>2026-05-02T06:28:36.446Z</time></trkpt><trkpt lat="45.69766362987807" lon="11.57992885295272"><ele>94.5</ele><time>2026-05-02T06:28:37.446Z</time></trkpt><trkpt lat="45.69777667790589" lon="11.580181803929621"><ele>94.0</ele><time>2026-05-02T06:28:38.446Z</time></trkpt><trkpt lat="45.69790786023929" lon="11.580493248702432"><ele>94.0</ele><time>2026-05-02T06:28:39.446Z</time></trkpt><trkpt lat="45.698015935694755" lon="11.580828018981878"><ele>94.0</ele><time>2026-05-02T06:28:40.446Z</time></trkpt><trkpt lat="45.69808214293592" lon="11.58117438818044"><ele>93.66666666666666</ele><time>2026-05-02T06:28:41.446Z</time></trkpt><trkpt lat="45.69815357531603" lon="11.581485287471283"><ele>93.33333333333333</ele><time>2026-05-02T06:28:42.446Z</time></trkpt><trkpt lat="45.69823185609284" lon="11.5817532690676"><ele>93.0</ele><time>2026-05-02T06:28:43.446Z</time></trkpt><trkpt lat="45.69831645329922" lon="11.582037347674767"><ele>92.5</ele><time>2026-05-02T06:28:44.446Z</time></trkpt><trkpt lat="45.69839710869677" lon="11.5823496838712"><ele>92.0</ele><time>2026-05-02T06:28:45.446Z</time></trkpt><trkpt lat="45.698483903008714" lon="11.582700416541666"><ele>91.5</ele><time>2026-05-02T06:28:46.446Z</time></trkpt><trkpt lat="45.69858080038141" lon="11.583073838604475"><ele>91.0</ele><time>2026-05-02T06:28:47.446Z</time></trkpt><trkpt lat="45.698678929792834" lon="11.5834583767615"><ele>91.0</ele><time>2026-05-02T06:28:48.446Z</time></trkpt><trkpt lat="45.698776198987154" lon="11.583867586181471"><ele>91.0</ele><time>2026-05-02T06:28:49.446Z</time></trkpt><trkpt lat="45.69887730981815" lon="11.58421630977437"><ele>90.5</ele><time>2026-05-02T06:28:50.446Z</time></trkpt><trkpt lat="45.69896946305714" lon="11.584577368489198"><ele>90.0</ele><time>2026-05-02T06:28:51.446Z</time></trkpt><trkpt lat="45.69906471354221" lon="11.584942392656457"><ele>90.0</ele><time>2026-05-02T06:28:52.446Z</time></trkpt><trkpt lat="45.69916743297473" lon="11.585314189309084"><ele>90.0</ele><time>2026-05-02T06:28:53.446Z</time></trkpt><trkpt lat="45.69928425757879" lon="11.585697685472828"><ele>90.0</ele><time>2026-05-02T06:28:54.446Z</time></trkpt><trkpt lat="45.699385258928686" lon="11.586045903572778"><ele>90.0</ele><time>2026-05-02T06:28:55.446Z</time></trkpt><trkpt lat="45.69946643263451" lon="11.586385269342356"><ele>90.0</ele><time>2026-05-02T06:28:56.446Z</time></trkpt><trkpt lat="45.699548129161776" lon="11.586735748355961"><ele>90.0</ele><time>2026-05-02T06:28:57.446Z</time></trkpt><trkpt lat="45.69964892616556" lon="11.587060122112558"><ele>89.5</ele><time>2026-05-02T06:28:58.446Z</time></trkpt><trkpt lat="45.699735043711854" lon="11.587411237674385"><ele>89.0</ele><time>2026-05-02T06:28:59.446Z</time></trkpt><trkpt lat="45.69981492317722" lon="11.587767050667432"><ele>88.5</ele><time>2026-05-02T06:29:00.446Z</time></trkpt><trkpt lat="45.69992748334654" lon="11.588113490564474"><ele>88.0</ele><time>2026-05-02T06:29:01.446Z</time></trkpt><trkpt lat="45.70003357712571" lon="11.588475961991602"><ele>88.0</ele><time>2026-05-02T06:29:02.446Z</time></trkpt><trkpt lat="45.700122962673056" lon="11.588824912873731"><ele>88.0</ele><time>2026-05-02T06:29:03.446Z</time></trkpt><trkpt lat="45.70022583486085" lon="11.589164993798978"><ele>87.5</ele><time>2026-05-02T06:29:04.446Z</time></trkpt><trkpt lat="45.700328434129" lon="11.589485913521726"><ele>87.0</ele><time>2026-05-02T06:29:05.446Z</time></trkpt><trkpt lat="45.70041689804866" lon="11.589815332086742"><ele>85.5</ele><time>2026-05-02T06:29:06.446Z</time></trkpt><trkpt lat="45.70050442475846" lon="11.59015293805232"><ele>84.0</ele><time>2026-05-02T06:29:07.446Z</time></trkpt><trkpt lat="45.70063793210108" lon="11.590497454227897"><ele>84.0</ele><time>2026-05-02T06:29:08.446Z</time></trkpt><trkpt lat="45.70076422795442" lon="11.590827375756804"><ele>84.0</ele><time>2026-05-02T06:29:09.446Z</time></trkpt><trkpt lat="45.70086636118625" lon="11.591166374067047"><ele>84.0</ele><time>2026-05-02T06:29:10.446Z</time></trkpt><trkpt lat="45.700967153482395" lon="11.591496296337766"><ele>84.0</ele><time>2026-05-02T06:29:11.446Z</time></trkpt><trkpt lat="45.70106455837424" lon="11.59183818712456"><ele>83.5</ele><time>2026-05-02T06:29:12.446Z</time></trkpt><trkpt lat="45.70117992855587" lon="11.592171853262569"><ele>83.0</ele><time>2026-05-02T06:29:13.446Z</time></trkpt><trkpt lat="45.7012812580483" lon="11.59251814903472"><ele>82.5</ele><time>2026-05-02T06:29:14.446Z</time></trkpt><trkpt lat="45.70136448854538" lon="11.592893206854148"><ele>82.0</ele><time>2026-05-02T06:29:15.446Z</time></trkpt><trkpt lat="45.70146349382083" lon="11.59324406476486"><ele>82.0</ele><time>2026-05-02T06:29:16.446Z</time></trkpt><trkpt lat="45.701558079319135" lon="11.593579985143561"><ele>82.0</ele><time>2026-05-02T06:29:17.446Z</time></trkpt><trkpt lat="45.70166441973666" lon="11.593923501084356"><ele>82.0</ele><time>2026-05-02T06:29:18.446Z</time></trkpt><trkpt lat="45.70177205755448" lon="11.59426820687344"><ele>82.0</ele><time>2026-05-02T06:29:19.446Z</time></trkpt><trkpt lat="45.701874278145745" lon="11.594615649354516"><ele>82.0</ele><time>2026-05-02T06:29:20.446Z</time></trkpt><trkpt lat="45.70198693943661" lon="11.594972195689254"><ele>82.0</ele><time>2026-05-02T06:29:21.446Z</time></trkpt><trkpt lat="45.702098125447534" lon="11.595344166736462"><ele>81.5</ele><time>2026-05-02T06:29:22.446Z</time></trkpt><trkpt lat="45.70220921167939" lon="11.595676688899077"><ele>81.0</ele><time>2026-05-02T06:29:23.446Z</time></trkpt><trkpt lat="45.70231177863578" lon="11.595994108733816"><ele>81.0</ele><time>2026-05-02T06:29:24.446Z</time></trkpt><trkpt lat="45.70240935387972" lon="11.59628167688281"><ele>81.0</ele><time>2026-05-02T06:29:25.446Z</time></trkpt><trkpt lat="45.702518961523076" lon="11.59657276259114"><ele>81.0</ele><time>2026-05-02T06:29:26.446Z</time></trkpt><trkpt lat="45.702610642603204" lon="11.596887535321763"><ele>81.0</ele><time>2026-05-02T06:29:27.446Z</time></trkpt><trkpt lat="45.70267684602114" lon="11.597194758990105"><ele>80.0</ele><time>2026-05-02T06:29:28.446Z</time></trkpt><trkpt lat="45.70275447984668" lon="11.597506885085156"><ele>79.0</ele><time>2026-05-02T06:29:29.446Z</time></trkpt><trkpt lat="45.70285321102054" lon="11.597794947124452"><ele>78.5</ele><time>2026-05-02T06:29:30.446Z</time></trkpt><trkpt lat="45.70291941401666" lon="11.598121662667975"><ele>78.0</ele><time>2026-05-02T06:29:31.446Z</time></trkpt><trkpt lat="45.703000417027155" lon="11.598440970479132"><ele>77.5</ele><time>2026-05-02T06:29:32.446Z</time></trkpt><trkpt lat="45.7030887830932" lon="11.598764823860598"><ele>77.0</ele><time>2026-05-02T06:29:33.446Z</time></trkpt><trkpt lat="45.703184829552356" lon="11.599074460572892"><ele>77.0</ele><time>2026-05-02T06:29:34.446Z</time></trkpt><trkpt lat="45.70327087562147" lon="11.599367408846707"><ele>77.0</ele><time>2026-05-02T06:29:35.446Z</time></trkpt><trkpt lat="45.703354159571916" lon="11.599623161281519"><ele>77.0</ele><time>2026-05-02T06:29:36.446Z</time></trkpt><trkpt lat="45.7034329801748" lon="11.599877559177736"><ele>77.0</ele><time>2026-05-02T06:29:37.446Z</time></trkpt><trkpt lat="45.703509390572" lon="11.600133252563696"><ele>77.0</ele><time>2026-05-02T06:29:38.446Z</time></trkpt><trkpt lat="45.70359415069084" lon="11.600334291275033"><ele>77.0</ele><time>2026-05-02T06:29:39.446Z</time></trkpt><trkpt lat="45.70368783836042" lon="11.600520956557439"><ele>77.0</ele><time>2026-05-02T06:29:40.446Z</time></trkpt><trkpt lat="45.70379012611424" lon="11.600707520772128"><ele>77.0</ele><time>2026-05-02T06:29:41.446Z</time></trkpt><trkpt lat="45.7039169424557" lon="11.600874174379934"><ele>77.0</ele><time>2026-05-02T06:29:42.446Z</time></trkpt><trkpt lat="45.70403527104632" lon="11.601008665004551"><ele>77.0</ele><time>2026-05-02T06:29:43.446Z</time></trkpt><trkpt lat="45.704135508865384" lon="11.601133802022197"><ele>77.0</ele><time>2026-05-02T06:29:44.446Z</time></trkpt><trkpt lat="45.70422509724066" lon="11.601246600870676"><ele>77.0</ele><time>2026-05-02T06:29:45.446Z</time></trkpt><trkpt lat="45.704263444532764" lon="11.601390038613669"><ele>77.0</ele><time>2026-05-02T06:29:46.446Z</time></trkpt><trkpt lat="45.7042681805518" lon="11.60152257653347"><ele>77.0</ele><time>2026-05-02T06:29:47.446Z</time></trkpt><trkpt lat="45.70425903356672" lon="11.601660203715118"><ele>77.0</ele><time>2026-05-02T06:29:48.446Z</time></trkpt><trkpt lat="45.70426068981417" lon="11.601816570145216"><ele>77.0</ele><time>2026-05-02T06:29:49.446Z</time></trkpt><trkpt lat="45.70435722457018" lon="11.601989627871252"><ele>77.0</ele><time>2026-05-02T06:29:50.446Z</time></trkpt><trkpt lat="45.704474246538105" lon="11.602085880972993"><ele>77.0</ele><time>2026-05-02T06:29:51.446Z</time></trkpt><trkpt lat="45.70459553308843" lon="11.60223473009882"><ele>77.0</ele><time>2026-05-02T06:29:52.446Z</time></trkpt><trkpt lat="45.70462157425838" lon="11.602510929044056"><ele>77.0</ele><time>2026-05-02T06:29:53.446Z</time></trkpt><trkpt lat="45.704709649278406" lon="11.60277302584792"><ele>77.33333333333334</ele><time>2026-05-02T06:29:54.446Z</time></trkpt><trkpt lat="45.704804094073275" lon="11.60305436223108"><ele>77.66666666666667</ele><time>2026-05-02T06:29:55.446Z</time></trkpt><trkpt lat="45.704884164226506" lon="11.603295375139616"><ele>78.0</ele><time>2026-05-02T06:29:56.446Z</time></trkpt><trkpt lat="45.70496588203515" lon="11.603541347529902"><ele>78.0</ele><time>2026-05-02T06:29:57.446Z</time></trkpt><trkpt lat="45.70503869099453" lon="11.603761383983674"><ele>78.0</ele><time>2026-05-02T06:29:58.446Z</time></trkpt><trkpt lat="45.70512025607383" lon="11.604012228657469"><ele>78.0</ele><time>2026-05-02T06:29:59.446Z</time></trkpt><trkpt lat="45.70520646454935" lon="11.604289039079765"><ele>77.5</ele><time>2026-05-02T06:30:00.446Z</time></trkpt><trkpt lat="45.70529077607041" lon="11.604595187557527"><ele>77.0</ele><time>2026-05-02T06:30:01.446Z</time></trkpt><trkpt lat="45.70538058622692" lon="11.604923803644462"><ele>77.0</ele><time>2026-05-02T06:30:02.446Z</time></trkpt><trkpt lat="45.705478388141216" lon="11.605292588797676"><ele>77.0</ele><time>2026-05-02T06:30:03.446Z</time></trkpt><trkpt lat="45.7055598559735" lon="11.60563500893092"><ele>77.0</ele><time>2026-05-02T06:30:04.446Z</time></trkpt><trkpt lat="45.70563680697689" lon="11.605939456136987"><ele>77.0</ele><time>2026-05-02T06:30:05.446Z</time></trkpt><trkpt lat="45.70572176854447" lon="11.606228850407135"><ele>77.0</ele><time>2026-05-02T06:30:06.446Z</time></trkpt><trkpt lat="45.70581776543609" lon="11.606536279825214"><ele>77.0</ele><time>2026-05-02T06:30:07.446Z</time></trkpt><trkpt lat="45.705923904940214" lon="11.606869159758645"><ele>77.0</ele><time>2026-05-02T06:30:08.446Z</time></trkpt><trkpt lat="45.706040099492206" lon="11.607209249167786"><ele>79.0</ele><time>2026-05-02T06:30:09.446Z</time></trkpt><trkpt lat="45.70614388552914" lon="11.607512198859618"><ele>81.0</ele><time>2026-05-02T06:30:10.446Z</time></trkpt><trkpt lat="45.70622901284968" lon="11.607819212391489"><ele>81.0</ele><time>2026-05-02T06:30:11.446Z</time></trkpt><trkpt lat="45.70632184443498" lon="11.608108820063647"><ele>81.0</ele><time>2026-05-02T06:30:12.446Z</time></trkpt><trkpt lat="45.7064327370974" lon="11.608398621940461"><ele>80.0</ele><time>2026-05-02T06:30:13.446Z</time></trkpt><trkpt lat="45.706554177436374" lon="11.608679199932528"><ele>79.0</ele><time>2026-05-02T06:30:14.446Z</time></trkpt><trkpt lat="45.70668857614462" lon="11.6089213815616"><ele>78.0</ele><time>2026-05-02T06:30:15.446Z</time></trkpt><trkpt lat="45.706814054851556" lon="11.609166682659836"><ele>77.66666666666667</ele><time>2026-05-02T06:30:16.447Z</time></trkpt><trkpt lat="45.706941355114466" lon="11.609412442247521"><ele>77.33333333333334</ele><time>2026-05-02T06:30:17.447Z</time></trkpt><trkpt lat="45.70706845713206" lon="11.609675892212168"><ele>77.0</ele><time>2026-05-02T06:30:18.447Z</time></trkpt><trkpt lat="45.70715570612683" lon="11.609962590918444"><ele>76.66666666666667</ele><time>2026-05-02T06:30:19.447Z</time></trkpt><trkpt lat="45.70722346654636" lon="11.610237385559676"><ele>76.33333333333333</ele><time>2026-05-02T06:30:20.447Z</time></trkpt><trkpt lat="45.70726217180163" lon="11.610538769442037"><ele>76.0</ele><time>2026-05-02T06:30:21.447Z</time></trkpt><trkpt lat="45.70728073887407" lon="11.61081784191683"><ele>76.0</ele><time>2026-05-02T06:30:22.447Z</time></trkpt><trkpt lat="45.70728729247987" lon="11.611082158512763"><ele>76.0</ele><time>2026-05-02T06:30:23.447Z</time></trkpt><trkpt lat="45.707288105826066" lon="11.611317727363064"><ele>76.0</ele><time>2026-05-02T06:30:24.447Z</time></trkpt><trkpt lat="45.70726354083656" lon="11.611551014831463"><ele>76.0</ele><time>2026-05-02T06:30:25.447Z</time></trkpt><trkpt lat="45.70722852140493" lon="11.611796956733544"><ele>76.0</ele><time>2026-05-02T06:30:26.447Z</time></trkpt><trkpt lat="45.707178497047515" lon="11.612035640687683"><ele>76.0</ele><time>2026-05-02T06:30:27.447Z</time></trkpt><trkpt lat="45.70712417003092" lon="11.612268757478326"><ele>76.25</ele><time>2026-05-02T06:30:28.457Z</time></trkpt><trkpt lat="45.70706360396757" lon="11.612478601436386"><ele>76.5</ele><time>2026-05-02T06:30:29.463Z</time></trkpt><trkpt lat="45.707007876445964" lon="11.6126612384325"><ele>76.75</ele><time>2026-05-02T06:30:30.447Z</time></trkpt><trkpt lat="45.706962784945055" lon="11.612827318732148"><ele>77.0</ele><time>2026-05-02T06:30:31.447Z</time></trkpt><trkpt lat="45.70689758686701" lon="11.612997646109225"><ele>76.2</ele><time>2026-05-02T06:30:32.447Z</time></trkpt><trkpt lat="45.70682787679375" lon="11.61311469597709"><ele>75.4</ele><time>2026-05-02T06:30:33.447Z</time></trkpt><trkpt lat="45.706739291158534" lon="11.613225403129288"><ele>74.6</ele><time>2026-05-02T06:30:34.447Z</time></trkpt><trkpt lat="45.70667929577086" lon="11.613350560886206"><ele>73.8</ele><time>2026-05-02T06:30:35.447Z</time></trkpt><trkpt lat="45.70667794557104" lon="11.613516536960402"><ele>73.0</ele><time>2026-05-02T06:30:36.447Z</time></trkpt><trkpt lat="45.7067165462829" lon="11.61365438789982"><ele>73.5</ele><time>2026-05-02T06:30:37.447Z</time></trkpt><trkpt lat="45.70681396942968" lon="11.613736627827944"><ele>74.0</ele><time>2026-05-02T06:30:38.447Z</time></trkpt><trkpt lat="45.70693815745336" lon="11.61381267303934"><ele>74.5</ele><time>2026-05-02T06:30:39.447Z</time></trkpt><trkpt lat="45.70710548803488" lon="11.613900230375389"><ele>75.0</ele><time>2026-05-02T06:30:40.447Z</time></trkpt><trkpt lat="45.707230294124884" lon="11.614073502666301"><ele>76.0</ele><time>2026-05-02T06:30:41.447Z</time></trkpt><trkpt lat="45.70735437031976" lon="11.614302200575853"><ele>77.0</ele><time>2026-05-02T06:30:42.447Z</time></trkpt><trkpt lat="45.70748934958568" lon="11.614557067242743"><ele>78.0</ele><time>2026-05-02T06:30:43.447Z</time></trkpt><trkpt lat="45.70759599361193" lon="11.614834151003643"><ele>78.0</ele><time>2026-05-02T06:30:44.447Z</time></trkpt><trkpt lat="45.70767533033707" lon="11.615092222347705"><ele>78.0</ele><time>2026-05-02T06:30:45.447Z</time></trkpt><trkpt lat="45.70774437890603" lon="11.61535697180407"><ele>78.0</ele><time>2026-05-02T06:30:46.447Z</time></trkpt><trkpt lat="45.70780365198081" lon="11.615631501970281"><ele>78.0</ele><time>2026-05-02T06:30:47.447Z</time></trkpt><trkpt lat="45.7078599455059" lon="11.61593328818856"><ele>78.0</ele><time>2026-05-02T06:30:48.447Z</time></trkpt><trkpt lat="45.70793735723441" lon="11.616225895115779"><ele>78.0</ele><time>2026-05-02T06:30:49.447Z</time></trkpt><trkpt lat="45.70801387547714" lon="11.616559508543926"><ele>77.0</ele><time>2026-05-02T06:30:50.447Z</time></trkpt><trkpt lat="45.70808989414315" lon="11.616924407696656"><ele>76.0</ele><time>2026-05-02T06:30:51.447Z</time></trkpt><trkpt lat="45.7081600834145" lon="11.617277250279066"><ele>76.0</ele><time>2026-05-02T06:30:52.447Z</time></trkpt><trkpt lat="45.708234084879535" lon="11.61760358827218"><ele>76.0</ele><time>2026-05-02T06:30:53.447Z</time></trkpt><trkpt lat="45.708311296377005" lon="11.617930388051825"><ele>76.5</ele><time>2026-05-02T06:30:54.447Z</time></trkpt><trkpt lat="45.70837141470814" lon="11.618297841567138"><ele>77.0</ele><time>2026-05-02T06:30:55.447Z</time></trkpt><trkpt lat="45.708443596726575" lon="11.618663928260242"><ele>77.0</ele><time>2026-05-02T06:30:56.447Z</time></trkpt><trkpt lat="45.70850907212245" lon="11.619010173840094"><ele>77.0</ele><time>2026-05-02T06:30:57.447Z</time></trkpt><trkpt lat="45.70861568823098" lon="11.619355862756635"><ele>77.5</ele><time>2026-05-02T06:30:58.447Z</time></trkpt><trkpt lat="45.708689489851416" lon="11.619696300067407"><ele>78.0</ele><time>2026-05-02T06:30:59.447Z</time></trkpt><trkpt lat="45.70875330635984" lon="11.620040736257284"><ele>78.5</ele><time>2026-05-02T06:31:00.447Z</time></trkpt><trkpt lat="45.70880287049223" lon="11.620376929780914"><ele>79.0</ele><time>2026-05-02T06:31:01.447Z</time></trkpt><trkpt lat="45.70880636774865" lon="11.62073551710152"><ele>79.0</ele><time>2026-05-02T06:31:02.447Z</time></trkpt><trkpt lat="45.70885686386299" lon="11.621069749301647"><ele>79.0</ele><time>2026-05-02T06:31:03.447Z</time></trkpt><trkpt lat="45.708912431278975" lon="11.621438305584794"><ele>78.5</ele><time>2026-05-02T06:31:04.447Z</time></trkpt><trkpt lat="45.70895989618948" lon="11.621770817290995"><ele>78.0</ele><time>2026-05-02T06:31:05.447Z</time></trkpt><trkpt lat="45.70900694360881" lon="11.62209521202205"><ele>78.0</ele><time>2026-05-02T06:31:06.447Z</time></trkpt><trkpt lat="45.70905983168285" lon="11.622448859418625"><ele>78.0</ele><time>2026-05-02T06:31:07.447Z</time></trkpt><trkpt lat="45.70910001714336" lon="11.622792705560803"><ele>78.5</ele><time>2026-05-02T06:31:08.447Z</time></trkpt><trkpt lat="45.70914346869178" lon="11.623128249091558"><ele>79.0</ele><time>2026-05-02T06:31:09.447Z</time></trkpt><trkpt lat="45.709181060926596" lon="11.62347306957322"><ele>78.5</ele><time>2026-05-02T06:31:10.447Z</time></trkpt><trkpt lat="45.709231828855174" lon="11.623807678015908"><ele>78.0</ele><time>2026-05-02T06:31:11.447Z</time></trkpt><trkpt lat="45.709287892829536" lon="11.624128114294951"><ele>78.0</ele><time>2026-05-02T06:31:12.447Z</time></trkpt><trkpt lat="45.70934506210768" lon="11.624448909739614"><ele>78.0</ele><time>2026-05-02T06:31:13.447Z</time></trkpt><trkpt lat="45.70939325034168" lon="11.624736749475025"><ele>78.0</ele><time>2026-05-02T06:31:14.447Z</time></trkpt><trkpt lat="45.709447310196786" lon="11.625020443700523"><ele>78.0</ele><time>2026-05-02T06:31:15.447Z</time></trkpt><trkpt lat="45.70950266667415" lon="11.625316857625203"><ele>78.0</ele><time>2026-05-02T06:31:16.447Z</time></trkpt><trkpt lat="45.709555257307315" lon="11.625609094299552"><ele>78.0</ele><time>2026-05-02T06:31:17.447Z</time></trkpt><trkpt lat="45.709619134218485" lon="11.625893118666372"><ele>78.0</ele><time>2026-05-02T06:31:18.447Z</time></trkpt><trkpt lat="45.70966370815362" lon="11.626196752133726"><ele>78.0</ele><time>2026-05-02T06:31:19.447Z</time></trkpt><trkpt lat="45.709724344299765" lon="11.62648659044151"><ele>78.0</ele><time>2026-05-02T06:31:20.447Z</time></trkpt><trkpt lat="45.70978780770436" lon="11.626777602396759"><ele>78.0</ele><time>2026-05-02T06:31:21.447Z</time></trkpt><trkpt lat="45.70985103115282" lon="11.627060374064097"><ele>78.0</ele><time>2026-05-02T06:31:22.447Z</time></trkpt><trkpt lat="45.70991034311095" lon="11.627320045784444"><ele>78.0</ele><time>2026-05-02T06:31:23.447Z</time></trkpt><trkpt lat="45.709970092410614" lon="11.62758163212483"><ele>77.66666666666667</ele><time>2026-05-02T06:31:24.447Z</time></trkpt><trkpt lat="45.710033744541256" lon="11.627860305379183"><ele>77.33333333333334</ele><time>2026-05-02T06:31:25.447Z</time></trkpt><trkpt lat="45.710100838128206" lon="11.628154045583353"><ele>77.0</ele><time>2026-05-02T06:31:26.447Z</time></trkpt><trkpt lat="45.71016913572618" lon="11.628453057066439"><ele>77.5</ele><time>2026-05-02T06:31:27.447Z</time></trkpt><trkpt lat="45.71024129699453" lon="11.628766884379155"><ele>78.0</ele><time>2026-05-02T06:31:28.447Z</time></trkpt><trkpt lat="45.71031937101311" lon="11.62910698632742"><ele>77.0</ele><time>2026-05-02T06:31:29.447Z</time></trkpt><trkpt lat="45.71041224859781" lon="11.629511574728646"><ele>76.0</ele><time>2026-05-02T06:31:30.447Z</time></trkpt><trkpt lat="45.710497418235924" lon="11.62988258613004"><ele>76.0</ele><time>2026-05-02T06:31:31.447Z</time></trkpt><trkpt lat="45.71059029939883" lon="11.630273836007026"><ele>76.0</ele><time>2026-05-02T06:31:32.447Z</time></trkpt><trkpt lat="45.71068464056791" lon="11.630635487913535"><ele>74.5</ele><time>2026-05-02T06:31:33.447Z</time></trkpt><trkpt lat="45.71079012085156" lon="11.630986088537567"><ele>73.0</ele><time>2026-05-02T06:31:34.447Z</time></trkpt><trkpt lat="45.71091336328066" lon="11.6313370256708"><ele>72.5</ele><time>2026-05-02T06:31:35.447Z</time></trkpt><trkpt lat="45.71104199213541" lon="11.631652229421944"><ele>72.0</ele><time>2026-05-02T06:31:36.447Z</time></trkpt><trkpt lat="45.71119218061675" lon="11.631977544959442"><ele>74.5</ele><time>2026-05-02T06:31:37.447Z</time></trkpt><trkpt lat="45.71135589088594" lon="11.632289267540244"><ele>77.0</ele><time>2026-05-02T06:31:38.447Z</time></trkpt><trkpt lat="45.71152179363527" lon="11.632574049351637"><ele>75.5</ele><time>2026-05-02T06:31:39.447Z</time></trkpt><trkpt lat="45.711690727252765" lon="11.632811085079506"><ele>74.0</ele><time>2026-05-02T06:31:40.447Z</time></trkpt><trkpt lat="45.71186087926358" lon="11.633053611963591"><ele>75.5</ele><time>2026-05-02T06:31:41.447Z</time></trkpt><trkpt lat="45.71203113919351" lon="11.633306516003707"><ele>77.0</ele><time>2026-05-02T06:31:42.447Z</time></trkpt><trkpt lat="45.712207899430595" lon="11.633551286919536"><ele>77.0</ele><time>2026-05-02T06:31:43.447Z</time></trkpt><trkpt lat="45.712438842091075" lon="11.633718445034756"><ele>77.0</ele><time>2026-05-02T06:31:44.447Z</time></trkpt><trkpt lat="45.71265176787436" lon="11.633935190089913"><ele>77.0</ele><time>2026-05-02T06:31:45.447Z</time></trkpt><trkpt lat="45.7128489024452" lon="11.634165356603582"><ele>77.0</ele><time>2026-05-02T06:31:46.447Z</time></trkpt><trkpt lat="45.71305600050825" lon="11.63437924866986"><ele>76.5</ele><time>2026-05-02T06:31:47.447Z</time></trkpt><trkpt lat="45.71325834758758" lon="11.634595253856462"><ele>76.0</ele><time>2026-05-02T06:31:48.447Z</time></trkpt><trkpt lat="45.71346936764372" lon="11.63480812115714"><ele>78.0</ele><time>2026-05-02T06:31:49.447Z</time></trkpt><trkpt lat="45.71367693061947" lon="11.635029458509552"><ele>80.0</ele><time>2026-05-02T06:31:50.447Z</time></trkpt><trkpt lat="45.713853536653" lon="11.63524308658895"><ele>80.0</ele><time>2026-05-02T06:31:51.447Z</time></trkpt><trkpt lat="45.71405371714093" lon="11.635453758506424"><ele>80.0</ele><time>2026-05-02T06:31:52.447Z</time></trkpt><trkpt lat="45.714216779346785" lon="11.63563201973392"><ele>79.66666666666667</ele><time>2026-05-02T06:31:53.447Z</time></trkpt><trkpt lat="45.71442634714036" lon="11.635769283111019"><ele>79.33333333333333</ele><time>2026-05-02T06:31:54.447Z</time></trkpt><trkpt lat="45.714579092044396" lon="11.635946195537995"><ele>79.0</ele><time>2026-05-02T06:31:55.447Z</time></trkpt><trkpt lat="45.714737631372984" lon="11.636127689160077"><ele>78.66666666666666</ele><time>2026-05-02T06:31:56.447Z</time></trkpt><trkpt lat="45.71490940380015" lon="11.63629009270767"><ele>78.33333333333333</ele><time>2026-05-02T06:31:57.447Z</time></trkpt><trkpt lat="45.71506903847387" lon="11.63647637227964"><ele>78.0</ele><time>2026-05-02T06:31:58.447Z</time></trkpt><trkpt lat="45.715243285374605" lon="11.636658202647103"><ele>78.0</ele><time>2026-05-02T06:31:59.447Z</time></trkpt><trkpt lat="45.71539003615828" lon="11.636798893263329"><ele>78.0</ele><time>2026-05-02T06:32:00.447Z</time></trkpt><trkpt lat="45.71551309173055" lon="11.63692173970223"><ele>78.0</ele><time>2026-05-02T06:32:01.447Z</time></trkpt><trkpt lat="45.715632598746495" lon="11.637032939554036"><ele>78.5</ele><time>2026-05-02T06:32:02.447Z</time></trkpt><trkpt lat="45.71574485797497" lon="11.637109734590755"><ele>79.0</ele><time>2026-05-02T06:32:03.447Z</time></trkpt><trkpt lat="45.71584400224897" lon="11.637188352662784"><ele>79.5</ele><time>2026-05-02T06:32:04.447Z</time></trkpt><trkpt lat="45.71593665757447" lon="11.637278021313808"><ele>80.0</ele><time>2026-05-02T06:32:05.447Z</time></trkpt><trkpt lat="45.715965585271306" lon="11.637432934637644"><ele>80.0</ele><time>2026-05-02T06:32:06.447Z</time></trkpt><trkpt lat="45.71600118752149" lon="11.63759352520939"><ele>80.0</ele><time>2026-05-02T06:32:07.447Z</time></trkpt><trkpt lat="45.71610283190755" lon="11.637707412171578"><ele>80.0</ele><time>2026-05-02T06:32:08.447Z</time></trkpt><trkpt lat="45.71622774680864" lon="11.637769013399431"><ele>80.0</ele><time>2026-05-02T06:32:09.447Z</time></trkpt><trkpt lat="45.716362138266824" lon="11.63779014320228"><ele>80.0</ele><time>2026-05-02T06:32:10.447Z</time></trkpt><trkpt lat="45.71648166852082" lon="11.637802948467991"><ele>80.0</ele><time>2026-05-02T06:32:11.447Z</time></trkpt><trkpt lat="45.71659778230299" lon="11.637891690891458"><ele>80.0</ele><time>2026-05-02T06:32:12.447Z</time></trkpt><trkpt lat="45.71669713262909" lon="11.638044058646608"><ele>80.0</ele><time>2026-05-02T06:32:13.447Z</time></trkpt><trkpt lat="45.71680206804232" lon="11.638223588904326"><ele>80.33333333333334</ele><time>2026-05-02T06:32:14.447Z</time></trkpt><trkpt lat="45.716932784550984" lon="11.638426049908256"><ele>80.66666666666667</ele><time>2026-05-02T06:32:15.447Z</time></trkpt><trkpt lat="45.71709043544122" lon="11.638586398767474"><ele>81.0</ele><time>2026-05-02T06:32:16.447Z</time></trkpt><trkpt lat="45.71726768019651" lon="11.638781999326925"><ele>81.0</ele><time>2026-05-02T06:32:17.447Z</time></trkpt><trkpt lat="45.717457726796894" lon="11.639009011830822"><ele>81.0</ele><time>2026-05-02T06:32:18.447Z</time></trkpt><trkpt lat="45.717656940651274" lon="11.639256043087459"><ele>81.5</ele><time>2026-05-02T06:32:19.447Z</time></trkpt><trkpt lat="45.7178904077276" lon="11.63948231601584"><ele>82.0</ele><time>2026-05-02T06:32:20.447Z</time></trkpt><trkpt lat="45.718145844186324" lon="11.639731229301946"><ele>82.0</ele><time>2026-05-02T06:32:21.447Z</time></trkpt><trkpt lat="45.71838270359821" lon="11.639983827441034"><ele>82.0</ele><time>2026-05-02T06:32:22.448Z</time></trkpt><trkpt lat="45.71860088804475" lon="11.640157266858463"><ele>81.5</ele><time>2026-05-02T06:32:23.448Z</time></trkpt><trkpt lat="45.71881721299208" lon="11.640374808608295"><ele>81.0</ele><time>2026-05-02T06:32:24.448Z</time></trkpt><trkpt lat="45.719022561016054" lon="11.640608310896262"><ele>81.0</ele><time>2026-05-02T06:32:25.448Z</time></trkpt><trkpt lat="45.71923742683032" lon="11.640833231050554"><ele>81.0</ele><time>2026-05-02T06:32:26.448Z</time></trkpt><trkpt lat="45.71946578746213" lon="11.641044235864788"><ele>81.5</ele><time>2026-05-02T06:32:27.448Z</time></trkpt><trkpt lat="45.71967343912712" lon="11.641262309046464"><ele>82.0</ele><time>2026-05-02T06:32:28.448Z</time></trkpt><trkpt lat="45.71986130567451" lon="11.64147522405451"><ele>82.0</ele><time>2026-05-02T06:32:29.448Z</time></trkpt><trkpt lat="45.72006324894883" lon="11.641683653513894"><ele>82.0</ele><time>2026-05-02T06:32:30.448Z</time></trkpt><trkpt lat="45.72026612869696" lon="11.641877941411558"><ele>82.0</ele><time>2026-05-02T06:32:31.448Z</time></trkpt><trkpt lat="45.72046552866863" lon="11.642116339785021"><ele>82.0</ele><time>2026-05-02T06:32:32.448Z</time></trkpt><trkpt lat="45.7206234193797" lon="11.642359401105637"><ele>82.0</ele><time>2026-05-02T06:32:33.448Z</time></trkpt><trkpt lat="45.720798933468394" lon="11.642519607881804"><ele>82.0</ele><time>2026-05-02T06:32:34.448Z</time></trkpt><trkpt lat="45.72098411062879" lon="11.642686755754978"><ele>82.0</ele><time>2026-05-02T06:32:35.448Z</time></trkpt><trkpt lat="45.72116884056831" lon="11.64286211083635"><ele>81.66666666666666</ele><time>2026-05-02T06:32:36.448Z</time></trkpt><trkpt lat="45.72133102359808" lon="11.64306795222375"><ele>81.33333333333333</ele><time>2026-05-02T06:32:37.448Z</time></trkpt><trkpt lat="45.72149147222081" lon="11.643299582175475"><ele>81.0</ele><time>2026-05-02T06:32:38.448Z</time></trkpt><trkpt lat="45.721674970993604" lon="11.643474711066922"><ele>81.0</ele><time>2026-05-02T06:32:39.448Z</time></trkpt><trkpt lat="45.721862058174885" lon="11.643652439413119"><ele>81.0</ele><time>2026-05-02T06:32:40.448Z</time></trkpt><trkpt lat="45.72205748696475" lon="11.643838841836137"><ele>81.0</ele><time>2026-05-02T06:32:41.448Z</time></trkpt><trkpt lat="45.7222535718935" lon="11.644040470157837"><ele>81.0</ele><time>2026-05-02T06:32:42.448Z</time></trkpt><trkpt lat="45.72243471707027" lon="11.644277180779412"><ele>81.0</ele><time>2026-05-02T06:32:43.448Z</time></trkpt><trkpt lat="45.72265764801837" lon="11.644459930448711"><ele>81.0</ele><time>2026-05-02T06:32:44.448Z</time></trkpt><trkpt lat="45.72286688770005" lon="11.644682365576642"><ele>81.0</ele><time>2026-05-02T06:32:45.448Z</time></trkpt><trkpt lat="45.723089014636095" lon="11.644914070119103"><ele>81.0</ele><time>2026-05-02T06:32:46.448Z</time></trkpt><trkpt lat="45.7233075043669" lon="11.645150647376429"><ele>81.5</ele><time>2026-05-02T06:32:47.448Z</time></trkpt><trkpt lat="45.72353136706802" lon="11.645395307463076"><ele>82.0</ele><time>2026-05-02T06:32:48.448Z</time></trkpt><trkpt lat="45.72373462161761" lon="11.645670058482839"><ele>82.0</ele><time>2026-05-02T06:32:49.448Z</time></trkpt><trkpt lat="45.72391865916521" lon="11.645988594323237"><ele>82.0</ele><time>2026-05-02T06:32:50.448Z</time></trkpt><trkpt lat="45.72412421530697" lon="11.646271323848465"><ele>82.5</ele><time>2026-05-02T06:32:51.448Z</time></trkpt><trkpt lat="45.72432021015533" lon="11.646554805239544"><ele>83.0</ele><time>2026-05-02T06:32:52.448Z</time></trkpt><trkpt lat="45.72449368084763" lon="11.646819693536356"><ele>83.0</ele><time>2026-05-02T06:32:53.448Z</time></trkpt><trkpt lat="45.72465937963563" lon="11.647080714759923"><ele>83.0</ele><time>2026-05-02T06:32:54.448Z</time></trkpt><trkpt lat="45.72482248853156" lon="11.647327497780763"><ele>83.0</ele><time>2026-05-02T06:32:55.448Z</time></trkpt><trkpt lat="45.72495596691908" lon="11.647623571289012"><ele>83.0</ele><time>2026-05-02T06:32:56.448Z</time></trkpt><trkpt lat="45.72509875029723" lon="11.64788668428065"><ele>82.66666666666667</ele><time>2026-05-02T06:32:57.448Z</time></trkpt><trkpt lat="45.72523881461956" lon="11.648124100143152"><ele>82.33333333333333</ele><time>2026-05-02T06:32:58.448Z</time></trkpt><trkpt lat="45.725362112008504" lon="11.648361279666961"><ele>82.0</ele><time>2026-05-02T06:32:59.448Z</time></trkpt><trkpt lat="45.725475009739014" lon="11.648595628554588"><ele>82.66666666666666</ele><time>2026-05-02T06:33:00.448Z</time></trkpt><trkpt lat="45.72557954275222" lon="11.648817860276928"><ele>83.33333333333333</ele><time>2026-05-02T06:33:01.448Z</time></trkpt><trkpt lat="45.725670325585526" lon="11.64905100612088"><ele>84.0</ele><time>2026-05-02T06:33:02.448Z</time></trkpt><trkpt lat="45.725760504471616" lon="11.649257694547485"><ele>84.0</ele><time>2026-05-02T06:33:03.448Z</time></trkpt><trkpt lat="45.725848201117365" lon="11.649437649517717"><ele>84.0</ele><time>2026-05-02T06:33:04.448Z</time></trkpt><trkpt lat="45.72593286089421" lon="11.649633392947607"><ele>84.0</ele><time>2026-05-02T06:33:05.448Z</time></trkpt><trkpt lat="45.72601810641063" lon="11.649830608295536"><ele>83.66666666666667</ele><time>2026-05-02T06:33:06.448Z</time></trkpt><trkpt lat="45.72611626149077" lon="11.650010760211867"><ele>83.33333333333334</ele><time>2026-05-02T06:33:07.448Z</time></trkpt><trkpt lat="45.72621801392253" lon="11.650202308017965"><ele>83.0</ele><time>2026-05-02T06:33:08.448Z</time></trkpt><trkpt lat="45.726306337647685" lon="11.650383921439095"><ele>83.5</ele><time>2026-05-02T06:33:09.448Z</time></trkpt><trkpt lat="45.72638486247994" lon="11.650546060800133"><ele>84.0</ele><time>2026-05-02T06:33:10.448Z</time></trkpt><trkpt lat="45.726468176551464" lon="11.650707365133021"><ele>84.5</ele><time>2026-05-02T06:33:11.448Z</time></trkpt><trkpt lat="45.726542687059215" lon="11.65084887434981"><ele>85.0</ele><time>2026-05-02T06:33:12.448Z</time></trkpt><trkpt lat="45.72665013882438" lon="11.650930222756008"><ele>85.0</ele><time>2026-05-02T06:33:13.448Z</time></trkpt><trkpt lat="45.72671089796672" lon="11.651064092811028"><ele>85.0</ele><time>2026-05-02T06:33:14.448Z</time></trkpt><trkpt lat="45.72674718329561" lon="11.651166053807271"><ele>85.0</ele><time>2026-05-02T06:33:15.448Z</time></trkpt><trkpt lat="45.726756974390725" lon="11.651287649390321"><ele>85.0</ele><time>2026-05-02T06:33:16.448Z</time></trkpt><trkpt lat="45.72673214774705" lon="11.651413309436009"><ele>85.0</ele><time>2026-05-02T06:33:17.448Z</time></trkpt><trkpt lat="45.72670093520653" lon="11.651538835595893"><ele>85.2</ele><time>2026-05-02T06:33:18.448Z</time></trkpt><trkpt lat="45.72669621046713" lon="11.651672989770546"><ele>85.4</ele><time>2026-05-02T06:33:19.448Z</time></trkpt><trkpt lat="45.72672501723267" lon="11.6517987060933"><ele>85.6</ele><time>2026-05-02T06:33:20.448Z</time></trkpt><trkpt lat="45.726785696613405" lon="11.651923902265274"><ele>85.8</ele><time>2026-05-02T06:33:21.448Z</time></trkpt><trkpt lat="45.72686057359199" lon="11.652035687571312"><ele>86.0</ele><time>2026-05-02T06:33:22.448Z</time></trkpt><trkpt lat="45.726932912532355" lon="11.652131918465194"><ele>86.25</ele><time>2026-05-02T06:33:23.448Z</time></trkpt><trkpt lat="45.72699522975481" lon="11.652271859718999"><ele>86.5</ele><time>2026-05-02T06:33:24.448Z</time></trkpt><trkpt lat="45.72702912296327" lon="11.652460345660337"><ele>86.75</ele><time>2026-05-02T06:33:25.448Z</time></trkpt><trkpt lat="45.72701689857987" lon="11.65271177447092"><ele>87.0</ele><time>2026-05-02T06:33:26.448Z</time></trkpt><trkpt lat="45.72702438936869" lon="11.652984612761246"><ele>87.5</ele><time>2026-05-02T06:33:27.448Z</time></trkpt><trkpt lat="45.72703910223825" lon="11.65328358893657"><ele>88.0</ele><time>2026-05-02T06:33:28.448Z</time></trkpt><trkpt lat="45.727044384436276" lon="11.653630787711462"><ele>88.0</ele><time>2026-05-02T06:33:29.448Z</time></trkpt><trkpt lat="45.72705622695235" lon="11.654021376151379"><ele>88.0</ele><time>2026-05-02T06:33:30.448Z</time></trkpt><trkpt lat="45.72706782593745" lon="11.654410821997864"><ele>88.0</ele><time>2026-05-02T06:33:31.448Z</time></trkpt><trkpt lat="45.727092741039826" lon="11.654788035600264"><ele>88.0</ele><time>2026-05-02T06:33:32.448Z</time></trkpt><trkpt lat="45.72708899273738" lon="11.65513508764741"><ele>88.0</ele><time>2026-05-02T06:33:33.448Z</time></trkpt><trkpt lat="45.727089007977625" lon="11.655458489162893"><ele>88.0</ele><time>2026-05-02T06:33:34.448Z</time></trkpt><trkpt lat="45.72710634200372" lon="11.655758592961018"><ele>88.0</ele><time>2026-05-02T06:33:35.448Z</time></trkpt><trkpt lat="45.727118899701296" lon="11.656058776755875"><ele>88.33333333333333</ele><time>2026-05-02T06:33:36.448Z</time></trkpt><trkpt lat="45.72712550714588" lon="11.656361339076222"><ele>88.66666666666667</ele><time>2026-05-02T06:33:37.448Z</time></trkpt><trkpt lat="45.72715070920526" lon="11.656637120108329"><ele>89.0</ele><time>2026-05-02T06:33:38.448Z</time></trkpt><trkpt lat="45.7271889155248" lon="11.656917794334383"><ele>88.33333333333334</ele><time>2026-05-02T06:33:39.448Z</time></trkpt><trkpt lat="45.72723509469747" lon="11.657204323687166"><ele>87.66666666666667</ele><time>2026-05-02T06:33:40.448Z</time></trkpt><trkpt lat="45.72730014666773" lon="11.657471671168823"><ele>87.0</ele><time>2026-05-02T06:33:41.448Z</time></trkpt><trkpt lat="45.727394246030144" lon="11.657735783798307"><ele>86.33333333333333</ele><time>2026-05-02T06:33:42.448Z</time></trkpt><trkpt lat="45.727461055080276" lon="11.658015445986464"><ele>85.66666666666666</ele><time>2026-05-02T06:33:43.448Z</time></trkpt><trkpt lat="45.72754973949661" lon="11.658258298186514"><ele>85.0</ele><time>2026-05-02T06:33:44.448Z</time></trkpt><trkpt lat="45.72760073760432" lon="11.658516253983366"><ele>85.33333333333333</ele><time>2026-05-02T06:33:45.448Z</time></trkpt><trkpt lat="45.72764745735298" lon="11.658756917719215"><ele>85.66666666666667</ele><time>2026-05-02T06:33:46.448Z</time></trkpt><trkpt lat="45.727689460961706" lon="11.659051224809696"><ele>86.0</ele><time>2026-05-02T06:33:47.448Z</time></trkpt><trkpt lat="45.727723061422026" lon="11.659370710410906"><ele>86.0</ele><time>2026-05-02T06:33:48.448Z</time></trkpt><trkpt lat="45.72776415515346" lon="11.659713755824113"><ele>86.0</ele><time>2026-05-02T06:33:49.448Z</time></trkpt><trkpt lat="45.727798551102715" lon="11.660051604870363"><ele>85.5</ele><time>2026-05-02T06:33:50.448Z</time></trkpt><trkpt lat="45.72784502217736" lon="11.66036636971004"><ele>85.0</ele><time>2026-05-02T06:33:51.448Z</time></trkpt><trkpt lat="45.72790898932185" lon="11.66068565777412"><ele>85.0</ele><time>2026-05-02T06:33:52.448Z</time></trkpt><trkpt lat="45.728025364434785" lon="11.660999149448646"><ele>85.0</ele><time>2026-05-02T06:33:53.448Z</time></trkpt><trkpt lat="45.72811422596919" lon="11.66133902782529"><ele>85.0</ele><time>2026-05-02T06:33:54.448Z</time></trkpt><trkpt lat="45.72824608743967" lon="11.661669696975327"><ele>85.0</ele><time>2026-05-02T06:33:55.448Z</time></trkpt><trkpt lat="45.72836649562157" lon="11.662050745331683"><ele>86.0</ele><time>2026-05-02T06:33:56.448Z</time></trkpt><trkpt lat="45.72846444924609" lon="11.662394684476297"><ele>87.0</ele><time>2026-05-02T06:33:57.448Z</time></trkpt><trkpt lat="45.728576131972915" lon="11.662708190860545"><ele>87.0</ele><time>2026-05-02T06:33:58.448Z</time></trkpt><trkpt lat="45.72865360221228" lon="11.663023907121342"><ele>87.0</ele><time>2026-05-02T06:33:59.448Z</time></trkpt><trkpt lat="45.72872093877264" lon="11.663333532532441"><ele>87.33333333333333</ele><time>2026-05-02T06:34:00.448Z</time></trkpt><trkpt lat="45.72877257040351" lon="11.66362505751161"><ele>87.66666666666666</ele><time>2026-05-02T06:34:01.448Z</time></trkpt><trkpt lat="45.72881827688754" lon="11.663901406720338"><ele>88.0</ele><time>2026-05-02T06:34:02.448Z</time></trkpt><trkpt lat="45.72884060455689" lon="11.664172717180593"><ele>88.0</ele><time>2026-05-02T06:34:03.448Z</time></trkpt><trkpt lat="45.72885601878859" lon="11.664429745554983"><ele>88.0</ele><time>2026-05-02T06:34:04.448Z</time></trkpt><trkpt lat="45.72887882878568" lon="11.664668058148491"><ele>88.0</ele><time>2026-05-02T06:34:05.448Z</time></trkpt><trkpt lat="45.728894865197454" lon="11.664880654904378"><ele>87.5</ele><time>2026-05-02T06:34:06.448Z</time></trkpt><trkpt lat="45.72893516318856" lon="11.665076110747325"><ele>87.0</ele><time>2026-05-02T06:34:07.448Z</time></trkpt><trkpt lat="45.72899905589526" lon="11.665235595167378"><ele>86.5</ele><time>2026-05-02T06:34:08.448Z</time></trkpt><trkpt lat="45.72907051023147" lon="11.665380993030906"><ele>86.0</ele><time>2026-05-02T06:34:09.448Z</time></trkpt><trkpt lat="45.729082982789315" lon="11.665555380406746"><ele>86.0</ele><time>2026-05-02T06:34:10.448Z</time></trkpt><trkpt lat="45.72909587177646" lon="11.66572830870635"><ele>86.0</ele><time>2026-05-02T06:34:11.448Z</time></trkpt><trkpt lat="45.72911672469292" lon="11.665895383154119"><ele>86.0</ele><time>2026-05-02T06:34:12.448Z</time></trkpt><trkpt lat="45.72919839351763" lon="11.666041996049943"><ele>86.0</ele><time>2026-05-02T06:34:13.448Z</time></trkpt><trkpt lat="45.72932447877008" lon="11.666143123373898"><ele>86.0</ele><time>2026-05-02T06:34:14.448Z</time></trkpt><trkpt lat="45.72937879398076" lon="11.66635284551898"><ele>86.0</ele><time>2026-05-02T06:34:15.448Z</time></trkpt><trkpt lat="45.72945041556733" lon="11.666573919052269"><ele>86.0</ele><time>2026-05-02T06:34:16.448Z</time></trkpt><trkpt lat="45.729539588916076" lon="11.66681438704767"><ele>85.5</ele><time>2026-05-02T06:34:17.448Z</time></trkpt><trkpt lat="45.72969334278622" lon="11.667041284334369"><ele>85.0</ele><time>2026-05-02T06:34:18.448Z</time></trkpt><trkpt lat="45.72975184737797" lon="11.66741733472562"><ele>85.0</ele><time>2026-05-02T06:34:19.448Z</time></trkpt><trkpt lat="45.72989744367058" lon="11.667666662235298"><ele>85.0</ele><time>2026-05-02T06:34:20.448Z</time></trkpt><trkpt lat="45.73003291893475" lon="11.667894197431878"><ele>85.0</ele><time>2026-05-02T06:34:21.448Z</time></trkpt><trkpt lat="45.730182257769556" lon="11.668126526354426"><ele>85.0</ele><time>2026-05-02T06:34:22.448Z</time></trkpt><trkpt lat="45.730330236158245" lon="11.668362686314657"><ele>85.0</ele><time>2026-05-02T06:34:23.448Z</time></trkpt><trkpt lat="45.730472321096165" lon="11.668604887797443"><ele>85.0</ele><time>2026-05-02T06:34:24.448Z</time></trkpt><trkpt lat="45.730638985475295" lon="11.668840763260922"><ele>85.5</ele><time>2026-05-02T06:34:25.448Z</time></trkpt><trkpt lat="45.7308146144219" lon="11.669096284551012"><ele>86.0</ele><time>2026-05-02T06:34:26.448Z</time></trkpt><trkpt lat="45.73100878385814" lon="11.669326313970732"><ele>86.0</ele><time>2026-05-02T06:34:27.448Z</time></trkpt><trkpt lat="45.731181800123544" lon="11.669565507103544"><ele>86.0</ele><time>2026-05-02T06:34:28.449Z</time></trkpt><trkpt lat="45.73134589400919" lon="11.669781205793516"><ele>86.0</ele><time>2026-05-02T06:34:29.449Z</time></trkpt><trkpt lat="45.731523354616634" lon="11.670014937701088"><ele>86.0</ele><time>2026-05-02T06:34:30.449Z</time></trkpt><trkpt lat="45.731688164959145" lon="11.670252815151631"><ele>86.5</ele><time>2026-05-02T06:34:31.449Z</time></trkpt><trkpt lat="45.73186927979338" lon="11.670499150609757"><ele>87.0</ele><time>2026-05-02T06:34:32.449Z</time></trkpt><trkpt lat="45.73204185276952" lon="11.670747918617455"><ele>87.0</ele><time>2026-05-02T06:34:33.449Z</time></trkpt><trkpt lat="45.732230550125124" lon="11.67099283141067"><ele>87.0</ele><time>2026-05-02T06:34:34.449Z</time></trkpt><trkpt lat="45.73241065298115" lon="11.67126042982656"><ele>87.5</ele><time>2026-05-02T06:34:35.449Z</time></trkpt><trkpt lat="45.732606239999484" lon="11.671527122091785"><ele>88.0</ele><time>2026-05-02T06:34:36.449Z</time></trkpt><trkpt lat="45.73279474525584" lon="11.671825252980462"><ele>87.5</ele><time>2026-05-02T06:34:37.449Z</time></trkpt><trkpt lat="45.73298863317236" lon="11.672076134279717"><ele>87.0</ele><time>2026-05-02T06:34:38.449Z</time></trkpt><trkpt lat="45.73316843957226" lon="11.672315656234554"><ele>87.0</ele><time>2026-05-02T06:34:39.449Z</time></trkpt><trkpt lat="45.73333592230769" lon="11.67255014152029"><ele>87.0</ele><time>2026-05-02T06:34:40.449Z</time></trkpt><trkpt lat="45.733509508904966" lon="11.672793912422797"><ele>88.0</ele><time>2026-05-02T06:34:41.449Z</time></trkpt><trkpt lat="45.7336663069715" lon="11.673034418766926"><ele>89.0</ele><time>2026-05-02T06:34:42.449Z</time></trkpt><trkpt lat="45.73381653824353" lon="11.673301231904185"><ele>89.0</ele><time>2026-05-02T06:34:43.449Z</time></trkpt><trkpt lat="45.73399275863063" lon="11.673535103410831"><ele>89.0</ele><time>2026-05-02T06:34:44.449Z</time></trkpt><trkpt lat="45.7341387957764" lon="11.673809999638388"><ele>88.0</ele><time>2026-05-02T06:34:45.449Z</time></trkpt><trkpt lat="45.734274119874215" lon="11.674109698849442"><ele>87.0</ele><time>2026-05-02T06:34:46.449Z</time></trkpt><trkpt lat="45.734417899682065" lon="11.674398995559699"><ele>87.5</ele><time>2026-05-02T06:34:47.449Z</time></trkpt><trkpt lat="45.73455858263709" lon="11.674681899976411"><ele>88.0</ele><time>2026-05-02T06:34:48.449Z</time></trkpt><trkpt lat="45.734717174613074" lon="11.674964668539884"><ele>88.0</ele><time>2026-05-02T06:34:49.449Z</time></trkpt><trkpt lat="45.734868943206926" lon="11.675239004680702"><ele>88.0</ele><time>2026-05-02T06:34:50.449Z</time></trkpt><trkpt lat="45.73501377785189" lon="11.675528740399287"><ele>87.5</ele><time>2026-05-02T06:34:51.449Z</time></trkpt><trkpt lat="45.735144267165396" lon="11.675856517782396"><ele>87.0</ele><time>2026-05-02T06:34:52.449Z</time></trkpt><trkpt lat="45.735281611116264" lon="11.676174981853293"><ele>87.0</ele><time>2026-05-02T06:34:53.449Z</time></trkpt><trkpt lat="45.73540296179267" lon="11.676511603537842"><ele>87.0</ele><time>2026-05-02T06:34:54.449Z</time></trkpt><trkpt lat="45.73551322537329" lon="11.676841652896705"><ele>88.5</ele><time>2026-05-02T06:34:55.449Z</time></trkpt><trkpt lat="45.7356232682925" lon="11.677144931468908"><ele>90.0</ele><time>2026-05-02T06:34:56.449Z</time></trkpt><trkpt lat="45.735736038570295" lon="11.67746754433626"><ele>89.5</ele><time>2026-05-02T06:34:57.449Z</time></trkpt><trkpt lat="45.735858109519086" lon="11.677796161527944"><ele>89.0</ele><time>2026-05-02T06:34:58.449Z</time></trkpt><trkpt lat="45.73597638636992" lon="11.678108098652805"><ele>88.5</ele><time>2026-05-02T06:34:59.449Z</time></trkpt><trkpt lat="45.73608636778018" lon="11.67843334570098"><ele>88.0</ele><time>2026-05-02T06:35:00.449Z</time></trkpt><trkpt lat="45.73619475319512" lon="11.67874815854268"><ele>88.0</ele><time>2026-05-02T06:35:01.449Z</time></trkpt><trkpt lat="45.73632287388396" lon="11.679057684043668"><ele>88.0</ele><time>2026-05-02T06:35:02.449Z</time></trkpt><trkpt lat="45.7364376310677" lon="11.679374822027354"><ele>88.5</ele><time>2026-05-02T06:35:03.449Z</time></trkpt><trkpt lat="45.73655391948925" lon="11.679683268982052"><ele>89.0</ele><time>2026-05-02T06:35:04.449Z</time></trkpt><trkpt lat="45.736677616680325" lon="11.679983793237309"><ele>88.0</ele><time>2026-05-02T06:35:05.449Z</time></trkpt><trkpt lat="45.7368101092145" lon="11.68028395314559"><ele>87.0</ele><time>2026-05-02T06:35:06.449Z</time></trkpt><trkpt lat="45.736938346050195" lon="11.68058989007141"><ele>87.0</ele><time>2026-05-02T06:35:07.449Z</time></trkpt><trkpt lat="45.737058101598336" lon="11.680913546501737"><ele>87.0</ele><time>2026-05-02T06:35:08.449Z</time></trkpt><trkpt lat="45.737182491132565" lon="11.681231502111352"><ele>87.0</ele><time>2026-05-02T06:35:09.449Z</time></trkpt><trkpt lat="45.73730589533549" lon="11.681560179802343"><ele>87.0</ele><time>2026-05-02T06:35:10.449Z</time></trkpt><trkpt lat="45.73743282251244" lon="11.681889915422099"><ele>87.5</ele><time>2026-05-02T06:35:11.449Z</time></trkpt><trkpt lat="45.737536766225986" lon="11.682226853191608"><ele>88.0</ele><time>2026-05-02T06:35:12.449Z</time></trkpt><trkpt lat="45.737661933639224" lon="11.68254565839386"><ele>88.0</ele><time>2026-05-02T06:35:13.449Z</time></trkpt><trkpt lat="45.73776285220876" lon="11.682863258554796"><ele>88.0</ele><time>2026-05-02T06:35:14.449Z</time></trkpt><trkpt lat="45.737873399650844" lon="11.683178329928602"><ele>88.0</ele><time>2026-05-02T06:35:15.449Z</time></trkpt><trkpt lat="45.737969990988894" lon="11.683509787096332"><ele>88.0</ele><time>2026-05-02T06:35:16.449Z</time></trkpt><trkpt lat="45.73805543647198" lon="11.683830660181131"><ele>87.5</ele><time>2026-05-02T06:35:17.449Z</time></trkpt><trkpt lat="45.73811078384489" lon="11.68416367926368"><ele>87.0</ele><time>2026-05-02T06:35:18.449Z</time></trkpt><trkpt lat="45.738183906099366" lon="11.684490843106019"><ele>87.0</ele><time>2026-05-02T06:35:19.449Z</time></trkpt><trkpt lat="45.738241991477736" lon="11.684822939988011"><ele>87.0</ele><time>2026-05-02T06:35:20.449Z</time></trkpt><trkpt lat="45.73827556327369" lon="11.685162998448668"><ele>87.0</ele><time>2026-05-02T06:35:21.449Z</time></trkpt><trkpt lat="45.73830815293763" lon="11.685519573207102"><ele>87.0</ele><time>2026-05-02T06:35:22.449Z</time></trkpt><trkpt lat="45.738335313114426" lon="11.685892158275095"><ele>87.0</ele><time>2026-05-02T06:35:23.449Z</time></trkpt><trkpt lat="45.73838465891409" lon="11.686295333178984"><ele>87.0</ele><time>2026-05-02T06:35:24.449Z</time></trkpt><trkpt lat="45.738394638390105" lon="11.686710514053077"><ele>87.0</ele><time>2026-05-02T06:35:25.449Z</time></trkpt><trkpt lat="45.73840249439137" lon="11.687137706085382"><ele>87.0</ele><time>2026-05-02T06:35:26.449Z</time></trkpt><trkpt lat="45.738397826019344" lon="11.687532939871753"><ele>88.0</ele><time>2026-05-02T06:35:27.449Z</time></trkpt><trkpt lat="45.738396411414925" lon="11.68789401836348"><ele>89.0</ele><time>2026-05-02T06:35:28.449Z</time></trkpt><trkpt lat="45.73840954737854" lon="11.688242292031779"><ele>89.0</ele><time>2026-05-02T06:35:29.449Z</time></trkpt><trkpt lat="45.73839985071999" lon="11.688572651083554"><ele>89.0</ele><time>2026-05-02T06:35:30.449Z</time></trkpt><trkpt lat="45.738401652376645" lon="11.688910420467755"><ele>89.0</ele><time>2026-05-02T06:35:31.449Z</time></trkpt><trkpt lat="45.73840163350421" lon="11.689246656770678"><ele>89.0</ele><time>2026-05-02T06:35:32.449Z</time></trkpt><trkpt lat="45.73838960610497" lon="11.689595165607368"><ele>89.0</ele><time>2026-05-02T06:35:33.449Z</time></trkpt><trkpt lat="45.73838107565411" lon="11.689934351613855"><ele>89.0</ele><time>2026-05-02T06:35:34.449Z</time></trkpt><trkpt lat="45.73838984944404" lon="11.690267300490788"><ele>88.5</ele><time>2026-05-02T06:35:35.449Z</time></trkpt><trkpt lat="45.73837985976718" lon="11.690602145105256"><ele>88.0</ele><time>2026-05-02T06:35:36.449Z</time></trkpt><trkpt lat="45.73837722922731" lon="11.69093790367821"><ele>88.33333333333333</ele><time>2026-05-02T06:35:37.449Z</time></trkpt><trkpt lat="45.73836754390038" lon="11.691257013268675"><ele>88.66666666666667</ele><time>2026-05-02T06:35:38.449Z</time></trkpt><trkpt lat="45.73837371070393" lon="11.69157914450225"><ele>89.0</ele><time>2026-05-02T06:35:39.449Z</time></trkpt><trkpt lat="45.738359623401465" lon="11.69191377194407"><ele>89.5</ele><time>2026-05-02T06:35:40.449Z</time></trkpt><trkpt lat="45.73833877205829" lon="11.692252703213526"><ele>90.0</ele><time>2026-05-02T06:35:41.449Z</time></trkpt><trkpt lat="45.738329124514664" lon="11.69260529456407"><ele>89.5</ele><time>2026-05-02T06:35:42.449Z</time></trkpt><trkpt lat="45.738338972254006" lon="11.692985041057872"><ele>89.0</ele><time>2026-05-02T06:35:43.449Z</time></trkpt><trkpt lat="45.73832691018945" lon="11.69336652552139"><ele>89.5</ele><time>2026-05-02T06:35:44.449Z</time></trkpt><trkpt lat="45.73831903312772" lon="11.6937495534465"><ele>90.0</ele><time>2026-05-02T06:35:45.449Z</time></trkpt><trkpt lat="45.738317219274606" lon="11.694111074055026"><ele>89.5</ele><time>2026-05-02T06:35:46.449Z</time></trkpt><trkpt lat="45.73832232803673" lon="11.694457117792505"><ele>89.0</ele><time>2026-05-02T06:35:47.449Z</time></trkpt><trkpt lat="45.73831498396349" lon="11.69480497295683"><ele>89.0</ele><time>2026-05-02T06:35:48.449Z</time></trkpt><trkpt lat="45.73831424707297" lon="11.69515679498825"><ele>89.0</ele><time>2026-05-02T06:35:49.449Z</time></trkpt><trkpt lat="45.738319490845484" lon="11.695508505843323"><ele>88.5</ele><time>2026-05-02T06:35:50.449Z</time></trkpt><trkpt lat="45.738309748303806" lon="11.695856307730836"><ele>88.0</ele><time>2026-05-02T06:35:51.449Z</time></trkpt><trkpt lat="45.738300646362006" lon="11.696197439126351"><ele>86.5</ele><time>2026-05-02T06:35:52.449Z</time></trkpt><trkpt lat="45.7382924808621" lon="11.696550765449048"><ele>85.0</ele><time>2026-05-02T06:35:53.449Z</time></trkpt><trkpt lat="45.738277958953695" lon="11.696881306226079"><ele>85.5</ele><time>2026-05-02T06:35:54.449Z</time></trkpt><trkpt lat="45.73826314120367" lon="11.697233246085514"><ele>86.0</ele><time>2026-05-02T06:35:55.449Z</time></trkpt><trkpt lat="45.73825320521419" lon="11.697608746756995"><ele>87.0</ele><time>2026-05-02T06:35:56.449Z</time></trkpt><trkpt lat="45.73823046337999" lon="11.697990916378746"><ele>88.0</ele><time>2026-05-02T06:35:57.449Z</time></trkpt><trkpt lat="45.738213566292416" lon="11.698370863905822"><ele>89.0</ele><time>2026-05-02T06:35:58.449Z</time></trkpt><trkpt lat="45.7382041442973" lon="11.698742777110699"><ele>90.0</ele><time>2026-05-02T06:35:59.449Z</time></trkpt><trkpt lat="45.738182516914094" lon="11.699109954183204"><ele>88.0</ele><time>2026-05-02T06:36:00.449Z</time></trkpt><trkpt lat="45.73818277667636" lon="11.699480955252548"><ele>86.0</ele><time>2026-05-02T06:36:01.449Z</time></trkpt><trkpt lat="45.73816307407047" lon="11.699837831059593"><ele>86.0</ele><time>2026-05-02T06:36:02.449Z</time></trkpt><trkpt lat="45.73814965011804" lon="11.700187135766097"><ele>86.0</ele><time>2026-05-02T06:36:03.449Z</time></trkpt><trkpt lat="45.73813949320379" lon="11.700532294823976"><ele>87.0</ele><time>2026-05-02T06:36:04.449Z</time></trkpt><trkpt lat="45.7381287780976" lon="11.70087466984187"><ele>88.0</ele><time>2026-05-02T06:36:05.449Z</time></trkpt><trkpt lat="45.73811499053572" lon="11.70122053582462"><ele>88.5</ele><time>2026-05-02T06:36:06.449Z</time></trkpt><trkpt lat="45.73809415849462" lon="11.701578561990821"><ele>89.0</ele><time>2026-05-02T06:36:07.449Z</time></trkpt><trkpt lat="45.73807112346161" lon="11.701956220606242"><ele>90.0</ele><time>2026-05-02T06:36:08.449Z</time></trkpt><trkpt lat="45.7380643427573" lon="11.702322247078316"><ele>91.0</ele><time>2026-05-02T06:36:09.449Z</time></trkpt><trkpt lat="45.738026292371174" lon="11.70269541644331"><ele>91.0</ele><time>2026-05-02T06:36:10.449Z</time></trkpt><trkpt lat="45.73801389573052" lon="11.703045274652121"><ele>91.0</ele><time>2026-05-02T06:36:11.449Z</time></trkpt><trkpt lat="45.73801174984981" lon="11.70340034599523"><ele>91.0</ele><time>2026-05-02T06:36:12.449Z</time></trkpt><trkpt lat="45.73797883411919" lon="11.703739651969768"><ele>91.0</ele><time>2026-05-02T06:36:13.449Z</time></trkpt><trkpt lat="45.73796045032399" lon="11.704083634074962"><ele>92.5</ele><time>2026-05-02T06:36:14.449Z</time></trkpt><trkpt lat="45.73793540008794" lon="11.704427349433361"><ele>94.0</ele><time>2026-05-02T06:36:15.449Z</time></trkpt><trkpt lat="45.73791327425269" lon="11.704761277962847"><ele>94.0</ele><time>2026-05-02T06:36:16.449Z</time></trkpt><trkpt lat="45.73789806680487" lon="11.705071517734146"><ele>94.0</ele><time>2026-05-02T06:36:17.449Z</time></trkpt><trkpt lat="45.737866519408826" lon="11.705359217663784"><ele>94.0</ele><time>2026-05-02T06:36:18.449Z</time></trkpt><trkpt lat="45.73785916927456" lon="11.70563250050061"><ele>93.0</ele><time>2026-05-02T06:36:19.449Z</time></trkpt><trkpt lat="45.73783327495049" lon="11.705903477738767"><ele>92.0</ele><time>2026-05-02T06:36:20.449Z</time></trkpt><trkpt lat="45.73783043261074" lon="11.706162278761992"><ele>91.0</ele><time>2026-05-02T06:36:21.449Z</time></trkpt><trkpt lat="45.737797584912165" lon="11.706386585230065"><ele>91.0</ele><time>2026-05-02T06:36:22.449Z</time></trkpt><trkpt lat="45.737781294813956" lon="11.706568374447338"><ele>91.0</ele><time>2026-05-02T06:36:23.449Z</time></trkpt><trkpt lat="45.73775368086348" lon="11.706738473007023"><ele>91.0</ele><time>2026-05-02T06:36:24.449Z</time></trkpt><trkpt lat="45.73770967527273" lon="11.706867546596612"><ele>91.0</ele><time>2026-05-02T06:36:25.449Z</time></trkpt><trkpt lat="45.73766993581615" lon="11.706983377147216"><ele>91.0</ele><time>2026-05-02T06:36:26.449Z</time></trkpt><trkpt lat="45.73759760369538" lon="11.707086673625193"><ele>91.4</ele><time>2026-05-02T06:36:27.449Z</time></trkpt><trkpt lat="45.73750822763363" lon="11.707148760446685"><ele>91.8</ele><time>2026-05-02T06:36:28.449Z</time></trkpt><trkpt lat="45.737431611353465" lon="11.7071844949244"><ele>92.2</ele><time>2026-05-02T06:36:29.449Z</time></trkpt><trkpt lat="45.73731729022176" lon="11.707296026697422"><ele>92.60000000000001</ele><time>2026-05-02T06:36:30.449Z</time></trkpt><trkpt lat="45.73728774107756" lon="11.707437022079944"><ele>93.0</ele><time>2026-05-02T06:36:31.449Z</time></trkpt><trkpt lat="45.73726906580829" lon="11.707551081028562"><ele>93.0</ele><time>2026-05-02T06:36:32.449Z</time></trkpt><trkpt lat="45.737292179556164" lon="11.707642628490733"><ele>93.0</ele><time>2026-05-02T06:36:33.449Z</time></trkpt><trkpt lat="45.73733347289618" lon="11.707745311688821"><ele>93.0</ele><time>2026-05-02T06:36:34.45Z</time></trkpt><trkpt lat="45.73736880578954" lon="11.707880910598606"><ele>93.0</ele><time>2026-05-02T06:36:35.45Z</time></trkpt><trkpt lat="45.73737250875185" lon="11.708050254353925"><ele>93.0</ele><time>2026-05-02T06:36:36.45Z</time></trkpt><trkpt lat="45.737356762305694" lon="11.708249930495036"><ele>93.33333333333333</ele><time>2026-05-02T06:36:37.45Z</time></trkpt><trkpt lat="45.73733098956135" lon="11.708478933424123"><ele>93.66666666666666</ele><time>2026-05-02T06:36:38.45Z</time></trkpt><trkpt lat="45.73730622430237" lon="11.70871907889662"><ele>94.0</ele><time>2026-05-02T06:36:39.45Z</time></trkpt><trkpt lat="45.73726290115775" lon="11.70897793446406"><ele>94.0</ele><time>2026-05-02T06:36:40.45Z</time></trkpt><trkpt lat="45.73724486413467" lon="11.709197279031635"><ele>94.0</ele><time>2026-05-02T06:36:41.45Z</time></trkpt><trkpt lat="45.73721136346421" lon="11.70943760061307"><ele>94.0</ele><time>2026-05-02T06:36:42.45Z</time></trkpt><trkpt lat="45.73714237478251" lon="11.709674602235316"><ele>94.33333333333333</ele><time>2026-05-02T06:36:43.45Z</time></trkpt><trkpt lat="45.73710347376175" lon="11.709925028096336"><ele>94.66666666666667</ele><time>2026-05-02T06:36:44.45Z</time></trkpt><trkpt lat="45.73706402972429" lon="11.710166779231123"><ele>95.0</ele><time>2026-05-02T06:36:45.45Z</time></trkpt><trkpt lat="45.73703566060342" lon="11.71039017086928"><ele>95.33333333333334</ele><time>2026-05-02T06:36:46.45Z</time></trkpt><trkpt lat="45.73702075630675" lon="11.710613264205255"><ele>95.66666666666667</ele><time>2026-05-02T06:36:47.45Z</time></trkpt><trkpt lat="45.73700907430826" lon="11.71086212950936"><ele>96.0</ele><time>2026-05-02T06:36:48.45Z</time></trkpt><trkpt lat="45.73700554186761" lon="11.711111941515384"><ele>95.33333333333333</ele><time>2026-05-02T06:36:49.45Z</time></trkpt><trkpt lat="45.73701313764067" lon="11.711356852939218"><ele>94.66666666666666</ele><time>2026-05-02T06:36:50.45Z</time></trkpt><trkpt lat="45.737022031590605" lon="11.711618282835905"><ele>94.0</ele><time>2026-05-02T06:36:51.45Z</time></trkpt><trkpt lat="45.7370402901745" lon="11.711897166607852"><ele>93.66666666666666</ele><time>2026-05-02T06:36:52.45Z</time></trkpt><trkpt lat="45.73703498847432" lon="11.712182975482746"><ele>93.33333333333333</ele><time>2026-05-02T06:36:53.45Z</time></trkpt><trkpt lat="45.737062338433454" lon="11.712461053004015"><ele>93.0</ele><time>2026-05-02T06:36:54.45Z</time></trkpt><trkpt lat="45.737085206182265" lon="11.71274563503498"><ele>94.33333333333334</ele><time>2026-05-02T06:36:55.45Z</time></trkpt><trkpt lat="45.73709393237714" lon="11.713020268754805"><ele>95.66666666666667</ele><time>2026-05-02T06:36:56.45Z</time></trkpt><trkpt lat="45.73712336540553" lon="11.713260001323372"><ele>97.0</ele><time>2026-05-02T06:36:57.45Z</time></trkpt><trkpt lat="45.73713898216306" lon="11.713489161040332"><ele>96.75</ele><time>2026-05-02T06:36:58.45Z</time></trkpt><trkpt lat="45.73715673198522" lon="11.71369636884885"><ele>96.5</ele><time>2026-05-02T06:36:59.45Z</time></trkpt><trkpt lat="45.73716691143182" lon="11.713871000951517"><ele>96.25</ele><time>2026-05-02T06:37:00.45Z</time></trkpt><trkpt lat="45.737171304370406" lon="11.714026476222932"><ele>96.0</ele><time>2026-05-02T06:37:01.45Z</time></trkpt><trkpt lat="45.737173741684856" lon="11.714168321166776"><ele>96.0</ele><time>2026-05-02T06:37:02.45Z</time></trkpt><trkpt lat="45.737159874908045" lon="11.71432880565243"><ele>96.0</ele><time>2026-05-02T06:37:03.45Z</time></trkpt><trkpt lat="45.737139924032554" lon="11.714466310611508"><ele>96.0</ele><time>2026-05-02T06:37:04.45Z</time></trkpt><trkpt lat="45.73711179266933" lon="11.714597562134387"><ele>96.0</ele><time>2026-05-02T06:37:05.45Z</time></trkpt><trkpt lat="45.73705712670852" lon="11.714727914122674"><ele>96.0</ele><time>2026-05-02T06:37:06.45Z</time></trkpt><trkpt lat="45.73698783449729" lon="11.714842467081262"><ele>96.0</ele><time>2026-05-02T06:37:07.45Z</time></trkpt><trkpt lat="45.736916989176265" lon="11.714930304537253"><ele>96.0</ele><time>2026-05-02T06:37:08.45Z</time></trkpt><trkpt lat="45.736895401329406" lon="11.715041100220297"><ele>96.0</ele><time>2026-05-02T06:37:09.45Z</time></trkpt><trkpt lat="45.736898638157896" lon="11.715161465579042"><ele>96.0</ele><time>2026-05-02T06:37:10.45Z</time></trkpt><trkpt lat="45.736927218956296" lon="11.71526644912527"><ele>96.0</ele><time>2026-05-02T06:37:11.45Z</time></trkpt><trkpt lat="45.73700188736979" lon="11.71537602579064"><ele>96.0</ele><time>2026-05-02T06:37:12.45Z</time></trkpt><trkpt lat="45.737077791064095" lon="11.715458390203537"><ele>96.0</ele><time>2026-05-02T06:37:13.45Z</time></trkpt><trkpt lat="45.73714214890089" lon="11.715561715835653"><ele>96.0</ele><time>2026-05-02T06:37:14.45Z</time></trkpt><trkpt lat="45.73717239566671" lon="11.715726456517473"><ele>96.0</ele><time>2026-05-02T06:37:15.45Z</time></trkpt><trkpt lat="45.737205840043046" lon="11.715900392606418"><ele>96.0</ele><time>2026-05-02T06:37:16.45Z</time></trkpt><trkpt lat="45.7372307548387" lon="11.716117395907323"><ele>95.75</ele><time>2026-05-02T06:37:17.45Z</time></trkpt><trkpt lat="45.73724488951858" lon="11.71633634049199"><ele>95.5</ele><time>2026-05-02T06:37:18.45Z</time></trkpt><trkpt lat="45.737267827569994" lon="11.716539822406723"><ele>95.25</ele><time>2026-05-02T06:37:19.45Z</time></trkpt><trkpt lat="45.73729073355737" lon="11.716746393542902"><ele>95.0</ele><time>2026-05-02T06:37:20.45Z</time></trkpt><trkpt lat="45.73732202752984" lon="11.716954112737861"><ele>94.66666666666667</ele><time>2026-05-02T06:37:21.45Z</time></trkpt><trkpt lat="45.737332472884106" lon="11.717187032235106"><ele>94.33333333333333</ele><time>2026-05-02T06:37:22.45Z</time></trkpt><trkpt lat="45.73736827154612" lon="11.717432180161381"><ele>94.0</ele><time>2026-05-02T06:37:23.45Z</time></trkpt><trkpt lat="45.73741690374287" lon="11.717667557521708"><ele>94.0</ele><time>2026-05-02T06:37:24.45Z</time></trkpt><trkpt lat="45.73747471081139" lon="11.71790657685617"><ele>94.0</ele><time>2026-05-02T06:37:25.45Z</time></trkpt><trkpt lat="45.73754131820205" lon="11.718206289890297"><ele>94.0</ele><time>2026-05-02T06:37:26.45Z</time></trkpt><trkpt lat="45.73760981451848" lon="11.718534932406412"><ele>94.5</ele><time>2026-05-02T06:37:27.45Z</time></trkpt><trkpt lat="45.73767246836463" lon="11.718873482562472"><ele>95.0</ele><time>2026-05-02T06:37:28.45Z</time></trkpt><trkpt lat="45.737746769685295" lon="11.719181093071798"><ele>95.5</ele><time>2026-05-02T06:37:29.45Z</time></trkpt><trkpt lat="45.73783361750997" lon="11.71951703420921"><ele>96.0</ele><time>2026-05-02T06:37:30.45Z</time></trkpt><trkpt lat="45.73793109524771" lon="11.71982679234561"><ele>96.0</ele><time>2026-05-02T06:37:31.45Z</time></trkpt><trkpt lat="45.73798933533994" lon="11.720118047025387"><ele>96.0</ele><time>2026-05-02T06:37:32.45Z</time></trkpt><trkpt lat="45.73805820521517" lon="11.720393945970532"><ele>96.0</ele><time>2026-05-02T06:37:33.45Z</time></trkpt><trkpt lat="45.73811781949064" lon="11.72065170028786"><ele>95.33333333333333</ele><time>2026-05-02T06:37:34.45Z</time></trkpt><trkpt lat="45.73817295833361" lon="11.720917794931626"><ele>94.66666666666666</ele><time>2026-05-02T06:37:35.45Z</time></trkpt><trkpt lat="45.73822345166794" lon="11.721191098455286"><ele>94.0</ele><time>2026-05-02T06:37:36.45Z</time></trkpt><trkpt lat="45.738272134580136" lon="11.721481456208803"><ele>94.0</ele><time>2026-05-02T06:37:37.45Z</time></trkpt><trkpt lat="45.73831926295695" lon="11.721769121327261"><ele>94.0</ele><time>2026-05-02T06:37:38.45Z</time></trkpt><trkpt lat="45.738359161126354" lon="11.722042481617349"><ele>94.0</ele><time>2026-05-02T06:37:39.45Z</time></trkpt><trkpt lat="45.738396672459146" lon="11.722313781203795"><ele>94.66666666666666</ele><time>2026-05-02T06:37:40.45Z</time></trkpt><trkpt lat="45.738416009023055" lon="11.722598427956306"><ele>95.33333333333333</ele><time>2026-05-02T06:37:41.45Z</time></trkpt><trkpt lat="45.73844125509632" lon="11.722923498461668"><ele>96.0</ele><time>2026-05-02T06:37:42.45Z</time></trkpt><trkpt lat="45.738482971222396" lon="11.723258791839443"><ele>97.0</ele><time>2026-05-02T06:37:43.45Z</time></trkpt><trkpt lat="45.738501941620164" lon="11.723614257859742"><ele>98.0</ele><time>2026-05-02T06:37:44.45Z</time></trkpt><trkpt lat="45.738540545350816" lon="11.723966832295552"><ele>98.0</ele><time>2026-05-02T06:37:45.45Z</time></trkpt><trkpt lat="45.73856111343777" lon="11.724311647999032"><ele>98.0</ele><time>2026-05-02T06:37:46.45Z</time></trkpt><trkpt lat="45.73858299484783" lon="11.724641235523546"><ele>98.0</ele><time>2026-05-02T06:37:47.45Z</time></trkpt><trkpt lat="45.73861389555614" lon="11.724950696431916"><ele>98.0</ele><time>2026-05-02T06:37:48.45Z</time></trkpt><trkpt lat="45.738601085861696" lon="11.725264337332383"><ele>98.0</ele><time>2026-05-02T06:37:49.45Z</time></trkpt><trkpt lat="45.73860969521333" lon="11.725552985934854"><ele>98.0</ele><time>2026-05-02T06:37:50.45Z</time></trkpt><trkpt lat="45.73861371459077" lon="11.725843015629977"><ele>98.0</ele><time>2026-05-02T06:37:51.45Z</time></trkpt><trkpt lat="45.73859371826304" lon="11.72613331037849"><ele>98.0</ele><time>2026-05-02T06:37:52.45Z</time></trkpt><trkpt lat="45.73858874366273" lon="11.726434311022768"><ele>98.0</ele><time>2026-05-02T06:37:53.45Z</time></trkpt><trkpt lat="45.73857217525356" lon="11.726736475290641"><ele>98.0</ele><time>2026-05-02T06:37:54.45Z</time></trkpt><trkpt lat="45.73857552050285" lon="11.727043443948968"><ele>98.0</ele><time>2026-05-02T06:37:55.45Z</time></trkpt><trkpt lat="45.738550044246054" lon="11.727374091045458"><ele>96.5</ele><time>2026-05-02T06:37:56.45Z</time></trkpt><trkpt lat="45.738528889550274" lon="11.727729839378574"><ele>95.0</ele><time>2026-05-02T06:37:57.45Z</time></trkpt><trkpt lat="45.7385050208439" lon="11.72808841125587"><ele>95.0</ele><time>2026-05-02T06:37:58.45Z</time></trkpt><trkpt lat="45.738466499455534" lon="11.7284376678031"><ele>95.0</ele><time>2026-05-02T06:37:59.45Z</time></trkpt><trkpt lat="45.7384138633096" lon="11.728769127947198"><ele>95.0</ele><time>2026-05-02T06:38:00.45Z</time></trkpt><trkpt lat="45.73836226755657" lon="11.7290809645565"><ele>95.0</ele><time>2026-05-02T06:38:01.45Z</time></trkpt><trkpt lat="45.738323524842556" lon="11.72938130649833"><ele>95.0</ele><time>2026-05-02T06:38:02.45Z</time></trkpt><trkpt lat="45.73827317650194" lon="11.72968132262354"><ele>95.0</ele><time>2026-05-02T06:38:03.45Z</time></trkpt><trkpt lat="45.73823498732115" lon="11.729923932176309"><ele>95.0</ele><time>2026-05-02T06:38:04.45Z</time></trkpt><trkpt lat="45.73820594224804" lon="11.730140311228235"><ele>95.0</ele><time>2026-05-02T06:38:05.45Z</time></trkpt><trkpt lat="45.73818462029788" lon="11.73035291126736"><ele>95.6</ele><time>2026-05-02T06:38:06.45Z</time></trkpt><trkpt lat="45.73817495686077" lon="11.730538512866763"><ele>96.2</ele><time>2026-05-02T06:38:07.45Z</time></trkpt><trkpt lat="45.73812528864757" lon="11.730694389476687"><ele>96.80000000000001</ele><time>2026-05-02T06:38:08.45Z</time></trkpt><trkpt lat="45.73808507329713" lon="11.730818831443239"><ele>97.4</ele><time>2026-05-02T06:38:09.45Z</time></trkpt><trkpt lat="45.73804966993033" lon="11.73092179002022"><ele>98.0</ele><time>2026-05-02T06:38:10.45Z</time></trkpt><trkpt lat="45.737997978763474" lon="11.731050111101881"><ele>98.5</ele><time>2026-05-02T06:38:11.45Z</time></trkpt><trkpt lat="45.73790609897345" lon="11.731155211260608"><ele>99.0</ele><time>2026-05-02T06:38:12.45Z</time></trkpt><trkpt lat="45.73786306647065" lon="11.731310140618655"><ele>99.5</ele><time>2026-05-02T06:38:13.45Z</time></trkpt><trkpt lat="45.73783970648381" lon="11.731482103585863"><ele>100.0</ele><time>2026-05-02T06:38:14.45Z</time></trkpt><trkpt lat="45.73787695155548" lon="11.731685360593504"><ele>99.66666666666667</ele><time>2026-05-02T06:38:15.45Z</time></trkpt><trkpt lat="45.737912189944524" lon="11.731902506526248"><ele>99.33333333333334</ele><time>2026-05-02T06:38:16.45Z</time></trkpt><trkpt lat="45.73794587390501" lon="11.732143630852734"><ele>99.0</ele><time>2026-05-02T06:38:17.45Z</time></trkpt><trkpt lat="45.73796990717259" lon="11.73235521991542"><ele>99.0</ele><time>2026-05-02T06:38:18.45Z</time></trkpt><trkpt lat="45.73763164953837" lon="11.732688175114118"><ele>99.0</ele><time>2026-05-02T06:38:19.45Z</time></trkpt><trkpt lat="45.737570496062006" lon="11.732941261092906"><ele>99.33333333333334</ele><time>2026-05-02T06:38:20.45Z</time></trkpt><trkpt lat="45.73750147309365" lon="11.733199487644931"><ele>99.66666666666667</ele><time>2026-05-02T06:38:21.45Z</time></trkpt><trkpt lat="45.73742904741002" lon="11.733473047346683"><ele>100.0</ele><time>2026-05-02T06:38:22.45Z</time></trkpt><trkpt lat="45.73735309491344" lon="11.733780808113995"><ele>100.0</ele><time>2026-05-02T06:38:23.45Z</time></trkpt><trkpt lat="45.737278961715155" lon="11.734086712860107"><ele>100.0</ele><time>2026-05-02T06:38:24.45Z</time></trkpt><trkpt lat="45.737214274326575" lon="11.734398344355842"><ele>100.0</ele><time>2026-05-02T06:38:25.45Z</time></trkpt><trkpt lat="45.73714489760132" lon="11.734686236722562"><ele>100.0</ele><time>2026-05-02T06:38:26.45Z</time></trkpt><trkpt lat="45.73708347914603" lon="11.73497095913385"><ele>100.0</ele><time>2026-05-02T06:38:27.45Z</time></trkpt><trkpt lat="45.73701388128897" lon="11.735271695232065"><ele>100.0</ele><time>2026-05-02T06:38:28.45Z</time></trkpt><trkpt lat="45.73693894437571" lon="11.73559409067101"><ele>100.0</ele><time>2026-05-02T06:38:29.45Z</time></trkpt><trkpt lat="45.73686650987587" lon="11.73592211292435"><ele>100.0</ele><time>2026-05-02T06:38:30.45Z</time></trkpt><trkpt lat="45.736802996952086" lon="11.736237490090922"><ele>100.0</ele><time>2026-05-02T06:38:31.45Z</time></trkpt><trkpt lat="45.73671845670706" lon="11.736579432192748"><ele>100.33333333333334</ele><time>2026-05-02T06:38:32.45Z</time></trkpt><trkpt lat="45.73666275391128" lon="11.736887624193367"><ele>100.66666666666666</ele><time>2026-05-02T06:38:33.45Z</time></trkpt><trkpt lat="45.73659460565162" lon="11.737197222445545"><ele>101.0</ele><time>2026-05-02T06:38:34.45Z</time></trkpt><trkpt lat="45.736535828198605" lon="11.737509533874773"><ele>101.0</ele><time>2026-05-02T06:38:35.45Z</time></trkpt><trkpt lat="45.73645483719846" lon="11.737819320922332"><ele>101.0</ele><time>2026-05-02T06:38:36.45Z</time></trkpt><trkpt lat="45.736365316705346" lon="11.738117032922707"><ele>101.0</ele><time>2026-05-02T06:38:37.45Z</time></trkpt><trkpt lat="45.73630208655839" lon="11.73841558238072"><ele>101.0</ele><time>2026-05-02T06:38:38.45Z</time></trkpt><trkpt lat="45.736243855962385" lon="11.738715267037112"><ele>101.0</ele><time>2026-05-02T06:38:39.45Z</time></trkpt><trkpt lat="45.73619357826704" lon="11.738987867337874"><ele>100.66666666666666</ele><time>2026-05-02T06:38:40.451Z</time></trkpt><trkpt lat="45.736146938559855" lon="11.739248737246431"><ele>100.33333333333334</ele><time>2026-05-02T06:38:41.451Z</time></trkpt><trkpt lat="45.736120562782936" lon="11.739508278762369"><ele>100.0</ele><time>2026-05-02T06:38:42.451Z</time></trkpt><trkpt lat="45.73610341745062" lon="11.739752254881852"><ele>100.0</ele><time>2026-05-02T06:38:43.451Z</time></trkpt><trkpt lat="45.73609728927612" lon="11.739978163275"><ele>100.0</ele><time>2026-05-02T06:38:44.451Z</time></trkpt><trkpt lat="45.73607361533232" lon="11.740204443518733"><ele>100.0</ele><time>2026-05-02T06:38:45.451Z</time></trkpt><trkpt lat="45.73604740303986" lon="11.740424199685437"><ele>100.0</ele><time>2026-05-02T06:38:46.451Z</time></trkpt><trkpt lat="45.73602140365943" lon="11.740605458120749"><ele>100.0</ele><time>2026-05-02T06:38:47.451Z</time></trkpt><trkpt lat="45.73601358145417" lon="11.740788458783243"><ele>100.0</ele><time>2026-05-02T06:38:48.451Z</time></trkpt><trkpt lat="45.73602644214283" lon="11.740941816499891"><ele>100.0</ele><time>2026-05-02T06:38:49.451Z</time></trkpt><trkpt lat="45.73604439830004" lon="11.741099147200622"><ele>100.50000000000001</ele><time>2026-05-02T06:38:50.451Z</time></trkpt><trkpt lat="45.73605435121323" lon="11.741226255962706"><ele>101.0</ele><time>2026-05-02T06:38:51.451Z</time></trkpt><trkpt lat="45.73607440746311" lon="11.74136978827396"><ele>101.5</ele><time>2026-05-02T06:38:52.451Z</time></trkpt><trkpt lat="45.736046935760264" lon="11.741488946966118"><ele>102.0</ele><time>2026-05-02T06:38:53.451Z</time></trkpt><trkpt lat="45.73604781267936" lon="11.741610177194291"><ele>102.50000000000001</ele><time>2026-05-02T06:38:54.451Z</time></trkpt><trkpt lat="45.7360774860885" lon="11.741718261368673"><ele>103.0</ele><time>2026-05-02T06:38:55.451Z</time></trkpt><trkpt lat="45.73611983516387" lon="11.741804304557537"><ele>103.00000000000001</ele><time>2026-05-02T06:38:56.451Z</time></trkpt><trkpt lat="45.73616761644446" lon="11.741882912776914"><ele>103.0</ele><time>2026-05-02T06:38:57.451Z</time></trkpt><trkpt lat="45.73623320535059" lon="11.741916957193633"><ele>103.0</ele><time>2026-05-02T06:38:58.451Z</time></trkpt><trkpt lat="45.73631510266163" lon="11.741944931288867"><ele>103.0</ele><time>2026-05-02T06:38:59.451Z</time></trkpt><trkpt lat="45.73638742271017" lon="11.74195157006034"><ele>103.00000000000001</ele><time>2026-05-02T06:39:00.451Z</time></trkpt><trkpt lat="45.73644970851056" lon="11.742014195663572"><ele>103.0</ele><time>2026-05-02T06:39:01.451Z</time></trkpt><trkpt lat="45.736493347213845" lon="11.742115751044537"><ele>103.0</ele><time>2026-05-02T06:39:02.451Z</time></trkpt><trkpt lat="45.73651740932176" lon="11.742238822657201"><ele>103.0</ele><time>2026-05-02T06:39:03.451Z</time></trkpt><trkpt lat="45.73653834051635" lon="11.74238205979007"><ele>103.0</ele><time>2026-05-02T06:39:04.451Z</time></trkpt><trkpt lat="45.73654090832549" lon="11.742547402168423"><ele>103.0</ele><time>2026-05-02T06:39:05.451Z</time></trkpt><trkpt lat="45.736539474895" lon="11.742728387757639"><ele>103.0</ele><time>2026-05-02T06:39:06.451Z</time></trkpt><trkpt lat="45.73652059820232" lon="11.74294044881606"><ele>103.0</ele><time>2026-05-02T06:39:07.451Z</time></trkpt><trkpt lat="45.73651133393311" lon="11.743201672926277"><ele>103.0</ele><time>2026-05-02T06:39:08.451Z</time></trkpt><trkpt lat="45.73649665168151" lon="11.74349486496423"><ele>103.0</ele><time>2026-05-02T06:39:09.451Z</time></trkpt><trkpt lat="45.73647639305361" lon="11.743837341962166"><ele>102.5</ele><time>2026-05-02T06:39:10.451Z</time></trkpt><trkpt lat="45.736457959840536" lon="11.74422879867636"><ele>102.0</ele><time>2026-05-02T06:39:11.451Z</time></trkpt><trkpt lat="45.73644086479684" lon="11.744603135881848"><ele>102.0</ele><time>2026-05-02T06:39:12.451Z</time></trkpt><trkpt lat="45.73641746882479" lon="11.744943685900825"><ele>102.0</ele><time>2026-05-02T06:39:13.451Z</time></trkpt><trkpt lat="45.73638144567157" lon="11.745295234822375"><ele>102.0</ele><time>2026-05-02T06:39:14.451Z</time></trkpt><trkpt lat="45.736350380002385" lon="11.74563678318209"><ele>102.0</ele><time>2026-05-02T06:39:15.451Z</time></trkpt><trkpt lat="45.736333309858246" lon="11.745953322519863"><ele>100.5</ele><time>2026-05-02T06:39:16.451Z</time></trkpt><trkpt lat="45.7363156515607" lon="11.746271102129867"><ele>99.0</ele><time>2026-05-02T06:39:17.451Z</time></trkpt><trkpt lat="45.736300820254264" lon="11.746613994130778"><ele>100.0</ele><time>2026-05-02T06:39:18.451Z</time></trkpt><trkpt lat="45.73628360541643" lon="11.746967098522054"><ele>101.0</ele><time>2026-05-02T06:39:19.451Z</time></trkpt><trkpt lat="45.73625755329199" lon="11.747310836053854"><ele>101.0</ele><time>2026-05-02T06:39:20.451Z</time></trkpt><trkpt lat="45.736240276748326" lon="11.747631318259037"><ele>101.0</ele><time>2026-05-02T06:39:21.451Z</time></trkpt><trkpt lat="45.73622695142914" lon="11.747975210255879"><ele>101.5</ele><time>2026-05-02T06:39:22.451Z</time></trkpt><trkpt lat="45.7362163059107" lon="11.748316151173402"><ele>102.0</ele><time>2026-05-02T06:39:23.451Z</time></trkpt><trkpt lat="45.736191397685715" lon="11.748668769158693"><ele>102.0</ele><time>2026-05-02T06:39:24.451Z</time></trkpt><trkpt lat="45.73617584741134" lon="11.74900600558203"><ele>102.0</ele><time>2026-05-02T06:39:25.451Z</time></trkpt><trkpt lat="45.73616473381082" lon="11.749326413121985"><ele>102.0</ele><time>2026-05-02T06:39:26.451Z</time></trkpt><trkpt lat="45.73615650474023" lon="11.74964522857882"><ele>102.0</ele><time>2026-05-02T06:39:27.451Z</time></trkpt><trkpt lat="45.73616775512545" lon="11.74996476553196"><ele>102.0</ele><time>2026-05-02T06:39:28.451Z</time></trkpt><trkpt lat="45.736164546860756" lon="11.750296120001197"><ele>102.5</ele><time>2026-05-02T06:39:29.451Z</time></trkpt><trkpt lat="45.73616291086278" lon="11.750616939593666"><ele>103.0</ele><time>2026-05-02T06:39:30.451Z</time></trkpt><trkpt lat="45.73618336251012" lon="11.750951359960759"><ele>103.5</ele><time>2026-05-02T06:39:31.451Z</time></trkpt><trkpt lat="45.73619715612748" lon="11.75129275132557"><ele>104.0</ele><time>2026-05-02T06:39:32.451Z</time></trkpt><trkpt lat="45.73620062568856" lon="11.751650130728454"><ele>103.5</ele><time>2026-05-02T06:39:33.451Z</time></trkpt><trkpt lat="45.73624508758902" lon="11.752016550513547"><ele>103.0</ele><time>2026-05-02T06:39:34.451Z</time></trkpt><trkpt lat="45.736306587780255" lon="11.752384795917528"><ele>101.5</ele><time>2026-05-02T06:39:35.451Z</time></trkpt><trkpt lat="45.7363534876831" lon="11.752747092648413"><ele>100.0</ele><time>2026-05-02T06:39:36.451Z</time></trkpt><trkpt lat="45.736392611160255" lon="11.753112866268154"><ele>100.0</ele><time>2026-05-02T06:39:37.451Z</time></trkpt><trkpt lat="45.73642850107569" lon="11.753482441613318"><ele>100.0</ele><time>2026-05-02T06:39:38.451Z</time></trkpt><trkpt lat="45.73648357063501" lon="11.753849113908528"><ele>100.5</ele><time>2026-05-02T06:39:39.451Z</time></trkpt><trkpt lat="45.7365289769063" lon="11.754211684020909"><ele>101.0</ele><time>2026-05-02T06:39:40.451Z</time></trkpt><trkpt lat="45.73658631236943" lon="11.754574420517095"><ele>101.0</ele><time>2026-05-02T06:39:41.451Z</time></trkpt><trkpt lat="45.73663257254118" lon="11.754898927752702"><ele>101.0</ele><time>2026-05-02T06:39:42.451Z</time></trkpt><trkpt lat="45.736677655677624" lon="11.755216750063575"><ele>101.0</ele><time>2026-05-02T06:39:43.451Z</time></trkpt><trkpt lat="45.73670463449972" lon="11.755518484253397"><ele>101.0</ele><time>2026-05-02T06:39:44.451Z</time></trkpt><trkpt lat="45.73675413609151" lon="11.755796815686132"><ele>101.0</ele><time>2026-05-02T06:39:45.451Z</time></trkpt><trkpt lat="45.736790816019266" lon="11.756067495839657"><ele>101.0</ele><time>2026-05-02T06:39:46.451Z</time></trkpt><trkpt lat="45.736823431768485" lon="11.756343973701236"><ele>101.0</ele><time>2026-05-02T06:39:47.451Z</time></trkpt><trkpt lat="45.736857616659215" lon="11.756615676011007"><ele>101.0</ele><time>2026-05-02T06:39:48.451Z</time></trkpt><trkpt lat="45.736902604839145" lon="11.75688270909828"><ele>101.66666666666666</ele><time>2026-05-02T06:39:49.451Z</time></trkpt><trkpt lat="45.73690497156586" lon="11.75715526742196"><ele>102.33333333333334</ele><time>2026-05-02T06:39:50.451Z</time></trkpt><trkpt lat="45.7369329913079" lon="11.75741059888739"><ele>103.0</ele><time>2026-05-02T06:39:51.451Z</time></trkpt><trkpt lat="45.73696800178906" lon="11.757648616022347"><ele>102.80000000000001</ele><time>2026-05-02T06:39:52.451Z</time></trkpt><trkpt lat="45.7370082000997" lon="11.757847493536362"><ele>102.6</ele><time>2026-05-02T06:39:53.451Z</time></trkpt><trkpt lat="45.73703372762561" lon="11.758018328183024"><ele>102.4</ele><time>2026-05-02T06:39:54.451Z</time></trkpt><trkpt lat="45.73708062379775" lon="11.758134820247754"><ele>102.19999999999999</ele><time>2026-05-02T06:39:55.451Z</time></trkpt><trkpt lat="45.737109033206124" lon="11.75822924055007"><ele>102.0</ele><time>2026-05-02T06:39:56.451Z</time></trkpt><trkpt lat="45.73711869771824" lon="11.758378712151421"><ele>102.0</ele><time>2026-05-02T06:39:59.451Z</time></trkpt><trkpt lat="45.737124972103445" lon="11.758488324747937"><ele>102.0</ele><time>2026-05-02T06:40:01.451Z</time></trkpt><trkpt lat="45.73712151951795" lon="11.758690790755967"><ele>102.0</ele><time>2026-05-02T06:40:03.451Z</time></trkpt><trkpt lat="45.7370915086948" lon="11.758789528504819"><ele>102.0</ele><time>2026-05-02T06:40:04.451Z</time></trkpt><trkpt lat="45.737075100466726" lon="11.758878230725678"><ele>102.0</ele><time>2026-05-02T06:40:05.451Z</time></trkpt><trkpt lat="45.73706018674816" lon="11.758997034886727"><ele>102.0</ele><time>2026-05-02T06:40:06.451Z</time></trkpt><trkpt lat="45.737067877632875" lon="11.75911026231748"><ele>102.19999999999999</ele><time>2026-05-02T06:40:07.451Z</time></trkpt><trkpt lat="45.73712127484558" lon="11.759215269207411"><ele>102.4</ele><time>2026-05-02T06:40:08.451Z</time></trkpt><trkpt lat="45.73718658145123" lon="11.759284880228522"><ele>102.6</ele><time>2026-05-02T06:40:09.451Z</time></trkpt><trkpt lat="45.737263810820764" lon="11.759364455814126"><ele>102.80000000000001</ele><time>2026-05-02T06:40:10.451Z</time></trkpt><trkpt lat="45.73731453995837" lon="11.759461717887934"><ele>103.0</ele><time>2026-05-02T06:40:11.451Z</time></trkpt><trkpt lat="45.73736021289097" lon="11.759602974940812"><ele>103.0</ele><time>2026-05-02T06:40:12.451Z</time></trkpt><trkpt lat="45.73739851303344" lon="11.759795975565416"><ele>103.0</ele><time>2026-05-02T06:40:13.451Z</time></trkpt><trkpt lat="45.737444691327845" lon="11.760017206076903"><ele>103.0</ele><time>2026-05-02T06:40:14.451Z</time></trkpt><trkpt lat="45.73747187237078" lon="11.760217231037965"><ele>103.0</ele><time>2026-05-02T06:40:15.451Z</time></trkpt><trkpt lat="45.73749960043165" lon="11.760436096324769"><ele>103.0</ele><time>2026-05-02T06:40:16.451Z</time></trkpt><trkpt lat="45.737499996640324" lon="11.76068542134758"><ele>103.0</ele><time>2026-05-02T06:40:17.451Z</time></trkpt><trkpt lat="45.73748633707522" lon="11.760932023864191"><ele>103.0</ele><time>2026-05-02T06:40:18.451Z</time></trkpt><trkpt lat="45.73747201858424" lon="11.761173011609413"><ele>102.33333333333334</ele><time>2026-05-02T06:40:19.451Z</time></trkpt><trkpt lat="45.73745696152512" lon="11.761414091568568"><ele>101.66666666666666</ele><time>2026-05-02T06:40:20.451Z</time></trkpt><trkpt lat="45.73745732235326" lon="11.76164065313245"><ele>101.0</ele><time>2026-05-02T06:40:21.451Z</time></trkpt><trkpt lat="45.73748369887951" lon="11.761887767715946"><ele>101.0</ele><time>2026-05-02T06:40:22.451Z</time></trkpt><trkpt lat="45.73751636460917" lon="11.762140349043012"><ele>101.0</ele><time>2026-05-02T06:40:23.451Z</time></trkpt><trkpt lat="45.737545849611514" lon="11.762372085846973"><ele>101.0</ele><time>2026-05-02T06:40:24.451Z</time></trkpt><trkpt lat="45.73757928189475" lon="11.762611012948147"><ele>101.0</ele><time>2026-05-02T06:40:25.451Z</time></trkpt><trkpt lat="45.73761800143903" lon="11.762850432491733"><ele>101.0</ele><time>2026-05-02T06:40:26.451Z</time></trkpt><trkpt lat="45.73766204955944" lon="11.763101373927325"><ele>101.0</ele><time>2026-05-02T06:40:27.451Z</time></trkpt><trkpt lat="45.73772211444752" lon="11.763362914075165"><ele>101.33333333333333</ele><time>2026-05-02T06:40:28.451Z</time></trkpt><trkpt lat="45.73775670688508" lon="11.763635427812115"><ele>101.66666666666666</ele><time>2026-05-02T06:40:29.451Z</time></trkpt><trkpt lat="45.73780833828068" lon="11.76394148728327"><ele>102.0</ele><time>2026-05-02T06:40:30.451Z</time></trkpt><trkpt lat="45.737874875923715" lon="11.764251216116591"><ele>102.0</ele><time>2026-05-02T06:40:31.451Z</time></trkpt><trkpt lat="45.7379093404735" lon="11.764571833773152"><ele>102.0</ele><time>2026-05-02T06:40:32.451Z</time></trkpt><trkpt lat="45.737951509599654" lon="11.764890500791486"><ele>102.0</ele><time>2026-05-02T06:40:33.451Z</time></trkpt><trkpt lat="45.738014101350096" lon="11.765221731242686"><ele>102.0</ele><time>2026-05-02T06:40:34.451Z</time></trkpt><trkpt lat="45.73807236305596" lon="11.765579368076837"><ele>102.0</ele><time>2026-05-02T06:40:35.451Z</time></trkpt><trkpt lat="45.73812432428569" lon="11.765920967980676"><ele>102.0</ele><time>2026-05-02T06:40:36.451Z</time></trkpt><trkpt lat="45.738156174070255" lon="11.766252022470058"><ele>102.0</ele><time>2026-05-02T06:40:37.451Z</time></trkpt><trkpt lat="45.73819417232274" lon="11.766550001454593"><ele>102.0</ele><time>2026-05-02T06:40:38.451Z</time></trkpt><trkpt lat="45.73824001537616" lon="11.766850285113629"><ele>102.0</ele><time>2026-05-02T06:40:39.451Z</time></trkpt><trkpt lat="45.738279111446964" lon="11.767154219520748"><ele>102.33333333333334</ele><time>2026-05-02T06:40:40.451Z</time></trkpt><trkpt lat="45.73831605088175" lon="11.767447503505862"><ele>102.66666666666667</ele><time>2026-05-02T06:40:41.451Z</time></trkpt><trkpt lat="45.73837898745481" lon="11.767751392131125"><ele>103.0</ele><time>2026-05-02T06:40:42.451Z</time></trkpt><trkpt lat="45.73847408502584" lon="11.768049329981206"><ele>102.5</ele><time>2026-05-02T06:40:43.451Z</time></trkpt><trkpt lat="45.73856121147597" lon="11.768374496081073"><ele>102.0</ele><time>2026-05-02T06:40:44.451Z</time></trkpt><trkpt lat="45.738676496775916" lon="11.768641227004723"><ele>102.0</ele><time>2026-05-02T06:40:45.451Z</time></trkpt><trkpt lat="45.73878499699862" lon="11.768880594997823"><ele>102.0</ele><time>2026-05-02T06:40:46.452Z</time></trkpt><trkpt lat="45.738850962493466" lon="11.769100338623872"><ele>102.0</ele><time>2026-05-02T06:40:47.452Z</time></trkpt><trkpt lat="45.73889907989457" lon="11.769306197742695"><ele>102.25</ele><time>2026-05-02T06:40:48.452Z</time></trkpt><trkpt lat="45.73896460547761" lon="11.769501702356337"><ele>102.5</ele><time>2026-05-02T06:40:49.452Z</time></trkpt><trkpt lat="45.73899294094004" lon="11.769695913221206"><ele>102.75</ele><time>2026-05-02T06:40:50.452Z</time></trkpt><trkpt lat="45.739026471404955" lon="11.769906853800602"><ele>103.0</ele><time>2026-05-02T06:40:51.452Z</time></trkpt><trkpt lat="45.73908860601399" lon="11.770119780474497"><ele>102.75</ele><time>2026-05-02T06:40:52.452Z</time></trkpt><trkpt lat="45.7391081223443" lon="11.770342868396154"><ele>102.5</ele><time>2026-05-02T06:40:53.452Z</time></trkpt><trkpt lat="45.739108807232995" lon="11.770561650353436"><ele>102.25</ele><time>2026-05-02T06:40:54.452Z</time></trkpt><trkpt lat="45.739114742424455" lon="11.77075755326882"><ele>102.0</ele><time>2026-05-02T06:40:55.452Z</time></trkpt><trkpt lat="45.739100333977824" lon="11.770945559133386"><ele>101.75</ele><time>2026-05-02T06:40:56.452Z</time></trkpt><trkpt lat="45.7391065045055" lon="11.771143891627409"><ele>101.5</ele><time>2026-05-02T06:40:57.452Z</time></trkpt><trkpt lat="45.73910253038138" lon="11.771343967172129"><ele>101.25</ele><time>2026-05-02T06:40:58.452Z</time></trkpt><trkpt lat="45.73911027666131" lon="11.771555627215944"><ele>101.0</ele><time>2026-05-02T06:40:59.452Z</time></trkpt><trkpt lat="45.73913786251881" lon="11.77176409876018"><ele>101.0</ele><time>2026-05-02T06:41:00.452Z</time></trkpt><trkpt lat="45.73917878575984" lon="11.771998148651814"><ele>101.0</ele><time>2026-05-02T06:41:01.452Z</time></trkpt><trkpt lat="45.73920669030213" lon="11.772233538933948"><ele>101.0</ele><time>2026-05-02T06:41:02.452Z</time></trkpt><trkpt lat="45.73925787497965" lon="11.77244164373666"><ele>101.0</ele><time>2026-05-02T06:41:03.452Z</time></trkpt><trkpt lat="45.73932814852291" lon="11.77264886698466"><ele>101.0</ele><time>2026-05-02T06:41:04.452Z</time></trkpt><trkpt lat="45.739421040951406" lon="11.772850229081339"><ele>101.0</ele><time>2026-05-02T06:41:05.452Z</time></trkpt><trkpt lat="45.739515139286105" lon="11.773044950884078"><ele>101.66666666666666</ele><time>2026-05-02T06:41:06.452Z</time></trkpt><trkpt lat="45.739646091805" lon="11.773246650393121"><ele>102.33333333333334</ele><time>2026-05-02T06:41:07.452Z</time></trkpt><trkpt lat="45.73978633598236" lon="11.773431572253246"><ele>103.0</ele><time>2026-05-02T06:41:08.452Z</time></trkpt><trkpt lat="45.73994082403842" lon="11.773626854131923"><ele>103.0</ele><time>2026-05-02T06:41:09.452Z</time></trkpt><trkpt lat="45.740122493010006" lon="11.77381715542087"><ele>103.0</ele><time>2026-05-02T06:41:10.452Z</time></trkpt><trkpt lat="45.740310464434906" lon="11.773993271908493"><ele>103.0</ele><time>2026-05-02T06:41:11.452Z</time></trkpt><trkpt lat="45.74049342196384" lon="11.774146685083576"><ele>103.0</ele><time>2026-05-02T06:41:12.465Z</time></trkpt><trkpt lat="45.7406589763024" lon="11.77429832986865"><ele>103.0</ele><time>2026-05-02T06:41:13.465Z</time></trkpt><trkpt lat="45.74083210110358" lon="11.774436624349685"><ele>103.0</ele><time>2026-05-02T06:41:14.466Z</time></trkpt><trkpt lat="45.74101700833131" lon="11.774554878350157"><ele>103.0</ele><time>2026-05-02T06:41:15.468Z</time></trkpt><trkpt lat="45.74119127831398" lon="11.774718265494517"><ele>103.0</ele><time>2026-05-02T06:41:16.464Z</time></trkpt><trkpt lat="45.741548235030756" lon="11.775190138790025"><ele>103.0</ele><time>2026-05-02T06:41:19.452Z</time></trkpt><trkpt lat="45.74160140652716" lon="11.775586451514906"><ele>103.0</ele><time>2026-05-02T06:41:20.452Z</time></trkpt><trkpt lat="45.741752825571076" lon="11.775758448594203"><ele>102.0</ele><time>2026-05-02T06:41:21.452Z</time></trkpt><trkpt lat="45.74220711669107" lon="11.775470778735942"><ele>102.0</ele><time>2026-05-02T06:41:22.452Z</time></trkpt><trkpt lat="45.742441849545315" lon="11.775721268095198"><ele>102.0</ele><time>2026-05-02T06:41:24.452Z</time></trkpt><trkpt lat="45.74263700937673" lon="11.775815613128591"><ele>102.0</ele><time>2026-05-02T06:41:25.452Z</time></trkpt><trkpt lat="45.7428403819755" lon="11.775871551880883"><ele>102.0</ele><time>2026-05-02T06:41:26.452Z</time></trkpt><trkpt lat="45.7430742267077" lon="11.775911605407586"><ele>102.0</ele><time>2026-05-02T06:41:27.452Z</time></trkpt><trkpt lat="45.74331001135749" lon="11.77597695233115"><ele>102.33333333333334</ele><time>2026-05-02T06:41:28.452Z</time></trkpt><trkpt lat="45.74353502666838" lon="11.776025557498668"><ele>102.66666666666667</ele><time>2026-05-02T06:41:29.452Z</time></trkpt><trkpt lat="45.74375121702944" lon="11.776074082059628"><ele>103.0</ele><time>2026-05-02T06:41:30.452Z</time></trkpt><trkpt lat="45.74397443527289" lon="11.776099114482877"><ele>103.0</ele><time>2026-05-02T06:41:31.452Z</time></trkpt><trkpt lat="45.744198780200094" lon="11.776182929524232"><ele>103.0</ele><time>2026-05-02T06:41:32.452Z</time></trkpt><trkpt lat="45.744409677651326" lon="11.776209296866208"><ele>103.0</ele><time>2026-05-02T06:41:33.452Z</time></trkpt><trkpt lat="45.744650365946235" lon="11.776231779774543"><ele>103.0</ele><time>2026-05-02T06:41:34.452Z</time></trkpt><trkpt lat="45.74490294347418" lon="11.776283758494143"><ele>103.0</ele><time>2026-05-02T06:41:35.452Z</time></trkpt><trkpt lat="45.74516066171118" lon="11.77630746434688"><ele>102.5</ele><time>2026-05-02T06:41:36.452Z</time></trkpt><trkpt lat="45.74542245577401" lon="11.776314130942518"><ele>102.0</ele><time>2026-05-02T06:41:37.452Z</time></trkpt><trkpt lat="45.74567049803531" lon="11.776306194118012"><ele>102.0</ele><time>2026-05-02T06:41:38.452Z</time></trkpt><trkpt lat="45.745935289513014" lon="11.776284405414515"><ele>102.0</ele><time>2026-05-02T06:41:39.452Z</time></trkpt><trkpt lat="45.746174082758436" lon="11.77627680754585"><ele>102.5</ele><time>2026-05-02T06:41:40.452Z</time></trkpt><trkpt lat="45.746436191121575" lon="11.776284864599996"><ele>103.0</ele><time>2026-05-02T06:41:41.452Z</time></trkpt><trkpt lat="45.74672992189173" lon="11.776312332752116"><ele>104.5</ele><time>2026-05-02T06:41:42.452Z</time></trkpt><trkpt lat="45.74702068237436" lon="11.776321874030236"><ele>106.0</ele><time>2026-05-02T06:41:43.452Z</time></trkpt><trkpt lat="45.74729063786503" lon="11.776294113675675"><ele>106.0</ele><time>2026-05-02T06:41:44.452Z</time></trkpt><trkpt lat="45.747554762082274" lon="11.77628643856589"><ele>106.0</ele><time>2026-05-02T06:41:45.452Z</time></trkpt><trkpt lat="45.74783909196947" lon="11.776252290185159"><ele>105.5</ele><time>2026-05-02T06:41:46.452Z</time></trkpt><trkpt lat="45.74812129221215" lon="11.776247912075334"><ele>105.0</ele><time>2026-05-02T06:41:47.452Z</time></trkpt><trkpt lat="45.748388554377335" lon="11.776231372655557"><ele>105.0</ele><time>2026-05-02T06:41:48.452Z</time></trkpt><trkpt lat="45.74865972791622" lon="11.77622096127136"><ele>105.0</ele><time>2026-05-02T06:41:49.452Z</time></trkpt><trkpt lat="45.74892140878065" lon="11.7762040295874"><ele>105.0</ele><time>2026-05-02T06:41:50.452Z</time></trkpt><trkpt lat="45.749160788020625" lon="11.776217164747045"><ele>105.0</ele><time>2026-05-02T06:41:51.452Z</time></trkpt><trkpt lat="45.74940456092752" lon="11.776209820677515"><ele>105.5</ele><time>2026-05-02T06:41:52.452Z</time></trkpt><trkpt lat="45.74963764765642" lon="11.77624971999162"><ele>106.0</ele><time>2026-05-02T06:41:53.452Z</time></trkpt><trkpt lat="45.74989458983422" lon="11.776226413566546"><ele>106.0</ele><time>2026-05-02T06:41:54.452Z</time></trkpt><trkpt lat="45.75014932264332" lon="11.776221597748128"><ele>106.0</ele><time>2026-05-02T06:41:55.452Z</time></trkpt><trkpt lat="45.7504002505337" lon="11.776205138474523"><ele>106.0</ele><time>2026-05-02T06:41:56.452Z</time></trkpt><trkpt lat="45.75067297165151" lon="11.776187785410285"><ele>106.0</ele><time>2026-05-02T06:41:57.452Z</time></trkpt><trkpt lat="45.750939046433636" lon="11.776198836564715"><ele>106.5</ele><time>2026-05-02T06:41:58.452Z</time></trkpt><trkpt lat="45.75120051598696" lon="11.776183852410988"><ele>107.0</ele><time>2026-05-02T06:41:59.452Z</time></trkpt><trkpt lat="45.75146712589664" lon="11.776160028385359"><ele>107.0</ele><time>2026-05-02T06:42:00.452Z</time></trkpt><trkpt lat="45.75172527502959" lon="11.776128084712862"><ele>107.0</ele><time>2026-05-02T06:42:01.452Z</time></trkpt><trkpt lat="45.75197680898972" lon="11.776072456575982"><ele>107.5</ele><time>2026-05-02T06:42:02.452Z</time></trkpt><trkpt lat="45.752237792488145" lon="11.776063033064338"><ele>108.0</ele><time>2026-05-02T06:42:03.452Z</time></trkpt><trkpt lat="45.752478422708485" lon="11.775965013029532"><ele>108.0</ele><time>2026-05-02T06:42:04.452Z</time></trkpt><trkpt lat="45.7527316553502" lon="11.775910879359195"><ele>108.0</ele><time>2026-05-02T06:42:05.452Z</time></trkpt><trkpt lat="45.75298010703395" lon="11.775854763988411"><ele>108.0</ele><time>2026-05-02T06:42:06.452Z</time></trkpt><trkpt lat="45.753226904164315" lon="11.775781190891108"><ele>108.0</ele><time>2026-05-02T06:42:07.452Z</time></trkpt><trkpt lat="45.753469313801915" lon="11.775696752169646"><ele>108.5</ele><time>2026-05-02T06:42:08.452Z</time></trkpt><trkpt lat="45.75371162839116" lon="11.775633627638912"><ele>109.0</ele><time>2026-05-02T06:42:09.452Z</time></trkpt><trkpt lat="45.75394032725165" lon="11.775537350195398"><ele>109.0</ele><time>2026-05-02T06:42:10.452Z</time></trkpt><trkpt lat="45.75416525033203" lon="11.775461086197842"><ele>109.0</ele><time>2026-05-02T06:42:11.452Z</time></trkpt><trkpt lat="45.754381360331735" lon="11.775365391632395"><ele>109.0</ele><time>2026-05-02T06:42:12.452Z</time></trkpt><trkpt lat="45.7546040165419" lon="11.775283896011043"><ele>109.0</ele><time>2026-05-02T06:42:13.452Z</time></trkpt><trkpt lat="45.75483637825135" lon="11.775192140115221"><ele>108.0</ele><time>2026-05-02T06:42:14.452Z</time></trkpt><trkpt lat="45.75506686814191" lon="11.77508278130335"><ele>107.0</ele><time>2026-05-02T06:42:15.452Z</time></trkpt><trkpt lat="45.75531482333514" lon="11.774969859849485"><ele>110.0</ele><time>2026-05-02T06:42:16.452Z</time></trkpt><trkpt lat="45.755567841124325" lon="11.774861428720351"><ele>113.0</ele><time>2026-05-02T06:42:17.452Z</time></trkpt><trkpt lat="45.75582076883513" lon="11.774761658003655"><ele>112.0</ele><time>2026-05-02T06:42:18.452Z</time></trkpt><trkpt lat="45.75605847101701" lon="11.774659503203475"><ele>111.0</ele><time>2026-05-02T06:42:19.452Z</time></trkpt><trkpt lat="45.756266114382925" lon="11.774557569763644"><ele>111.0</ele><time>2026-05-02T06:42:20.452Z</time></trkpt><trkpt lat="45.75647299915963" lon="11.774463422632458"><ele>111.0</ele><time>2026-05-02T06:42:21.452Z</time></trkpt><trkpt lat="45.75667789203076" lon="11.774370281758639"><ele>111.0</ele><time>2026-05-02T06:42:22.452Z</time></trkpt><trkpt lat="45.75688227362627" lon="11.77427805023026"><ele>111.0</ele><time>2026-05-02T06:42:23.452Z</time></trkpt><trkpt lat="45.757074281097026" lon="11.77419001118115"><ele>111.0</ele><time>2026-05-02T06:42:24.452Z</time></trkpt><trkpt lat="45.75726658260822" lon="11.774091044695822"><ele>111.0</ele><time>2026-05-02T06:42:25.452Z</time></trkpt><trkpt lat="45.75746901939236" lon="11.77399361817736"><ele>111.0</ele><time>2026-05-02T06:42:26.452Z</time></trkpt><trkpt lat="45.75768532452895" lon="11.773891242324657"><ele>111.0</ele><time>2026-05-02T06:42:27.452Z</time></trkpt><trkpt lat="45.75791353092298" lon="11.773777584831118"><ele>111.0</ele><time>2026-05-02T06:42:28.452Z</time></trkpt><trkpt lat="45.75813735487544" lon="11.773640856384292"><ele>111.0</ele><time>2026-05-02T06:42:29.452Z</time></trkpt><trkpt lat="45.758328841982596" lon="11.773501967249816"><ele>110.5</ele><time>2026-05-02T06:42:30.452Z</time></trkpt><trkpt lat="45.75854237530364" lon="11.773381170375716"><ele>110.0</ele><time>2026-05-02T06:42:31.452Z</time></trkpt><trkpt lat="45.75876926854421" lon="11.773245627443865"><ele>110.0</ele><time>2026-05-02T06:42:32.452Z</time></trkpt><trkpt lat="45.758988750627154" lon="11.773104297128485"><ele>110.0</ele><time>2026-05-02T06:42:33.452Z</time></trkpt><trkpt lat="45.75921602406623" lon="11.772956764974253"><ele>112.0</ele><time>2026-05-02T06:42:34.452Z</time></trkpt><trkpt lat="45.75943730903565" lon="11.772812375014775"><ele>114.0</ele><time>2026-05-02T06:42:35.452Z</time></trkpt><trkpt lat="45.75965087534942" lon="11.772650181999035"><ele>114.0</ele><time>2026-05-02T06:42:36.452Z</time></trkpt><trkpt lat="45.7598808259343" lon="11.772483510884202"><ele>114.0</ele><time>2026-05-02T06:42:37.452Z</time></trkpt><trkpt lat="45.76011564719868" lon="11.772318751545342"><ele>113.5</ele><time>2026-05-02T06:42:38.452Z</time></trkpt><trkpt lat="45.76034833735735" lon="11.772147028760958"><ele>113.0</ele><time>2026-05-02T06:42:39.452Z</time></trkpt><trkpt lat="45.76057309542112" lon="11.771977922226252"><ele>114.0</ele><time>2026-05-02T06:42:40.452Z</time></trkpt><trkpt lat="45.76079420881351" lon="11.77179828401803"><ele>115.0</ele><time>2026-05-02T06:42:41.452Z</time></trkpt><trkpt lat="45.76101415484057" lon="11.771622940412698"><ele>115.0</ele><time>2026-05-02T06:42:42.452Z</time></trkpt><trkpt lat="45.76123688445349" lon="11.77143470272078"><ele>115.0</ele><time>2026-05-02T06:42:43.452Z</time></trkpt><trkpt lat="45.761461075094566" lon="11.771252825954225"><ele>115.0</ele><time>2026-05-02T06:42:44.452Z</time></trkpt><trkpt lat="45.76169254281204" lon="11.7710718966454"><ele>115.0</ele><time>2026-05-02T06:42:45.452Z</time></trkpt><trkpt lat="45.76192001941746" lon="11.770880447693363"><ele>114.5</ele><time>2026-05-02T06:42:46.452Z</time></trkpt><trkpt lat="45.76215432065103" lon="11.770680240179406"><ele>114.0</ele><time>2026-05-02T06:42:47.452Z</time></trkpt><trkpt lat="45.762383911310486" lon="11.770493185248478"><ele>114.0</ele><time>2026-05-02T06:42:48.452Z</time></trkpt><trkpt lat="45.76261175451393" lon="11.7703051734842"><ele>114.0</ele><time>2026-05-02T06:42:49.452Z</time></trkpt><trkpt lat="45.76283254666104" lon="11.770109350082276"><ele>115.0</ele><time>2026-05-02T06:42:50.452Z</time></trkpt><trkpt lat="45.76305325375847" lon="11.76991509182286"><ele>116.0</ele><time>2026-05-02T06:42:51.452Z</time></trkpt><trkpt lat="45.76328100650869" lon="11.769730633066642"><ele>116.0</ele><time>2026-05-02T06:42:52.453Z</time></trkpt><trkpt lat="45.763493662699695" lon="11.769540844440657"><ele>116.0</ele><time>2026-05-02T06:42:53.453Z</time></trkpt><trkpt lat="45.7637272935538" lon="11.769366336841678"><ele>117.5</ele><time>2026-05-02T06:42:54.453Z</time></trkpt><trkpt lat="45.76396528827713" lon="11.769194267316644"><ele>119.0</ele><time>2026-05-02T06:42:55.453Z</time></trkpt><trkpt lat="45.76419551291867" lon="11.769021974673892"><ele>119.0</ele><time>2026-05-02T06:42:56.453Z</time></trkpt><trkpt lat="45.764409901895036" lon="11.768859560318504"><ele>119.0</ele><time>2026-05-02T06:42:57.453Z</time></trkpt><trkpt lat="45.76463716826764" lon="11.768714636061132"><ele>119.0</ele><time>2026-05-02T06:42:58.453Z</time></trkpt><trkpt lat="45.764858630158244" lon="11.768566743396136"><ele>119.0</ele><time>2026-05-02T06:42:59.453Z</time></trkpt><trkpt lat="45.765082252858534" lon="11.768428518015858"><ele>119.0</ele><time>2026-05-02T06:43:00.453Z</time></trkpt><trkpt lat="45.76529915676355" lon="11.768301823310502"><ele>119.0</ele><time>2026-05-02T06:43:01.453Z</time></trkpt><trkpt lat="45.7655213114263" lon="11.768163234191196"><ele>119.0</ele><time>2026-05-02T06:43:02.453Z</time></trkpt><trkpt lat="45.76574712356852" lon="11.768033452614876"><ele>119.0</ele><time>2026-05-02T06:43:03.453Z</time></trkpt><trkpt lat="45.76597647787762" lon="11.767914985631029"><ele>120.0</ele><time>2026-05-02T06:43:04.453Z</time></trkpt><trkpt lat="45.76619881586449" lon="11.767797943466128"><ele>121.0</ele><time>2026-05-02T06:43:05.453Z</time></trkpt><trkpt lat="45.76643399602844" lon="11.76770709293425"><ele>121.0</ele><time>2026-05-02T06:43:06.453Z</time></trkpt><trkpt lat="45.76666629247524" lon="11.767599268817655"><ele>121.0</ele><time>2026-05-02T06:43:07.453Z</time></trkpt><trkpt lat="45.76687187570283" lon="11.76742676666159"><ele>120.5</ele><time>2026-05-02T06:43:08.453Z</time></trkpt><trkpt lat="45.76708501333694" lon="11.767313717458215"><ele>120.0</ele><time>2026-05-02T06:43:09.453Z</time></trkpt><trkpt lat="45.767305403266086" lon="11.767193682855972"><ele>120.0</ele><time>2026-05-02T06:43:10.453Z</time></trkpt><trkpt lat="45.767513708618175" lon="11.767102287207104"><ele>120.0</ele><time>2026-05-02T06:43:11.453Z</time></trkpt><trkpt lat="45.767721034179665" lon="11.766968693241719"><ele>120.0</ele><time>2026-05-02T06:43:12.453Z</time></trkpt><trkpt lat="45.767931200314244" lon="11.766854645845417"><ele>121.0</ele><time>2026-05-02T06:43:13.453Z</time></trkpt><trkpt lat="45.768143162760914" lon="11.766739317389678"><ele>122.0</ele><time>2026-05-02T06:43:14.453Z</time></trkpt><trkpt lat="45.76836577940753" lon="11.766617942479595"><ele>123.0</ele><time>2026-05-02T06:43:15.453Z</time></trkpt><trkpt lat="45.76858243598357" lon="11.766499817094894"><ele>124.0</ele><time>2026-05-02T06:43:16.453Z</time></trkpt><trkpt lat="45.768810297235014" lon="11.76637481490861"><ele>124.0</ele><time>2026-05-02T06:43:17.453Z</time></trkpt><trkpt lat="45.76901465517943" lon="11.76628555708035"><ele>124.0</ele><time>2026-05-02T06:43:18.453Z</time></trkpt><trkpt lat="45.76921908414968" lon="11.766141312073916"><ele>124.0</ele><time>2026-05-02T06:43:19.453Z</time></trkpt><trkpt lat="45.769427653468924" lon="11.766012766864804"><ele>125.0</ele><time>2026-05-02T06:43:20.453Z</time></trkpt><trkpt lat="45.76965042430572" lon="11.765906837081541"><ele>126.0</ele><time>2026-05-02T06:43:21.453Z</time></trkpt><trkpt lat="45.76986047849342" lon="11.765780487019192"><ele>126.0</ele><time>2026-05-02T06:43:22.453Z</time></trkpt><trkpt lat="45.77008351430308" lon="11.76564549542902"><ele>126.0</ele><time>2026-05-02T06:43:23.453Z</time></trkpt><trkpt lat="45.77027086434233" lon="11.765512606159348"><ele>126.0</ele><time>2026-05-02T06:43:24.453Z</time></trkpt><trkpt lat="45.770504239331196" lon="11.76539430170161"><ele>126.0</ele><time>2026-05-02T06:43:25.453Z</time></trkpt><trkpt lat="45.77071606989945" lon="11.765260537722796"><ele>126.5</ele><time>2026-05-02T06:43:26.453Z</time></trkpt><trkpt lat="45.770948793702246" lon="11.765145306265737"><ele>127.0</ele><time>2026-05-02T06:43:27.453Z</time></trkpt><trkpt lat="45.771153994271366" lon="11.765015514221117"><ele>127.0</ele><time>2026-05-02T06:43:28.453Z</time></trkpt><trkpt lat="45.77137361892402" lon="11.764907882689181"><ele>127.0</ele><time>2026-05-02T06:43:29.453Z</time></trkpt><trkpt lat="45.77157702361493" lon="11.764774230446271"><ele>127.0</ele><time>2026-05-02T06:43:30.453Z</time></trkpt><trkpt lat="45.77179981423686" lon="11.764656483931718"><ele>127.0</ele><time>2026-05-02T06:43:31.453Z</time></trkpt><trkpt lat="45.77201911920915" lon="11.764525636184112"><ele>127.0</ele><time>2026-05-02T06:43:32.453Z</time></trkpt><trkpt lat="45.77223952901234" lon="11.764404022077631"><ele>127.0</ele><time>2026-05-02T06:43:33.453Z</time></trkpt><trkpt lat="45.77245670905843" lon="11.76427141686829"><ele>128.0</ele><time>2026-05-02T06:43:34.453Z</time></trkpt><trkpt lat="45.77267679503493" lon="11.764126522440806"><ele>129.0</ele><time>2026-05-02T06:43:35.453Z</time></trkpt><trkpt lat="45.772911134654464" lon="11.764017260028146"><ele>129.0</ele><time>2026-05-02T06:43:36.453Z</time></trkpt><trkpt lat="45.773133647132035" lon="11.763882563420488"><ele>129.0</ele><time>2026-05-02T06:43:37.453Z</time></trkpt><trkpt lat="45.77336986506549" lon="11.763761749337977"><ele>128.0</ele><time>2026-05-02T06:43:38.453Z</time></trkpt><trkpt lat="45.773622635103514" lon="11.763628068290533"><ele>127.0</ele><time>2026-05-02T06:43:39.453Z</time></trkpt><trkpt lat="45.77386045635126" lon="11.763497079141901"><ele>127.0</ele><time>2026-05-02T06:43:40.453Z</time></trkpt><trkpt lat="45.77409419316413" lon="11.763369635287805"><ele>127.0</ele><time>2026-05-02T06:43:41.453Z</time></trkpt><trkpt lat="45.774333212551426" lon="11.76324844847018"><ele>127.0</ele><time>2026-05-02T06:43:42.453Z</time></trkpt><trkpt lat="45.774567710970395" lon="11.7631133263762"><ele>127.0</ele><time>2026-05-02T06:43:43.453Z</time></trkpt><trkpt lat="45.774821970232765" lon="11.7629862248672"><ele>127.0</ele><time>2026-05-02T06:43:44.453Z</time></trkpt><trkpt lat="45.77505842688824" lon="11.762876708858807"><ele>127.0</ele><time>2026-05-02T06:43:45.453Z</time></trkpt><trkpt lat="45.7753135102063" lon="11.762761709295445"><ele>127.5</ele><time>2026-05-02T06:43:46.453Z</time></trkpt><trkpt lat="45.7755637306725" lon="11.762629319076444"><ele>128.0</ele><time>2026-05-02T06:43:47.453Z</time></trkpt><trkpt lat="45.775821129057725" lon="11.762493925289201"><ele>129.0</ele><time>2026-05-02T06:43:48.453Z</time></trkpt><trkpt lat="45.77607796653968" lon="11.762363218130428"><ele>130.0</ele><time>2026-05-02T06:43:49.453Z</time></trkpt><trkpt lat="45.77632867267122" lon="11.762238141371144"><ele>130.0</ele><time>2026-05-02T06:43:50.453Z</time></trkpt><trkpt lat="45.77657748427904" lon="11.762117097289623"><ele>130.0</ele><time>2026-05-02T06:43:51.453Z</time></trkpt><trkpt lat="45.7768207940478" lon="11.761986936125524"><ele>130.0</ele><time>2026-05-02T06:43:52.453Z</time></trkpt><trkpt lat="45.77708703187164" lon="11.76186941822781"><ele>130.0</ele><time>2026-05-02T06:43:53.453Z</time></trkpt><trkpt lat="45.77734020188668" lon="11.76174073116381"><ele>131.0</ele><time>2026-05-02T06:43:54.453Z</time></trkpt><trkpt lat="45.77756838421328" lon="11.761612505780073"><ele>132.0</ele><time>2026-05-02T06:43:55.453Z</time></trkpt><trkpt lat="45.77781026607325" lon="11.761492979318472"><ele>132.0</ele><time>2026-05-02T06:43:56.453Z</time></trkpt><trkpt lat="45.77803521300441" lon="11.761364589584973"><ele>132.0</ele><time>2026-05-02T06:43:57.453Z</time></trkpt><trkpt lat="45.77826711885779" lon="11.761227856965194"><ele>132.0</ele><time>2026-05-02T06:43:58.453Z</time></trkpt><trkpt lat="45.77848060253129" lon="11.761109571546273"><ele>132.0</ele><time>2026-05-02T06:43:59.453Z</time></trkpt><trkpt lat="45.778722476570714" lon="11.760980968262478"><ele>132.0</ele><time>2026-05-02T06:44:00.453Z</time></trkpt><trkpt lat="45.77896111254191" lon="11.76084511045201"><ele>132.0</ele><time>2026-05-02T06:44:01.453Z</time></trkpt><trkpt lat="45.779203473865934" lon="11.760718259166424"><ele>132.5</ele><time>2026-05-02T06:44:02.453Z</time></trkpt><trkpt lat="45.7794402465992" lon="11.760594029560142"><ele>133.0</ele><time>2026-05-02T06:44:03.453Z</time></trkpt><trkpt lat="45.77967072140489" lon="11.760469624257288"><ele>133.0</ele><time>2026-05-02T06:44:04.453Z</time></trkpt><trkpt lat="45.779906911434566" lon="11.760348621151053"><ele>133.0</ele><time>2026-05-02T06:44:05.453Z</time></trkpt><trkpt lat="45.78014441107348" lon="11.760264314422031"><ele>134.5</ele><time>2026-05-02T06:44:06.453Z</time></trkpt><trkpt lat="45.7803764179211" lon="11.76015591625377"><ele>136.0</ele><time>2026-05-02T06:44:07.453Z</time></trkpt><trkpt lat="45.780606767245395" lon="11.760040912953842"><ele>136.0</ele><time>2026-05-02T06:44:08.453Z</time></trkpt><trkpt lat="45.780838268324985" lon="11.759929520454426"><ele>136.0</ele><time>2026-05-02T06:44:09.453Z</time></trkpt><trkpt lat="45.781066188117556" lon="11.759818687153858"><ele>136.5</ele><time>2026-05-02T06:44:10.453Z</time></trkpt><trkpt lat="45.78129050893109" lon="11.759697141221716"><ele>137.0</ele><time>2026-05-02T06:44:11.453Z</time></trkpt><trkpt lat="45.78151232643694" lon="11.759577975143047"><ele>137.0</ele><time>2026-05-02T06:44:12.453Z</time></trkpt><trkpt lat="45.78173586292617" lon="11.75946117506508"><ele>137.0</ele><time>2026-05-02T06:44:13.453Z</time></trkpt><trkpt lat="45.78195130848965" lon="11.759337248259282"><ele>137.5</ele><time>2026-05-02T06:44:14.453Z</time></trkpt><trkpt lat="45.78216315842775" lon="11.759196867703404"><ele>138.0</ele><time>2026-05-02T06:44:15.453Z</time></trkpt><trkpt lat="45.78239256560951" lon="11.759057723520195"><ele>138.0</ele><time>2026-05-02T06:44:16.453Z</time></trkpt><trkpt lat="45.78259731042215" lon="11.758882324804173"><ele>138.0</ele><time>2026-05-02T06:44:17.453Z</time></trkpt><trkpt lat="45.78283146417778" lon="11.758717455236576"><ele>139.0</ele><time>2026-05-02T06:44:18.453Z</time></trkpt><trkpt lat="45.783051052491565" lon="11.758519435892321"><ele>140.0</ele><time>2026-05-02T06:44:19.453Z</time></trkpt><trkpt lat="45.783267286303186" lon="11.758310033062848"><ele>140.0</ele><time>2026-05-02T06:44:20.453Z</time></trkpt><trkpt lat="45.783486303460315" lon="11.758106988065162"><ele>140.0</ele><time>2026-05-02T06:44:21.453Z</time></trkpt><trkpt lat="45.783685262065646" lon="11.757877288345172"><ele>142.0</ele><time>2026-05-02T06:44:22.453Z</time></trkpt><trkpt lat="45.78387240203009" lon="11.757598916376242"><ele>144.0</ele><time>2026-05-02T06:44:23.453Z</time></trkpt><trkpt lat="45.78405733675138" lon="11.757359659052506"><ele>144.0</ele><time>2026-05-02T06:44:24.453Z</time></trkpt><trkpt lat="45.784250519563955" lon="11.757093375001737"><ele>144.0</ele><time>2026-05-02T06:44:25.453Z</time></trkpt><trkpt lat="45.78442100344346" lon="11.756834952737968"><ele>142.0</ele><time>2026-05-02T06:44:26.453Z</time></trkpt><trkpt lat="45.78458025057775" lon="11.75655439426123"><ele>140.0</ele><time>2026-05-02T06:44:27.453Z</time></trkpt><trkpt lat="45.78471989985297" lon="11.756286133775475"><ele>141.0</ele><time>2026-05-02T06:44:28.453Z</time></trkpt><trkpt lat="45.784865218999066" lon="11.756027289536577"><ele>142.0</ele><time>2026-05-02T06:44:29.453Z</time></trkpt><trkpt lat="45.785004843066744" lon="11.755733729551268"><ele>142.0</ele><time>2026-05-02T06:44:30.453Z</time></trkpt><trkpt lat="45.78514980562411" lon="11.755434498469272"><ele>142.0</ele><time>2026-05-02T06:44:31.453Z</time></trkpt><trkpt lat="45.785284640179874" lon="11.75511690101247"><ele>143.0</ele><time>2026-05-02T06:44:32.453Z</time></trkpt><trkpt lat="45.78542130217975" lon="11.75478166709522"><ele>144.0</ele><time>2026-05-02T06:44:33.453Z</time></trkpt><trkpt lat="45.78555645254712" lon="11.754461659082777"><ele>144.0</ele><time>2026-05-02T06:44:34.453Z</time></trkpt><trkpt lat="45.785691779215036" lon="11.754125965403345"><ele>144.0</ele><time>2026-05-02T06:44:35.453Z</time></trkpt><trkpt lat="45.785819747662394" lon="11.753786618422588"><ele>143.0</ele><time>2026-05-02T06:44:36.453Z</time></trkpt><trkpt lat="45.78596819096168" lon="11.753450317621226"><ele>142.0</ele><time>2026-05-02T06:44:37.453Z</time></trkpt><trkpt lat="45.786109951695565" lon="11.753134824255273"><ele>144.5</ele><time>2026-05-02T06:44:38.453Z</time></trkpt><trkpt lat="45.78626133451844" lon="11.752790074268832"><ele>147.0</ele><time>2026-05-02T06:44:39.453Z</time></trkpt><trkpt lat="45.78640932836939" lon="11.752430609061582"><ele>147.0</ele><time>2026-05-02T06:44:40.453Z</time></trkpt><trkpt lat="45.78659699947968" lon="11.75208894333229"><ele>147.0</ele><time>2026-05-02T06:44:41.453Z</time></trkpt><trkpt lat="45.78674100984811" lon="11.75172331615723"><ele>147.5</ele><time>2026-05-02T06:44:42.453Z</time></trkpt><trkpt lat="45.78689813988693" lon="11.751370336853428"><ele>148.0</ele><time>2026-05-02T06:44:43.453Z</time></trkpt><trkpt lat="45.78703735454571" lon="11.751008067569089"><ele>148.0</ele><time>2026-05-02T06:44:44.453Z</time></trkpt><trkpt lat="45.78718924345747" lon="11.75068780962644"><ele>148.0</ele><time>2026-05-02T06:44:45.453Z</time></trkpt><trkpt lat="45.787334728740475" lon="11.750397099661843"><ele>147.5</ele><time>2026-05-02T06:44:46.453Z</time></trkpt><trkpt lat="45.787475198197384" lon="11.750114918441607"><ele>147.0</ele><time>2026-05-02T06:44:47.453Z</time></trkpt><trkpt lat="45.78758781261329" lon="11.74982418689477"><ele>147.0</ele><time>2026-05-02T06:44:48.453Z</time></trkpt><trkpt lat="45.787704805060955" lon="11.749539459935566"><ele>147.0</ele><time>2026-05-02T06:44:49.453Z</time></trkpt><trkpt lat="45.78780894661715" lon="11.749278795108427"><ele>147.0</ele><time>2026-05-02T06:44:50.453Z</time></trkpt><trkpt lat="45.787927493967516" lon="11.74901035584026"><ele>147.0</ele><time>2026-05-02T06:44:51.453Z</time></trkpt><trkpt lat="45.788041776896115" lon="11.748722822677784"><ele>147.0</ele><time>2026-05-02T06:44:52.453Z</time></trkpt><trkpt lat="45.78813270149115" lon="11.748462195914096"><ele>147.0</ele><time>2026-05-02T06:44:53.453Z</time></trkpt><trkpt lat="45.788268161707975" lon="11.748167889222705"><ele>147.33333333333334</ele><time>2026-05-02T06:44:54.453Z</time></trkpt><trkpt lat="45.78836150960002" lon="11.747889088446795"><ele>147.66666666666669</ele><time>2026-05-02T06:44:55.453Z</time></trkpt><trkpt lat="45.78842398773691" lon="11.747569859566388"><ele>148.0</ele><time>2026-05-02T06:44:56.453Z</time></trkpt><trkpt lat="45.78850517247785" lon="11.747252372258181"><ele>148.33333333333334</ele><time>2026-05-02T06:44:57.453Z</time></trkpt><trkpt lat="45.788578557108536" lon="11.746946265174362"><ele>148.66666666666666</ele><time>2026-05-02T06:44:58.454Z</time></trkpt><trkpt lat="45.78865175878993" lon="11.746643056912156"><ele>149.0</ele><time>2026-05-02T06:44:59.454Z</time></trkpt><trkpt lat="45.78871927947664" lon="11.746322708638267"><ele>149.5</ele><time>2026-05-02T06:45:00.454Z</time></trkpt><trkpt lat="45.78877202483218" lon="11.745986223001344"><ele>150.0</ele><time>2026-05-02T06:45:01.454Z</time></trkpt><trkpt lat="45.7888265782661" lon="11.745654472136664"><ele>150.0</ele><time>2026-05-02T06:45:02.454Z</time></trkpt><trkpt lat="45.788885749392044" lon="11.745320101531169"><ele>150.0</ele><time>2026-05-02T06:45:03.454Z</time></trkpt><trkpt lat="45.78891686846345" lon="11.744989281399425"><ele>150.0</ele><time>2026-05-02T06:45:04.454Z</time></trkpt><trkpt lat="45.788947778128964" lon="11.744647355944386"><ele>150.0</ele><time>2026-05-02T06:45:05.454Z</time></trkpt><trkpt lat="45.78896047628012" lon="11.744324474189094"><ele>150.0</ele><time>2026-05-02T06:45:06.454Z</time></trkpt><trkpt lat="45.78898713446082" lon="11.743998627839535"><ele>150.0</ele><time>2026-05-02T06:45:07.454Z</time></trkpt><trkpt lat="45.788972912614405" lon="11.74368940870679"><ele>150.0</ele><time>2026-05-02T06:45:08.454Z</time></trkpt><trkpt lat="45.78896116251878" lon="11.743386072010775"><ele>150.0</ele><time>2026-05-02T06:45:09.454Z</time></trkpt><trkpt lat="45.78895336038474" lon="11.743079747685943"><ele>150.0</ele><time>2026-05-02T06:45:10.454Z</time></trkpt><trkpt lat="45.788936097283745" lon="11.74278984802126"><ele>150.0</ele><time>2026-05-02T06:45:11.454Z</time></trkpt><trkpt lat="45.78892482199055" lon="11.74249266361235"><ele>149.66666666666666</ele><time>2026-05-02T06:45:12.454Z</time></trkpt><trkpt lat="45.78890177892615" lon="11.742186999342902"><ele>149.33333333333331</ele><time>2026-05-02T06:45:13.454Z</time></trkpt><trkpt lat="45.78890250191143" lon="11.741891629139593"><ele>149.0</ele><time>2026-05-02T06:45:14.454Z</time></trkpt><trkpt lat="45.788887863587235" lon="11.74157776511387"><ele>148.66666666666666</ele><time>2026-05-02T06:45:15.454Z</time></trkpt><trkpt lat="45.78889077258262" lon="11.741271945718642"><ele>148.33333333333334</ele><time>2026-05-02T06:45:16.454Z</time></trkpt><trkpt lat="45.78886986831697" lon="11.740963743868118"><ele>148.0</ele><time>2026-05-02T06:45:17.454Z</time></trkpt><trkpt lat="45.78887082579303" lon="11.740667330729735"><ele>148.0</ele><time>2026-05-02T06:45:18.454Z</time></trkpt><trkpt lat="45.788856500474814" lon="11.740342068984724"><ele>148.0</ele><time>2026-05-02T06:45:19.454Z</time></trkpt><trkpt lat="45.78886989972923" lon="11.740011110283119"><ele>148.5</ele><time>2026-05-02T06:45:20.454Z</time></trkpt><trkpt lat="45.78885822381847" lon="11.739683010830918"><ele>149.0</ele><time>2026-05-02T06:45:21.454Z</time></trkpt><trkpt lat="45.78884772226872" lon="11.739346682819605"><ele>148.0</ele><time>2026-05-02T06:45:22.454Z</time></trkpt><trkpt lat="45.788834043489274" lon="11.739030201713275"><ele>147.0</ele><time>2026-05-02T06:45:23.454Z</time></trkpt><trkpt lat="45.788823731923316" lon="11.738713761484089"><ele>146.0</ele><time>2026-05-02T06:45:24.454Z</time></trkpt><trkpt lat="45.788832320826536" lon="11.73839482913771"><ele>146.0</ele><time>2026-05-02T06:45:25.454Z</time></trkpt><trkpt lat="45.78882754657014" lon="11.738085497536105"><ele>146.0</ele><time>2026-05-02T06:45:26.454Z</time></trkpt><trkpt lat="45.78881512557645" lon="11.737779829628236"><ele>146.0</ele><time>2026-05-02T06:45:27.454Z</time></trkpt><trkpt lat="45.788799174713105" lon="11.737476799821518"><ele>146.0</ele><time>2026-05-02T06:45:28.454Z</time></trkpt><trkpt lat="45.788780367583186" lon="11.73715466280984"><ele>146.0</ele><time>2026-05-02T06:45:29.454Z</time></trkpt><trkpt lat="45.78877826038572" lon="11.73683720806689"><ele>146.0</ele><time>2026-05-02T06:45:30.454Z</time></trkpt><trkpt lat="45.78877559482351" lon="11.736514285053781"><ele>146.5</ele><time>2026-05-02T06:45:31.454Z</time></trkpt><trkpt lat="45.78876647678612" lon="11.736186248966812"><ele>147.0</ele><time>2026-05-02T06:45:32.454Z</time></trkpt><trkpt lat="45.78875511359633" lon="11.735856749283803"><ele>147.0</ele><time>2026-05-02T06:45:33.454Z</time></trkpt><trkpt lat="45.788752002171435" lon="11.73554400110258"><ele>147.0</ele><time>2026-05-02T06:45:34.454Z</time></trkpt><trkpt lat="45.78875233997841" lon="11.735239604360007"><ele>147.0</ele><time>2026-05-02T06:45:35.454Z</time></trkpt><trkpt lat="45.788728567824805" lon="11.73493485649574"><ele>146.0</ele><time>2026-05-02T06:45:36.454Z</time></trkpt><trkpt lat="45.7886810753185" lon="11.734627518861682"><ele>145.0</ele><time>2026-05-02T06:45:37.454Z</time></trkpt><trkpt lat="45.78861582364211" lon="11.734331181970708"><ele>144.0</ele><time>2026-05-02T06:45:38.454Z</time></trkpt><trkpt lat="45.788537757074224" lon="11.734043650557426"><ele>142.5</ele><time>2026-05-02T06:45:39.454Z</time></trkpt><trkpt lat="45.7884403107923" lon="11.73375340626643"><ele>141.0</ele><time>2026-05-02T06:45:40.454Z</time></trkpt><trkpt lat="45.78835057054975" lon="11.73345460707044"><ele>141.0</ele><time>2026-05-02T06:45:41.454Z</time></trkpt><trkpt lat="45.78826629513819" lon="11.73316219263135"><ele>141.0</ele><time>2026-05-02T06:45:42.454Z</time></trkpt><trkpt lat="45.78821289431736" lon="11.732857816947295"><ele>141.0</ele><time>2026-05-02T06:45:43.454Z</time></trkpt><trkpt lat="45.788182949742655" lon="11.732546400100643"><ele>140.5</ele><time>2026-05-02T06:45:44.454Z</time></trkpt><trkpt lat="45.7881688540055" lon="11.732227664481057"><ele>140.0</ele><time>2026-05-02T06:45:45.454Z</time></trkpt><trkpt lat="45.78817653406003" lon="11.731901358820387"><ele>137.5</ele><time>2026-05-02T06:45:46.454Z</time></trkpt><trkpt lat="45.78820195909202" lon="11.731573180483437"><ele>135.0</ele><time>2026-05-02T06:45:47.454Z</time></trkpt><trkpt lat="45.788248124224395" lon="11.73124344280322"><ele>134.5</ele><time>2026-05-02T06:45:48.454Z</time></trkpt><trkpt lat="45.78831619489487" lon="11.730930957497685"><ele>134.0</ele><time>2026-05-02T06:45:49.454Z</time></trkpt><trkpt lat="45.7883259934865" lon="11.730609965825723"><ele>134.0</ele><time>2026-05-02T06:45:50.454Z</time></trkpt><trkpt lat="45.78842289957894" lon="11.73030652401118"><ele>134.0</ele><time>2026-05-02T06:45:51.454Z</time></trkpt><trkpt lat="45.7885211908128" lon="11.730025859594628"><ele>133.0</ele><time>2026-05-02T06:45:52.454Z</time></trkpt><trkpt lat="45.78864368406823" lon="11.72975370210949"><ele>132.0</ele><time>2026-05-02T06:45:53.454Z</time></trkpt><trkpt lat="45.78878085916471" lon="11.729485484229517"><ele>131.5</ele><time>2026-05-02T06:45:54.454Z</time></trkpt><trkpt lat="45.78893563664094" lon="11.729251288283441"><ele>131.0</ele><time>2026-05-02T06:45:55.454Z</time></trkpt><trkpt lat="45.78910773633145" lon="11.729031494134299"><ele>131.0</ele><time>2026-05-02T06:45:56.454Z</time></trkpt><trkpt lat="45.78929869523095" lon="11.728813094203945"><ele>131.0</ele><time>2026-05-02T06:45:57.454Z</time></trkpt><trkpt lat="45.78947629753588" lon="11.728598537672308"><ele>132.0</ele><time>2026-05-02T06:45:58.454Z</time></trkpt><trkpt lat="45.789616252116105" lon="11.728388953924302"><ele>133.0</ele><time>2026-05-02T06:45:59.454Z</time></trkpt><trkpt lat="45.78977624093423" lon="11.728191343856558"><ele>134.0</ele><time>2026-05-02T06:46:00.454Z</time></trkpt><trkpt lat="45.789934754672046" lon="11.728017777307318"><ele>134.0</ele><time>2026-05-02T06:46:01.454Z</time></trkpt><trkpt lat="45.790070804889986" lon="11.727839006575852"><ele>134.0</ele><time>2026-05-02T06:46:02.454Z</time></trkpt><trkpt lat="45.79023383501221" lon="11.72765787162471"><ele>134.0</ele><time>2026-05-02T06:46:03.454Z</time></trkpt><trkpt lat="45.790380461981215" lon="11.72750119726773"><ele>134.66666666666666</ele><time>2026-05-02T06:46:04.454Z</time></trkpt><trkpt lat="45.79055060303411" lon="11.727351574060483"><ele>135.33333333333334</ele><time>2026-05-02T06:46:05.454Z</time></trkpt><trkpt lat="45.79069004121217" lon="11.727170816695665"><ele>136.0</ele><time>2026-05-02T06:46:06.454Z</time></trkpt><trkpt lat="45.79083337521005" lon="11.726998930964871"><ele>134.33333333333334</ele><time>2026-05-02T06:46:07.454Z</time></trkpt><trkpt lat="45.790959803160895" lon="11.726796040194317"><ele>132.66666666666666</ele><time>2026-05-02T06:46:08.454Z</time></trkpt><trkpt lat="45.79109135327835" lon="11.72659970662539"><ele>131.0</ele><time>2026-05-02T06:46:09.454Z</time></trkpt><trkpt lat="45.791244885447576" lon="11.726396410257477"><ele>132.0</ele><time>2026-05-02T06:46:10.454Z</time></trkpt><trkpt lat="45.79138316109485" lon="11.726187394465596"><ele>133.0</ele><time>2026-05-02T06:46:11.454Z</time></trkpt><trkpt lat="45.79152167710685" lon="11.725973641243296"><ele>134.0</ele><time>2026-05-02T06:46:12.454Z</time></trkpt><trkpt lat="45.791678856694695" lon="11.725792357763174"><ele>134.66666666666666</ele><time>2026-05-02T06:46:13.454Z</time></trkpt><trkpt lat="45.791841812349105" lon="11.725610673432577"><ele>135.33333333333334</ele><time>2026-05-02T06:46:14.454Z</time></trkpt><trkpt lat="45.79201884956769" lon="11.725429048317434"><ele>136.0</ele><time>2026-05-02T06:46:15.454Z</time></trkpt><trkpt lat="45.79219628728708" lon="11.725223592265401"><ele>136.0</ele><time>2026-05-02T06:46:16.454Z</time></trkpt><trkpt lat="45.79235564297592" lon="11.725010957766123"><ele>136.0</ele><time>2026-05-02T06:46:17.454Z</time></trkpt><trkpt lat="45.792514168967415" lon="11.724787442444747"><ele>136.0</ele><time>2026-05-02T06:46:18.454Z</time></trkpt><trkpt lat="45.792680237858505" lon="11.72456188586339"><ele>136.0</ele><time>2026-05-02T06:46:19.454Z</time></trkpt><trkpt lat="45.79282745712737" lon="11.724344664360157"><ele>136.0</ele><time>2026-05-02T06:46:20.454Z</time></trkpt><trkpt lat="45.792990531213306" lon="11.724137684654583"><ele>136.0</ele><time>2026-05-02T06:46:21.454Z</time></trkpt><trkpt lat="45.79315493745572" lon="11.723979101814033"><ele>136.0</ele><time>2026-05-02T06:46:22.454Z</time></trkpt><trkpt lat="45.793323669602955" lon="11.723815546247684"><ele>136.0</ele><time>2026-05-02T06:46:23.454Z</time></trkpt><trkpt lat="45.793488833089675" lon="11.723653913781055"><ele>136.0</ele><time>2026-05-02T06:46:24.454Z</time></trkpt><trkpt lat="45.79368707760339" lon="11.723536454692017"><ele>134.33333333333334</ele><time>2026-05-02T06:46:25.454Z</time></trkpt><trkpt lat="45.79387299058" lon="11.72342900515237"><ele>132.66666666666666</ele><time>2026-05-02T06:46:26.454Z</time></trkpt><trkpt lat="45.794094050191866" lon="11.723334832137189"><ele>131.0</ele><time>2026-05-02T06:46:27.454Z</time></trkpt><trkpt lat="45.7943124261353" lon="11.723246972968607"><ele>130.5</ele><time>2026-05-02T06:46:28.454Z</time></trkpt><trkpt lat="45.794539759442756" lon="11.723092265089106"><ele>130.0</ele><time>2026-05-02T06:46:29.454Z</time></trkpt><trkpt lat="45.794809219385165" lon="11.7230314454345"><ele>130.0</ele><time>2026-05-02T06:46:30.454Z</time></trkpt><trkpt lat="45.79499877336422" lon="11.722942346040792"><ele>130.0</ele><time>2026-05-02T06:46:31.454Z</time></trkpt><trkpt lat="45.79515414052568" lon="11.72284698589582"><ele>130.0</ele><time>2026-05-02T06:46:32.454Z</time></trkpt><trkpt lat="45.79533527669663" lon="11.722766909948593"><ele>129.33333333333334</ele><time>2026-05-02T06:46:33.454Z</time></trkpt><trkpt lat="45.795516606472596" lon="11.722709418520997"><ele>128.66666666666666</ele><time>2026-05-02T06:46:34.454Z</time></trkpt><trkpt lat="45.79566750155244" lon="11.722612421825213"><ele>128.0</ele><time>2026-05-02T06:46:35.454Z</time></trkpt><trkpt lat="45.79583475494721" lon="11.722523789427177"><ele>128.0</ele><time>2026-05-02T06:46:36.454Z</time></trkpt><trkpt lat="45.79599550293213" lon="11.722440999041817"><ele>128.0</ele><time>2026-05-02T06:46:37.454Z</time></trkpt><trkpt lat="45.79616547454274" lon="11.72236387560864"><ele>128.0</ele><time>2026-05-02T06:46:38.454Z</time></trkpt><trkpt lat="45.79635119869724" lon="11.722263484374274"><ele>128.0</ele><time>2026-05-02T06:46:39.454Z</time></trkpt><trkpt lat="45.79652800089027" lon="11.722159663874297"><ele>128.0</ele><time>2026-05-02T06:46:40.454Z</time></trkpt><trkpt lat="45.79671736250871" lon="11.722058844303382"><ele>128.0</ele><time>2026-05-02T06:46:41.454Z</time></trkpt><trkpt lat="45.79689889332154" lon="11.721951410844882"><ele>127.33333333333333</ele><time>2026-05-02T06:46:42.454Z</time></trkpt><trkpt lat="45.797084134644294" lon="11.721848311109133"><ele>126.66666666666666</ele><time>2026-05-02T06:46:43.454Z</time></trkpt><trkpt lat="45.79727580146498" lon="11.721745968839294"><ele>126.0</ele><time>2026-05-02T06:46:44.454Z</time></trkpt><trkpt lat="45.79747902392942" lon="11.721653815632154"><ele>126.33333333333334</ele><time>2026-05-02T06:46:45.454Z</time></trkpt><trkpt lat="45.79767972962474" lon="11.721549691008784"><ele>126.66666666666667</ele><time>2026-05-02T06:46:46.454Z</time></trkpt><trkpt lat="45.7978945373333" lon="11.721485092539163"><ele>127.0</ele><time>2026-05-02T06:46:47.454Z</time></trkpt><trkpt lat="45.79809628474825" lon="11.721392286295558"><ele>127.0</ele><time>2026-05-02T06:46:48.454Z</time></trkpt><trkpt lat="45.79828858930449" lon="11.721293408374985"><ele>127.0</ele><time>2026-05-02T06:46:49.454Z</time></trkpt><trkpt lat="45.79848858972828" lon="11.721193245893172"><ele>127.0</ele><time>2026-05-02T06:46:50.454Z</time></trkpt><trkpt lat="45.798692266178065" lon="11.721105984143003"><ele>126.66666666666667</ele><time>2026-05-02T06:46:51.454Z</time></trkpt><trkpt lat="45.7988933031163" lon="11.720991164077208"><ele>126.33333333333334</ele><time>2026-05-02T06:46:52.454Z</time></trkpt><trkpt lat="45.79909218376698" lon="11.720888263646211"><ele>126.0</ele><time>2026-05-02T06:46:53.454Z</time></trkpt><trkpt lat="45.799301345668056" lon="11.72079272415629"><ele>127.66666666666666</ele><time>2026-05-02T06:46:54.454Z</time></trkpt><trkpt lat="45.79950221788571" lon="11.72070913913344"><ele>129.33333333333331</ele><time>2026-05-02T06:46:55.454Z</time></trkpt><trkpt lat="45.79970632052737" lon="11.720617777605922"><ele>131.0</ele><time>2026-05-02T06:46:56.454Z</time></trkpt><trkpt lat="45.79989550220792" lon="11.720531864901442"><ele>131.0</ele><time>2026-05-02T06:46:57.454Z</time></trkpt><trkpt lat="45.80011131715673" lon="11.720452107255676"><ele>131.0</ele><time>2026-05-02T06:46:58.454Z</time></trkpt><trkpt lat="45.800295757507946" lon="11.72035429866843"><ele>131.0</ele><time>2026-05-02T06:46:59.454Z</time></trkpt><trkpt lat="45.80048587535462" lon="11.720269855156124"><ele>130.33333333333331</ele><time>2026-05-02T06:47:00.454Z</time></trkpt><trkpt lat="45.800693584093466" lon="11.720172412382764"><ele>129.66666666666666</ele><time>2026-05-02T06:47:01.454Z</time></trkpt><trkpt lat="45.80088780900051" lon="11.72006917965908"><ele>129.0</ele><time>2026-05-02T06:47:02.454Z</time></trkpt><trkpt lat="45.80108277430636" lon="11.71997822052129"><ele>129.0</ele><time>2026-05-02T06:47:03.454Z</time></trkpt><trkpt lat="45.80127644806907" lon="11.719903898212202"><ele>129.0</ele><time>2026-05-02T06:47:04.455Z</time></trkpt><trkpt lat="45.801467769743304" lon="11.719817225987985"><ele>129.0</ele><time>2026-05-02T06:47:05.455Z</time></trkpt><trkpt lat="45.8016518319071" lon="11.719708588780858"><ele>130.0</ele><time>2026-05-02T06:47:06.455Z</time></trkpt><trkpt lat="45.80183280723436" lon="11.719617714350182"><ele>131.0</ele><time>2026-05-02T06:47:07.455Z</time></trkpt><trkpt lat="45.801996403682836" lon="11.719532816061388"><ele>132.0</ele><time>2026-05-02T06:47:08.455Z</time></trkpt><trkpt lat="45.80218712580812" lon="11.719440054953473"><ele>130.33333333333334</ele><time>2026-05-02T06:47:09.455Z</time></trkpt><trkpt lat="45.80237631790036" lon="11.719356947354898"><ele>128.66666666666669</ele><time>2026-05-02T06:47:10.455Z</time></trkpt><trkpt lat="45.80255488466648" lon="11.719256667923322"><ele>127.0</ele><time>2026-05-02T06:47:11.455Z</time></trkpt><trkpt lat="45.80275444734231" lon="11.719156574370164"><ele>127.0</ele><time>2026-05-02T06:47:12.455Z</time></trkpt><trkpt lat="45.802943314817156" lon="11.719079933128272"><ele>127.0</ele><time>2026-05-02T06:47:13.455Z</time></trkpt><trkpt lat="45.803127461180736" lon="11.718973381403321"><ele>127.0</ele><time>2026-05-02T06:47:14.455Z</time></trkpt><trkpt lat="45.80333946879717" lon="11.718861068278526"><ele>126.33333333333334</ele><time>2026-05-02T06:47:15.455Z</time></trkpt><trkpt lat="45.80350988758631" lon="11.718711426750312"><ele>125.66666666666666</ele><time>2026-05-02T06:47:16.455Z</time></trkpt><trkpt lat="45.803672873841336" lon="11.718600277539782"><ele>125.0</ele><time>2026-05-02T06:47:17.455Z</time></trkpt><trkpt lat="45.8038603456434" lon="11.718485446770506"><ele>125.0</ele><time>2026-05-02T06:47:18.455Z</time></trkpt><trkpt lat="45.80407010733698" lon="11.71841201902018"><ele>125.0</ele><time>2026-05-02T06:47:19.455Z</time></trkpt><trkpt lat="45.804256701521616" lon="11.718339367474593"><ele>125.0</ele><time>2026-05-02T06:47:20.455Z</time></trkpt><trkpt lat="45.804437766455074" lon="11.718282860587811"><ele>126.0</ele><time>2026-05-02T06:47:21.455Z</time></trkpt><trkpt lat="45.804614813366186" lon="11.71824566654621"><ele>127.0</ele><time>2026-05-02T06:47:22.455Z</time></trkpt><trkpt lat="45.804796416877416" lon="11.718216541659634"><ele>128.0</ele><time>2026-05-02T06:47:23.455Z</time></trkpt><trkpt lat="45.804951226200636" lon="11.718217297705616"><ele>128.0</ele><time>2026-05-02T06:47:24.455Z</time></trkpt><trkpt lat="45.80509611381886" lon="11.718247329809751"><ele>128.0</ele><time>2026-05-02T06:47:25.455Z</time></trkpt><trkpt lat="45.80526004408664" lon="11.718230275046023"><ele>128.0</ele><time>2026-05-02T06:47:26.455Z</time></trkpt><trkpt lat="45.805438586962275" lon="11.718209312194542"><ele>128.66666666666666</ele><time>2026-05-02T06:47:27.455Z</time></trkpt><trkpt lat="45.805630908736774" lon="11.718208912695673"><ele>129.33333333333334</ele><time>2026-05-02T06:47:28.455Z</time></trkpt><trkpt lat="45.80583879645601" lon="11.718196793225797"><ele>130.0</ele><time>2026-05-02T06:47:29.455Z</time></trkpt><trkpt lat="45.80607000295399" lon="11.718180982601732"><ele>130.0</ele><time>2026-05-02T06:47:30.455Z</time></trkpt><trkpt lat="45.80630803080556" lon="11.71814483817963"><ele>130.0</ele><time>2026-05-02T06:47:31.455Z</time></trkpt><trkpt lat="45.80652498729697" lon="11.718150271844383"><ele>130.0</ele><time>2026-05-02T06:47:32.455Z</time></trkpt><trkpt lat="45.8066923920945" lon="11.71817399683035"><ele>130.0</ele><time>2026-05-02T06:47:33.455Z</time></trkpt><trkpt lat="45.806911734886405" lon="11.71818198589521"><ele>130.0</ele><time>2026-05-02T06:47:34.455Z</time></trkpt><trkpt lat="45.80712751513484" lon="11.718149412546767"><ele>127.0</ele><time>2026-05-02T06:47:35.455Z</time></trkpt><trkpt lat="45.80735453856881" lon="11.718117036481349"><ele>124.0</ele><time>2026-05-02T06:47:36.455Z</time></trkpt><trkpt lat="45.80758569593615" lon="11.718091822876037"><ele>125.0</ele><time>2026-05-02T06:47:37.455Z</time></trkpt><trkpt lat="45.80780231151412" lon="11.718067994364365"><ele>126.0</ele><time>2026-05-02T06:47:38.455Z</time></trkpt><trkpt lat="45.8080282326372" lon="11.718026758109072"><ele>127.0</ele><time>2026-05-02T06:47:39.455Z</time></trkpt><trkpt lat="45.808242161912105" lon="11.718006233447651"><ele>127.0</ele><time>2026-05-02T06:47:40.455Z</time></trkpt><trkpt lat="45.80844790839316" lon="11.717959222835498"><ele>127.0</ele><time>2026-05-02T06:47:41.455Z</time></trkpt><trkpt lat="45.80865273992795" lon="11.717928800418557"><ele>127.0</ele><time>2026-05-02T06:47:42.455Z</time></trkpt><trkpt lat="45.80886129965169" lon="11.717883553713419"><ele>125.0</ele><time>2026-05-02T06:47:43.455Z</time></trkpt><trkpt lat="45.80906638664012" lon="11.717854881056681"><ele>123.0</ele><time>2026-05-02T06:47:44.455Z</time></trkpt><trkpt lat="45.80926601914186" lon="11.717829658886817"><ele>121.0</ele><time>2026-05-02T06:47:45.455Z</time></trkpt><trkpt lat="45.80946542567646" lon="11.717792641330728"><ele>121.0</ele><time>2026-05-02T06:47:46.455Z</time></trkpt><trkpt lat="45.809664375515815" lon="11.71773914948535"><ele>121.0</ele><time>2026-05-02T06:47:47.455Z</time></trkpt><trkpt lat="45.80985701845501" lon="11.717705830123421"><ele>121.0</ele><time>2026-05-02T06:47:48.455Z</time></trkpt><trkpt lat="45.81005113897293" lon="11.717665447525821"><ele>121.33333333333334</ele><time>2026-05-02T06:47:49.455Z</time></trkpt><trkpt lat="45.81025014296508" lon="11.717639691759864"><ele>121.66666666666666</ele><time>2026-05-02T06:47:50.455Z</time></trkpt><trkpt lat="45.81045403832116" lon="11.717605085767241"><ele>122.0</ele><time>2026-05-02T06:47:51.455Z</time></trkpt><trkpt lat="45.81066033623768" lon="11.717561105052084"><ele>122.0</ele><time>2026-05-02T06:47:52.455Z</time></trkpt><trkpt lat="45.810847406600985" lon="11.71750941333287"><ele>122.0</ele><time>2026-05-02T06:47:53.455Z</time></trkpt><trkpt lat="45.81104609881579" lon="11.717468805117313"><ele>122.0</ele><time>2026-05-02T06:47:54.455Z</time></trkpt><trkpt lat="45.81123857821594" lon="11.71741694997681"><ele>122.33333333333333</ele><time>2026-05-02T06:47:55.455Z</time></trkpt><trkpt lat="45.81144374814509" lon="11.717394826659753"><ele>122.66666666666666</ele><time>2026-05-02T06:47:56.455Z</time></trkpt><trkpt lat="45.81165448031666" lon="11.717370083947667"><ele>123.0</ele><time>2026-05-02T06:47:57.455Z</time></trkpt><trkpt lat="45.81182100212926" lon="11.717362109772218"><ele>124.0</ele><time>2026-05-02T06:47:58.455Z</time></trkpt><trkpt lat="45.812070533214474" lon="11.717336076458025"><ele>125.0</ele><time>2026-05-02T06:47:59.455Z</time></trkpt><trkpt lat="45.81227343106074" lon="11.717286916159566"><ele>125.0</ele><time>2026-05-02T06:48:00.455Z</time></trkpt><trkpt lat="45.81248003638923" lon="11.717255361475157"><ele>125.0</ele><time>2026-05-02T06:48:01.455Z</time></trkpt><trkpt lat="45.812663172829005" lon="11.717211086661816"><ele>125.0</ele><time>2026-05-02T06:48:02.455Z</time></trkpt><trkpt lat="45.812863837685775" lon="11.71714973293231"><ele>125.0</ele><time>2026-05-02T06:48:03.455Z</time></trkpt><trkpt lat="45.81306279083387" lon="11.717111109520394"><ele>125.0</ele><time>2026-05-02T06:48:04.455Z</time></trkpt><trkpt lat="45.81326020846428" lon="11.71708071342286"><ele>125.0</ele><time>2026-05-02T06:48:05.455Z</time></trkpt><trkpt lat="45.813458360431945" lon="11.717038190617789"><ele>124.66666666666666</ele><time>2026-05-02T06:48:06.455Z</time></trkpt><trkpt lat="45.813652457593086" lon="11.717010909695123"><ele>124.33333333333334</ele><time>2026-05-02T06:48:07.455Z</time></trkpt><trkpt lat="45.8138541123142" lon="11.716977558958948"><ele>124.0</ele><time>2026-05-02T06:48:08.455Z</time></trkpt><trkpt lat="45.81405959028049" lon="11.716952921422143"><ele>123.66666666666667</ele><time>2026-05-02T06:48:09.455Z</time></trkpt><trkpt lat="45.81425470406085" lon="11.716892937067739"><ele>123.33333333333334</ele><time>2026-05-02T06:48:10.455Z</time></trkpt><trkpt lat="45.81444416908007" lon="11.716901798009424"><ele>123.0</ele><time>2026-05-02T06:48:11.455Z</time></trkpt><trkpt lat="45.81464119438126" lon="11.716824854047232"><ele>123.0</ele><time>2026-05-02T06:48:12.455Z</time></trkpt><trkpt lat="45.81483511971814" lon="11.716757623602563"><ele>123.0</ele><time>2026-05-02T06:48:13.455Z</time></trkpt><trkpt lat="45.81502493794913" lon="11.716703911751274"><ele>123.0</ele><time>2026-05-02T06:48:14.455Z</time></trkpt><trkpt lat="45.815204556254734" lon="11.71668726487166"><ele>123.0</ele><time>2026-05-02T06:48:15.455Z</time></trkpt><trkpt lat="45.81538793157804" lon="11.716663962723914"><ele>123.0</ele><time>2026-05-02T06:48:16.455Z</time></trkpt><trkpt lat="45.81558389496241" lon="11.716617359012698"><ele>123.0</ele><time>2026-05-02T06:48:17.455Z</time></trkpt><trkpt lat="45.815793688581046" lon="11.716548021061742"><ele>123.0</ele><time>2026-05-02T06:48:18.455Z</time></trkpt><trkpt lat="45.81598417433938" lon="11.716497290613747"><ele>123.0</ele><time>2026-05-02T06:48:19.455Z</time></trkpt><trkpt lat="45.81617199218638" lon="11.716480355201675"><ele>123.0</ele><time>2026-05-02T06:48:20.455Z</time></trkpt><trkpt lat="45.81636347221326" lon="11.716458385014178"><ele>123.33333333333334</ele><time>2026-05-02T06:48:21.455Z</time></trkpt><trkpt lat="45.81655861674765" lon="11.716407284301265"><ele>123.66666666666667</ele><time>2026-05-02T06:48:22.455Z</time></trkpt><trkpt lat="45.81675463944549" lon="11.716348443835104"><ele>124.0</ele><time>2026-05-02T06:48:23.455Z</time></trkpt><trkpt lat="45.81694643028271" lon="11.716311877392044"><ele>126.0</ele><time>2026-05-02T06:48:24.455Z</time></trkpt><trkpt lat="45.81712458116125" lon="11.716240118351118"><ele>128.0</ele><time>2026-05-02T06:48:25.455Z</time></trkpt><trkpt lat="45.817316196841446" lon="11.716230253498027"><ele>130.0</ele><time>2026-05-02T06:48:26.455Z</time></trkpt><trkpt lat="45.817485182707266" lon="11.7161296598278"><ele>130.0</ele><time>2026-05-02T06:48:27.455Z</time></trkpt><trkpt lat="45.81765505349485" lon="11.716011271823609"><ele>130.0</ele><time>2026-05-02T06:48:28.455Z</time></trkpt><trkpt lat="45.81780520859004" lon="11.715893154192313"><ele>130.0</ele><time>2026-05-02T06:48:29.455Z</time></trkpt><trkpt lat="45.8179522385343" lon="11.715744192025209"><ele>130.0</ele><time>2026-05-02T06:48:30.455Z</time></trkpt><trkpt lat="45.81810427075269" lon="11.715597816849671"><ele>130.0</ele><time>2026-05-02T06:48:31.455Z</time></trkpt><trkpt lat="45.81825443350049" lon="11.715472598547922"><ele>130.0</ele><time>2026-05-02T06:48:32.455Z</time></trkpt><trkpt lat="45.81841870530466" lon="11.715318646551161"><ele>130.33333333333334</ele><time>2026-05-02T06:48:33.455Z</time></trkpt><trkpt lat="45.8185732385509" lon="11.715139266420849"><ele>130.66666666666666</ele><time>2026-05-02T06:48:34.455Z</time></trkpt><trkpt lat="45.81873416284546" lon="11.714969866273046"><ele>131.0</ele><time>2026-05-02T06:48:35.455Z</time></trkpt><trkpt lat="45.81890683957776" lon="11.714809473033453"><ele>131.0</ele><time>2026-05-02T06:48:36.455Z</time></trkpt><trkpt lat="45.81903209580132" lon="11.714595540507167"><ele>131.0</ele><time>2026-05-02T06:48:37.455Z</time></trkpt><trkpt lat="45.8191678688629" lon="11.714429504970772"><ele>131.0</ele><time>2026-05-02T06:48:38.455Z</time></trkpt><trkpt lat="45.819294156505244" lon="11.714287417049531"><ele>132.33333333333331</ele><time>2026-05-02T06:48:39.455Z</time></trkpt><trkpt lat="45.81942052786951" lon="11.71413794689323"><ele>133.66666666666666</ele><time>2026-05-02T06:48:40.455Z</time></trkpt><trkpt lat="45.81954084701655" lon="11.714010786424723"><ele>135.0</ele><time>2026-05-02T06:48:41.455Z</time></trkpt><trkpt lat="45.819690181475444" lon="11.71391396655557"><ele>135.0</ele><time>2026-05-02T06:48:42.455Z</time></trkpt><trkpt lat="45.8198061439404" lon="11.713790326045434"><ele>135.0</ele><time>2026-05-02T06:48:43.455Z</time></trkpt><trkpt lat="45.819915707253045" lon="11.713697930044916"><ele>135.0</ele><time>2026-05-02T06:48:44.455Z</time></trkpt><trkpt lat="45.820022886549616" lon="11.71362707290301"><ele>135.0</ele><time>2026-05-02T06:48:45.455Z</time></trkpt><trkpt lat="45.820109248903606" lon="11.713540715965511"><ele>135.33333333333334</ele><time>2026-05-02T06:48:46.455Z</time></trkpt><trkpt lat="45.820243609664914" lon="11.713469045662892"><ele>135.66666666666669</ele><time>2026-05-02T06:48:47.455Z</time></trkpt><trkpt lat="45.82039005304878" lon="11.713386225723799"><ele>136.0</ele><time>2026-05-02T06:48:48.455Z</time></trkpt><trkpt lat="45.820533018113665" lon="11.713285775126932"><ele>136.0</ele><time>2026-05-02T06:48:49.455Z</time></trkpt><trkpt lat="45.820643780348746" lon="11.713174427755431"><ele>136.0</ele><time>2026-05-02T06:48:50.455Z</time></trkpt><trkpt lat="45.82079752478654" lon="11.713103218799702"><ele>136.0</ele><time>2026-05-02T06:48:51.455Z</time></trkpt><trkpt lat="45.82091510151676" lon="11.713019164719126"><ele>136.0</ele><time>2026-05-02T06:48:52.455Z</time></trkpt><trkpt lat="45.8210251127259" lon="11.712854566377583"><ele>136.0</ele><time>2026-05-02T06:48:53.455Z</time></trkpt><trkpt lat="45.82112010007336" lon="11.71271255115922"><ele>136.0</ele><time>2026-05-02T06:48:54.455Z</time></trkpt><trkpt lat="45.821271289352765" lon="11.712611841343225"><ele>136.0</ele><time>2026-05-02T06:48:55.455Z</time></trkpt><trkpt lat="45.82135639575336" lon="11.712409264595975"><ele>136.0</ele><time>2026-05-02T06:48:56.455Z</time></trkpt><trkpt lat="45.821477647320506" lon="11.712284736643578"><ele>136.0</ele><time>2026-05-02T06:48:57.455Z</time></trkpt><trkpt lat="45.8215926475272" lon="11.712160055678238"><ele>136.0</ele><time>2026-05-02T06:48:58.455Z</time></trkpt><trkpt lat="45.82172353373235" lon="11.712058857538818"><ele>136.0</ele><time>2026-05-02T06:48:59.455Z</time></trkpt><trkpt lat="45.82187218873519" lon="11.711948482690703"><ele>135.33333333333334</ele><time>2026-05-02T06:49:00.455Z</time></trkpt><trkpt lat="45.822004102028025" lon="11.711806800909775"><ele>134.66666666666666</ele><time>2026-05-02T06:49:01.455Z</time></trkpt><trkpt lat="45.82215947596094" lon="11.71168092799594"><ele>134.0</ele><time>2026-05-02T06:49:02.455Z</time></trkpt><trkpt lat="45.822332560225014" lon="11.711584421182856"><ele>134.0</ele><time>2026-05-02T06:49:03.455Z</time></trkpt><trkpt lat="45.82247083861998" lon="11.711440288623107"><ele>134.0</ele><time>2026-05-02T06:49:04.455Z</time></trkpt><trkpt lat="45.82256529953674" lon="11.711293662986035"><ele>134.0</ele><time>2026-05-02T06:49:05.455Z</time></trkpt><trkpt lat="45.82270625124865" lon="11.711210353156817"><ele>134.25</ele><time>2026-05-02T06:49:06.455Z</time></trkpt><trkpt lat="45.82277342429578" lon="11.711033272018016"><ele>134.5</ele><time>2026-05-02T06:49:07.455Z</time></trkpt><trkpt lat="45.822879671583564" lon="11.710869744754635"><ele>134.75</ele><time>2026-05-02T06:49:08.455Z</time></trkpt><trkpt lat="45.823001474184636" lon="11.710747210319107"><ele>135.0</ele><time>2026-05-02T06:49:09.455Z</time></trkpt><trkpt lat="45.82313235720381" lon="11.710618336875642"><ele>135.0</ele><time>2026-05-02T06:49:10.456Z</time></trkpt><trkpt lat="45.82325666469996" lon="11.710514971391216"><ele>135.0</ele><time>2026-05-02T06:49:11.456Z</time></trkpt><trkpt lat="45.823379119770905" lon="11.710384121567882"><ele>135.0</ele><time>2026-05-02T06:49:12.456Z</time></trkpt><trkpt lat="45.823515804629665" lon="11.71027781336712"><ele>135.33333333333334</ele><time>2026-05-02T06:49:13.456Z</time></trkpt><trkpt lat="45.823634069818226" lon="11.710157678778675"><ele>135.66666666666669</ele><time>2026-05-02T06:49:14.456Z</time></trkpt><trkpt lat="45.8237752737737" lon="11.709997444609733"><ele>136.0</ele><time>2026-05-02T06:49:15.456Z</time></trkpt><trkpt lat="45.82390023618678" lon="11.709835573491093"><ele>136.0</ele><time>2026-05-02T06:49:16.456Z</time></trkpt><trkpt lat="45.82402570299165" lon="11.709662198869038"><ele>136.0</ele><time>2026-05-02T06:49:17.456Z</time></trkpt><trkpt lat="45.82411683792727" lon="11.70947618699086"><ele>136.0</ele><time>2026-05-02T06:49:18.456Z</time></trkpt><trkpt lat="45.82422168442231" lon="11.709301849200868"><ele>135.33333333333334</ele><time>2026-05-02T06:49:19.456Z</time></trkpt><trkpt lat="45.824323863348255" lon="11.709109825709117"><ele>134.66666666666666</ele><time>2026-05-02T06:49:20.456Z</time></trkpt><trkpt lat="45.82441962564707" lon="11.708930193945005"><ele>134.0</ele><time>2026-05-02T06:49:21.456Z</time></trkpt><trkpt lat="45.824506907729784" lon="11.708750545568607"><ele>134.0</ele><time>2026-05-02T06:49:22.456Z</time></trkpt><trkpt lat="45.82463414936577" lon="11.708554182101704"><ele>134.0</ele><time>2026-05-02T06:49:23.456Z</time></trkpt><trkpt lat="45.82472911686232" lon="11.708354395459242"><ele>134.0</ele><time>2026-05-02T06:49:24.456Z</time></trkpt><trkpt lat="45.8248482118183" lon="11.708181073076753"><ele>134.0</ele><time>2026-05-02T06:49:25.456Z</time></trkpt><trkpt lat="45.82494101946966" lon="11.708020593623193"><ele>134.0</ele><time>2026-05-02T06:49:26.456Z</time></trkpt><trkpt lat="45.82501900453934" lon="11.707827479819587"><ele>134.0</ele><time>2026-05-02T06:49:27.456Z</time></trkpt><trkpt lat="45.82509238391607" lon="11.707658172679814"><ele>134.0</ele><time>2026-05-02T06:49:28.456Z</time></trkpt><trkpt lat="45.82518921851262" lon="11.707480734496011"><ele>137.0</ele><time>2026-05-02T06:49:29.456Z</time></trkpt><trkpt lat="45.825275809154846" lon="11.70730486424664"><ele>140.0</ele><time>2026-05-02T06:49:30.456Z</time></trkpt><trkpt lat="45.825381721339085" lon="11.707130161922688"><ele>143.0</ele><time>2026-05-02T06:49:31.456Z</time></trkpt><trkpt lat="45.825485086792845" lon="11.706937293368721"><ele>141.66666666666666</ele><time>2026-05-02T06:49:32.456Z</time></trkpt><trkpt lat="45.82559323665138" lon="11.706749715517326"><ele>140.33333333333334</ele><time>2026-05-02T06:49:33.456Z</time></trkpt><trkpt lat="45.825700665099525" lon="11.706573422099064"><ele>139.0</ele><time>2026-05-02T06:49:34.456Z</time></trkpt><trkpt lat="45.8258194353076" lon="11.706393713746138"><ele>139.0</ele><time>2026-05-02T06:49:35.456Z</time></trkpt><trkpt lat="45.82591855159963" lon="11.706229633057168"><ele>139.0</ele><time>2026-05-02T06:49:36.456Z</time></trkpt><trkpt lat="45.82607292114921" lon="11.706112731277623"><ele>139.0</ele><time>2026-05-02T06:49:37.456Z</time></trkpt><trkpt lat="45.826182022048194" lon="11.705967468149119"><ele>137.0</ele><time>2026-05-02T06:49:38.456Z</time></trkpt><trkpt lat="45.826322772649405" lon="11.705856405299443"><ele>135.0</ele><time>2026-05-02T06:49:39.456Z</time></trkpt><trkpt lat="45.826445261571585" lon="11.705746593448419"><ele>133.0</ele><time>2026-05-02T06:49:40.456Z</time></trkpt><trkpt lat="45.8265898590454" lon="11.705643945272191"><ele>133.0</ele><time>2026-05-02T06:49:41.456Z</time></trkpt><trkpt lat="45.82673512130859" lon="11.705507416865487"><ele>133.0</ele><time>2026-05-02T06:49:42.456Z</time></trkpt><trkpt lat="45.82689873369217" lon="11.705406349689257"><ele>133.0</ele><time>2026-05-02T06:49:43.456Z</time></trkpt><trkpt lat="45.82705037342855" lon="11.705272689350686"><ele>133.33333333333334</ele><time>2026-05-02T06:49:44.456Z</time></trkpt><trkpt lat="45.8271868131607" lon="11.705148756357149"><ele>133.66666666666666</ele><time>2026-05-02T06:49:45.456Z</time></trkpt><trkpt lat="45.82733835057741" lon="11.705021072469787"><ele>134.0</ele><time>2026-05-02T06:49:46.456Z</time></trkpt><trkpt lat="45.827504760649454" lon="11.704899229368912"><ele>135.66666666666666</ele><time>2026-05-02T06:49:47.456Z</time></trkpt><trkpt lat="45.827667646522364" lon="11.704777129886859"><ele>137.33333333333334</ele><time>2026-05-02T06:49:48.456Z</time></trkpt><trkpt lat="45.8278322050003" lon="11.704641544886428"><ele>139.0</ele><time>2026-05-02T06:49:49.456Z</time></trkpt><trkpt lat="45.82801054055042" lon="11.704495794434875"><ele>139.0</ele><time>2026-05-02T06:49:50.456Z</time></trkpt><trkpt lat="45.82817173522172" lon="11.704361703485581"><ele>139.0</ele><time>2026-05-02T06:49:51.456Z</time></trkpt><trkpt lat="45.82834358765451" lon="11.704243574541733"><ele>139.0</ele><time>2026-05-02T06:49:52.456Z</time></trkpt><trkpt lat="45.82852583501718" lon="11.70410589583055"><ele>139.0</ele><time>2026-05-02T06:49:53.456Z</time></trkpt><trkpt lat="45.828692453432176" lon="11.703969868761725"><ele>139.0</ele><time>2026-05-02T06:49:54.456Z</time></trkpt><trkpt lat="45.82885772350447" lon="11.703844944401053"><ele>139.0</ele><time>2026-05-02T06:49:55.456Z</time></trkpt><trkpt lat="45.828996826348785" lon="11.703728778637828"><ele>139.0</ele><time>2026-05-02T06:49:56.456Z</time></trkpt><trkpt lat="45.82919425251955" lon="11.703592180502845"><ele>139.0</ele><time>2026-05-02T06:49:57.456Z</time></trkpt><trkpt lat="45.82938100522154" lon="11.703472261114015"><ele>139.0</ele><time>2026-05-02T06:49:58.456Z</time></trkpt><trkpt lat="45.829550809348135" lon="11.703331174095233"><ele>140.0</ele><time>2026-05-02T06:49:59.456Z</time></trkpt><trkpt lat="45.8297312944965" lon="11.703211732922297"><ele>141.0</ele><time>2026-05-02T06:50:00.456Z</time></trkpt><trkpt lat="45.829897762603814" lon="11.703076246475794"><ele>142.0</ele><time>2026-05-02T06:50:01.456Z</time></trkpt><trkpt lat="45.83004715738695" lon="11.702963014010646"><ele>140.0</ele><time>2026-05-02T06:50:02.456Z</time></trkpt><trkpt lat="45.830161569997664" lon="11.702825919200421"><ele>138.0</ele><time>2026-05-02T06:50:03.456Z</time></trkpt><trkpt lat="45.83031476643329" lon="11.702733397331977"><ele>136.0</ele><time>2026-05-02T06:50:04.456Z</time></trkpt><trkpt lat="45.830437971680084" lon="11.702565267170455"><ele>136.0</ele><time>2026-05-02T06:50:05.456Z</time></trkpt><trkpt lat="45.83057306650714" lon="11.702465673402202"><ele>136.0</ele><time>2026-05-02T06:50:06.456Z</time></trkpt><trkpt lat="45.83071698898903" lon="11.702330612975635"><ele>136.0</ele><time>2026-05-02T06:50:07.456Z</time></trkpt><trkpt lat="45.83085001550456" lon="11.702192294112134"><ele>139.33333333333334</ele><time>2026-05-02T06:50:08.456Z</time></trkpt><trkpt lat="45.831008782453274" lon="11.702067109336754"><ele>142.66666666666666</ele><time>2026-05-02T06:50:09.456Z</time></trkpt><trkpt lat="45.83115971118542" lon="11.701914917517893"><ele>146.0</ele><time>2026-05-02T06:50:10.456Z</time></trkpt><trkpt lat="45.831306581002295" lon="11.701726734236571"><ele>146.0</ele><time>2026-05-02T06:50:11.456Z</time></trkpt><trkpt lat="45.83144301781307" lon="11.701533738720558"><ele>146.0</ele><time>2026-05-02T06:50:12.456Z</time></trkpt><trkpt lat="45.831579305695946" lon="11.7013377175557"><ele>146.0</ele><time>2026-05-02T06:50:13.456Z</time></trkpt><trkpt lat="45.83170251129758" lon="11.701153994550769"><ele>147.66666666666666</ele><time>2026-05-02T06:50:14.456Z</time></trkpt><trkpt lat="45.83180996126556" lon="11.700949976203308"><ele>149.33333333333334</ele><time>2026-05-02T06:50:15.456Z</time></trkpt><trkpt lat="45.831916506091076" lon="11.70073849643823"><ele>151.0</ele><time>2026-05-02T06:50:16.456Z</time></trkpt><trkpt lat="45.83202549411524" lon="11.700533740728536"><ele>151.0</ele><time>2026-05-02T06:50:17.456Z</time></trkpt><trkpt lat="45.83211763390863" lon="11.700299832706305"><ele>151.0</ele><time>2026-05-02T06:50:18.456Z</time></trkpt><trkpt lat="45.83221072754172" lon="11.700053451830927"><ele>151.0</ele><time>2026-05-02T06:50:19.456Z</time></trkpt><trkpt lat="45.832302831767755" lon="11.699822902331896"><ele>147.66666666666669</ele><time>2026-05-02T06:50:20.456Z</time></trkpt><trkpt lat="45.83238330843722" lon="11.699596975547003"><ele>144.33333333333334</ele><time>2026-05-02T06:50:21.456Z</time></trkpt><trkpt lat="45.83245932606587" lon="11.699367202424913"><ele>141.0</ele><time>2026-05-02T06:50:22.456Z</time></trkpt><trkpt lat="45.83250721817364" lon="11.699144025703262"><ele>140.66666666666666</ele><time>2026-05-02T06:50:23.456Z</time></trkpt><trkpt lat="45.832583455423496" lon="11.698922085145709"><ele>140.33333333333331</ele><time>2026-05-02T06:50:24.456Z</time></trkpt><trkpt lat="45.83263718286503" lon="11.698724359758465"><ele>140.0</ele><time>2026-05-02T06:50:25.456Z</time></trkpt><trkpt lat="45.83270036788977" lon="11.69854643809196"><ele>142.5</ele><time>2026-05-02T06:50:26.456Z</time></trkpt><trkpt lat="45.83276088429264" lon="11.698377892701457"><ele>145.0</ele><time>2026-05-02T06:50:27.456Z</time></trkpt><trkpt lat="45.83284151762566" lon="11.69821195355083"><ele>147.5</ele><time>2026-05-02T06:50:28.456Z</time></trkpt><trkpt lat="45.83290876462348" lon="11.698072072509795"><ele>150.0</ele><time>2026-05-02T06:50:29.456Z</time></trkpt><trkpt lat="45.832981750075604" lon="11.697912058319751"><ele>147.25</ele><time>2026-05-02T06:50:30.456Z</time></trkpt><trkpt lat="45.83307233949914" lon="11.697738654508562"><ele>144.5</ele><time>2026-05-02T06:50:31.456Z</time></trkpt><trkpt lat="45.833164382936594" lon="11.69758224712028"><ele>141.75</ele><time>2026-05-02T06:50:32.456Z</time></trkpt><trkpt lat="45.833256811267894" lon="11.697436027496916"><ele>139.0</ele><time>2026-05-02T06:50:33.456Z</time></trkpt><trkpt lat="45.83333517112427" lon="11.69728959383167"><ele>139.0</ele><time>2026-05-02T06:50:34.456Z</time></trkpt><trkpt lat="45.83343850379929" lon="11.697117886042404"><ele>139.0</ele><time>2026-05-02T06:50:35.456Z</time></trkpt><trkpt lat="45.83355011565795" lon="11.696963531269462"><ele>139.0</ele><time>2026-05-02T06:50:36.456Z</time></trkpt><trkpt lat="45.83363888828454" lon="11.696820078143592"><ele>139.0</ele><time>2026-05-02T06:50:37.456Z</time></trkpt><trkpt lat="45.833762026965346" lon="11.696654706045276"><ele>138.33333333333334</ele><time>2026-05-02T06:50:38.456Z</time></trkpt><trkpt lat="45.83389081911411" lon="11.696497561872471"><ele>137.66666666666666</ele><time>2026-05-02T06:50:39.456Z</time></trkpt><trkpt lat="45.83401401591534" lon="11.69632582128618"><ele>137.0</ele><time>2026-05-02T06:50:40.456Z</time></trkpt><trkpt lat="45.83413178506456" lon="11.696163700650551"><ele>137.0</ele><time>2026-05-02T06:50:41.456Z</time></trkpt><trkpt lat="45.83425947855551" lon="11.696020400887898"><ele>137.0</ele><time>2026-05-02T06:50:42.456Z</time></trkpt><trkpt lat="45.83436852128358" lon="11.695866431842504"><ele>137.0</ele><time>2026-05-02T06:50:43.456Z</time></trkpt><trkpt lat="45.834502276281306" lon="11.695719297386496"><ele>136.66666666666666</ele><time>2026-05-02T06:50:44.456Z</time></trkpt><trkpt lat="45.8346307024351" lon="11.695560134671133"><ele>136.33333333333334</ele><time>2026-05-02T06:50:45.456Z</time></trkpt><trkpt lat="45.83475836099709" lon="11.69540668520913"><ele>136.0</ele><time>2026-05-02T06:50:46.456Z</time></trkpt><trkpt lat="45.834885943568686" lon="11.695237048696626"><ele>135.33333333333334</ele><time>2026-05-02T06:50:47.456Z</time></trkpt><trkpt lat="45.83502542303424" lon="11.69508239169895"><ele>134.66666666666666</ele><time>2026-05-02T06:50:48.456Z</time></trkpt><trkpt lat="45.835145996937115" lon="11.694911801011953"><ele>134.0</ele><time>2026-05-02T06:50:49.456Z</time></trkpt><trkpt lat="45.835286205534736" lon="11.694770478734744"><ele>134.66666666666666</ele><time>2026-05-02T06:50:50.456Z</time></trkpt><trkpt lat="45.835415985483074" lon="11.694607360275848"><ele>135.33333333333334</ele><time>2026-05-02T06:50:51.456Z</time></trkpt><trkpt lat="45.835559606750834" lon="11.694456822895377"><ele>136.0</ele><time>2026-05-02T06:50:52.456Z</time></trkpt><trkpt lat="45.83568421145393" lon="11.694302578047347"><ele>136.0</ele><time>2026-05-02T06:50:53.456Z</time></trkpt><trkpt lat="45.83580417625816" lon="11.694145061520132"><ele>136.0</ele><time>2026-05-02T06:50:54.456Z</time></trkpt><trkpt lat="45.83592976920079" lon="11.694018345003698"><ele>136.0</ele><time>2026-05-02T06:50:55.456Z</time></trkpt><trkpt lat="45.83606984902685" lon="11.69388447015011"><ele>137.0</ele><time>2026-05-02T06:50:56.456Z</time></trkpt><trkpt lat="45.836197529626396" lon="11.693763621548925"><ele>138.0</ele><time>2026-05-02T06:50:57.456Z</time></trkpt><trkpt lat="45.836311772565054" lon="11.693576621579622"><ele>139.0</ele><time>2026-05-02T06:50:58.456Z</time></trkpt><trkpt lat="45.83641932030871" lon="11.693413862545237"><ele>139.0</ele><time>2026-05-02T06:50:59.456Z</time></trkpt><trkpt lat="45.83652960653444" lon="11.693249858287894"><ele>139.0</ele><time>2026-05-02T06:51:00.456Z</time></trkpt><trkpt lat="45.8366416407234" lon="11.693097277293054"><ele>139.0</ele><time>2026-05-02T06:51:01.456Z</time></trkpt><trkpt lat="45.8367591145518" lon="11.692934815507439"><ele>140.33333333333334</ele><time>2026-05-02T06:51:02.456Z</time></trkpt><trkpt lat="45.836876687852495" lon="11.692799702230541"><ele>141.66666666666666</ele><time>2026-05-02T06:51:03.456Z</time></trkpt><trkpt lat="45.83700198765307" lon="11.69264744989949"><ele>143.0</ele><time>2026-05-02T06:51:04.456Z</time></trkpt><trkpt lat="45.83714170549603" lon="11.692526576174247"><ele>143.0</ele><time>2026-05-02T06:51:05.456Z</time></trkpt><trkpt lat="45.83725331794887" lon="11.692360321580482"><ele>143.0</ele><time>2026-05-02T06:51:06.456Z</time></trkpt><trkpt lat="45.83738122174807" lon="11.692198092967015"><ele>143.0</ele><time>2026-05-02T06:51:07.456Z</time></trkpt><trkpt lat="45.83750455107591" lon="11.692043553142133"><ele>142.66666666666666</ele><time>2026-05-02T06:51:08.456Z</time></trkpt><trkpt lat="45.83761783048377" lon="11.691875787735865"><ele>142.33333333333334</ele><time>2026-05-02T06:51:09.456Z</time></trkpt><trkpt lat="45.837735160628306" lon="11.691724231278707"><ele>142.0</ele><time>2026-05-02T06:51:10.456Z</time></trkpt><trkpt lat="45.837840527618525" lon="11.691529787296743"><ele>142.0</ele><time>2026-05-02T06:51:11.456Z</time></trkpt><trkpt lat="45.83794885235656" lon="11.691376681815756"><ele>142.0</ele><time>2026-05-02T06:51:12.456Z</time></trkpt><trkpt lat="45.838067452652716" lon="11.691212661148876"><ele>142.0</ele><time>2026-05-02T06:51:13.456Z</time></trkpt><trkpt lat="45.83816261929811" lon="11.691041105391678"><ele>141.66666666666669</ele><time>2026-05-02T06:51:14.456Z</time></trkpt><trkpt lat="45.83826161778892" lon="11.690858360642684"><ele>141.33333333333334</ele><time>2026-05-02T06:51:15.456Z</time></trkpt><trkpt lat="45.83835329928808" lon="11.690653608255209"><ele>141.0</ele><time>2026-05-02T06:51:16.457Z</time></trkpt><trkpt lat="45.83845632284858" lon="11.690475753732146"><ele>142.66666666666666</ele><time>2026-05-02T06:51:17.457Z</time></trkpt><trkpt lat="45.838549323856256" lon="11.690255222759502"><ele>144.33333333333331</ele><time>2026-05-02T06:51:18.457Z</time></trkpt><trkpt lat="45.838662711242996" lon="11.690060163642675"><ele>146.0</ele><time>2026-05-02T06:51:19.457Z</time></trkpt><trkpt lat="45.83876703403068" lon="11.689862092167596"><ele>146.0</ele><time>2026-05-02T06:51:20.457Z</time></trkpt><trkpt lat="45.838861349467514" lon="11.68968176458102"><ele>146.0</ele><time>2026-05-02T06:51:21.457Z</time></trkpt><trkpt lat="45.83895889076699" lon="11.689496326846296"><ele>146.0</ele><time>2026-05-02T06:51:22.457Z</time></trkpt><trkpt lat="45.839041886894606" lon="11.689334348981738"><ele>146.5</ele><time>2026-05-02T06:51:23.457Z</time></trkpt><trkpt lat="45.83913567890065" lon="11.689153669013036"><ele>147.0</ele><time>2026-05-02T06:51:24.457Z</time></trkpt><trkpt lat="45.83921040163995" lon="11.689009019847122"><ele>147.5</ele><time>2026-05-02T06:51:25.457Z</time></trkpt><trkpt lat="45.83929232344523" lon="11.688852914132275"><ele>148.0</ele><time>2026-05-02T06:51:26.457Z</time></trkpt><trkpt lat="45.83937681603487" lon="11.688691667917077"><ele>148.5</ele><time>2026-05-02T06:51:27.457Z</time></trkpt><trkpt lat="45.83946102096993" lon="11.688530970461981"><ele>149.0</ele><time>2026-05-02T06:51:28.457Z</time></trkpt><trkpt lat="45.839537946635005" lon="11.688384164806077"><ele>149.5</ele><time>2026-05-02T06:51:29.457Z</time></trkpt><trkpt lat="45.83962016357177" lon="11.688227261321115"><ele>150.0</ele><time>2026-05-02T06:51:30.457Z</time></trkpt><trkpt lat="45.839703589900154" lon="11.68806804982855"><ele>150.0</ele><time>2026-05-02T06:51:31.457Z</time></trkpt><trkpt lat="45.8397927928259" lon="11.687897814286924"><ele>150.0</ele><time>2026-05-02T06:51:32.457Z</time></trkpt><trkpt lat="45.839874800688825" lon="11.687741309772992"><ele>150.0</ele><time>2026-05-02T06:51:33.457Z</time></trkpt><trkpt lat="45.83997204726209" lon="11.687554443377186"><ele>150.0</ele><time>2026-05-02T06:51:34.457Z</time></trkpt><trkpt lat="45.840070627482596" lon="11.687364556553844"><ele>151.0</ele><time>2026-05-02T06:51:35.457Z</time></trkpt><trkpt lat="45.8401811161225" lon="11.68715194839765"><ele>152.0</ele><time>2026-05-02T06:51:36.457Z</time></trkpt><trkpt lat="45.84028627579351" lon="11.68695156424452"><ele>153.0</ele><time>2026-05-02T06:51:37.457Z</time></trkpt><trkpt lat="45.84040295955721" lon="11.686729795630102"><ele>150.66666666666666</ele><time>2026-05-02T06:51:38.457Z</time></trkpt><trkpt lat="45.84050039992429" lon="11.686546264217677"><ele>148.33333333333331</ele><time>2026-05-02T06:51:39.457Z</time></trkpt><trkpt lat="45.84060278833206" lon="11.68635341320689"><ele>146.0</ele><time>2026-05-02T06:51:40.457Z</time></trkpt><trkpt lat="45.84070284594544" lon="11.686164195269878"><ele>144.66666666666666</ele><time>2026-05-02T06:51:41.457Z</time></trkpt><trkpt lat="45.840788326149536" lon="11.685965947361783"><ele>143.33333333333334</ele><time>2026-05-02T06:51:42.457Z</time></trkpt><trkpt lat="45.840884922958736" lon="11.685781479021896"><ele>142.0</ele><time>2026-05-02T06:51:43.457Z</time></trkpt><trkpt lat="45.84100333719787" lon="11.685581632803126"><ele>144.0</ele><time>2026-05-02T06:51:44.457Z</time></trkpt><trkpt lat="45.841109032216494" lon="11.685403123863024"><ele>146.0</ele><time>2026-05-02T06:51:45.457Z</time></trkpt><trkpt lat="45.84120021337069" lon="11.685213338284388"><ele>148.0</ele><time>2026-05-02T06:51:46.457Z</time></trkpt><trkpt lat="45.84129480278248" lon="11.685011945445204"><ele>148.0</ele><time>2026-05-02T06:51:47.457Z</time></trkpt><trkpt lat="45.84137694103474" lon="11.684818426091448"><ele>148.0</ele><time>2026-05-02T06:51:48.457Z</time></trkpt><trkpt lat="45.84146486870465" lon="11.684595488564824"><ele>148.0</ele><time>2026-05-02T06:51:49.457Z</time></trkpt><trkpt lat="45.84153443238653" lon="11.68437131601892"><ele>147.66666666666669</ele><time>2026-05-02T06:51:50.457Z</time></trkpt><trkpt lat="45.84162058789738" lon="11.684124394315786"><ele>147.33333333333334</ele><time>2026-05-02T06:51:51.457Z</time></trkpt><trkpt lat="45.84168326796361" lon="11.683875745361112"><ele>147.0</ele><time>2026-05-02T06:51:52.457Z</time></trkpt><trkpt lat="45.84176969766869" lon="11.683627922910981"><ele>150.33333333333334</ele><time>2026-05-02T06:51:53.457Z</time></trkpt><trkpt lat="45.841825042119886" lon="11.683367592315076"><ele>153.66666666666669</ele><time>2026-05-02T06:51:54.457Z</time></trkpt><trkpt lat="45.84188924685364" lon="11.683110343272718"><ele>157.0</ele><time>2026-05-02T06:51:55.457Z</time></trkpt><trkpt lat="45.841951018303284" lon="11.682874597784721"><ele>155.33333333333334</ele><time>2026-05-02T06:51:56.457Z</time></trkpt><trkpt lat="45.84200975132676" lon="11.682654337172488"><ele>153.66666666666666</ele><time>2026-05-02T06:51:57.457Z</time></trkpt><trkpt lat="45.842080576075475" lon="11.682438159361116"><ele>152.0</ele><time>2026-05-02T06:51:58.457Z</time></trkpt><trkpt lat="45.842141677936404" lon="11.682191783010634"><ele>152.0</ele><time>2026-05-02T06:51:59.457Z</time></trkpt><trkpt lat="45.842197839405785" lon="11.681937985729311"><ele>152.0</ele><time>2026-05-02T06:52:00.457Z</time></trkpt><trkpt lat="45.84226278662462" lon="11.681699073245332"><ele>152.0</ele><time>2026-05-02T06:52:01.457Z</time></trkpt><trkpt lat="45.84233605774825" lon="11.681449103193183"><ele>150.33333333333331</ele><time>2026-05-02T06:52:02.457Z</time></trkpt><trkpt lat="45.84238097055943" lon="11.681247660279983"><ele>148.66666666666666</ele><time>2026-05-02T06:52:03.457Z</time></trkpt><trkpt lat="45.842433979165484" lon="11.680977589136665"><ele>147.0</ele><time>2026-05-02T06:52:04.457Z</time></trkpt><trkpt lat="45.842509308965894" lon="11.680750968570745"><ele>146.33333333333334</ele><time>2026-05-02T06:52:05.457Z</time></trkpt><trkpt lat="45.842596653705044" lon="11.680521516292917"><ele>145.66666666666669</ele><time>2026-05-02T06:52:06.457Z</time></trkpt><trkpt lat="45.842673645449274" lon="11.680298680980602"><ele>145.0</ele><time>2026-05-02T06:52:07.457Z</time></trkpt><trkpt lat="45.842759399569786" lon="11.68008514759034"><ele>145.0</ele><time>2026-05-02T06:52:08.457Z</time></trkpt><trkpt lat="45.84286250045265" lon="11.679867272409696"><ele>145.0</ele><time>2026-05-02T06:52:09.457Z</time></trkpt><trkpt lat="45.84295574791821" lon="11.679657367988687"><ele>145.0</ele><time>2026-05-02T06:52:10.457Z</time></trkpt><trkpt lat="45.84305334885641" lon="11.679447906443501"><ele>144.66666666666669</ele><time>2026-05-02T06:52:11.457Z</time></trkpt><trkpt lat="45.84315723066965" lon="11.679237717232052"><ele>144.33333333333334</ele><time>2026-05-02T06:52:12.457Z</time></trkpt><trkpt lat="45.84326918794193" lon="11.679025350542402"><ele>144.0</ele><time>2026-05-02T06:52:13.457Z</time></trkpt><trkpt lat="45.84336367501706" lon="11.678818663565083"><ele>144.66666666666666</ele><time>2026-05-02T06:52:14.457Z</time></trkpt><trkpt lat="45.84349256909982" lon="11.678625632987556"><ele>145.33333333333331</ele><time>2026-05-02T06:52:15.457Z</time></trkpt><trkpt lat="45.843585151906495" lon="11.678395267250897"><ele>146.0</ele><time>2026-05-02T06:52:16.457Z</time></trkpt><trkpt lat="45.84366310216227" lon="11.678222439293464"><ele>146.0</ele><time>2026-05-02T06:52:17.457Z</time></trkpt><trkpt lat="45.843749546729725" lon="11.678028884345169"><ele>146.0</ele><time>2026-05-02T06:52:18.457Z</time></trkpt><trkpt lat="45.843853807099364" lon="11.67782353397097"><ele>146.0</ele><time>2026-05-02T06:52:19.457Z</time></trkpt><trkpt lat="45.8439446260198" lon="11.677611598484305"><ele>145.33333333333331</ele><time>2026-05-02T06:52:20.457Z</time></trkpt><trkpt lat="45.844041499829636" lon="11.677399438662006"><ele>144.66666666666666</ele><time>2026-05-02T06:52:21.457Z</time></trkpt><trkpt lat="45.84413353674102" lon="11.677197946338342"><ele>144.0</ele><time>2026-05-02T06:52:22.457Z</time></trkpt><trkpt lat="45.84421956712951" lon="11.677007296223689"><ele>147.0</ele><time>2026-05-02T06:52:23.457Z</time></trkpt><trkpt lat="45.84430777840655" lon="11.676804575063565"><ele>150.0</ele><time>2026-05-02T06:52:24.457Z</time></trkpt><trkpt lat="45.84439651790906" lon="11.676596609787783"><ele>153.0</ele><time>2026-05-02T06:52:25.457Z</time></trkpt><trkpt lat="45.84447663438889" lon="11.676382838141325"><ele>153.0</ele><time>2026-05-02T06:52:26.457Z</time></trkpt><trkpt lat="45.844545084034195" lon="11.676151978997302"><ele>153.0</ele><time>2026-05-02T06:52:27.457Z</time></trkpt><trkpt lat="45.84464594607722" lon="11.675941253216141"><ele>153.0</ele><time>2026-05-02T06:52:28.457Z</time></trkpt><trkpt lat="45.8447373313037" lon="11.675746566590854"><ele>152.33333333333334</ele><time>2026-05-02T06:52:29.457Z</time></trkpt><trkpt lat="45.844862261482454" lon="11.675561396710446"><ele>151.66666666666669</ele><time>2026-05-02T06:52:30.457Z</time></trkpt><trkpt lat="45.84497737367356" lon="11.675377787417371"><ele>151.0</ele><time>2026-05-02T06:52:31.457Z</time></trkpt><trkpt lat="45.84503513596228" lon="11.675213406626018"><ele>151.0</ele><time>2026-05-02T06:52:32.457Z</time></trkpt><trkpt lat="45.84518394843386" lon="11.675078385280804"><ele>151.0</ele><time>2026-05-02T06:52:33.457Z</time></trkpt><trkpt lat="45.8453184393764" lon="11.67493960651567"><ele>151.0</ele><time>2026-05-02T06:52:34.457Z</time></trkpt><trkpt lat="45.84544958134452" lon="11.674803480739072"><ele>151.0</ele><time>2026-05-02T06:52:35.457Z</time></trkpt><trkpt lat="45.84557452293128" lon="11.674654517611799"><ele>151.0</ele><time>2026-05-02T06:52:36.457Z</time></trkpt><trkpt lat="45.845701485264485" lon="11.67451250423319"><ele>151.0</ele><time>2026-05-02T06:52:37.457Z</time></trkpt><trkpt lat="45.84580072551038" lon="11.674350061733804"><ele>152.33333333333334</ele><time>2026-05-02T06:52:38.457Z</time></trkpt><trkpt lat="45.84593827641991" lon="11.67420096367771"><ele>153.66666666666666</ele><time>2026-05-02T06:52:39.457Z</time></trkpt><trkpt lat="45.84608374206526" lon="11.67406977461787"><ele>155.0</ele><time>2026-05-02T06:52:40.457Z</time></trkpt><trkpt lat="45.84620899858267" lon="11.673908962669753"><ele>155.0</ele><time>2026-05-02T06:52:41.457Z</time></trkpt><trkpt lat="45.84630170515302" lon="11.67366933063963"><ele>155.0</ele><time>2026-05-02T06:52:42.457Z</time></trkpt><trkpt lat="45.846322433070696" lon="11.673476537207447"><ele>155.0</ele><time>2026-05-02T06:52:43.457Z</time></trkpt><trkpt lat="45.84638529770994" lon="11.673277362946761"><ele>154.25</ele><time>2026-05-02T06:52:44.457Z</time></trkpt><trkpt lat="45.846442556389064" lon="11.673061043968056"><ele>153.5</ele><time>2026-05-02T06:52:45.457Z</time></trkpt><trkpt lat="45.84649793622006" lon="11.672880495793793"><ele>152.75</ele><time>2026-05-02T06:52:46.457Z</time></trkpt><trkpt lat="45.84657622900144" lon="11.672725069150793"><ele>152.0</ele><time>2026-05-02T06:52:47.457Z</time></trkpt><trkpt lat="45.84665186586658" lon="11.672579703079546"><ele>154.5</ele><time>2026-05-02T06:52:48.457Z</time></trkpt><trkpt lat="45.84672860621974" lon="11.67243223619373"><ele>157.0</ele><time>2026-05-02T06:52:49.457Z</time></trkpt><trkpt lat="45.84683641553951" lon="11.672298624198168"><ele>159.5</ele><time>2026-05-02T06:52:50.457Z</time></trkpt><trkpt lat="45.846940496855986" lon="11.67214882056093"><ele>162.0</ele><time>2026-05-02T06:52:51.457Z</time></trkpt><trkpt lat="45.847063665251454" lon="11.672021501267976"><ele>158.25</ele><time>2026-05-02T06:52:52.457Z</time></trkpt><trkpt lat="45.84718649718947" lon="11.67188593997545"><ele>154.5</ele><time>2026-05-02T06:52:53.457Z</time></trkpt><trkpt lat="45.847321685945" lon="11.67179684831898"><ele>150.75</ele><time>2026-05-02T06:52:54.457Z</time></trkpt><trkpt lat="45.84745120933538" lon="11.671710033929054"><ele>147.0</ele><time>2026-05-02T06:52:55.457Z</time></trkpt><trkpt lat="45.847549033354134" lon="11.67161320917633"><ele>152.0</ele><time>2026-05-02T06:52:56.457Z</time></trkpt><trkpt lat="45.84768572465971" lon="11.671518286340968"><ele>157.0</ele><time>2026-05-02T06:52:57.457Z</time></trkpt><trkpt lat="45.84781460135636" lon="11.671388967073238"><ele>162.0</ele><time>2026-05-02T06:52:58.457Z</time></trkpt><trkpt lat="45.84794992439037" lon="11.671273622650899"><ele>162.0</ele><time>2026-05-02T06:52:59.457Z</time></trkpt><trkpt lat="45.848036739998115" lon="11.671121054975993"><ele>162.0</ele><time>2026-05-02T06:53:00.457Z</time></trkpt><trkpt lat="45.84816209977938" lon="11.670975453506768"><ele>162.0</ele><time>2026-05-02T06:53:01.457Z</time></trkpt><trkpt lat="45.84829151745865" lon="11.670849933778543"><ele>163.66666666666666</ele><time>2026-05-02T06:53:02.457Z</time></trkpt><trkpt lat="45.84842163897541" lon="11.670726729511774"><ele>165.33333333333331</ele><time>2026-05-02T06:53:03.457Z</time></trkpt><trkpt lat="45.84854353524717" lon="11.67057610063138"><ele>167.0</ele><time>2026-05-02T06:53:04.457Z</time></trkpt><trkpt lat="45.848665937023185" lon="11.67042649566489"><ele>167.0</ele><time>2026-05-02T06:53:05.457Z</time></trkpt><trkpt lat="45.84879873429514" lon="11.67030552978604"><ele>167.0</ele><time>2026-05-02T06:53:06.457Z</time></trkpt><trkpt lat="45.84892490326329" lon="11.670183177903313"><ele>167.0</ele><time>2026-05-02T06:53:07.457Z</time></trkpt><trkpt lat="45.849062765973706" lon="11.670055527887547"><ele>167.33333333333331</ele><time>2026-05-02T06:53:08.457Z</time></trkpt><trkpt lat="45.84920469208645" lon="11.66993794205286"><ele>167.66666666666666</ele><time>2026-05-02T06:53:09.457Z</time></trkpt><trkpt lat="45.8493517329773" lon="11.66985526973889"><ele>168.0</ele><time>2026-05-02T06:53:10.457Z</time></trkpt><trkpt lat="45.849507461756126" lon="11.669760903127816"><ele>168.0</ele><time>2026-05-02T06:53:11.457Z</time></trkpt><trkpt lat="45.84964013258474" lon="11.669687051946257"><ele>168.0</ele><time>2026-05-02T06:53:12.457Z</time></trkpt><trkpt lat="45.84978817898053" lon="11.669606907405772"><ele>168.0</ele><time>2026-05-02T06:53:13.457Z</time></trkpt><trkpt lat="45.849934206362796" lon="11.669517637602578"><ele>164.33333333333334</ele><time>2026-05-02T06:53:14.457Z</time></trkpt><trkpt lat="45.850068674543934" lon="11.669429944477436"><ele>160.66666666666669</ele><time>2026-05-02T06:53:15.457Z</time></trkpt><trkpt lat="45.850220248902474" lon="11.669347471640513"><ele>157.0</ele><time>2026-05-02T06:53:16.457Z</time></trkpt><trkpt lat="45.850352045522065" lon="11.669252177429263"><ele>157.0</ele><time>2026-05-02T06:53:17.457Z</time></trkpt><trkpt lat="45.850499515353754" lon="11.669156933970987"><ele>157.0</ele><time>2026-05-02T06:53:18.457Z</time></trkpt><trkpt lat="45.85065731107005" lon="11.669044971086564"><ele>157.0</ele><time>2026-05-02T06:53:19.457Z</time></trkpt><trkpt lat="45.85081778659528" lon="11.66896071583465"><ele>164.66666666666669</ele><time>2026-05-02T06:53:20.457Z</time></trkpt><trkpt lat="45.8509760940945" lon="11.668866508716551"><ele>172.33333333333334</ele><time>2026-05-02T06:53:21.457Z</time></trkpt><trkpt lat="45.85113355064412" lon="11.668774345078281"><ele>180.0</ele><time>2026-05-02T06:53:22.458Z</time></trkpt><trkpt lat="45.851293459968566" lon="11.668665251066908"><ele>169.66666666666666</ele><time>2026-05-02T06:53:23.458Z</time></trkpt><trkpt lat="45.85145600974341" lon="11.668544907617799"><ele>159.33333333333331</ele><time>2026-05-02T06:53:24.458Z</time></trkpt><trkpt lat="45.85162624887712" lon="11.668452299094158"><ele>149.0</ele><time>2026-05-02T06:53:25.458Z</time></trkpt><trkpt lat="45.85178144875138" lon="11.66833103831642"><ele>155.0</ele><time>2026-05-02T06:53:26.458Z</time></trkpt><trkpt lat="45.85193937223489" lon="11.668207561993599"><ele>161.0</ele><time>2026-05-02T06:53:27.458Z</time></trkpt><trkpt lat="45.85209455243439" lon="11.668064665374011"><ele>167.0</ele><time>2026-05-02T06:53:28.458Z</time></trkpt><trkpt lat="45.85223612680924" lon="11.667918708529529"><ele>163.33333333333331</ele><time>2026-05-02T06:53:29.458Z</time></trkpt><trkpt lat="45.852385279637915" lon="11.667751323037528"><ele>159.66666666666666</ele><time>2026-05-02T06:53:30.458Z</time></trkpt><trkpt lat="45.852524937924144" lon="11.667606345207753"><ele>156.0</ele><time>2026-05-02T06:53:31.458Z</time></trkpt><trkpt lat="45.85265804279227" lon="11.667461913577737"><ele>156.0</ele><time>2026-05-02T06:53:32.458Z</time></trkpt><trkpt lat="45.852766699397364" lon="11.667337538214763"><ele>156.0</ele><time>2026-05-02T06:53:33.458Z</time></trkpt><trkpt lat="45.852889124045966" lon="11.667182594759371"><ele>156.0</ele><time>2026-05-02T06:53:34.458Z</time></trkpt><trkpt lat="45.85299481527803" lon="11.667033897877197"><ele>153.0</ele><time>2026-05-02T06:53:35.458Z</time></trkpt><trkpt lat="45.85309261763697" lon="11.66688598165552"><ele>150.0</ele><time>2026-05-02T06:53:36.458Z</time></trkpt><trkpt lat="45.85319244379831" lon="11.66673301976639"><ele>147.0</ele><time>2026-05-02T06:53:37.458Z</time></trkpt><trkpt lat="45.8533128805401" lon="11.666548476039779"><ele>147.0</ele><time>2026-05-02T06:53:38.458Z</time></trkpt><trkpt lat="45.853399904667384" lon="11.666415129905316"><ele>147.0</ele><time>2026-05-02T06:53:39.458Z</time></trkpt><trkpt lat="45.85350360849044" lon="11.66625515945668"><ele>147.0</ele><time>2026-05-02T06:53:40.458Z</time></trkpt><trkpt lat="45.85358901195407" lon="11.66611993885529"><ele>147.0</ele><time>2026-05-02T06:53:41.458Z</time></trkpt><trkpt lat="45.85368910153212" lon="11.665971160929244"><ele>148.0</ele><time>2026-05-02T06:53:42.458Z</time></trkpt><trkpt lat="45.85377870762836" lon="11.66584374679007"><ele>149.0</ele><time>2026-05-02T06:53:43.458Z</time></trkpt><trkpt lat="45.8538985477157" lon="11.665716661977859"><ele>150.0</ele><time>2026-05-02T06:53:44.458Z</time></trkpt><trkpt lat="45.85404337199398" lon="11.6655765806926"><ele>150.0</ele><time>2026-05-02T06:53:45.458Z</time></trkpt><trkpt lat="45.854177294910215" lon="11.665449764836765"><ele>150.0</ele><time>2026-05-02T06:53:46.458Z</time></trkpt><trkpt lat="45.854328668663065" lon="11.665332634292238"><ele>150.0</ele><time>2026-05-02T06:53:47.458Z</time></trkpt><trkpt lat="45.854455559421446" lon="11.665198166099046"><ele>153.66666666666666</ele><time>2026-05-02T06:53:48.458Z</time></trkpt><trkpt lat="45.8545999458366" lon="11.665069639477045"><ele>157.33333333333331</ele><time>2026-05-02T06:53:49.458Z</time></trkpt><trkpt lat="45.85473635078981" lon="11.664960734532034"><ele>161.0</ele><time>2026-05-02T06:53:50.458Z</time></trkpt><trkpt lat="45.854883339065054" lon="11.664852019528555"><ele>161.0</ele><time>2026-05-02T06:53:51.458Z</time></trkpt><trkpt lat="45.85502686284963" lon="11.66475238641377"><ele>161.0</ele><time>2026-05-02T06:53:52.458Z</time></trkpt><trkpt lat="45.8551705784162" lon="11.664652329712043"><ele>161.0</ele><time>2026-05-02T06:53:53.458Z</time></trkpt><trkpt lat="45.85532030720755" lon="11.664547710280234"><ele>159.25</ele><time>2026-05-02T06:53:54.458Z</time></trkpt><trkpt lat="45.85545313371837" lon="11.664454900871952"><ele>157.5</ele><time>2026-05-02T06:53:55.458Z</time></trkpt><trkpt lat="45.855582485958905" lon="11.664364384546607"><ele>155.75</ele><time>2026-05-02T06:53:56.458Z</time></trkpt><trkpt lat="45.855715873904" lon="11.664270835421185"><ele>154.0</ele><time>2026-05-02T06:53:57.458Z</time></trkpt><trkpt lat="45.855833320506115" lon="11.664186820193155"><ele>154.0</ele><time>2026-05-02T06:53:58.458Z</time></trkpt><trkpt lat="45.85593956008905" lon="11.66409538805996"><ele>154.0</ele><time>2026-05-02T06:53:59.458Z</time></trkpt><trkpt lat="45.85602797320946" lon="11.664013432069856"><ele>154.0</ele><time>2026-05-02T06:54:00.458Z</time></trkpt><trkpt lat="45.85614167776861" lon="11.663894248563068"><ele>154.0</ele><time>2026-05-02T06:54:01.458Z</time></trkpt><trkpt lat="45.85621581264806" lon="11.663789484757228"><ele>155.16666666666669</ele><time>2026-05-02T06:54:02.458Z</time></trkpt><trkpt lat="45.856265678599655" lon="11.663724806708139"><ele>156.33333333333334</ele><time>2026-05-02T06:54:03.458Z</time></trkpt><trkpt lat="45.856323512723534" lon="11.663632072499412"><ele>157.5</ele><time>2026-05-02T06:54:06.458Z</time></trkpt><trkpt lat="45.856370866906424" lon="11.663561470325043"><ele>158.66666666666666</ele><time>2026-05-02T06:54:08.458Z</time></trkpt><trkpt lat="45.85647391570478" lon="11.663409891212256"><ele>159.83333333333331</ele><time>2026-05-02T06:54:09.458Z</time></trkpt><trkpt lat="45.85652465503879" lon="11.663335758977393"><ele>161.0</ele><time>2026-05-02T06:54:10.458Z</time></trkpt><trkpt lat="45.85657364356088" lon="11.663264184182664"><ele>161.0</ele><time>2026-05-02T06:54:11.458Z</time></trkpt><trkpt lat="45.856620597526586" lon="11.663195582465494"><ele>161.0</ele><time>2026-05-02T06:54:12.458Z</time></trkpt><trkpt lat="45.85668014856275" lon="11.663108376477481"><ele>161.0</ele><time>2026-05-02T06:54:13.458Z</time></trkpt><trkpt lat="45.85677657819927" lon="11.66296572836461"><ele>161.0</ele><time>2026-05-02T06:54:14.458Z</time></trkpt><trkpt lat="45.85685743984039" lon="11.66284610966745"><ele>161.0</ele><time>2026-05-02T06:54:15.458Z</time></trkpt><trkpt lat="45.85691711781252" lon="11.662757828079215"><ele>161.75</ele><time>2026-05-02T06:54:16.458Z</time></trkpt><trkpt lat="45.85702221688254" lon="11.662602219929795"><ele>162.5</ele><time>2026-05-02T06:54:18.458Z</time></trkpt><trkpt lat="45.85709612646341" lon="11.662493576892048"><ele>163.25</ele><time>2026-05-02T06:54:20.458Z</time></trkpt><trkpt lat="45.85717548697374" lon="11.662378229712242"><ele>164.0</ele><time>2026-05-02T06:54:22.458Z</time></trkpt><trkpt lat="45.857249167231906" lon="11.662295065730554"><ele>164.0</ele><time>2026-05-02T06:54:24.458Z</time></trkpt><trkpt lat="45.85730293202528" lon="11.662196912895794"><ele>164.0</ele><time>2026-05-02T06:54:26.458Z</time></trkpt><trkpt lat="45.85735849202856" lon="11.662122410925015"><ele>164.0</ele><time>2026-05-02T06:54:29.458Z</time></trkpt><trkpt lat="45.857428704583704" lon="11.662034447814053"><ele>164.0</ele><time>2026-05-02T06:54:32.458Z</time></trkpt><trkpt lat="45.85748349119263" lon="11.661975502646929"><ele>164.0</ele><time>2026-05-02T06:54:34.458Z</time></trkpt><trkpt lat="45.85757470841496" lon="11.661890568228241"><ele>164.0</ele><time>2026-05-02T06:54:36.458Z</time></trkpt><trkpt lat="45.857628625070106" lon="11.661843277941125"><ele>162.99999999999997</ele><time>2026-05-02T06:54:37.458Z</time></trkpt><trkpt lat="45.85768883451772" lon="11.661808611206983"><ele>162.0</ele><time>2026-05-02T06:54:38.458Z</time></trkpt><trkpt lat="45.85776290938265" lon="11.661742036050459"><ele>161.0</ele><time>2026-05-02T06:54:39.458Z</time></trkpt><trkpt lat="45.85781535292245" lon="11.661674001336246"><ele>160.0</ele><time>2026-05-02T06:54:40.458Z</time></trkpt><trkpt lat="45.85786849868532" lon="11.661620548686072"><ele>159.0</ele><time>2026-05-02T06:54:41.458Z</time></trkpt><trkpt lat="45.85795910607807" lon="11.661577529740226"><ele>157.99999999999997</ele><time>2026-05-02T06:54:43.458Z</time></trkpt><trkpt lat="45.85801138347972" lon="11.661519505891656"><ele>157.0</ele><time>2026-05-02T06:54:45.458Z</time></trkpt><trkpt lat="45.85809230335825" lon="11.661443924344832"><ele>157.0</ele><time>2026-05-02T06:55:05.458Z</time></trkpt><trkpt lat="45.858161325433585" lon="11.661338083700471"><ele>157.0</ele><time>2026-05-02T06:55:08.458Z</time></trkpt><trkpt lat="45.858268532869864" lon="11.66120747440495"><ele>157.0</ele><time>2026-05-02T06:55:10.458Z</time></trkpt><trkpt lat="45.85833971648857" lon="11.661148795322033"><ele>157.0</ele><time>2026-05-02T06:55:11.458Z</time></trkpt><trkpt lat="45.8584076979767" lon="11.66109001565316"><ele>157.0</ele><time>2026-05-02T06:55:12.458Z</time></trkpt><trkpt lat="45.858492516122375" lon="11.66103163919395"><ele>156.5</ele><time>2026-05-02T06:55:13.458Z</time></trkpt><trkpt lat="45.858593237543495" lon="11.660915736527242"><ele>156.0</ele><time>2026-05-02T06:55:14.458Z</time></trkpt><trkpt lat="45.85870131203428" lon="11.660856657683032"><ele>155.5</ele><time>2026-05-02T06:55:15.458Z</time></trkpt><trkpt lat="45.858858666942325" lon="11.660775465228628"><ele>155.0</ele><time>2026-05-02T06:55:16.458Z</time></trkpt><trkpt lat="45.85922680654083" lon="11.66090793327008"><ele>155.0</ele><time>2026-05-02T06:55:17.458Z</time></trkpt><trkpt lat="45.859400717541845" lon="11.660882005299653"><ele>155.0</ele><time>2026-05-02T06:55:18.458Z</time></trkpt><trkpt lat="45.85955009490536" lon="11.660839268942128"><ele>155.0</ele><time>2026-05-02T06:55:19.458Z</time></trkpt><trkpt lat="45.85977299490491" lon="11.660857175998274"><ele>155.0</ele><time>2026-05-02T06:55:20.458Z</time></trkpt><trkpt lat="45.85993709384595" lon="11.660876767007705"><ele>155.0</ele><time>2026-05-02T06:55:21.458Z</time></trkpt><trkpt lat="45.86009113234383" lon="11.660893149224083"><ele>155.0</ele><time>2026-05-02T06:55:22.458Z</time></trkpt><trkpt lat="45.860240173607636" lon="11.660832529734378"><ele>155.66666666666666</ele><time>2026-05-02T06:55:23.458Z</time></trkpt><trkpt lat="45.860415788081646" lon="11.660849767319318"><ele>156.33333333333334</ele><time>2026-05-02T06:55:24.458Z</time></trkpt><trkpt lat="45.86059003331991" lon="11.660859376378191"><ele>157.0</ele><time>2026-05-02T06:55:25.458Z</time></trkpt><trkpt lat="45.86079424493499" lon="11.660836062974425"><ele>157.0</ele><time>2026-05-02T06:55:26.458Z</time></trkpt><trkpt lat="45.86091779155768" lon="11.660857875706835"><ele>157.0</ele><time>2026-05-02T06:55:27.458Z</time></trkpt><trkpt lat="45.86107702830366" lon="11.660875738462337"><ele>157.0</ele><time>2026-05-02T06:55:28.459Z</time></trkpt><trkpt lat="45.861227977868374" lon="11.660906608751377"><ele>157.0</ele><time>2026-05-02T06:55:29.459Z</time></trkpt><trkpt lat="45.86138434300387" lon="11.660935511812067"><ele>157.0</ele><time>2026-05-02T06:55:30.459Z</time></trkpt><trkpt lat="45.86158819961361" lon="11.660987280767328"><ele>157.0</ele><time>2026-05-02T06:55:31.459Z</time></trkpt><trkpt lat="45.86177788482905" lon="11.661037340081908"><ele>157.0</ele><time>2026-05-02T06:55:32.459Z</time></trkpt><trkpt lat="45.861978203173244" lon="11.661128085850722"><ele>157.0</ele><time>2026-05-02T06:55:33.459Z</time></trkpt><trkpt lat="45.86219001857625" lon="11.661224657485903"><ele>157.0</ele><time>2026-05-02T06:55:34.459Z</time></trkpt><trkpt lat="45.862424538653364" lon="11.661318269804045"><ele>156.5</ele><time>2026-05-02T06:55:35.459Z</time></trkpt><trkpt lat="45.862645317702764" lon="11.661394854100353"><ele>156.0</ele><time>2026-05-02T06:55:36.459Z</time></trkpt><trkpt lat="45.862863229146576" lon="11.661517698234999"><ele>156.0</ele><time>2026-05-02T06:55:37.459Z</time></trkpt><trkpt lat="45.86307064384503" lon="11.661645810136655"><ele>156.0</ele><time>2026-05-02T06:55:38.459Z</time></trkpt><trkpt lat="45.86326655547383" lon="11.661751545392752"><ele>156.0</ele><time>2026-05-02T06:55:39.459Z</time></trkpt><trkpt lat="45.86346316579148" lon="11.66188587191061"><ele>157.33333333333334</ele><time>2026-05-02T06:55:40.459Z</time></trkpt><trkpt lat="45.86364245216849" lon="11.66198241621104"><ele>158.66666666666669</ele><time>2026-05-02T06:55:41.459Z</time></trkpt><trkpt lat="45.863815911879385" lon="11.662116033106674"><ele>160.0</ele><time>2026-05-02T06:55:42.459Z</time></trkpt><trkpt lat="45.863965804438465" lon="11.662294667658207"><ele>160.0</ele><time>2026-05-02T06:55:43.459Z</time></trkpt><trkpt lat="45.86415086766037" lon="11.662438293544056"><ele>160.0</ele><time>2026-05-02T06:55:44.459Z</time></trkpt><trkpt lat="45.864330859770384" lon="11.662607977410088"><ele>160.0</ele><time>2026-05-02T06:55:45.459Z</time></trkpt><trkpt lat="45.86448876468785" lon="11.662765803344803"><ele>159.0</ele><time>2026-05-02T06:55:46.459Z</time></trkpt><trkpt lat="45.864654003463556" lon="11.662947039394522"><ele>158.0</ele><time>2026-05-02T06:55:47.459Z</time></trkpt><trkpt lat="45.86480479261146" lon="11.663139560020678"><ele>157.0</ele><time>2026-05-02T06:55:48.459Z</time></trkpt><trkpt lat="45.86496358754357" lon="11.663357133463732"><ele>157.0</ele><time>2026-05-02T06:55:49.459Z</time></trkpt><trkpt lat="45.865098066628114" lon="11.663577377817623"><ele>157.0</ele><time>2026-05-02T06:55:50.459Z</time></trkpt><trkpt lat="45.8652456409626" lon="11.66383550561916"><ele>157.0</ele><time>2026-05-02T06:55:51.459Z</time></trkpt><trkpt lat="45.86545531720908" lon="11.664072384083196"><ele>157.0</ele><time>2026-05-02T06:55:52.459Z</time></trkpt><trkpt lat="45.86560156124485" lon="11.664275153772312"><ele>157.0</ele><time>2026-05-02T06:55:53.459Z</time></trkpt><trkpt lat="45.86573879778397" lon="11.664518538701293"><ele>157.0</ele><time>2026-05-02T06:55:54.459Z</time></trkpt><trkpt lat="45.865881254580245" lon="11.664755311662038"><ele>155.66666666666669</ele><time>2026-05-02T06:55:55.459Z</time></trkpt><trkpt lat="45.866036565954765" lon="11.664995218319094"><ele>154.33333333333334</ele><time>2026-05-02T06:55:56.459Z</time></trkpt><trkpt lat="45.866192450754056" lon="11.665208355817896"><ele>153.0</ele><time>2026-05-02T06:55:57.459Z</time></trkpt><trkpt lat="45.866375125730364" lon="11.665400118491144"><ele>154.66666666666666</ele><time>2026-05-02T06:55:58.459Z</time></trkpt><trkpt lat="45.86655247823103" lon="11.665594919423857"><ele>156.33333333333331</ele><time>2026-05-02T06:55:59.459Z</time></trkpt><trkpt lat="45.86672977864327" lon="11.665788361676713"><ele>158.0</ele><time>2026-05-02T06:56:00.459Z</time></trkpt><trkpt lat="45.86691321559097" lon="11.665984619891166"><ele>165.0</ele><time>2026-05-02T06:56:01.459Z</time></trkpt><trkpt lat="45.867094581247805" lon="11.66619352554647"><ele>172.0</ele><time>2026-05-02T06:56:02.459Z</time></trkpt><trkpt lat="45.86725863478562" lon="11.666429717001392"><ele>172.0</ele><time>2026-05-02T06:56:03.459Z</time></trkpt><trkpt lat="45.86743267891452" lon="11.666630404956"><ele>172.0</ele><time>2026-05-02T06:56:04.459Z</time></trkpt><trkpt lat="45.86762883393776" lon="11.666817322716685"><ele>168.0</ele><time>2026-05-02T06:56:05.459Z</time></trkpt><trkpt lat="45.86778897233868" lon="11.66704180232114"><ele>164.0</ele><time>2026-05-02T06:56:06.459Z</time></trkpt><trkpt lat="45.86797052299921" lon="11.667274225567207"><ele>164.0</ele><time>2026-05-02T06:56:07.459Z</time></trkpt><trkpt lat="45.86814549813554" lon="11.667518370066736"><ele>164.0</ele><time>2026-05-02T06:56:08.459Z</time></trkpt><trkpt lat="45.868337655517074" lon="11.667757022941514"><ele>160.0</ele><time>2026-05-02T06:56:09.459Z</time></trkpt><trkpt lat="45.868508806825574" lon="11.668018671361981"><ele>156.0</ele><time>2026-05-02T06:56:10.459Z</time></trkpt><trkpt lat="45.86866288944081" lon="11.66828019667529"><ele>156.0</ele><time>2026-05-02T06:56:11.459Z</time></trkpt><trkpt lat="45.86885098813982" lon="11.668512728157292"><ele>156.0</ele><time>2026-05-02T06:56:12.459Z</time></trkpt><trkpt lat="45.86901429967353" lon="11.668757882749402"><ele>155.5</ele><time>2026-05-02T06:56:13.459Z</time></trkpt><trkpt lat="45.86917742114963" lon="11.669013317763948"><ele>155.0</ele><time>2026-05-02T06:56:14.459Z</time></trkpt><trkpt lat="45.86933641518614" lon="11.669266366031778"><ele>160.5</ele><time>2026-05-02T06:56:15.459Z</time></trkpt><trkpt lat="45.869479958118134" lon="11.66954734029908"><ele>166.0</ele><time>2026-05-02T06:56:16.459Z</time></trkpt><trkpt lat="45.869662690695655" lon="11.669812381268686"><ele>166.0</ele><time>2026-05-02T06:56:17.459Z</time></trkpt><trkpt lat="45.8698454065088" lon="11.670077331833154"><ele>166.0</ele><time>2026-05-02T06:56:18.459Z</time></trkpt><trkpt lat="45.870023982986076" lon="11.670335479584157"><ele>162.5</ele><time>2026-05-02T06:56:19.459Z</time></trkpt><trkpt lat="45.870195315754216" lon="11.670582583659272"><ele>159.0</ele><time>2026-05-02T06:56:20.459Z</time></trkpt><trkpt lat="45.87037302236725" lon="11.670838224291497"><ele>159.0</ele><time>2026-05-02T06:56:21.459Z</time></trkpt><trkpt lat="45.87054898054682" lon="11.671091349596871"><ele>159.0</ele><time>2026-05-02T06:56:22.459Z</time></trkpt><trkpt lat="45.870713884450936" lon="11.671328572524434"><ele>158.0</ele><time>2026-05-02T06:56:23.459Z</time></trkpt><trkpt lat="45.87087999294231" lon="11.671567529320944"><ele>157.0</ele><time>2026-05-02T06:56:24.459Z</time></trkpt><trkpt lat="45.871053121777585" lon="11.671816583633275"><ele>158.33333333333334</ele><time>2026-05-02T06:56:25.459Z</time></trkpt><trkpt lat="45.871203632027125" lon="11.672033101251195"><ele>159.66666666666666</ele><time>2026-05-02T06:56:26.459Z</time></trkpt><trkpt lat="45.87136692244856" lon="11.67226852772378"><ele>161.0</ele><time>2026-05-02T06:56:27.459Z</time></trkpt><trkpt lat="45.871515325238654" lon="11.672495431352937"><ele>161.0</ele><time>2026-05-02T06:56:28.459Z</time></trkpt><trkpt lat="45.87168124015223" lon="11.67266839855837"><ele>161.0</ele><time>2026-05-02T06:56:29.459Z</time></trkpt><trkpt lat="45.87181731311602" lon="11.672858774121588"><ele>161.0</ele><time>2026-05-02T06:56:30.459Z</time></trkpt><trkpt lat="45.87197938788207" lon="11.6730497583754"><ele>160.66666666666666</ele><time>2026-05-02T06:56:31.459Z</time></trkpt><trkpt lat="45.872114902652136" lon="11.673280048873773"><ele>160.33333333333334</ele><time>2026-05-02T06:56:32.459Z</time></trkpt><trkpt lat="45.872179675421016" lon="11.673486946774666"><ele>160.0</ele><time>2026-05-02T06:56:33.459Z</time></trkpt><trkpt lat="45.872253029034646" lon="11.673712912686597"><ele>160.0</ele><time>2026-05-02T06:56:34.459Z</time></trkpt><trkpt lat="45.87232061517753" lon="11.673956591442929"><ele>160.0</ele><time>2026-05-02T06:56:35.459Z</time></trkpt><trkpt lat="45.87237072249507" lon="11.674205244261492"><ele>160.0</ele><time>2026-05-02T06:56:36.459Z</time></trkpt><trkpt lat="45.87242804222701" lon="11.674473265714772"><ele>160.0</ele><time>2026-05-02T06:56:37.459Z</time></trkpt><trkpt lat="45.87250291381147" lon="11.674747854398307"><ele>160.0</ele><time>2026-05-02T06:56:38.459Z</time></trkpt><trkpt lat="45.87258619610336" lon="11.674988806336268"><ele>160.0</ele><time>2026-05-02T06:56:39.459Z</time></trkpt><trkpt lat="45.872689959393284" lon="11.675229576917976"><ele>165.0</ele><time>2026-05-02T06:56:40.459Z</time></trkpt><trkpt lat="45.87284868585482" lon="11.675529897812615"><ele>170.0</ele><time>2026-05-02T06:56:41.459Z</time></trkpt><trkpt lat="45.872990665129876" lon="11.675753642295332"><ele>170.0</ele><time>2026-05-02T06:56:42.459Z</time></trkpt><trkpt lat="45.87313191483558" lon="11.675951752177816"><ele>170.0</ele><time>2026-05-02T06:56:43.459Z</time></trkpt><trkpt lat="45.87330224430478" lon="11.676155543228047"><ele>170.0</ele><time>2026-05-02T06:56:44.459Z</time></trkpt><trkpt lat="45.87347932899576" lon="11.676349127576364"><ele>175.66666666666666</ele><time>2026-05-02T06:56:45.459Z</time></trkpt><trkpt lat="45.87366280012181" lon="11.676528762394712"><ele>181.33333333333334</ele><time>2026-05-02T06:56:46.459Z</time></trkpt><trkpt lat="45.87384794617643" lon="11.676688560389794"><ele>187.0</ele><time>2026-05-02T06:56:47.459Z</time></trkpt><trkpt lat="45.874021291513515" lon="11.67683379952223"><ele>201.0</ele><time>2026-05-02T06:56:48.459Z</time></trkpt><trkpt lat="45.87418337007218" lon="11.676981348692667"><ele>215.0</ele><time>2026-05-02T06:56:49.459Z</time></trkpt><trkpt lat="45.87434674458987" lon="11.677135116590584"><ele>229.0</ele><time>2026-05-02T06:56:50.459Z</time></trkpt><trkpt lat="45.874520363547965" lon="11.677283269538227"><ele>229.0</ele><time>2026-05-02T06:56:51.459Z</time></trkpt><trkpt lat="45.87468592774459" lon="11.67742333969407"><ele>229.0</ele><time>2026-05-02T06:56:52.459Z</time></trkpt><trkpt lat="45.874863488380775" lon="11.677541139636194"><ele>229.0</ele><time>2026-05-02T06:56:53.459Z</time></trkpt><trkpt lat="45.87507158808276" lon="11.677628958328931"><ele>217.33333333333331</ele><time>2026-05-02T06:56:54.459Z</time></trkpt><trkpt lat="45.875285080980916" lon="11.67771526036706"><ele>205.66666666666669</ele><time>2026-05-02T06:56:55.459Z</time></trkpt><trkpt lat="45.87549069296169" lon="11.677783539891811"><ele>194.0</ele><time>2026-05-02T06:56:56.459Z</time></trkpt><trkpt lat="45.87569856745853" lon="11.677883929729584"><ele>194.0</ele><time>2026-05-02T06:56:57.459Z</time></trkpt><trkpt lat="45.875885597351164" lon="11.678052875950037"><ele>194.0</ele><time>2026-05-02T06:56:58.459Z</time></trkpt><trkpt lat="45.87606924921198" lon="11.678195465526306"><ele>194.0</ele><time>2026-05-02T06:56:59.459Z</time></trkpt><trkpt lat="45.87623308840411" lon="11.678334992885183"><ele>185.0</ele><time>2026-05-02T06:57:00.459Z</time></trkpt><trkpt lat="45.876430265915076" lon="11.67854189990289"><ele>176.0</ele><time>2026-05-02T06:57:01.459Z</time></trkpt><trkpt lat="45.87661861532974" lon="11.678722162935244"><ele>179.0</ele><time>2026-05-02T06:57:02.459Z</time></trkpt><trkpt lat="45.876801909205255" lon="11.678944105553406"><ele>182.0</ele><time>2026-05-02T06:57:03.459Z</time></trkpt><trkpt lat="45.87696982302037" lon="11.679125452436839"><ele>182.0</ele><time>2026-05-02T06:57:04.459Z</time></trkpt><trkpt lat="45.87711730026831" lon="11.679313022643157"><ele>182.0</ele><time>2026-05-02T06:57:05.459Z</time></trkpt><trkpt lat="45.877289013813865" lon="11.679529441693369"><ele>182.0</ele><time>2026-05-02T06:57:06.459Z</time></trkpt><trkpt lat="45.877728707116766" lon="11.679434058576616"><ele>183.33333333333331</ele><time>2026-05-02T06:57:07.459Z</time></trkpt><trkpt lat="45.877883418543675" lon="11.679626923883955"><ele>184.66666666666666</ele><time>2026-05-02T06:57:08.459Z</time></trkpt><trkpt lat="45.87807561652689" lon="11.679778247185705"><ele>186.0</ele><time>2026-05-02T06:57:09.459Z</time></trkpt><trkpt lat="45.87830656083863" lon="11.679865399922392"><ele>177.0</ele><time>2026-05-02T06:57:10.459Z</time></trkpt><trkpt lat="45.87854291166786" lon="11.679928002645285"><ele>168.0</ele><time>2026-05-02T06:57:11.459Z</time></trkpt><trkpt lat="45.87875815635294" lon="11.679976328620905"><ele>168.0</ele><time>2026-05-02T06:57:12.459Z</time></trkpt><trkpt lat="45.87897495754239" lon="11.680054163449823"><ele>168.0</ele><time>2026-05-02T06:57:13.459Z</time></trkpt><trkpt lat="45.87921416479633" lon="11.680071139010673"><ele>166.33333333333334</ele><time>2026-05-02T06:57:14.459Z</time></trkpt><trkpt lat="45.879431417160426" lon="11.680162783143114"><ele>164.66666666666669</ele><time>2026-05-02T06:57:15.459Z</time></trkpt><trkpt lat="45.87963302619639" lon="11.680265372840378"><ele>163.0</ele><time>2026-05-02T06:57:16.459Z</time></trkpt><trkpt lat="45.87985150379796" lon="11.680335450151732"><ele>164.5</ele><time>2026-05-02T06:57:17.459Z</time></trkpt><trkpt lat="45.88009315516864" lon="11.680385029515746"><ele>166.0</ele><time>2026-05-02T06:57:18.459Z</time></trkpt><trkpt lat="45.88028850323857" lon="11.680535001209352"><ele>166.0</ele><time>2026-05-02T06:57:19.459Z</time></trkpt><trkpt lat="45.88048968264724" lon="11.680633331723168"><ele>166.0</ele><time>2026-05-02T06:57:20.459Z</time></trkpt><trkpt lat="45.88070321794565" lon="11.680779259751485"><ele>166.0</ele><time>2026-05-02T06:57:21.459Z</time></trkpt><trkpt lat="45.880909362648765" lon="11.68092883152893"><ele>166.0</ele><time>2026-05-02T06:57:22.459Z</time></trkpt><trkpt lat="45.88112426953309" lon="11.681089232345837"><ele>166.0</ele><time>2026-05-02T06:57:23.459Z</time></trkpt><trkpt lat="45.88132932729603" lon="11.681166123322832"><ele>166.0</ele><time>2026-05-02T06:57:24.459Z</time></trkpt><trkpt lat="45.88158444287842" lon="11.681209389948695"><ele>166.0</ele><time>2026-05-02T06:57:25.459Z</time></trkpt><trkpt lat="45.881798826606556" lon="11.681357217008824"><ele>164.0</ele><time>2026-05-02T06:57:26.459Z</time></trkpt><trkpt lat="45.882024991690514" lon="11.68154252722141"><ele>162.0</ele><time>2026-05-02T06:57:27.459Z</time></trkpt><trkpt lat="45.88221847571022" lon="11.68176761665934"><ele>161.5</ele><time>2026-05-02T06:57:28.459Z</time></trkpt><trkpt lat="45.88246999246317" lon="11.681977602730377"><ele>161.0</ele><time>2026-05-02T06:57:29.459Z</time></trkpt><trkpt lat="45.88271934364521" lon="11.682231696766536"><ele>161.0</ele><time>2026-05-02T06:57:30.459Z</time></trkpt><trkpt lat="45.882977510825015" lon="11.682447217750275"><ele>161.0</ele><time>2026-05-02T06:57:31.459Z</time></trkpt><trkpt lat="45.88319617520409" lon="11.682697978853167"><ele>162.0</ele><time>2026-05-02T06:57:32.459Z</time></trkpt><trkpt lat="45.88340163911742" lon="11.682921382296554"><ele>163.0</ele><time>2026-05-02T06:57:33.459Z</time></trkpt><trkpt lat="45.883602705170645" lon="11.683146677202883"><ele>163.0</ele><time>2026-05-02T06:57:34.46Z</time></trkpt><trkpt lat="45.88377590420829" lon="11.683370819257851"><ele>163.0</ele><time>2026-05-02T06:57:35.46Z</time></trkpt><trkpt lat="45.883973550309875" lon="11.683602363314215"><ele>166.5</ele><time>2026-05-02T06:57:36.46Z</time></trkpt><trkpt lat="45.88414320013041" lon="11.683853188264235"><ele>170.0</ele><time>2026-05-02T06:57:37.46Z</time></trkpt><trkpt lat="45.88431097879492" lon="11.684071323683831"><ele>170.0</ele><time>2026-05-02T06:57:38.46Z</time></trkpt><trkpt lat="45.88447966442326" lon="11.684245122306669"><ele>170.0</ele><time>2026-05-02T06:57:39.46Z</time></trkpt><trkpt lat="45.884637118183896" lon="11.684406896359391"><ele>170.0</ele><time>2026-05-02T06:57:40.46Z</time></trkpt><trkpt lat="45.88479884822995" lon="11.684559164413495"><ele>167.66666666666666</ele><time>2026-05-02T06:57:41.46Z</time></trkpt><trkpt lat="45.884967191350384" lon="11.684715361624015"><ele>165.33333333333334</ele><time>2026-05-02T06:57:42.46Z</time></trkpt><trkpt lat="45.88513040532908" lon="11.6848709585526"><ele>163.0</ele><time>2026-05-02T06:57:43.46Z</time></trkpt><trkpt lat="45.88529625973054" lon="11.685045838689641"><ele>163.0</ele><time>2026-05-02T06:57:44.46Z</time></trkpt><trkpt lat="45.88545213846272" lon="11.68521599580161"><ele>163.0</ele><time>2026-05-02T06:57:45.46Z</time></trkpt><trkpt lat="45.88563152139995" lon="11.685409490857618"><ele>163.0</ele><time>2026-05-02T06:57:46.46Z</time></trkpt><trkpt lat="45.88580631448023" lon="11.685566462220335"><ele>163.0</ele><time>2026-05-02T06:57:47.46Z</time></trkpt><trkpt lat="45.885980539554176" lon="11.685765686720112"><ele>163.0</ele><time>2026-05-02T06:57:48.46Z</time></trkpt><trkpt lat="45.88613706656492" lon="11.686022945278228"><ele>168.0</ele><time>2026-05-02T06:57:49.46Z</time></trkpt><trkpt lat="45.886321330950146" lon="11.686215185603675"><ele>173.0</ele><time>2026-05-02T06:57:50.46Z</time></trkpt><trkpt lat="45.886520487837785" lon="11.686420353668094"><ele>173.0</ele><time>2026-05-02T06:57:51.46Z</time></trkpt><trkpt lat="45.88671217780749" lon="11.686625017141353"><ele>173.0</ele><time>2026-05-02T06:57:52.46Z</time></trkpt><trkpt lat="45.88692126111868" lon="11.686805883079913"><ele>176.5</ele><time>2026-05-02T06:57:53.46Z</time></trkpt><trkpt lat="45.887123899974874" lon="11.686993875340763"><ele>180.0</ele><time>2026-05-02T06:57:54.46Z</time></trkpt><trkpt lat="45.887315441585024" lon="11.68717112449703"><ele>180.0</ele><time>2026-05-02T06:57:55.46Z</time></trkpt><trkpt lat="45.887518595425796" lon="11.68735571306733"><ele>180.0</ele><time>2026-05-02T06:57:56.46Z</time></trkpt><trkpt lat="45.8877093751726" lon="11.687539115549784"><ele>180.0</ele><time>2026-05-02T06:57:57.46Z</time></trkpt><trkpt lat="45.887900465140305" lon="11.687722323385271"><ele>180.0</ele><time>2026-05-02T06:57:58.46Z</time></trkpt><trkpt lat="45.88808456753279" lon="11.687881514653236"><ele>180.0</ele><time>2026-05-02T06:57:59.46Z</time></trkpt><trkpt lat="45.888277632582785" lon="11.688085716922117"><ele>172.5</ele><time>2026-05-02T06:58:00.46Z</time></trkpt><trkpt lat="45.8884808453021" lon="11.68828113344759"><ele>165.0</ele><time>2026-05-02T06:58:01.46Z</time></trkpt><trkpt lat="45.888651946052754" lon="11.688493187311986"><ele>176.5</ele><time>2026-05-02T06:58:02.46Z</time></trkpt><trkpt lat="45.888847135558784" lon="11.688679893513239"><ele>188.0</ele><time>2026-05-02T06:58:03.46Z</time></trkpt><trkpt lat="45.88904729801165" lon="11.688852917018307"><ele>188.0</ele><time>2026-05-02T06:58:04.46Z</time></trkpt><trkpt lat="45.8892391974515" lon="11.689045549837555"><ele>188.0</ele><time>2026-05-02T06:58:05.46Z</time></trkpt><trkpt lat="45.8894242211049" lon="11.689251565698777"><ele>188.0</ele><time>2026-05-02T06:58:06.46Z</time></trkpt><trkpt lat="45.88960573561475" lon="11.689453035468935"><ele>188.0</ele><time>2026-05-02T06:58:07.46Z</time></trkpt><trkpt lat="45.88978181425104" lon="11.68964744217606"><ele>188.0</ele><time>2026-05-02T06:58:08.46Z</time></trkpt><trkpt lat="45.88997458315351" lon="11.689835869829123"><ele>188.0</ele><time>2026-05-02T06:58:09.46Z</time></trkpt><trkpt lat="45.89016169090784" lon="11.690013607023655"><ele>186.33333333333331</ele><time>2026-05-02T06:58:10.46Z</time></trkpt><trkpt lat="45.89035577887182" lon="11.690173034977397"><ele>184.66666666666666</ele><time>2026-05-02T06:58:11.46Z</time></trkpt><trkpt lat="45.89055328605717" lon="11.690324487830408"><ele>183.0</ele><time>2026-05-02T06:58:12.46Z</time></trkpt><trkpt lat="45.890741974665396" lon="11.690477941742115"><ele>178.0</ele><time>2026-05-02T06:58:13.46Z</time></trkpt><trkpt lat="45.89096325033403" lon="11.690603191344794"><ele>173.0</ele><time>2026-05-02T06:58:14.46Z</time></trkpt><trkpt lat="45.891156014705366" lon="11.69075458723253"><ele>173.0</ele><time>2026-05-02T06:58:15.46Z</time></trkpt><trkpt lat="45.89139073013637" lon="11.690849076870732"><ele>173.0</ele><time>2026-05-02T06:58:16.46Z</time></trkpt><trkpt lat="45.891636579555595" lon="11.69093745126961"><ele>171.33333333333331</ele><time>2026-05-02T06:58:17.46Z</time></trkpt><trkpt lat="45.89183743800577" lon="11.691034251401957"><ele>169.66666666666666</ele><time>2026-05-02T06:58:18.46Z</time></trkpt><trkpt lat="45.89204431172671" lon="11.691107493475233"><ele>168.0</ele><time>2026-05-02T06:58:19.46Z</time></trkpt><trkpt lat="45.89226839651883" lon="11.691138324947303"><ele>169.66666666666666</ele><time>2026-05-02T06:58:20.46Z</time></trkpt><trkpt lat="45.89249201820551" lon="11.691171053620728"><ele>171.33333333333331</ele><time>2026-05-02T06:58:21.46Z</time></trkpt><trkpt lat="45.89271012952612" lon="11.691181446766613"><ele>173.0</ele><time>2026-05-02T06:58:22.46Z</time></trkpt><trkpt lat="45.892931603987115" lon="11.691163638867625"><ele>173.0</ele><time>2026-05-02T06:58:23.46Z</time></trkpt><trkpt lat="45.89316256482182" lon="11.691121923303053"><ele>173.0</ele><time>2026-05-02T06:58:24.46Z</time></trkpt><trkpt lat="45.893398580089304" lon="11.69107739903261"><ele>173.0</ele><time>2026-05-02T06:58:25.46Z</time></trkpt><trkpt lat="45.893639240714656" lon="11.691064524875891"><ele>173.0</ele><time>2026-05-02T06:58:26.46Z</time></trkpt><trkpt lat="45.89388631718776" lon="11.691033155081799"><ele>173.0</ele><time>2026-05-02T06:58:27.46Z</time></trkpt><trkpt lat="45.89412715119322" lon="11.691020892657077"><ele>173.0</ele><time>2026-05-02T06:58:28.46Z</time></trkpt><trkpt lat="45.89437981261336" lon="11.690973697253984"><ele>174.5</ele><time>2026-05-02T06:58:29.46Z</time></trkpt><trkpt lat="45.89462938312101" lon="11.690918494390482"><ele>176.0</ele><time>2026-05-02T06:58:30.46Z</time></trkpt><trkpt lat="45.89488347495028" lon="11.690828804288818"><ele>176.5</ele><time>2026-05-02T06:58:31.46Z</time></trkpt><trkpt lat="45.89513195053478" lon="11.690769294369428"><ele>177.0</ele><time>2026-05-02T06:58:32.46Z</time></trkpt><trkpt lat="45.89537351469054" lon="11.690749908882085"><ele>177.0</ele><time>2026-05-02T06:58:33.46Z</time></trkpt><trkpt lat="45.89563158558888" lon="11.690781329513815"><ele>177.0</ele><time>2026-05-02T06:58:34.46Z</time></trkpt><trkpt lat="45.89585680392394" lon="11.690779720397524"><ele>176.66666666666666</ele><time>2026-05-02T06:58:35.46Z</time></trkpt><trkpt lat="45.89607213695285" lon="11.690806052097818"><ele>176.33333333333331</ele><time>2026-05-02T06:58:36.46Z</time></trkpt><trkpt lat="45.89627999124192" lon="11.690796317704121"><ele>176.0</ele><time>2026-05-02T06:58:37.46Z</time></trkpt><trkpt lat="45.89650321833061" lon="11.690829423927536"><ele>176.0</ele><time>2026-05-02T06:58:38.46Z</time></trkpt><trkpt lat="45.89672413506463" lon="11.690844046000016"><ele>176.0</ele><time>2026-05-02T06:58:39.46Z</time></trkpt><trkpt lat="45.89694614664606" lon="11.69086792935763"><ele>176.0</ele><time>2026-05-02T06:58:40.46Z</time></trkpt><trkpt lat="45.89716668317522" lon="11.690919933141954"><ele>173.5</ele><time>2026-05-02T06:58:41.46Z</time></trkpt><trkpt lat="45.89738147978571" lon="11.690995307487377"><ele>171.0</ele><time>2026-05-02T06:58:42.46Z</time></trkpt><trkpt lat="45.89761097199316" lon="11.691084799444605"><ele>171.5</ele><time>2026-05-02T06:58:43.46Z</time></trkpt><trkpt lat="45.89782521236315" lon="11.691226235091465"><ele>172.0</ele><time>2026-05-02T06:58:44.46Z</time></trkpt><trkpt lat="45.89802926365637" lon="11.691375469079444"><ele>172.0</ele><time>2026-05-02T06:58:45.46Z</time></trkpt><trkpt lat="45.8982195260457" lon="11.691520326266401"><ele>172.0</ele><time>2026-05-02T06:58:46.46Z</time></trkpt><trkpt lat="45.898397827988354" lon="11.691696121003924"><ele>172.0</ele><time>2026-05-02T06:58:47.46Z</time></trkpt><trkpt lat="45.89855614442352" lon="11.691907376804947"><ele>173.0</ele><time>2026-05-02T06:58:48.46Z</time></trkpt><trkpt lat="45.89871319923787" lon="11.692133303706518"><ele>174.0</ele><time>2026-05-02T06:58:49.46Z</time></trkpt><trkpt lat="45.89885355753083" lon="11.692353840873727"><ele>175.0</ele><time>2026-05-02T06:58:50.46Z</time></trkpt><trkpt lat="45.89897427193438" lon="11.692611906297802"><ele>175.0</ele><time>2026-05-02T06:58:51.46Z</time></trkpt><trkpt lat="45.899099902542446" lon="11.692884038744186"><ele>175.0</ele><time>2026-05-02T06:58:52.46Z</time></trkpt><trkpt lat="45.89920856391723" lon="11.69316012033124"><ele>175.0</ele><time>2026-05-02T06:58:53.46Z</time></trkpt><trkpt lat="45.89931076740583" lon="11.693441912494357"><ele>173.0</ele><time>2026-05-02T06:58:54.46Z</time></trkpt><trkpt lat="45.899388666711125" lon="11.693783628695224"><ele>171.0</ele><time>2026-05-02T06:58:55.46Z</time></trkpt><trkpt lat="45.89945020893454" lon="11.694135439144983"><ele>172.0</ele><time>2026-05-02T06:58:56.46Z</time></trkpt><trkpt lat="45.89952332358599" lon="11.694452203579083"><ele>173.0</ele><time>2026-05-02T06:58:57.46Z</time></trkpt><trkpt lat="45.89958884062144" lon="11.694737402183158"><ele>174.0</ele><time>2026-05-02T06:58:58.46Z</time></trkpt><trkpt lat="45.89962913286647" lon="11.695055755602567"><ele>174.0</ele><time>2026-05-02T06:58:59.46Z</time></trkpt><trkpt lat="45.89969280088343" lon="11.695321162892487"><ele>174.0</ele><time>2026-05-02T06:59:00.46Z</time></trkpt><trkpt lat="45.899732508594425" lon="11.6956019020488"><ele>174.0</ele><time>2026-05-02T06:59:01.46Z</time></trkpt><trkpt lat="45.899804324757426" lon="11.695818991408732"><ele>174.0</ele><time>2026-05-02T06:59:02.46Z</time></trkpt><trkpt lat="45.89985102545478" lon="11.696078802563255"><ele>174.0</ele><time>2026-05-02T06:59:03.46Z</time></trkpt><trkpt lat="45.89990415274541" lon="11.696307282309157"><ele>174.0</ele><time>2026-05-02T06:59:04.46Z</time></trkpt><trkpt lat="45.89995061660518" lon="11.696506063292373"><ele>174.33333333333334</ele><time>2026-05-02T06:59:05.46Z</time></trkpt><trkpt lat="45.89999233549581" lon="11.696720750743813"><ele>174.66666666666669</ele><time>2026-05-02T06:59:06.46Z</time></trkpt><trkpt lat="45.90005819950367" lon="11.69694365090506"><ele>175.0</ele><time>2026-05-02T06:59:07.46Z</time></trkpt><trkpt lat="45.9001284915374" lon="11.697129558166658"><ele>174.0</ele><time>2026-05-02T06:59:08.46Z</time></trkpt><trkpt lat="45.900185623175936" lon="11.697280942410302"><ele>173.0</ele><time>2026-05-02T06:59:09.46Z</time></trkpt><trkpt lat="45.90025406708975" lon="11.697426618137793"><ele>172.0</ele><time>2026-05-02T06:59:10.46Z</time></trkpt><trkpt lat="45.900279411212814" lon="11.697559701131116"><ele>171.0</ele><time>2026-05-02T06:59:11.46Z</time></trkpt><trkpt lat="45.90028825682535" lon="11.697730375699214"><ele>172.0</ele><time>2026-05-02T06:59:12.46Z</time></trkpt><trkpt lat="45.90034065550871" lon="11.697888781104213"><ele>173.0</ele><time>2026-05-02T06:59:13.46Z</time></trkpt><trkpt lat="45.900354080783" lon="11.698066055930685"><ele>174.0</ele><time>2026-05-02T06:59:14.46Z</time></trkpt><trkpt lat="45.90037709748477" lon="11.698296297985692"><ele>175.0</ele><time>2026-05-02T06:59:15.46Z</time></trkpt><trkpt lat="45.90038696097455" lon="11.698546864393396"><ele>174.33333333333334</ele><time>2026-05-02T06:59:16.46Z</time></trkpt><trkpt lat="45.90045847184352" lon="11.698764303908932"><ele>173.66666666666666</ele><time>2026-05-02T06:59:17.46Z</time></trkpt><trkpt lat="45.900529555468694" lon="11.698929120206097"><ele>173.0</ele><time>2026-05-02T06:59:18.46Z</time></trkpt><trkpt lat="45.900574448368204" lon="11.699154018878671"><ele>173.33333333333331</ele><time>2026-05-02T06:59:19.46Z</time></trkpt><trkpt lat="45.90054913040559" lon="11.699445860229261"><ele>173.66666666666666</ele><time>2026-05-02T06:59:20.46Z</time></trkpt><trkpt lat="45.90057651582647" lon="11.699676324783624"><ele>174.0</ele><time>2026-05-02T06:59:21.46Z</time></trkpt><trkpt lat="45.90064520461748" lon="11.699899300155607"><ele>174.0</ele><time>2026-05-02T06:59:22.46Z</time></trkpt><trkpt lat="45.90070683691797" lon="11.7001468389311"><ele>174.0</ele><time>2026-05-02T06:59:23.46Z</time></trkpt><trkpt lat="45.900736998771166" lon="11.700408977827683"><ele>174.0</ele><time>2026-05-02T06:59:24.46Z</time></trkpt><trkpt lat="45.90078676339041" lon="11.700659140535246"><ele>174.0</ele><time>2026-05-02T06:59:25.46Z</time></trkpt><trkpt lat="45.90083945843159" lon="11.700882953741"><ele>174.0</ele><time>2026-05-02T06:59:26.46Z</time></trkpt><trkpt lat="45.90089833255183" lon="11.701104939974664"><ele>174.0</ele><time>2026-05-02T06:59:27.46Z</time></trkpt><trkpt lat="45.900922989329686" lon="11.701353299968986"><ele>174.33333333333334</ele><time>2026-05-02T06:59:28.46Z</time></trkpt><trkpt lat="45.900981960321594" lon="11.70159785703036"><ele>174.66666666666669</ele><time>2026-05-02T06:59:29.46Z</time></trkpt><trkpt lat="45.90102936547517" lon="11.70184507845387"><ele>175.0</ele><time>2026-05-02T06:59:30.46Z</time></trkpt><trkpt lat="45.901073816956554" lon="11.702086349469292"><ele>175.33333333333334</ele><time>2026-05-02T06:59:31.46Z</time></trkpt><trkpt lat="45.90111871750658" lon="11.702336711813894"><ele>175.66666666666666</ele><time>2026-05-02T06:59:32.46Z</time></trkpt><trkpt lat="45.90117680024637" lon="11.702561593075538"><ele>176.0</ele><time>2026-05-02T06:59:33.46Z</time></trkpt><trkpt lat="45.90123824210563" lon="11.70278117108618"><ele>177.0</ele><time>2026-05-02T06:59:34.46Z</time></trkpt><trkpt lat="45.90129275960407" lon="11.702997208510073"><ele>178.0</ele><time>2026-05-02T06:59:35.46Z</time></trkpt><trkpt lat="45.90134231614653" lon="11.7032254218566"><ele>179.0</ele><time>2026-05-02T06:59:36.46Z</time></trkpt><trkpt lat="45.901427443153004" lon="11.70344637928604"><ele>179.66666666666666</ele><time>2026-05-02T06:59:37.46Z</time></trkpt><trkpt lat="45.90150933098184" lon="11.703664209642128"><ele>180.33333333333334</ele><time>2026-05-02T06:59:38.46Z</time></trkpt><trkpt lat="45.90157045351023" lon="11.703868502847486"><ele>181.0</ele><time>2026-05-02T06:59:39.46Z</time></trkpt><trkpt lat="45.90161706121117" lon="11.704077713372651"><ele>181.0</ele><time>2026-05-02T06:59:40.461Z</time></trkpt><trkpt lat="45.90165706168897" lon="11.70428533480367"><ele>181.0</ele><time>2026-05-02T06:59:41.461Z</time></trkpt><trkpt lat="45.901706556528175" lon="11.704488331542152"><ele>181.0</ele><time>2026-05-02T06:59:42.461Z</time></trkpt><trkpt lat="45.90173023281205" lon="11.704692833494017"><ele>181.0</ele><time>2026-05-02T06:59:43.461Z</time></trkpt><trkpt lat="45.90176922590088" lon="11.704898639299675"><ele>181.0</ele><time>2026-05-02T06:59:44.461Z</time></trkpt><trkpt lat="45.90181567499579" lon="11.705116768429638"><ele>181.0</ele><time>2026-05-02T06:59:45.461Z</time></trkpt><trkpt lat="45.901847234541655" lon="11.705348080812294"><ele>181.0</ele><time>2026-05-02T06:59:46.461Z</time></trkpt><trkpt lat="45.9018916448022" lon="11.705575768909396"><ele>178.66666666666669</ele><time>2026-05-02T06:59:47.461Z</time></trkpt><trkpt lat="45.90192963056551" lon="11.705807296165801"><ele>176.33333333333334</ele><time>2026-05-02T06:59:48.461Z</time></trkpt><trkpt lat="45.90196674240573" lon="11.706057212265632"><ele>174.0</ele><time>2026-05-02T06:59:49.461Z</time></trkpt><trkpt lat="45.902010173053576" lon="11.706292563038302"><ele>174.0</ele><time>2026-05-02T06:59:50.461Z</time></trkpt><trkpt lat="45.90205048736808" lon="11.706540669619505"><ele>174.0</ele><time>2026-05-02T06:59:51.461Z</time></trkpt><trkpt lat="45.90209587885365" lon="11.706786776998213"><ele>174.0</ele><time>2026-05-02T06:59:52.461Z</time></trkpt><trkpt lat="45.902138243489894" lon="11.707039256874971"><ele>175.0</ele><time>2026-05-02T06:59:53.461Z</time></trkpt><trkpt lat="45.902183785800254" lon="11.707275620609943"><ele>176.0</ele><time>2026-05-02T06:59:54.461Z</time></trkpt><trkpt lat="45.90222805160458" lon="11.707497854438692"><ele>177.0</ele><time>2026-05-02T06:59:55.461Z</time></trkpt><trkpt lat="45.90227882666211" lon="11.707719259306543"><ele>178.66666666666666</ele><time>2026-05-02T06:59:56.461Z</time></trkpt><trkpt lat="45.902331121247876" lon="11.707941823356746"><ele>180.33333333333331</ele><time>2026-05-02T06:59:57.461Z</time></trkpt><trkpt lat="45.90236932559381" lon="11.708164510957955"><ele>182.0</ele><time>2026-05-02T06:59:58.461Z</time></trkpt><trkpt lat="45.902413249884425" lon="11.708390281666311"><ele>186.66666666666666</ele><time>2026-05-02T06:59:59.461Z</time></trkpt><trkpt lat="45.90244835337683" lon="11.708618812692995"><ele>191.33333333333331</ele><time>2026-05-02T07:00:00.461Z</time></trkpt><trkpt lat="45.90248701054595" lon="11.708846485003066"><ele>196.0</ele><time>2026-05-02T07:00:01.461Z</time></trkpt><trkpt lat="45.90253219820033" lon="11.70906976648246"><ele>196.0</ele><time>2026-05-02T07:00:02.461Z</time></trkpt><trkpt lat="45.902546061682294" lon="11.709308705331201"><ele>196.0</ele><time>2026-05-02T07:00:03.461Z</time></trkpt><trkpt lat="45.90256529436983" lon="11.709566345048442"><ele>196.0</ele><time>2026-05-02T07:00:04.461Z</time></trkpt><trkpt lat="45.902577145124575" lon="11.709817542504384"><ele>190.0</ele><time>2026-05-02T07:00:05.461Z</time></trkpt><trkpt lat="45.90260241408821" lon="11.710082600935584"><ele>184.0</ele><time>2026-05-02T07:00:06.461Z</time></trkpt><trkpt lat="45.9026153447888" lon="11.71035433721886"><ele>178.0</ele><time>2026-05-02T07:00:07.461Z</time></trkpt><trkpt lat="45.90263377676197" lon="11.710630759228929"><ele>177.66666666666669</ele><time>2026-05-02T07:00:08.461Z</time></trkpt><trkpt lat="45.90265601401135" lon="11.710905120601346"><ele>177.33333333333334</ele><time>2026-05-02T07:00:09.461Z</time></trkpt><trkpt lat="45.902681636101455" lon="11.711163852953423"><ele>177.0</ele><time>2026-05-02T07:00:10.461Z</time></trkpt><trkpt lat="45.90271111199699" lon="11.71141507340335"><ele>176.66666666666666</ele><time>2026-05-02T07:00:11.461Z</time></trkpt><trkpt lat="45.90275184698498" lon="11.71165064996147"><ele>176.33333333333331</ele><time>2026-05-02T07:00:12.461Z</time></trkpt><trkpt lat="45.90276626967553" lon="11.711881421441158"><ele>176.0</ele><time>2026-05-02T07:00:13.461Z</time></trkpt><trkpt lat="45.902805873049196" lon="11.712106303120432"><ele>176.66666666666666</ele><time>2026-05-02T07:00:14.461Z</time></trkpt><trkpt lat="45.9028608914132" lon="11.712323574353904"><ele>177.33333333333334</ele><time>2026-05-02T07:00:15.461Z</time></trkpt><trkpt lat="45.90289255666151" lon="11.712550126054118"><ele>178.0</ele><time>2026-05-02T07:00:16.461Z</time></trkpt><trkpt lat="45.90294794114809" lon="11.712776202344353"><ele>179.33333333333334</ele><time>2026-05-02T07:00:17.461Z</time></trkpt><trkpt lat="45.90299261081511" lon="11.712986758643579"><ele>180.66666666666666</ele><time>2026-05-02T07:00:18.461Z</time></trkpt><trkpt lat="45.90302460375256" lon="11.713206923425892"><ele>182.0</ele><time>2026-05-02T07:00:19.461Z</time></trkpt><trkpt lat="45.90307614075988" lon="11.713409445133003"><ele>184.0</ele><time>2026-05-02T07:00:20.461Z</time></trkpt><trkpt lat="45.90316718745309" lon="11.713598971896996"><ele>186.0</ele><time>2026-05-02T07:00:21.461Z</time></trkpt><trkpt lat="45.90324735468646" lon="11.713800386059281"><ele>188.0</ele><time>2026-05-02T07:00:22.461Z</time></trkpt><trkpt lat="45.903349578728246" lon="11.71398874609873"><ele>186.33333333333331</ele><time>2026-05-02T07:00:23.461Z</time></trkpt><trkpt lat="45.90345428508655" lon="11.714182492940264"><ele>184.66666666666666</ele><time>2026-05-02T07:00:24.461Z</time></trkpt><trkpt lat="45.903572902648435" lon="11.714373912045337"><ele>183.0</ele><time>2026-05-02T07:00:25.461Z</time></trkpt><trkpt lat="45.90369546192643" lon="11.714564154902625"><ele>183.0</ele><time>2026-05-02T07:00:26.461Z</time></trkpt><trkpt lat="45.90380389790903" lon="11.714770606451465"><ele>183.0</ele><time>2026-05-02T07:00:27.461Z</time></trkpt><trkpt lat="45.90393144912278" lon="11.71494985436526"><ele>183.0</ele><time>2026-05-02T07:00:28.461Z</time></trkpt><trkpt lat="45.90404931793933" lon="11.715121847366833"><ele>182.75</ele><time>2026-05-02T07:00:29.461Z</time></trkpt><trkpt lat="45.90416235649206" lon="11.715285604871047"><ele>182.5</ele><time>2026-05-02T07:00:30.461Z</time></trkpt><trkpt lat="45.90427119210068" lon="11.715407255928119"><ele>182.25</ele><time>2026-05-02T07:00:31.461Z</time></trkpt><trkpt lat="45.90437098923276" lon="11.715546054255805"><ele>182.0</ele><time>2026-05-02T07:00:32.461Z</time></trkpt><trkpt lat="45.90446616250404" lon="11.715711247891283"><ele>182.0</ele><time>2026-05-02T07:00:33.461Z</time></trkpt><trkpt lat="45.904561314465575" lon="11.715888202536123"><ele>182.0</ele><time>2026-05-02T07:00:34.461Z</time></trkpt><trkpt lat="45.90463347951245" lon="11.71607093003702"><ele>182.0</ele><time>2026-05-02T07:00:35.461Z</time></trkpt><trkpt lat="45.90474007959114" lon="11.716258624870559"><ele>182.75</ele><time>2026-05-02T07:00:36.461Z</time></trkpt><trkpt lat="45.90483458121998" lon="11.716428429040569"><ele>183.5</ele><time>2026-05-02T07:00:37.461Z</time></trkpt><trkpt lat="45.90490637331025" lon="11.716570829631639"><ele>184.25</ele><time>2026-05-02T07:00:38.461Z</time></trkpt><trkpt lat="45.905004278110525" lon="11.716692500400825"><ele>185.0</ele><time>2026-05-02T07:00:39.461Z</time></trkpt><trkpt lat="45.90511211711021" lon="11.716808102691278"><ele>185.0</ele><time>2026-05-02T07:00:40.461Z</time></trkpt><trkpt lat="45.905244854399896" lon="11.71688169918276"><ele>185.0</ele><time>2026-05-02T07:00:41.461Z</time></trkpt><trkpt lat="45.90533139600265" lon="11.716992867848557"><ele>185.0</ele><time>2026-05-02T07:00:42.461Z</time></trkpt><trkpt lat="45.90541462055143" lon="11.717099121833897"><ele>185.0</ele><time>2026-05-02T07:00:43.461Z</time></trkpt><trkpt lat="45.905529836942975" lon="11.71724209916521"><ele>185.0</ele><time>2026-05-02T07:00:44.461Z</time></trkpt><trkpt lat="45.905606211329044" lon="11.717443109390457"><ele>185.0</ele><time>2026-05-02T07:00:45.461Z</time></trkpt><trkpt lat="45.90571728922809" lon="11.717646678530603"><ele>185.0</ele><time>2026-05-02T07:00:46.461Z</time></trkpt><trkpt lat="45.90582336033326" lon="11.71788139662826"><ele>186.33333333333331</ele><time>2026-05-02T07:00:47.461Z</time></trkpt><trkpt lat="45.90593380816994" lon="11.718104507433296"><ele>187.66666666666666</ele><time>2026-05-02T07:00:48.461Z</time></trkpt><trkpt lat="45.90603041480107" lon="11.71832814534046"><ele>189.0</ele><time>2026-05-02T07:00:49.461Z</time></trkpt><trkpt lat="45.90614460671651" lon="11.718548103998994"><ele>190.0</ele><time>2026-05-02T07:00:50.461Z</time></trkpt><trkpt lat="45.90628897747067" lon="11.71876048554947"><ele>191.0</ele><time>2026-05-02T07:00:51.461Z</time></trkpt><trkpt lat="45.90642596933573" lon="11.71897587649264"><ele>192.0</ele><time>2026-05-02T07:00:52.461Z</time></trkpt><trkpt lat="45.90657179608342" lon="11.719180453983645"><ele>192.0</ele><time>2026-05-02T07:00:53.461Z</time></trkpt><trkpt lat="45.90670229932297" lon="11.719412595010064"><ele>192.0</ele><time>2026-05-02T07:00:54.461Z</time></trkpt><trkpt lat="45.90685444334984" lon="11.71962645528453"><ele>192.0</ele><time>2026-05-02T07:00:55.461Z</time></trkpt><trkpt lat="45.907013944085996" lon="11.719859629456012"><ele>192.0</ele><time>2026-05-02T07:00:56.461Z</time></trkpt><trkpt lat="45.90716505361062" lon="11.720091349226797"><ele>192.0</ele><time>2026-05-02T07:00:57.461Z</time></trkpt><trkpt lat="45.90735064370689" lon="11.720361638033298"><ele>191.5</ele><time>2026-05-02T07:00:58.461Z</time></trkpt><trkpt lat="45.907527291641664" lon="11.720600094405185"><ele>191.0</ele><time>2026-05-02T07:00:59.461Z</time></trkpt><trkpt lat="45.9076834176135" lon="11.720870534170952"><ele>190.5</ele><time>2026-05-02T07:01:00.461Z</time></trkpt><trkpt lat="45.90785978678932" lon="11.721118690972306"><ele>190.0</ele><time>2026-05-02T07:01:01.461Z</time></trkpt><trkpt lat="45.90800279529348" lon="11.72136012101792"><ele>190.0</ele><time>2026-05-02T07:01:02.461Z</time></trkpt><trkpt lat="45.908168500954446" lon="11.721613254676043"><ele>190.0</ele><time>2026-05-02T07:01:03.461Z</time></trkpt><trkpt lat="45.90831426354178" lon="11.721872465375872"><ele>191.0</ele><time>2026-05-02T07:01:04.461Z</time></trkpt><trkpt lat="45.90847221958815" lon="11.722106161368012"><ele>192.0</ele><time>2026-05-02T07:01:05.461Z</time></trkpt><trkpt lat="45.908634069827784" lon="11.72233950656937"><ele>192.0</ele><time>2026-05-02T07:01:06.461Z</time></trkpt><trkpt lat="45.90881417886589" lon="11.722556789346664"><ele>192.0</ele><time>2026-05-02T07:01:07.461Z</time></trkpt><trkpt lat="45.90902086004973" lon="11.722787169589628"><ele>191.0</ele><time>2026-05-02T07:01:08.461Z</time></trkpt><trkpt lat="45.90918437040236" lon="11.72299559947577"><ele>190.0</ele><time>2026-05-02T07:01:09.461Z</time></trkpt><trkpt lat="45.90938159312346" lon="11.72317539418402"><ele>189.0</ele><time>2026-05-02T07:01:10.461Z</time></trkpt><trkpt lat="45.90957515941537" lon="11.723372106249133"><ele>188.0</ele><time>2026-05-02T07:01:11.461Z</time></trkpt><trkpt lat="45.90977681147211" lon="11.723528717153089"><ele>189.0</ele><time>2026-05-02T07:01:12.461Z</time></trkpt><trkpt lat="45.909996643949576" lon="11.72368788321468"><ele>190.0</ele><time>2026-05-02T07:01:13.461Z</time></trkpt><trkpt lat="45.91023223799272" lon="11.723790258023623"><ele>190.0</ele><time>2026-05-02T07:01:14.461Z</time></trkpt><trkpt lat="45.91044156316371" lon="11.723900067619487"><ele>190.0</ele><time>2026-05-02T07:01:15.461Z</time></trkpt><trkpt lat="45.910653491988995" lon="11.724020741769907"><ele>190.0</ele><time>2026-05-02T07:01:16.461Z</time></trkpt><trkpt lat="45.91084086143399" lon="11.724136739472689"><ele>190.0</ele><time>2026-05-02T07:01:17.461Z</time></trkpt><trkpt lat="45.91110338468625" lon="11.724266221131142"><ele>189.5</ele><time>2026-05-02T07:01:18.461Z</time></trkpt><trkpt lat="45.91134988692699" lon="11.724399395386412"><ele>189.0</ele><time>2026-05-02T07:01:19.461Z</time></trkpt><trkpt lat="45.911596518229" lon="11.724551167719172"><ele>192.0</ele><time>2026-05-02T07:01:20.461Z</time></trkpt><trkpt lat="45.911821102910395" lon="11.724713521322396"><ele>195.0</ele><time>2026-05-02T07:01:21.461Z</time></trkpt><trkpt lat="45.912071968320646" lon="11.724838796494318"><ele>195.0</ele><time>2026-05-02T07:01:22.461Z</time></trkpt><trkpt lat="45.9123188342205" lon="11.724971884769571"><ele>195.0</ele><time>2026-05-02T07:01:23.461Z</time></trkpt><trkpt lat="45.912543698892506" lon="11.725063289749212"><ele>194.0</ele><time>2026-05-02T07:01:24.461Z</time></trkpt><trkpt lat="45.91272205566829" lon="11.725179777722749"><ele>193.0</ele><time>2026-05-02T07:01:25.461Z</time></trkpt><trkpt lat="45.912949450052" lon="11.725280970116076"><ele>192.0</ele><time>2026-05-02T07:01:26.461Z</time></trkpt><trkpt lat="45.91316869635305" lon="11.725392619395619"><ele>191.5</ele><time>2026-05-02T07:01:27.461Z</time></trkpt><trkpt lat="45.91339235654563" lon="11.72550017680055"><ele>191.0</ele><time>2026-05-02T07:01:28.461Z</time></trkpt><trkpt lat="45.91361179347096" lon="11.725619467303272"><ele>191.0</ele><time>2026-05-02T07:01:29.461Z</time></trkpt><trkpt lat="45.91382056521525" lon="11.725728889309703"><ele>191.0</ele><time>2026-05-02T07:01:30.461Z</time></trkpt><trkpt lat="45.914036446640964" lon="11.725832365797906"><ele>190.66666666666666</ele><time>2026-05-02T07:01:31.461Z</time></trkpt><trkpt lat="45.914252030529674" lon="11.72593387258374"><ele>190.33333333333334</ele><time>2026-05-02T07:01:32.461Z</time></trkpt><trkpt lat="45.914454310118856" lon="11.726041314667718"><ele>190.0</ele><time>2026-05-02T07:01:33.461Z</time></trkpt><trkpt lat="45.914650282354195" lon="11.726169966536109"><ele>190.66666666666669</ele><time>2026-05-02T07:01:34.461Z</time></trkpt><trkpt lat="45.91484699367683" lon="11.726284484039912"><ele>191.33333333333334</ele><time>2026-05-02T07:01:35.461Z</time></trkpt><trkpt lat="45.91503674374659" lon="11.726416010900262"><ele>192.0</ele><time>2026-05-02T07:01:36.461Z</time></trkpt><trkpt lat="45.91523039415276" lon="11.72652779961774"><ele>192.33333333333331</ele><time>2026-05-02T07:01:37.461Z</time></trkpt><trkpt lat="45.91540122123932" lon="11.726666255419074"><ele>192.66666666666666</ele><time>2026-05-02T07:01:38.461Z</time></trkpt><trkpt lat="45.9155765716838" lon="11.726764875290176"><ele>193.0</ele><time>2026-05-02T07:01:39.461Z</time></trkpt><trkpt lat="45.91576513583327" lon="11.726892153999644"><ele>193.0</ele><time>2026-05-02T07:01:40.461Z</time></trkpt><trkpt lat="45.91595457796955" lon="11.726968549861917"><ele>193.0</ele><time>2026-05-02T07:01:41.461Z</time></trkpt><trkpt lat="45.916134739659306" lon="11.727094287013168"><ele>193.0</ele><time>2026-05-02T07:01:42.461Z</time></trkpt><trkpt lat="45.916371655112464" lon="11.727160940478031"><ele>193.0</ele><time>2026-05-02T07:01:43.461Z</time></trkpt><trkpt lat="45.91657892937373" lon="11.727229419119183"><ele>193.0</ele><time>2026-05-02T07:01:44.461Z</time></trkpt><trkpt lat="45.916791456603164" lon="11.72734296802604"><ele>193.0</ele><time>2026-05-02T07:01:45.461Z</time></trkpt><trkpt lat="45.91700082974793" lon="11.727452132550944"><ele>193.0</ele><time>2026-05-02T07:01:46.462Z</time></trkpt><trkpt lat="45.9172068095863" lon="11.727561620354965"><ele>193.0</ele><time>2026-05-02T07:01:47.462Z</time></trkpt><trkpt lat="45.917429505359" lon="11.727660362978904"><ele>193.0</ele><time>2026-05-02T07:01:48.462Z</time></trkpt><trkpt lat="45.917638321023496" lon="11.727759570515861"><ele>193.0</ele><time>2026-05-02T07:01:49.462Z</time></trkpt><trkpt lat="45.917839348262355" lon="11.727868974361911"><ele>193.0</ele><time>2026-05-02T07:01:50.462Z</time></trkpt><trkpt lat="45.91807685807545" lon="11.727950601028965"><ele>193.0</ele><time>2026-05-02T07:01:51.462Z</time></trkpt><trkpt lat="45.918307229027846" lon="11.728006060439183"><ele>193.0</ele><time>2026-05-02T07:01:52.462Z</time></trkpt><trkpt lat="45.918519736279286" lon="11.728097719406046"><ele>193.0</ele><time>2026-05-02T07:01:53.462Z</time></trkpt><trkpt lat="45.918739818810344" lon="11.72817579896985"><ele>193.0</ele><time>2026-05-02T07:01:54.462Z</time></trkpt><trkpt lat="45.91896397629754" lon="11.728229729346866"><ele>193.0</ele><time>2026-05-02T07:01:55.462Z</time></trkpt><trkpt lat="45.91916825260291" lon="11.728288513472458"><ele>193.0</ele><time>2026-05-02T07:01:56.462Z</time></trkpt><trkpt lat="45.91936969676145" lon="11.728380601769187"><ele>193.0</ele><time>2026-05-02T07:01:57.462Z</time></trkpt><trkpt lat="45.91959441411882" lon="11.728386893664602"><ele>193.0</ele><time>2026-05-02T07:01:58.462Z</time></trkpt><trkpt lat="45.91981337036795" lon="11.728425145482586"><ele>193.0</ele><time>2026-05-02T07:01:59.462Z</time></trkpt><trkpt lat="45.92003791317348" lon="11.728451949833262"><ele>193.0</ele><time>2026-05-02T07:02:00.462Z</time></trkpt><trkpt lat="45.92026888468376" lon="11.72846895905085"><ele>193.0</ele><time>2026-05-02T07:02:01.462Z</time></trkpt><trkpt lat="45.92049543258853" lon="11.728484293127604"><ele>193.0</ele><time>2026-05-02T07:02:02.462Z</time></trkpt><trkpt lat="45.92071109096813" lon="11.728516307191438"><ele>193.0</ele><time>2026-05-02T07:02:03.462Z</time></trkpt><trkpt lat="45.92093905164975" lon="11.728529671132234"><ele>193.0</ele><time>2026-05-02T07:02:04.462Z</time></trkpt><trkpt lat="45.92116268636872" lon="11.728543034816505"><ele>193.0</ele><time>2026-05-02T07:02:05.462Z</time></trkpt><trkpt lat="45.92139487935367" lon="11.7285429973842"><ele>193.0</ele><time>2026-05-02T07:02:06.462Z</time></trkpt><trkpt lat="45.921612565637616" lon="11.728539701787037"><ele>193.0</ele><time>2026-05-02T07:02:07.462Z</time></trkpt><trkpt lat="45.92183118481672" lon="11.728552842359715"><ele>193.0</ele><time>2026-05-02T07:02:08.462Z</time></trkpt><trkpt lat="45.92206391575713" lon="11.728534576249245"><ele>193.0</ele><time>2026-05-02T07:02:09.462Z</time></trkpt><trkpt lat="45.922289946967545" lon="11.728524813450955"><ele>193.0</ele><time>2026-05-02T07:02:10.462Z</time></trkpt><trkpt lat="45.922526780988676" lon="11.728500893006526"><ele>193.0</ele><time>2026-05-02T07:02:11.462Z</time></trkpt><trkpt lat="45.922771379621764" lon="11.728432356935635"><ele>193.0</ele><time>2026-05-02T07:02:12.462Z</time></trkpt><trkpt lat="45.92302210163423" lon="11.728388226663606"><ele>193.0</ele><time>2026-05-02T07:02:13.462Z</time></trkpt><trkpt lat="45.92327068513393" lon="11.728364435976745"><ele>193.0</ele><time>2026-05-02T07:02:14.462Z</time></trkpt><trkpt lat="45.923498249242634" lon="11.72835486279929"><ele>193.0</ele><time>2026-05-02T07:02:15.462Z</time></trkpt><trkpt lat="45.923723811782295" lon="11.728345851870468"><ele>193.0</ele><time>2026-05-02T07:02:16.462Z</time></trkpt><trkpt lat="45.92395054433693" lon="11.728315520097077"><ele>193.0</ele><time>2026-05-02T07:02:17.462Z</time></trkpt><trkpt lat="45.92417368158353" lon="11.728238503245601"><ele>193.0</ele><time>2026-05-02T07:02:18.462Z</time></trkpt><trkpt lat="45.92439568963608" lon="11.728196388906515"><ele>193.0</ele><time>2026-05-02T07:02:19.462Z</time></trkpt><trkpt lat="45.92462487372886" lon="11.728169734331566"><ele>193.0</ele><time>2026-05-02T07:02:20.462Z</time></trkpt><trkpt lat="45.92485950037077" lon="11.728136944215164"><ele>193.0</ele><time>2026-05-02T07:02:21.462Z</time></trkpt><trkpt lat="45.925055719724526" lon="11.72811284496678"><ele>193.0</ele><time>2026-05-02T07:02:22.462Z</time></trkpt><trkpt lat="45.92530039347026" lon="11.728172820547123"><ele>193.0</ele><time>2026-05-02T07:02:23.462Z</time></trkpt><trkpt lat="45.92552912019597" lon="11.728211832406142"><ele>193.0</ele><time>2026-05-02T07:02:24.462Z</time></trkpt><trkpt lat="45.925766910072994" lon="11.728241452520297"><ele>193.0</ele><time>2026-05-02T07:02:25.462Z</time></trkpt><trkpt lat="45.92600278973551" lon="11.728294353435022"><ele>193.0</ele><time>2026-05-02T07:02:26.462Z</time></trkpt><trkpt lat="45.926239432100985" lon="11.728246505635102"><ele>193.0</ele><time>2026-05-02T07:02:27.462Z</time></trkpt><trkpt lat="45.92647448796698" lon="11.728331217351462"><ele>193.0</ele><time>2026-05-02T07:02:28.462Z</time></trkpt><trkpt lat="45.92672230195164" lon="11.72839370984628"><ele>193.0</ele><time>2026-05-02T07:02:29.462Z</time></trkpt><trkpt lat="45.92695311534091" lon="11.728463422820244"><ele>193.0</ele><time>2026-05-02T07:02:30.462Z</time></trkpt><trkpt lat="45.92720101914852" lon="11.728527322245123"><ele>193.0</ele><time>2026-05-02T07:02:31.462Z</time></trkpt><trkpt lat="45.92743707729178" lon="11.7285739768934"><ele>193.0</ele><time>2026-05-02T07:02:32.462Z</time></trkpt><trkpt lat="45.92766395660763" lon="11.72861577932014"><ele>193.0</ele><time>2026-05-02T07:02:33.462Z</time></trkpt><trkpt lat="45.927907046727015" lon="11.728660097193398"><ele>193.0</ele><time>2026-05-02T07:02:34.462Z</time></trkpt><trkpt lat="45.92813602437283" lon="11.728693802146829"><ele>193.0</ele><time>2026-05-02T07:02:35.462Z</time></trkpt><trkpt lat="45.92838112574716" lon="11.728627336498793"><ele>193.0</ele><time>2026-05-02T07:02:36.462Z</time></trkpt><trkpt lat="45.9286335825242" lon="11.72859570794386"><ele>193.0</ele><time>2026-05-02T07:02:37.462Z</time></trkpt><trkpt lat="45.92888114588403" lon="11.728551203631437"><ele>193.0</ele><time>2026-05-02T07:02:38.462Z</time></trkpt><trkpt lat="45.92912712727068" lon="11.728496029554538"><ele>193.0</ele><time>2026-05-02T07:02:39.462Z</time></trkpt><trkpt lat="45.92938809747143" lon="11.72842862510446"><ele>193.0</ele><time>2026-05-02T07:02:40.462Z</time></trkpt><trkpt lat="45.92964335096073" lon="11.728352427884852"><ele>193.0</ele><time>2026-05-02T07:02:41.462Z</time></trkpt><trkpt lat="45.92990279831528" lon="11.728269766054504"><ele>193.0</ele><time>2026-05-02T07:02:42.462Z</time></trkpt><trkpt lat="45.930145827401304" lon="11.728194717486414"><ele>193.0</ele><time>2026-05-02T07:02:43.462Z</time></trkpt><trkpt lat="45.930385416270646" lon="11.728134966384317"><ele>193.0</ele><time>2026-05-02T07:02:44.462Z</time></trkpt><trkpt lat="45.9306366576326" lon="11.728024980835738"><ele>193.0</ele><time>2026-05-02T07:02:45.462Z</time></trkpt><trkpt lat="45.930875512213944" lon="11.727967537027233"><ele>275.0</ele><time>2026-05-02T07:02:46.462Z</time></trkpt><trkpt lat="45.93109472694438" lon="11.727915373188168"><ele>357.0</ele><time>2026-05-02T07:02:47.462Z</time></trkpt><trkpt lat="45.931290142159234" lon="11.727834875871585"><ele>439.0</ele><time>2026-05-02T07:02:48.462Z</time></trkpt><trkpt lat="45.93150377833843" lon="11.727751369747471"><ele>400.33333333333337</ele><time>2026-05-02T07:02:49.462Z</time></trkpt><trkpt lat="45.931692185405424" lon="11.727642889045304"><ele>361.6666666666667</ele><time>2026-05-02T07:02:50.462Z</time></trkpt><trkpt lat="45.9318944602026" lon="11.727532289604156"><ele>323.0</ele><time>2026-05-02T07:02:51.462Z</time></trkpt><trkpt lat="45.93210770358836" lon="11.727435921496744"><ele>323.0</ele><time>2026-05-02T07:02:52.462Z</time></trkpt><trkpt lat="45.93232552001666" lon="11.72728108380445"><ele>323.0</ele><time>2026-05-02T07:02:53.462Z</time></trkpt><trkpt lat="45.93252196169276" lon="11.727164784365"><ele>364.0</ele><time>2026-05-02T07:02:54.462Z</time></trkpt><trkpt lat="45.93269837169211" lon="11.726988079591136"><ele>405.0</ele><time>2026-05-02T07:02:55.462Z</time></trkpt><trkpt lat="45.93285229598672" lon="11.726802491342639"><ele>446.0</ele><time>2026-05-02T07:02:56.462Z</time></trkpt><trkpt lat="45.93303022715791" lon="11.726625166349343"><ele>364.0</ele><time>2026-05-02T07:02:57.462Z</time></trkpt><trkpt lat="45.9331888572841" lon="11.726450767229233"><ele>282.0</ele><time>2026-05-02T07:02:58.462Z</time></trkpt><trkpt lat="45.93336579704188" lon="11.726277586833742"><ele>200.0</ele><time>2026-05-02T07:02:59.462Z</time></trkpt><trkpt lat="45.93354867603833" lon="11.726106010510884"><ele>200.0</ele><time>2026-05-02T07:03:00.462Z</time></trkpt><trkpt lat="45.93375365455671" lon="11.72596551747405"><ele>200.0</ele><time>2026-05-02T07:03:01.462Z</time></trkpt><trkpt lat="45.93394108178293" lon="11.725867917654249"><ele>200.0</ele><time>2026-05-02T07:03:02.462Z</time></trkpt><trkpt lat="45.934161153936024" lon="11.725841342554583"><ele>200.0</ele><time>2026-05-02T07:03:03.462Z</time></trkpt><trkpt lat="45.93440058287865" lon="11.725781013036825"><ele>200.0</ele><time>2026-05-02T07:03:04.462Z</time></trkpt><trkpt lat="45.93467890667878" lon="11.725669763318725"><ele>200.0</ele><time>2026-05-02T07:03:05.462Z</time></trkpt><trkpt lat="45.9349035964935" lon="11.725623552366399"><ele>200.0</ele><time>2026-05-02T07:03:06.462Z</time></trkpt><trkpt lat="45.9351096671677" lon="11.725568631230788"><ele>200.0</ele><time>2026-05-02T07:03:07.462Z</time></trkpt><trkpt lat="45.93529328266975" lon="11.725520372595081"><ele>200.0</ele><time>2026-05-02T07:03:08.462Z</time></trkpt><trkpt lat="45.93551113326937" lon="11.72546495942878"><ele>200.0</ele><time>2026-05-02T07:03:09.462Z</time></trkpt><trkpt lat="45.93564012777438" lon="11.725432545594714"><ele>200.0</ele><time>2026-05-02T07:03:10.462Z</time></trkpt><trkpt lat="45.93585550140583" lon="11.72537844550074"><ele>200.0</ele><time>2026-05-02T07:03:11.462Z</time></trkpt><trkpt lat="45.93613255548878" lon="11.72530729810701"><ele>200.0</ele><time>2026-05-02T07:03:12.462Z</time></trkpt><trkpt lat="45.93640743082186" lon="11.725236710263143"><ele>200.0</ele><time>2026-05-02T07:03:13.462Z</time></trkpt><trkpt lat="45.936620930581455" lon="11.725181883526306"><ele>200.0</ele><time>2026-05-02T07:03:14.462Z</time></trkpt><trkpt lat="45.93684412641774" lon="11.725120730434773"><ele>200.0</ele><time>2026-05-02T07:03:15.462Z</time></trkpt><trkpt lat="45.93705431937773" lon="11.725146537501091"><ele>200.0</ele><time>2026-05-02T07:03:16.462Z</time></trkpt><trkpt lat="45.937257981921555" lon="11.725229973228279"><ele>200.0</ele><time>2026-05-02T07:03:17.462Z</time></trkpt><trkpt lat="45.937390821868746" lon="11.72528458698402"><ele>200.0</ele><time>2026-05-02T07:03:18.462Z</time></trkpt><trkpt lat="45.937517415555426" lon="11.725294107621012"><ele>200.00000000000003</ele><time>2026-05-02T07:03:19.462Z</time></trkpt><trkpt lat="45.93758602311698" lon="11.725300173989778"><ele>200.0</ele><time>2026-05-02T07:03:20.462Z</time></trkpt><trkpt lat="45.93766432000309" lon="11.725328218073802"><ele>200.0</ele><time>2026-05-02T07:03:22.462Z</time></trkpt><trkpt lat="45.9375975968687" lon="11.725288272117684"><ele>200.0</ele><time>2026-05-02T07:03:39.462Z</time></trkpt><trkpt lat="45.937608411329826" lon="11.72540176138819"><ele>200.00000000000003</ele><time>2026-05-02T07:03:43.462Z</time></trkpt><trkpt lat="45.937683004410076" lon="11.725448584472545"><ele>200.0</ele><time>2026-05-02T07:03:45.462Z</time></trkpt><trkpt lat="45.93774806790627" lon="11.725517350753387"><ele>200.0</ele><time>2026-05-02T07:03:47.462Z</time></trkpt><trkpt lat="45.93778919296374" lon="11.725619714304251"><ele>200.0</ele><time>2026-05-02T07:03:50.474Z</time></trkpt><trkpt lat="45.93787678346628" lon="11.72563473020602"><ele>200.0</ele><time>2026-05-02T07:03:53.473Z</time></trkpt><trkpt lat="45.937811858319726" lon="11.72548110012022"><ele>200.0</ele><time>2026-05-02T07:03:55.477Z</time></trkpt><trkpt lat="45.937711157406035" lon="11.72543569873766"><ele>200.0</ele><time>2026-05-02T07:03:56.478Z</time></trkpt><trkpt lat="45.93764466555134" lon="11.725323760101732"><ele>200.00000000000003</ele><time>2026-05-02T07:03:57.462Z</time></trkpt><trkpt lat="45.93761191434756" lon="11.725234009601191"><ele>200.0</ele><time>2026-05-02T07:03:58.462Z</time></trkpt><trkpt lat="45.937543557538" lon="11.725134768255995"><ele>200.0</ele><time>2026-05-02T07:04:00.463Z</time></trkpt><trkpt lat="45.93751638869276" lon="11.725043102741155"><ele>200.0</ele><time>2026-05-02T07:04:01.463Z</time></trkpt><trkpt lat="45.93747967915939" lon="11.724868051074692"><ele>200.00000000000003</ele><time>2026-05-02T07:04:03.463Z</time></trkpt><trkpt lat="45.937484379531156" lon="11.724766707924005"><ele>200.0</ele><time>2026-05-02T07:04:05.463Z</time></trkpt><trkpt lat="45.93747728976217" lon="11.72465263154726"><ele>200.00000000000003</ele><time>2026-05-02T07:04:08.463Z</time></trkpt><trkpt lat="45.93761403937667" lon="11.72463960708293"><ele>200.0</ele><time>2026-05-02T07:04:16.463Z</time></trkpt><trkpt lat="45.937708519050446" lon="11.724574208632363"><ele>200.0</ele><time>2026-05-02T07:04:20.463Z</time></trkpt><trkpt lat="45.93764451642676" lon="11.724544690232754"><ele>200.0</ele><time>2026-05-02T07:04:38.463Z</time></trkpt><trkpt lat="45.937580060380654" lon="11.724538329344988"><ele>200.00000000000003</ele><time>2026-05-02T07:05:05.463Z</time></trkpt><trkpt lat="45.937646122496346" lon="11.724548345141825"><ele>200.0</ele><time>2026-05-02T07:05:52.463Z</time></trkpt><trkpt lat="45.937728539866086" lon="11.724537061498989"><ele>200.00000000000003</ele><time>2026-05-02T07:05:59.463Z</time></trkpt><trkpt lat="45.93777223523508" lon="11.724606144366062"><ele>200.0</ele><time>2026-05-02T07:06:10.464Z</time></trkpt><trkpt lat="45.937689284912565" lon="11.724637123475256"><ele>200.0</ele><time>2026-05-02T07:06:27.572Z</time></trkpt><trkpt lat="45.937611911127554" lon="11.724637014723308"><ele>200.0</ele><time>2026-05-02T07:36:42.87Z</time></trkpt><trkpt lat="45.937619719949886" lon="11.724541075482374"><ele>200.0</ele><time>2026-05-02T07:36:52.464Z</time></trkpt><trkpt lat="45.93755616691099" lon="11.724574750923116"><ele>200.00000000000003</ele><time>2026-05-02T07:37:18.464Z</time></trkpt><trkpt lat="45.93760917767049" lon="11.724524262868727"><ele>200.0</ele><time>2026-05-02T07:37:51.464Z</time></trkpt><trkpt lat="45.93759579232733" lon="11.724614708739646"><ele>200.0</ele><time>2026-05-02T07:38:29.464Z</time></trkpt><trkpt lat="45.93763345050422" lon="11.724540617449966"><ele>200.0</ele><time>2026-05-02T07:38:33.464Z</time></trkpt><trkpt lat="45.93753772867485" lon="11.724638450900978"><ele>200.0</ele><time>2026-05-02T07:38:47.464Z</time></trkpt><trkpt lat="45.93747730209027" lon="11.724779463728808"><ele>200.0</ele><time>2026-05-02T07:38:48.464Z</time></trkpt><trkpt lat="45.93747722309553" lon="11.724885883760392"><ele>200.0</ele><time>2026-05-02T07:38:51.464Z</time></trkpt><trkpt lat="45.93750162292231" lon="11.725009243934732"><ele>200.0</ele><time>2026-05-02T07:38:57.463Z</time></trkpt><trkpt lat="45.93758955555324" lon="11.725062737203608"><ele>200.0</ele><time>2026-05-02T07:38:59.463Z</time></trkpt><trkpt lat="45.93765768067646" lon="11.725022187197823"><ele>200.0</ele><time>2026-05-02T07:39:01.463Z</time></trkpt><trkpt lat="45.93773400418768" lon="11.725016084840194"><ele>200.0</ele><time>2026-05-02T07:39:04.463Z</time></trkpt><trkpt lat="45.93754292352507" lon="11.725441132613282"><ele>200.00000000000003</ele><time>2026-05-02T07:39:14.463Z</time></trkpt><trkpt lat="45.937458692278824" lon="11.72533678697353"><ele>200.0</ele><time>2026-05-02T07:39:19.463Z</time></trkpt><trkpt lat="45.93741513280467" lon="11.725255171408877"><ele>200.0</ele><time>2026-05-02T07:39:26.463Z</time></trkpt><trkpt lat="45.93749057433032" lon="11.725251616093288"><ele>200.0</ele><time>2026-05-02T07:39:28.463Z</time></trkpt><trkpt lat="45.937561874145736" lon="11.72528610275044"><ele>200.00000000000003</ele><time>2026-05-02T07:39:29.463Z</time></trkpt><trkpt lat="45.93767062184472" lon="11.725327870293045"><ele>200.0</ele><time>2026-05-02T07:39:31.463Z</time></trkpt><trkpt lat="45.937737300690664" lon="11.72536556925855"><ele>200.0</ele><time>2026-05-02T07:39:33.463Z</time></trkpt><trkpt lat="45.937806209712356" lon="11.725337108304087"><ele>200.0</ele><time>2026-05-02T07:39:37.463Z</time></trkpt><trkpt lat="45.937842276533004" lon="11.725424298700283"><ele>200.0</ele><time>2026-05-02T07:39:48.463Z</time></trkpt><trkpt lat="45.937919596903065" lon="11.725375422732938"><ele>200.0</ele><time>2026-05-02T07:39:55.463Z</time></trkpt><trkpt lat="45.93821241955928" lon="11.72541207611367"><ele>200.0</ele><time>2026-05-02T07:39:57.463Z</time></trkpt><trkpt lat="45.93833368740836" lon="11.725392625290025"><ele>200.0</ele><time>2026-05-02T07:39:58.463Z</time></trkpt><trkpt lat="45.93850363953832" lon="11.725381318086333"><ele>200.0</ele><time>2026-05-02T07:39:59.463Z</time></trkpt><trkpt lat="45.938727755636535" lon="11.725394210119404"><ele>200.0</ele><time>2026-05-02T07:40:00.463Z</time></trkpt><trkpt lat="45.938934518276284" lon="11.725419513949264"><ele>200.0</ele><time>2026-05-02T07:40:01.463Z</time></trkpt><trkpt lat="45.9391686346682" lon="11.725440424848028"><ele>200.0</ele><time>2026-05-02T07:40:02.463Z</time></trkpt><trkpt lat="45.93965073247863" lon="11.72548348494657"><ele>200.0</ele><time>2026-05-02T07:40:04.463Z</time></trkpt><trkpt lat="45.93991782229895" lon="11.725506717078655"><ele>200.0</ele><time>2026-05-02T07:40:05.463Z</time></trkpt><trkpt lat="45.940388432861695" lon="11.725490950977115"><ele>208.0</ele><time>2026-05-02T07:40:07.463Z</time></trkpt><trkpt lat="45.94059994325924" lon="11.725530467280073"><ele>216.0</ele><time>2026-05-02T07:40:08.463Z</time></trkpt><trkpt lat="45.940811567050254" lon="11.725569328102424"><ele>224.0</ele><time>2026-05-02T07:40:09.463Z</time></trkpt><trkpt lat="45.94104228109059" lon="11.725695899666366"><ele>224.0</ele><time>2026-05-02T07:40:10.463Z</time></trkpt><trkpt lat="45.941334253678555" lon="11.725726909197885"><ele>224.0</ele><time>2026-05-02T07:40:11.463Z</time></trkpt><trkpt lat="45.94157046516131" lon="11.725854888208112"><ele>223.0</ele><time>2026-05-02T07:40:12.463Z</time></trkpt><trkpt lat="45.94180421896393" lon="11.725978342048485"><ele>222.0</ele><time>2026-05-02T07:40:13.463Z</time></trkpt><trkpt lat="45.942055532337314" lon="11.726067083451388"><ele>222.0</ele><time>2026-05-02T07:40:14.463Z</time></trkpt><trkpt lat="45.94231159143134" lon="11.726184589265447"><ele>222.0</ele><time>2026-05-02T07:40:15.463Z</time></trkpt><trkpt lat="45.94256645279946" lon="11.726314217981365"><ele>222.0</ele><time>2026-05-02T07:40:16.463Z</time></trkpt><trkpt lat="45.94283809391203" lon="11.726416275733186"><ele>222.0</ele><time>2026-05-02T07:40:17.463Z</time></trkpt><trkpt lat="45.943110400365576" lon="11.726526291856944"><ele>222.0</ele><time>2026-05-02T07:40:18.463Z</time></trkpt><trkpt lat="45.94338615087506" lon="11.726605670482051"><ele>222.0</ele><time>2026-05-02T07:40:19.463Z</time></trkpt><trkpt lat="45.943588884919656" lon="11.726769177036562"><ele>222.0</ele><time>2026-05-02T07:40:20.463Z</time></trkpt><trkpt lat="45.943828145632644" lon="11.726833881408293"><ele>222.0</ele><time>2026-05-02T07:40:21.463Z</time></trkpt><trkpt lat="45.94406492416924" lon="11.726872530795951"><ele>267.0</ele><time>2026-05-02T07:40:22.463Z</time></trkpt><trkpt lat="45.94430926568766" lon="11.726894525127197"><ele>312.0</ele><time>2026-05-02T07:40:23.463Z</time></trkpt><trkpt lat="45.94456391998005" lon="11.726887223967136"><ele>312.0</ele><time>2026-05-02T07:40:24.463Z</time></trkpt><trkpt lat="45.944783589313374" lon="11.726878241246789"><ele>312.0</ele><time>2026-05-02T07:40:25.463Z</time></trkpt><trkpt lat="45.945035675461014" lon="11.726836257271655"><ele>312.0</ele><time>2026-05-02T07:40:26.463Z</time></trkpt><trkpt lat="45.94524087830275" lon="11.72682960747365"><ele>312.0</ele><time>2026-05-02T07:40:27.463Z</time></trkpt><trkpt lat="45.94547393499548" lon="11.726791263105852"><ele>312.0</ele><time>2026-05-02T07:40:28.463Z</time></trkpt><trkpt lat="45.94568156621956" lon="11.726719350286736"><ele>312.0</ele><time>2026-05-02T07:40:29.463Z</time></trkpt><trkpt lat="45.945890978858415" lon="11.72668146616174"><ele>312.0</ele><time>2026-05-02T07:40:30.463Z</time></trkpt><trkpt lat="45.94612939657123" lon="11.726599568686465"><ele>312.0</ele><time>2026-05-02T07:40:31.463Z</time></trkpt><trkpt lat="45.94634351441256" lon="11.726586845989644"><ele>312.0</ele><time>2026-05-02T07:40:32.463Z</time></trkpt><trkpt lat="45.94657873455939" lon="11.726526525603354"><ele>312.0</ele><time>2026-05-02T07:40:33.463Z</time></trkpt><trkpt lat="45.946827388324614" lon="11.726450566134355"><ele>312.0</ele><time>2026-05-02T07:40:34.463Z</time></trkpt><trkpt lat="45.94705817175029" lon="11.726375609030624"><ele>312.0</ele><time>2026-05-02T07:40:35.463Z</time></trkpt><trkpt lat="45.94727717103066" lon="11.726269098927794"><ele>312.0</ele><time>2026-05-02T07:40:36.463Z</time></trkpt><trkpt lat="45.94749024981713" lon="11.726153993525429"><ele>327.3333333333333</ele><time>2026-05-02T07:40:37.463Z</time></trkpt><trkpt lat="45.947674548847004" lon="11.726005112469757"><ele>342.66666666666663</ele><time>2026-05-02T07:40:38.463Z</time></trkpt><trkpt lat="45.94788525800538" lon="11.72588986701489"><ele>358.0</ele><time>2026-05-02T07:40:39.463Z</time></trkpt><trkpt lat="45.94808654568842" lon="11.725775612318786"><ele>358.0</ele><time>2026-05-02T07:40:40.463Z</time></trkpt><trkpt lat="45.948289878943" lon="11.725620750608563"><ele>358.0</ele><time>2026-05-02T07:40:41.463Z</time></trkpt><trkpt lat="45.94851622474812" lon="11.725497960842288"><ele>363.0</ele><time>2026-05-02T07:40:42.463Z</time></trkpt><trkpt lat="45.948718494779136" lon="11.725356663049212"><ele>368.0</ele><time>2026-05-02T07:40:43.463Z</time></trkpt><trkpt lat="45.94892625151056" lon="11.725228199435664"><ele>374.33333333333337</ele><time>2026-05-02T07:40:44.463Z</time></trkpt><trkpt lat="45.94913282457262" lon="11.72508634155404"><ele>380.6666666666667</ele><time>2026-05-02T07:40:45.463Z</time></trkpt><trkpt lat="45.94932446663871" lon="11.724961692850222"><ele>387.0</ele><time>2026-05-02T07:40:46.463Z</time></trkpt><trkpt lat="45.94950404729343" lon="11.724842088158136"><ele>387.0</ele><time>2026-05-02T07:40:47.463Z</time></trkpt><trkpt lat="45.94967371021147" lon="11.724731968103104"><ele>387.0</ele><time>2026-05-02T07:40:48.463Z</time></trkpt><trkpt lat="45.94991677229684" lon="11.724680290238569"><ele>387.0</ele><time>2026-05-02T07:40:49.463Z</time></trkpt><trkpt lat="45.95016221171285" lon="11.724600429386607"><ele>385.5</ele><time>2026-05-02T07:40:50.463Z</time></trkpt><trkpt lat="45.95039479689927" lon="11.72450137687147"><ele>384.0</ele><time>2026-05-02T07:40:51.463Z</time></trkpt><trkpt lat="45.95062844524405" lon="11.724403388219448"><ele>372.3333333333333</ele><time>2026-05-02T07:40:52.463Z</time></trkpt><trkpt lat="45.950832618032244" lon="11.724221155007848"><ele>360.66666666666663</ele><time>2026-05-02T07:40:53.463Z</time></trkpt><trkpt lat="45.95099357263717" lon="11.724033957990875"><ele>349.0</ele><time>2026-05-02T07:40:54.463Z</time></trkpt><trkpt lat="45.95112431270639" lon="11.723879690139487"><ele>349.0</ele><time>2026-05-02T07:40:55.463Z</time></trkpt><trkpt lat="45.951303859631494" lon="11.723748228774408"><ele>349.0</ele><time>2026-05-02T07:40:56.463Z</time></trkpt><trkpt lat="45.9514160945405" lon="11.723562055015144"><ele>349.0</ele><time>2026-05-02T07:40:57.463Z</time></trkpt><trkpt lat="45.951626871612106" lon="11.723403427361236"><ele>329.5</ele><time>2026-05-02T07:40:58.463Z</time></trkpt><trkpt lat="45.95189490818669" lon="11.723304540996061"><ele>310.0</ele><time>2026-05-02T07:40:59.463Z</time></trkpt><trkpt lat="45.95205283154996" lon="11.723057661060889"><ele>310.0</ele><time>2026-05-02T07:41:00.463Z</time></trkpt><trkpt lat="45.95221640798841" lon="11.722805697775426"><ele>310.0</ele><time>2026-05-02T07:41:01.463Z</time></trkpt><trkpt lat="45.95236167670142" lon="11.722569651749764"><ele>294.66666666666663</ele><time>2026-05-02T07:41:02.463Z</time></trkpt><trkpt lat="45.95248226135698" lon="11.722330492046284"><ele>279.3333333333333</ele><time>2026-05-02T07:41:03.463Z</time></trkpt><trkpt lat="45.95258164639338" lon="11.722086064065136"><ele>264.0</ele><time>2026-05-02T07:41:04.463Z</time></trkpt><trkpt lat="45.952691644211725" lon="11.721956844182477"><ele>253.25</ele><time>2026-05-02T07:41:05.463Z</time></trkpt><trkpt lat="45.95280045146781" lon="11.721840619950497"><ele>242.5</ele><time>2026-05-02T07:41:06.463Z</time></trkpt><trkpt lat="45.9528577215986" lon="11.72169491616079"><ele>231.75</ele><time>2026-05-02T07:41:07.463Z</time></trkpt><trkpt lat="45.952947868045584" lon="11.721608443344165"><ele>221.0</ele><time>2026-05-02T07:41:08.463Z</time></trkpt><trkpt lat="45.953033503794046" lon="11.721546203971261"><ele>221.0</ele><time>2026-05-02T07:41:09.463Z</time></trkpt><trkpt lat="45.95309781166007" lon="11.721497424523102"><ele>221.00000000000003</ele><time>2026-05-02T07:41:10.463Z</time></trkpt><trkpt lat="45.95316239321154" lon="11.72142048474169"><ele>221.00000000000003</ele><time>2026-05-02T07:41:11.463Z</time></trkpt><trkpt lat="45.95326018710205" lon="11.72135750126749"><ele>221.0</ele><time>2026-05-02T07:41:12.463Z</time></trkpt><trkpt lat="45.95335916489356" lon="11.721286688782934"><ele>221.0</ele><time>2026-05-02T07:41:13.463Z</time></trkpt><trkpt lat="45.95344791611641" lon="11.721243673672749"><ele>236.25</ele><time>2026-05-02T07:41:14.463Z</time></trkpt><trkpt lat="45.953572001400936" lon="11.72123113832829"><ele>251.5</ele><time>2026-05-02T07:41:15.463Z</time></trkpt><trkpt lat="45.953717487615904" lon="11.721288680407284"><ele>266.75</ele><time>2026-05-02T07:41:17.463Z</time></trkpt><trkpt lat="45.95382346305708" lon="11.721317157563305"><ele>282.0</ele><time>2026-05-02T07:41:18.463Z</time></trkpt><trkpt lat="45.95390427376644" lon="11.721350831151755"><ele>282.0</ele><time>2026-05-02T07:41:19.463Z</time></trkpt><trkpt lat="45.95400984496397" lon="11.72144775450008"><ele>282.0</ele><time>2026-05-02T07:41:20.463Z</time></trkpt><trkpt lat="45.954126324239006" lon="11.721541560726138"><ele>282.0</ele><time>2026-05-02T07:41:21.474Z</time></trkpt><trkpt lat="45.95425293214614" lon="11.721684614088195"><ele>282.0</ele><time>2026-05-02T07:41:22.474Z</time></trkpt><trkpt lat="45.95437245289013" lon="11.721767553908384"><ele>283.0</ele><time>2026-05-02T07:41:23.475Z</time></trkpt><trkpt lat="45.95448413878439" lon="11.721882788213565"><ele>284.0</ele><time>2026-05-02T07:41:24.478Z</time></trkpt><trkpt lat="45.95462224327325" lon="11.721918718866963"><ele>285.0</ele><time>2026-05-02T07:41:25.479Z</time></trkpt><trkpt lat="45.954763987645755" lon="11.721930529686876"><ele>286.0</ele><time>2026-05-02T07:41:26.479Z</time></trkpt><trkpt lat="45.96937397499193" lon="11.755020646389346"><ele>285.0</ele><time>2026-05-02T07:43:18.463Z</time></trkpt><trkpt lat="45.96949627641658" lon="11.755276291482865"><ele>284.0</ele><time>2026-05-02T07:43:19.463Z</time></trkpt><trkpt lat="45.969551228087155" lon="11.755645597052364"><ele>284.0</ele><time>2026-05-02T07:43:20.463Z</time></trkpt><trkpt lat="45.969636280049365" lon="11.755931308593725"><ele>284.0</ele><time>2026-05-02T07:43:21.463Z</time></trkpt><trkpt lat="45.96975908963322" lon="11.756198692648486"><ele>284.0</ele><time>2026-05-02T07:43:22.463Z</time></trkpt><trkpt lat="45.969884908112505" lon="11.756470668418128"><ele>283.0</ele><time>2026-05-02T07:43:23.463Z</time></trkpt><trkpt lat="45.970024024182116" lon="11.756763319625707"><ele>282.0</ele><time>2026-05-02T07:43:24.463Z</time></trkpt><trkpt lat="45.97016610757433" lon="11.757056681964341"><ele>284.0</ele><time>2026-05-02T07:43:25.463Z</time></trkpt><trkpt lat="45.9703215665989" lon="11.757325863403759"><ele>286.0</ele><time>2026-05-02T07:43:26.463Z</time></trkpt><trkpt lat="45.970491482208935" lon="11.757575292290255"><ele>287.5</ele><time>2026-05-02T07:43:27.463Z</time></trkpt><trkpt lat="45.970663401658555" lon="11.757794850020279"><ele>289.0</ele><time>2026-05-02T07:43:28.463Z</time></trkpt><trkpt lat="45.970858400101" lon="11.758000404428726"><ele>289.5</ele><time>2026-05-02T07:43:29.463Z</time></trkpt><trkpt lat="45.97106555888388" lon="11.75817631924271"><ele>290.0</ele><time>2026-05-02T07:43:30.463Z</time></trkpt><trkpt lat="45.97124178896467" lon="11.758372615112735"><ele>290.0</ele><time>2026-05-02T07:43:31.463Z</time></trkpt><trkpt lat="45.97148578318129" lon="11.758480278943926"><ele>290.0</ele><time>2026-05-02T07:43:32.463Z</time></trkpt><trkpt lat="45.971697776500996" lon="11.75860211823232"><ele>292.0</ele><time>2026-05-02T07:43:33.463Z</time></trkpt><trkpt lat="45.97190189529832" lon="11.758684050000225"><ele>294.0</ele><time>2026-05-02T07:43:34.463Z</time></trkpt><trkpt lat="45.97211813720656" lon="11.758750078887038"><ele>296.0</ele><time>2026-05-02T07:43:35.463Z</time></trkpt><trkpt lat="45.97233062081999" lon="11.758811153241957"><ele>295.6666666666667</ele><time>2026-05-02T07:43:36.463Z</time></trkpt><trkpt lat="45.97254903250376" lon="11.758843372254129"><ele>295.3333333333333</ele><time>2026-05-02T07:43:37.463Z</time></trkpt><trkpt lat="45.9727624105531" lon="11.758873207308405"><ele>295.0</ele><time>2026-05-02T07:43:38.463Z</time></trkpt><trkpt lat="45.972975680269414" lon="11.75893199729636"><ele>295.0</ele><time>2026-05-02T07:43:39.463Z</time></trkpt><trkpt lat="45.973192694500554" lon="11.758961901426098"><ele>295.0</ele><time>2026-05-02T07:43:40.463Z</time></trkpt><trkpt lat="45.97341075382491" lon="11.759002124556169"><ele>295.0</ele><time>2026-05-02T07:43:41.463Z</time></trkpt><trkpt lat="45.973627047066564" lon="11.759059314253157"><ele>294.66666666666663</ele><time>2026-05-02T07:43:42.463Z</time></trkpt><trkpt lat="45.973838124884495" lon="11.759101924469496"><ele>294.3333333333333</ele><time>2026-05-02T07:43:43.463Z</time></trkpt><trkpt lat="45.97406137849002" lon="11.759120653437614"><ele>294.0</ele><time>2026-05-02T07:43:44.463Z</time></trkpt><trkpt lat="45.97427371251765" lon="11.759152519886555"><ele>294.0</ele><time>2026-05-02T07:43:45.463Z</time></trkpt><trkpt lat="45.974496494750866" lon="11.75917836851604"><ele>294.0</ele><time>2026-05-02T07:43:46.463Z</time></trkpt><trkpt lat="45.97470756368981" lon="11.759201083018965"><ele>294.0</ele><time>2026-05-02T07:43:47.463Z</time></trkpt><trkpt lat="45.97491154560219" lon="11.759221302331088"><ele>293.3333333333333</ele><time>2026-05-02T07:43:48.463Z</time></trkpt><trkpt lat="45.97511952080625" lon="11.759259497569717"><ele>292.66666666666663</ele><time>2026-05-02T07:43:49.463Z</time></trkpt><trkpt lat="45.97532481152056" lon="11.759289564366513"><ele>292.0</ele><time>2026-05-02T07:43:50.463Z</time></trkpt><trkpt lat="45.97553172844625" lon="11.759323262088385"><ele>292.0</ele><time>2026-05-02T07:43:51.463Z</time></trkpt><trkpt lat="45.975743347237476" lon="11.759350690974257"><ele>292.0</ele><time>2026-05-02T07:43:52.463Z</time></trkpt><trkpt lat="45.975932556883386" lon="11.759377575928537"><ele>292.0</ele><time>2026-05-02T07:43:53.463Z</time></trkpt><trkpt lat="45.97613524052536" lon="11.75941201376721"><ele>296.0</ele><time>2026-05-02T07:43:54.463Z</time></trkpt><trkpt lat="45.976355211728894" lon="11.759425818942594"><ele>300.0</ele><time>2026-05-02T07:43:55.463Z</time></trkpt><trkpt lat="45.976562304084226" lon="11.759469312487472"><ele>304.0</ele><time>2026-05-02T07:43:56.463Z</time></trkpt><trkpt lat="45.97676575531323" lon="11.759501186991548"><ele>304.0</ele><time>2026-05-02T07:43:57.463Z</time></trkpt><trkpt lat="45.97697335687306" lon="11.759543142786608"><ele>304.0</ele><time>2026-05-02T07:43:58.463Z</time></trkpt><trkpt lat="45.97716821684986" lon="11.759592833714759"><ele>304.0</ele><time>2026-05-02T07:43:59.463Z</time></trkpt><trkpt lat="45.97729625852529" lon="11.75966248360265"><ele>304.0</ele><time>2026-05-02T07:44:00.463Z</time></trkpt><trkpt lat="45.97749428298587" lon="11.759694444048169"><ele>304.0</ele><time>2026-05-02T07:44:01.463Z</time></trkpt><trkpt lat="45.977664038399475" lon="11.759762467904729"><ele>304.0</ele><time>2026-05-02T07:44:02.463Z</time></trkpt><trkpt lat="45.97784587954083" lon="11.759856302007393"><ele>301.3333333333333</ele><time>2026-05-02T07:44:03.463Z</time></trkpt><trkpt lat="45.977991071438325" lon="11.759943892162465"><ele>298.6666666666667</ele><time>2026-05-02T07:44:04.463Z</time></trkpt><trkpt lat="45.97816620193734" lon="11.76005732243457"><ele>296.0</ele><time>2026-05-02T07:44:05.463Z</time></trkpt><trkpt lat="45.97831608732087" lon="11.760162904310597"><ele>297.33333333333337</ele><time>2026-05-02T07:44:06.463Z</time></trkpt><trkpt lat="45.97845582441067" lon="11.760285473801709"><ele>298.6666666666667</ele><time>2026-05-02T07:44:07.463Z</time></trkpt><trkpt lat="45.97859226676637" lon="11.760422132610191"><ele>300.0</ele><time>2026-05-02T07:44:08.463Z</time></trkpt><trkpt lat="45.97872906064308" lon="11.760571331909992"><ele>300.0</ele><time>2026-05-02T07:44:09.463Z</time></trkpt><trkpt lat="45.978860103465216" lon="11.760724200297407"><ele>300.0</ele><time>2026-05-02T07:44:10.463Z</time></trkpt><trkpt lat="45.97897413162244" lon="11.760875267840285"><ele>300.0</ele><time>2026-05-02T07:44:11.463Z</time></trkpt><trkpt lat="45.97907889277742" lon="11.76103184431283"><ele>300.6666666666667</ele><time>2026-05-02T07:44:12.463Z</time></trkpt><trkpt lat="45.97919662313522" lon="11.761215614867067"><ele>301.33333333333337</ele><time>2026-05-02T07:44:13.463Z</time></trkpt><trkpt lat="45.97930564983889" lon="11.76140241010241"><ele>302.0</ele><time>2026-05-02T07:44:14.463Z</time></trkpt><trkpt lat="45.979417521071205" lon="11.761621985875646"><ele>302.0</ele><time>2026-05-02T07:44:15.463Z</time></trkpt><trkpt lat="45.97951587536544" lon="11.761832188059788"><ele>302.0</ele><time>2026-05-02T07:44:16.463Z</time></trkpt><trkpt lat="45.979605433500865" lon="11.762046875355148"><ele>302.0</ele><time>2026-05-02T07:44:17.463Z</time></trkpt><trkpt lat="45.97968463854966" lon="11.762270455590203"><ele>302.6666666666667</ele><time>2026-05-02T07:44:18.463Z</time></trkpt><trkpt lat="45.97976845692393" lon="11.762516889687438"><ele>303.3333333333333</ele><time>2026-05-02T07:44:19.463Z</time></trkpt><trkpt lat="45.97984391267114" lon="11.762738737252135"><ele>304.0</ele><time>2026-05-02T07:44:20.463Z</time></trkpt><trkpt lat="45.97992146968819" lon="11.762966762770171"><ele>305.0</ele><time>2026-05-02T07:44:21.463Z</time></trkpt><trkpt lat="45.98000355596216" lon="11.763218338301796"><ele>306.0</ele><time>2026-05-02T07:44:22.463Z</time></trkpt><trkpt lat="45.9800675562062" lon="11.763477490776486"><ele>307.0</ele><time>2026-05-02T07:44:23.463Z</time></trkpt><trkpt lat="45.9801077636921" lon="11.763750160535986"><ele>308.3333333333333</ele><time>2026-05-02T07:44:24.463Z</time></trkpt><trkpt lat="45.98016153406942" lon="11.764018999778479"><ele>309.6666666666667</ele><time>2026-05-02T07:44:25.463Z</time></trkpt><trkpt lat="45.98020805928753" lon="11.764311258937505"><ele>311.0</ele><time>2026-05-02T07:44:26.463Z</time></trkpt><trkpt lat="45.980226612138324" lon="11.764624151831997"><ele>312.33333333333337</ele><time>2026-05-02T07:44:27.463Z</time></trkpt><trkpt lat="45.98024215003122" lon="11.764934320506432"><ele>313.6666666666667</ele><time>2026-05-02T07:44:28.463Z</time></trkpt><trkpt lat="45.98028194984165" lon="11.765215314405635"><ele>315.0</ele><time>2026-05-02T07:44:29.463Z</time></trkpt><trkpt lat="45.98032510994417" lon="11.765497487587607"><ele>315.3333333333333</ele><time>2026-05-02T07:44:30.481Z</time></trkpt><trkpt lat="45.98036964444498" lon="11.765768346376117"><ele>315.66666666666663</ele><time>2026-05-02T07:44:31.478Z</time></trkpt><trkpt lat="45.98041073657661" lon="11.76604285138351"><ele>316.0</ele><time>2026-05-02T07:44:32.478Z</time></trkpt><trkpt lat="45.98045365966496" lon="11.766322512299718"><ele>312.0</ele><time>2026-05-02T07:44:33.48Z</time></trkpt><trkpt lat="45.98048744617218" lon="11.767583636594495"><ele>311.0</ele><time>2026-05-02T07:44:37.463Z</time></trkpt><trkpt lat="45.98029828216644" lon="11.768092086444147"><ele>310.0</ele><time>2026-05-02T07:44:38.463Z</time></trkpt><trkpt lat="45.980266411051005" lon="11.768544240050915"><ele>307.5</ele><time>2026-05-02T07:44:39.463Z</time></trkpt><trkpt lat="45.98023644195667" lon="11.768917353263003"><ele>305.0</ele><time>2026-05-02T07:44:40.463Z</time></trkpt><trkpt lat="45.980264621907715" lon="11.769272901800564"><ele>302.0</ele><time>2026-05-02T07:44:41.463Z</time></trkpt><trkpt lat="45.98027966204845" lon="11.76962024805833"><ele>299.0</ele><time>2026-05-02T07:44:42.463Z</time></trkpt><trkpt lat="45.98028376473448" lon="11.7699957431906"><ele>294.5</ele><time>2026-05-02T07:44:43.463Z</time></trkpt><trkpt lat="45.98027797295983" lon="11.770371236794075"><ele>290.0</ele><time>2026-05-02T07:44:44.463Z</time></trkpt><trkpt lat="45.980297997862735" lon="11.770724588648543"><ele>288.0</ele><time>2026-05-02T07:44:45.463Z</time></trkpt><trkpt lat="45.9803127594547" lon="11.771075005909996"><ele>286.0</ele><time>2026-05-02T07:44:46.463Z</time></trkpt><trkpt lat="45.980327518804316" lon="11.771423784235807"><ele>286.0</ele><time>2026-05-02T07:44:47.463Z</time></trkpt><trkpt lat="45.980322373842334" lon="11.771763372207804"><ele>286.0</ele><time>2026-05-02T07:44:48.463Z</time></trkpt><trkpt lat="45.980264940881895" lon="11.772072692501151"><ele>284.5</ele><time>2026-05-02T07:44:49.463Z</time></trkpt><trkpt lat="45.98022288958046" lon="11.772380164981438"><ele>283.0</ele><time>2026-05-02T07:44:50.463Z</time></trkpt><trkpt lat="45.98016480258338" lon="11.772717201861475"><ele>279.0</ele><time>2026-05-02T07:44:51.463Z</time></trkpt><trkpt lat="45.98011195614464" lon="11.77309202558663"><ele>275.0</ele><time>2026-05-02T07:44:52.463Z</time></trkpt><trkpt lat="45.980091450093276" lon="11.773475323420724"><ele>274.0</ele><time>2026-05-02T07:44:53.463Z</time></trkpt><trkpt lat="45.980091906393575" lon="11.773842190730077"><ele>273.0</ele><time>2026-05-02T07:44:54.463Z</time></trkpt><trkpt lat="45.980107399488986" lon="11.77420481633467"><ele>273.0</ele><time>2026-05-02T07:44:55.463Z</time></trkpt><trkpt lat="45.98015584642253" lon="11.774588535687737"><ele>273.0</ele><time>2026-05-02T07:44:56.463Z</time></trkpt><trkpt lat="45.98025671493761" lon="11.774917538517562"><ele>273.0</ele><time>2026-05-02T07:44:57.463Z</time></trkpt><trkpt lat="45.980321218714664" lon="11.77528316721632"><ele>273.0</ele><time>2026-05-02T07:44:58.463Z</time></trkpt><trkpt lat="45.980393255823714" lon="11.775643400251234"><ele>273.0</ele><time>2026-05-02T07:44:59.463Z</time></trkpt><trkpt lat="45.980464032417515" lon="11.775996310642475"><ele>273.0</ele><time>2026-05-02T07:45:00.463Z</time></trkpt><trkpt lat="45.980546928676546" lon="11.776346818898423"><ele>271.5</ele><time>2026-05-02T07:45:01.463Z</time></trkpt><trkpt lat="45.98071474654526" lon="11.776676683415573"><ele>270.0</ele><time>2026-05-02T07:45:02.463Z</time></trkpt><trkpt lat="45.980909725912035" lon="11.77689905461864"><ele>288.0</ele><time>2026-05-02T07:45:03.463Z</time></trkpt><trkpt lat="45.981025724725534" lon="11.777203547860127"><ele>306.0</ele><time>2026-05-02T07:45:04.463Z</time></trkpt><trkpt lat="45.98114276149628" lon="11.777506517777454"><ele>308.3333333333333</ele><time>2026-05-02T07:45:05.463Z</time></trkpt><trkpt lat="45.98125470336178" lon="11.777785766359857"><ele>310.66666666666663</ele><time>2026-05-02T07:45:06.463Z</time></trkpt><trkpt lat="45.98137892145509" lon="11.778049965841776"><ele>313.0</ele><time>2026-05-02T07:45:07.463Z</time></trkpt><trkpt lat="45.98149599512142" lon="11.778330635091612"><ele>312.66666666666663</ele><time>2026-05-02T07:45:08.463Z</time></trkpt><trkpt lat="45.98160956188852" lon="11.778613850048576"><ele>312.3333333333333</ele><time>2026-05-02T07:45:09.478Z</time></trkpt><trkpt lat="45.9817220768289" lon="11.77888281306189"><ele>312.0</ele><time>2026-05-02T07:45:10.475Z</time></trkpt><trkpt lat="45.98184196332704" lon="11.779148121324505"><ele>290.5</ele><time>2026-05-02T07:45:11.479Z</time></trkpt><trkpt lat="45.981960500545775" lon="11.779400463021195"><ele>269.0</ele><time>2026-05-02T07:45:12.478Z</time></trkpt><trkpt lat="45.98270312887242" lon="11.782171810056811"><ele>269.0</ele><time>2026-05-02T07:45:22.463Z</time></trkpt><trkpt lat="45.98277199564019" lon="11.78244264704428"><ele>269.0</ele><time>2026-05-02T07:45:23.463Z</time></trkpt><trkpt lat="45.98277891560972" lon="11.782644384112197"><ele>269.0</ele><time>2026-05-02T07:45:24.463Z</time></trkpt><trkpt lat="45.982805130480166" lon="11.782982946890339"><ele>269.0</ele><time>2026-05-02T07:45:25.463Z</time></trkpt><trkpt lat="45.982897805595556" lon="11.783269085176387"><ele>269.0</ele><time>2026-05-02T07:45:26.463Z</time></trkpt><trkpt lat="45.98302575978615" lon="11.783535089530092"><ele>269.0</ele><time>2026-05-02T07:45:27.463Z</time></trkpt><trkpt lat="45.98316213489568" lon="11.783761319145626"><ele>269.0</ele><time>2026-05-02T07:45:28.463Z</time></trkpt><trkpt lat="45.98328079142573" lon="11.784027591431066"><ele>269.0</ele><time>2026-05-02T07:45:29.463Z</time></trkpt><trkpt lat="45.98341113100243" lon="11.784244875352806"><ele>269.0</ele><time>2026-05-02T07:45:30.464Z</time></trkpt><trkpt lat="45.98356420420303" lon="11.784476060832548"><ele>269.0</ele><time>2026-05-02T07:45:31.464Z</time></trkpt><trkpt lat="45.983726074639115" lon="11.784677009210895"><ele>269.0</ele><time>2026-05-02T07:45:32.464Z</time></trkpt><trkpt lat="45.983923899545914" lon="11.784829966605647"><ele>269.0</ele><time>2026-05-02T07:45:33.464Z</time></trkpt><trkpt lat="45.98411163452424" lon="11.784995213661242"><ele>268.5</ele><time>2026-05-02T07:45:34.464Z</time></trkpt><trkpt lat="45.98431112524812" lon="11.785169101528002"><ele>268.0</ele><time>2026-05-02T07:45:35.464Z</time></trkpt><trkpt lat="45.9845066588588" lon="11.785329215484515"><ele>269.0</ele><time>2026-05-02T07:45:36.464Z</time></trkpt><trkpt lat="45.984718701008966" lon="11.785463024297664"><ele>270.0</ele><time>2026-05-02T07:45:37.464Z</time></trkpt><trkpt lat="45.98492900194746" lon="11.785590019684937"><ele>270.0</ele><time>2026-05-02T07:45:38.464Z</time></trkpt><trkpt lat="45.98514105182797" lon="11.785724420411375"><ele>270.0</ele><time>2026-05-02T07:45:39.464Z</time></trkpt><trkpt lat="45.985356978288095" lon="11.785848623672496"><ele>270.0</ele><time>2026-05-02T07:45:40.464Z</time></trkpt><trkpt lat="45.98556811349265" lon="11.78599754157623"><ele>270.0</ele><time>2026-05-02T07:45:41.464Z</time></trkpt><trkpt lat="45.98578623560572" lon="11.786130762756574"><ele>271.5</ele><time>2026-05-02T07:45:42.464Z</time></trkpt><trkpt lat="45.98600611547677" lon="11.786258337092654"><ele>273.0</ele><time>2026-05-02T07:45:43.464Z</time></trkpt><trkpt lat="45.986219276859444" lon="11.786407149630408"><ele>273.0</ele><time>2026-05-02T07:45:44.464Z</time></trkpt><trkpt lat="45.98643339377611" lon="11.78654384522443"><ele>273.0</ele><time>2026-05-02T07:45:45.464Z</time></trkpt><trkpt lat="45.986643405081196" lon="11.78667947946744"><ele>273.6666666666667</ele><time>2026-05-02T07:45:46.464Z</time></trkpt><trkpt lat="45.9868537398855" lon="11.786808371368519"><ele>274.33333333333337</ele><time>2026-05-02T07:45:47.464Z</time></trkpt><trkpt lat="45.98703792292492" lon="11.786932379338728"><ele>275.0</ele><time>2026-05-02T07:45:48.464Z</time></trkpt><trkpt lat="45.987232819419575" lon="11.787014879070016"><ele>275.6666666666667</ele><time>2026-05-02T07:45:49.464Z</time></trkpt><trkpt lat="45.98742628855498" lon="11.787118806965927"><ele>276.3333333333333</ele><time>2026-05-02T07:45:50.464Z</time></trkpt><trkpt lat="45.98761340045426" lon="11.78723221664495"><ele>277.0</ele><time>2026-05-02T07:45:51.464Z</time></trkpt><trkpt lat="45.98780146387838" lon="11.787361479603293"><ele>277.66666666666663</ele><time>2026-05-02T07:45:52.464Z</time></trkpt><trkpt lat="45.98799814817337" lon="11.78745405211932"><ele>278.3333333333333</ele><time>2026-05-02T07:45:53.464Z</time></trkpt><trkpt lat="45.98816958657176" lon="11.787616637020973"><ele>279.0</ele><time>2026-05-02T07:45:54.464Z</time></trkpt><trkpt lat="45.98835946896073" lon="11.787719244496397"><ele>280.0</ele><time>2026-05-02T07:45:55.464Z</time></trkpt><trkpt lat="45.988556599770725" lon="11.78785992451223"><ele>281.0</ele><time>2026-05-02T07:45:56.464Z</time></trkpt><trkpt lat="45.98875049647465" lon="11.787994506212543"><ele>282.0</ele><time>2026-05-02T07:45:57.464Z</time></trkpt><trkpt lat="45.98894055765832" lon="11.788124788424478"><ele>282.0</ele><time>2026-05-02T07:45:58.464Z</time></trkpt><trkpt lat="45.989138617539474" lon="11.788259292608453"><ele>282.0</ele><time>2026-05-02T07:45:59.464Z</time></trkpt><trkpt lat="45.98932366645519" lon="11.788411781895082"><ele>282.0</ele><time>2026-05-02T07:46:00.464Z</time></trkpt><trkpt lat="45.989519090870736" lon="11.788561434459545"><ele>283.6666666666667</ele><time>2026-05-02T07:46:01.464Z</time></trkpt><trkpt lat="45.98970583381599" lon="11.788721701177645"><ele>285.33333333333337</ele><time>2026-05-02T07:46:02.464Z</time></trkpt><trkpt lat="45.989897852640254" lon="11.78889195008549"><ele>287.0</ele><time>2026-05-02T07:46:03.464Z</time></trkpt><trkpt lat="45.990078055134326" lon="11.789078831261554"><ele>287.0</ele><time>2026-05-02T07:46:04.464Z</time></trkpt><trkpt lat="45.99024993169964" lon="11.789285321012029"><ele>287.0</ele><time>2026-05-02T07:46:05.464Z</time></trkpt><trkpt lat="45.99039114922675" lon="11.789591867372586"><ele>289.0</ele><time>2026-05-02T07:46:06.464Z</time></trkpt><trkpt lat="45.990547257156045" lon="11.789862954565304"><ele>291.0</ele><time>2026-05-02T07:46:07.464Z</time></trkpt><trkpt lat="45.99073269749124" lon="11.790067200054816"><ele>288.0</ele><time>2026-05-02T07:46:08.464Z</time></trkpt><trkpt lat="45.99091168545615" lon="11.790280257516667"><ele>285.0</ele><time>2026-05-02T07:46:09.464Z</time></trkpt><trkpt lat="45.991078208538624" lon="11.790483020046851"><ele>285.0</ele><time>2026-05-02T07:46:10.464Z</time></trkpt><trkpt lat="45.991237324502336" lon="11.790732306182495"><ele>285.0</ele><time>2026-05-02T07:46:11.464Z</time></trkpt><trkpt lat="45.99139308336261" lon="11.790959687594333"><ele>283.5</ele><time>2026-05-02T07:46:12.464Z</time></trkpt><trkpt lat="45.99157652486504" lon="11.791160061915399"><ele>282.0</ele><time>2026-05-02T07:46:13.464Z</time></trkpt><trkpt lat="45.99175611002409" lon="11.791360639186868"><ele>282.0</ele><time>2026-05-02T07:46:14.464Z</time></trkpt><trkpt lat="45.991960745348386" lon="11.791508110627934"><ele>282.0</ele><time>2026-05-02T07:46:15.464Z</time></trkpt><trkpt lat="45.99212936022603" lon="11.791695911368496"><ele>282.0</ele><time>2026-05-02T07:46:16.464Z</time></trkpt><trkpt lat="45.992312479196116" lon="11.791856960437574"><ele>280.5</ele><time>2026-05-02T07:46:17.464Z</time></trkpt><trkpt lat="45.99248908161879" lon="11.79205237128848"><ele>279.0</ele><time>2026-05-02T07:46:18.464Z</time></trkpt><trkpt lat="45.99268844047079" lon="11.792212644169688"><ele>279.0</ele><time>2026-05-02T07:46:19.464Z</time></trkpt><trkpt lat="45.992903799766275" lon="11.79236443795056"><ele>279.0</ele><time>2026-05-02T07:46:20.464Z</time></trkpt><trkpt lat="45.99306907936451" lon="11.792621048718566"><ele>280.0</ele><time>2026-05-02T07:46:21.464Z</time></trkpt><trkpt lat="45.9932255407889" lon="11.79289221859024"><ele>281.0</ele><time>2026-05-02T07:46:22.464Z</time></trkpt><trkpt lat="45.993371167686014" lon="11.793145917774476"><ele>281.0</ele><time>2026-05-02T07:46:23.464Z</time></trkpt><trkpt lat="45.99349471160249" lon="11.793415961189705"><ele>281.0</ele><time>2026-05-02T07:46:24.464Z</time></trkpt><trkpt lat="45.993615825202525" lon="11.793684905985437"><ele>281.0</ele><time>2026-05-02T07:46:25.464Z</time></trkpt><trkpt lat="45.99371355196664" lon="11.793991883823052"><ele>281.5</ele><time>2026-05-02T07:46:26.464Z</time></trkpt><trkpt lat="45.99384025203754" lon="11.794259120164037"><ele>282.0</ele><time>2026-05-02T07:46:27.464Z</time></trkpt><trkpt lat="45.99396998327204" lon="11.794534210772165"><ele>281.0</ele><time>2026-05-02T07:46:28.464Z</time></trkpt><trkpt lat="45.994097025602905" lon="11.79481808287383"><ele>280.0</ele><time>2026-05-02T07:46:29.464Z</time></trkpt><trkpt lat="45.99424663263366" lon="11.795080759800829"><ele>281.5</ele><time>2026-05-02T07:46:30.464Z</time></trkpt><trkpt lat="45.994374610758264" lon="11.795367181486139"><ele>283.0</ele><time>2026-05-02T07:46:31.464Z</time></trkpt><trkpt lat="45.99451409271734" lon="11.795639979735332"><ele>283.0</ele><time>2026-05-02T07:46:32.464Z</time></trkpt><trkpt lat="45.994662520905514" lon="11.795888989226171"><ele>283.0</ele><time>2026-05-02T07:46:33.464Z</time></trkpt><trkpt lat="45.99478749180724" lon="11.79616105992034"><ele>284.0</ele><time>2026-05-02T07:46:34.464Z</time></trkpt><trkpt lat="45.994928990166365" lon="11.796395606718923"><ele>285.0</ele><time>2026-05-02T07:46:35.464Z</time></trkpt><trkpt lat="45.995079355294195" lon="11.796632184045723"><ele>286.0</ele><time>2026-05-02T07:46:36.464Z</time></trkpt><trkpt lat="45.99521946491603" lon="11.796881006421982"><ele>286.66666666666663</ele><time>2026-05-02T07:46:37.464Z</time></trkpt><trkpt lat="45.99535689997014" lon="11.79712026350295"><ele>287.3333333333333</ele><time>2026-05-02T07:46:38.464Z</time></trkpt><trkpt lat="45.99550258035866" lon="11.797355757822775"><ele>288.0</ele><time>2026-05-02T07:46:39.464Z</time></trkpt><trkpt lat="45.995644460602946" lon="11.797583819998625"><ele>287.3333333333333</ele><time>2026-05-02T07:46:40.464Z</time></trkpt><trkpt lat="45.99580397470112" lon="11.797787239262853"><ele>286.66666666666663</ele><time>2026-05-02T07:46:41.464Z</time></trkpt><trkpt lat="45.995936818121066" lon="11.798009464345848"><ele>286.0</ele><time>2026-05-02T07:46:42.464Z</time></trkpt><trkpt lat="45.99608252289615" lon="11.798234055085686"><ele>286.0</ele><time>2026-05-02T07:46:43.464Z</time></trkpt><trkpt lat="45.99623520410036" lon="11.798438392707357"><ele>286.0</ele><time>2026-05-02T07:46:44.464Z</time></trkpt><trkpt lat="45.99634189095178" lon="11.79870339282764"><ele>286.0</ele><time>2026-05-02T07:46:45.464Z</time></trkpt><trkpt lat="45.99648034202276" lon="11.798925512049822"><ele>287.66666666666663</ele><time>2026-05-02T07:46:46.464Z</time></trkpt><trkpt lat="45.99662096794399" lon="11.799151067488427"><ele>289.3333333333333</ele><time>2026-05-02T07:46:47.464Z</time></trkpt><trkpt lat="45.99676041941702" lon="11.799374452184418"><ele>291.0</ele><time>2026-05-02T07:46:48.464Z</time></trkpt><trkpt lat="45.99690738368693" lon="11.799608780830626"><ele>292.6666666666667</ele><time>2026-05-02T07:46:49.464Z</time></trkpt><trkpt lat="45.997049744581474" lon="11.79983707969643"><ele>294.33333333333337</ele><time>2026-05-02T07:46:50.464Z</time></trkpt><trkpt lat="45.99718989514496" lon="11.800061991108898"><ele>296.0</ele><time>2026-05-02T07:46:51.464Z</time></trkpt><trkpt lat="45.99733450799753" lon="11.800293954638548"><ele>294.0</ele><time>2026-05-02T07:46:52.464Z</time></trkpt><trkpt lat="45.997482282546876" lon="11.800530953485984"><ele>292.0</ele><time>2026-05-02T07:46:53.464Z</time></trkpt><trkpt lat="45.99761953019836" lon="11.800751449765686"><ele>290.0</ele><time>2026-05-02T07:46:54.464Z</time></trkpt><trkpt lat="45.99775521313701" lon="11.800969469294559"><ele>291.6666666666667</ele><time>2026-05-02T07:46:55.464Z</time></trkpt><trkpt lat="45.997890486679445" lon="11.801186830031062"><ele>293.3333333333333</ele><time>2026-05-02T07:46:56.464Z</time></trkpt><trkpt lat="45.998032134808106" lon="11.801414433229526"><ele>295.0</ele><time>2026-05-02T07:46:57.464Z</time></trkpt><trkpt lat="45.998168760292025" lon="11.801635736417408"><ele>295.0</ele><time>2026-05-02T07:46:58.464Z</time></trkpt><trkpt lat="45.99831167495096" lon="11.801867530148614"><ele>295.0</ele><time>2026-05-02T07:46:59.464Z</time></trkpt><trkpt lat="45.99846017955214" lon="11.802105538933324"><ele>295.0</ele><time>2026-05-02T07:47:00.464Z</time></trkpt><trkpt lat="45.99860922108623" lon="11.802339292095162"><ele>295.0</ele><time>2026-05-02T07:47:01.464Z</time></trkpt><trkpt lat="45.998761956311796" lon="11.802569477178862"><ele>295.0</ele><time>2026-05-02T07:47:02.464Z</time></trkpt><trkpt lat="45.99892176877481" lon="11.802796791250246"><ele>295.0</ele><time>2026-05-02T07:47:03.464Z</time></trkpt><trkpt lat="45.99909289153492" lon="11.8030312698421"><ele>293.0</ele><time>2026-05-02T07:47:04.464Z</time></trkpt><trkpt lat="45.999276182232876" lon="11.803278156011453"><ele>291.0</ele><time>2026-05-02T07:47:05.464Z</time></trkpt><trkpt lat="45.999430308760886" lon="11.80348459391699"><ele>296.0</ele><time>2026-05-02T07:47:06.464Z</time></trkpt><trkpt lat="45.999589773858425" lon="11.80369516812437"><ele>301.0</ele><time>2026-05-02T07:47:07.464Z</time></trkpt><trkpt lat="45.99976233938461" lon="11.803923041322438"><ele>301.0</ele><time>2026-05-02T07:47:08.464Z</time></trkpt><trkpt lat="45.99993299603529" lon="11.804149706302951"><ele>301.0</ele><time>2026-05-02T07:47:09.464Z</time></trkpt><trkpt lat="46.00009243625318" lon="11.804363168142666"><ele>303.0</ele><time>2026-05-02T07:47:10.464Z</time></trkpt><trkpt lat="46.00024466377862" lon="11.804568938214176"><ele>305.0</ele><time>2026-05-02T07:47:11.464Z</time></trkpt><trkpt lat="46.000410772145216" lon="11.804749872337942"><ele>307.0</ele><time>2026-05-02T07:47:12.464Z</time></trkpt><trkpt lat="46.000539405317745" lon="11.804939916459622"><ele>307.0</ele><time>2026-05-02T07:47:13.464Z</time></trkpt><trkpt lat="46.00066356469159" lon="11.80514464257054"><ele>307.0</ele><time>2026-05-02T07:47:14.464Z</time></trkpt><trkpt lat="46.00076722363534" lon="11.805378751572563"><ele>307.0</ele><time>2026-05-02T07:47:15.464Z</time></trkpt><trkpt lat="46.00087795855395" lon="11.805605925341068"><ele>303.0</ele><time>2026-05-02T07:47:16.464Z</time></trkpt><trkpt lat="46.000958418714944" lon="11.805847888346422"><ele>299.0</ele><time>2026-05-02T07:47:17.464Z</time></trkpt><trkpt lat="46.00107880695852" lon="11.806088583363266"><ele>295.0</ele><time>2026-05-02T07:47:18.464Z</time></trkpt><trkpt lat="46.00117234946997" lon="11.80634504000964"><ele>294.5</ele><time>2026-05-02T07:47:19.464Z</time></trkpt><trkpt lat="46.001295276842555" lon="11.806619627253934"><ele>294.0</ele><time>2026-05-02T07:47:20.464Z</time></trkpt><trkpt lat="46.00138294846036" lon="11.806938829908153"><ele>293.6666666666667</ele><time>2026-05-02T07:47:21.464Z</time></trkpt><trkpt lat="46.00145968494319" lon="11.807225675883585"><ele>293.33333333333337</ele><time>2026-05-02T07:47:22.464Z</time></trkpt><trkpt lat="46.001514223588934" lon="11.807505176635924"><ele>293.0</ele><time>2026-05-02T07:47:23.464Z</time></trkpt><trkpt lat="46.00153542714976" lon="11.807754113842117"><ele>293.0</ele><time>2026-05-02T07:47:24.464Z</time></trkpt><trkpt lat="46.00156119853782" lon="11.807996170777896"><ele>293.0</ele><time>2026-05-02T07:47:25.464Z</time></trkpt><trkpt lat="46.00155546153209" lon="11.808190337003804"><ele>293.0</ele><time>2026-05-02T07:47:26.464Z</time></trkpt><trkpt lat="46.001525635091376" lon="11.80838839177442"><ele>293.0</ele><time>2026-05-02T07:47:27.464Z</time></trkpt><trkpt lat="46.00153507492498" lon="11.808532560104407"><ele>292.5</ele><time>2026-05-02T07:47:28.464Z</time></trkpt><trkpt lat="46.001484185450444" lon="11.808715193457163"><ele>292.0</ele><time>2026-05-02T07:47:29.464Z</time></trkpt><trkpt lat="46.00145564789404" lon="11.808834043759532"><ele>291.5</ele><time>2026-05-02T07:47:30.464Z</time></trkpt><trkpt lat="46.00139736121056" lon="11.80894439417085"><ele>291.0</ele><time>2026-05-02T07:47:31.464Z</time></trkpt><trkpt lat="46.001306302280476" lon="11.809077882315133"><ele>291.0</ele><time>2026-05-02T07:47:32.464Z</time></trkpt><trkpt lat="46.0011860113679" lon="11.809151202487735"><ele>291.0</ele><time>2026-05-02T07:47:33.464Z</time></trkpt><trkpt lat="46.00104977280184" lon="11.809184347778102"><ele>291.0</ele><time>2026-05-02T07:47:34.464Z</time></trkpt><trkpt lat="46.00092340108972" lon="11.809151529120646"><ele>291.0</ele><time>2026-05-02T07:47:35.464Z</time></trkpt><trkpt lat="46.00080695743555" lon="11.80907080985942"><ele>297.75</ele><time>2026-05-02T07:47:36.465Z</time></trkpt><trkpt lat="46.00072243126417" lon="11.80897258865483"><ele>304.5</ele><time>2026-05-02T07:47:37.465Z</time></trkpt><trkpt lat="46.000636066896504" lon="11.808792153061297"><ele>311.25</ele><time>2026-05-02T07:47:38.465Z</time></trkpt><trkpt lat="46.00059802749243" lon="11.808625675936167"><ele>318.0</ele><time>2026-05-02T07:47:39.465Z</time></trkpt><trkpt lat="46.000589771105105" lon="11.808416438761913"><ele>318.0</ele><time>2026-05-02T07:47:40.465Z</time></trkpt><trkpt lat="46.000624865166344" lon="11.808271190063587"><ele>318.0</ele><time>2026-05-02T07:47:41.465Z</time></trkpt><trkpt lat="46.00069268841719" lon="11.808102014076011"><ele>318.0</ele><time>2026-05-02T07:47:42.465Z</time></trkpt><trkpt lat="46.00077159232134" lon="11.807954299386143"><ele>318.0</ele><time>2026-05-02T07:47:43.465Z</time></trkpt><trkpt lat="46.00087509927524" lon="11.807768419902906"><ele>309.3333333333333</ele><time>2026-05-02T07:47:44.465Z</time></trkpt><trkpt lat="46.001017782680016" lon="11.807545198519934"><ele>300.66666666666663</ele><time>2026-05-02T07:47:45.465Z</time></trkpt><trkpt lat="46.0012343806518" lon="11.80740248602108"><ele>292.0</ele><time>2026-05-02T07:47:46.465Z</time></trkpt><trkpt lat="46.001448301487194" lon="11.807200426540502"><ele>292.0</ele><time>2026-05-02T07:47:47.465Z</time></trkpt><trkpt lat="46.001639055208734" lon="11.80702314156015"><ele>292.0</ele><time>2026-05-02T07:47:48.465Z</time></trkpt><trkpt lat="46.00181937477673" lon="11.806864144299063"><ele>292.0</ele><time>2026-05-02T07:47:49.465Z</time></trkpt><trkpt lat="46.002019097416515" lon="11.806701773570783"><ele>293.0</ele><time>2026-05-02T07:47:50.465Z</time></trkpt><trkpt lat="46.00222004297676" lon="11.806501856262273"><ele>294.0</ele><time>2026-05-02T07:47:51.465Z</time></trkpt><trkpt lat="46.00239104059863" lon="11.806324300405521"><ele>294.3333333333333</ele><time>2026-05-02T07:47:52.465Z</time></trkpt><trkpt lat="46.00258275252458" lon="11.806155432591313"><ele>294.66666666666663</ele><time>2026-05-02T07:47:53.465Z</time></trkpt><trkpt lat="46.002754818554884" lon="11.806013772565485"><ele>295.0</ele><time>2026-05-02T07:47:54.465Z</time></trkpt><trkpt lat="46.00292738897391" lon="11.805845572816077"><ele>295.0</ele><time>2026-05-02T07:47:55.465Z</time></trkpt><trkpt lat="46.00310762458393" lon="11.805656786316531"><ele>295.0</ele><time>2026-05-02T07:47:56.465Z</time></trkpt><trkpt lat="46.00329346682977" lon="11.805466972967059"><ele>294.66666666666663</ele><time>2026-05-02T07:47:57.465Z</time></trkpt><trkpt lat="46.00343997309266" lon="11.80526826640005"><ele>294.3333333333333</ele><time>2026-05-02T07:47:58.465Z</time></trkpt><trkpt lat="46.0036080964137" lon="11.80503907896147"><ele>294.0</ele><time>2026-05-02T07:47:59.465Z</time></trkpt><trkpt lat="46.00378081142627" lon="11.804809764415458"><ele>293.5</ele><time>2026-05-02T07:48:00.465Z</time></trkpt><trkpt lat="46.003967345949405" lon="11.804576960868216"><ele>293.0</ele><time>2026-05-02T07:48:01.465Z</time></trkpt><trkpt lat="46.00413827467255" lon="11.804320832878274"><ele>293.5</ele><time>2026-05-02T07:48:02.465Z</time></trkpt><trkpt lat="46.00429622806651" lon="11.804067397926001"><ele>294.0</ele><time>2026-05-02T07:48:03.465Z</time></trkpt><trkpt lat="46.004490545025845" lon="11.803815096108632"><ele>294.0</ele><time>2026-05-02T07:48:04.465Z</time></trkpt><trkpt lat="46.00467881742999" lon="11.803575469701558"><ele>294.0</ele><time>2026-05-02T07:48:05.465Z</time></trkpt><trkpt lat="46.00483513791143" lon="11.803353450421495"><ele>293.6666666666667</ele><time>2026-05-02T07:48:06.465Z</time></trkpt><trkpt lat="46.00497648658694" lon="11.803137196397298"><ele>293.33333333333337</ele><time>2026-05-02T07:48:07.465Z</time></trkpt><trkpt lat="46.00514156071996" lon="11.802904722271915"><ele>293.0</ele><time>2026-05-02T07:48:08.465Z</time></trkpt><trkpt lat="46.005310782565076" lon="11.802693993062054"><ele>293.5</ele><time>2026-05-02T07:48:09.465Z</time></trkpt><trkpt lat="46.005475840328465" lon="11.802485289979055"><ele>294.0</ele><time>2026-05-02T07:48:10.465Z</time></trkpt><trkpt lat="46.005657124429376" lon="11.80227642888145"><ele>294.0</ele><time>2026-05-02T07:48:11.465Z</time></trkpt><trkpt lat="46.00582250182318" lon="11.802053616755726"><ele>294.0</ele><time>2026-05-02T07:48:12.465Z</time></trkpt><trkpt lat="46.00600281909574" lon="11.801815821303842"><ele>294.5</ele><time>2026-05-02T07:48:13.465Z</time></trkpt><trkpt lat="46.00616940984055" lon="11.801574194332256"><ele>295.0</ele><time>2026-05-02T07:48:14.465Z</time></trkpt><trkpt lat="46.00635190773903" lon="11.801345125556452"><ele>295.0</ele><time>2026-05-02T07:48:15.465Z</time></trkpt><trkpt lat="46.006534512249324" lon="11.801097084379576"><ele>295.0</ele><time>2026-05-02T07:48:16.465Z</time></trkpt><trkpt lat="46.00669268810142" lon="11.800866438910955"><ele>295.0</ele><time>2026-05-02T07:48:17.465Z</time></trkpt><trkpt lat="46.00685833839847" lon="11.80065812649775"><ele>295.0</ele><time>2026-05-02T07:48:18.465Z</time></trkpt><trkpt lat="46.006995212885194" lon="11.80043537972886"><ele>295.0</ele><time>2026-05-02T07:48:19.465Z</time></trkpt><trkpt lat="46.007126163388236" lon="11.800231655682776"><ele>295.0</ele><time>2026-05-02T07:48:20.465Z</time></trkpt><trkpt lat="46.00726626091275" lon="11.800049730125883"><ele>295.0</ele><time>2026-05-02T07:48:21.465Z</time></trkpt><trkpt lat="46.00738425839498" lon="11.799863622560878"><ele>295.0</ele><time>2026-05-02T07:48:22.465Z</time></trkpt><trkpt lat="46.00754323236545" lon="11.799667301433706"><ele>295.0</ele><time>2026-05-02T07:48:23.465Z</time></trkpt><trkpt lat="46.00768112039354" lon="11.799471936443442"><ele>295.0</ele><time>2026-05-02T07:48:24.465Z</time></trkpt><trkpt lat="46.00783931414081" lon="11.799288108726167"><ele>295.0</ele><time>2026-05-02T07:48:25.465Z</time></trkpt><trkpt lat="46.007991210346454" lon="11.799102373091857"><ele>296.0</ele><time>2026-05-02T07:48:26.465Z</time></trkpt><trkpt lat="46.008144589482036" lon="11.798919969405176"><ele>297.0</ele><time>2026-05-02T07:48:27.465Z</time></trkpt><trkpt lat="46.00829385616045" lon="11.798725308845075"><ele>298.0</ele><time>2026-05-02T07:48:28.465Z</time></trkpt><trkpt lat="46.008438124898355" lon="11.798543113564628"><ele>298.0</ele><time>2026-05-02T07:48:29.465Z</time></trkpt><trkpt lat="46.008536244040364" lon="11.798381116552816"><ele>298.0</ele><time>2026-05-02T07:48:30.465Z</time></trkpt><trkpt lat="46.008674436787466" lon="11.798229070603421"><ele>298.0</ele><time>2026-05-02T07:48:31.465Z</time></trkpt><trkpt lat="46.00877953464686" lon="11.798068135015795"><ele>298.0</ele><time>2026-05-02T07:48:32.465Z</time></trkpt><trkpt lat="46.00887622519581" lon="11.797905085126171"><ele>298.0</ele><time>2026-05-02T07:48:33.465Z</time></trkpt><trkpt lat="46.00897303040453" lon="11.797752066348659"><ele>298.0</ele><time>2026-05-02T07:48:34.465Z</time></trkpt><trkpt lat="46.009053830869426" lon="11.79762409987352"><ele>298.0</ele><time>2026-05-02T07:48:35.465Z</time></trkpt><trkpt lat="46.00913097522987" lon="11.797527175475654"><ele>298.16666666666663</ele><time>2026-05-02T07:48:36.465Z</time></trkpt><trkpt lat="46.00921092194794" lon="11.797452197696487"><ele>298.3333333333333</ele><time>2026-05-02T07:48:37.465Z</time></trkpt><trkpt lat="46.00926439741877" lon="11.797380929307861"><ele>298.5</ele><time>2026-05-02T07:48:38.465Z</time></trkpt><trkpt lat="46.009328189478786" lon="11.797321822280194"><ele>298.6666666666667</ele><time>2026-05-02T07:48:39.465Z</time></trkpt><trkpt lat="46.00941225275164" lon="11.7972993496832"><ele>298.83333333333337</ele><time>2026-05-02T07:48:40.465Z</time></trkpt><trkpt lat="46.00947177523807" lon="11.79720559607319"><ele>299.0</ele><time>2026-05-02T07:48:42.465Z</time></trkpt><trkpt lat="46.009524405258176" lon="11.79713472515788"><ele>299.0</ele><time>2026-05-02T07:48:45.465Z</time></trkpt><trkpt lat="46.009575417466245" lon="11.79706603276441"><ele>299.0</ele><time>2026-05-02T07:48:48.465Z</time></trkpt><trkpt lat="46.00980380986778" lon="11.79722843930194"><ele>299.0</ele><time>2026-05-02T07:49:36.465Z</time></trkpt><trkpt lat="46.00987115317687" lon="11.79721966561785"><ele>299.0</ele><time>2026-05-02T07:52:34.466Z</time></trkpt><trkpt lat="46.00988802540768" lon="11.79707054793812"><ele>299.0</ele><time>2026-05-02T07:52:45.466Z</time></trkpt><trkpt lat="46.00989059963909" lon="11.797174062770758"><ele>299.0</ele><time>2026-05-02T07:52:52.466Z</time></trkpt><trkpt lat="46.009847699475124" lon="11.797241720997649"><ele>299.0</ele><time>2026-05-02T07:53:07.466Z</time></trkpt><trkpt lat="46.00976393820386" lon="11.797288249786567"><ele>299.0</ele><time>2026-05-02T07:53:11.466Z</time></trkpt><trkpt lat="46.009755008569876" lon="11.797419143944897"><ele>299.0</ele><time>2026-05-02T07:53:54.466Z</time></trkpt><trkpt lat="46.009798013962445" lon="11.797082663333205"><ele>299.0</ele><time>2026-05-02T07:54:35.466Z</time></trkpt><trkpt lat="46.009746354595386" lon="11.79693096134116"><ele>299.0</ele><time>2026-05-02T07:54:37.466Z</time></trkpt><trkpt lat="46.00979078774816" lon="11.796858103926642"><ele>299.0</ele><time>2026-05-02T07:54:38.466Z</time></trkpt><trkpt lat="46.0098436894266" lon="11.796726983980937"><ele>299.0</ele><time>2026-05-02T07:54:40.466Z</time></trkpt><trkpt lat="46.009920756568285" lon="11.796674278083813"><ele>299.0</ele><time>2026-05-02T07:54:42.466Z</time></trkpt><trkpt lat="46.009990513605636" lon="11.796627194161893"><ele>299.2</ele><time>2026-05-02T07:54:44.466Z</time></trkpt><trkpt lat="46.01007271736624" lon="11.796524965413344"><ele>299.4</ele><time>2026-05-02T07:54:46.466Z</time></trkpt><trkpt lat="46.01008789755558" lon="11.796407964614644"><ele>299.6</ele><time>2026-05-02T07:55:18.466Z</time></trkpt><trkpt lat="46.01011976523749" lon="11.796237617673905"><ele>299.8</ele><time>2026-05-02T07:55:20.466Z</time></trkpt><trkpt lat="46.01015578773477" lon="11.79615788723517"><ele>300.0</ele><time>2026-05-02T07:55:21.466Z</time></trkpt><trkpt lat="46.01024207549059" lon="11.796074562806231"><ele>301.0</ele><time>2026-05-02T07:55:22.466Z</time></trkpt><trkpt lat="46.01033543987539" lon="11.79596219485272"><ele>302.0</ele><time>2026-05-02T07:55:23.466Z</time></trkpt><trkpt lat="46.01042125407689" lon="11.79585015919458"><ele>303.0</ele><time>2026-05-02T07:55:24.466Z</time></trkpt><trkpt lat="46.010482763890835" lon="11.79573470338643"><ele>304.0</ele><time>2026-05-02T07:55:25.466Z</time></trkpt><trkpt lat="46.01057662687418" lon="11.795632987565895"><ele>304.0</ele><time>2026-05-02T07:55:26.466Z</time></trkpt><trkpt lat="46.01067165397434" lon="11.795515943355861"><ele>304.0</ele><time>2026-05-02T07:55:27.466Z</time></trkpt><trkpt lat="46.010759294852576" lon="11.795397633187283"><ele>304.0</ele><time>2026-05-02T07:55:28.466Z</time></trkpt><trkpt lat="46.010834545903485" lon="11.79528602568891"><ele>304.0</ele><time>2026-05-02T07:55:29.466Z</time></trkpt><trkpt lat="46.01093296230033" lon="11.795168740563422"><ele>304.0</ele><time>2026-05-02T07:55:30.466Z</time></trkpt><trkpt lat="46.01104332236748" lon="11.795041060866595"><ele>304.0</ele><time>2026-05-02T07:55:31.466Z</time></trkpt><trkpt lat="46.011129228387624" lon="11.794888686474742"><ele>304.0</ele><time>2026-05-02T07:55:32.466Z</time></trkpt><trkpt lat="46.01123302454594" lon="11.794765349622049"><ele>304.0</ele><time>2026-05-02T07:55:33.466Z</time></trkpt><trkpt lat="46.01132349863272" lon="11.79465482196003"><ele>304.0</ele><time>2026-05-02T07:55:34.466Z</time></trkpt><trkpt lat="46.01142479125152" lon="11.794549019515356"><ele>304.0</ele><time>2026-05-02T07:55:35.466Z</time></trkpt><trkpt lat="46.011504910871444" lon="11.794444095030249"><ele>304.0</ele><time>2026-05-02T07:55:36.466Z</time></trkpt><trkpt lat="46.01159075874974" lon="11.794365515819859"><ele>304.0</ele><time>2026-05-02T07:55:37.466Z</time></trkpt><trkpt lat="46.01167824238152" lon="11.794307839779828"><ele>304.0</ele><time>2026-05-02T07:55:38.466Z</time></trkpt><trkpt lat="46.011767776722785" lon="11.794307967308354"><ele>304.0</ele><time>2026-05-02T07:55:39.466Z</time></trkpt><trkpt lat="46.01185490055973" lon="11.794287038410102"><ele>304.0</ele><time>2026-05-02T07:55:40.466Z</time></trkpt><trkpt lat="46.01193410905292" lon="11.794274771014548"><ele>304.0</ele><time>2026-05-02T07:55:41.466Z</time></trkpt><trkpt lat="46.01201128246539" lon="11.794274074187733"><ele>304.0</ele><time>2026-05-02T07:55:42.466Z</time></trkpt><trkpt lat="46.012087778445526" lon="11.79426113803913"><ele>304.0</ele><time>2026-05-02T07:55:43.466Z</time></trkpt><trkpt lat="46.012157171335" lon="11.79422122823708"><ele>304.0</ele><time>2026-05-02T07:55:44.466Z</time></trkpt><trkpt lat="46.01222324035549" lon="11.79417680470985"><ele>304.0</ele><time>2026-05-02T07:55:45.466Z</time></trkpt><trkpt lat="46.01228086205652" lon="11.794119753062008"><ele>304.0</ele><time>2026-05-02T07:55:46.466Z</time></trkpt><trkpt lat="46.01231993607131" lon="11.794028540119605"><ele>304.0</ele><time>2026-05-02T07:55:47.466Z</time></trkpt><trkpt lat="46.012348090591914" lon="11.793931229991992"><ele>304.0</ele><time>2026-05-02T07:55:48.466Z</time></trkpt><trkpt lat="46.01237208598987" lon="11.793825601276405"><ele>304.0</ele><time>2026-05-02T07:55:49.466Z</time></trkpt><trkpt lat="46.01237392414553" lon="11.79370880203725"><ele>304.0</ele><time>2026-05-02T07:55:50.466Z</time></trkpt><trkpt lat="46.01237217631546" lon="11.793575090403868"><ele>304.2</ele><time>2026-05-02T07:55:51.466Z</time></trkpt><trkpt lat="46.0123932445987" lon="11.793433460941442"><ele>304.4</ele><time>2026-05-02T07:55:52.466Z</time></trkpt><trkpt lat="46.012443288196536" lon="11.79331543863878"><ele>304.6</ele><time>2026-05-02T07:55:53.466Z</time></trkpt><trkpt lat="46.01250835945841" lon="11.793201077035365"><ele>304.8</ele><time>2026-05-02T07:55:54.466Z</time></trkpt><trkpt lat="46.01259660864131" lon="11.79308832129019"><ele>305.0</ele><time>2026-05-02T07:55:55.466Z</time></trkpt><trkpt lat="46.01269134754153" lon="11.792941595144715"><ele>305.0</ele><time>2026-05-02T07:55:56.466Z</time></trkpt><trkpt lat="46.01283071720291" lon="11.792858688447781"><ele>305.0</ele><time>2026-05-02T07:55:57.466Z</time></trkpt><trkpt lat="46.01293546311282" lon="11.792767947618179"><ele>305.0</ele><time>2026-05-02T07:55:58.466Z</time></trkpt><trkpt lat="46.01307728253856" lon="11.792683841419322"><ele>305.0</ele><time>2026-05-02T07:55:59.466Z</time></trkpt><trkpt lat="46.01322997043008" lon="11.79258917275615"><ele>305.0</ele><time>2026-05-02T07:56:00.467Z</time></trkpt><trkpt lat="46.01341934696866" lon="11.792487467838669"><ele>305.0</ele><time>2026-05-02T07:56:01.467Z</time></trkpt><trkpt lat="46.01361975944378" lon="11.792389026184624"><ele>305.0</ele><time>2026-05-02T07:56:02.467Z</time></trkpt><trkpt lat="46.013810421901496" lon="11.792287231710555"><ele>305.0</ele><time>2026-05-02T07:56:03.467Z</time></trkpt><trkpt lat="46.01399525622396" lon="11.792178880943178"><ele>305.0</ele><time>2026-05-02T07:56:04.467Z</time></trkpt><trkpt lat="46.01420685245218" lon="11.79204705845111"><ele>305.0</ele><time>2026-05-02T07:56:05.467Z</time></trkpt><trkpt lat="46.014415470991715" lon="11.791898080654821"><ele>306.0</ele><time>2026-05-02T07:56:06.467Z</time></trkpt><trkpt lat="46.014638912510534" lon="11.791771306712118"><ele>307.0</ele><time>2026-05-02T07:56:07.467Z</time></trkpt><trkpt lat="46.014869761095014" lon="11.791664455427942"><ele>307.0</ele><time>2026-05-02T07:56:08.467Z</time></trkpt><trkpt lat="46.015078053461835" lon="11.791556575727709"><ele>307.0</ele><time>2026-05-02T07:56:09.467Z</time></trkpt><trkpt lat="46.0152706343475" lon="11.791417352976069"><ele>307.0</ele><time>2026-05-02T07:56:10.467Z</time></trkpt><trkpt lat="46.01545234154536" lon="11.791235138284588"><ele>308.0</ele><time>2026-05-02T07:56:11.467Z</time></trkpt><trkpt lat="46.01562283588762" lon="11.790966205022562"><ele>309.0</ele><time>2026-05-02T07:56:12.467Z</time></trkpt><trkpt lat="46.0157876249138" lon="11.790685816575984"><ele>309.0</ele><time>2026-05-02T07:56:13.467Z</time></trkpt><trkpt lat="46.01593767436341" lon="11.790381442253691"><ele>309.0</ele><time>2026-05-02T07:56:14.467Z</time></trkpt><trkpt lat="46.016082950736894" lon="11.790103107353753"><ele>309.0</ele><time>2026-05-02T07:56:15.467Z</time></trkpt><trkpt lat="46.016214500660986" lon="11.789852778739062"><ele>309.0</ele><time>2026-05-02T07:56:16.467Z</time></trkpt><trkpt lat="46.01635576140845" lon="11.78958999856071"><ele>309.0</ele><time>2026-05-02T07:56:17.467Z</time></trkpt><trkpt lat="46.016488888180284" lon="11.789327852822298"><ele>309.0</ele><time>2026-05-02T07:56:18.467Z</time></trkpt><trkpt lat="46.01662571832831" lon="11.789058202877417"><ele>309.0</ele><time>2026-05-02T07:56:19.467Z</time></trkpt><trkpt lat="46.01675558379826" lon="11.788791782124457"><ele>309.3333333333333</ele><time>2026-05-02T07:56:20.467Z</time></trkpt><trkpt lat="46.016874984839454" lon="11.788533628307578"><ele>309.66666666666663</ele><time>2026-05-02T07:56:21.467Z</time></trkpt><trkpt lat="46.017005032430205" lon="11.788267323660788"><ele>310.0</ele><time>2026-05-02T07:56:22.467Z</time></trkpt><trkpt lat="46.017130567028815" lon="11.788004315205082"><ele>310.0</ele><time>2026-05-02T07:56:23.467Z</time></trkpt><trkpt lat="46.01726566851997" lon="11.78776031059117"><ele>310.0</ele><time>2026-05-02T07:56:24.467Z</time></trkpt><trkpt lat="46.01740230303235" lon="11.787511489214882"><ele>310.0</ele><time>2026-05-02T07:56:25.467Z</time></trkpt><trkpt lat="46.017531411277695" lon="11.787272514570217"><ele>310.66666666666663</ele><time>2026-05-02T07:56:26.467Z</time></trkpt><trkpt lat="46.01766151092439" lon="11.787027797483375"><ele>311.3333333333333</ele><time>2026-05-02T07:56:27.467Z</time></trkpt><trkpt lat="46.01777888972975" lon="11.786770444559286"><ele>312.0</ele><time>2026-05-02T07:56:28.467Z</time></trkpt><trkpt lat="46.01790341656295" lon="11.78653479218108"><ele>312.0</ele><time>2026-05-02T07:56:29.467Z</time></trkpt><trkpt lat="46.01802464102368" lon="11.786292100805568"><ele>312.0</ele><time>2026-05-02T07:56:30.467Z</time></trkpt><trkpt lat="46.01813003584679" lon="11.78607205137289"><ele>312.0</ele><time>2026-05-02T07:56:31.467Z</time></trkpt><trkpt lat="46.018218359013126" lon="11.785847303607495"><ele>312.3333333333333</ele><time>2026-05-02T07:56:32.467Z</time></trkpt><trkpt lat="46.01831274025696" lon="11.785643885566213"><ele>312.66666666666663</ele><time>2026-05-02T07:56:33.467Z</time></trkpt><trkpt lat="46.01841545373325" lon="11.785445561906782"><ele>313.0</ele><time>2026-05-02T07:56:34.467Z</time></trkpt><trkpt lat="46.01851227041302" lon="11.78524879769538"><ele>313.0</ele><time>2026-05-02T07:56:35.467Z</time></trkpt><trkpt lat="46.01862708926089" lon="11.785037591773468"><ele>313.0</ele><time>2026-05-02T07:56:36.467Z</time></trkpt><trkpt lat="46.018735795004" lon="11.784827715598173"><ele>313.0</ele><time>2026-05-02T07:56:37.467Z</time></trkpt><trkpt lat="46.0188393707911" lon="11.78461752569926"><ele>313.0</ele><time>2026-05-02T07:56:38.467Z</time></trkpt><trkpt lat="46.01895284987889" lon="11.784411739882408"><ele>313.0</ele><time>2026-05-02T07:56:39.467Z</time></trkpt><trkpt lat="46.01905193418348" lon="11.78419819498493"><ele>313.0</ele><time>2026-05-02T07:56:40.467Z</time></trkpt><trkpt lat="46.01917202744437" lon="11.783983279803314"><ele>314.3333333333333</ele><time>2026-05-02T07:56:41.467Z</time></trkpt><trkpt lat="46.01927838978351" lon="11.783769250983527"><ele>315.6666666666667</ele><time>2026-05-02T07:56:42.467Z</time></trkpt><trkpt lat="46.01939574184737" lon="11.783543661576335"><ele>317.0</ele><time>2026-05-02T07:56:43.467Z</time></trkpt><trkpt lat="46.019517470635456" lon="11.78331408092369"><ele>317.33333333333337</ele><time>2026-05-02T07:56:44.467Z</time></trkpt><trkpt lat="46.01963522916571" lon="11.783089302643916"><ele>317.6666666666667</ele><time>2026-05-02T07:56:45.467Z</time></trkpt><trkpt lat="46.01975311855758" lon="11.782863681888152"><ele>318.0</ele><time>2026-05-02T07:56:46.467Z</time></trkpt><trkpt lat="46.01988175390677" lon="11.782628009254568"><ele>318.0</ele><time>2026-05-02T07:56:47.467Z</time></trkpt><trkpt lat="46.02000512114099" lon="11.782390210628627"><ele>318.0</ele><time>2026-05-02T07:56:48.467Z</time></trkpt><trkpt lat="46.020129080278934" lon="11.782129161936421"><ele>318.0</ele><time>2026-05-02T07:56:49.467Z</time></trkpt><trkpt lat="46.020273321127995" lon="11.781834627099787"><ele>319.0</ele><time>2026-05-02T07:56:50.467Z</time></trkpt><trkpt lat="46.02038024444358" lon="11.781521786075682"><ele>320.0</ele><time>2026-05-02T07:56:51.467Z</time></trkpt><trkpt lat="46.02051754784376" lon="11.781227263864826"><ele>319.5</ele><time>2026-05-02T07:56:52.467Z</time></trkpt><trkpt lat="46.0206340804066" lon="11.780927874934866"><ele>319.0</ele><time>2026-05-02T07:56:53.467Z</time></trkpt><trkpt lat="46.020760070188054" lon="11.780640585052097"><ele>319.5</ele><time>2026-05-02T07:56:54.467Z</time></trkpt><trkpt lat="46.0208800339126" lon="11.780359784088251"><ele>320.0</ele><time>2026-05-02T07:56:55.467Z</time></trkpt><trkpt lat="46.02100065570821" lon="11.78007357689664"><ele>322.0</ele><time>2026-05-02T07:56:56.467Z</time></trkpt><trkpt lat="46.0211433799734" lon="11.779788733329376"><ele>324.0</ele><time>2026-05-02T07:56:57.467Z</time></trkpt><trkpt lat="46.02126445180938" lon="11.779504818547275"><ele>324.0</ele><time>2026-05-02T07:56:58.467Z</time></trkpt><trkpt lat="46.021398577125574" lon="11.77924339879834"><ele>324.0</ele><time>2026-05-02T07:56:59.467Z</time></trkpt><trkpt lat="46.02150588775197" lon="11.779010083313052"><ele>324.0</ele><time>2026-05-02T07:57:00.467Z</time></trkpt><trkpt lat="46.021599844075496" lon="11.778754644042843"><ele>326.0</ele><time>2026-05-02T07:57:01.467Z</time></trkpt><trkpt lat="46.02169537039668" lon="11.778487090399231"><ele>328.0</ele><time>2026-05-02T07:57:02.467Z</time></trkpt><trkpt lat="46.02175892709386" lon="11.778173357202359"><ele>330.0</ele><time>2026-05-02T07:57:03.467Z</time></trkpt><trkpt lat="46.02180591901865" lon="11.777845676159528"><ele>330.5</ele><time>2026-05-02T07:57:04.467Z</time></trkpt><trkpt lat="46.021838801923344" lon="11.77749622644071"><ele>331.0</ele><time>2026-05-02T07:57:05.467Z</time></trkpt><trkpt lat="46.021900986914986" lon="11.777145460389802"><ele>331.3333333333333</ele><time>2026-05-02T07:57:06.467Z</time></trkpt><trkpt lat="46.02195247338613" lon="11.776834919073455"><ele>331.6666666666667</ele><time>2026-05-02T07:57:07.467Z</time></trkpt><trkpt lat="46.02200063736878" lon="11.77656046903835"><ele>332.0</ele><time>2026-05-02T07:57:08.467Z</time></trkpt><trkpt lat="46.02204430586331" lon="11.77629914622637"><ele>332.0</ele><time>2026-05-02T07:57:09.467Z</time></trkpt><trkpt lat="46.02210576366617" lon="11.776073876043265"><ele>332.0</ele><time>2026-05-02T07:57:10.467Z</time></trkpt><trkpt lat="46.022169073178794" lon="11.775838837160661"><ele>332.0</ele><time>2026-05-02T07:57:11.467Z</time></trkpt><trkpt lat="46.02225048239445" lon="11.775607357023858"><ele>331.6666666666667</ele><time>2026-05-02T07:57:12.467Z</time></trkpt><trkpt lat="46.02233434179504" lon="11.775368345131028"><ele>331.3333333333333</ele><time>2026-05-02T07:57:13.467Z</time></trkpt><trkpt lat="46.02240950416068" lon="11.775088785060769"><ele>331.0</ele><time>2026-05-02T07:57:14.482Z</time></trkpt><trkpt lat="46.022480251637994" lon="11.77478475410426"><ele>345.5</ele><time>2026-05-02T07:57:15.483Z</time></trkpt><trkpt lat="46.022553154046825" lon="11.774472076596851"><ele>360.0</ele><time>2026-05-02T07:57:16.484Z</time></trkpt><trkpt lat="46.022647791653704" lon="11.774130150320454"><ele>360.0</ele><time>2026-05-02T07:57:17.484Z</time></trkpt><trkpt lat="46.02274216989306" lon="11.77378131946242"><ele>360.0</ele><time>2026-05-02T07:57:18.482Z</time></trkpt><trkpt lat="46.02283291076969" lon="11.773438642302516"><ele>393.5</ele><time>2026-05-02T07:57:19.484Z</time></trkpt><trkpt lat="46.022814954346714" lon="11.773286714084263"><ele>427.0</ele><time>2026-05-02T07:57:38.164Z</time></trkpt><trkpt lat="46.0230281926333" lon="11.77243447296735"><ele>428.0</ele><time>2026-05-02T07:57:39.165Z</time></trkpt><trkpt lat="46.02325654932138" lon="11.771591497389892"><ele>439.0</ele><time>2026-05-02T07:57:40.166Z</time></trkpt><trkpt lat="46.02345165491674" lon="11.770731651744095"><ele>399.0</ele><time>2026-05-02T07:57:41.165Z</time></trkpt><trkpt lat="46.023677562741284" lon="11.769891915387692"><ele>372.0</ele><time>2026-05-02T07:57:42.161Z</time></trkpt><trkpt lat="46.02389443573362" lon="11.769038504106133"><ele>375.0</ele><time>2026-05-02T07:57:43.165Z</time></trkpt><trkpt lat="46.02411417109469" lon="11.768198419625291"><ele>427.0</ele><time>2026-05-02T07:57:44.161Z</time></trkpt><trkpt lat="46.02442790639792" lon="11.76741370580678"><ele>406.0</ele><time>2026-05-02T07:57:45.166Z</time></trkpt><trkpt lat="46.02478003062282" lon="11.76666620651837"><ele>406.0</ele><time>2026-05-02T07:57:46.164Z</time></trkpt><trkpt lat="46.0249255" lon="11.7663574"><ele>406.0</ele><time>2026-05-02T07:57:47.165Z</time></trkpt><trkpt lat="46.02611220911706" lon="11.765466928493012"><ele>407.33333333333337</ele><time>2026-05-02T07:58:06.467Z</time></trkpt><trkpt lat="46.02628198237444" lon="11.765415332029935"><ele>408.66666666666663</ele><time>2026-05-02T07:58:07.467Z</time></trkpt><trkpt lat="46.02643715514432" lon="11.765362127614885"><ele>410.0</ele><time>2026-05-02T07:58:08.467Z</time></trkpt><trkpt lat="46.02662557605851" lon="11.765267540777574"><ele>403.25</ele><time>2026-05-02T07:58:09.467Z</time></trkpt><trkpt lat="46.0267391774583" lon="11.765166429019644"><ele>396.5</ele><time>2026-05-02T07:58:10.467Z</time></trkpt><trkpt lat="46.02683925099404" lon="11.765086048776746"><ele>389.75</ele><time>2026-05-02T07:58:11.467Z</time></trkpt><trkpt lat="46.026970816014384" lon="11.765024595052015"><ele>383.0</ele><time>2026-05-02T07:58:12.467Z</time></trkpt><trkpt lat="46.0271399998233" lon="11.765069155875661"><ele>383.0</ele><time>2026-05-02T07:58:13.467Z</time></trkpt><trkpt lat="46.027269095370706" lon="11.765091119245394"><ele>383.0</ele><time>2026-05-02T07:58:14.467Z</time></trkpt><trkpt lat="46.027510013573774" lon="11.765123198727448"><ele>383.0</ele><time>2026-05-02T07:58:15.467Z</time></trkpt><trkpt lat="46.0276270515193" lon="11.765120547682915"><ele>391.5</ele><time>2026-05-02T07:58:16.467Z</time></trkpt><trkpt lat="46.02771888753492" lon="11.765124548075262"><ele>400.0</ele><time>2026-05-02T07:58:17.467Z</time></trkpt><trkpt lat="46.027528292695585" lon="11.765051972600203"><ele>408.5</ele><time>2026-05-02T07:58:18.467Z</time></trkpt><trkpt lat="46.02763047290606" lon="11.765026203248278"><ele>417.0</ele><time>2026-05-02T07:58:19.467Z</time></trkpt><trkpt lat="46.027937180178824" lon="11.764879272579439"><ele>417.0</ele><time>2026-05-02T07:58:20.467Z</time></trkpt><trkpt lat="46.02815749028463" lon="11.764679605616177"><ele>417.0</ele><time>2026-05-02T07:58:22.467Z</time></trkpt><trkpt lat="46.028300552823715" lon="11.764541510077375"><ele>417.0</ele><time>2026-05-02T07:58:23.467Z</time></trkpt><trkpt lat="46.028447147464185" lon="11.764400002912708"><ele>404.5</ele><time>2026-05-02T07:58:24.467Z</time></trkpt><trkpt lat="46.02856772774154" lon="11.764287214940703"><ele>392.0</ele><time>2026-05-02T07:58:25.467Z</time></trkpt><trkpt lat="46.02869720499638" lon="11.76416395624415"><ele>379.5</ele><time>2026-05-02T07:58:26.467Z</time></trkpt><trkpt lat="46.02881315945481" lon="11.764058667187307"><ele>367.0</ele><time>2026-05-02T07:58:27.467Z</time></trkpt><trkpt lat="46.02886956224009" lon="11.764002165500907"><ele>367.0</ele><time>2026-05-02T07:58:28.467Z</time></trkpt><trkpt lat="46.02893305459207" lon="11.763954150712905"><ele>367.0</ele><time>2026-05-02T07:58:29.467Z</time></trkpt><trkpt lat="46.029005376593496" lon="11.763918340974426"><ele>367.0</ele><time>2026-05-02T07:58:30.467Z</time></trkpt><trkpt lat="46.02914610144562" lon="11.763889133809888"><ele>367.0</ele><time>2026-05-02T07:58:31.467Z</time></trkpt><trkpt lat="46.02924828484027" lon="11.763867220802958"><ele>367.0</ele><time>2026-05-02T07:58:32.467Z</time></trkpt><trkpt lat="46.02935051714298" lon="11.76385013293846"><ele>368.40000000000003</ele><time>2026-05-02T07:58:33.467Z</time></trkpt><trkpt lat="46.02942277681884" lon="11.763842562828266"><ele>369.8</ele><time>2026-05-02T07:58:34.467Z</time></trkpt><trkpt lat="46.02948969150368" lon="11.76376218895434"><ele>371.2</ele><time>2026-05-02T07:58:35.467Z</time></trkpt><trkpt lat="46.02955733793352" lon="11.763717642613956"><ele>372.6</ele><time>2026-05-02T07:58:37.467Z</time></trkpt><trkpt lat="46.02965235333173" lon="11.763786728435809"><ele>374.0</ele><time>2026-05-02T07:58:39.467Z</time></trkpt><trkpt lat="46.02968416131725" lon="11.76352590904751"><ele>374.0</ele><time>2026-05-02T07:58:40.467Z</time></trkpt><trkpt lat="46.02961586696013" lon="11.763461086394512"><ele>374.0</ele><time>2026-05-02T07:58:41.467Z</time></trkpt><trkpt lat="46.02963691033467" lon="11.763357831218414"><ele>374.0</ele><time>2026-05-02T07:58:42.467Z</time></trkpt><trkpt lat="46.02963299269459" lon="11.763192671165294"><ele>374.0</ele><time>2026-05-02T07:58:44.467Z</time></trkpt><trkpt lat="46.02963147308759" lon="11.763044450712128"><ele>374.0</ele><time>2026-05-02T07:58:46.467Z</time></trkpt><trkpt lat="46.02965322081812" lon="11.762918898676102"><ele>374.0</ele><time>2026-05-02T07:58:48.467Z</time></trkpt><trkpt lat="46.02968643447065" lon="11.762832337591146"><ele>374.0</ele><time>2026-05-02T07:58:49.467Z</time></trkpt><trkpt lat="46.02978799851704" lon="11.762753280418956"><ele>374.0</ele><time>2026-05-02T07:58:51.467Z</time></trkpt><trkpt lat="46.029854496423035" lon="11.762748759411918"><ele>374.0</ele><time>2026-05-02T07:58:52.467Z</time></trkpt><trkpt lat="46.02993484359436" lon="11.762728440318158"><ele>374.0</ele><time>2026-05-02T07:58:53.467Z</time></trkpt><trkpt lat="46.03003859635987" lon="11.762697948467956"><ele>374.0</ele><time>2026-05-02T07:58:54.467Z</time></trkpt><trkpt lat="46.03013814949582" lon="11.762668690856454"><ele>379.5</ele><time>2026-05-02T07:58:55.467Z</time></trkpt><trkpt lat="46.030248553321314" lon="11.762635276814173"><ele>385.0</ele><time>2026-05-02T07:58:56.467Z</time></trkpt><trkpt lat="46.03039859206107" lon="11.76258420948299"><ele>390.5</ele><time>2026-05-02T07:58:57.467Z</time></trkpt><trkpt lat="46.030564138815315" lon="11.762526754324316"><ele>396.0</ele><time>2026-05-02T07:58:58.467Z</time></trkpt><trkpt lat="46.03073376646014" lon="11.762473304571095"><ele>392.33333333333337</ele><time>2026-05-02T07:58:59.467Z</time></trkpt><trkpt lat="46.030894832732976" lon="11.762423958782925"><ele>388.6666666666667</ele><time>2026-05-02T07:59:00.467Z</time></trkpt><trkpt lat="46.031074285316585" lon="11.762374473063934"><ele>385.0</ele><time>2026-05-02T07:59:01.467Z</time></trkpt><trkpt lat="46.03121301745861" lon="11.762332927601218"><ele>385.0</ele><time>2026-05-02T07:59:02.467Z</time></trkpt><trkpt lat="46.03135569925172" lon="11.76225973358816"><ele>385.0</ele><time>2026-05-02T07:59:03.467Z</time></trkpt><trkpt lat="46.0314618382071" lon="11.762238936287623"><ele>385.0</ele><time>2026-05-02T07:59:04.467Z</time></trkpt><trkpt lat="46.031563522508876" lon="11.76217111233534"><ele>385.0</ele><time>2026-05-02T07:59:05.467Z</time></trkpt><trkpt lat="46.03166286661787" lon="11.762110479443594"><ele>380.50000000000006</ele><time>2026-05-02T07:59:06.467Z</time></trkpt><trkpt lat="46.03172924083697" lon="11.762066772747543"><ele>376.0</ele><time>2026-05-02T07:59:07.467Z</time></trkpt><trkpt lat="46.03178919547535" lon="11.762001305780261"><ele>371.5</ele><time>2026-05-02T07:59:08.467Z</time></trkpt><trkpt lat="46.031888376407686" lon="11.761951761425387"><ele>367.0</ele><time>2026-05-02T07:59:10.467Z</time></trkpt><trkpt lat="46.0319481456128" lon="11.761897598395317"><ele>362.5</ele><time>2026-05-02T07:59:11.467Z</time></trkpt><trkpt lat="46.032049150250316" lon="11.761917835319116"><ele>358.0</ele><time>2026-05-02T07:59:14.467Z</time></trkpt><trkpt lat="46.032150763605706" lon="11.761904716754984"><ele>367.0</ele><time>2026-05-02T07:59:15.467Z</time></trkpt><trkpt lat="46.032227443511545" lon="11.761847594983786"><ele>376.0</ele><time>2026-05-02T07:59:16.467Z</time></trkpt><trkpt lat="46.032299950621415" lon="11.76176105587298"><ele>385.0</ele><time>2026-05-02T07:59:17.467Z</time></trkpt><trkpt lat="46.03242442940774" lon="11.76165356120238"><ele>394.0</ele><time>2026-05-02T07:59:18.467Z</time></trkpt><trkpt lat="46.03261440540479" lon="11.761683167668034"><ele>394.0</ele><time>2026-05-02T07:59:19.467Z</time></trkpt><trkpt lat="46.03286897801667" lon="11.761628387977662"><ele>394.0</ele><time>2026-05-02T07:59:20.467Z</time></trkpt><trkpt lat="46.033106402652415" lon="11.76156237372161"><ele>393.5</ele><time>2026-05-02T07:59:21.467Z</time></trkpt><trkpt lat="46.033334466932885" lon="11.761462434962986"><ele>393.0</ele><time>2026-05-02T07:59:22.467Z</time></trkpt><trkpt lat="46.03357294325201" lon="11.761343522378706"><ele>393.0</ele><time>2026-05-02T07:59:23.467Z</time></trkpt><trkpt lat="46.033815505473214" lon="11.761219678834816"><ele>393.0</ele><time>2026-05-02T07:59:24.467Z</time></trkpt><trkpt lat="46.0340308074005" lon="11.761110081703015"><ele>409.66666666666663</ele><time>2026-05-02T07:59:25.467Z</time></trkpt><trkpt lat="46.03421555965136" lon="11.76102405028529"><ele>426.3333333333333</ele><time>2026-05-02T07:59:26.467Z</time></trkpt><trkpt lat="46.034379651279735" lon="11.760980341916966"><ele>443.0</ele><time>2026-05-02T07:59:27.467Z</time></trkpt><trkpt lat="46.03453952733573" lon="11.760972378674555"><ele>443.0</ele><time>2026-05-02T07:59:28.467Z</time></trkpt><trkpt lat="46.03468998284524" lon="11.76099363759676"><ele>443.0</ele><time>2026-05-02T07:59:29.467Z</time></trkpt><trkpt lat="46.03482270874227" lon="11.76102503837928"><ele>443.0</ele><time>2026-05-02T07:59:30.467Z</time></trkpt><trkpt lat="46.03497873090883" lon="11.761069949359763"><ele>443.0</ele><time>2026-05-02T07:59:31.467Z</time></trkpt><trkpt lat="46.035156326439086" lon="11.761121513171503"><ele>428.66666666666663</ele><time>2026-05-02T07:59:32.467Z</time></trkpt><trkpt lat="46.035318714185905" lon="11.761168275662698"><ele>414.33333333333337</ele><time>2026-05-02T07:59:33.479Z</time></trkpt><trkpt lat="46.03548504937144" lon="11.761216174895516"><ele>400.0</ele><time>2026-05-02T07:59:34.482Z</time></trkpt><trkpt lat="46.035656569564125" lon="11.7612658101378"><ele>397.5</ele><time>2026-05-02T07:59:35.483Z</time></trkpt><trkpt lat="46.03582643593237" lon="11.761316410547924"><ele>395.0</ele><time>2026-05-02T07:59:36.479Z</time></trkpt><trkpt lat="46.03680781093057" lon="11.760720592003093"><ele>396.0</ele><time>2026-05-02T07:59:41.467Z</time></trkpt><trkpt lat="46.03699669031226" lon="11.760710602976461"><ele>397.0</ele><time>2026-05-02T07:59:42.467Z</time></trkpt><trkpt lat="46.03705607169261" lon="11.760999627636181"><ele>398.0</ele><time>2026-05-02T07:59:43.467Z</time></trkpt><trkpt lat="46.036960773009355" lon="11.761616155438327"><ele>398.0</ele><time>2026-05-02T07:59:44.467Z</time></trkpt><trkpt lat="46.03714664430048" lon="11.761577848607038"><ele>398.0</ele><time>2026-05-02T07:59:45.467Z</time></trkpt><trkpt lat="46.03716675967837" lon="11.761992707904446"><ele>395.0</ele><time>2026-05-02T07:59:46.467Z</time></trkpt><trkpt lat="46.03719205277769" lon="11.762377715997303"><ele>392.0</ele><time>2026-05-02T07:59:47.467Z</time></trkpt><trkpt lat="46.037316570841156" lon="11.762512421592898"><ele>389.0</ele><time>2026-05-02T07:59:48.467Z</time></trkpt><trkpt lat="46.03745151699066" lon="11.762612380253344"><ele>388.5</ele><time>2026-05-02T07:59:49.467Z</time></trkpt><trkpt lat="46.03756719164048" lon="11.762683532491037"><ele>388.0</ele><time>2026-05-02T07:59:50.467Z</time></trkpt><trkpt lat="46.03768126431551" lon="11.762802394377339"><ele>387.5</ele><time>2026-05-02T07:59:51.467Z</time></trkpt><trkpt lat="46.0377758586461" lon="11.76291894987847"><ele>387.0</ele><time>2026-05-02T07:59:52.467Z</time></trkpt><trkpt lat="46.037868001768054" lon="11.763060008497808"><ele>387.0</ele><time>2026-05-02T07:59:53.467Z</time></trkpt><trkpt lat="46.03796107207102" lon="11.763229675548398"><ele>387.0</ele><time>2026-05-02T07:59:54.467Z</time></trkpt><trkpt lat="46.038045066092195" lon="11.763379316564873"><ele>387.0</ele><time>2026-05-02T07:59:55.467Z</time></trkpt><trkpt lat="46.0381411167575" lon="11.763542673058645"><ele>387.0</ele><time>2026-05-02T07:59:56.467Z</time></trkpt><trkpt lat="46.03822913036288" lon="11.763677801635474"><ele>388.5</ele><time>2026-05-02T07:59:57.467Z</time></trkpt><trkpt lat="46.0383278417418" lon="11.76379364114352"><ele>390.0</ele><time>2026-05-02T07:59:58.467Z</time></trkpt><trkpt lat="46.03846413319576" lon="11.763869670752976"><ele>391.5</ele><time>2026-05-02T07:59:59.467Z</time></trkpt><trkpt lat="46.038616852107005" lon="11.763905076200343"><ele>393.0</ele><time>2026-05-02T08:00:00.467Z</time></trkpt><trkpt lat="46.03876566887953" lon="11.763892900699187"><ele>393.0</ele><time>2026-05-02T08:00:01.467Z</time></trkpt><trkpt lat="46.03888458053009" lon="11.763857378407591"><ele>393.0</ele><time>2026-05-02T08:00:02.467Z</time></trkpt><trkpt lat="46.03902751336759" lon="11.76381053977702"><ele>393.0</ele><time>2026-05-02T08:00:03.467Z</time></trkpt><trkpt lat="46.039171574654056" lon="11.763762106709613"><ele>393.0</ele><time>2026-05-02T08:00:04.483Z</time></trkpt><trkpt lat="46.03932844576225" lon="11.763711217114908"><ele>400.0</ele><time>2026-05-02T08:00:05.482Z</time></trkpt><trkpt lat="46.03947895163464" lon="11.763664898011227"><ele>407.0</ele><time>2026-05-02T08:00:06.479Z</time></trkpt><trkpt lat="46.03963638738267" lon="11.76361714703742"><ele>414.0</ele><time>2026-05-02T08:00:07.484Z</time></trkpt><trkpt lat="46.03979747325272" lon="11.763568831445088"><ele>468.0</ele><time>2026-05-02T08:00:08.483Z</time></trkpt><trkpt lat="46.04043036376831" lon="11.763489979140163"><ele>468.0</ele><time>2026-05-02T08:00:12.484Z</time></trkpt><trkpt lat="46.04060542308923" lon="11.76348579098963"><ele>468.0</ele><time>2026-05-02T08:00:13.467Z</time></trkpt><trkpt lat="46.04078464277548" lon="11.763469830184121"><ele>468.0</ele><time>2026-05-02T08:00:14.467Z</time></trkpt><trkpt lat="46.04095053139715" lon="11.763423080605756"><ele>470.0</ele><time>2026-05-02T08:00:15.467Z</time></trkpt><trkpt lat="46.04108691766032" lon="11.763359503203796"><ele>472.0</ele><time>2026-05-02T08:00:16.467Z</time></trkpt><trkpt lat="46.04125485588224" lon="11.763279326700088"><ele>474.0</ele><time>2026-05-02T08:00:17.467Z</time></trkpt><trkpt lat="46.04141622390118" lon="11.76320311319174"><ele>474.0</ele><time>2026-05-02T08:00:18.482Z</time></trkpt><trkpt lat="46.0415848544211" lon="11.76312546900534"><ele>474.0</ele><time>2026-05-02T08:00:19.481Z</time></trkpt><trkpt lat="46.041750312737534" lon="11.763047794197279"><ele>474.0</ele><time>2026-05-02T08:00:20.479Z</time></trkpt><trkpt lat="46.04191122149491" lon="11.762970175871256"><ele>485.0</ele><time>2026-05-02T08:00:21.482Z</time></trkpt><trkpt lat="46.04342253591829" lon="11.761616724858175"><ele>485.0</ele><time>2026-05-02T08:00:34.284Z</time></trkpt><trkpt lat="46.04350655199474" lon="11.76155644111717"><ele>485.0</ele><time>2026-05-02T08:00:35.311Z</time></trkpt><trkpt lat="46.043611866810714" lon="11.7614808776417"><ele>485.0</ele><time>2026-05-02T08:00:36.622Z</time></trkpt><trkpt lat="46.04373003857367" lon="11.761402800328892"><ele>485.0</ele><time>2026-05-02T08:00:38.101Z</time></trkpt><trkpt lat="46.045097627168936" lon="11.761307539026955"><ele>445.5</ele><time>2026-05-02T08:00:42.468Z</time></trkpt><trkpt lat="46.0452615378842" lon="11.761170129041894"><ele>406.0</ele><time>2026-05-02T08:00:43.468Z</time></trkpt><trkpt lat="46.04557502609074" lon="11.76127293996487"><ele>402.0</ele><time>2026-05-02T08:00:45.468Z</time></trkpt><trkpt lat="46.04581382434078" lon="11.761292074661426"><ele>398.0</ele><time>2026-05-02T08:00:46.468Z</time></trkpt><trkpt lat="46.046032131853785" lon="11.761287073767027"><ele>398.0</ele><time>2026-05-02T08:00:47.468Z</time></trkpt><trkpt lat="46.04624934898402" lon="11.761285839175873"><ele>398.0</ele><time>2026-05-02T08:00:48.468Z</time></trkpt><trkpt lat="46.046454115034706" lon="11.761331122977163"><ele>398.0</ele><time>2026-05-02T08:00:49.468Z</time></trkpt><trkpt lat="46.04664195949428" lon="11.761340279677436"><ele>403.66666666666663</ele><time>2026-05-02T08:00:50.468Z</time></trkpt><trkpt lat="46.04683535439601" lon="11.761376973964687"><ele>409.33333333333337</ele><time>2026-05-02T08:00:51.468Z</time></trkpt><trkpt lat="46.04683879845704" lon="11.761687669916714"><ele>415.0</ele><time>2026-05-02T08:00:52.468Z</time></trkpt><trkpt lat="46.04692582427644" lon="11.761617058259148"><ele>415.00000000000006</ele><time>2026-05-02T08:00:53.468Z</time></trkpt><trkpt lat="46.04700407192799" lon="11.761626053677848"><ele>415.0</ele><time>2026-05-02T08:00:54.468Z</time></trkpt><trkpt lat="46.04707039603074" lon="11.761640324100103"><ele>415.0</ele><time>2026-05-02T08:00:56.468Z</time></trkpt><trkpt lat="46.04714646570539" lon="11.761633614597361"><ele>415.0</ele><time>2026-05-02T08:01:01.468Z</time></trkpt><trkpt lat="46.047227693955904" lon="11.761708659614582"><ele>415.00000000000006</ele><time>2026-05-02T08:01:03.468Z</time></trkpt><trkpt lat="46.04727263213834" lon="11.761781899102447"><ele>415.0</ele><time>2026-05-02T08:01:04.468Z</time></trkpt><trkpt lat="46.04732466565501" lon="11.761870569233544"><ele>410.0</ele><time>2026-05-02T08:01:06.468Z</time></trkpt><trkpt lat="46.04738192082966" lon="11.761917024937853"><ele>405.0</ele><time>2026-05-02T08:01:13.468Z</time></trkpt><trkpt lat="46.04755322249331" lon="11.761980913917139"><ele>400.0</ele><time>2026-05-02T08:01:23.468Z</time></trkpt><trkpt lat="46.04761375086096" lon="11.762027839671482"><ele>395.0</ele><time>2026-05-02T08:01:24.468Z</time></trkpt><trkpt lat="46.047669762355845" lon="11.762071544960856"><ele>390.0</ele><time>2026-05-02T08:01:25.468Z</time></trkpt><trkpt lat="46.04775327454383" lon="11.762139314657789"><ele>390.0</ele><time>2026-05-02T08:01:26.468Z</time></trkpt><trkpt lat="46.047853005786585" lon="11.762228852343245"><ele>390.0</ele><time>2026-05-02T08:01:27.468Z</time></trkpt><trkpt lat="46.04798617888722" lon="11.76236430006045"><ele>390.0</ele><time>2026-05-02T08:01:28.468Z</time></trkpt><trkpt lat="46.048103106991945" lon="11.762466851105618"><ele>390.0</ele><time>2026-05-02T08:01:29.468Z</time></trkpt><trkpt lat="46.04819706612957" lon="11.762558053310723"><ele>394.0</ele><time>2026-05-02T08:01:30.468Z</time></trkpt><trkpt lat="46.04831697020904" lon="11.762635727941364"><ele>398.0</ele><time>2026-05-02T08:01:31.468Z</time></trkpt><trkpt lat="46.04846429119411" lon="11.762686249663519"><ele>402.0</ele><time>2026-05-02T08:01:32.468Z</time></trkpt><trkpt lat="46.04862504505032" lon="11.762674663516849"><ele>406.0</ele><time>2026-05-02T08:01:33.468Z</time></trkpt><trkpt lat="46.04879421332507" lon="11.7626892269091"><ele>406.0</ele><time>2026-05-02T08:01:34.468Z</time></trkpt><trkpt lat="46.048994228815225" lon="11.762635757653324"><ele>406.0</ele><time>2026-05-02T08:01:35.468Z</time></trkpt><trkpt lat="46.04917554293436" lon="11.762595566813221"><ele>406.0</ele><time>2026-05-02T08:01:36.468Z</time></trkpt><trkpt lat="46.049350518951975" lon="11.762608190656158"><ele>412.33333333333337</ele><time>2026-05-02T08:01:37.468Z</time></trkpt><trkpt lat="46.04952957328303" lon="11.762621977982585"><ele>418.66666666666663</ele><time>2026-05-02T08:01:38.468Z</time></trkpt><trkpt lat="46.04972326577638" lon="11.762618729372782"><ele>425.0</ele><time>2026-05-02T08:01:39.468Z</time></trkpt><trkpt lat="46.04990663592057" lon="11.762583836506595"><ele>427.3333333333333</ele><time>2026-05-02T08:01:40.468Z</time></trkpt><trkpt lat="46.050063269485314" lon="11.762642357975055"><ele>429.66666666666663</ele><time>2026-05-02T08:01:41.468Z</time></trkpt><trkpt lat="46.05023558316211" lon="11.762740714213479"><ele>432.0</ele><time>2026-05-02T08:01:42.468Z</time></trkpt><trkpt lat="46.05040476245016" lon="11.762879938560282"><ele>427.33333333333337</ele><time>2026-05-02T08:01:43.468Z</time></trkpt><trkpt lat="46.05058156225901" lon="11.763048704056564"><ele>422.6666666666667</ele><time>2026-05-02T08:01:44.468Z</time></trkpt><trkpt lat="46.05074119006493" lon="11.763173871806696"><ele>418.0</ele><time>2026-05-02T08:01:45.468Z</time></trkpt><trkpt lat="46.05089596796105" lon="11.763246553755154"><ele>418.0</ele><time>2026-05-02T08:01:46.468Z</time></trkpt><trkpt lat="46.05105013774047" lon="11.763316089425102"><ele>418.0</ele><time>2026-05-02T08:01:47.468Z</time></trkpt><trkpt lat="46.05116248434913" lon="11.76342453427056"><ele>418.0</ele><time>2026-05-02T08:01:48.468Z</time></trkpt><trkpt lat="46.051266237999975" lon="11.763508922472406"><ele>418.0</ele><time>2026-05-02T08:01:49.468Z</time></trkpt><trkpt lat="46.051361725701284" lon="11.763643345729404"><ele>415.75</ele><time>2026-05-02T08:01:50.468Z</time></trkpt><trkpt lat="46.05146730622619" lon="11.763799485397422"><ele>413.5</ele><time>2026-05-02T08:01:51.468Z</time></trkpt><trkpt lat="46.05159798461691" lon="11.763909067318545"><ele>411.25</ele><time>2026-05-02T08:01:52.468Z</time></trkpt><trkpt lat="46.05170439297123" lon="11.763974609825937"><ele>409.0</ele><time>2026-05-02T08:01:53.468Z</time></trkpt><trkpt lat="46.05182028376298" lon="11.763954000446995"><ele>409.0</ele><time>2026-05-02T08:01:54.468Z</time></trkpt><trkpt lat="46.051966825848076" lon="11.763812282040092"><ele>409.0</ele><time>2026-05-02T08:01:55.468Z</time></trkpt><trkpt lat="46.05207554053779" lon="11.763641973198835"><ele>409.0</ele><time>2026-05-02T08:01:56.468Z</time></trkpt><trkpt lat="46.05217610257778" lon="11.763536806232059"><ele>414.75</ele><time>2026-05-02T08:01:57.468Z</time></trkpt><trkpt lat="46.052304256361545" lon="11.763487157881963"><ele>420.5</ele><time>2026-05-02T08:01:58.468Z</time></trkpt><trkpt lat="46.052455406263356" lon="11.763494656208792"><ele>426.25</ele><time>2026-05-02T08:01:59.468Z</time></trkpt><trkpt lat="46.052617836317346" lon="11.763505188007638"><ele>432.0</ele><time>2026-05-02T08:02:00.468Z</time></trkpt><trkpt lat="46.052776258756516" lon="11.763516853990566"><ele>432.75</ele><time>2026-05-02T08:02:01.468Z</time></trkpt><trkpt lat="46.052929738906805" lon="11.763487312456231"><ele>433.5</ele><time>2026-05-02T08:02:02.468Z</time></trkpt><trkpt lat="46.053050492316814" lon="11.763511895155103"><ele>434.25</ele><time>2026-05-02T08:02:03.468Z</time></trkpt><trkpt lat="46.05319084532947" lon="11.763494460372852"><ele>435.0</ele><time>2026-05-02T08:02:04.468Z</time></trkpt><trkpt lat="46.05330511493371" lon="11.763430826395526"><ele>427.0</ele><time>2026-05-02T08:02:05.468Z</time></trkpt><trkpt lat="46.053425008284414" lon="11.763302184404724"><ele>419.0</ele><time>2026-05-02T08:02:06.468Z</time></trkpt><trkpt lat="46.053574701117334" lon="11.763198056116506"><ele>411.0</ele><time>2026-05-02T08:02:07.468Z</time></trkpt><trkpt lat="46.053692511111606" lon="11.763093194595891"><ele>411.0</ele><time>2026-05-02T08:02:08.468Z</time></trkpt><trkpt lat="46.05382292575633" lon="11.763030678712509"><ele>411.0</ele><time>2026-05-02T08:02:09.468Z</time></trkpt><trkpt lat="46.0539596646754" lon="11.763000908272888"><ele>411.0</ele><time>2026-05-02T08:02:10.468Z</time></trkpt><trkpt lat="46.05411148991402" lon="11.762954169014428"><ele>411.0</ele><time>2026-05-02T08:02:11.468Z</time></trkpt><trkpt lat="46.05425293438473" lon="11.762822217291761"><ele>416.0</ele><time>2026-05-02T08:02:12.468Z</time></trkpt><trkpt lat="46.054348454250594" lon="11.762633331758872"><ele>421.0</ele><time>2026-05-02T08:02:13.468Z</time></trkpt><trkpt lat="46.05447600106415" lon="11.762531919611133"><ele>426.0</ele><time>2026-05-02T08:02:14.468Z</time></trkpt><trkpt lat="46.05461488641581" lon="11.762544290555061"><ele>431.0</ele><time>2026-05-02T08:02:15.468Z</time></trkpt><trkpt lat="46.05472366420861" lon="11.76254300296006"><ele>431.0</ele><time>2026-05-02T08:02:16.468Z</time></trkpt><trkpt lat="46.05488696751538" lon="11.762686494871799"><ele>431.0</ele><time>2026-05-02T08:02:17.468Z</time></trkpt><trkpt lat="46.05507803955106" lon="11.762790988905348"><ele>431.0</ele><time>2026-05-02T08:02:18.468Z</time></trkpt><trkpt lat="46.05526902426457" lon="11.762889439691502"><ele>421.0</ele><time>2026-05-02T08:02:19.468Z</time></trkpt><trkpt lat="46.055436758100164" lon="11.762981287900002"><ele>411.0</ele><time>2026-05-02T08:02:20.468Z</time></trkpt><trkpt lat="46.05558201605679" lon="11.763087835630955"><ele>401.0</ele><time>2026-05-02T08:02:21.468Z</time></trkpt><trkpt lat="46.05570894165408" lon="11.763138282387255"><ele>403.66666666666663</ele><time>2026-05-02T08:02:22.468Z</time></trkpt><trkpt lat="46.05583641444124" lon="11.763178924559416"><ele>406.33333333333337</ele><time>2026-05-02T08:02:23.468Z</time></trkpt><trkpt lat="46.05598479898351" lon="11.763161649020594"><ele>409.0</ele><time>2026-05-02T08:02:24.468Z</time></trkpt><trkpt lat="46.05614348832969" lon="11.763057442032132"><ele>409.0</ele><time>2026-05-02T08:02:25.468Z</time></trkpt><trkpt lat="46.05628236098061" lon="11.762952545352778"><ele>409.0</ele><time>2026-05-02T08:02:26.468Z</time></trkpt><trkpt lat="46.05644190463122" lon="11.762832090363494"><ele>409.0</ele><time>2026-05-02T08:02:27.468Z</time></trkpt><trkpt lat="46.05657684772288" lon="11.762759068303383"><ele>407.0</ele><time>2026-05-02T08:02:28.468Z</time></trkpt><trkpt lat="46.056733655578874" lon="11.762718672156334"><ele>405.0</ele><time>2026-05-02T08:02:29.468Z</time></trkpt><trkpt lat="46.05691940338626" lon="11.762712137584105"><ele>403.0</ele><time>2026-05-02T08:02:30.468Z</time></trkpt><trkpt lat="46.05711363459449" lon="11.762762513526418"><ele>403.0</ele><time>2026-05-02T08:02:31.468Z</time></trkpt><trkpt lat="46.05731990395003" lon="11.762845315431433"><ele>403.0</ele><time>2026-05-02T08:02:32.468Z</time></trkpt><trkpt lat="46.05752858334971" lon="11.762927571007387"><ele>403.0</ele><time>2026-05-02T08:02:33.468Z</time></trkpt><trkpt lat="46.057713996751666" lon="11.76302038290292"><ele>405.33333333333337</ele><time>2026-05-02T08:02:34.468Z</time></trkpt><trkpt lat="46.05783835270658" lon="11.763077035586305"><ele>407.66666666666663</ele><time>2026-05-02T08:02:35.468Z</time></trkpt><trkpt lat="46.05797707751108" lon="11.763217241722886"><ele>410.0</ele><time>2026-05-02T08:02:36.468Z</time></trkpt><trkpt lat="46.05810935524288" lon="11.763366692537893"><ele>410.0</ele><time>2026-05-02T08:02:37.468Z</time></trkpt><trkpt lat="46.05824489589959" lon="11.763510830735234"><ele>410.0</ele><time>2026-05-02T08:02:38.468Z</time></trkpt><trkpt lat="46.05841266630885" lon="11.763621965393348"><ele>410.0</ele><time>2026-05-02T08:02:39.468Z</time></trkpt><trkpt lat="46.05859220003654" lon="11.763701110193182"><ele>408.75</ele><time>2026-05-02T08:02:40.468Z</time></trkpt><trkpt lat="46.05873758709099" lon="11.763740725231722"><ele>407.5</ele><time>2026-05-02T08:02:41.468Z</time></trkpt><trkpt lat="46.05888034948307" lon="11.763749656467459"><ele>406.25</ele><time>2026-05-02T08:02:42.468Z</time></trkpt><trkpt lat="46.058967027650304" lon="11.763779205507984"><ele>405.0</ele><time>2026-05-02T08:02:43.468Z</time></trkpt><trkpt lat="46.05908767372315" lon="11.7636772280201"><ele>404.0</ele><time>2026-05-02T08:02:44.468Z</time></trkpt><trkpt lat="46.05919192627721" lon="11.763586508199618"><ele>403.0</ele><time>2026-05-02T08:02:45.468Z</time></trkpt><trkpt lat="46.059304209907744" lon="11.763392424759477"><ele>402.0</ele><time>2026-05-02T08:02:46.468Z</time></trkpt><trkpt lat="46.05939122598659" lon="11.763242294560808"><ele>401.0</ele><time>2026-05-02T08:02:47.468Z</time></trkpt><trkpt lat="46.059467780204514" lon="11.76310589639353"><ele>404.25</ele><time>2026-05-02T08:02:48.469Z</time></trkpt><trkpt lat="46.059585690124344" lon="11.762981729170912"><ele>407.5</ele><time>2026-05-02T08:02:49.469Z</time></trkpt><trkpt lat="46.05971422645484" lon="11.762893822061015"><ele>410.75</ele><time>2026-05-02T08:02:50.469Z</time></trkpt><trkpt lat="46.059863069398176" lon="11.762827710375891"><ele>414.0</ele><time>2026-05-02T08:02:51.469Z</time></trkpt><trkpt lat="46.0600034504966" lon="11.76274222331353"><ele>420.75</ele><time>2026-05-02T08:02:52.469Z</time></trkpt><trkpt lat="46.06013855078682" lon="11.762676372044965"><ele>427.5</ele><time>2026-05-02T08:02:53.469Z</time></trkpt><trkpt lat="46.060272218776575" lon="11.762637644769194"><ele>434.25</ele><time>2026-05-02T08:02:54.469Z</time></trkpt><trkpt lat="46.060359210868924" lon="11.762626581552027"><ele>441.0</ele><time>2026-05-02T08:02:55.469Z</time></trkpt><trkpt lat="46.06044376548879" lon="11.762650631987572"><ele>435.6</ele><time>2026-05-02T08:02:56.469Z</time></trkpt><trkpt lat="46.060506000075385" lon="11.76273597641394"><ele>430.20000000000005</ele><time>2026-05-02T08:02:57.469Z</time></trkpt><trkpt lat="46.06052496308502" lon="11.7628899617093"><ele>424.79999999999995</ele><time>2026-05-02T08:02:58.469Z</time></trkpt><trkpt lat="46.06055578012099" lon="11.763067913603608"><ele>419.4</ele><time>2026-05-02T08:02:59.469Z</time></trkpt><trkpt lat="46.060588470897585" lon="11.763194844298216"><ele>414.0</ele><time>2026-05-02T08:03:00.469Z</time></trkpt><trkpt lat="46.06065717106532" lon="11.763298520527888"><ele>414.0</ele><time>2026-05-02T08:03:02.469Z</time></trkpt><trkpt lat="46.06069494925302" lon="11.763379006528938"><ele>414.0</ele><time>2026-05-02T08:03:03.469Z</time></trkpt><trkpt lat="46.06073678173726" lon="11.763475672558153"><ele>414.0</ele><time>2026-05-02T08:03:04.469Z</time></trkpt><trkpt lat="46.060831868006744" lon="11.763551393547925"><ele>414.0</ele><time>2026-05-02T08:03:05.469Z</time></trkpt><trkpt lat="46.060953915124095" lon="11.76352163583552"><ele>414.0</ele><time>2026-05-02T08:03:06.469Z</time></trkpt><trkpt lat="46.061058791693014" lon="11.763460857658757"><ele>414.0</ele><time>2026-05-02T08:03:07.469Z</time></trkpt><trkpt lat="46.06118100765333" lon="11.763374559280152"><ele>414.0</ele><time>2026-05-02T08:03:08.469Z</time></trkpt><trkpt lat="46.06132511006359" lon="11.763391432881477"><ele>414.0</ele><time>2026-05-02T08:03:09.469Z</time></trkpt><trkpt lat="46.06147814159288" lon="11.7634551595564"><ele>414.0</ele><time>2026-05-02T08:03:10.469Z</time></trkpt><trkpt lat="46.06160803616663" lon="11.76357746499556"><ele>424.33333333333337</ele><time>2026-05-02T08:03:11.469Z</time></trkpt><trkpt lat="46.061747894693234" lon="11.763747743781964"><ele>434.6666666666667</ele><time>2026-05-02T08:03:12.469Z</time></trkpt><trkpt lat="46.06190963011006" lon="11.76391593616163"><ele>445.0</ele><time>2026-05-02T08:03:13.469Z</time></trkpt><trkpt lat="46.0621681325935" lon="11.763952966185675"><ele>445.0</ele><time>2026-05-02T08:03:14.469Z</time></trkpt><trkpt lat="46.06236721027513" lon="11.763983789302543"><ele>445.0</ele><time>2026-05-02T08:03:15.469Z</time></trkpt><trkpt lat="46.062571859399114" lon="11.763973640914308"><ele>445.0</ele><time>2026-05-02T08:03:16.469Z</time></trkpt><trkpt lat="46.06282003257748" lon="11.763966834701463"><ele>442.5</ele><time>2026-05-02T08:03:17.469Z</time></trkpt><trkpt lat="46.06308355669236" lon="11.764002977122828"><ele>440.0</ele><time>2026-05-02T08:03:18.469Z</time></trkpt><trkpt lat="46.06331038266507" lon="11.764068005709706"><ele>440.0</ele><time>2026-05-02T08:03:19.469Z</time></trkpt><trkpt lat="46.06354350489975" lon="11.764092763198105"><ele>440.0</ele><time>2026-05-02T08:03:20.469Z</time></trkpt><trkpt lat="46.06375477216551" lon="11.76412830216255"><ele>440.0</ele><time>2026-05-02T08:03:21.469Z</time></trkpt><trkpt lat="46.063958883085135" lon="11.764172075678465"><ele>442.5</ele><time>2026-05-02T08:03:22.469Z</time></trkpt><trkpt lat="46.06417913476737" lon="11.764241146773067"><ele>445.0</ele><time>2026-05-02T08:03:23.469Z</time></trkpt><trkpt lat="46.06440733190829" lon="11.764343946091577"><ele>459.5</ele><time>2026-05-02T08:03:24.469Z</time></trkpt><trkpt lat="46.06464127580096" lon="11.764440635711724"><ele>474.0</ele><time>2026-05-02T08:03:25.469Z</time></trkpt><trkpt lat="46.064874504065415" lon="11.764626146563373"><ele>491.5</ele><time>2026-05-02T08:03:26.482Z</time></trkpt><trkpt lat="46.0651071254294" lon="11.76471404237765"><ele>509.0</ele><time>2026-05-02T08:03:27.48Z</time></trkpt><trkpt lat="46.06533250287261" lon="11.764779792611703"><ele>509.0</ele><time>2026-05-02T08:03:28.482Z</time></trkpt><trkpt lat="46.06555835191609" lon="11.764822265117182"><ele>509.0</ele><time>2026-05-02T08:03:29.48Z</time></trkpt><trkpt lat="46.06577526365991" lon="11.76484528078945"><ele>509.0</ele><time>2026-05-02T08:03:30.48Z</time></trkpt><trkpt lat="46.06629301901509" lon="11.764799575887642"><ele>505.5</ele><time>2026-05-02T08:03:50.166Z</time></trkpt><trkpt lat="46.06673472859758" lon="11.76469275895144"><ele>502.0</ele><time>2026-05-02T08:03:51.162Z</time></trkpt><trkpt lat="46.06960450430474" lon="11.762828471560864"><ele>479.6666666666667</ele><time>2026-05-02T08:03:52.469Z</time></trkpt><trkpt lat="46.06975438342675" lon="11.7625946427343"><ele>457.33333333333337</ele><time>2026-05-02T08:03:53.469Z</time></trkpt><trkpt lat="46.06979024674313" lon="11.762321990816085"><ele>435.0</ele><time>2026-05-02T08:03:54.469Z</time></trkpt><trkpt lat="46.06985115389183" lon="11.762254944178958"><ele>443.33333333333337</ele><time>2026-05-02T08:03:55.469Z</time></trkpt><trkpt lat="46.070008886097405" lon="11.762146876160633"><ele>451.6666666666667</ele><time>2026-05-02T08:03:56.469Z</time></trkpt><trkpt lat="46.07026268560806" lon="11.762091396447646"><ele>460.0</ele><time>2026-05-02T08:03:57.469Z</time></trkpt><trkpt lat="46.070471022942" lon="11.76201698058535"><ele>460.0</ele><time>2026-05-02T08:03:58.469Z</time></trkpt><trkpt lat="46.07062590437584" lon="11.761909374237907"><ele>460.0</ele><time>2026-05-02T08:03:59.469Z</time></trkpt><trkpt lat="46.07074991942464" lon="11.761855592509905"><ele>460.0</ele><time>2026-05-02T08:04:00.469Z</time></trkpt><trkpt lat="46.070899593117645" lon="11.76181621649641"><ele>464.0</ele><time>2026-05-02T08:04:01.469Z</time></trkpt><trkpt lat="46.07102628929545" lon="11.761866106912459"><ele>468.0</ele><time>2026-05-02T08:04:02.469Z</time></trkpt><trkpt lat="46.07115875086461" lon="11.76192765700367"><ele>472.0</ele><time>2026-05-02T08:04:03.469Z</time></trkpt><trkpt lat="46.07136862645229" lon="11.76210512535629"><ele>472.0</ele><time>2026-05-02T08:04:04.469Z</time></trkpt><trkpt lat="46.07155638526988" lon="11.762157622813904"><ele>472.0</ele><time>2026-05-02T08:04:05.469Z</time></trkpt><trkpt lat="46.071777068403534" lon="11.762209808073658"><ele>472.0</ele><time>2026-05-02T08:04:06.469Z</time></trkpt><trkpt lat="46.07190122185884" lon="11.762277261383472"><ele>468.6666666666667</ele><time>2026-05-02T08:04:07.469Z</time></trkpt><trkpt lat="46.07206129021684" lon="11.762378818503752"><ele>465.33333333333337</ele><time>2026-05-02T08:04:08.469Z</time></trkpt><trkpt lat="46.07225094355945" lon="11.762502007307914"><ele>462.0</ele><time>2026-05-02T08:04:09.469Z</time></trkpt><trkpt lat="46.07240437055682" lon="11.762616621411848"><ele>472.66666666666663</ele><time>2026-05-02T08:04:10.469Z</time></trkpt><trkpt lat="46.07255923878733" lon="11.762710322060693"><ele>483.3333333333333</ele><time>2026-05-02T08:04:11.469Z</time></trkpt><trkpt lat="46.07271646711731" lon="11.762856643211123"><ele>494.0</ele><time>2026-05-02T08:04:12.469Z</time></trkpt><trkpt lat="46.07286157892524" lon="11.762974111915153"><ele>494.0</ele><time>2026-05-02T08:04:13.469Z</time></trkpt><trkpt lat="46.073050344116524" lon="11.763175575159668"><ele>494.0</ele><time>2026-05-02T08:04:14.469Z</time></trkpt><trkpt lat="46.0732024686545" lon="11.763400354671758"><ele>485.66666666666663</ele><time>2026-05-02T08:04:15.469Z</time></trkpt><trkpt lat="46.073395433632" lon="11.76349937500794"><ele>477.33333333333337</ele><time>2026-05-02T08:04:16.469Z</time></trkpt><trkpt lat="46.07350039195789" lon="11.763524367383132"><ele>469.0</ele><time>2026-05-02T08:04:17.469Z</time></trkpt><trkpt lat="46.07367798261901" lon="11.763468998821685"><ele>469.0</ele><time>2026-05-02T08:04:19.469Z</time></trkpt><trkpt lat="46.07385234300605" lon="11.76344927959743"><ele>469.0</ele><time>2026-05-02T08:04:20.469Z</time></trkpt><trkpt lat="46.07401636256131" lon="11.763460706294788"><ele>469.0</ele><time>2026-05-02T08:04:21.469Z</time></trkpt><trkpt lat="46.07418138936648" lon="11.76345840845512"><ele>464.75</ele><time>2026-05-02T08:04:22.469Z</time></trkpt><trkpt lat="46.07432173534013" lon="11.763439629222736"><ele>460.5</ele><time>2026-05-02T08:04:23.469Z</time></trkpt><trkpt lat="46.074466959367484" lon="11.763432973648777"><ele>456.25</ele><time>2026-05-02T08:04:24.469Z</time></trkpt><trkpt lat="46.07457205867431" lon="11.763524383449077"><ele>452.0</ele><time>2026-05-02T08:04:25.469Z</time></trkpt><trkpt lat="46.0746541326817" lon="11.763635297470353"><ele>455.0</ele><time>2026-05-02T08:04:26.469Z</time></trkpt><trkpt lat="46.074777585213205" lon="11.763768627625211"><ele>458.0</ele><time>2026-05-02T08:04:27.469Z</time></trkpt><trkpt lat="46.07492599125355" lon="11.764057312717645"><ele>461.0</ele><time>2026-05-02T08:04:28.469Z</time></trkpt><trkpt lat="46.07504319349511" lon="11.764323731686549"><ele>475.25</ele><time>2026-05-02T08:04:29.469Z</time></trkpt><trkpt lat="46.075178176990725" lon="11.764460688034294"><ele>489.5</ele><time>2026-05-02T08:04:30.469Z</time></trkpt><trkpt lat="46.075254917952584" lon="11.764556694265272"><ele>503.75</ele><time>2026-05-02T08:04:31.469Z</time></trkpt><trkpt lat="46.07538442651898" lon="11.764673552372543"><ele>518.0</ele><time>2026-05-02T08:04:32.469Z</time></trkpt><trkpt lat="46.07551890986055" lon="11.764823175086649"><ele>518.0</ele><time>2026-05-02T08:04:33.469Z</time></trkpt><trkpt lat="46.075656836440636" lon="11.764970568688414"><ele>518.0</ele><time>2026-05-02T08:04:34.469Z</time></trkpt><trkpt lat="46.07580915496746" lon="11.765064209296069"><ele>518.0</ele><time>2026-05-02T08:04:35.469Z</time></trkpt><trkpt lat="46.075984049283996" lon="11.76518703802406"><ele>514.3333333333333</ele><time>2026-05-02T08:04:36.469Z</time></trkpt><trkpt lat="46.0761628773416" lon="11.765309512524409"><ele>510.66666666666663</ele><time>2026-05-02T08:04:37.469Z</time></trkpt><trkpt lat="46.07634137656391" lon="11.765429473742701"><ele>507.0</ele><time>2026-05-02T08:04:38.469Z</time></trkpt><trkpt lat="46.07652759841389" lon="11.765550927004595"><ele>493.0</ele><time>2026-05-02T08:04:39.469Z</time></trkpt><trkpt lat="46.076690606918326" lon="11.765637441741973"><ele>479.0</ele><time>2026-05-02T08:04:40.469Z</time></trkpt><trkpt lat="46.07688038092892" lon="11.765714595529806"><ele>465.0</ele><time>2026-05-02T08:04:41.469Z</time></trkpt><trkpt lat="46.077041210626184" lon="11.765819824702225"><ele>465.0</ele><time>2026-05-02T08:04:42.469Z</time></trkpt><trkpt lat="46.07720747662748" lon="11.765908904721504"><ele>465.0</ele><time>2026-05-02T08:04:43.469Z</time></trkpt><trkpt lat="46.077377175259755" lon="11.765959092641472"><ele>465.0</ele><time>2026-05-02T08:04:44.469Z</time></trkpt><trkpt lat="46.07755094568941" lon="11.765995370163763"><ele>481.0</ele><time>2026-05-02T08:04:45.469Z</time></trkpt><trkpt lat="46.077695855816536" lon="11.766111542738626"><ele>497.0</ele><time>2026-05-02T08:04:46.469Z</time></trkpt><trkpt lat="46.077842498249204" lon="11.766204715718093"><ele>513.0</ele><time>2026-05-02T08:04:47.469Z</time></trkpt><trkpt lat="46.078021886981475" lon="11.766291808430784"><ele>513.0</ele><time>2026-05-02T08:04:48.469Z</time></trkpt><trkpt lat="46.0781739134514" lon="11.766373621164284"><ele>513.0</ele><time>2026-05-02T08:04:49.469Z</time></trkpt><trkpt lat="46.07833263440607" lon="11.766468984233779"><ele>513.0</ele><time>2026-05-02T08:04:50.485Z</time></trkpt><trkpt lat="46.07848613109667" lon="11.766561780080144"><ele>515.75</ele><time>2026-05-02T08:04:51.485Z</time></trkpt><trkpt lat="46.07864316136795" lon="11.766562112016665"><ele>518.5</ele><time>2026-05-02T08:04:52.485Z</time></trkpt><trkpt lat="46.078787690904505" lon="11.766550304239418"><ele>521.25</ele><time>2026-05-02T08:04:53.485Z</time></trkpt><trkpt lat="46.07881478851952" lon="11.766424075596738"><ele>524.0</ele><time>2026-05-02T08:05:12.165Z</time></trkpt><trkpt lat="46.079345550762085" lon="11.76628032956936"><ele>639.0</ele><time>2026-05-02T08:05:13.165Z</time></trkpt><trkpt lat="46.07986331833013" lon="11.766059507847764"><ele>574.0</ele><time>2026-05-02T08:05:14.166Z</time></trkpt><trkpt lat="46.08038489155959" lon="11.765865886706768"><ele>607.0</ele><time>2026-05-02T08:05:15.163Z</time></trkpt><trkpt lat="46.0808517" lon="11.7656881"><ele>471.0</ele><time>2026-05-02T08:05:16.165Z</time></trkpt><trkpt lat="46.0843024403286" lon="11.764226490642656"><ele>471.0</ele><time>2026-05-02T08:05:24.469Z</time></trkpt><trkpt lat="46.08442849390653" lon="11.764162924702545"><ele>471.0</ele><time>2026-05-02T08:05:25.469Z</time></trkpt><trkpt lat="46.084544048875316" lon="11.764087999750327"><ele>471.0</ele><time>2026-05-02T08:05:26.469Z</time></trkpt><trkpt lat="46.08485675458976" lon="11.763968676717921"><ele>496.0</ele><time>2026-05-02T08:05:29.469Z</time></trkpt><trkpt lat="46.08540404254303" lon="11.763995633001798"><ele>496.0</ele><time>2026-05-02T08:05:31.469Z</time></trkpt><trkpt lat="46.085566651320576" lon="11.763964407855784"><ele>496.0</ele><time>2026-05-02T08:05:32.469Z</time></trkpt><trkpt lat="46.08575761886312" lon="11.763930827821587"><ele>496.0</ele><time>2026-05-02T08:05:33.481Z</time></trkpt><trkpt lat="46.093052738216784" lon="11.762274529330211"><ele>508.0</ele><time>2026-05-02T08:06:10.469Z</time></trkpt><trkpt lat="46.09320788727656" lon="11.762007146517915"><ele>520.0</ele><time>2026-05-02T08:06:11.469Z</time></trkpt><trkpt lat="46.09339611807062" lon="11.761884321734822"><ele>532.0</ele><time>2026-05-02T08:06:12.469Z</time></trkpt><trkpt lat="46.09361075900806" lon="11.761794615742021"><ele>532.0</ele><time>2026-05-02T08:06:13.469Z</time></trkpt><trkpt lat="46.09381643146968" lon="11.761795167857072"><ele>532.0</ele><time>2026-05-02T08:06:14.469Z</time></trkpt><trkpt lat="46.09401297523498" lon="11.761798276815323"><ele>532.0</ele><time>2026-05-02T08:06:15.486Z</time></trkpt><trkpt lat="46.103370385526404" lon="11.772306927565905"><ele>551.0</ele><time>2026-05-02T08:07:12.469Z</time></trkpt><trkpt lat="46.10353560805693" lon="11.772423538247056"><ele>570.0</ele><time>2026-05-02T08:07:13.469Z</time></trkpt><trkpt lat="46.103685547448606" lon="11.772515695086799"><ele>589.0</ele><time>2026-05-02T08:07:14.469Z</time></trkpt><trkpt lat="46.10387325714051" lon="11.772605744076047"><ele>589.0</ele><time>2026-05-02T08:07:15.469Z</time></trkpt><trkpt lat="46.104039675356844" lon="11.772638796926477"><ele>589.0</ele><time>2026-05-02T08:07:16.469Z</time></trkpt><trkpt lat="46.104208735631325" lon="11.772633459632521"><ele>589.0</ele><time>2026-05-02T08:07:17.469Z</time></trkpt><trkpt lat="46.10439387453061" lon="11.77267443452924"><ele>594.0</ele><time>2026-05-02T08:07:18.469Z</time></trkpt><trkpt lat="46.10455692498376" lon="11.772647408503397"><ele>599.0</ele><time>2026-05-02T08:07:19.469Z</time></trkpt><trkpt lat="46.10471087521745" lon="11.772677562231037"><ele>604.0</ele><time>2026-05-02T08:07:20.469Z</time></trkpt><trkpt lat="46.10489413424536" lon="11.772729345287152"><ele>610.6666666666667</ele><time>2026-05-02T08:07:21.469Z</time></trkpt><trkpt lat="46.105097724249866" lon="11.772782040197857"><ele>617.3333333333334</ele><time>2026-05-02T08:07:22.469Z</time></trkpt><trkpt lat="46.105073319482685" lon="11.773077117515474"><ele>624.0</ele><time>2026-05-02T08:07:23.469Z</time></trkpt><trkpt lat="46.10520408769971" lon="11.773187742569865"><ele>624.0</ele><time>2026-05-02T08:07:24.469Z</time></trkpt><trkpt lat="46.10538527676232" lon="11.773245478646135"><ele>624.0</ele><time>2026-05-02T08:07:25.469Z</time></trkpt><trkpt lat="46.105558902058036" lon="11.7732604387311"><ele>624.0</ele><time>2026-05-02T08:07:26.469Z</time></trkpt><trkpt lat="46.10571333960671" lon="11.773183273153643"><ele>604.6666666666666</ele><time>2026-05-02T08:07:27.469Z</time></trkpt><trkpt lat="46.1058850016743" lon="11.773129323124492"><ele>585.3333333333333</ele><time>2026-05-02T08:07:28.469Z</time></trkpt><trkpt lat="46.10603037011568" lon="11.773124544677898"><ele>566.0</ele><time>2026-05-02T08:07:29.469Z</time></trkpt><trkpt lat="46.10615473070086" lon="11.773357074583291"><ele>566.0</ele><time>2026-05-02T08:07:30.469Z</time></trkpt><trkpt lat="46.10633798925449" lon="11.773483284187952"><ele>566.0</ele><time>2026-05-02T08:07:31.469Z</time></trkpt><trkpt lat="46.10646467869452" lon="11.773669531306652"><ele>566.0</ele><time>2026-05-02T08:07:32.469Z</time></trkpt><trkpt lat="46.10659146852859" lon="11.773823735349298"><ele>569.0</ele><time>2026-05-02T08:07:33.469Z</time></trkpt><trkpt lat="46.106749451576206" lon="11.773905614328067"><ele>572.0</ele><time>2026-05-02T08:07:34.469Z</time></trkpt><trkpt lat="46.10686280231425" lon="11.774003096744957"><ele>575.0</ele><time>2026-05-02T08:07:35.469Z</time></trkpt><trkpt lat="46.106967907900426" lon="11.774136179506387"><ele>578.0</ele><time>2026-05-02T08:07:36.47Z</time></trkpt><trkpt lat="46.10704220212869" lon="11.774349582431789"><ele>585.0</ele><time>2026-05-02T08:07:37.47Z</time></trkpt><trkpt lat="46.10713027582873" lon="11.77459420084186"><ele>592.0</ele><time>2026-05-02T08:07:38.47Z</time></trkpt><trkpt lat="46.10721525994057" lon="11.774788507629571"><ele>599.0</ele><time>2026-05-02T08:07:39.47Z</time></trkpt><trkpt lat="46.10730469634786" lon="11.775004886460858"><ele>591.3333333333333</ele><time>2026-05-02T08:07:40.47Z</time></trkpt><trkpt lat="46.107379307406674" lon="11.775235947383258"><ele>583.6666666666666</ele><time>2026-05-02T08:07:41.47Z</time></trkpt><trkpt lat="46.107451764201706" lon="11.77546841388583"><ele>576.0</ele><time>2026-05-02T08:07:42.47Z</time></trkpt><trkpt lat="46.10749813958163" lon="11.775704229055934"><ele>576.0</ele><time>2026-05-02T08:07:43.47Z</time></trkpt><trkpt lat="46.10750945045388" lon="11.775994638311902"><ele>576.0</ele><time>2026-05-02T08:07:44.47Z</time></trkpt><trkpt lat="46.10754689413496" lon="11.776271731789889"><ele>576.0</ele><time>2026-05-02T08:07:45.47Z</time></trkpt><trkpt lat="46.10761450503298" lon="11.77654164793842"><ele>585.6666666666666</ele><time>2026-05-02T08:07:46.47Z</time></trkpt><trkpt lat="46.10770613831068" lon="11.776788842082386"><ele>595.3333333333333</ele><time>2026-05-02T08:07:47.47Z</time></trkpt><trkpt lat="46.10782824673972" lon="11.777003571632875"><ele>605.0</ele><time>2026-05-02T08:07:48.47Z</time></trkpt><trkpt lat="46.10794944273788" lon="11.777207273570156"><ele>612.3333333333333</ele><time>2026-05-02T08:07:49.47Z</time></trkpt><trkpt lat="46.10805578264579" lon="11.777418059996004"><ele>619.6666666666666</ele><time>2026-05-02T08:07:50.47Z</time></trkpt><trkpt lat="46.10817427995472" lon="11.777617255682927"><ele>627.0</ele><time>2026-05-02T08:07:51.47Z</time></trkpt><trkpt lat="46.1083105266197" lon="11.777786835902262"><ele>627.0</ele><time>2026-05-02T08:07:52.47Z</time></trkpt><trkpt lat="46.108479619777796" lon="11.77792453053349"><ele>627.0</ele><time>2026-05-02T08:07:53.47Z</time></trkpt><trkpt lat="46.108636205390376" lon="11.77804529596127"><ele>627.0</ele><time>2026-05-02T08:07:54.47Z</time></trkpt><trkpt lat="46.10878337149735" lon="11.778137334703299"><ele>627.0</ele><time>2026-05-02T08:07:55.47Z</time></trkpt><trkpt lat="46.10896082104056" lon="11.778172703979637"><ele>627.0</ele><time>2026-05-02T08:07:56.47Z</time></trkpt><trkpt lat="46.109130886678926" lon="11.77818079435985"><ele>627.0</ele><time>2026-05-02T08:07:57.47Z</time></trkpt><trkpt lat="46.10930207204949" lon="11.778160401681845"><ele>618.3333333333334</ele><time>2026-05-02T08:07:58.47Z</time></trkpt><trkpt lat="46.109494882034255" lon="11.778116485666812"><ele>609.6666666666667</ele><time>2026-05-02T08:07:59.47Z</time></trkpt><trkpt lat="46.109683163558735" lon="11.77809983085499"><ele>601.0</ele><time>2026-05-02T08:08:00.47Z</time></trkpt><trkpt lat="46.10987870336535" lon="11.778085520706284"><ele>596.6666666666667</ele><time>2026-05-02T08:08:01.47Z</time></trkpt><trkpt lat="46.11009620959801" lon="11.778039854153855"><ele>592.3333333333334</ele><time>2026-05-02T08:08:02.47Z</time></trkpt><trkpt lat="46.110308201862104" lon="11.777996928810314"><ele>588.0</ele><time>2026-05-02T08:08:03.47Z</time></trkpt><trkpt lat="46.110512522641784" lon="11.777958763754194"><ele>586.5</ele><time>2026-05-02T08:08:04.47Z</time></trkpt><trkpt lat="46.11075321795695" lon="11.777960130855455"><ele>585.0</ele><time>2026-05-02T08:08:05.47Z</time></trkpt><trkpt lat="46.11099375505515" lon="11.777985508716569"><ele>585.0</ele><time>2026-05-02T08:08:06.47Z</time></trkpt><trkpt lat="46.11123271625415" lon="11.778023229493922"><ele>585.0</ele><time>2026-05-02T08:08:07.47Z</time></trkpt><trkpt lat="46.11144920875961" lon="11.778053552870054"><ele>586.3333333333334</ele><time>2026-05-02T08:08:08.47Z</time></trkpt><trkpt lat="46.11164233886085" lon="11.778077786071648"><ele>587.6666666666667</ele><time>2026-05-02T08:08:09.47Z</time></trkpt><trkpt lat="46.111832811778704" lon="11.778065916691606"><ele>589.0</ele><time>2026-05-02T08:08:10.47Z</time></trkpt><trkpt lat="46.111995368348" lon="11.77801152491876"><ele>589.0</ele><time>2026-05-02T08:08:11.47Z</time></trkpt><trkpt lat="46.11214818076277" lon="11.77790958154537"><ele>589.0</ele><time>2026-05-02T08:08:12.47Z</time></trkpt><trkpt lat="46.11231363109703" lon="11.777742535985995"><ele>589.0</ele><time>2026-05-02T08:08:13.47Z</time></trkpt><trkpt lat="46.11247130392366" lon="11.777565721788376"><ele>586.0</ele><time>2026-05-02T08:08:14.47Z</time></trkpt><trkpt lat="46.112666270886834" lon="11.777441857388428"><ele>583.0</ele><time>2026-05-02T08:08:15.47Z</time></trkpt><trkpt lat="46.112873657353184" lon="11.777328568672901"><ele>580.0</ele><time>2026-05-02T08:08:16.47Z</time></trkpt><trkpt lat="46.11308885575671" lon="11.777227603316987"><ele>591.0</ele><time>2026-05-02T08:08:17.47Z</time></trkpt><trkpt lat="46.11329677261394" lon="11.777134047569792"><ele>602.0</ele><time>2026-05-02T08:08:18.486Z</time></trkpt><trkpt lat="46.113492953131626" lon="11.777030749168652"><ele>613.0</ele><time>2026-05-02T08:08:19.489Z</time></trkpt><trkpt lat="46.113693583053866" lon="11.776926868134694"><ele>592.5</ele><time>2026-05-02T08:08:20.487Z</time></trkpt><trkpt lat="46.113912626311794" lon="11.776849025555716"><ele>572.0</ele><time>2026-05-02T08:08:21.488Z</time></trkpt><trkpt lat="46.114134039529496" lon="11.776774049584521"><ele>572.0</ele><time>2026-05-02T08:08:22.487Z</time></trkpt><trkpt lat="46.114408727778226" lon="11.776784090336204"><ele>572.0</ele><time>2026-05-02T08:08:23.47Z</time></trkpt><trkpt lat="46.11464392242175" lon="11.776710325202497"><ele>573.5</ele><time>2026-05-02T08:08:24.47Z</time></trkpt><trkpt lat="46.1149396332286" lon="11.776702809371406"><ele>575.0</ele><time>2026-05-02T08:08:25.47Z</time></trkpt><trkpt lat="46.11515244981967" lon="11.776607255374982"><ele>575.0</ele><time>2026-05-02T08:08:26.47Z</time></trkpt><trkpt lat="46.11542668065345" lon="11.776554715987679"><ele>575.0</ele><time>2026-05-02T08:08:27.47Z</time></trkpt><trkpt lat="46.115655359481956" lon="11.776433573602448"><ele>584.5</ele><time>2026-05-02T08:08:28.47Z</time></trkpt><trkpt lat="46.11590191258977" lon="11.776314870020077"><ele>594.0</ele><time>2026-05-02T08:08:29.47Z</time></trkpt><trkpt lat="46.116127737831626" lon="11.776213475777954"><ele>594.0</ele><time>2026-05-02T08:08:30.47Z</time></trkpt><trkpt lat="46.116322216637975" lon="11.776107240147018"><ele>594.0</ele><time>2026-05-02T08:08:31.47Z</time></trkpt><trkpt lat="46.11649012014881" lon="11.776006548092028"><ele>594.0</ele><time>2026-05-02T08:08:32.47Z</time></trkpt><trkpt lat="46.11667313514217" lon="11.7758733410335"><ele>586.6666666666666</ele><time>2026-05-02T08:08:33.47Z</time></trkpt><trkpt lat="46.11682447298771" lon="11.775687767273864"><ele>579.3333333333333</ele><time>2026-05-02T08:08:34.47Z</time></trkpt><trkpt lat="46.11699512960383" lon="11.775622165146551"><ele>572.0</ele><time>2026-05-02T08:08:35.47Z</time></trkpt><trkpt lat="46.11719043239574" lon="11.775577249868846"><ele>572.0</ele><time>2026-05-02T08:08:36.47Z</time></trkpt><trkpt lat="46.11738206923161" lon="11.775635420258155"><ele>572.0</ele><time>2026-05-02T08:08:37.47Z</time></trkpt><trkpt lat="46.11757780118677" lon="11.77570842516611"><ele>572.0</ele><time>2026-05-02T08:08:38.47Z</time></trkpt><trkpt lat="46.11777465891464" lon="11.775801027058673"><ele>573.6666666666666</ele><time>2026-05-02T08:08:39.47Z</time></trkpt><trkpt lat="46.11792991510129" lon="11.775883101207231"><ele>575.3333333333334</ele><time>2026-05-02T08:08:40.47Z</time></trkpt><trkpt lat="46.118124635448794" lon="11.775993484874098"><ele>577.0</ele><time>2026-05-02T08:08:41.47Z</time></trkpt><trkpt lat="46.11827903532976" lon="11.776091437013593"><ele>591.3333333333334</ele><time>2026-05-02T08:08:42.47Z</time></trkpt><trkpt lat="46.118426596900456" lon="11.776193614500698"><ele>605.6666666666666</ele><time>2026-05-02T08:08:43.47Z</time></trkpt><trkpt lat="46.118580053239334" lon="11.776259500936435"><ele>620.0</ele><time>2026-05-02T08:08:44.47Z</time></trkpt><trkpt lat="46.118719894511216" lon="11.776316234391194"><ele>620.0</ele><time>2026-05-02T08:08:45.484Z</time></trkpt><trkpt lat="46.11885609091024" lon="11.776298800689462"><ele>620.0</ele><time>2026-05-02T08:08:46.48Z</time></trkpt><trkpt lat="46.119008846542854" lon="11.776218576235886"><ele>620.0</ele><time>2026-05-02T08:08:47.482Z</time></trkpt><trkpt lat="46.119159718754624" lon="11.776116975041635"><ele>638.0</ele><time>2026-05-02T08:08:48.485Z</time></trkpt><trkpt lat="46.11931386227668" lon="11.776006299609417"><ele>656.0</ele><time>2026-05-02T08:08:49.485Z</time></trkpt><trkpt lat="46.119457006242186" lon="11.772504093805283"><ele>656.0</ele><time>2026-05-02T08:09:01.988Z</time></trkpt><trkpt lat="46.12233830154512" lon="11.77353174426758"><ele>656.0</ele><time>2026-05-02T08:09:09.47Z</time></trkpt><trkpt lat="46.12269059921489" lon="11.773206898908711"><ele>656.0</ele><time>2026-05-02T08:09:11.47Z</time></trkpt><trkpt lat="46.12281268142328" lon="11.773082906276672"><ele>656.0</ele><time>2026-05-02T08:09:12.47Z</time></trkpt><trkpt lat="46.122977752880644" lon="11.772934381154283"><ele>656.0</ele><time>2026-05-02T08:09:13.47Z</time></trkpt><trkpt lat="46.123070930683795" lon="11.772718814578036"><ele>656.0</ele><time>2026-05-02T08:09:14.47Z</time></trkpt><trkpt lat="46.12318014688416" lon="11.772536759274782"><ele>656.0</ele><time>2026-05-02T08:09:15.47Z</time></trkpt><trkpt lat="46.123300417864975" lon="11.7723574505951"><ele>656.0</ele><time>2026-05-02T08:09:16.47Z</time></trkpt><trkpt lat="46.12339036840163" lon="11.772181757735183"><ele>656.0</ele><time>2026-05-02T08:09:17.47Z</time></trkpt><trkpt lat="46.123500588531996" lon="11.772042810028529"><ele>656.0</ele><time>2026-05-02T08:09:18.47Z</time></trkpt><trkpt lat="46.12360291137727" lon="11.771922012189975"><ele>656.0</ele><time>2026-05-02T08:09:19.47Z</time></trkpt><trkpt lat="46.123732063396986" lon="11.771851129934161"><ele>656.0</ele><time>2026-05-02T08:09:20.47Z</time></trkpt><trkpt lat="46.12394973425711" lon="11.771732110515437"><ele>656.0</ele><time>2026-05-02T08:09:21.47Z</time></trkpt><trkpt lat="46.124142445122985" lon="11.771630830423014"><ele>656.0</ele><time>2026-05-02T08:09:22.47Z</time></trkpt><trkpt lat="46.12430506363351" lon="11.771529993008098"><ele>656.0</ele><time>2026-05-02T08:09:23.47Z</time></trkpt><trkpt lat="46.1244875667253" lon="11.77151414155055"><ele>656.0</ele><time>2026-05-02T08:09:24.47Z</time></trkpt><trkpt lat="46.12471967991261" lon="11.771521514460133"><ele>656.0</ele><time>2026-05-02T08:09:25.47Z</time></trkpt><trkpt lat="46.124887347283696" lon="11.771474156783533"><ele>656.0</ele><time>2026-05-02T08:09:26.47Z</time></trkpt><trkpt lat="46.12505338526498" lon="11.771334293671972"><ele>656.0</ele><time>2026-05-02T08:09:27.47Z</time></trkpt><trkpt lat="46.125218871635084" lon="11.771170019680751"><ele>656.0</ele><time>2026-05-02T08:09:28.47Z</time></trkpt><trkpt lat="46.12539662898449" lon="11.770963298250281"><ele>656.0</ele><time>2026-05-02T08:09:29.47Z</time></trkpt><trkpt lat="46.125578862901385" lon="11.770720286297324"><ele>656.0</ele><time>2026-05-02T08:09:30.47Z</time></trkpt><trkpt lat="46.125754733698294" lon="11.770461391723698"><ele>656.0</ele><time>2026-05-02T08:09:31.47Z</time></trkpt><trkpt lat="46.125909094599024" lon="11.770233112225192"><ele>656.0</ele><time>2026-05-02T08:09:32.47Z</time></trkpt><trkpt lat="46.12604464595956" lon="11.770032216866031"><ele>656.0</ele><time>2026-05-02T08:09:33.47Z</time></trkpt><trkpt lat="46.12616058293165" lon="11.769845724392107"><ele>656.0</ele><time>2026-05-02T08:09:34.47Z</time></trkpt><trkpt lat="46.12628802255907" lon="11.76970135416497"><ele>656.0</ele><time>2026-05-02T08:09:35.47Z</time></trkpt><trkpt lat="46.12642959720256" lon="11.769603595333217"><ele>656.0</ele><time>2026-05-02T08:09:36.47Z</time></trkpt><trkpt lat="46.126611959166155" lon="11.769535487293643"><ele>656.0</ele><time>2026-05-02T08:09:37.47Z</time></trkpt><trkpt lat="46.12681120187051" lon="11.769537445918655"><ele>656.0</ele><time>2026-05-02T08:09:38.47Z</time></trkpt><trkpt lat="46.12699620034682" lon="11.769522951002271"><ele>656.0</ele><time>2026-05-02T08:09:39.489Z</time></trkpt><trkpt lat="46.127166299719796" lon="11.769526474222097"><ele>656.0</ele><time>2026-05-02T08:09:40.488Z</time></trkpt><trkpt lat="46.12732704689143" lon="11.769547416775007"><ele>656.0</ele><time>2026-05-02T08:09:41.489Z</time></trkpt><trkpt lat="46.12748567786202" lon="11.76954070978419"><ele>656.0</ele><time>2026-05-02T08:09:42.487Z</time></trkpt><trkpt lat="46.12764546452945" lon="11.769527996741857"><ele>656.0</ele><time>2026-05-02T08:09:43.485Z</time></trkpt><trkpt lat="46.129220011687025" lon="11.768819270666473"><ele>656.0</ele><time>2026-05-02T08:09:54.47Z</time></trkpt><trkpt lat="46.12938269429724" lon="11.768825014626936"><ele>656.0</ele><time>2026-05-02T08:09:55.47Z</time></trkpt><trkpt lat="46.129942608155844" lon="11.769378681073972"><ele>656.0</ele><time>2026-05-02T08:09:57.471Z</time></trkpt><trkpt lat="46.13013409523807" lon="11.769360488119204"><ele>656.0</ele><time>2026-05-02T08:09:58.471Z</time></trkpt><trkpt lat="46.130278089775345" lon="11.76939614306586"><ele>656.0</ele><time>2026-05-02T08:09:59.471Z</time></trkpt><trkpt lat="46.13045695513708" lon="11.769432626353243"><ele>656.0</ele><time>2026-05-02T08:10:00.471Z</time></trkpt><trkpt lat="46.13060412379512" lon="11.769426172074358"><ele>656.0</ele><time>2026-05-02T08:10:01.471Z</time></trkpt><trkpt lat="46.13078694525277" lon="11.76933382521801"><ele>656.0</ele><time>2026-05-02T08:10:02.471Z</time></trkpt><trkpt lat="46.1309452894719" lon="11.769294665115146"><ele>656.0</ele><time>2026-05-02T08:10:03.471Z</time></trkpt><trkpt lat="46.1311134859466" lon="11.769200190898916"><ele>656.0</ele><time>2026-05-02T08:10:04.471Z</time></trkpt><trkpt lat="46.131274139278915" lon="11.769138471082107"><ele>656.0</ele><time>2026-05-02T08:10:05.471Z</time></trkpt><trkpt lat="46.131455295567775" lon="11.768989682482225"><ele>630.3333333333333</ele><time>2026-05-02T08:10:06.471Z</time></trkpt><trkpt lat="46.13160794881367" lon="11.768917078843678"><ele>604.6666666666666</ele><time>2026-05-02T08:10:07.471Z</time></trkpt><trkpt lat="46.13176445098318" lon="11.76884139139697"><ele>579.0</ele><time>2026-05-02T08:10:08.471Z</time></trkpt><trkpt lat="46.13193376492673" lon="11.76874249018657"><ele>579.0</ele><time>2026-05-02T08:10:09.471Z</time></trkpt><trkpt lat="46.13209849695436" lon="11.768667588226867"><ele>579.0</ele><time>2026-05-02T08:10:10.471Z</time></trkpt><trkpt lat="46.132261878269986" lon="11.768641054401119"><ele>579.0</ele><time>2026-05-02T08:10:11.471Z</time></trkpt><trkpt lat="46.13241879732282" lon="11.768692270946916"><ele>581.6666666666666</ele><time>2026-05-02T08:10:12.471Z</time></trkpt><trkpt lat="46.13258130096113" lon="11.768775994317163"><ele>584.3333333333333</ele><time>2026-05-02T08:10:13.471Z</time></trkpt><trkpt lat="46.132734241609334" lon="11.768877316174994"><ele>587.0</ele><time>2026-05-02T08:10:14.471Z</time></trkpt><trkpt lat="46.13287128727187" lon="11.769032640268367"><ele>587.0</ele><time>2026-05-02T08:10:15.471Z</time></trkpt><trkpt lat="46.13300448966585" lon="11.769189435417283"><ele>587.0</ele><time>2026-05-02T08:10:16.471Z</time></trkpt><trkpt lat="46.13307122843758" lon="11.769409286896853"><ele>587.0</ele><time>2026-05-02T08:10:17.471Z</time></trkpt><trkpt lat="46.133169612514905" lon="11.769576786151125"><ele>588.5</ele><time>2026-05-02T08:10:18.471Z</time></trkpt><trkpt lat="46.13324495433854" lon="11.769775858339475"><ele>590.0</ele><time>2026-05-02T08:10:19.471Z</time></trkpt><trkpt lat="46.13336463409271" lon="11.76985321536793"><ele>591.5</ele><time>2026-05-02T08:10:20.471Z</time></trkpt><trkpt lat="46.13352272420068" lon="11.769867166576715"><ele>593.0</ele><time>2026-05-02T08:10:21.471Z</time></trkpt><trkpt lat="46.133683314989135" lon="11.769879630619888"><ele>593.0</ele><time>2026-05-02T08:10:22.471Z</time></trkpt><trkpt lat="46.13388189825406" lon="11.769861899542123"><ele>593.0</ele><time>2026-05-02T08:10:23.471Z</time></trkpt><trkpt lat="46.134086353583015" lon="11.769890106269617"><ele>593.0</ele><time>2026-05-02T08:10:24.471Z</time></trkpt><trkpt lat="46.1342834804613" lon="11.76987367122863"><ele>593.3333333333333</ele><time>2026-05-02T08:10:25.471Z</time></trkpt><trkpt lat="46.13448710581589" lon="11.76981870169832"><ele>593.6666666666666</ele><time>2026-05-02T08:10:26.471Z</time></trkpt><trkpt lat="46.134700807135054" lon="11.76970657037896"><ele>594.0</ele><time>2026-05-02T08:10:27.471Z</time></trkpt><trkpt lat="46.1349248796934" lon="11.769620744899367"><ele>597.5</ele><time>2026-05-02T08:10:28.471Z</time></trkpt><trkpt lat="46.135153366474164" lon="11.76955476767783"><ele>601.0</ele><time>2026-05-02T08:10:29.471Z</time></trkpt><trkpt lat="46.13539817016333" lon="11.769486809682105"><ele>601.0</ele><time>2026-05-02T08:10:30.471Z</time></trkpt><trkpt lat="46.135662703654994" lon="11.769441801133564"><ele>601.0</ele><time>2026-05-02T08:10:31.471Z</time></trkpt><trkpt lat="46.13592489983668" lon="11.769399722518664"><ele>602.0</ele><time>2026-05-02T08:10:32.471Z</time></trkpt><trkpt lat="46.13615023151291" lon="11.769375922639478"><ele>603.0</ele><time>2026-05-02T08:10:33.471Z</time></trkpt><trkpt lat="46.136348715718924" lon="11.769385571144216"><ele>604.0</ele><time>2026-05-02T08:10:34.471Z</time></trkpt><trkpt lat="46.136534371776584" lon="11.769439818772769"><ele>602.3333333333334</ele><time>2026-05-02T08:10:35.471Z</time></trkpt><trkpt lat="46.136705167674265" lon="11.769550747603244"><ele>600.6666666666666</ele><time>2026-05-02T08:10:36.471Z</time></trkpt><trkpt lat="46.13688884167696" lon="11.7696779954827"><ele>599.0</ele><time>2026-05-02T08:10:37.471Z</time></trkpt><trkpt lat="46.13706876096687" lon="11.769829545871653"><ele>599.0</ele><time>2026-05-02T08:10:38.471Z</time></trkpt><trkpt lat="46.13723893756717" lon="11.769959628678226"><ele>599.0</ele><time>2026-05-02T08:10:39.471Z</time></trkpt><trkpt lat="46.13744448383502" lon="11.770103954053559"><ele>599.0</ele><time>2026-05-02T08:10:40.471Z</time></trkpt><trkpt lat="46.13759077334829" lon="11.770272358844963"><ele>595.6666666666666</ele><time>2026-05-02T08:10:41.471Z</time></trkpt><trkpt lat="46.1377472429014" lon="11.770357653856049"><ele>592.3333333333334</ele><time>2026-05-02T08:10:42.471Z</time></trkpt><trkpt lat="46.137877295586215" lon="11.770507376150002"><ele>589.0</ele><time>2026-05-02T08:10:43.471Z</time></trkpt><trkpt lat="46.138000297688535" lon="11.770709667853819"><ele>589.0</ele><time>2026-05-02T08:10:44.471Z</time></trkpt><trkpt lat="46.13810430727172" lon="11.77098759844661"><ele>589.0</ele><time>2026-05-02T08:10:45.471Z</time></trkpt><trkpt lat="46.138203581557114" lon="11.771268529939062"><ele>589.0</ele><time>2026-05-02T08:10:46.471Z</time></trkpt><trkpt lat="46.13834962181703" lon="11.771532339477831"><ele>589.0</ele><time>2026-05-02T08:10:47.471Z</time></trkpt><trkpt lat="46.13844142935762" lon="11.771811682733928"><ele>589.0</ele><time>2026-05-02T08:10:48.471Z</time></trkpt><trkpt lat="46.13855104780578" lon="11.77205174864716"><ele>589.0</ele><time>2026-05-02T08:10:49.471Z</time></trkpt><trkpt lat="46.13866354152749" lon="11.772290361083812"><ele>589.0</ele><time>2026-05-02T08:10:50.471Z</time></trkpt><trkpt lat="46.13879108226585" lon="11.772495342867316"><ele>589.0</ele><time>2026-05-02T08:10:51.471Z</time></trkpt><trkpt lat="46.138924203889836" lon="11.772650635744423"><ele>589.0</ele><time>2026-05-02T08:10:52.471Z</time></trkpt><trkpt lat="46.13904849184221" lon="11.772798635545035"><ele>587.5</ele><time>2026-05-02T08:10:53.471Z</time></trkpt><trkpt lat="46.1391721549976" lon="11.772918245820586"><ele>586.0</ele><time>2026-05-02T08:10:54.471Z</time></trkpt><trkpt lat="46.139294373738274" lon="11.77300448843695"><ele>584.5</ele><time>2026-05-02T08:10:55.471Z</time></trkpt><trkpt lat="46.13938464457099" lon="11.773107207537253"><ele>583.0</ele><time>2026-05-02T08:10:56.471Z</time></trkpt><trkpt lat="46.13945704313316" lon="11.773221392548004"><ele>583.0</ele><time>2026-05-02T08:10:57.471Z</time></trkpt><trkpt lat="46.13952016030646" lon="11.773347097892895"><ele>583.0</ele><time>2026-05-02T08:10:58.471Z</time></trkpt><trkpt lat="46.139539271858986" lon="11.773503101820602"><ele>583.0</ele><time>2026-05-02T08:10:59.471Z</time></trkpt><trkpt lat="46.13958170063164" lon="11.773647357577293"><ele>583.0</ele><time>2026-05-02T08:11:00.471Z</time></trkpt><trkpt lat="46.13966967512037" lon="11.773763691333754"><ele>583.0</ele><time>2026-05-02T08:11:01.471Z</time></trkpt><trkpt lat="46.13971367609901" lon="11.773936196617003"><ele>583.0</ele><time>2026-05-02T08:11:02.471Z</time></trkpt><trkpt lat="46.139847807809915" lon="11.774063624574513"><ele>583.0</ele><time>2026-05-02T08:11:03.471Z</time></trkpt><trkpt lat="46.13994360806575" lon="11.774237914851094"><ele>583.0</ele><time>2026-05-02T08:11:04.471Z</time></trkpt><trkpt lat="46.140025365868574" lon="11.774461053109075"><ele>584.3333333333334</ele><time>2026-05-02T08:11:05.471Z</time></trkpt><trkpt lat="46.140075242786615" lon="11.774693976556014"><ele>585.6666666666666</ele><time>2026-05-02T08:11:06.471Z</time></trkpt><trkpt lat="46.140152466483094" lon="11.774946002164732"><ele>587.0</ele><time>2026-05-02T08:11:07.471Z</time></trkpt><trkpt lat="46.14021947932241" lon="11.77522587472884"><ele>588.0</ele><time>2026-05-02T08:11:08.471Z</time></trkpt><trkpt lat="46.14028579363943" lon="11.775473886265637"><ele>589.0</ele><time>2026-05-02T08:11:09.471Z</time></trkpt><trkpt lat="46.14035030513463" lon="11.775744078452727"><ele>590.0</ele><time>2026-05-02T08:11:10.471Z</time></trkpt><trkpt lat="46.14040910779329" lon="11.776027442965981"><ele>591.5</ele><time>2026-05-02T08:11:11.471Z</time></trkpt><trkpt lat="46.14048973509433" lon="11.776332083452358"><ele>593.0</ele><time>2026-05-02T08:11:12.471Z</time></trkpt><trkpt lat="46.14057172045419" lon="11.77663970192113"><ele>593.0</ele><time>2026-05-02T08:11:13.471Z</time></trkpt><trkpt lat="46.140643906163874" lon="11.776922228196163"><ele>593.0</ele><time>2026-05-02T08:11:14.471Z</time></trkpt><trkpt lat="46.14070875270523" lon="11.777201117117395"><ele>593.0</ele><time>2026-05-02T08:11:15.471Z</time></trkpt><trkpt lat="46.14076561392835" lon="11.777477900259628"><ele>592.3333333333333</ele><time>2026-05-02T08:11:16.471Z</time></trkpt><trkpt lat="46.14082674070143" lon="11.77770982162479"><ele>591.6666666666666</ele><time>2026-05-02T08:11:17.471Z</time></trkpt><trkpt lat="46.140887789175075" lon="11.777950617664791"><ele>591.0</ele><time>2026-05-02T08:11:18.471Z</time></trkpt><trkpt lat="46.140923862134294" lon="11.778230695349741"><ele>591.0</ele><time>2026-05-02T08:11:19.471Z</time></trkpt><trkpt lat="46.14097314687144" lon="11.778477563251355"><ele>591.0</ele><time>2026-05-02T08:11:20.471Z</time></trkpt><trkpt lat="46.14103784432283" lon="11.778737519271882"><ele>591.0</ele><time>2026-05-02T08:11:21.471Z</time></trkpt><trkpt lat="46.14109183536627" lon="11.778997660432934"><ele>591.3333333333334</ele><time>2026-05-02T08:11:22.471Z</time></trkpt><trkpt lat="46.141128206900866" lon="11.77928632969545"><ele>591.6666666666667</ele><time>2026-05-02T08:11:23.471Z</time></trkpt><trkpt lat="46.14118940646223" lon="11.779567134819391"><ele>592.0</ele><time>2026-05-02T08:11:24.471Z</time></trkpt><trkpt lat="46.14122246421723" lon="11.779885897862094"><ele>593.6666666666667</ele><time>2026-05-02T08:11:25.471Z</time></trkpt><trkpt lat="46.14124780700242" lon="11.780191438222237"><ele>595.3333333333334</ele><time>2026-05-02T08:11:26.471Z</time></trkpt><trkpt lat="46.14128812239369" lon="11.780458859726881"><ele>597.0</ele><time>2026-05-02T08:11:27.471Z</time></trkpt><trkpt lat="46.14127800977108" lon="11.780714516445919"><ele>597.0</ele><time>2026-05-02T08:11:28.471Z</time></trkpt><trkpt lat="46.14128889587212" lon="11.780958012139491"><ele>597.0</ele><time>2026-05-02T08:11:29.471Z</time></trkpt><trkpt lat="46.14132109958011" lon="11.781241670343327"><ele>597.0</ele><time>2026-05-02T08:11:30.471Z</time></trkpt><trkpt lat="46.14139710085643" lon="11.78153282040105"><ele>598.0</ele><time>2026-05-02T08:11:31.471Z</time></trkpt><trkpt lat="46.141360605414725" lon="11.78187680369552"><ele>599.0</ele><time>2026-05-02T08:11:32.471Z</time></trkpt><trkpt lat="46.14138711433551" lon="11.782221124901866"><ele>599.0</ele><time>2026-05-02T08:11:33.471Z</time></trkpt><trkpt lat="46.14141850992844" lon="11.78254378234111"><ele>599.0</ele><time>2026-05-02T08:11:34.471Z</time></trkpt><trkpt lat="46.14145693863138" lon="11.782866312142861"><ele>598.0</ele><time>2026-05-02T08:11:35.471Z</time></trkpt><trkpt lat="46.14150431295835" lon="11.783206462143292"><ele>597.0</ele><time>2026-05-02T08:11:36.471Z</time></trkpt><trkpt lat="46.141561931789546" lon="11.783566486387825"><ele>597.0</ele><time>2026-05-02T08:11:37.471Z</time></trkpt><trkpt lat="46.141631132389975" lon="11.783936310997325"><ele>597.0</ele><time>2026-05-02T08:11:38.471Z</time></trkpt><trkpt lat="46.14170734735389" lon="11.78431258233386"><ele>599.0</ele><time>2026-05-02T08:11:39.471Z</time></trkpt><trkpt lat="46.14178672254863" lon="11.784702786209861"><ele>601.0</ele><time>2026-05-02T08:11:40.471Z</time></trkpt><trkpt lat="46.14186479492578" lon="11.785058402261807"><ele>602.5</ele><time>2026-05-02T08:11:41.471Z</time></trkpt><trkpt lat="46.14196009246031" lon="11.785434649145182"><ele>604.0</ele><time>2026-05-02T08:11:42.471Z</time></trkpt><trkpt lat="46.14206926880193" lon="11.78582301539125"><ele>607.5</ele><time>2026-05-02T08:11:43.471Z</time></trkpt><trkpt lat="46.14218879586929" lon="11.786213305613545"><ele>611.0</ele><time>2026-05-02T08:11:44.471Z</time></trkpt><trkpt lat="46.14229501982268" lon="11.786560157326543"><ele>606.5</ele><time>2026-05-02T08:11:45.471Z</time></trkpt><trkpt lat="46.14241122830366" lon="11.78688219953707"><ele>602.0</ele><time>2026-05-02T08:11:46.471Z</time></trkpt><trkpt lat="46.14250136282042" lon="11.787191878921497"><ele>602.0</ele><time>2026-05-02T08:11:47.471Z</time></trkpt><trkpt lat="46.14258274146527" lon="11.787495241719762"><ele>602.0</ele><time>2026-05-02T08:11:48.471Z</time></trkpt><trkpt lat="46.14268159259459" lon="11.787802593177938"><ele>604.5</ele><time>2026-05-02T08:11:49.471Z</time></trkpt><trkpt lat="46.14277810714263" lon="11.788121420661122"><ele>607.0</ele><time>2026-05-02T08:11:50.471Z</time></trkpt><trkpt lat="46.1428978147648" lon="11.788434962993117"><ele>608.5</ele><time>2026-05-02T08:11:51.471Z</time></trkpt><trkpt lat="46.14301054619537" lon="11.788735127668064"><ele>610.0</ele><time>2026-05-02T08:11:52.471Z</time></trkpt><trkpt lat="46.1431437449514" lon="11.789038752341186"><ele>608.0</ele><time>2026-05-02T08:11:53.471Z</time></trkpt><trkpt lat="46.143299656141735" lon="11.78936068703236"><ele>606.0</ele><time>2026-05-02T08:11:54.471Z</time></trkpt><trkpt lat="46.1434615721504" lon="11.789674451790132"><ele>606.0</ele><time>2026-05-02T08:11:55.471Z</time></trkpt><trkpt lat="46.14360688456028" lon="11.789975494888202"><ele>606.0</ele><time>2026-05-02T08:11:56.471Z</time></trkpt><trkpt lat="46.143761631789346" lon="11.79025275066476"><ele>605.6666666666666</ele><time>2026-05-02T08:11:57.471Z</time></trkpt><trkpt lat="46.14387949898217" lon="11.790526527666149"><ele>605.3333333333333</ele><time>2026-05-02T08:11:58.471Z</time></trkpt><trkpt lat="46.144004614056286" lon="11.790776560577445"><ele>605.0</ele><time>2026-05-02T08:11:59.471Z</time></trkpt><trkpt lat="46.14413495664724" lon="11.791038797866927"><ele>605.0</ele><time>2026-05-02T08:12:00.471Z</time></trkpt><trkpt lat="46.14426197110815" lon="11.79129720944323"><ele>605.0</ele><time>2026-05-02T08:12:01.471Z</time></trkpt><trkpt lat="46.14438665873512" lon="11.791545894230644"><ele>605.0</ele><time>2026-05-02T08:12:02.471Z</time></trkpt><trkpt lat="46.144512065138784" lon="11.791798017299392"><ele>606.5</ele><time>2026-05-02T08:12:03.472Z</time></trkpt><trkpt lat="46.144644625792004" lon="11.79206414088397"><ele>608.0</ele><time>2026-05-02T08:12:04.472Z</time></trkpt><trkpt lat="46.14477981428478" lon="11.792333790498855"><ele>607.0</ele><time>2026-05-02T08:12:05.472Z</time></trkpt><trkpt lat="46.1449146523278" lon="11.7926033795521"><ele>606.0</ele><time>2026-05-02T08:12:06.472Z</time></trkpt><trkpt lat="46.14504721351289" lon="11.792870575090243"><ele>606.0</ele><time>2026-05-02T08:12:07.472Z</time></trkpt><trkpt lat="46.14518533296803" lon="11.793148974069519"><ele>606.0</ele><time>2026-05-02T08:12:08.472Z</time></trkpt><trkpt lat="46.14532572019614" lon="11.79343095329112"><ele>607.0</ele><time>2026-05-02T08:12:09.472Z</time></trkpt><trkpt lat="46.1454668599879" lon="11.793714228088527"><ele>608.0</ele><time>2026-05-02T08:12:10.472Z</time></trkpt><trkpt lat="46.14560663802097" lon="11.793993966978912"><ele>609.0</ele><time>2026-05-02T08:12:11.472Z</time></trkpt><trkpt lat="46.14576319986806" lon="11.794257626147035"><ele>610.0</ele><time>2026-05-02T08:12:12.472Z</time></trkpt><trkpt lat="46.14591917206137" lon="11.794527535377373"><ele>610.0</ele><time>2026-05-02T08:12:13.472Z</time></trkpt><trkpt lat="46.1460854379271" lon="11.794803714947966"><ele>610.0</ele><time>2026-05-02T08:12:14.472Z</time></trkpt><trkpt lat="46.14627622843925" lon="11.795040220239786"><ele>610.0</ele><time>2026-05-02T08:12:15.472Z</time></trkpt><trkpt lat="46.14646720608679" lon="11.795264951711996"><ele>610.0</ele><time>2026-05-02T08:12:16.472Z</time></trkpt><trkpt lat="46.14663346455757" lon="11.795481020126566"><ele>610.0</ele><time>2026-05-02T08:12:17.472Z</time></trkpt><trkpt lat="46.14677165676286" lon="11.79569612564389"><ele>610.0</ele><time>2026-05-02T08:12:18.472Z</time></trkpt><trkpt lat="46.14688866352424" lon="11.795898851608262"><ele>610.0</ele><time>2026-05-02T08:12:19.472Z</time></trkpt><trkpt lat="46.1469849586957" lon="11.79609974811982"><ele>611.0</ele><time>2026-05-02T08:12:20.472Z</time></trkpt><trkpt lat="46.147055716202864" lon="11.796281547973217"><ele>612.0</ele><time>2026-05-02T08:12:21.472Z</time></trkpt><trkpt lat="46.147102530610944" lon="11.796421356250207"><ele>613.0</ele><time>2026-05-02T08:12:22.472Z</time></trkpt><trkpt lat="46.14713365599555" lon="11.796592115074429"><ele>614.0</ele><time>2026-05-02T08:12:23.472Z</time></trkpt><trkpt lat="46.14713245724667" lon="11.796757295926211"><ele>614.5</ele><time>2026-05-02T08:12:24.472Z</time></trkpt><trkpt lat="46.14714032276073" lon="11.796905263250748"><ele>615.0</ele><time>2026-05-02T08:12:25.472Z</time></trkpt><trkpt lat="46.14717634165323" lon="11.797075413109908"><ele>615.5</ele><time>2026-05-02T08:12:26.472Z</time></trkpt><trkpt lat="46.14726685103927" lon="11.797180998836913"><ele>616.0</ele><time>2026-05-02T08:12:27.472Z</time></trkpt><trkpt lat="46.14733722449856" lon="11.797349020230337"><ele>616.0</ele><time>2026-05-02T08:12:28.472Z</time></trkpt><trkpt lat="46.14737488431595" lon="11.797561840556897"><ele>616.0</ele><time>2026-05-02T08:12:29.472Z</time></trkpt><trkpt lat="46.147412650189956" lon="11.797799559407158"><ele>616.0</ele><time>2026-05-02T08:12:30.472Z</time></trkpt><trkpt lat="46.147455115947885" lon="11.798042719511647"><ele>616.3333333333334</ele><time>2026-05-02T08:12:31.472Z</time></trkpt><trkpt lat="46.14749124490761" lon="11.79830739014773"><ele>616.6666666666666</ele><time>2026-05-02T08:12:32.472Z</time></trkpt><trkpt lat="46.14749870392395" lon="11.798626750398697"><ele>617.0</ele><time>2026-05-02T08:12:33.472Z</time></trkpt><trkpt lat="46.14750494978051" lon="11.798927617142606"><ele>617.0</ele><time>2026-05-02T08:12:34.472Z</time></trkpt><trkpt lat="46.14751339252361" lon="11.799205715205975"><ele>617.0</ele><time>2026-05-02T08:12:35.472Z</time></trkpt><trkpt lat="46.147530137510685" lon="11.799502891645151"><ele>617.0</ele><time>2026-05-02T08:12:36.472Z</time></trkpt><trkpt lat="46.14755947890828" lon="11.799803191551616"><ele>617.0</ele><time>2026-05-02T08:12:37.472Z</time></trkpt><trkpt lat="46.14759725173309" lon="11.80011848776747"><ele>617.0</ele><time>2026-05-02T08:12:38.472Z</time></trkpt><trkpt lat="46.14765213849086" lon="11.800467259754141"><ele>617.5</ele><time>2026-05-02T08:12:39.472Z</time></trkpt><trkpt lat="46.14771472945192" lon="11.800805467751573"><ele>618.0</ele><time>2026-05-02T08:12:40.472Z</time></trkpt><trkpt lat="46.14776785377565" lon="11.801156833091857"><ele>618.6666666666666</ele><time>2026-05-02T08:12:41.472Z</time></trkpt><trkpt lat="46.14782657145683" lon="11.801476007024046"><ele>619.3333333333333</ele><time>2026-05-02T08:12:42.472Z</time></trkpt><trkpt lat="46.14788445835039" lon="11.801775266921442"><ele>620.0</ele><time>2026-05-02T08:12:43.472Z</time></trkpt><trkpt lat="46.14793281964585" lon="11.80204909557689"><ele>620.3333333333333</ele><time>2026-05-02T08:12:44.472Z</time></trkpt><trkpt lat="46.14799376557896" lon="11.80229431872559"><ele>620.6666666666666</ele><time>2026-05-02T08:12:45.472Z</time></trkpt><trkpt lat="46.14804332565189" lon="11.80252547137869"><ele>621.0</ele><time>2026-05-02T08:12:46.472Z</time></trkpt><trkpt lat="46.148091068711985" lon="11.80274595876647"><ele>621.3333333333334</ele><time>2026-05-02T08:12:47.472Z</time></trkpt><trkpt lat="46.1481480875398" lon="11.80296610675296"><ele>621.6666666666667</ele><time>2026-05-02T08:12:48.472Z</time></trkpt><trkpt lat="46.14821763675917" lon="11.803209955097376"><ele>622.0</ele><time>2026-05-02T08:12:49.472Z</time></trkpt><trkpt lat="46.14827714916735" lon="11.80344829452411"><ele>622.3333333333334</ele><time>2026-05-02T08:12:50.472Z</time></trkpt><trkpt lat="46.14836011132655" lon="11.803671167568378"><ele>622.6666666666666</ele><time>2026-05-02T08:12:51.472Z</time></trkpt><trkpt lat="46.148433513031065" lon="11.80389420475353"><ele>623.0</ele><time>2026-05-02T08:12:52.472Z</time></trkpt><trkpt lat="46.14851460231661" lon="11.804127919793576"><ele>623.3333333333333</ele><time>2026-05-02T08:12:53.472Z</time></trkpt><trkpt lat="46.148579951158176" lon="11.804367310940382"><ele>623.6666666666666</ele><time>2026-05-02T08:12:54.472Z</time></trkpt><trkpt lat="46.148648501977505" lon="11.804596973954594"><ele>624.0</ele><time>2026-05-02T08:12:55.472Z</time></trkpt><trkpt lat="46.148714529787796" lon="11.804840056850068"><ele>624.0</ele><time>2026-05-02T08:12:56.472Z</time></trkpt><trkpt lat="46.148774843460096" lon="11.805084008287455"><ele>624.0</ele><time>2026-05-02T08:12:57.472Z</time></trkpt><trkpt lat="46.14884578936042" lon="11.805323580190336"><ele>624.0</ele><time>2026-05-02T08:12:58.472Z</time></trkpt><trkpt lat="46.14892109736115" lon="11.805562559983962"><ele>625.0</ele><time>2026-05-02T08:12:59.472Z</time></trkpt><trkpt lat="46.14898959100787" lon="11.8058012035052"><ele>626.0</ele><time>2026-05-02T08:13:00.472Z</time></trkpt><trkpt lat="46.1490546063895" lon="11.806033677487248"><ele>627.0</ele><time>2026-05-02T08:13:01.472Z</time></trkpt><trkpt lat="46.149106677856324" lon="11.806264056036293"><ele>627.0</ele><time>2026-05-02T08:13:02.472Z</time></trkpt><trkpt lat="46.14915641145156" lon="11.806438907616105"><ele>627.0</ele><time>2026-05-02T08:13:03.472Z</time></trkpt><trkpt lat="46.149222474282304" lon="11.806613536652765"><ele>627.0</ele><time>2026-05-02T08:13:04.472Z</time></trkpt><trkpt lat="46.14928253667452" lon="11.80677089261202"><ele>627.0</ele><time>2026-05-02T08:13:05.472Z</time></trkpt><trkpt lat="46.14934855685916" lon="11.806915361700717"><ele>626.8000000000001</ele><time>2026-05-02T08:13:06.472Z</time></trkpt><trkpt lat="46.14939143674119" lon="11.807030255581543"><ele>626.6</ele><time>2026-05-02T08:13:07.472Z</time></trkpt><trkpt lat="46.149431470571095" lon="11.807119086228749"><ele>626.4000000000001</ele><time>2026-05-02T08:13:08.472Z</time></trkpt><trkpt lat="46.14948247059898" lon="11.80724034087838"><ele>626.2</ele><time>2026-05-02T08:13:10.472Z</time></trkpt><trkpt lat="46.1495424965651" lon="11.807327163703489"><ele>626.0</ele><time>2026-05-02T08:13:12.472Z</time></trkpt><trkpt lat="46.14960831014161" lon="11.807463987879634"><ele>626.0</ele><time>2026-05-02T08:13:14.472Z</time></trkpt><trkpt lat="46.149626965352" lon="11.807567357536348"><ele>626.0</ele><time>2026-05-02T08:13:15.472Z</time></trkpt><trkpt lat="46.1496605250639" lon="11.807680400884143"><ele>626.0</ele><time>2026-05-02T08:13:16.472Z</time></trkpt><trkpt lat="46.14971557309285" lon="11.80778512226017"><ele>626.0</ele><time>2026-05-02T08:13:17.472Z</time></trkpt><trkpt lat="46.149772223396255" lon="11.807884514675262"><ele>626.0</ele><time>2026-05-02T08:13:18.472Z</time></trkpt><trkpt lat="46.14982856450447" lon="11.80801772630489"><ele>626.0</ele><time>2026-05-02T08:13:19.472Z</time></trkpt><trkpt lat="46.14988916328265" lon="11.808219601742563"><ele>627.0</ele><time>2026-05-02T08:13:20.472Z</time></trkpt><trkpt lat="46.14994345212042" lon="11.808457049811782"><ele>628.0</ele><time>2026-05-02T08:13:21.472Z</time></trkpt><trkpt lat="46.15000335967469" lon="11.808663583492402"><ele>629.0</ele><time>2026-05-02T08:13:22.472Z</time></trkpt><trkpt lat="46.1501016241457" lon="11.808861636518698"><ele>629.0</ele><time>2026-05-02T08:13:23.472Z</time></trkpt><trkpt lat="46.15019275525055" lon="11.809081708605833"><ele>629.0</ele><time>2026-05-02T08:13:24.472Z</time></trkpt><trkpt lat="46.150285768933976" lon="11.809294283123078"><ele>629.0</ele><time>2026-05-02T08:13:25.472Z</time></trkpt><trkpt lat="46.15038174855244" lon="11.809508776917182"><ele>629.0</ele><time>2026-05-02T08:13:26.472Z</time></trkpt><trkpt lat="46.150468581605224" lon="11.809710540205684"><ele>629.0</ele><time>2026-05-02T08:13:27.472Z</time></trkpt><trkpt lat="46.150547109052205" lon="11.809904371197291"><ele>629.0</ele><time>2026-05-02T08:13:28.472Z</time></trkpt><trkpt lat="46.15063698208802" lon="11.810101794426423"><ele>629.75</ele><time>2026-05-02T08:13:29.472Z</time></trkpt><trkpt lat="46.150723637576554" lon="11.810284852958938"><ele>630.5</ele><time>2026-05-02T08:13:30.472Z</time></trkpt><trkpt lat="46.15083673715332" lon="11.810419648296676"><ele>631.25</ele><time>2026-05-02T08:13:31.472Z</time></trkpt><trkpt lat="46.150937660064955" lon="11.810553095400618"><ele>632.0</ele><time>2026-05-02T08:13:32.472Z</time></trkpt><trkpt lat="46.15104110429911" lon="11.810695065936072"><ele>632.0</ele><time>2026-05-02T08:13:33.472Z</time></trkpt><trkpt lat="46.15116713164818" lon="11.810805308657399"><ele>632.0</ele><time>2026-05-02T08:13:34.472Z</time></trkpt><trkpt lat="46.15127040246605" lon="11.810964308736768"><ele>632.0</ele><time>2026-05-02T08:13:35.472Z</time></trkpt><trkpt lat="46.151383025833354" lon="11.81109309303666"><ele>632.0</ele><time>2026-05-02T08:13:36.472Z</time></trkpt><trkpt lat="46.151486532421295" lon="11.811212767765255"><ele>632.75</ele><time>2026-05-02T08:13:37.472Z</time></trkpt><trkpt lat="46.15160246698968" lon="11.811316570170455"><ele>633.5</ele><time>2026-05-02T08:13:38.472Z</time></trkpt><trkpt lat="46.15170183663916" lon="11.811428262861055"><ele>634.25</ele><time>2026-05-02T08:13:39.472Z</time></trkpt><trkpt lat="46.15180174859044" lon="11.811553593740493"><ele>635.0</ele><time>2026-05-02T08:13:40.472Z</time></trkpt><trkpt lat="46.151916773613" lon="11.811686230370249"><ele>635.0</ele><time>2026-05-02T08:13:41.472Z</time></trkpt><trkpt lat="46.15205324488841" lon="11.811811944549062"><ele>635.0</ele><time>2026-05-02T08:13:42.472Z</time></trkpt><trkpt lat="46.15219713267178" lon="11.811934675846784"><ele>635.0</ele><time>2026-05-02T08:13:43.472Z</time></trkpt><trkpt lat="46.152360941514566" lon="11.812075127614396"><ele>635.0</ele><time>2026-05-02T08:13:44.472Z</time></trkpt><trkpt lat="46.152535854424876" lon="11.812219510971088"><ele>635.0</ele><time>2026-05-02T08:13:45.472Z</time></trkpt><trkpt lat="46.15271192214381" lon="11.812375634013158"><ele>635.0</ele><time>2026-05-02T08:13:46.472Z</time></trkpt><trkpt lat="46.15287778596478" lon="11.812514300120064"><ele>635.0</ele><time>2026-05-02T08:13:47.472Z</time></trkpt><trkpt lat="46.15304287094659" lon="11.812641993994527"><ele>635.0</ele><time>2026-05-02T08:13:48.472Z</time></trkpt><trkpt lat="46.15320757500141" lon="11.812752722377681"><ele>635.0</ele><time>2026-05-02T08:13:49.472Z</time></trkpt><trkpt lat="46.15336923993733" lon="11.812866364533113"><ele>636.3333333333333</ele><time>2026-05-02T08:13:50.472Z</time></trkpt><trkpt lat="46.15352731111696" lon="11.812992583677786"><ele>637.6666666666666</ele><time>2026-05-02T08:13:51.472Z</time></trkpt><trkpt lat="46.15370584596346" lon="11.813064614831845"><ele>639.0</ele><time>2026-05-02T08:13:52.472Z</time></trkpt><trkpt lat="46.15388822755592" lon="11.813167953738445"><ele>639.6666666666666</ele><time>2026-05-02T08:13:53.472Z</time></trkpt><trkpt lat="46.154067868223514" lon="11.8132851689497"><ele>640.3333333333333</ele><time>2026-05-02T08:13:54.472Z</time></trkpt><trkpt lat="46.15423906258626" lon="11.813381343064878"><ele>641.0</ele><time>2026-05-02T08:13:55.472Z</time></trkpt><trkpt lat="46.15442592878416" lon="11.813463701657653"><ele>641.6666666666666</ele><time>2026-05-02T08:13:56.472Z</time></trkpt><trkpt lat="46.15460212907697" lon="11.813545799299833"><ele>642.3333333333334</ele><time>2026-05-02T08:13:57.472Z</time></trkpt><trkpt lat="46.15477219873441" lon="11.813605456576404"><ele>643.0</ele><time>2026-05-02T08:13:58.472Z</time></trkpt><trkpt lat="46.15495330090074" lon="11.813701229299724"><ele>643.0</ele><time>2026-05-02T08:13:59.472Z</time></trkpt><trkpt lat="46.1551076130153" lon="11.813773460406159"><ele>643.0</ele><time>2026-05-02T08:14:00.472Z</time></trkpt><trkpt lat="46.15525296246308" lon="11.81384949091491"><ele>643.0</ele><time>2026-05-02T08:14:01.472Z</time></trkpt><trkpt lat="46.15537982710167" lon="11.81393080503292"><ele>643.0</ele><time>2026-05-02T08:14:02.472Z</time></trkpt><trkpt lat="46.15549911247931" lon="11.814013851514643"><ele>643.0</ele><time>2026-05-02T08:14:03.472Z</time></trkpt><trkpt lat="46.1555821624354" lon="11.814073419333358"><ele>643.0</ele><time>2026-05-02T08:14:04.472Z</time></trkpt><trkpt lat="46.15566340644673" lon="11.814127236190247"><ele>643.0</ele><time>2026-05-02T08:14:05.472Z</time></trkpt><trkpt lat="46.155751065938894" lon="11.81416506936511"><ele>643.0</ele><time>2026-05-02T08:14:06.472Z</time></trkpt><trkpt lat="46.155858679997955" lon="11.81425663813641"><ele>644.0</ele><time>2026-05-02T08:14:07.472Z</time></trkpt><trkpt lat="46.155967117816736" lon="11.81434520107922"><ele>645.0</ele><time>2026-05-02T08:14:08.472Z</time></trkpt><trkpt lat="46.15607826561345" lon="11.8144268568181"><ele>646.0</ele><time>2026-05-02T08:14:09.473Z</time></trkpt><trkpt lat="46.15616904023904" lon="11.814590107881394"><ele>647.0</ele><time>2026-05-02T08:14:10.473Z</time></trkpt><trkpt lat="46.156258808632856" lon="11.814723990928144"><ele>647.0</ele><time>2026-05-02T08:14:11.473Z</time></trkpt><trkpt lat="46.15634167398999" lon="11.81489268833618"><ele>647.0</ele><time>2026-05-02T08:14:12.473Z</time></trkpt><trkpt lat="46.15642203143207" lon="11.815056898957776"><ele>647.0</ele><time>2026-05-02T08:14:13.473Z</time></trkpt><trkpt lat="46.15654649045365" lon="11.815260086515675"><ele>650.0</ele><time>2026-05-02T08:14:14.473Z</time></trkpt><trkpt lat="46.15662270238695" lon="11.815570089520762"><ele>653.0</ele><time>2026-05-02T08:14:15.473Z</time></trkpt><trkpt lat="46.156753180749995" lon="11.815840983018767"><ele>656.5</ele><time>2026-05-02T08:14:16.473Z</time></trkpt><trkpt lat="46.15687866163162" lon="11.816130479915412"><ele>660.0</ele><time>2026-05-02T08:14:17.473Z</time></trkpt><trkpt lat="46.15701011551933" lon="11.816394319885083"><ele>660.0</ele><time>2026-05-02T08:14:18.473Z</time></trkpt><trkpt lat="46.15712771309324" lon="11.816668229913128"><ele>660.0</ele><time>2026-05-02T08:14:19.473Z</time></trkpt><trkpt lat="46.157229854346504" lon="11.816912948858945"><ele>660.0</ele><time>2026-05-02T08:14:20.473Z</time></trkpt><trkpt lat="46.157322306691704" lon="11.817142470820238"><ele>660.0</ele><time>2026-05-02T08:14:21.473Z</time></trkpt><trkpt lat="46.157428050425914" lon="11.81734005989834"><ele>660.0</ele><time>2026-05-02T08:14:22.473Z</time></trkpt><trkpt lat="46.157544828818395" lon="11.81751506607938"><ele>660.0</ele><time>2026-05-02T08:14:23.473Z</time></trkpt><trkpt lat="46.15768912676419" lon="11.817689918866565"><ele>660.0</ele><time>2026-05-02T08:14:24.473Z</time></trkpt><trkpt lat="46.15784599329098" lon="11.817838851947299"><ele>660.0</ele><time>2026-05-02T08:14:25.473Z</time></trkpt><trkpt lat="46.15800894228509" lon="11.8179831648787"><ele>660.0</ele><time>2026-05-02T08:14:26.473Z</time></trkpt><trkpt lat="46.15818616266782" lon="11.818140116982581"><ele>659.0</ele><time>2026-05-02T08:14:27.473Z</time></trkpt><trkpt lat="46.15838368980317" lon="11.81831506513293"><ele>658.0</ele><time>2026-05-02T08:14:28.473Z</time></trkpt><trkpt lat="46.15857801111995" lon="11.818488181518683"><ele>658.0</ele><time>2026-05-02T08:14:29.473Z</time></trkpt><trkpt lat="46.15874801203337" lon="11.81863963146997"><ele>658.0</ele><time>2026-05-02T08:14:30.473Z</time></trkpt><trkpt lat="46.15891237149638" lon="11.818786055528575"><ele>658.0</ele><time>2026-05-02T08:14:31.473Z</time></trkpt><trkpt lat="46.159073126257276" lon="11.818929268222906"><ele>659.5</ele><time>2026-05-02T08:14:32.473Z</time></trkpt><trkpt lat="46.15919901245808" lon="11.819041452572302"><ele>661.0</ele><time>2026-05-02T08:14:33.473Z</time></trkpt><trkpt lat="46.15930743956037" lon="11.81913809548722"><ele>662.5</ele><time>2026-05-02T08:14:34.473Z</time></trkpt><trkpt lat="46.159400283911665" lon="11.819220849290824"><ele>664.0</ele><time>2026-05-02T08:14:35.473Z</time></trkpt><trkpt lat="46.15948477599308" lon="11.81929615853396"><ele>664.8000000000001</ele><time>2026-05-02T08:14:36.473Z</time></trkpt><trkpt lat="46.159577085315966" lon="11.819378435430332"><ele>665.6</ele><time>2026-05-02T08:14:37.473Z</time></trkpt><trkpt lat="46.15967387710073" lon="11.81946470764497"><ele>666.4</ele><time>2026-05-02T08:14:38.473Z</time></trkpt><trkpt lat="46.159761865222286" lon="11.819543132948937"><ele>667.2</ele><time>2026-05-02T08:14:39.473Z</time></trkpt><trkpt lat="46.15985918305139" lon="11.819629782319506"><ele>668.0</ele><time>2026-05-02T08:14:40.473Z</time></trkpt><trkpt lat="46.159961484047216" lon="11.819720825905893"><ele>668.0</ele><time>2026-05-02T08:14:41.473Z</time></trkpt><trkpt lat="46.1600751498561" lon="11.819796674154404"><ele>668.0</ele><time>2026-05-02T08:14:42.473Z</time></trkpt><trkpt lat="46.160185079151226" lon="11.819919816115657"><ele>668.0</ele><time>2026-05-02T08:14:43.473Z</time></trkpt><trkpt lat="46.16029913753866" lon="11.820021275431797"><ele>668.0</ele><time>2026-05-02T08:14:44.473Z</time></trkpt><trkpt lat="46.16039578878483" lon="11.820106722447091"><ele>667.8</ele><time>2026-05-02T08:14:45.473Z</time></trkpt><trkpt lat="46.16048910528457" lon="11.820171458550538"><ele>667.5999999999999</ele><time>2026-05-02T08:14:46.473Z</time></trkpt><trkpt lat="46.16055975857983" lon="11.820255559703677"><ele>667.4000000000001</ele><time>2026-05-02T08:14:47.473Z</time></trkpt><trkpt lat="46.160625094105086" lon="11.820328773708741"><ele>667.2</ele><time>2026-05-02T08:14:48.473Z</time></trkpt><trkpt lat="46.16071602152697" lon="11.820405207530523"><ele>667.0</ele><time>2026-05-02T08:14:50.473Z</time></trkpt><trkpt lat="46.16078802774663" lon="11.820447857224483"><ele>667.0000000000001</ele><time>2026-05-02T08:14:52.473Z</time></trkpt><trkpt lat="46.16089603724374" lon="11.82045017304986"><ele>667.0</ele><time>2026-05-02T08:14:54.473Z</time></trkpt><trkpt lat="46.1609458238123" lon="11.820535295191487"><ele>667.0</ele><time>2026-05-02T08:14:57.473Z</time></trkpt><trkpt lat="46.16093695128274" lon="11.820628870081809"><ele>667.0</ele><time>2026-05-02T08:14:59.473Z</time></trkpt><trkpt lat="46.16089383112432" lon="11.820697885952073"><ele>667.0</ele><time>2026-05-02T08:17:58.474Z</time></trkpt><trkpt lat="46.16087752769635" lon="11.82078740039013"><ele>667.0000000000001</ele><time>2026-05-02T08:18:04.474Z</time></trkpt><trkpt lat="46.160823139536234" lon="11.820848372688106"><ele>667.0</ele><time>2026-05-02T08:18:10.474Z</time></trkpt><trkpt lat="46.16076023052294" lon="11.820828617333484"><ele>667.0</ele><time>2026-05-02T08:18:15.474Z</time></trkpt><trkpt lat="46.16069188631541" lon="11.820810540134026"><ele>667.0</ele><time>2026-05-02T08:18:20.474Z</time></trkpt><trkpt lat="46.16074685972523" lon="11.820863640172712"><ele>667.0</ele><time>2026-05-02T08:18:58.475Z</time></trkpt><trkpt lat="46.1608189514099" lon="11.820897602250724"><ele>667.0</ele><time>2026-05-02T08:19:06.475Z</time></trkpt><trkpt lat="46.160869883977675" lon="11.820818114769338"><ele>667.0</ele><time>2026-05-02T08:19:16.475Z</time></trkpt><trkpt lat="46.16092146754436" lon="11.820725238854235"><ele>667.0</ele><time>2026-05-02T08:19:20.475Z</time></trkpt><trkpt lat="46.16098506626022" lon="11.820646648827285"><ele>667.0</ele><time>2026-05-02T08:23:39.475Z</time></trkpt><trkpt lat="46.161097561223876" lon="11.820592548002363"><ele>667.0</ele><time>2026-05-02T08:29:52.477Z</time></trkpt><trkpt lat="46.16119432475895" lon="11.820604745249167"><ele>667.0</ele><time>2026-05-02T08:29:53.477Z</time></trkpt><trkpt lat="46.16134807462997" lon="11.820623130023725"><ele>667.0</ele><time>2026-05-02T08:29:54.477Z</time></trkpt><trkpt lat="46.16146763219434" lon="11.820683379970243"><ele>669.75</ele><time>2026-05-02T08:29:55.477Z</time></trkpt><trkpt lat="46.16159427521881" lon="11.820727643480865"><ele>672.5</ele><time>2026-05-02T08:29:56.477Z</time></trkpt><trkpt lat="46.16174717545908" lon="11.820751946803309"><ele>675.25</ele><time>2026-05-02T08:29:57.477Z</time></trkpt><trkpt lat="46.16189356326393" lon="11.820771139325327"><ele>678.0</ele><time>2026-05-02T08:29:58.477Z</time></trkpt><trkpt lat="46.16202469120891" lon="11.820782676209763"><ele>678.0</ele><time>2026-05-02T08:29:59.477Z</time></trkpt><trkpt lat="46.162154212403316" lon="11.820807119931752"><ele>678.0</ele><time>2026-05-02T08:30:00.477Z</time></trkpt><trkpt lat="46.1622563991952" lon="11.820846763096778"><ele>678.0</ele><time>2026-05-02T08:30:01.477Z</time></trkpt><trkpt lat="46.16238216925069" lon="11.820870135526977"><ele>678.0</ele><time>2026-05-02T08:30:02.477Z</time></trkpt><trkpt lat="46.16251792285115" lon="11.820897007065275"><ele>679.0</ele><time>2026-05-02T08:30:03.477Z</time></trkpt><trkpt lat="46.16264785321935" lon="11.820916258149603"><ele>680.0</ele><time>2026-05-02T08:30:04.477Z</time></trkpt><trkpt lat="46.162784993071625" lon="11.820944561367458"><ele>681.0</ele><time>2026-05-02T08:30:05.477Z</time></trkpt><trkpt lat="46.162905433559835" lon="11.820969800524958"><ele>682.0</ele><time>2026-05-02T08:30:06.477Z</time></trkpt><trkpt lat="46.16303356210942" lon="11.820986011944655"><ele>682.5</ele><time>2026-05-02T08:30:07.477Z</time></trkpt><trkpt lat="46.163144992749935" lon="11.821020177330807"><ele>683.0</ele><time>2026-05-02T08:30:08.477Z</time></trkpt><trkpt lat="46.1632613174428" lon="11.821048528710573"><ele>683.5</ele><time>2026-05-02T08:30:09.477Z</time></trkpt><trkpt lat="46.16338502536551" lon="11.82106733822739"><ele>684.0</ele><time>2026-05-02T08:30:10.477Z</time></trkpt><trkpt lat="46.163512176258" lon="11.821092621985292"><ele>682.6666666666666</ele><time>2026-05-02T08:30:11.477Z</time></trkpt><trkpt lat="46.163661461373145" lon="11.821088988947787"><ele>681.3333333333333</ele><time>2026-05-02T08:30:12.477Z</time></trkpt><trkpt lat="46.16385211071185" lon="11.821116563020576"><ele>680.0</ele><time>2026-05-02T08:30:13.477Z</time></trkpt><trkpt lat="46.16402530735552" lon="11.821143576610202"><ele>681.0</ele><time>2026-05-02T08:30:14.477Z</time></trkpt><trkpt lat="46.16423731187144" lon="11.82114864561356"><ele>682.0</ele><time>2026-05-02T08:30:15.477Z</time></trkpt><trkpt lat="46.16446554169171" lon="11.821173032942873"><ele>683.0</ele><time>2026-05-02T08:30:16.477Z</time></trkpt><trkpt lat="46.16466352390895" lon="11.821214179313001"><ele>683.0</ele><time>2026-05-02T08:30:17.477Z</time></trkpt><trkpt lat="46.16485374783418" lon="11.821239900247674"><ele>683.0</ele><time>2026-05-02T08:30:18.477Z</time></trkpt><trkpt lat="46.165036211262304" lon="11.821263745974907"><ele>683.0</ele><time>2026-05-02T08:30:19.477Z</time></trkpt><trkpt lat="46.1652037826314" lon="11.821272784545846"><ele>683.6666666666666</ele><time>2026-05-02T08:30:20.477Z</time></trkpt><trkpt lat="46.165371261505385" lon="11.8213103220124"><ele>684.3333333333334</ele><time>2026-05-02T08:30:21.477Z</time></trkpt><trkpt lat="46.165562703876496" lon="11.821316449669501"><ele>685.0</ele><time>2026-05-02T08:30:22.477Z</time></trkpt><trkpt lat="46.16574731531129" lon="11.821331888986837"><ele>685.0</ele><time>2026-05-02T08:30:23.477Z</time></trkpt><trkpt lat="46.16593846576188" lon="11.82136013986323"><ele>685.0</ele><time>2026-05-02T08:30:24.477Z</time></trkpt><trkpt lat="46.16613657225647" lon="11.82139670021937"><ele>685.0</ele><time>2026-05-02T08:30:25.477Z</time></trkpt><trkpt lat="46.16633397566683" lon="11.821396747735667"><ele>685.6666666666667</ele><time>2026-05-02T08:30:26.477Z</time></trkpt><trkpt lat="46.16653084790726" lon="11.821426417943224"><ele>686.3333333333334</ele><time>2026-05-02T08:30:27.477Z</time></trkpt><trkpt lat="46.166714191773984" lon="11.82144566195727"><ele>687.0</ele><time>2026-05-02T08:30:28.477Z</time></trkpt><trkpt lat="46.16688634772596" lon="11.821478435222309"><ele>687.0</ele><time>2026-05-02T08:30:29.477Z</time></trkpt><trkpt lat="46.16706469055532" lon="11.821503366599773"><ele>687.0</ele><time>2026-05-02T08:30:30.477Z</time></trkpt><trkpt lat="46.16725590398611" lon="11.8215266028518"><ele>687.0</ele><time>2026-05-02T08:30:31.477Z</time></trkpt><trkpt lat="46.16744108935016" lon="11.8215457560567"><ele>688.0</ele><time>2026-05-02T08:30:32.477Z</time></trkpt><trkpt lat="46.16761663119154" lon="11.82155666882716"><ele>689.0</ele><time>2026-05-02T08:30:33.477Z</time></trkpt><trkpt lat="46.167791637493785" lon="11.821600231251342"><ele>690.0</ele><time>2026-05-02T08:30:34.477Z</time></trkpt><trkpt lat="46.167959406778714" lon="11.821621168186148"><ele>690.0</ele><time>2026-05-02T08:30:35.477Z</time></trkpt><trkpt lat="46.16812907562302" lon="11.821642975754763"><ele>690.0</ele><time>2026-05-02T08:30:36.477Z</time></trkpt><trkpt lat="46.16830884067706" lon="11.821635579253437"><ele>690.0</ele><time>2026-05-02T08:30:37.477Z</time></trkpt><trkpt lat="46.168507599382856" lon="11.8216799727065"><ele>689.6666666666666</ele><time>2026-05-02T08:30:38.477Z</time></trkpt><trkpt lat="46.16871019514743" lon="11.821727289700325"><ele>689.3333333333333</ele><time>2026-05-02T08:30:39.477Z</time></trkpt><trkpt lat="46.16889046031" lon="11.821773037644888"><ele>689.0</ele><time>2026-05-02T08:30:40.477Z</time></trkpt><trkpt lat="46.16906579783268" lon="11.821838520645157"><ele>689.0</ele><time>2026-05-02T08:30:41.477Z</time></trkpt><trkpt lat="46.169253648097296" lon="11.821923183998615"><ele>689.0</ele><time>2026-05-02T08:30:42.477Z</time></trkpt><trkpt lat="46.16944133897122" lon="11.821982382177291"><ele>689.0</ele><time>2026-05-02T08:30:43.477Z</time></trkpt><trkpt lat="46.169618938615734" lon="11.822037994901551"><ele>689.0</ele><time>2026-05-02T08:30:44.477Z</time></trkpt><trkpt lat="46.16979507765638" lon="11.822094407710946"><ele>689.0</ele><time>2026-05-02T08:30:45.477Z</time></trkpt><trkpt lat="46.169960115721906" lon="11.822184590133869"><ele>689.0</ele><time>2026-05-02T08:30:46.477Z</time></trkpt><trkpt lat="46.170128811024846" lon="11.822258673787308"><ele>689.75</ele><time>2026-05-02T08:30:47.477Z</time></trkpt><trkpt lat="46.17025821735073" lon="11.822392110668165"><ele>690.5</ele><time>2026-05-02T08:30:48.477Z</time></trkpt><trkpt lat="46.1703738954422" lon="11.822508455919523"><ele>691.25</ele><time>2026-05-02T08:30:49.477Z</time></trkpt><trkpt lat="46.17045607755039" lon="11.822614734063528"><ele>692.0</ele><time>2026-05-02T08:30:50.477Z</time></trkpt><trkpt lat="46.17049653202581" lon="11.822689616359575"><ele>692.0</ele><time>2026-05-02T08:30:51.477Z</time></trkpt><trkpt lat="46.17052017573433" lon="11.822784916752205"><ele>692.0</ele><time>2026-05-02T08:30:52.477Z</time></trkpt><trkpt lat="46.17052740709856" lon="11.822914540739044"><ele>692.0</ele><time>2026-05-02T08:30:53.477Z</time></trkpt><trkpt lat="46.17051608810727" lon="11.823056455214186"><ele>692.0</ele><time>2026-05-02T08:30:54.477Z</time></trkpt><trkpt lat="46.17050470223355" lon="11.823189195376584"><ele>692.0</ele><time>2026-05-02T08:30:55.477Z</time></trkpt><trkpt lat="46.1705180539417" lon="11.823291501958359"><ele>692.0</ele><time>2026-05-02T08:30:56.477Z</time></trkpt><trkpt lat="46.17055758512252" lon="11.823367661828568"><ele>692.0</ele><time>2026-05-02T08:30:57.477Z</time></trkpt><trkpt lat="46.17066715221412" lon="11.82338941119617"><ele>692.0</ele><time>2026-05-02T08:30:59.477Z</time></trkpt><trkpt lat="46.1707419250744" lon="11.823328105773903"><ele>692.0</ele><time>2026-05-02T08:31:00.477Z</time></trkpt><trkpt lat="46.17080820261833" lon="11.823315321783758"><ele>692.0</ele><time>2026-05-02T08:31:01.477Z</time></trkpt><trkpt lat="46.17088009469745" lon="11.823328670933474"><ele>692.0</ele><time>2026-05-02T08:31:02.477Z</time></trkpt><trkpt lat="46.17094921512035" lon="11.82338263637078"><ele>692.0</ele><time>2026-05-02T08:31:03.477Z</time></trkpt><trkpt lat="46.17103253198233" lon="11.823481125697906"><ele>692.4000000000001</ele><time>2026-05-02T08:31:05.477Z</time></trkpt><trkpt lat="46.17112429419214" lon="11.823613889959729"><ele>692.8000000000001</ele><time>2026-05-02T08:31:07.477Z</time></trkpt><trkpt lat="46.17121011345595" lon="11.823741158042282"><ele>693.2</ele><time>2026-05-02T08:31:09.477Z</time></trkpt><trkpt lat="46.17123156892405" lon="11.823855012405426"><ele>693.6</ele><time>2026-05-02T08:31:10.477Z</time></trkpt><trkpt lat="46.171283186618695" lon="11.823992753460535"><ele>694.0</ele><time>2026-05-02T08:31:11.477Z</time></trkpt><trkpt lat="46.17134862715778" lon="11.82418761442934"><ele>694.5</ele><time>2026-05-02T08:31:12.477Z</time></trkpt><trkpt lat="46.17140082050744" lon="11.824412804064188"><ele>695.0</ele><time>2026-05-02T08:31:13.477Z</time></trkpt><trkpt lat="46.171440639163926" lon="11.82462095094525"><ele>695.5</ele><time>2026-05-02T08:31:14.477Z</time></trkpt><trkpt lat="46.17148255413569" lon="11.82479733271522"><ele>696.0</ele><time>2026-05-02T08:31:15.477Z</time></trkpt><trkpt lat="46.17150424694976" lon="11.824972202727208"><ele>697.5</ele><time>2026-05-02T08:31:16.477Z</time></trkpt><trkpt lat="46.17152932557488" lon="11.825125793852695"><ele>699.0</ele><time>2026-05-02T08:31:17.477Z</time></trkpt><trkpt lat="46.17155977331475" lon="11.825269413101145"><ele>700.5</ele><time>2026-05-02T08:31:18.477Z</time></trkpt><trkpt lat="46.17158989858504" lon="11.825438618522488"><ele>702.0</ele><time>2026-05-02T08:31:19.477Z</time></trkpt><trkpt lat="46.17164173976746" lon="11.825604825068094"><ele>702.0</ele><time>2026-05-02T08:31:20.477Z</time></trkpt><trkpt lat="46.171710253309584" lon="11.825787637042184"><ele>702.0</ele><time>2026-05-02T08:31:21.477Z</time></trkpt><trkpt lat="46.171796895589424" lon="11.825973937963498"><ele>702.0</ele><time>2026-05-02T08:31:22.477Z</time></trkpt><trkpt lat="46.171888093826695" lon="11.826126653248117"><ele>702.0</ele><time>2026-05-02T08:31:23.477Z</time></trkpt><trkpt lat="46.17201451948113" lon="11.826252378239062"><ele>702.3333333333334</ele><time>2026-05-02T08:31:24.477Z</time></trkpt><trkpt lat="46.17215858051691" lon="11.826346894711682"><ele>702.6666666666667</ele><time>2026-05-02T08:31:25.477Z</time></trkpt><trkpt lat="46.172325381925255" lon="11.826389504758636"><ele>703.0</ele><time>2026-05-02T08:31:26.477Z</time></trkpt><trkpt lat="46.172469057299345" lon="11.826447863041084"><ele>703.0</ele><time>2026-05-02T08:31:27.477Z</time></trkpt><trkpt lat="46.17259463915102" lon="11.826512717878161"><ele>703.0</ele><time>2026-05-02T08:31:28.477Z</time></trkpt><trkpt lat="46.17271963367261" lon="11.826538910053097"><ele>703.0</ele><time>2026-05-02T08:31:29.477Z</time></trkpt><trkpt lat="46.17279894129253" lon="11.826629829060302"><ele>703.0</ele><time>2026-05-02T08:31:30.477Z</time></trkpt><trkpt lat="46.172883040843374" lon="11.826659288115879"><ele>703.0</ele><time>2026-05-02T08:31:31.477Z</time></trkpt><trkpt lat="46.17296228217614" lon="11.826726775478496"><ele>703.0</ele><time>2026-05-02T08:31:32.477Z</time></trkpt><trkpt lat="46.173061313116385" lon="11.82678555250048"><ele>703.0</ele><time>2026-05-02T08:31:33.477Z</time></trkpt><trkpt lat="46.173162956542726" lon="11.826845323718603"><ele>703.0</ele><time>2026-05-02T08:31:34.477Z</time></trkpt><trkpt lat="46.17327283684807" lon="11.826896751325414"><ele>703.0</ele><time>2026-05-02T08:31:35.477Z</time></trkpt><trkpt lat="46.173365495704864" lon="11.826948476723334"><ele>703.0</ele><time>2026-05-02T08:31:36.477Z</time></trkpt><trkpt lat="46.173444083753466" lon="11.826993614267106"><ele>703.1666666666667</ele><time>2026-05-02T08:31:37.477Z</time></trkpt><trkpt lat="46.17352802296413" lon="11.827059390103505"><ele>703.3333333333334</ele><time>2026-05-02T08:31:38.477Z</time></trkpt><trkpt lat="46.17360952406189" lon="11.827107180455654"><ele>703.5</ele><time>2026-05-02T08:31:39.477Z</time></trkpt><trkpt lat="46.173681406566004" lon="11.8271497078223"><ele>703.6666666666666</ele><time>2026-05-02T08:31:40.477Z</time></trkpt><trkpt lat="46.17376616105958" lon="11.82717558258498"><ele>703.8333333333333</ele><time>2026-05-02T08:31:41.477Z</time></trkpt><trkpt lat="46.17383693140743" lon="11.827241769018878"><ele>704.0</ele><time>2026-05-02T08:31:42.477Z</time></trkpt><trkpt lat="46.17392534427476" lon="11.827277396558754"><ele>704.0</ele><time>2026-05-02T08:31:43.477Z</time></trkpt><trkpt lat="46.174019627418424" lon="11.827336088304948"><ele>704.0</ele><time>2026-05-02T08:31:44.477Z</time></trkpt><trkpt lat="46.17411192608107" lon="11.827401531698046"><ele>704.0</ele><time>2026-05-02T08:31:45.477Z</time></trkpt><trkpt lat="46.174197175550525" lon="11.827475765246131"><ele>704.0</ele><time>2026-05-02T08:31:46.477Z</time></trkpt><trkpt lat="46.1742974498055" lon="11.827500417896623"><ele>704.0</ele><time>2026-05-02T08:31:47.477Z</time></trkpt><trkpt lat="46.17437272864402" lon="11.827554826071419"><ele>704.5</ele><time>2026-05-02T08:31:48.477Z</time></trkpt><trkpt lat="46.1744390955537" lon="11.82761160769577"><ele>705.0</ele><time>2026-05-02T08:31:49.477Z</time></trkpt><trkpt lat="46.17451792892697" lon="11.827640421995955"><ele>705.5</ele><time>2026-05-02T08:31:50.477Z</time></trkpt><trkpt lat="46.1745983263103" lon="11.827699904726003"><ele>706.0</ele><time>2026-05-02T08:31:51.477Z</time></trkpt><trkpt lat="46.174661550479385" lon="11.827759342669335"><ele>706.5</ele><time>2026-05-02T08:31:52.477Z</time></trkpt><trkpt lat="46.17475293694613" lon="11.82778782954891"><ele>707.0</ele><time>2026-05-02T08:31:53.477Z</time></trkpt><trkpt lat="46.1748257339084" lon="11.827837664292453"><ele>707.6666666666666</ele><time>2026-05-02T08:31:54.477Z</time></trkpt><trkpt lat="46.174897479417055" lon="11.827882688176043"><ele>708.3333333333333</ele><time>2026-05-02T08:31:55.477Z</time></trkpt><trkpt lat="46.17497629816682" lon="11.827925595467939"><ele>709.0</ele><time>2026-05-02T08:31:56.477Z</time></trkpt><trkpt lat="46.17505103165515" lon="11.827983382322806"><ele>709.6666666666666</ele><time>2026-05-02T08:31:57.477Z</time></trkpt><trkpt lat="46.17515926053459" lon="11.828022197999688"><ele>710.3333333333334</ele><time>2026-05-02T08:31:59.477Z</time></trkpt><trkpt lat="46.1752344669233" lon="11.82807324782443"><ele>711.0</ele><time>2026-05-02T08:32:01.477Z</time></trkpt><trkpt lat="46.17531645695042" lon="11.828129392287066"><ele>711.0</ele><time>2026-05-02T08:32:03.477Z</time></trkpt><trkpt lat="46.17540473765568" lon="11.82816189593343"><ele>711.0</ele><time>2026-05-02T08:32:05.477Z</time></trkpt><trkpt lat="46.17549449293832" lon="11.828237168274294"><ele>711.0</ele><time>2026-05-02T08:32:07.477Z</time></trkpt><trkpt lat="46.175560523652194" lon="11.828310560627443"><ele>711.0</ele><time>2026-05-02T08:32:08.477Z</time></trkpt><trkpt lat="46.17556695477773" lon="11.828433910446257"><ele>711.0</ele><time>2026-05-02T08:32:09.477Z</time></trkpt><trkpt lat="46.175608274324745" lon="11.82860089674733"><ele>711.1999999999999</ele><time>2026-05-02T08:32:11.477Z</time></trkpt><trkpt lat="46.17564197219453" lon="11.82876524915457"><ele>711.4</ele><time>2026-05-02T08:32:13.477Z</time></trkpt><trkpt lat="46.1756650577982" lon="11.82890581728818"><ele>711.6</ele><time>2026-05-02T08:32:15.477Z</time></trkpt><trkpt lat="46.17569090228706" lon="11.829036897619044"><ele>711.8</ele><time>2026-05-02T08:32:17.477Z</time></trkpt><trkpt lat="46.17571460674574" lon="11.829184180136977"><ele>712.0</ele><time>2026-05-02T08:32:19.477Z</time></trkpt><trkpt lat="46.17573808451661" lon="11.829348989324213"><ele>712.6</ele><time>2026-05-02T08:32:21.477Z</time></trkpt><trkpt lat="46.17573543809421" lon="11.829491887879858"><ele>713.2</ele><time>2026-05-02T08:32:23.477Z</time></trkpt><trkpt lat="46.17572836328243" lon="11.829635314608925"><ele>713.8</ele><time>2026-05-02T08:32:25.477Z</time></trkpt><trkpt lat="46.175722065976544" lon="11.829771928899433"><ele>714.4</ele><time>2026-05-02T08:32:27.477Z</time></trkpt><trkpt lat="46.1757113614757" lon="11.829951244740318"><ele>715.0</ele><time>2026-05-02T08:32:29.477Z</time></trkpt><trkpt lat="46.17570550078661" lon="11.830052192496142"><ele>714.6</ele><time>2026-05-02T08:32:30.477Z</time></trkpt><trkpt lat="46.17569671336253" lon="11.83016053080161"><ele>714.2</ele><time>2026-05-02T08:32:31.477Z</time></trkpt><trkpt lat="46.175648079112484" lon="11.830260388356216"><ele>713.8</ele><time>2026-05-02T08:32:32.477Z</time></trkpt><trkpt lat="46.175671722478405" lon="11.830426365998086"><ele>713.4</ele><time>2026-05-02T08:32:34.477Z</time></trkpt><trkpt lat="46.17577288130561" lon="11.830553285364054"><ele>713.0</ele><time>2026-05-02T08:32:36.477Z</time></trkpt><trkpt lat="46.175854784120176" lon="11.83053962310956"><ele>713.0</ele><time>2026-05-02T08:32:37.477Z</time></trkpt><trkpt lat="46.175967875511546" lon="11.830544359717278"><ele>713.0</ele><time>2026-05-02T08:32:39.477Z</time></trkpt><trkpt lat="46.176071380272965" lon="11.830549149432374"><ele>713.0</ele><time>2026-05-02T08:32:41.477Z</time></trkpt><trkpt lat="46.17616625344015" lon="11.830541538306107"><ele>713.0</ele><time>2026-05-02T08:32:43.477Z</time></trkpt><trkpt lat="46.176237411964536" lon="11.830550384989643"><ele>713.0</ele><time>2026-05-02T08:32:45.477Z</time></trkpt><trkpt lat="46.1763034906527" lon="11.830561138507832"><ele>713.0</ele><time>2026-05-02T08:32:47.477Z</time></trkpt><trkpt lat="46.17640583091012" lon="11.83055600412197"><ele>713.0</ele><time>2026-05-02T08:32:49.477Z</time></trkpt><trkpt lat="46.17650037122493" lon="11.83056116831641"><ele>713.0</ele><time>2026-05-02T08:32:51.477Z</time></trkpt><trkpt lat="46.176598719184824" lon="11.830571746811788"><ele>713.0</ele><time>2026-05-02T08:32:53.477Z</time></trkpt><trkpt lat="46.17671436099315" lon="11.830575123186737"><ele>713.0</ele><time>2026-05-02T08:32:55.477Z</time></trkpt><trkpt lat="46.17678136900691" lon="11.8305859196881"><ele>713.4</ele><time>2026-05-02T08:32:56.477Z</time></trkpt><trkpt lat="46.17684803569132" lon="11.830587764111174"><ele>713.8</ele><time>2026-05-02T08:32:57.477Z</time></trkpt><trkpt lat="46.17697018726939" lon="11.830587131087809"><ele>714.2</ele><time>2026-05-02T08:32:59.477Z</time></trkpt><trkpt lat="46.17709483005529" lon="11.830607559029447"><ele>714.6</ele><time>2026-05-02T08:33:01.477Z</time></trkpt><trkpt lat="46.17715954310074" lon="11.830624625418874"><ele>715.0</ele><time>2026-05-02T08:33:02.477Z</time></trkpt><trkpt lat="46.17722206910766" lon="11.830676184919072"><ele>715.0</ele><time>2026-05-02T08:33:03.477Z</time></trkpt><trkpt lat="46.17727357472083" lon="11.830748279973268"><ele>715.0</ele><time>2026-05-02T08:33:04.477Z</time></trkpt><trkpt lat="46.17731830275371" lon="11.830843200412675"><ele>715.0</ele><time>2026-05-02T08:33:05.477Z</time></trkpt><trkpt lat="46.17735768826836" lon="11.830948310275982"><ele>715.0</ele><time>2026-05-02T08:33:06.477Z</time></trkpt><trkpt lat="46.1773984107353" lon="11.831033002018792"><ele>715.0</ele><time>2026-05-02T08:33:07.477Z</time></trkpt><trkpt lat="46.17743632296981" lon="11.831137130464002"><ele>715.0</ele><time>2026-05-02T08:33:08.477Z</time></trkpt><trkpt lat="46.17749050215751" lon="11.831225003575502"><ele>715.5</ele><time>2026-05-02T08:33:09.477Z</time></trkpt><trkpt lat="46.17752648030265" lon="11.831340345658688"><ele>716.0</ele><time>2026-05-02T08:33:10.477Z</time></trkpt><trkpt lat="46.17758129142354" lon="11.83144463621049"><ele>716.5</ele><time>2026-05-02T08:33:11.477Z</time></trkpt><trkpt lat="46.17764483988888" lon="11.831532372587462"><ele>717.0</ele><time>2026-05-02T08:33:12.477Z</time></trkpt><trkpt lat="46.177696203655124" lon="11.831624195246171"><ele>717.5</ele><time>2026-05-02T08:33:13.477Z</time></trkpt><trkpt lat="46.177737835216476" lon="11.831720959297975"><ele>718.0</ele><time>2026-05-02T08:33:14.477Z</time></trkpt><trkpt lat="46.177785227483156" lon="11.831808182903844"><ele>718.0</ele><time>2026-05-02T08:33:15.477Z</time></trkpt><trkpt lat="46.177842272467124" lon="11.831894526401028"><ele>718.0</ele><time>2026-05-02T08:33:16.477Z</time></trkpt><trkpt lat="46.17791276460466" lon="11.831965413955942"><ele>718.0</ele><time>2026-05-02T08:33:17.477Z</time></trkpt><trkpt lat="46.17798928251655" lon="11.832024784377678"><ele>718.0</ele><time>2026-05-02T08:33:18.477Z</time></trkpt><trkpt lat="46.17807420104547" lon="11.83207868910865"><ele>718.0</ele><time>2026-05-02T08:33:19.477Z</time></trkpt><trkpt lat="46.1781643899481" lon="11.832126555436298"><ele>718.0</ele><time>2026-05-02T08:33:20.477Z</time></trkpt><trkpt lat="46.17825721177967" lon="11.832173191246502"><ele>719.0</ele><time>2026-05-02T08:33:21.477Z</time></trkpt><trkpt lat="46.17835141697607" lon="11.832232488997315"><ele>720.0</ele><time>2026-05-02T08:33:22.477Z</time></trkpt><trkpt lat="46.178452153139354" lon="11.832279817750633"><ele>721.0</ele><time>2026-05-02T08:33:23.477Z</time></trkpt><trkpt lat="46.178562752124265" lon="11.832329132800492"><ele>722.0</ele><time>2026-05-02T08:33:24.477Z</time></trkpt><trkpt lat="46.17867374900494" lon="11.83237818922668"><ele>723.0</ele><time>2026-05-02T08:33:25.477Z</time></trkpt><trkpt lat="46.17877255514699" lon="11.83240667021143"><ele>723.0</ele><time>2026-05-02T08:33:26.477Z</time></trkpt><trkpt lat="46.17885376127001" lon="11.832448543080854"><ele>723.0</ele><time>2026-05-02T08:33:27.477Z</time></trkpt><trkpt lat="46.17892636300915" lon="11.832483353202077"><ele>723.0</ele><time>2026-05-02T08:33:28.477Z</time></trkpt><trkpt lat="46.17899439265835" lon="11.832513702694508"><ele>723.0</ele><time>2026-05-02T08:33:29.477Z</time></trkpt><trkpt lat="46.17907485748826" lon="11.832547337762772"><ele>723.0</ele><time>2026-05-02T08:33:30.477Z</time></trkpt><trkpt lat="46.179162726718666" lon="11.832560280614983"><ele>723.0</ele><time>2026-05-02T08:33:31.477Z</time></trkpt><trkpt lat="46.17925997452583" lon="11.832549224349675"><ele>723.25</ele><time>2026-05-02T08:33:32.477Z</time></trkpt><trkpt lat="46.179370389313014" lon="11.832532264465287"><ele>723.5</ele><time>2026-05-02T08:33:33.477Z</time></trkpt><trkpt lat="46.1794930578025" lon="11.832501637027008"><ele>723.75</ele><time>2026-05-02T08:33:34.477Z</time></trkpt><trkpt lat="46.179620743400996" lon="11.832469383088934"><ele>724.0</ele><time>2026-05-02T08:33:35.477Z</time></trkpt><trkpt lat="46.17973053284605" lon="11.832441650009933"><ele>724.0</ele><time>2026-05-02T08:33:36.477Z</time></trkpt><trkpt lat="46.17983188333405" lon="11.83241604847293"><ele>724.0</ele><time>2026-05-02T08:33:37.477Z</time></trkpt><trkpt lat="46.17994050760356" lon="11.83238933531023"><ele>724.0</ele><time>2026-05-02T08:33:38.477Z</time></trkpt><trkpt lat="46.18007041619162" lon="11.832357399190348"><ele>724.0</ele><time>2026-05-02T08:33:39.477Z</time></trkpt><trkpt lat="46.18020150164891" lon="11.83232203879946"><ele>725.5</ele><time>2026-05-02T08:33:40.477Z</time></trkpt><trkpt lat="46.18033587725785" lon="11.832286729651983"><ele>727.0</ele><time>2026-05-02T08:33:41.477Z</time></trkpt><trkpt lat="46.18046629001136" lon="11.83225239881954"><ele>728.5</ele><time>2026-05-02T08:33:42.477Z</time></trkpt><trkpt lat="46.180579375649245" lon="11.832200934671652"><ele>730.0</ele><time>2026-05-02T08:33:43.477Z</time></trkpt><trkpt lat="46.1806948480723" lon="11.832192231487324"><ele>730.5</ele><time>2026-05-02T08:33:44.477Z</time></trkpt><trkpt lat="46.18080325052939" lon="11.832163694822423"><ele>731.0</ele><time>2026-05-02T08:33:45.477Z</time></trkpt><trkpt lat="46.18090741861637" lon="11.832136272841863"><ele>731.5</ele><time>2026-05-02T08:33:46.477Z</time></trkpt><trkpt lat="46.181023300610846" lon="11.832105767173164"><ele>732.0</ele><time>2026-05-02T08:33:47.477Z</time></trkpt><trkpt lat="46.181140171888096" lon="11.832075001120804"><ele>732.0</ele><time>2026-05-02T08:33:48.477Z</time></trkpt><trkpt lat="46.18125601393777" lon="11.832044140595015"><ele>732.0</ele><time>2026-05-02T08:33:49.477Z</time></trkpt><trkpt lat="46.1813603610739" lon="11.832016224584311"><ele>732.0</ele><time>2026-05-02T08:33:50.477Z</time></trkpt><trkpt lat="46.181477233715015" lon="11.831966224506788"><ele>732.0</ele><time>2026-05-02T08:33:51.477Z</time></trkpt><trkpt lat="46.18159433281869" lon="11.831931291664155"><ele>732.0</ele><time>2026-05-02T08:33:52.477Z</time></trkpt><trkpt lat="46.181718890605914" lon="11.831921261142458"><ele>732.0</ele><time>2026-05-02T08:33:53.477Z</time></trkpt><trkpt lat="46.18183782955712" lon="11.831889033368338"><ele>732.0</ele><time>2026-05-02T08:33:54.477Z</time></trkpt><trkpt lat="46.181964285168824" lon="11.83185498037239"><ele>732.0</ele><time>2026-05-02T08:33:55.477Z</time></trkpt><trkpt lat="46.18209872180873" lon="11.831818973900567"><ele>731.75</ele><time>2026-05-02T08:33:56.477Z</time></trkpt><trkpt lat="46.18222302424472" lon="11.831785681742197"><ele>731.5</ele><time>2026-05-02T08:33:57.477Z</time></trkpt><trkpt lat="46.18235608836825" lon="11.831749753159249"><ele>731.25</ele><time>2026-05-02T08:33:58.477Z</time></trkpt><trkpt lat="46.18249055373765" lon="11.831712198662379"><ele>731.0</ele><time>2026-05-02T08:33:59.477Z</time></trkpt><trkpt lat="46.18262128062894" lon="11.831677355715145"><ele>732.5</ele><time>2026-05-02T08:34:00.477Z</time></trkpt><trkpt lat="46.18276098769846" lon="11.831640119204053"><ele>734.0</ele><time>2026-05-02T08:34:01.477Z</time></trkpt><trkpt lat="46.18289980275637" lon="11.831580210380242"><ele>735.5</ele><time>2026-05-02T08:34:02.477Z</time></trkpt><trkpt lat="46.183044404797236" lon="11.831564253852456"><ele>737.0</ele><time>2026-05-02T08:34:03.477Z</time></trkpt><trkpt lat="46.18321412940531" lon="11.831518550425882"><ele>739.3333333333333</ele><time>2026-05-02T08:34:04.477Z</time></trkpt><trkpt lat="46.18336268705235" lon="11.831479084982188"><ele>741.6666666666666</ele><time>2026-05-02T08:34:05.477Z</time></trkpt><trkpt lat="46.18352009087644" lon="11.831437388293002"><ele>744.0</ele><time>2026-05-02T08:34:06.477Z</time></trkpt><trkpt lat="46.1836834381289" lon="11.831395137654384"><ele>744.0</ele><time>2026-05-02T08:34:07.477Z</time></trkpt><trkpt lat="46.18383308157691" lon="11.831355501945325"><ele>744.0</ele><time>2026-05-02T08:34:08.477Z</time></trkpt><trkpt lat="46.18396763458162" lon="11.831319863233805"><ele>744.0</ele><time>2026-05-02T08:34:09.477Z</time></trkpt><trkpt lat="46.18410800455118" lon="11.831282684475173"><ele>744.0</ele><time>2026-05-02T08:34:10.477Z</time></trkpt><trkpt lat="46.18424359321959" lon="11.831246465834244"><ele>744.25</ele><time>2026-05-02T08:34:11.477Z</time></trkpt><trkpt lat="46.18438063799028" lon="11.83118486497603"><ele>744.5</ele><time>2026-05-02T08:34:12.477Z</time></trkpt><trkpt lat="46.184520651935586" lon="11.83114618300595"><ele>744.75</ele><time>2026-05-02T08:34:13.477Z</time></trkpt><trkpt lat="46.18466310818799" lon="11.831094549418653"><ele>745.0</ele><time>2026-05-02T08:34:14.477Z</time></trkpt><trkpt lat="46.18480518429759" lon="11.831053260940754"><ele>745.0</ele><time>2026-05-02T08:34:15.477Z</time></trkpt><trkpt lat="46.18496828330977" lon="11.831053776392556"><ele>745.0</ele><time>2026-05-02T08:34:16.477Z</time></trkpt><trkpt lat="46.18513994194303" lon="11.831008916420549"><ele>745.0</ele><time>2026-05-02T08:34:17.477Z</time></trkpt><trkpt lat="46.18530364591004" lon="11.830965948983042"><ele>745.6666666666667</ele><time>2026-05-02T08:34:18.477Z</time></trkpt><trkpt lat="46.185468601831026" lon="11.830922402686301"><ele>746.3333333333334</ele><time>2026-05-02T08:34:19.477Z</time></trkpt><trkpt lat="46.18563428502215" lon="11.830878748577023"><ele>747.0</ele><time>2026-05-02T08:34:20.477Z</time></trkpt><trkpt lat="46.185792695393346" lon="11.83083759329083"><ele>747.0</ele><time>2026-05-02T08:34:21.477Z</time></trkpt><trkpt lat="46.18594889497658" lon="11.830795741092654"><ele>747.0</ele><time>2026-05-02T08:34:22.477Z</time></trkpt><trkpt lat="46.18610549535005" lon="11.830753664588697"><ele>747.0</ele><time>2026-05-02T08:34:23.477Z</time></trkpt><trkpt lat="46.18624269132166" lon="11.830716832850639"><ele>747.0</ele><time>2026-05-02T08:34:24.477Z</time></trkpt><trkpt lat="46.186372029701914" lon="11.830682537980039"><ele>747.0</ele><time>2026-05-02T08:34:25.477Z</time></trkpt><trkpt lat="46.186495486617424" lon="11.83062677455264"><ele>747.0</ele><time>2026-05-02T08:34:26.477Z</time></trkpt><trkpt lat="46.186617838172396" lon="11.830617287490355"><ele>747.0</ele><time>2026-05-02T08:34:27.477Z</time></trkpt><trkpt lat="46.18673809383182" lon="11.830585365304263"><ele>748.0</ele><time>2026-05-02T08:34:28.477Z</time></trkpt><trkpt lat="46.186859616375436" lon="11.830553106848258"><ele>749.0</ele><time>2026-05-02T08:34:29.477Z</time></trkpt><trkpt lat="46.18699237497526" lon="11.830517924676176"><ele>750.0</ele><time>2026-05-02T08:34:30.477Z</time></trkpt><trkpt lat="46.18713348134358" lon="11.83045731177341"><ele>751.0</ele><time>2026-05-02T08:34:31.477Z</time></trkpt><trkpt lat="46.1872731051962" lon="11.830420490790223"><ele>753.5</ele><time>2026-05-02T08:34:32.477Z</time></trkpt><trkpt lat="46.18741108224134" lon="11.830375498924457"><ele>756.0</ele><time>2026-05-02T08:34:33.477Z</time></trkpt><trkpt lat="46.187534980991295" lon="11.830351502488941"><ele>758.5</ele><time>2026-05-02T08:34:34.477Z</time></trkpt><trkpt lat="46.187656458661905" lon="11.830294341119197"><ele>761.0</ele><time>2026-05-02T08:34:35.477Z</time></trkpt><trkpt lat="46.18779050286748" lon="11.830222931603378"><ele>761.0</ele><time>2026-05-02T08:34:36.477Z</time></trkpt><trkpt lat="46.18791194274482" lon="11.830156521484183"><ele>761.0</ele><time>2026-05-02T08:34:37.477Z</time></trkpt><trkpt lat="46.1880196327165" lon="11.830097630559353"><ele>761.0</ele><time>2026-05-02T08:34:38.477Z</time></trkpt><trkpt lat="46.18811980301251" lon="11.830021711072249"><ele>761.0</ele><time>2026-05-02T08:34:39.477Z</time></trkpt><trkpt lat="46.188243271472" lon="11.829962186542334"><ele>760.25</ele><time>2026-05-02T08:34:40.477Z</time></trkpt><trkpt lat="46.18836743153371" lon="11.829900069351655"><ele>759.5</ele><time>2026-05-02T08:34:41.477Z</time></trkpt><trkpt lat="46.1884947215222" lon="11.82982759505445"><ele>758.75</ele><time>2026-05-02T08:34:42.477Z</time></trkpt><trkpt lat="46.18861127922156" lon="11.829761942354102"><ele>758.0</ele><time>2026-05-02T08:34:43.477Z</time></trkpt><trkpt lat="46.18873475011707" lon="11.829712505535982"><ele>758.0</ele><time>2026-05-02T08:34:44.477Z</time></trkpt><trkpt lat="46.188861286087956" lon="11.829675050816961"><ele>758.0</ele><time>2026-05-02T08:34:45.477Z</time></trkpt><trkpt lat="46.18897041983764" lon="11.829632026255727"><ele>758.0</ele><time>2026-05-02T08:34:46.477Z</time></trkpt><trkpt lat="46.1890782210506" lon="11.829579796153824"><ele>758.0</ele><time>2026-05-02T08:34:47.477Z</time></trkpt><trkpt lat="46.18919148266069" lon="11.82952096231261"><ele>758.25</ele><time>2026-05-02T08:34:48.477Z</time></trkpt><trkpt lat="46.18929580451909" lon="11.829435873091398"><ele>758.5</ele><time>2026-05-02T08:34:49.477Z</time></trkpt><trkpt lat="46.18940326316766" lon="11.829355657530517"><ele>758.75</ele><time>2026-05-02T08:34:50.477Z</time></trkpt><trkpt lat="46.189514364831155" lon="11.829259069381953"><ele>759.0</ele><time>2026-05-02T08:34:51.477Z</time></trkpt><trkpt lat="46.18961285213683" lon="11.829163342076292"><ele>759.0</ele><time>2026-05-02T08:34:52.477Z</time></trkpt><trkpt lat="46.18971129714399" lon="11.829074262187454"><ele>759.0</ele><time>2026-05-02T08:34:53.477Z</time></trkpt><trkpt lat="46.18979819422812" lon="11.82898745156146"><ele>759.0</ele><time>2026-05-02T08:34:54.477Z</time></trkpt><trkpt lat="46.18990272106237" lon="11.828901579370385"><ele>759.0</ele><time>2026-05-02T08:34:55.477Z</time></trkpt><trkpt lat="46.18996885998054" lon="11.828771089353602"><ele>759.0</ele><time>2026-05-02T08:34:56.477Z</time></trkpt><trkpt lat="46.190036119139755" lon="11.828625488258774"><ele>759.0</ele><time>2026-05-02T08:34:57.477Z</time></trkpt><trkpt lat="46.19008234998521" lon="11.828474515828814"><ele>759.0</ele><time>2026-05-02T08:34:58.477Z</time></trkpt><trkpt lat="46.19013187889634" lon="11.8283056822186"><ele>759.0</ele><time>2026-05-02T08:34:59.477Z</time></trkpt><trkpt lat="46.1901903522966" lon="11.82816191020601"><ele>759.0</ele><time>2026-05-02T08:35:00.477Z</time></trkpt><trkpt lat="46.19022936801409" lon="11.828015488859167"><ele>759.0</ele><time>2026-05-02T08:35:01.477Z</time></trkpt><trkpt lat="46.19027334604844" lon="11.827865979002949"><ele>759.0</ele><time>2026-05-02T08:35:02.477Z</time></trkpt><trkpt lat="46.190314942082395" lon="11.827700325683477"><ele>759.0</ele><time>2026-05-02T08:35:03.477Z</time></trkpt><trkpt lat="46.19035495365122" lon="11.827540900341715"><ele>759.6</ele><time>2026-05-02T08:35:04.477Z</time></trkpt><trkpt lat="46.19037140867923" lon="11.82738599653035"><ele>760.2</ele><time>2026-05-02T08:35:05.477Z</time></trkpt><trkpt lat="46.19038905039248" lon="11.827232821523353"><ele>760.8000000000001</ele><time>2026-05-02T08:35:06.477Z</time></trkpt><trkpt lat="46.190357502621815" lon="11.827069100541923"><ele>761.4000000000001</ele><time>2026-05-02T08:35:07.477Z</time></trkpt><trkpt lat="46.19029466723227" lon="11.826931666102542"><ele>762.0</ele><time>2026-05-02T08:35:08.477Z</time></trkpt><trkpt lat="46.19025104534324" lon="11.826786418769439"><ele>763.0</ele><time>2026-05-02T08:35:09.477Z</time></trkpt><trkpt lat="46.190205599106534" lon="11.826650006593859"><ele>764.0</ele><time>2026-05-02T08:35:10.477Z</time></trkpt><trkpt lat="46.19017676667814" lon="11.826528950528937"><ele>765.0</ele><time>2026-05-02T08:35:11.477Z</time></trkpt><trkpt lat="46.19015671027055" lon="11.826421084630178"><ele>766.0</ele><time>2026-05-02T08:35:12.477Z</time></trkpt><trkpt lat="46.19017668148749" lon="11.826293064743746"><ele>767.0</ele><time>2026-05-02T08:35:13.477Z</time></trkpt><trkpt lat="46.190242804679066" lon="11.826194980542994"><ele>767.0</ele><time>2026-05-02T08:35:14.477Z</time></trkpt><trkpt lat="46.190324654203536" lon="11.826134734253301"><ele>767.0</ele><time>2026-05-02T08:35:15.477Z</time></trkpt><trkpt lat="46.19040804955788" lon="11.82610900993897"><ele>767.0</ele><time>2026-05-02T08:35:16.477Z</time></trkpt><trkpt lat="46.190494163061196" lon="11.826091257649876"><ele>767.0</ele><time>2026-05-02T08:35:17.477Z</time></trkpt><trkpt lat="46.19057252162549" lon="11.826101866754529"><ele>767.0</ele><time>2026-05-02T08:35:18.477Z</time></trkpt><trkpt lat="46.190652262087525" lon="11.826082777571582"><ele>767.0</ele><time>2026-05-02T08:35:19.478Z</time></trkpt><trkpt lat="46.19072209358659" lon="11.826074976060642"><ele>766.8333333333333</ele><time>2026-05-02T08:35:20.478Z</time></trkpt><trkpt lat="46.19079437451563" lon="11.82606659684122"><ele>766.6666666666666</ele><time>2026-05-02T08:35:21.478Z</time></trkpt><trkpt lat="46.19089827842858" lon="11.825969773353552"><ele>766.5</ele><time>2026-05-02T08:35:23.478Z</time></trkpt><trkpt lat="46.19091409022357" lon="11.825867573783851"><ele>766.3333333333334</ele><time>2026-05-02T08:35:24.478Z</time></trkpt><trkpt lat="46.190892030251824" lon="11.825768346894137"><ele>766.1666666666667</ele><time>2026-05-02T08:35:25.478Z</time></trkpt><trkpt lat="46.19082972501534" lon="11.825680661293637"><ele>766.0</ele><time>2026-05-02T08:35:26.478Z</time></trkpt><trkpt lat="46.190737767495094" lon="11.82562721889652"><ele>768.8</ele><time>2026-05-02T08:35:27.478Z</time></trkpt><trkpt lat="46.19063753724478" lon="11.825578732491147"><ele>771.5999999999999</ele><time>2026-05-02T08:35:28.478Z</time></trkpt><trkpt lat="46.190531359057786" lon="11.825523879601802"><ele>774.4</ele><time>2026-05-02T08:35:29.478Z</time></trkpt><trkpt lat="46.19044750913291" lon="11.825448513938174"><ele>777.2</ele><time>2026-05-02T08:35:30.478Z</time></trkpt><trkpt lat="46.19036322731743" lon="11.825401599500118"><ele>780.0</ele><time>2026-05-02T08:35:31.478Z</time></trkpt><trkpt lat="46.190256499959176" lon="11.825348386077312"><ele>780.0</ele><time>2026-05-02T08:35:32.478Z</time></trkpt><trkpt lat="46.190124807366836" lon="11.825321381044208"><ele>780.0</ele><time>2026-05-02T08:35:33.478Z</time></trkpt><trkpt lat="46.189967845726926" lon="11.825322265150353"><ele>780.0</ele><time>2026-05-02T08:35:34.478Z</time></trkpt><trkpt lat="46.189814490383576" lon="11.825379906798608"><ele>780.0</ele><time>2026-05-02T08:35:35.478Z</time></trkpt><trkpt lat="46.18967154264249" lon="11.825414732437599"><ele>783.0</ele><time>2026-05-02T08:35:36.478Z</time></trkpt><trkpt lat="46.18956247196099" lon="11.825466303728769"><ele>786.0</ele><time>2026-05-02T08:35:37.478Z</time></trkpt><trkpt lat="46.189466005781526" lon="11.825535843920195"><ele>789.0</ele><time>2026-05-02T08:35:38.478Z</time></trkpt><trkpt lat="46.1893709890106" lon="11.825622303815278"><ele>792.0</ele><time>2026-05-02T08:35:39.478Z</time></trkpt><trkpt lat="46.189320942638474" lon="11.825804475782645"><ele>792.0</ele><time>2026-05-02T08:35:40.478Z</time></trkpt><trkpt lat="46.18927391557155" lon="11.82597180149572"><ele>792.0</ele><time>2026-05-02T08:35:41.478Z</time></trkpt><trkpt lat="46.189224476760565" lon="11.82610265110561"><ele>792.0</ele><time>2026-05-02T08:35:42.478Z</time></trkpt><trkpt lat="46.18916757416116" lon="11.826213200903622"><ele>792.0</ele><time>2026-05-02T08:35:43.478Z</time></trkpt><trkpt lat="46.18904558274672" lon="11.82629886028347"><ele>791.5</ele><time>2026-05-02T08:35:44.478Z</time></trkpt><trkpt lat="46.1889095452878" lon="11.826393697475378"><ele>791.0</ele><time>2026-05-02T08:35:45.478Z</time></trkpt><trkpt lat="46.18876885290612" lon="11.826491779842986"><ele>790.5</ele><time>2026-05-02T08:35:46.478Z</time></trkpt><trkpt lat="46.188667162027656" lon="11.826562672711287"><ele>790.0</ele><time>2026-05-02T08:35:47.478Z</time></trkpt><trkpt lat="46.188591264674564" lon="11.826615558785667"><ele>790.0</ele><time>2026-05-02T08:35:48.478Z</time></trkpt><trkpt lat="46.18850240513121" lon="11.826647238833557"><ele>790.0</ele><time>2026-05-02T08:35:50.478Z</time></trkpt><trkpt lat="46.18846906234622" lon="11.826532179339525"><ele>790.0</ele><time>2026-05-02T08:35:51.478Z</time></trkpt><trkpt lat="46.18851935514593" lon="11.82644574252153"><ele>790.0</ele><time>2026-05-02T08:35:52.478Z</time></trkpt><trkpt lat="46.18859303313941" lon="11.826362219305318"><ele>790.0</ele><time>2026-05-02T08:35:53.478Z</time></trkpt><trkpt lat="46.188683994185105" lon="11.826236641687172"><ele>790.0</ele><time>2026-05-02T08:35:54.478Z</time></trkpt><trkpt lat="46.188803093333604" lon="11.826111169182283"><ele>790.0</ele><time>2026-05-02T08:35:55.478Z</time></trkpt><trkpt lat="46.18889923866776" lon="11.825968972019917"><ele>790.0</ele><time>2026-05-02T08:35:56.478Z</time></trkpt><trkpt lat="46.188993859512756" lon="11.825853315047706"><ele>790.0</ele><time>2026-05-02T08:35:57.478Z</time></trkpt><trkpt lat="46.18908560969189" lon="11.825759183204902"><ele>790.5</ele><time>2026-05-02T08:35:58.478Z</time></trkpt><trkpt lat="46.189170325668506" lon="11.825657203213352"><ele>791.0</ele><time>2026-05-02T08:35:59.478Z</time></trkpt><trkpt lat="46.18922939861755" lon="11.825556088313368"><ele>791.5</ele><time>2026-05-02T08:36:00.478Z</time></trkpt><trkpt lat="46.18926330279089" lon="11.825398752458623"><ele>792.0</ele><time>2026-05-02T08:36:01.478Z</time></trkpt><trkpt lat="46.189231099297" lon="11.825197290338402"><ele>796.5</ele><time>2026-05-02T08:36:02.478Z</time></trkpt><trkpt lat="46.18920731156199" lon="11.824980718760589"><ele>801.0</ele><time>2026-05-02T08:36:03.478Z</time></trkpt><trkpt lat="46.18923063282218" lon="11.824818867799848"><ele>805.5</ele><time>2026-05-02T08:36:04.478Z</time></trkpt><trkpt lat="46.18929448731278" lon="11.824677057096945"><ele>810.0</ele><time>2026-05-02T08:36:05.478Z</time></trkpt><trkpt lat="46.18935692609782" lon="11.824548452901604"><ele>810.0</ele><time>2026-05-02T08:36:06.478Z</time></trkpt><trkpt lat="46.189433783183446" lon="11.82442003760757"><ele>810.0</ele><time>2026-05-02T08:36:07.478Z</time></trkpt><trkpt lat="46.18950990979468" lon="11.824337259015847"><ele>810.0</ele><time>2026-05-02T08:36:08.478Z</time></trkpt><trkpt lat="46.189594245229884" lon="11.824315610676154"><ele>810.0</ele><time>2026-05-02T08:36:09.478Z</time></trkpt><trkpt lat="46.18974612809791" lon="11.824344796244826"><ele>807.6666666666667</ele><time>2026-05-02T08:36:10.478Z</time></trkpt><trkpt lat="46.18989012956485" lon="11.824423643637243"><ele>805.3333333333334</ele><time>2026-05-02T08:36:11.478Z</time></trkpt><trkpt lat="46.190059322662755" lon="11.824519656573987"><ele>803.0</ele><time>2026-05-02T08:36:12.478Z</time></trkpt><trkpt lat="46.19022573188803" lon="11.824612038818977"><ele>803.0</ele><time>2026-05-02T08:36:13.478Z</time></trkpt><trkpt lat="46.19041887740005" lon="11.824751510053142"><ele>803.0</ele><time>2026-05-02T08:36:14.478Z</time></trkpt><trkpt lat="46.19061574530549" lon="11.82484925138403"><ele>803.0</ele><time>2026-05-02T08:36:15.478Z</time></trkpt><trkpt lat="46.19078464144415" lon="11.824944868574446"><ele>805.6666666666667</ele><time>2026-05-02T08:36:16.478Z</time></trkpt><trkpt lat="46.190961515414514" lon="11.82498529802316"><ele>808.3333333333333</ele><time>2026-05-02T08:36:17.478Z</time></trkpt><trkpt lat="46.19111483673736" lon="11.825012600009938"><ele>811.0</ele><time>2026-05-02T08:36:18.478Z</time></trkpt><trkpt lat="46.191312321096405" lon="11.825012331776104"><ele>811.0</ele><time>2026-05-02T08:36:19.478Z</time></trkpt><trkpt lat="46.19148979980734" lon="11.825021287214268"><ele>811.0</ele><time>2026-05-02T08:36:20.478Z</time></trkpt><trkpt lat="46.19164936975556" lon="11.82502396137507"><ele>811.0</ele><time>2026-05-02T08:36:21.478Z</time></trkpt><trkpt lat="46.19181958082426" lon="11.824990290810826"><ele>813.0</ele><time>2026-05-02T08:36:22.478Z</time></trkpt><trkpt lat="46.1920110724338" lon="11.824959461282603"><ele>815.0</ele><time>2026-05-02T08:36:23.478Z</time></trkpt><trkpt lat="46.19222155148058" lon="11.824891790938878"><ele>817.0</ele><time>2026-05-02T08:36:24.478Z</time></trkpt><trkpt lat="46.1924181113016" lon="11.824823856749507"><ele>817.0</ele><time>2026-05-02T08:36:25.478Z</time></trkpt><trkpt lat="46.192581365116105" lon="11.824736975175323"><ele>817.0</ele><time>2026-05-02T08:36:26.478Z</time></trkpt><trkpt lat="46.19273387249389" lon="11.824688244108533"><ele>817.0</ele><time>2026-05-02T08:36:27.478Z</time></trkpt><trkpt lat="46.19288598309142" lon="11.82458290349332"><ele>817.0</ele><time>2026-05-02T08:36:28.478Z</time></trkpt><trkpt lat="46.19302137040243" lon="11.824462358700393"><ele>817.0</ele><time>2026-05-02T08:36:29.478Z</time></trkpt><trkpt lat="46.19312593945191" lon="11.82436476757728"><ele>817.0</ele><time>2026-05-02T08:36:30.478Z</time></trkpt><trkpt lat="46.19322717584002" lon="11.824270751183139"><ele>817.0</ele><time>2026-05-02T08:36:31.478Z</time></trkpt><trkpt lat="46.19331309625526" lon="11.824165209332223"><ele>819.75</ele><time>2026-05-02T08:36:32.478Z</time></trkpt><trkpt lat="46.19340187823684" lon="11.824062324836543"><ele>822.5</ele><time>2026-05-02T08:36:33.478Z</time></trkpt><trkpt lat="46.19347873708434" lon="11.823918723582857"><ele>825.25</ele><time>2026-05-02T08:36:34.478Z</time></trkpt><trkpt lat="46.193488275363876" lon="11.823726445993819"><ele>828.0</ele><time>2026-05-02T08:36:35.478Z</time></trkpt><trkpt lat="46.19346409164445" lon="11.823531668052128"><ele>831.5</ele><time>2026-05-02T08:36:36.478Z</time></trkpt><trkpt lat="46.19343334818612" lon="11.823329913753534"><ele>835.0</ele><time>2026-05-02T08:36:37.478Z</time></trkpt><trkpt lat="46.193462097553045" lon="11.82314767161555"><ele>838.5</ele><time>2026-05-02T08:36:38.478Z</time></trkpt><trkpt lat="46.19348328922072" lon="11.822983757814518"><ele>842.0</ele><time>2026-05-02T08:36:39.478Z</time></trkpt><trkpt lat="46.19349825177487" lon="11.822833749697583"><ele>842.0</ele><time>2026-05-02T08:36:40.478Z</time></trkpt><trkpt lat="46.19352611960127" lon="11.822702953132211"><ele>842.0</ele><time>2026-05-02T08:36:41.478Z</time></trkpt><trkpt lat="46.193569437652506" lon="11.822592405435564"><ele>842.0</ele><time>2026-05-02T08:36:42.478Z</time></trkpt><trkpt lat="46.19363466956706" lon="11.822504024797938"><ele>842.0</ele><time>2026-05-02T08:36:43.478Z</time></trkpt><trkpt lat="46.193715898912494" lon="11.822450310673075"><ele>842.0</ele><time>2026-05-02T08:36:44.478Z</time></trkpt><trkpt lat="46.19381470663677" lon="11.82243337736767"><ele>843.0</ele><time>2026-05-02T08:36:45.478Z</time></trkpt><trkpt lat="46.193906947811016" lon="11.822466269220783"><ele>844.0</ele><time>2026-05-02T08:36:46.478Z</time></trkpt><trkpt lat="46.19399321979112" lon="11.822569423185756"><ele>845.0</ele><time>2026-05-02T08:36:47.478Z</time></trkpt><trkpt lat="46.19406755675938" lon="11.822671338507192"><ele>846.0</ele><time>2026-05-02T08:36:48.478Z</time></trkpt><trkpt lat="46.19413178171988" lon="11.822795515816997"><ele>847.0</ele><time>2026-05-02T08:36:49.478Z</time></trkpt><trkpt lat="46.19417028718461" lon="11.822942322732692"><ele>847.0</ele><time>2026-05-02T08:36:50.478Z</time></trkpt><trkpt lat="46.19422124420935" lon="11.823098031902333"><ele>847.0</ele><time>2026-05-02T08:36:51.478Z</time></trkpt><trkpt lat="46.19427956212867" lon="11.823227657171726"><ele>847.0</ele><time>2026-05-02T08:36:52.478Z</time></trkpt><trkpt lat="46.194326894429594" lon="11.82334765379393"><ele>847.0</ele><time>2026-05-02T08:36:53.478Z</time></trkpt><trkpt lat="46.19439424677029" lon="11.823461577004316"><ele>847.0</ele><time>2026-05-02T08:36:54.478Z</time></trkpt><trkpt lat="46.19447525350732" lon="11.823571967638141"><ele>848.0</ele><time>2026-05-02T08:36:55.478Z</time></trkpt><trkpt lat="46.19458838445703" lon="11.823603348458787"><ele>849.0</ele><time>2026-05-02T08:36:56.478Z</time></trkpt><trkpt lat="46.19467466824062" lon="11.823582763875935"><ele>850.0</ele><time>2026-05-02T08:36:57.478Z</time></trkpt><trkpt lat="46.19480361923618" lon="11.823527981611738"><ele>851.0</ele><time>2026-05-02T08:36:58.478Z</time></trkpt><trkpt lat="46.194934070175485" lon="11.823440221201505"><ele>851.0</ele><time>2026-05-02T08:36:59.478Z</time></trkpt><trkpt lat="46.19510295980357" lon="11.823331055766833"><ele>851.0</ele><time>2026-05-02T08:37:00.478Z</time></trkpt><trkpt lat="46.19528255963587" lon="11.8232174089753"><ele>851.0</ele><time>2026-05-02T08:37:01.478Z</time></trkpt><trkpt lat="46.195480688891635" lon="11.823119113089588"><ele>851.0</ele><time>2026-05-02T08:37:02.478Z</time></trkpt><trkpt lat="46.19565114050087" lon="11.823020618225165"><ele>851.0</ele><time>2026-05-02T08:37:03.478Z</time></trkpt><trkpt lat="46.195816292700464" lon="11.822961486226195"><ele>851.0</ele><time>2026-05-02T08:37:04.478Z</time></trkpt><trkpt lat="46.195967719389365" lon="11.822791426791053"><ele>847.0</ele><time>2026-05-02T08:37:05.478Z</time></trkpt><trkpt lat="46.19612874559549" lon="11.822656226768373"><ele>843.0</ele><time>2026-05-02T08:37:06.478Z</time></trkpt><trkpt lat="46.19626347196709" lon="11.822519826478867"><ele>839.0</ele><time>2026-05-02T08:37:07.478Z</time></trkpt><trkpt lat="46.19638848229433" lon="11.822386933949304"><ele>844.3333333333334</ele><time>2026-05-02T08:37:08.478Z</time></trkpt><trkpt lat="46.19650561232826" lon="11.822204267662437"><ele>849.6666666666667</ele><time>2026-05-02T08:37:09.478Z</time></trkpt><trkpt lat="46.196601020069764" lon="11.822029215135894"><ele>855.0</ele><time>2026-05-02T08:37:10.478Z</time></trkpt><trkpt lat="46.19668306486394" lon="11.82185550385302"><ele>860.25</ele><time>2026-05-02T08:37:11.478Z</time></trkpt><trkpt lat="46.19673623951169" lon="11.821675120791582"><ele>865.5</ele><time>2026-05-02T08:37:12.478Z</time></trkpt><trkpt lat="46.1967532766648" lon="11.821504507575042"><ele>870.75</ele><time>2026-05-02T08:37:13.478Z</time></trkpt><trkpt lat="46.19675892738038" lon="11.82132922749865"><ele>876.0</ele><time>2026-05-02T08:37:14.478Z</time></trkpt><trkpt lat="46.19677424298906" lon="11.821182716545398"><ele>876.0</ele><time>2026-05-02T08:37:15.478Z</time></trkpt><trkpt lat="46.19682427059361" lon="11.821079901886868"><ele>876.0</ele><time>2026-05-02T08:37:16.478Z</time></trkpt><trkpt lat="46.19691162129754" lon="11.820990737689097"><ele>876.0</ele><time>2026-05-02T08:37:17.478Z</time></trkpt><trkpt lat="46.19702413783445" lon="11.820949852518106"><ele>876.0</ele><time>2026-05-02T08:37:18.478Z</time></trkpt><trkpt lat="46.197178600117255" lon="11.820942625427536"><ele>873.3333333333333</ele><time>2026-05-02T08:37:19.478Z</time></trkpt><trkpt lat="46.19735102362408" lon="11.82101461742112"><ele>870.6666666666666</ele><time>2026-05-02T08:37:20.478Z</time></trkpt><trkpt lat="46.19753192228184" lon="11.821071514385897"><ele>868.0</ele><time>2026-05-02T08:37:21.478Z</time></trkpt><trkpt lat="46.19770796010457" lon="11.82113035691912"><ele>868.0</ele><time>2026-05-02T08:37:22.478Z</time></trkpt><trkpt lat="46.19786920898229" lon="11.821186192024374"><ele>868.0</ele><time>2026-05-02T08:37:23.478Z</time></trkpt><trkpt lat="46.19800350966923" lon="11.821269728946158"><ele>868.0</ele><time>2026-05-02T08:37:24.478Z</time></trkpt><trkpt lat="46.19813054262848" lon="11.821322919131182"><ele>868.0</ele><time>2026-05-02T08:37:25.478Z</time></trkpt><trkpt lat="46.19826131523347" lon="11.821349911833169"><ele>869.0</ele><time>2026-05-02T08:37:26.478Z</time></trkpt><trkpt lat="46.198411151039814" lon="11.821317907123857"><ele>870.0</ele><time>2026-05-02T08:37:27.478Z</time></trkpt><trkpt lat="46.19855718227598" lon="11.821229409947584"><ele>871.0</ele><time>2026-05-02T08:37:28.478Z</time></trkpt><trkpt lat="46.198678192213315" lon="11.821146012903604"><ele>872.0</ele><time>2026-05-02T08:37:29.478Z</time></trkpt><trkpt lat="46.19880864796087" lon="11.821087434391448"><ele>872.0</ele><time>2026-05-02T08:37:30.478Z</time></trkpt><trkpt lat="46.198944020381326" lon="11.821034110212107"><ele>872.0</ele><time>2026-05-02T08:37:31.478Z</time></trkpt><trkpt lat="46.19906735242186" lon="11.820988487149982"><ele>872.0</ele><time>2026-05-02T08:37:32.478Z</time></trkpt><trkpt lat="46.199199446531885" lon="11.820939593466257"><ele>872.0</ele><time>2026-05-02T08:37:33.478Z</time></trkpt><trkpt lat="46.19932540789319" lon="11.820894235776688"><ele>877.5</ele><time>2026-05-02T08:37:34.478Z</time></trkpt><trkpt lat="46.199456759277396" lon="11.820847478537045"><ele>883.0</ele><time>2026-05-02T08:37:35.478Z</time></trkpt><trkpt lat="46.1995863286197" lon="11.82079912206158"><ele>888.5</ele><time>2026-05-02T08:37:36.478Z</time></trkpt><trkpt lat="46.19970578586979" lon="11.820753760640464"><ele>894.0</ele><time>2026-05-02T08:37:37.478Z</time></trkpt><trkpt lat="46.199806366940045" lon="11.820715567154775"><ele>894.3333333333334</ele><time>2026-05-02T08:37:38.478Z</time></trkpt><trkpt lat="46.19989298583233" lon="11.820684047407125"><ele>894.6666666666667</ele><time>2026-05-02T08:37:39.478Z</time></trkpt><trkpt lat="46.19996987981645" lon="11.82065678869678"><ele>895.0</ele><time>2026-05-02T08:37:40.478Z</time></trkpt><trkpt lat="46.20009345104516" lon="11.820611003190166"><ele>895.3333333333334</ele><time>2026-05-02T08:37:42.478Z</time></trkpt><trkpt lat="46.200159920782006" lon="11.820583296763525"><ele>895.6666666666667</ele><time>2026-05-02T08:37:43.478Z</time></trkpt><trkpt lat="46.2002210155726" lon="11.820536174620697"><ele>896.0</ele><time>2026-05-02T08:37:44.478Z</time></trkpt><trkpt lat="46.200312604433016" lon="11.820463192677106"><ele>896.0</ele><time>2026-05-02T08:37:46.478Z</time></trkpt><trkpt lat="46.20040702643968" lon="11.82041704908543"><ele>895.9999999999999</ele><time>2026-05-02T08:37:48.478Z</time></trkpt><trkpt lat="46.20055180295575" lon="11.820419092840877"><ele>895.9999999999999</ele><time>2026-05-02T08:37:50.478Z</time></trkpt><trkpt lat="46.200647757434965" lon="11.820418479962012"><ele>896.0</ele><time>2026-05-02T08:37:51.478Z</time></trkpt><trkpt lat="46.20075051256643" lon="11.820405241157237"><ele>896.0</ele><time>2026-05-02T08:37:52.478Z</time></trkpt><trkpt lat="46.200844693384134" lon="11.820379937246368"><ele>895.0</ele><time>2026-05-02T08:37:53.478Z</time></trkpt><trkpt lat="46.2009343088482" lon="11.820344906079209"><ele>893.9999999999999</ele><time>2026-05-02T08:37:54.478Z</time></trkpt><trkpt lat="46.20104141373236" lon="11.820347361901156"><ele>892.9999999999999</ele><time>2026-05-02T08:37:55.478Z</time></trkpt><trkpt lat="46.20115803439896" lon="11.820422901973254"><ele>892.0</ele><time>2026-05-02T08:37:56.478Z</time></trkpt><trkpt lat="46.20126540683365" lon="11.820491289486485"><ele>891.0</ele><time>2026-05-02T08:37:57.478Z</time></trkpt><trkpt lat="46.2013705883595" lon="11.820540084369407"><ele>891.0</ele><time>2026-05-02T08:37:58.478Z</time></trkpt><trkpt lat="46.201473731266766" lon="11.820574112206005"><ele>891.0</ele><time>2026-05-02T08:37:59.478Z</time></trkpt><trkpt lat="46.20159433992568" lon="11.820586065052632"><ele>891.0</ele><time>2026-05-02T08:38:00.478Z</time></trkpt><trkpt lat="46.20172114356412" lon="11.820543195756207"><ele>891.0</ele><time>2026-05-02T08:38:01.478Z</time></trkpt><trkpt lat="46.20182218150921" lon="11.820509596209082"><ele>892.4</ele><time>2026-05-02T08:38:02.478Z</time></trkpt><trkpt lat="46.20190864631244" lon="11.820472720929047"><ele>893.8</ele><time>2026-05-02T08:38:03.478Z</time></trkpt><trkpt lat="46.202006628264" lon="11.820381428747586"><ele>895.1999999999999</ele><time>2026-05-02T08:38:04.478Z</time></trkpt><trkpt lat="46.202096884182694" lon="11.82028891423667"><ele>896.5999999999999</ele><time>2026-05-02T08:38:05.478Z</time></trkpt><trkpt lat="46.20219879708878" lon="11.820199313923949"><ele>898.0</ele><time>2026-05-02T08:38:06.478Z</time></trkpt><trkpt lat="46.20232915889088" lon="11.820203849640443"><ele>895.5</ele><time>2026-05-02T08:38:07.478Z</time></trkpt><trkpt lat="46.202461761013225" lon="11.820183912026495"><ele>893.0</ele><time>2026-05-02T08:38:08.478Z</time></trkpt><trkpt lat="46.202578697773525" lon="11.820163473842989"><ele>890.5</ele><time>2026-05-02T08:38:09.478Z</time></trkpt><trkpt lat="46.20269043634049" lon="11.820143408654744"><ele>888.0</ele><time>2026-05-02T08:38:10.478Z</time></trkpt><trkpt lat="46.20280204055095" lon="11.820121966512598"><ele>896.75</ele><time>2026-05-02T08:38:11.478Z</time></trkpt><trkpt lat="46.202909595444495" lon="11.820056817867947"><ele>905.5</ele><time>2026-05-02T08:38:12.478Z</time></trkpt><trkpt lat="46.203024074433415" lon="11.820034415992993"><ele>914.25</ele><time>2026-05-02T08:38:13.478Z</time></trkpt><trkpt lat="46.20313388327045" lon="11.820005208295036"><ele>923.0</ele><time>2026-05-02T08:38:14.478Z</time></trkpt><trkpt lat="46.20324168533834" lon="11.819971640088099"><ele>923.0</ele><time>2026-05-02T08:38:15.478Z</time></trkpt><trkpt lat="46.20336315029716" lon="11.819963366746318"><ele>923.0</ele><time>2026-05-02T08:38:16.478Z</time></trkpt><trkpt lat="46.203478726232895" lon="11.819930424798997"><ele>923.0</ele><time>2026-05-02T08:38:17.478Z</time></trkpt><trkpt lat="46.20359676738133" lon="11.819897043464685"><ele>923.0</ele><time>2026-05-02T08:38:18.478Z</time></trkpt><trkpt lat="46.203707145187074" lon="11.819858448597131"><ele>923.0</ele><time>2026-05-02T08:38:19.478Z</time></trkpt><trkpt lat="46.20380741438705" lon="11.819833293477092"><ele>923.0</ele><time>2026-05-02T08:38:20.478Z</time></trkpt><trkpt lat="46.203910737498944" lon="11.8197523560546"><ele>923.0</ele><time>2026-05-02T08:38:21.478Z</time></trkpt><trkpt lat="46.20398666312207" lon="11.819598275744513"><ele>923.0</ele><time>2026-05-02T08:38:22.478Z</time></trkpt><trkpt lat="46.204016022872146" lon="11.819431733404635"><ele>925.75</ele><time>2026-05-02T08:38:23.478Z</time></trkpt><trkpt lat="46.20407014482716" lon="11.81926400610737"><ele>928.5</ele><time>2026-05-02T08:38:24.478Z</time></trkpt><trkpt lat="46.20411318419714" lon="11.819115206120088"><ele>931.25</ele><time>2026-05-02T08:38:25.478Z</time></trkpt><trkpt lat="46.20417359501002" lon="11.818971570509497"><ele>934.0</ele><time>2026-05-02T08:38:26.478Z</time></trkpt><trkpt lat="46.204237659917844" lon="11.818845351077263"><ele>934.0</ele><time>2026-05-02T08:38:27.478Z</time></trkpt><trkpt lat="46.20429355292473" lon="11.818745269668801"><ele>934.0000000000001</ele><time>2026-05-02T08:38:28.478Z</time></trkpt><trkpt lat="46.20434378214759" lon="11.818661387874515"><ele>934.0000000000001</ele><time>2026-05-02T08:38:29.478Z</time></trkpt><trkpt lat="46.20446395898016" lon="11.81863903682852"><ele>934.0</ele><time>2026-05-02T08:38:31.478Z</time></trkpt><trkpt lat="46.20453708417245" lon="11.818701824131994"><ele>934.0</ele><time>2026-05-02T08:38:32.478Z</time></trkpt><trkpt lat="46.204614957170456" lon="11.818812612319828"><ele>934.0</ele><time>2026-05-02T08:38:33.478Z</time></trkpt><trkpt lat="46.20467780887577" lon="11.81890732211328"><ele>934.0000000000001</ele><time>2026-05-02T08:38:34.478Z</time></trkpt><trkpt lat="46.20475335566385" lon="11.819008031678573"><ele>934.0000000000001</ele><time>2026-05-02T08:38:35.478Z</time></trkpt><trkpt lat="46.204834306789316" lon="11.81909188202392"><ele>934.0</ele><time>2026-05-02T08:38:36.478Z</time></trkpt><trkpt lat="46.20490884035075" lon="11.819129032079225"><ele>934.0</ele><time>2026-05-02T08:38:37.478Z</time></trkpt><trkpt lat="46.20499164858031" lon="11.819108236902435"><ele>933.0</ele><time>2026-05-02T08:38:38.478Z</time></trkpt><trkpt lat="46.205075441981776" lon="11.818980005973204"><ele>932.0</ele><time>2026-05-02T08:38:39.478Z</time></trkpt><trkpt lat="46.20513101817096" lon="11.818855142580665"><ele>931.0</ele><time>2026-05-02T08:38:40.478Z</time></trkpt><trkpt lat="46.20520688371718" lon="11.818741807684136"><ele>930.0</ele><time>2026-05-02T08:38:41.478Z</time></trkpt><trkpt lat="46.205251115489226" lon="11.818577572541223"><ele>930.0</ele><time>2026-05-02T08:38:42.478Z</time></trkpt><trkpt lat="46.20535515888791" lon="11.818517475781638"><ele>930.0</ele><time>2026-05-02T08:38:43.478Z</time></trkpt><trkpt lat="46.20548983155895" lon="11.818495000409078"><ele>930.0</ele><time>2026-05-02T08:38:44.478Z</time></trkpt><trkpt lat="46.20562191133666" lon="11.818438382932532"><ele>930.0</ele><time>2026-05-02T08:38:45.478Z</time></trkpt><trkpt lat="46.20572671172838" lon="11.81840973107899"><ele>934.8</ele><time>2026-05-02T08:38:46.478Z</time></trkpt><trkpt lat="46.20584275490945" lon="11.818401766085637"><ele>939.6</ele><time>2026-05-02T08:38:47.478Z</time></trkpt><trkpt lat="46.20593809040665" lon="11.81837606052321"><ele>944.4000000000001</ele><time>2026-05-02T08:38:48.478Z</time></trkpt><trkpt lat="46.206017077941034" lon="11.818328253102102"><ele>949.2</ele><time>2026-05-02T08:38:49.478Z</time></trkpt><trkpt lat="46.20608949037481" lon="11.818278355467033"><ele>954.0</ele><time>2026-05-02T08:38:50.478Z</time></trkpt><trkpt lat="46.20615882344583" lon="11.818169667614201"><ele>954.0</ele><time>2026-05-02T08:38:51.478Z</time></trkpt><trkpt lat="46.20622052091712" lon="11.81801136833004"><ele>954.0000000000001</ele><time>2026-05-02T08:38:52.478Z</time></trkpt><trkpt lat="46.20627592277796" lon="11.817846530777176"><ele>954.0000000000001</ele><time>2026-05-02T08:38:53.478Z</time></trkpt><trkpt lat="46.20630381555868" lon="11.817721374259875"><ele>954.0</ele><time>2026-05-02T08:38:54.478Z</time></trkpt><trkpt lat="46.206324710197904" lon="11.817599556263028"><ele>954.0</ele><time>2026-05-02T08:38:55.478Z</time></trkpt><trkpt lat="46.20633386566462" lon="11.817480547086815"><ele>955.8333333333334</ele><time>2026-05-02T08:38:56.478Z</time></trkpt><trkpt lat="46.20633871178318" lon="11.817354428500705"><ele>957.6666666666667</ele><time>2026-05-02T08:38:57.478Z</time></trkpt><trkpt lat="46.206340424172225" lon="11.817217515059934"><ele>959.5</ele><time>2026-05-02T08:38:58.478Z</time></trkpt><trkpt lat="46.2063575071682" lon="11.8170868382358"><ele>961.3333333333334</ele><time>2026-05-02T08:38:59.478Z</time></trkpt><trkpt lat="46.20637596416042" lon="11.816978373601835"><ele>963.1666666666667</ele><time>2026-05-02T08:39:00.478Z</time></trkpt><trkpt lat="46.206435741166445" lon="11.816901248948263"><ele>965.0</ele><time>2026-05-02T08:39:01.478Z</time></trkpt><trkpt lat="46.20651181404963" lon="11.816863609889177"><ele>965.0</ele><time>2026-05-02T08:39:02.478Z</time></trkpt><trkpt lat="46.2065979512973" lon="11.816868698145386"><ele>965.0</ele><time>2026-05-02T08:39:03.478Z</time></trkpt><trkpt lat="46.206703317492064" lon="11.816928964729527"><ele>965.0</ele><time>2026-05-02T08:39:04.478Z</time></trkpt><trkpt lat="46.20677007893638" lon="11.817054286395285"><ele>965.0</ele><time>2026-05-02T08:39:05.478Z</time></trkpt><trkpt lat="46.20678758924377" lon="11.817153880618237"><ele>965.0</ele><time>2026-05-02T08:39:06.478Z</time></trkpt><trkpt lat="46.20685224193203" lon="11.817296269963323"><ele>965.0</ele><time>2026-05-02T08:39:07.478Z</time></trkpt><trkpt lat="46.20689273604771" lon="11.81739878670808"><ele>965.0</ele><time>2026-05-02T08:39:08.478Z</time></trkpt><trkpt lat="46.20697293979827" lon="11.817463724528027"><ele>965.0</ele><time>2026-05-02T08:39:09.478Z</time></trkpt><trkpt lat="46.20706059200974" lon="11.8175191062524"><ele>965.0</ele><time>2026-05-02T08:39:10.478Z</time></trkpt><trkpt lat="46.20714618183289" lon="11.817515866998413"><ele>965.0</ele><time>2026-05-02T08:39:11.478Z</time></trkpt><trkpt lat="46.207261311753264" lon="11.817484089347236"><ele>966.5</ele><time>2026-05-02T08:39:12.478Z</time></trkpt><trkpt lat="46.20737677339986" lon="11.817432177670156"><ele>968.0</ele><time>2026-05-02T08:39:13.478Z</time></trkpt><trkpt lat="46.20751196886601" lon="11.817372116975495"><ele>969.5</ele><time>2026-05-02T08:39:14.478Z</time></trkpt><trkpt lat="46.20763261724664" lon="11.817328603763865"><ele>971.0</ele><time>2026-05-02T08:39:15.478Z</time></trkpt><trkpt lat="46.207751923968104" lon="11.817296260294704"><ele>971.0</ele><time>2026-05-02T08:39:16.478Z</time></trkpt><trkpt lat="46.207874190619364" lon="11.817283216805224"><ele>971.0</ele><time>2026-05-02T08:39:17.478Z</time></trkpt><trkpt lat="46.207992187979464" lon="11.817284127444896"><ele>971.0</ele><time>2026-05-02T08:39:18.478Z</time></trkpt><trkpt lat="46.20812215793648" lon="11.817292372229986"><ele>971.0</ele><time>2026-05-02T08:39:19.478Z</time></trkpt><trkpt lat="46.20824736206596" lon="11.817300784098844"><ele>969.8</ele><time>2026-05-02T08:39:20.478Z</time></trkpt><trkpt lat="46.20835964194898" lon="11.817311686862602"><ele>968.5999999999999</ele><time>2026-05-02T08:39:21.478Z</time></trkpt><trkpt lat="46.20846610524659" lon="11.817328576179712"><ele>967.4</ele><time>2026-05-02T08:39:22.478Z</time></trkpt><trkpt lat="46.2085625903918" lon="11.817358156038988"><ele>966.2</ele><time>2026-05-02T08:39:23.478Z</time></trkpt><trkpt lat="46.20866173058988" lon="11.817348319716462"><ele>965.0</ele><time>2026-05-02T08:39:24.478Z</time></trkpt><trkpt lat="46.20873756263832" lon="11.81739304759601"><ele>965.0</ele><time>2026-05-02T08:39:25.479Z</time></trkpt><trkpt lat="46.208820859754674" lon="11.817424822784938"><ele>965.0</ele><time>2026-05-02T08:39:26.479Z</time></trkpt><trkpt lat="46.208900671762514" lon="11.817436450583756"><ele>965.0</ele><time>2026-05-02T08:39:27.479Z</time></trkpt><trkpt lat="46.20899106086748" lon="11.817515838039904"><ele>965.0</ele><time>2026-05-02T08:39:28.479Z</time></trkpt><trkpt lat="46.20910746877688" lon="11.817517269047576"><ele>965.0</ele><time>2026-05-02T08:39:29.479Z</time></trkpt><trkpt lat="46.209243835867774" lon="11.817514829416496"><ele>969.3333333333334</ele><time>2026-05-02T08:39:30.479Z</time></trkpt><trkpt lat="46.209397131864634" lon="11.817498707263347"><ele>973.6666666666667</ele><time>2026-05-02T08:39:31.479Z</time></trkpt><trkpt lat="46.2095544834717" lon="11.817410044816326"><ele>978.0</ele><time>2026-05-02T08:39:32.479Z</time></trkpt><trkpt lat="46.20967269714277" lon="11.817303478554521"><ele>978.0</ele><time>2026-05-02T08:39:33.479Z</time></trkpt><trkpt lat="46.20976271352425" lon="11.81722479706907"><ele>978.0</ele><time>2026-05-02T08:39:34.479Z</time></trkpt><trkpt lat="46.20985598564842" lon="11.817200200198167"><ele>978.0</ele><time>2026-05-02T08:39:35.479Z</time></trkpt><trkpt lat="46.20994420612626" lon="11.817241836138638"><ele>978.0</ele><time>2026-05-02T08:39:36.479Z</time></trkpt><trkpt lat="46.21003839929351" lon="11.817325533421599"><ele>978.0</ele><time>2026-05-02T08:39:37.479Z</time></trkpt><trkpt lat="46.210152747522166" lon="11.817425078554765"><ele>976.5</ele><time>2026-05-02T08:39:38.479Z</time></trkpt><trkpt lat="46.210271329999834" lon="11.817505001832018"><ele>975.0</ele><time>2026-05-02T08:39:39.479Z</time></trkpt><trkpt lat="46.21038654436252" lon="11.817535749080811"><ele>973.5</ele><time>2026-05-02T08:39:40.479Z</time></trkpt><trkpt lat="46.21051883430838" lon="11.817508476054934"><ele>972.0</ele><time>2026-05-02T08:39:41.479Z</time></trkpt><trkpt lat="46.21064468348903" lon="11.817485367503426"><ele>972.0</ele><time>2026-05-02T08:39:42.479Z</time></trkpt><trkpt lat="46.210761551827126" lon="11.81732775998876"><ele>972.0</ele><time>2026-05-02T08:39:43.479Z</time></trkpt><trkpt lat="46.210878270824146" lon="11.817178860221949"><ele>972.0</ele><time>2026-05-02T08:39:44.479Z</time></trkpt><trkpt lat="46.21098542795204" lon="11.81700475888962"><ele>972.0</ele><time>2026-05-02T08:39:45.479Z</time></trkpt><trkpt lat="46.211085253950365" lon="11.816864848021421"><ele>972.0</ele><time>2026-05-02T08:39:46.479Z</time></trkpt><trkpt lat="46.211206402243036" lon="11.816798519777354"><ele>972.0</ele><time>2026-05-02T08:39:47.479Z</time></trkpt><trkpt lat="46.21130376758279" lon="11.816695326879785"><ele>972.0</ele><time>2026-05-02T08:39:48.479Z</time></trkpt><trkpt lat="46.21139197630405" lon="11.816612410992732"><ele>974.75</ele><time>2026-05-02T08:39:49.479Z</time></trkpt><trkpt lat="46.21148087133109" lon="11.816537573570645"><ele>977.5</ele><time>2026-05-02T08:39:50.479Z</time></trkpt><trkpt lat="46.211578927648034" lon="11.816470143255877"><ele>980.25</ele><time>2026-05-02T08:39:51.479Z</time></trkpt><trkpt lat="46.21170135575978" lon="11.81640729197141"><ele>983.0</ele><time>2026-05-02T08:39:52.479Z</time></trkpt><trkpt lat="46.21185843213166" lon="11.81632583034349"><ele>983.0</ele><time>2026-05-02T08:39:53.479Z</time></trkpt><trkpt lat="46.212018480423254" lon="11.816245271010311"><ele>983.0</ele><time>2026-05-02T08:39:54.479Z</time></trkpt><trkpt lat="46.21218245412678" lon="11.81616309581868"><ele>983.0</ele><time>2026-05-02T08:39:55.479Z</time></trkpt><trkpt lat="46.212346381986116" lon="11.816080943564264"><ele>981.75</ele><time>2026-05-02T08:39:56.479Z</time></trkpt><trkpt lat="46.212483557000006" lon="11.816007922821129"><ele>980.5</ele><time>2026-05-02T08:39:57.479Z</time></trkpt><trkpt lat="46.212608414298444" lon="11.815943333092722"><ele>979.25</ele><time>2026-05-02T08:39:58.479Z</time></trkpt><trkpt lat="46.21271793905578" lon="11.815892103811407"><ele>978.0</ele><time>2026-05-02T08:39:59.479Z</time></trkpt><trkpt lat="46.21282415397277" lon="11.815848058401924"><ele>983.0</ele><time>2026-05-02T08:40:00.479Z</time></trkpt><trkpt lat="46.21291828779707" lon="11.815816982940094"><ele>988.0</ele><time>2026-05-02T08:40:01.479Z</time></trkpt><trkpt lat="46.21303098756716" lon="11.815797898894864"><ele>993.0</ele><time>2026-05-02T08:40:02.479Z</time></trkpt><trkpt lat="46.213166879442994" lon="11.815758453722411"><ele>998.0</ele><time>2026-05-02T08:40:03.479Z</time></trkpt><trkpt lat="46.21329164087775" lon="11.815633476193906"><ele>998.0</ele><time>2026-05-02T08:40:04.479Z</time></trkpt><trkpt lat="46.213379917924186" lon="11.815535211331834"><ele>998.0</ele><time>2026-05-02T08:40:05.479Z</time></trkpt><trkpt lat="46.213513162747326" lon="11.815431684107955"><ele>998.0</ele><time>2026-05-02T08:40:06.479Z</time></trkpt><trkpt lat="46.213702436417904" lon="11.815369583680466"><ele>998.0</ele><time>2026-05-02T08:40:07.479Z</time></trkpt><trkpt lat="46.21390832389934" lon="11.815320946216772"><ele>998.0</ele><time>2026-05-02T08:40:08.479Z</time></trkpt><trkpt lat="46.2140764418417" lon="11.815281914684746"><ele>998.0</ele><time>2026-05-02T08:40:09.479Z</time></trkpt><trkpt lat="46.21422883364329" lon="11.815216420568364"><ele>1005.75</ele><time>2026-05-02T08:40:10.479Z</time></trkpt><trkpt lat="46.21435964965871" lon="11.815090809261896"><ele>1013.5</ele><time>2026-05-02T08:40:11.479Z</time></trkpt><trkpt lat="46.21444258218274" lon="11.81498818981739"><ele>1021.25</ele><time>2026-05-02T08:40:12.479Z</time></trkpt><trkpt lat="46.214549974784745" lon="11.814909750417312"><ele>1029.0</ele><time>2026-05-02T08:40:13.479Z</time></trkpt><trkpt lat="46.21468806083569" lon="11.814869148872322"><ele>1026.5</ele><time>2026-05-02T08:40:14.479Z</time></trkpt><trkpt lat="46.214848399008446" lon="11.814872634220983"><ele>1024.0</ele><time>2026-05-02T08:40:15.479Z</time></trkpt><trkpt lat="46.214990725623004" lon="11.814883081461407"><ele>1021.5</ele><time>2026-05-02T08:40:16.479Z</time></trkpt><trkpt lat="46.21512235255706" lon="11.81486172459123"><ele>1019.0</ele><time>2026-05-02T08:40:17.479Z</time></trkpt><trkpt lat="46.21524531809286" lon="11.814771797710186"><ele>1019.0</ele><time>2026-05-02T08:40:18.479Z</time></trkpt><trkpt lat="46.21536000291318" lon="11.814704331780277"><ele>1019.0000000000001</ele><time>2026-05-02T08:40:19.479Z</time></trkpt><trkpt lat="46.21546152821287" lon="11.814715540596012"><ele>1019.0000000000001</ele><time>2026-05-02T08:40:20.479Z</time></trkpt><trkpt lat="46.21558115198229" lon="11.814712891262738"><ele>1019.0</ele><time>2026-05-02T08:40:21.479Z</time></trkpt><trkpt lat="46.215676958534374" lon="11.814690667880635"><ele>1019.0</ele><time>2026-05-02T08:40:22.479Z</time></trkpt><trkpt lat="46.215791674209825" lon="11.814626051669444"><ele>1017.75</ele><time>2026-05-02T08:40:23.479Z</time></trkpt><trkpt lat="46.21591062928449" lon="11.81449647763704"><ele>1016.5</ele><time>2026-05-02T08:40:24.479Z</time></trkpt><trkpt lat="46.21601993581883" lon="11.814394114199722"><ele>1015.25</ele><time>2026-05-02T08:40:25.479Z</time></trkpt><trkpt lat="46.21614101392746" lon="11.814354338720431"><ele>1014.0</ele><time>2026-05-02T08:40:26.479Z</time></trkpt><trkpt lat="46.21627807548601" lon="11.81430285559204"><ele>1019.75</ele><time>2026-05-02T08:40:27.479Z</time></trkpt><trkpt lat="46.21641430757491" lon="11.81420955548308"><ele>1025.5</ele><time>2026-05-02T08:40:28.479Z</time></trkpt><trkpt lat="46.216536949507436" lon="11.814104882906895"><ele>1031.25</ele><time>2026-05-02T08:40:29.479Z</time></trkpt><trkpt lat="46.216640781626076" lon="11.814012594371158"><ele>1037.0</ele><time>2026-05-02T08:40:30.479Z</time></trkpt><trkpt lat="46.21674514226472" lon="11.81392150666791"><ele>1037.0</ele><time>2026-05-02T08:40:31.479Z</time></trkpt><trkpt lat="46.2168368589772" lon="11.813841586616952"><ele>1037.0</ele><time>2026-05-02T08:40:32.479Z</time></trkpt><trkpt lat="46.216937020041314" lon="11.81375430824561"><ele>1037.0</ele><time>2026-05-02T08:40:33.479Z</time></trkpt><trkpt lat="46.21705229355902" lon="11.813653861453735"><ele>1037.0</ele><time>2026-05-02T08:40:34.479Z</time></trkpt><trkpt lat="46.21717693198026" lon="11.813545254024758"><ele>1042.0</ele><time>2026-05-02T08:40:35.479Z</time></trkpt><trkpt lat="46.2173184426954" lon="11.813421944521158"><ele>1047.0</ele><time>2026-05-02T08:40:36.479Z</time></trkpt><trkpt lat="46.217476211457196" lon="11.813284467815297"><ele>1052.0</ele><time>2026-05-02T08:40:37.479Z</time></trkpt><trkpt lat="46.21761980544374" lon="11.813160496316554"><ele>1052.0</ele><time>2026-05-02T08:40:38.479Z</time></trkpt><trkpt lat="46.21773658118852" lon="11.813063108049027"><ele>1052.0</ele><time>2026-05-02T08:40:39.479Z</time></trkpt><trkpt lat="46.21785361218625" lon="11.812965850796678"><ele>1052.0</ele><time>2026-05-02T08:40:40.479Z</time></trkpt><trkpt lat="46.21797370009642" lon="11.81286161501508"><ele>1052.0</ele><time>2026-05-02T08:40:41.479Z</time></trkpt><trkpt lat="46.21809455573091" lon="11.812775939941913"><ele>1054.75</ele><time>2026-05-02T08:40:42.479Z</time></trkpt><trkpt lat="46.21822578728514" lon="11.812711523207897"><ele>1057.5</ele><time>2026-05-02T08:40:43.479Z</time></trkpt><trkpt lat="46.21836655315059" lon="11.812647533256488"><ele>1060.25</ele><time>2026-05-02T08:40:44.479Z</time></trkpt><trkpt lat="46.2185008203084" lon="11.812583437340638"><ele>1063.0</ele><time>2026-05-02T08:40:45.479Z</time></trkpt><trkpt lat="46.21863860473694" lon="11.812480412432176"><ele>1063.0</ele><time>2026-05-02T08:40:46.479Z</time></trkpt><trkpt lat="46.218763713494965" lon="11.812351975590417"><ele>1063.0</ele><time>2026-05-02T08:40:47.479Z</time></trkpt><trkpt lat="46.21887316518832" lon="11.812242080369598"><ele>1063.0</ele><time>2026-05-02T08:40:48.479Z</time></trkpt><trkpt lat="46.21898082763245" lon="11.812137406067784"><ele>1063.0</ele><time>2026-05-02T08:40:49.479Z</time></trkpt><trkpt lat="46.21906268662027" lon="11.812072713720285"><ele>1060.0</ele><time>2026-05-02T08:40:50.479Z</time></trkpt><trkpt lat="46.21916159081446" lon="11.81202310359098"><ele>1057.0</ele><time>2026-05-02T08:40:51.479Z</time></trkpt><trkpt lat="46.21926624950076" lon="11.811996809810342"><ele>1054.0</ele><time>2026-05-02T08:40:52.479Z</time></trkpt><trkpt lat="46.219382718542356" lon="11.812016582684743"><ele>1051.0</ele><time>2026-05-02T08:40:53.479Z</time></trkpt><trkpt lat="46.21946901649382" lon="11.812074510804603"><ele>1048.0</ele><time>2026-05-02T08:40:54.479Z</time></trkpt><trkpt lat="46.21955628644699" lon="11.812112146540187"><ele>1048.0</ele><time>2026-05-02T08:40:55.479Z</time></trkpt><trkpt lat="46.21967013902978" lon="11.812127124175078"><ele>1048.0</ele><time>2026-05-02T08:40:56.479Z</time></trkpt><trkpt lat="46.219787839331545" lon="11.812028113227703"><ele>1048.0</ele><time>2026-05-02T08:40:57.479Z</time></trkpt><trkpt lat="46.219874271823" lon="11.81187906057747"><ele>1048.0</ele><time>2026-05-02T08:40:58.479Z</time></trkpt><trkpt lat="46.219974671163" lon="11.8117158271089"><ele>1055.5</ele><time>2026-05-02T08:40:59.479Z</time></trkpt><trkpt lat="46.2200646811459" lon="11.81158086445365"><ele>1063.0</ele><time>2026-05-02T08:41:00.479Z</time></trkpt><trkpt lat="46.22016156285225" lon="11.811499800306327"><ele>1070.5</ele><time>2026-05-02T08:41:01.479Z</time></trkpt><trkpt lat="46.22024988215907" lon="11.811426911229924"><ele>1078.0</ele><time>2026-05-02T08:41:02.479Z</time></trkpt><trkpt lat="46.22031900462133" lon="11.811309439598752"><ele>1078.0</ele><time>2026-05-02T08:41:03.479Z</time></trkpt><trkpt lat="46.220369355347586" lon="11.811207938425868"><ele>1078.0</ele><time>2026-05-02T08:41:04.479Z</time></trkpt><trkpt lat="46.220499992857526" lon="11.811135449839647"><ele>1078.0</ele><time>2026-05-02T08:41:06.479Z</time></trkpt><trkpt lat="46.22057301717158" lon="11.811223524053219"><ele>1078.0</ele><time>2026-05-02T08:41:07.479Z</time></trkpt><trkpt lat="46.220655369763556" lon="11.811291356794664"><ele>1078.0</ele><time>2026-05-02T08:41:08.479Z</time></trkpt><trkpt lat="46.22075414294506" lon="11.811348827601691"><ele>1074.4</ele><time>2026-05-02T08:41:09.479Z</time></trkpt><trkpt lat="46.2208600858572" lon="11.811407583812391"><ele>1070.8</ele><time>2026-05-02T08:41:10.479Z</time></trkpt><trkpt lat="46.22095816414781" lon="11.811420004887209"><ele>1067.2</ele><time>2026-05-02T08:41:11.479Z</time></trkpt><trkpt lat="46.22106516109898" lon="11.811398755798715"><ele>1063.6</ele><time>2026-05-02T08:41:12.479Z</time></trkpt><trkpt lat="46.22117804351684" lon="11.811340893102313"><ele>1060.0</ele><time>2026-05-02T08:41:13.479Z</time></trkpt><trkpt lat="46.22129599466452" lon="11.811253412298528"><ele>1060.0</ele><time>2026-05-02T08:41:14.479Z</time></trkpt><trkpt lat="46.22141802744227" lon="11.81119212981294"><ele>1060.0</ele><time>2026-05-02T08:41:15.479Z</time></trkpt><trkpt lat="46.221544031746156" lon="11.811104190873987"><ele>1060.0</ele><time>2026-05-02T08:41:16.479Z</time></trkpt><trkpt lat="46.221644167467325" lon="11.811012295482646"><ele>1060.0</ele><time>2026-05-02T08:41:17.479Z</time></trkpt><trkpt lat="46.22174952088982" lon="11.810958807878798"><ele>1069.0</ele><time>2026-05-02T08:41:18.479Z</time></trkpt><trkpt lat="46.22187240196064" lon="11.810859795591055"><ele>1078.0</ele><time>2026-05-02T08:41:19.479Z</time></trkpt><trkpt lat="46.221997572499184" lon="11.8106973350459"><ele>1087.0</ele><time>2026-05-02T08:41:20.479Z</time></trkpt><trkpt lat="46.22214256523057" lon="11.810553888913613"><ele>1087.0</ele><time>2026-05-02T08:41:21.479Z</time></trkpt><trkpt lat="46.222279784847906" lon="11.810403729479274"><ele>1087.0</ele><time>2026-05-02T08:41:22.479Z</time></trkpt><trkpt lat="46.22240307797416" lon="11.810268752022518"><ele>1087.0</ele><time>2026-05-02T08:41:23.479Z</time></trkpt><trkpt lat="46.222509132497784" lon="11.8101521007262"><ele>1090.0</ele><time>2026-05-02T08:41:24.479Z</time></trkpt><trkpt lat="46.222601325938506" lon="11.810045104774217"><ele>1093.0</ele><time>2026-05-02T08:41:25.479Z</time></trkpt><trkpt lat="46.222681174873685" lon="11.809946134794778"><ele>1096.0</ele><time>2026-05-02T08:41:26.479Z</time></trkpt><trkpt lat="46.22274690642602" lon="11.809823154156204"><ele>1099.0</ele><time>2026-05-02T08:41:27.479Z</time></trkpt><trkpt lat="46.222759051781495" lon="11.809642205055466"><ele>1099.0</ele><time>2026-05-02T08:41:28.479Z</time></trkpt><trkpt lat="46.22277037223642" lon="11.809469185606213"><ele>1099.0</ele><time>2026-05-02T08:41:29.479Z</time></trkpt><trkpt lat="46.22278164744261" lon="11.809284126513878"><ele>1099.0</ele><time>2026-05-02T08:41:30.479Z</time></trkpt><trkpt lat="46.22279222544685" lon="11.809086613939415"><ele>1099.0</ele><time>2026-05-02T08:41:31.479Z</time></trkpt><trkpt lat="46.22279876668965" lon="11.808938706143389"><ele>1106.6666666666665</ele><time>2026-05-02T08:41:32.479Z</time></trkpt><trkpt lat="46.22280999358925" lon="11.808730530006242"><ele>1114.3333333333333</ele><time>2026-05-02T08:41:33.479Z</time></trkpt><trkpt lat="46.222830601140366" lon="11.808517462812711"><ele>1122.0</ele><time>2026-05-02T08:41:34.479Z</time></trkpt><trkpt lat="46.22286568135212" lon="11.808281419777714"><ele>1127.3333333333333</ele><time>2026-05-02T08:41:35.479Z</time></trkpt><trkpt lat="46.22290544361032" lon="11.808024827797235"><ele>1132.6666666666665</ele><time>2026-05-02T08:41:36.479Z</time></trkpt><trkpt lat="46.22294062094157" lon="11.807796942196779"><ele>1138.0</ele><time>2026-05-02T08:41:37.479Z</time></trkpt><trkpt lat="46.222962108542056" lon="11.80759291129671"><ele>1142.75</ele><time>2026-05-02T08:41:38.479Z</time></trkpt><trkpt lat="46.22299440521306" lon="11.807414262646784"><ele>1147.5</ele><time>2026-05-02T08:41:39.479Z</time></trkpt><trkpt lat="46.22302648453929" lon="11.807260031146326"><ele>1152.25</ele><time>2026-05-02T08:41:40.479Z</time></trkpt><trkpt lat="46.22308452281774" lon="11.807139977244159"><ele>1157.0</ele><time>2026-05-02T08:41:41.479Z</time></trkpt><trkpt lat="46.223186506837514" lon="11.80705498410965"><ele>1142.75</ele><time>2026-05-02T08:41:42.479Z</time></trkpt><trkpt lat="46.223331435247864" lon="11.807047716856092"><ele>1128.5</ele><time>2026-05-02T08:41:43.479Z</time></trkpt><trkpt lat="46.223478603836604" lon="11.807023973078586"><ele>1114.25</ele><time>2026-05-02T08:41:44.479Z</time></trkpt><trkpt lat="46.22358912801956" lon="11.807032883857401"><ele>1100.0</ele><time>2026-05-02T08:41:45.479Z</time></trkpt><trkpt lat="46.223692045080774" lon="11.807004411024689"><ele>1100.0</ele><time>2026-05-02T08:41:46.479Z</time></trkpt><trkpt lat="46.22380250938949" lon="11.806936240830183"><ele>1100.0</ele><time>2026-05-02T08:41:47.479Z</time></trkpt><trkpt lat="46.22389641143831" lon="11.806840860302104"><ele>1100.0</ele><time>2026-05-02T08:41:48.479Z</time></trkpt><trkpt lat="46.22396327429922" lon="11.806752712719588"><ele>1100.0</ele><time>2026-05-02T08:41:49.479Z</time></trkpt><trkpt lat="46.224050160438644" lon="11.806695302610583"><ele>1100.0</ele><time>2026-05-02T08:41:50.479Z</time></trkpt><trkpt lat="46.22415645253776" lon="11.806678561885667"><ele>1101.2</ele><time>2026-05-02T08:41:51.479Z</time></trkpt><trkpt lat="46.224252285463535" lon="11.80667655621695"><ele>1102.4</ele><time>2026-05-02T08:41:52.479Z</time></trkpt><trkpt lat="46.22433531213966" lon="11.806723235726833"><ele>1103.6</ele><time>2026-05-02T08:41:53.479Z</time></trkpt><trkpt lat="46.2243957481217" lon="11.806825984356449"><ele>1104.8</ele><time>2026-05-02T08:41:54.479Z</time></trkpt><trkpt lat="46.2244290389008" lon="11.806982843507457"><ele>1106.0</ele><time>2026-05-02T08:41:55.479Z</time></trkpt><trkpt lat="46.22441949603113" lon="11.807162553420703"><ele>1106.0</ele><time>2026-05-02T08:41:56.479Z</time></trkpt><trkpt lat="46.22436177658922" lon="11.807327094311443"><ele>1106.0</ele><time>2026-05-02T08:41:57.479Z</time></trkpt><trkpt lat="46.224311867488545" lon="11.807480505817836"><ele>1106.0</ele><time>2026-05-02T08:41:58.479Z</time></trkpt><trkpt lat="46.224310354979785" lon="11.807622024848044"><ele>1106.0</ele><time>2026-05-02T08:41:59.479Z</time></trkpt><trkpt lat="46.22433565580429" lon="11.807769875061766"><ele>1106.0</ele><time>2026-05-02T08:42:00.479Z</time></trkpt><trkpt lat="46.22440560495465" lon="11.807899167477338"><ele>1102.75</ele><time>2026-05-02T08:42:01.479Z</time></trkpt><trkpt lat="46.2244991698824" lon="11.807969837759286"><ele>1099.5</ele><time>2026-05-02T08:42:02.479Z</time></trkpt><trkpt lat="46.22458610475382" lon="11.808006800431839"><ele>1096.25</ele><time>2026-05-02T08:42:03.479Z</time></trkpt><trkpt lat="46.22468590886343" lon="11.80795087083733"><ele>1093.0</ele><time>2026-05-02T08:42:04.479Z</time></trkpt><trkpt lat="46.224777173150294" lon="11.807756732484819"><ele>1104.0</ele><time>2026-05-02T08:42:05.479Z</time></trkpt><trkpt lat="46.22486217811725" lon="11.80759456169851"><ele>1115.0</ele><time>2026-05-02T08:42:06.479Z</time></trkpt><trkpt lat="46.224971441010396" lon="11.8074131713979"><ele>1126.0</ele><time>2026-05-02T08:42:07.479Z</time></trkpt><trkpt lat="46.225125460940546" lon="11.80720924958829"><ele>1126.0</ele><time>2026-05-02T08:42:08.479Z</time></trkpt><trkpt lat="46.22525292194014" lon="11.807014970054151"><ele>1126.0</ele><time>2026-05-02T08:42:09.479Z</time></trkpt><trkpt lat="46.22537576007162" lon="11.806871377792623"><ele>1126.0</ele><time>2026-05-02T08:42:10.479Z</time></trkpt><trkpt lat="46.22548744822765" lon="11.806796055812027"><ele>1126.25</ele><time>2026-05-02T08:42:11.479Z</time></trkpt><trkpt lat="46.22557702853642" lon="11.806792746657132"><ele>1126.5</ele><time>2026-05-02T08:42:12.479Z</time></trkpt><trkpt lat="46.22572804064845" lon="11.806893655649889"><ele>1126.75</ele><time>2026-05-02T08:42:14.479Z</time></trkpt><trkpt lat="46.22578451993796" lon="11.807016694291104"><ele>1127.0</ele><time>2026-05-02T08:42:15.479Z</time></trkpt><trkpt lat="46.225842600982126" lon="11.807223280649449"><ele>1125.5</ele><time>2026-05-02T08:42:16.479Z</time></trkpt><trkpt lat="46.22588239070482" lon="11.807439933721701"><ele>1124.0</ele><time>2026-05-02T08:42:17.479Z</time></trkpt><trkpt lat="46.22591897895434" lon="11.807610393576413"><ele>1122.5</ele><time>2026-05-02T08:42:18.479Z</time></trkpt><trkpt lat="46.22596837573032" lon="11.80781618374341"><ele>1121.0</ele><time>2026-05-02T08:42:19.479Z</time></trkpt><trkpt lat="46.226006121297466" lon="11.808002559763182"><ele>1118.0</ele><time>2026-05-02T08:42:20.479Z</time></trkpt><trkpt lat="46.22606267283712" lon="11.808210967792538"><ele>1115.0</ele><time>2026-05-02T08:42:21.479Z</time></trkpt><trkpt lat="46.22611114071408" lon="11.808407821414235"><ele>1112.0</ele><time>2026-05-02T08:42:22.479Z</time></trkpt><trkpt lat="46.22613950993954" lon="11.808598445903561"><ele>1109.0</ele><time>2026-05-02T08:42:23.479Z</time></trkpt><trkpt lat="46.22619243149478" lon="11.808745656359973"><ele>1110.25</ele><time>2026-05-02T08:42:24.479Z</time></trkpt><trkpt lat="46.226258493608476" lon="11.808894516099542"><ele>1111.5</ele><time>2026-05-02T08:42:25.479Z</time></trkpt><trkpt lat="46.22635639915019" lon="11.809007870415279"><ele>1112.75</ele><time>2026-05-02T08:42:26.479Z</time></trkpt><trkpt lat="46.226467936234734" lon="11.809095350113282"><ele>1114.0</ele><time>2026-05-02T08:42:27.479Z</time></trkpt><trkpt lat="46.22661113205533" lon="11.809131635508763"><ele>1114.0</ele><time>2026-05-02T08:42:28.479Z</time></trkpt><trkpt lat="46.22677464705567" lon="11.809141638695504"><ele>1114.0</ele><time>2026-05-02T08:42:29.479Z</time></trkpt><trkpt lat="46.226923113078634" lon="11.80912324840958"><ele>1114.0</ele><time>2026-05-02T08:42:30.479Z</time></trkpt><trkpt lat="46.22708283637367" lon="11.80901956682772"><ele>1114.0</ele><time>2026-05-02T08:42:31.479Z</time></trkpt><trkpt lat="46.227250392969815" lon="11.808859251011258"><ele>1114.0</ele><time>2026-05-02T08:42:32.479Z</time></trkpt><trkpt lat="46.22741021323984" lon="11.808699236264067"><ele>1114.0</ele><time>2026-05-02T08:42:33.479Z</time></trkpt><trkpt lat="46.22754798771393" lon="11.808591226332737"><ele>1115.75</ele><time>2026-05-02T08:42:34.479Z</time></trkpt><trkpt lat="46.22767266735773" lon="11.80851401902087"><ele>1117.5</ele><time>2026-05-02T08:42:35.479Z</time></trkpt><trkpt lat="46.2277861194081" lon="11.808505679591756"><ele>1119.25</ele><time>2026-05-02T08:42:36.479Z</time></trkpt><trkpt lat="46.22791718089643" lon="11.808558194969702"><ele>1121.0</ele><time>2026-05-02T08:42:37.479Z</time></trkpt><trkpt lat="46.22802743965934" lon="11.808673923842326"><ele>1121.0</ele><time>2026-05-02T08:42:38.479Z</time></trkpt><trkpt lat="46.22813301045222" lon="11.808807022458575"><ele>1121.0</ele><time>2026-05-02T08:42:39.479Z</time></trkpt><trkpt lat="46.2282717730355" lon="11.808901469060698"><ele>1121.0</ele><time>2026-05-02T08:42:40.479Z</time></trkpt><trkpt lat="46.228425662343675" lon="11.808937428880816"><ele>1121.0</ele><time>2026-05-02T08:42:41.479Z</time></trkpt><trkpt lat="46.228582175697234" lon="11.808952093764816"><ele>1125.3333333333335</ele><time>2026-05-02T08:42:42.479Z</time></trkpt><trkpt lat="46.22876742394003" lon="11.808930965548585"><ele>1129.6666666666667</ele><time>2026-05-02T08:42:43.479Z</time></trkpt><trkpt lat="46.22895814062218" lon="11.80887720031352"><ele>1134.0</ele><time>2026-05-02T08:42:44.479Z</time></trkpt><trkpt lat="46.2291262581188" lon="11.808806934475104"><ele>1139.0</ele><time>2026-05-02T08:42:45.479Z</time></trkpt><trkpt lat="46.22927131809284" lon="11.808757476556021"><ele>1144.0</ele><time>2026-05-02T08:42:46.479Z</time></trkpt><trkpt lat="46.229432584607515" lon="11.808729346741506"><ele>1149.0</ele><time>2026-05-02T08:42:47.479Z</time></trkpt><trkpt lat="46.229594054323776" lon="11.808744018493242"><ele>1149.0</ele><time>2026-05-02T08:42:48.479Z</time></trkpt><trkpt lat="46.22976666044762" lon="11.808777933677044"><ele>1149.0</ele><time>2026-05-02T08:42:49.479Z</time></trkpt><trkpt lat="46.229939010109916" lon="11.8087966883793"><ele>1149.0</ele><time>2026-05-02T08:42:50.479Z</time></trkpt><trkpt lat="46.23010993442949" lon="11.808808383254268"><ele>1148.6666666666667</ele><time>2026-05-02T08:42:51.479Z</time></trkpt><trkpt lat="46.23028210098272" lon="11.808830612885565"><ele>1148.3333333333335</ele><time>2026-05-02T08:42:52.479Z</time></trkpt><trkpt lat="46.23043430752201" lon="11.808849277497592"><ele>1148.0</ele><time>2026-05-02T08:42:53.479Z</time></trkpt><trkpt lat="46.23058398557405" lon="11.80885579472244"><ele>1145.6666666666667</ele><time>2026-05-02T08:42:54.479Z</time></trkpt><trkpt lat="46.230747917895606" lon="11.808842553031544"><ele>1143.3333333333333</ele><time>2026-05-02T08:42:55.479Z</time></trkpt><trkpt lat="46.23089677687749" lon="11.808799881278645"><ele>1141.0</ele><time>2026-05-02T08:42:56.479Z</time></trkpt><trkpt lat="46.23102839966605" lon="11.808703044423533"><ele>1141.0</ele><time>2026-05-02T08:42:57.479Z</time></trkpt><trkpt lat="46.2311558095823" lon="11.80855892658571"><ele>1141.0</ele><time>2026-05-02T08:42:58.479Z</time></trkpt><trkpt lat="46.23126538853616" lon="11.808382710171019"><ele>1141.0</ele><time>2026-05-02T08:42:59.479Z</time></trkpt><trkpt lat="46.23135547829366" lon="11.808170954765433"><ele>1144.0</ele><time>2026-05-02T08:43:00.479Z</time></trkpt><trkpt lat="46.231437256997644" lon="11.80794229873344"><ele>1147.0</ele><time>2026-05-02T08:43:01.479Z</time></trkpt><trkpt lat="46.231518155594856" lon="11.807762470300041"><ele>1150.0</ele><time>2026-05-02T08:43:02.479Z</time></trkpt><trkpt lat="46.231589818479655" lon="11.8076472230663"><ele>1153.0</ele><time>2026-05-02T08:43:03.479Z</time></trkpt><trkpt lat="46.231641254171905" lon="11.807527196247857"><ele>1153.0</ele><time>2026-05-02T08:43:04.479Z</time></trkpt><trkpt lat="46.23172298409206" lon="11.807487049820947"><ele>1153.0</ele><time>2026-05-02T08:43:05.479Z</time></trkpt><trkpt lat="46.23182416192748" lon="11.807522220187995"><ele>1153.0</ele><time>2026-05-02T08:43:06.479Z</time></trkpt><trkpt lat="46.231937931743474" lon="11.807633773153215"><ele>1153.0</ele><time>2026-05-02T08:43:07.479Z</time></trkpt><trkpt lat="46.23204619364205" lon="11.807759481306318"><ele>1153.0</ele><time>2026-05-02T08:43:08.479Z</time></trkpt><trkpt lat="46.23221484612493" lon="11.807858186970796"><ele>1153.0</ele><time>2026-05-02T08:43:09.479Z</time></trkpt><trkpt lat="46.23237967244005" lon="11.80790808414868"><ele>1153.0</ele><time>2026-05-02T08:43:10.479Z</time></trkpt><trkpt lat="46.23254400089987" lon="11.80791779911786"><ele>1151.6666666666665</ele><time>2026-05-02T08:43:11.479Z</time></trkpt><trkpt lat="46.232724360626726" lon="11.807873307355695"><ele>1150.3333333333333</ele><time>2026-05-02T08:43:12.479Z</time></trkpt><trkpt lat="46.23293944400183" lon="11.807785238681692"><ele>1149.0</ele><time>2026-05-02T08:43:13.479Z</time></trkpt><trkpt lat="46.23312217698861" lon="11.807728605864813"><ele>1149.0</ele><time>2026-05-02T08:43:14.479Z</time></trkpt><trkpt lat="46.23328702195612" lon="11.80769822144244"><ele>1149.0</ele><time>2026-05-02T08:43:15.479Z</time></trkpt><trkpt lat="46.23344677190484" lon="11.807689799661835"><ele>1149.0</ele><time>2026-05-02T08:43:16.479Z</time></trkpt><trkpt lat="46.23360304082716" lon="11.807720081680129"><ele>1149.0</ele><time>2026-05-02T08:43:17.479Z</time></trkpt><trkpt lat="46.23376918442936" lon="11.807757411960695"><ele>1149.0</ele><time>2026-05-02T08:43:18.479Z</time></trkpt><trkpt lat="46.2339456162202" lon="11.80778679138024"><ele>1149.0</ele><time>2026-05-02T08:43:19.479Z</time></trkpt><trkpt lat="46.234147224022486" lon="11.807805458113027"><ele>1152.0</ele><time>2026-05-02T08:43:20.479Z</time></trkpt><trkpt lat="46.23432819461198" lon="11.807843478111742"><ele>1155.0</ele><time>2026-05-02T08:43:21.479Z</time></trkpt><trkpt lat="46.23451155456242" lon="11.807830013788218"><ele>1158.0</ele><time>2026-05-02T08:43:22.479Z</time></trkpt><trkpt lat="46.2347025151444" lon="11.807825257891874"><ele>1160.6666666666667</ele><time>2026-05-02T08:43:23.479Z</time></trkpt><trkpt lat="46.23486700397555" lon="11.807789663269375"><ele>1163.3333333333335</ele><time>2026-05-02T08:43:24.479Z</time></trkpt><trkpt lat="46.235030510767984" lon="11.807721906797065"><ele>1166.0</ele><time>2026-05-02T08:43:25.479Z</time></trkpt><trkpt lat="46.235174769999894" lon="11.807655478240834"><ele>1166.0</ele><time>2026-05-02T08:43:26.479Z</time></trkpt><trkpt lat="46.23529678687781" lon="11.807648381981318"><ele>1166.0</ele><time>2026-05-02T08:43:27.479Z</time></trkpt><trkpt lat="46.235407504351144" lon="11.807653254118657"><ele>1166.0</ele><time>2026-05-02T08:43:28.479Z</time></trkpt><trkpt lat="46.235498545515796" lon="11.807713713819464"><ele>1166.0</ele><time>2026-05-02T08:43:29.479Z</time></trkpt><trkpt lat="46.23558017417971" lon="11.807795441289755"><ele>1166.0</ele><time>2026-05-02T08:43:30.479Z</time></trkpt><trkpt lat="46.235634846651045" lon="11.807862732728834"><ele>1167.3333333333335</ele><time>2026-05-02T08:43:31.479Z</time></trkpt><trkpt lat="46.23570482768655" lon="11.807825101241516"><ele>1168.6666666666667</ele><time>2026-05-02T08:43:32.479Z</time></trkpt><trkpt lat="46.23575844621219" lon="11.807739747051789"><ele>1170.0</ele><time>2026-05-02T08:43:33.48Z</time></trkpt><trkpt lat="46.23578662302011" lon="11.807625798981304"><ele>1171.3333333333333</ele><time>2026-05-02T08:43:34.48Z</time></trkpt><trkpt lat="46.235744332267686" lon="11.807528838187125"><ele>1172.6666666666665</ele><time>2026-05-02T08:43:35.48Z</time></trkpt><trkpt lat="46.23563212507892" lon="11.80749868557499"><ele>1174.0</ele><time>2026-05-02T08:43:36.48Z</time></trkpt><trkpt lat="46.235540579763274" lon="11.807490068955921"><ele>1182.0</ele><time>2026-05-02T08:43:37.48Z</time></trkpt><trkpt lat="46.2354191180044" lon="11.807486125845806"><ele>1190.0</ele><time>2026-05-02T08:43:38.48Z</time></trkpt><trkpt lat="46.23529231442769" lon="11.80741785154813"><ele>1198.0</ele><time>2026-05-02T08:43:39.48Z</time></trkpt><trkpt lat="46.23514404011326" lon="11.807361865438862"><ele>1206.0</ele><time>2026-05-02T08:43:40.48Z</time></trkpt><trkpt lat="46.235008387511" lon="11.807327410212944"><ele>1206.0</ele><time>2026-05-02T08:43:41.48Z</time></trkpt><trkpt lat="46.23488740539961" lon="11.807297766313962"><ele>1206.0</ele><time>2026-05-02T08:43:42.48Z</time></trkpt><trkpt lat="46.234768550451825" lon="11.807298593749715"><ele>1206.0</ele><time>2026-05-02T08:43:43.48Z</time></trkpt><trkpt lat="46.23466760270957" lon="11.807328593222751"><ele>1206.0</ele><time>2026-05-02T08:43:44.48Z</time></trkpt><trkpt lat="46.234593888181095" lon="11.80736161641106"><ele>1206.0</ele><time>2026-05-02T08:43:45.48Z</time></trkpt><trkpt lat="46.23453081962245" lon="11.807364705527252"><ele>1204.25</ele><time>2026-05-02T08:43:46.48Z</time></trkpt><trkpt lat="46.234473856347776" lon="11.807320948481602"><ele>1202.5</ele><time>2026-05-02T08:43:47.48Z</time></trkpt><trkpt lat="46.234486295554404" lon="11.807135217974398"><ele>1200.75</ele><time>2026-05-02T08:43:49.48Z</time></trkpt><trkpt lat="46.234550863215674" lon="11.807080595879812"><ele>1199.0</ele><time>2026-05-02T08:43:50.48Z</time></trkpt><trkpt lat="46.23472738329957" lon="11.807196688752557"><ele>1200.75</ele><time>2026-05-02T08:43:51.48Z</time></trkpt><trkpt lat="46.23486430662366" lon="11.807202471210616"><ele>1202.5</ele><time>2026-05-02T08:43:52.48Z</time></trkpt><trkpt lat="46.23499418615746" lon="11.807187588580897"><ele>1204.25</ele><time>2026-05-02T08:43:53.48Z</time></trkpt><trkpt lat="46.23512336624832" lon="11.80720427872977"><ele>1206.0</ele><time>2026-05-02T08:43:54.48Z</time></trkpt><trkpt lat="46.23523608177813" lon="11.807204278719682"><ele>1206.0</ele><time>2026-05-02T08:43:55.48Z</time></trkpt><trkpt lat="46.235364266641355" lon="11.807204278721503"><ele>1206.0</ele><time>2026-05-02T08:43:56.48Z</time></trkpt><trkpt lat="46.23547234602279" lon="11.807204278721473"><ele>1206.0</ele><time>2026-05-02T08:43:57.48Z</time></trkpt><trkpt lat="46.23554724517456" lon="11.807207065702311"><ele>1206.0</ele><time>2026-05-02T08:43:58.48Z</time></trkpt><trkpt lat="46.23563733963802" lon="11.807212070943404"><ele>1206.0</ele><time>2026-05-02T08:43:59.48Z</time></trkpt><trkpt lat="46.235732119712154" lon="11.807224288317155"><ele>1206.8</ele><time>2026-05-02T08:44:00.48Z</time></trkpt><trkpt lat="46.23582972536078" lon="11.807239295404036"><ele>1207.6</ele><time>2026-05-02T08:44:01.48Z</time></trkpt><trkpt lat="46.235940331712385" lon="11.807239539546918"><ele>1208.4</ele><time>2026-05-02T08:44:02.48Z</time></trkpt><trkpt lat="46.23605277123327" lon="11.807281726909233"><ele>1209.2</ele><time>2026-05-02T08:44:03.48Z</time></trkpt><trkpt lat="46.23616224596855" lon="11.807286047404435"><ele>1210.0</ele><time>2026-05-02T08:44:04.48Z</time></trkpt><trkpt lat="46.23628859241413" lon="11.80730849212527"><ele>1210.0</ele><time>2026-05-02T08:44:05.48Z</time></trkpt><trkpt lat="46.23641873668419" lon="11.807324109115129"><ele>1210.0</ele><time>2026-05-02T08:44:06.48Z</time></trkpt><trkpt lat="46.23655211016501" lon="11.807306157540204"><ele>1210.0</ele><time>2026-05-02T08:44:07.48Z</time></trkpt><trkpt lat="46.23668686303848" lon="11.807197890346886"><ele>1210.0</ele><time>2026-05-02T08:44:08.48Z</time></trkpt><trkpt lat="46.23680857606558" lon="11.80707463906056"><ele>1210.0</ele><time>2026-05-02T08:44:09.48Z</time></trkpt><trkpt lat="46.23694175173104" lon="11.806940297311883"><ele>1210.0</ele><time>2026-05-02T08:44:10.48Z</time></trkpt><trkpt lat="46.237069121491416" lon="11.806790787490339"><ele>1210.0</ele><time>2026-05-02T08:44:11.48Z</time></trkpt><trkpt lat="46.23716495141806" lon="11.80668826909021"><ele>1210.0</ele><time>2026-05-02T08:44:12.48Z</time></trkpt><trkpt lat="46.23728011828516" lon="11.806586240113036"><ele>1212.0</ele><time>2026-05-02T08:44:13.48Z</time></trkpt><trkpt lat="46.2374065099433" lon="11.80661544663476"><ele>1214.0</ele><time>2026-05-02T08:44:14.48Z</time></trkpt><trkpt lat="46.237506727862375" lon="11.80668572859327"><ele>1216.0</ele><time>2026-05-02T08:44:15.48Z</time></trkpt><trkpt lat="46.23768112903132" lon="11.8067829597809"><ele>1218.0</ele><time>2026-05-02T08:44:16.48Z</time></trkpt><trkpt lat="46.23791387578093" lon="11.8069439134662"><ele>1228.6666666666667</ele><time>2026-05-02T08:44:17.48Z</time></trkpt><trkpt lat="46.2381526727393" lon="11.806824738992114"><ele>1239.3333333333335</ele><time>2026-05-02T08:44:19.48Z</time></trkpt><trkpt lat="46.23820333437966" lon="11.806705049712706"><ele>1250.0</ele><time>2026-05-02T08:44:20.48Z</time></trkpt><trkpt lat="46.23832496518595" lon="11.806600563842025"><ele>1250.0</ele><time>2026-05-02T08:44:21.48Z</time></trkpt><trkpt lat="46.23843444515578" lon="11.806509426252937"><ele>1250.0</ele><time>2026-05-02T08:44:22.48Z</time></trkpt><trkpt lat="46.23854437262415" lon="11.806411264548293"><ele>1250.0</ele><time>2026-05-02T08:44:23.48Z</time></trkpt><trkpt lat="46.23863255363319" lon="11.806348702829341"><ele>1250.0</ele><time>2026-05-02T08:44:24.48Z</time></trkpt><trkpt lat="46.23874963179507" lon="11.806467043466062"><ele>1250.0</ele><time>2026-05-02T08:44:25.48Z</time></trkpt><trkpt lat="46.23885510052602" lon="11.806448924042309"><ele>1250.0</ele><time>2026-05-02T08:44:26.48Z</time></trkpt><trkpt lat="46.23898384791207" lon="11.806410281797113"><ele>1250.0</ele><time>2026-05-02T08:44:27.48Z</time></trkpt><trkpt lat="46.23913021904794" lon="11.806341970384562"><ele>1250.0</ele><time>2026-05-02T08:44:28.48Z</time></trkpt><trkpt lat="46.23932186385408" lon="11.80632653470921"><ele>1251.0</ele><time>2026-05-02T08:44:29.48Z</time></trkpt><trkpt lat="46.2395362456151" lon="11.806408593417551"><ele>1252.0</ele><time>2026-05-02T08:44:30.48Z</time></trkpt><trkpt lat="46.23972739174754" lon="11.806443190229466"><ele>1253.0</ele><time>2026-05-02T08:44:31.48Z</time></trkpt><trkpt lat="46.23989625854793" lon="11.806457250951704"><ele>1253.0</ele><time>2026-05-02T08:44:32.48Z</time></trkpt><trkpt lat="46.24004911318367" lon="11.806476953243823"><ele>1253.0</ele><time>2026-05-02T08:44:33.48Z</time></trkpt><trkpt lat="46.24021650635005" lon="11.806521205503703"><ele>1253.0</ele><time>2026-05-02T08:44:34.48Z</time></trkpt><trkpt lat="46.24033520511621" lon="11.806605380887428"><ele>1253.0</ele><time>2026-05-02T08:44:35.48Z</time></trkpt><trkpt lat="46.2404671699592" lon="11.806669445528243"><ele>1253.0</ele><time>2026-05-02T08:44:36.48Z</time></trkpt><trkpt lat="46.24058659359331" lon="11.806719798590635"><ele>1253.0</ele><time>2026-05-02T08:44:37.48Z</time></trkpt><trkpt lat="46.24070098681423" lon="11.806672406664337"><ele>1253.0</ele><time>2026-05-02T08:44:38.48Z</time></trkpt><trkpt lat="46.24081404220607" lon="11.806613548245375"><ele>1254.3333333333335</ele><time>2026-05-02T08:44:39.48Z</time></trkpt><trkpt lat="46.240949184481416" lon="11.806597682587695"><ele>1255.6666666666667</ele><time>2026-05-02T08:44:40.48Z</time></trkpt><trkpt lat="46.24108518735655" lon="11.806425128780669"><ele>1257.0</ele><time>2026-05-02T08:44:41.48Z</time></trkpt><trkpt lat="46.24126008696867" lon="11.806353563102041"><ele>1257.0</ele><time>2026-05-02T08:44:42.48Z</time></trkpt><trkpt lat="46.241411327549905" lon="11.806339057171238"><ele>1257.0</ele><time>2026-05-02T08:44:43.48Z</time></trkpt><trkpt lat="46.24154448614283" lon="11.806248347532076"><ele>1257.0</ele><time>2026-05-02T08:44:44.48Z</time></trkpt><trkpt lat="46.24167260029709" lon="11.806169299521363"><ele>1257.0</ele><time>2026-05-02T08:44:45.48Z</time></trkpt><trkpt lat="46.24179628724854" lon="11.806122005600745"><ele>1255.8</ele><time>2026-05-02T08:44:46.48Z</time></trkpt><trkpt lat="46.24190468248414" lon="11.806066383780037"><ele>1254.6</ele><time>2026-05-02T08:44:47.48Z</time></trkpt><trkpt lat="46.24199800722669" lon="11.806013704469308"><ele>1253.3999999999999</ele><time>2026-05-02T08:44:48.48Z</time></trkpt><trkpt lat="46.24209849154243" lon="11.805995574778034"><ele>1252.2</ele><time>2026-05-02T08:44:49.48Z</time></trkpt><trkpt lat="46.24217350384968" lon="11.806001902588468"><ele>1251.0</ele><time>2026-05-02T08:44:50.48Z</time></trkpt><trkpt lat="46.24222865580928" lon="11.80593921590526"><ele>1259.4</ele><time>2026-05-02T08:44:51.48Z</time></trkpt><trkpt lat="46.242281151545505" lon="11.805866339715905"><ele>1267.8</ele><time>2026-05-02T08:44:52.48Z</time></trkpt><trkpt lat="46.24225105332517" lon="11.805715620914901"><ele>1276.2</ele><time>2026-05-02T08:44:53.48Z</time></trkpt><trkpt lat="46.24214344929012" lon="11.80564722481281"><ele>1284.6000000000001</ele><time>2026-05-02T08:44:54.48Z</time></trkpt><trkpt lat="46.242040078965736" lon="11.805726896270562"><ele>1293.0</ele><time>2026-05-02T08:44:55.48Z</time></trkpt><trkpt lat="46.241957713821215" lon="11.805777884469089"><ele>1293.0</ele><time>2026-05-02T08:44:56.48Z</time></trkpt><trkpt lat="46.241825313092605" lon="11.80586986370941"><ele>1293.0</ele><time>2026-05-02T08:44:57.48Z</time></trkpt><trkpt lat="46.2416670681993" lon="11.80591882383855"><ele>1293.0</ele><time>2026-05-02T08:44:58.48Z</time></trkpt><trkpt lat="46.241466512622246" lon="11.80594061382616"><ele>1291.6666666666667</ele><time>2026-05-02T08:44:59.48Z</time></trkpt><trkpt lat="46.24128207740532" lon="11.80593316556267"><ele>1290.3333333333335</ele><time>2026-05-02T08:45:00.48Z</time></trkpt><trkpt lat="46.24111640099359" lon="11.805940298790576"><ele>1289.0</ele><time>2026-05-02T08:45:01.48Z</time></trkpt><trkpt lat="46.2409618927947" lon="11.805971152880167"><ele>1281.0</ele><time>2026-05-02T08:45:02.48Z</time></trkpt><trkpt lat="46.24084698914744" lon="11.806056194857645"><ele>1273.0</ele><time>2026-05-02T08:45:03.48Z</time></trkpt><trkpt lat="46.240741053708376" lon="11.806133376159206"><ele>1265.0</ele><time>2026-05-02T08:45:04.48Z</time></trkpt><trkpt lat="46.24063280808117" lon="11.806131120694793"><ele>1257.0</ele><time>2026-05-02T08:45:05.48Z</time></trkpt><trkpt lat="46.240518959336846" lon="11.806107729373894"><ele>1256.2</ele><time>2026-05-02T08:45:06.48Z</time></trkpt><trkpt lat="46.24039787260117" lon="11.80612153237462"><ele>1255.4</ele><time>2026-05-02T08:45:07.48Z</time></trkpt><trkpt lat="46.24028795048934" lon="11.806120229545556"><ele>1254.6</ele><time>2026-05-02T08:45:08.48Z</time></trkpt><trkpt lat="46.240216239155295" lon="11.80610834014532"><ele>1253.8</ele><time>2026-05-02T08:45:09.48Z</time></trkpt><trkpt lat="46.240161576357345" lon="11.806047621751503"><ele>1253.0</ele><time>2026-05-02T08:45:10.48Z</time></trkpt><trkpt lat="46.24017515472067" lon="11.805934511067363"><ele>1258.5</ele><time>2026-05-02T08:45:11.48Z</time></trkpt><trkpt lat="46.2402651140947" lon="11.805875641373074"><ele>1264.0</ele><time>2026-05-02T08:45:13.48Z</time></trkpt><trkpt lat="46.24033271005505" lon="11.805919792906675"><ele>1269.5</ele><time>2026-05-02T08:45:14.48Z</time></trkpt><trkpt lat="46.240407516947435" lon="11.805937378768071"><ele>1275.0</ele><time>2026-05-02T08:45:15.48Z</time></trkpt><trkpt lat="46.24048145251363" lon="11.805956941865496"><ele>1280.5</ele><time>2026-05-02T08:45:16.48Z</time></trkpt><trkpt lat="46.24057957888847" lon="11.805965443678083"><ele>1286.0</ele><time>2026-05-02T08:45:18.48Z</time></trkpt><trkpt lat="46.24068629060972" lon="11.805984282014983"><ele>1286.75</ele><time>2026-05-02T08:45:49.48Z</time></trkpt><trkpt lat="46.24077301112738" lon="11.805949985687553"><ele>1287.5</ele><time>2026-05-02T08:45:50.48Z</time></trkpt><trkpt lat="46.24088772852641" lon="11.805862502010413"><ele>1288.25</ele><time>2026-05-02T08:45:51.48Z</time></trkpt><trkpt lat="46.24100631587361" lon="11.805744646918475"><ele>1289.0</ele><time>2026-05-02T08:45:52.48Z</time></trkpt><trkpt lat="46.24110519902276" lon="11.805657729465402"><ele>1289.0</ele><time>2026-05-02T08:45:53.48Z</time></trkpt><trkpt lat="46.24122904832654" lon="11.805571144120728"><ele>1289.0</ele><time>2026-05-02T08:45:54.48Z</time></trkpt><trkpt lat="46.24136489224476" lon="11.805497172882644"><ele>1289.0</ele><time>2026-05-02T08:45:55.48Z</time></trkpt><trkpt lat="46.241495672505835" lon="11.805460214409678"><ele>1289.0</ele><time>2026-05-02T08:45:56.48Z</time></trkpt><trkpt lat="46.24162565999409" lon="11.805432641841602"><ele>1290.0</ele><time>2026-05-02T08:45:57.48Z</time></trkpt><trkpt lat="46.24176659865314" lon="11.805379921804585"><ele>1291.0</ele><time>2026-05-02T08:45:58.48Z</time></trkpt><trkpt lat="46.24189319265736" lon="11.805306079512478"><ele>1292.0</ele><time>2026-05-02T08:45:59.48Z</time></trkpt><trkpt lat="46.24196866377093" lon="11.805194215900064"><ele>1293.0</ele><time>2026-05-02T08:46:00.48Z</time></trkpt><trkpt lat="46.24207112199204" lon="11.805152238398236"><ele>1293.0</ele><time>2026-05-02T08:46:01.48Z</time></trkpt><trkpt lat="46.24220243120595" lon="11.80516860734225"><ele>1293.0</ele><time>2026-05-02T08:46:02.48Z</time></trkpt><trkpt lat="46.24235663586357" lon="11.805274321811623"><ele>1293.0</ele><time>2026-05-02T08:46:03.48Z</time></trkpt><trkpt lat="46.242492494682836" lon="11.805339042974767"><ele>1293.0</ele><time>2026-05-02T08:46:04.48Z</time></trkpt><trkpt lat="46.242607519965894" lon="11.805393173696139"><ele>1292.0</ele><time>2026-05-02T08:46:05.48Z</time></trkpt><trkpt lat="46.242709683004406" lon="11.80540866889625"><ele>1291.0</ele><time>2026-05-02T08:46:06.48Z</time></trkpt><trkpt lat="46.24282135716779" lon="11.805387303390187"><ele>1290.0</ele><time>2026-05-02T08:46:07.48Z</time></trkpt><trkpt lat="46.242938247241526" lon="11.805311555040666"><ele>1289.0</ele><time>2026-05-02T08:46:08.48Z</time></trkpt><trkpt lat="46.2430446913708" lon="11.80517651334702"><ele>1299.75</ele><time>2026-05-02T08:46:09.48Z</time></trkpt><trkpt lat="46.24313348181351" lon="11.805075074638115"><ele>1310.5</ele><time>2026-05-02T08:46:10.48Z</time></trkpt><trkpt lat="46.243259171882734" lon="11.805048395142071"><ele>1321.25</ele><time>2026-05-02T08:46:11.48Z</time></trkpt><trkpt lat="46.2433918138609" lon="11.80506986321582"><ele>1332.0</ele><time>2026-05-02T08:46:12.48Z</time></trkpt><trkpt lat="46.243541692706444" lon="11.80508808447342"><ele>1332.0</ele><time>2026-05-02T08:46:13.48Z</time></trkpt><trkpt lat="46.2436915060107" lon="11.805077524432223"><ele>1332.0</ele><time>2026-05-02T08:46:14.48Z</time></trkpt><trkpt lat="46.24385368448514" lon="11.805026158782583"><ele>1332.0</ele><time>2026-05-02T08:46:15.48Z</time></trkpt><trkpt lat="46.24403334762727" lon="11.804928457664554"><ele>1317.0</ele><time>2026-05-02T08:46:16.48Z</time></trkpt><trkpt lat="46.24423610428482" lon="11.8048339848652"><ele>1302.0</ele><time>2026-05-02T08:46:17.48Z</time></trkpt><trkpt lat="46.24446996473263" lon="11.804696627567884"><ele>1302.0</ele><time>2026-05-02T08:46:18.48Z</time></trkpt><trkpt lat="46.24472753001625" lon="11.804566391112106"><ele>1302.0</ele><time>2026-05-02T08:46:19.48Z</time></trkpt><trkpt lat="46.24498150840561" lon="11.804452450847757"><ele>1311.3333333333333</ele><time>2026-05-02T08:46:20.48Z</time></trkpt><trkpt lat="46.24517390526417" lon="11.804322624002733"><ele>1320.6666666666665</ele><time>2026-05-02T08:46:21.48Z</time></trkpt><trkpt lat="46.24537954023401" lon="11.804294947774821"><ele>1330.0</ele><time>2026-05-02T08:46:22.48Z</time></trkpt><trkpt lat="46.24555134022713" lon="11.804219760933494"><ele>1328.6666666666665</ele><time>2026-05-02T08:46:23.48Z</time></trkpt><trkpt lat="46.2457284202355" lon="11.804079692966452"><ele>1327.3333333333333</ele><time>2026-05-02T08:46:24.48Z</time></trkpt><trkpt lat="46.24590611419388" lon="11.803926420984183"><ele>1326.0</ele><time>2026-05-02T08:46:25.48Z</time></trkpt><trkpt lat="46.24605568994191" lon="11.803811335002631"><ele>1326.0</ele><time>2026-05-02T08:46:26.48Z</time></trkpt><trkpt lat="46.24620016138929" lon="11.803752910928418"><ele>1326.0</ele><time>2026-05-02T08:46:27.48Z</time></trkpt><trkpt lat="46.24635204711612" lon="11.803711283977327"><ele>1326.0</ele><time>2026-05-02T08:46:28.48Z</time></trkpt><trkpt lat="46.24647018491907" lon="11.803557437997414"><ele>1331.6</ele><time>2026-05-02T08:46:29.48Z</time></trkpt><trkpt lat="46.24656806286418" lon="11.803436180354742"><ele>1337.1999999999998</ele><time>2026-05-02T08:46:30.48Z</time></trkpt><trkpt lat="46.24666814685665" lon="11.803354055452056"><ele>1342.8000000000002</ele><time>2026-05-02T08:46:31.48Z</time></trkpt><trkpt lat="46.24675625426968" lon="11.803330739006512"><ele>1348.4</ele><time>2026-05-02T08:46:32.48Z</time></trkpt><trkpt lat="46.24685617850456" lon="11.80337840248317"><ele>1354.0</ele><time>2026-05-02T08:46:33.48Z</time></trkpt><trkpt lat="46.246963981119464" lon="11.803474852921523"><ele>1352.75</ele><time>2026-05-02T08:46:34.48Z</time></trkpt><trkpt lat="46.247092032691945" lon="11.803525643276064"><ele>1351.5</ele><time>2026-05-02T08:46:35.48Z</time></trkpt><trkpt lat="46.24723479273905" lon="11.803511562792744"><ele>1350.25</ele><time>2026-05-02T08:46:36.48Z</time></trkpt><trkpt lat="46.24736432181631" lon="11.803350374252446"><ele>1349.0</ele><time>2026-05-02T08:46:37.48Z</time></trkpt><trkpt lat="46.247501379540864" lon="11.803304929330448"><ele>1349.0</ele><time>2026-05-02T08:46:38.48Z</time></trkpt><trkpt lat="46.24764547388774" lon="11.803275708774969"><ele>1349.0</ele><time>2026-05-02T08:46:39.48Z</time></trkpt><trkpt lat="46.24779838954953" lon="11.803259584172732"><ele>1349.0</ele><time>2026-05-02T08:46:40.48Z</time></trkpt><trkpt lat="46.24793579947922" lon="11.803268156283668"><ele>1349.0</ele><time>2026-05-02T08:46:41.48Z</time></trkpt><trkpt lat="46.248067286467084" lon="11.803271758689693"><ele>1347.3333333333335</ele><time>2026-05-02T08:46:42.48Z</time></trkpt><trkpt lat="46.2482136085729" lon="11.803236949703379"><ele>1345.6666666666667</ele><time>2026-05-02T08:46:43.48Z</time></trkpt><trkpt lat="46.24836283800999" lon="11.803130358690074"><ele>1344.0</ele><time>2026-05-02T08:46:44.48Z</time></trkpt><trkpt lat="46.24852039209446" lon="11.802977330140957"><ele>1344.0</ele><time>2026-05-02T08:46:45.48Z</time></trkpt><trkpt lat="46.24869032857397" lon="11.80283740601677"><ele>1344.0</ele><time>2026-05-02T08:46:46.48Z</time></trkpt><trkpt lat="46.24889451682625" lon="11.802724562473928"><ele>1344.0</ele><time>2026-05-02T08:46:47.48Z</time></trkpt><trkpt lat="46.24910729371791" lon="11.802605900348235"><ele>1352.6666666666667</ele><time>2026-05-02T08:46:48.48Z</time></trkpt><trkpt lat="46.24928727873318" lon="11.802488440942371"><ele>1361.3333333333335</ele><time>2026-05-02T08:46:49.48Z</time></trkpt><trkpt lat="46.24942379186702" lon="11.80236023674397"><ele>1370.0</ele><time>2026-05-02T08:46:50.48Z</time></trkpt><trkpt lat="46.24955697099291" lon="11.802274895135447"><ele>1370.0</ele><time>2026-05-02T08:46:51.48Z</time></trkpt><trkpt lat="46.24968647005378" lon="11.802225634630075"><ele>1370.0</ele><time>2026-05-02T08:46:52.48Z</time></trkpt><trkpt lat="46.24981877548671" lon="11.802253116316395"><ele>1370.0</ele><time>2026-05-02T08:46:53.48Z</time></trkpt><trkpt lat="46.24997353669817" lon="11.802296026300702"><ele>1370.0</ele><time>2026-05-02T08:46:54.48Z</time></trkpt><trkpt lat="46.25017420287175" lon="11.802261127753447"><ele>1369.3333333333335</ele><time>2026-05-02T08:46:55.48Z</time></trkpt><trkpt lat="46.250378508971835" lon="11.802251289982523"><ele>1368.6666666666667</ele><time>2026-05-02T08:46:56.48Z</time></trkpt><trkpt lat="46.250605984508184" lon="11.802280053285871"><ele>1368.0</ele><time>2026-05-02T08:46:57.48Z</time></trkpt><trkpt lat="46.25085487048861" lon="11.802319740398792"><ele>1368.0</ele><time>2026-05-02T08:46:58.48Z</time></trkpt><trkpt lat="46.251122840436395" lon="11.802328351349194"><ele>1368.0</ele><time>2026-05-02T08:46:59.48Z</time></trkpt><trkpt lat="46.251360252615314" lon="11.80232785042512"><ele>1369.6666666666667</ele><time>2026-05-02T08:47:00.48Z</time></trkpt><trkpt lat="46.25156906341901" lon="11.802346522754794"><ele>1371.3333333333335</ele><time>2026-05-02T08:47:01.48Z</time></trkpt><trkpt lat="46.251759317376404" lon="11.802368357252584"><ele>1373.0</ele><time>2026-05-02T08:47:02.48Z</time></trkpt><trkpt lat="46.25194091253388" lon="11.802333624288398"><ele>1373.0</ele><time>2026-05-02T08:47:03.48Z</time></trkpt><trkpt lat="46.252087155868665" lon="11.802357136460719"><ele>1373.0</ele><time>2026-05-02T08:47:04.48Z</time></trkpt><trkpt lat="46.25222816486384" lon="11.80238236270434"><ele>1373.0</ele><time>2026-05-02T08:47:05.48Z</time></trkpt><trkpt lat="46.25237062838052" lon="11.80240716521636"><ele>1373.0</ele><time>2026-05-02T08:47:06.48Z</time></trkpt><trkpt lat="46.25253859916733" lon="11.80242266905258"><ele>1373.6666666666667</ele><time>2026-05-02T08:47:07.48Z</time></trkpt><trkpt lat="46.252724021726635" lon="11.802453874277854"><ele>1374.3333333333333</ele><time>2026-05-02T08:47:08.48Z</time></trkpt><trkpt lat="46.25291118903148" lon="11.802533932722415"><ele>1375.0</ele><time>2026-05-02T08:47:09.48Z</time></trkpt><trkpt lat="46.25310111521163" lon="11.802560882807624"><ele>1378.0</ele><time>2026-05-02T08:47:10.48Z</time></trkpt><trkpt lat="46.25328005485156" lon="11.80258781546143"><ele>1381.0</ele><time>2026-05-02T08:47:11.48Z</time></trkpt><trkpt lat="46.25344080214542" lon="11.802612012460353"><ele>1384.0</ele><time>2026-05-02T08:47:12.48Z</time></trkpt><trkpt lat="46.25359559010503" lon="11.802635312397445"><ele>1384.0</ele><time>2026-05-02T08:47:13.48Z</time></trkpt><trkpt lat="46.253745224708695" lon="11.802653682226786"><ele>1384.0</ele><time>2026-05-02T08:47:14.48Z</time></trkpt><trkpt lat="46.25388296518022" lon="11.802653332786567"><ele>1384.0</ele><time>2026-05-02T08:47:15.48Z</time></trkpt><trkpt lat="46.25399544323977" lon="11.802675898733941"><ele>1384.0</ele><time>2026-05-02T08:47:16.48Z</time></trkpt><trkpt lat="46.254100694802766" lon="11.802655013791869"><ele>1385.75</ele><time>2026-05-02T08:47:17.48Z</time></trkpt><trkpt lat="46.25419675097534" lon="11.802580683529241"><ele>1387.5</ele><time>2026-05-02T08:47:18.48Z</time></trkpt><trkpt lat="46.25422912801365" lon="11.80238345257521"><ele>1389.25</ele><time>2026-05-02T08:47:19.48Z</time></trkpt><trkpt lat="46.25426331795824" lon="11.802198201269707"><ele>1391.0</ele><time>2026-05-02T08:47:20.48Z</time></trkpt><trkpt lat="46.25432293819006" lon="11.80200065822996"><ele>1392.75</ele><time>2026-05-02T08:47:21.48Z</time></trkpt><trkpt lat="46.254378580198306" lon="11.80182794525739"><ele>1394.5</ele><time>2026-05-02T08:47:22.48Z</time></trkpt><trkpt lat="46.25444710772659" lon="11.801705503397057"><ele>1396.25</ele><time>2026-05-02T08:47:23.48Z</time></trkpt><trkpt lat="46.25451997514519" lon="11.801583242083499"><ele>1398.0</ele><time>2026-05-02T08:47:24.48Z</time></trkpt><trkpt lat="46.254587703576874" lon="11.801457659010026"><ele>1398.0</ele><time>2026-05-02T08:47:25.48Z</time></trkpt><trkpt lat="46.25463970936877" lon="11.801298628129455"><ele>1398.0</ele><time>2026-05-02T08:47:26.48Z</time></trkpt><trkpt lat="46.25464694341435" lon="11.801097202825625"><ele>1398.0</ele><time>2026-05-02T08:47:27.48Z</time></trkpt><trkpt lat="46.25466630919449" lon="11.80087047606175"><ele>1398.0</ele><time>2026-05-02T08:47:28.48Z</time></trkpt><trkpt lat="46.254680732091735" lon="11.800620947846756"><ele>1399.5</ele><time>2026-05-02T08:47:29.48Z</time></trkpt><trkpt lat="46.254689678933524" lon="11.80039564768263"><ele>1401.0</ele><time>2026-05-02T08:47:30.48Z</time></trkpt><trkpt lat="46.25469398561233" lon="11.800196826920883"><ele>1402.5</ele><time>2026-05-02T08:47:31.48Z</time></trkpt><trkpt lat="46.25471824729308" lon="11.800013005263876"><ele>1404.0</ele><time>2026-05-02T08:47:32.48Z</time></trkpt><trkpt lat="46.25473264525543" lon="11.799852716633481"><ele>1404.6</ele><time>2026-05-02T08:47:33.48Z</time></trkpt><trkpt lat="46.25477749515506" lon="11.799717083011657"><ele>1405.2</ele><time>2026-05-02T08:47:34.48Z</time></trkpt><trkpt lat="46.254835054854865" lon="11.799604522741758"><ele>1405.8</ele><time>2026-05-02T08:47:35.48Z</time></trkpt><trkpt lat="46.25493308372413" lon="11.79953682180627"><ele>1406.3999999999999</ele><time>2026-05-02T08:47:36.48Z</time></trkpt><trkpt lat="46.25505273392399" lon="11.799541340921825"><ele>1407.0</ele><time>2026-05-02T08:47:37.48Z</time></trkpt><trkpt lat="46.255157664437654" lon="11.799601758626242"><ele>1405.0</ele><time>2026-05-02T08:47:38.48Z</time></trkpt><trkpt lat="46.255249525769585" lon="11.799706908889263"><ele>1403.0</ele><time>2026-05-02T08:47:39.48Z</time></trkpt><trkpt lat="46.25533368775521" lon="11.79984322163643"><ele>1401.0</ele><time>2026-05-02T08:47:40.48Z</time></trkpt><trkpt lat="46.25541880139948" lon="11.79997122639521"><ele>1399.0</ele><time>2026-05-02T08:47:41.48Z</time></trkpt><trkpt lat="46.255510376839986" lon="11.800094903395095"><ele>1399.0</ele><time>2026-05-02T08:47:42.48Z</time></trkpt><trkpt lat="46.25555579845906" lon="11.800228869896468"><ele>1399.0</ele><time>2026-05-02T08:47:43.48Z</time></trkpt><trkpt lat="46.25557111589484" lon="11.800389137871777"><ele>1399.0</ele><time>2026-05-02T08:47:44.48Z</time></trkpt><trkpt lat="46.25557794860602" lon="11.800553025949009"><ele>1399.0</ele><time>2026-05-02T08:47:45.48Z</time></trkpt><trkpt lat="46.2555789399201" lon="11.800739791425588"><ele>1399.0</ele><time>2026-05-02T08:47:46.48Z</time></trkpt><trkpt lat="46.255611631202235" lon="11.800952162578964"><ele>1399.0</ele><time>2026-05-02T08:47:47.48Z</time></trkpt><trkpt lat="46.255657841833106" lon="11.801177372752502"><ele>1399.0</ele><time>2026-05-02T08:47:48.48Z</time></trkpt><trkpt lat="46.2556954515071" lon="11.801401491696128"><ele>1403.5</ele><time>2026-05-02T08:47:49.48Z</time></trkpt><trkpt lat="46.25572759849778" lon="11.801613833960724"><ele>1408.0</ele><time>2026-05-02T08:47:50.48Z</time></trkpt><trkpt lat="46.25577164798724" lon="11.801819596410578"><ele>1412.5</ele><time>2026-05-02T08:47:51.48Z</time></trkpt><trkpt lat="46.25582326742811" lon="11.802022798997124"><ele>1417.0</ele><time>2026-05-02T08:47:52.48Z</time></trkpt><trkpt lat="46.25590393322328" lon="11.802219077966146"><ele>1417.0</ele><time>2026-05-02T08:47:53.48Z</time></trkpt><trkpt lat="46.255996376755775" lon="11.802418330964876"><ele>1417.0</ele><time>2026-05-02T08:47:54.48Z</time></trkpt><trkpt lat="46.25606932410045" lon="11.802595800941255"><ele>1417.0</ele><time>2026-05-02T08:47:55.48Z</time></trkpt><trkpt lat="46.256142765589054" lon="11.802754051747732"><ele>1417.0</ele><time>2026-05-02T08:47:56.48Z</time></trkpt><trkpt lat="46.256226574179585" lon="11.802870308333462"><ele>1418.75</ele><time>2026-05-02T08:47:57.48Z</time></trkpt><trkpt lat="46.256325662071426" lon="11.802958733927646"><ele>1420.5</ele><time>2026-05-02T08:47:58.48Z</time></trkpt><trkpt lat="46.25643525459465" lon="11.803036205204172"><ele>1422.25</ele><time>2026-05-02T08:47:59.48Z</time></trkpt><trkpt lat="46.256533619832446" lon="11.803116890979052"><ele>1424.0</ele><time>2026-05-02T08:48:00.48Z</time></trkpt><trkpt lat="46.256638987656316" lon="11.803202548475145"><ele>1424.0</ele><time>2026-05-02T08:48:01.48Z</time></trkpt><trkpt lat="46.25674375942748" lon="11.803253595810546"><ele>1424.0</ele><time>2026-05-02T08:48:02.48Z</time></trkpt><trkpt lat="46.25683741246466" lon="11.803239583887231"><ele>1424.0</ele><time>2026-05-02T08:48:03.48Z</time></trkpt><trkpt lat="46.25690976938901" lon="11.803162827029112"><ele>1424.0</ele><time>2026-05-02T08:48:04.48Z</time></trkpt><trkpt lat="46.256954923080876" lon="11.803030670078623"><ele>1424.0</ele><time>2026-05-02T08:48:05.48Z</time></trkpt><trkpt lat="46.256969803162086" lon="11.802880189553333"><ele>1424.0</ele><time>2026-05-02T08:48:06.48Z</time></trkpt><trkpt lat="46.256896263297975" lon="11.80273981034195"><ele>1424.0</ele><time>2026-05-02T08:48:07.48Z</time></trkpt><trkpt lat="46.25685273244792" lon="11.80263019000481"><ele>1424.0</ele><time>2026-05-02T08:48:08.48Z</time></trkpt><trkpt lat="46.256810589284406" lon="11.802524639870246"><ele>1424.0</ele><time>2026-05-02T08:48:09.48Z</time></trkpt><trkpt lat="46.25678885699617" lon="11.802412795851675"><ele>1424.0</ele><time>2026-05-02T08:48:10.48Z</time></trkpt><trkpt lat="46.25678605632265" lon="11.802307936805965"><ele>1424.0</ele><time>2026-05-02T08:48:11.48Z</time></trkpt><trkpt lat="46.25683654872059" lon="11.802218086685912"><ele>1426.0</ele><time>2026-05-02T08:48:12.48Z</time></trkpt><trkpt lat="46.25692821309772" lon="11.802169637208657"><ele>1428.0</ele><time>2026-05-02T08:48:13.48Z</time></trkpt><trkpt lat="46.257036386404216" lon="11.802179149219535"><ele>1430.0</ele><time>2026-05-02T08:48:14.48Z</time></trkpt><trkpt lat="46.25714995485783" lon="11.802251595868233"><ele>1432.0</ele><time>2026-05-02T08:48:15.48Z</time></trkpt><trkpt lat="46.25724824732768" lon="11.802338044342891"><ele>1434.0</ele><time>2026-05-02T08:48:16.48Z</time></trkpt><trkpt lat="46.25734515072571" lon="11.802414132877384"><ele>1434.75</ele><time>2026-05-02T08:48:17.48Z</time></trkpt><trkpt lat="46.25744238566281" lon="11.802492794717425"><ele>1435.5</ele><time>2026-05-02T08:48:18.48Z</time></trkpt><trkpt lat="46.25755987462627" lon="11.80254022144584"><ele>1436.25</ele><time>2026-05-02T08:48:19.48Z</time></trkpt><trkpt lat="46.25768680730654" lon="11.802555331356409"><ele>1437.0</ele><time>2026-05-02T08:48:20.48Z</time></trkpt><trkpt lat="46.25784352266045" lon="11.802568685049211"><ele>1437.0</ele><time>2026-05-02T08:48:21.48Z</time></trkpt><trkpt lat="46.2579977927801" lon="11.802586428956769"><ele>1437.0</ele><time>2026-05-02T08:48:22.48Z</time></trkpt><trkpt lat="46.25812784954555" lon="11.802594333187988"><ele>1437.0</ele><time>2026-05-02T08:48:23.48Z</time></trkpt><trkpt lat="46.258249101768854" lon="11.802590818808875"><ele>1437.0</ele><time>2026-05-02T08:48:24.48Z</time></trkpt><trkpt lat="46.258364873549695" lon="11.802583867699342"><ele>1438.25</ele><time>2026-05-02T08:48:25.48Z</time></trkpt><trkpt lat="46.2584785208694" lon="11.802568917376579"><ele>1439.5</ele><time>2026-05-02T08:48:26.48Z</time></trkpt><trkpt lat="46.2585948140461" lon="11.80255507563714"><ele>1440.75</ele><time>2026-05-02T08:48:27.48Z</time></trkpt><trkpt lat="46.258711040798794" lon="11.80253917393539"><ele>1442.0</ele><time>2026-05-02T08:48:28.48Z</time></trkpt><trkpt lat="46.25883666367383" lon="11.80251590898288"><ele>1442.5</ele><time>2026-05-02T08:48:29.48Z</time></trkpt><trkpt lat="46.25896955909253" lon="11.802476961936362"><ele>1443.0</ele><time>2026-05-02T08:48:30.48Z</time></trkpt><trkpt lat="46.259093988280895" lon="11.802427442949654"><ele>1443.5</ele><time>2026-05-02T08:48:31.48Z</time></trkpt><trkpt lat="46.2592178385919" lon="11.802388931743478"><ele>1444.0</ele><time>2026-05-02T08:48:32.48Z</time></trkpt><trkpt lat="46.25933582437346" lon="11.802343755088566"><ele>1444.0</ele><time>2026-05-02T08:48:33.48Z</time></trkpt><trkpt lat="46.25944547302672" lon="11.80229691913863"><ele>1444.0</ele><time>2026-05-02T08:48:34.48Z</time></trkpt><trkpt lat="46.25955047424794" lon="11.802248484868464"><ele>1444.0</ele><time>2026-05-02T08:48:35.48Z</time></trkpt><trkpt lat="46.25966043111522" lon="11.802204461301661"><ele>1444.0</ele><time>2026-05-02T08:48:36.48Z</time></trkpt><trkpt lat="46.259765661678685" lon="11.802138966171063"><ele>1443.5</ele><time>2026-05-02T08:48:37.48Z</time></trkpt><trkpt lat="46.25987645208484" lon="11.802047049498604"><ele>1443.0</ele><time>2026-05-02T08:48:38.48Z</time></trkpt><trkpt lat="46.25997697468311" lon="11.801939986050229"><ele>1442.5</ele><time>2026-05-02T08:48:39.48Z</time></trkpt><trkpt lat="46.26007133108386" lon="11.801787292898556"><ele>1442.0</ele><time>2026-05-02T08:48:40.48Z</time></trkpt><trkpt lat="46.26014552125249" lon="11.801628422722562"><ele>1444.5</ele><time>2026-05-02T08:48:41.48Z</time></trkpt><trkpt lat="46.26018466601226" lon="11.801464332799144"><ele>1447.0</ele><time>2026-05-02T08:48:42.48Z</time></trkpt><trkpt lat="46.26021993442304" lon="11.80131234878827"><ele>1449.5</ele><time>2026-05-02T08:48:43.48Z</time></trkpt><trkpt lat="46.26029181876348" lon="11.801186737312069"><ele>1452.0</ele><time>2026-05-02T08:48:44.48Z</time></trkpt><trkpt lat="46.260396393590064" lon="11.801112179495611"><ele>1452.0</ele><time>2026-05-02T08:48:45.48Z</time></trkpt><trkpt lat="46.26048844143486" lon="11.80103887060043"><ele>1452.0</ele><time>2026-05-02T08:48:46.48Z</time></trkpt><trkpt lat="46.260589907446466" lon="11.800958890409046"><ele>1452.0</ele><time>2026-05-02T08:48:47.48Z</time></trkpt><trkpt lat="46.26068654344541" lon="11.8008632141631"><ele>1452.0</ele><time>2026-05-02T08:48:48.48Z</time></trkpt><trkpt lat="46.2607785200643" lon="11.800813898339111"><ele>1452.0</ele><time>2026-05-02T08:48:49.48Z</time></trkpt><trkpt lat="46.260860662556865" lon="11.800752208184146"><ele>1453.1666666666667</ele><time>2026-05-02T08:48:50.48Z</time></trkpt><trkpt lat="46.26092006909163" lon="11.800712001030679"><ele>1454.3333333333333</ele><time>2026-05-02T08:48:51.48Z</time></trkpt><trkpt lat="46.260980983053855" lon="11.800674476956441"><ele>1455.5</ele><time>2026-05-02T08:48:52.48Z</time></trkpt><trkpt lat="46.26108861080253" lon="11.800625714192977"><ele>1456.6666666666665</ele><time>2026-05-02T08:48:54.48Z</time></trkpt><trkpt lat="46.26115658999888" lon="11.80060624743988"><ele>1457.8333333333333</ele><time>2026-05-02T08:48:55.48Z</time></trkpt><trkpt lat="46.26126573729432" lon="11.800583016768352"><ele>1459.0</ele><time>2026-05-02T08:48:57.48Z</time></trkpt><trkpt lat="46.261372474197074" lon="11.800560633656081"><ele>1459.6666666666665</ele><time>2026-05-02T08:48:59.48Z</time></trkpt><trkpt lat="46.26147610616629" lon="11.800539567982682"><ele>1460.3333333333333</ele><time>2026-05-02T08:49:01.48Z</time></trkpt><trkpt lat="46.26156224885957" lon="11.800531677384612"><ele>1461.0</ele><time>2026-05-02T08:49:03.48Z</time></trkpt><trkpt lat="46.26163987262344" lon="11.800537044450452"><ele>1461.6666666666667</ele><time>2026-05-02T08:49:05.48Z</time></trkpt><trkpt lat="46.26172345421255" lon="11.800560057249124"><ele>1462.3333333333335</ele><time>2026-05-02T08:49:08.48Z</time></trkpt><trkpt lat="46.26179168576368" lon="11.800488615439718"><ele>1463.0</ele><time>2026-05-02T08:49:10.48Z</time></trkpt><trkpt lat="46.26186997740712" lon="11.800413952385421"><ele>1463.0</ele><time>2026-05-02T08:49:13.48Z</time></trkpt><trkpt lat="46.26196183035115" lon="11.80041210868821"><ele>1463.0</ele><time>2026-05-02T08:49:15.48Z</time></trkpt><trkpt lat="46.26207025994644" lon="11.80037008589774"><ele>1463.0</ele><time>2026-05-02T08:49:17.48Z</time></trkpt><trkpt lat="46.26216103137702" lon="11.800314526185435"><ele>1463.0</ele><time>2026-05-02T08:49:19.48Z</time></trkpt><trkpt lat="46.26225075920535" lon="11.800397832724716"><ele>1463.0</ele><time>2026-05-02T08:49:20.48Z</time></trkpt><trkpt lat="46.26235250679387" lon="11.80040229458609"><ele>1463.7142857142858</ele><time>2026-05-02T08:49:22.48Z</time></trkpt><trkpt lat="46.26241657441882" lon="11.800404732949627"><ele>1464.4285714285716</ele><time>2026-05-02T08:49:23.48Z</time></trkpt><trkpt lat="46.26248055531542" lon="11.800407970082908"><ele>1465.142857142857</ele><time>2026-05-02T08:49:24.48Z</time></trkpt><trkpt lat="46.26255248598279" lon="11.80039016528401"><ele>1465.857142857143</ele><time>2026-05-02T08:49:25.48Z</time></trkpt><trkpt lat="46.26262240264064" lon="11.800388752988376"><ele>1466.5714285714287</ele><time>2026-05-02T08:49:26.48Z</time></trkpt><trkpt lat="46.2626966991686" lon="11.800410039050853"><ele>1467.2857142857142</ele><time>2026-05-02T08:49:27.48Z</time></trkpt><trkpt lat="46.26278389860096" lon="11.800401068310203"><ele>1468.0</ele><time>2026-05-02T08:49:28.48Z</time></trkpt><trkpt lat="46.262869871846156" lon="11.800386330126772"><ele>1468.0</ele><time>2026-05-02T08:49:29.48Z</time></trkpt><trkpt lat="46.263000018439264" lon="11.800359868063007"><ele>1468.0</ele><time>2026-05-02T08:49:30.48Z</time></trkpt><trkpt lat="46.26308072884676" lon="11.800334995798531"><ele>1468.0</ele><time>2026-05-02T08:49:31.48Z</time></trkpt><trkpt lat="46.26317474602259" lon="11.80029469670727"><ele>1468.0</ele><time>2026-05-02T08:49:32.48Z</time></trkpt><trkpt lat="46.26327366454593" lon="11.800252552899067"><ele>1468.0</ele><time>2026-05-02T08:49:33.48Z</time></trkpt><trkpt lat="46.26337016302638" lon="11.800204144250621"><ele>1470.0</ele><time>2026-05-02T08:49:34.48Z</time></trkpt><trkpt lat="46.26347669104043" lon="11.800191296564554"><ele>1472.0</ele><time>2026-05-02T08:49:35.48Z</time></trkpt><trkpt lat="46.26358428145083" lon="11.800206432177662"><ele>1474.0</ele><time>2026-05-02T08:49:36.48Z</time></trkpt><trkpt lat="46.26367750720577" lon="11.800233813602764"><ele>1476.0</ele><time>2026-05-02T08:49:37.48Z</time></trkpt><trkpt lat="46.26378468405896" lon="11.800255652984205"><ele>1478.0</ele><time>2026-05-02T08:49:38.48Z</time></trkpt><trkpt lat="46.2638758313263" lon="11.800333334582852"><ele>1480.3333333333335</ele><time>2026-05-02T08:49:39.48Z</time></trkpt><trkpt lat="46.26397123869" lon="11.800388307331957"><ele>1482.6666666666667</ele><time>2026-05-02T08:49:40.48Z</time></trkpt><trkpt lat="46.26404949746073" lon="11.8004302503882"><ele>1485.0</ele><time>2026-05-02T08:49:41.48Z</time></trkpt><trkpt lat="46.2641108274744" lon="11.80046398787486"><ele>1487.3333333333333</ele><time>2026-05-02T08:49:42.48Z</time></trkpt><trkpt lat="46.264201508627" lon="11.800523911527188"><ele>1489.6666666666665</ele><time>2026-05-02T08:49:44.48Z</time></trkpt><trkpt lat="46.26425745859358" lon="11.800568060376094"><ele>1492.0</ele><time>2026-05-02T08:49:46.48Z</time></trkpt><trkpt lat="46.264190616049746" lon="11.800744201685204"><ele>1492.0</ele><time>2026-05-02T08:49:47.48Z</time></trkpt><trkpt lat="46.264178987409494" lon="11.800844381718717"><ele>1492.0</ele><time>2026-05-02T08:49:48.48Z</time></trkpt><trkpt lat="46.264130053005246" lon="11.800981706584256"><ele>1492.0</ele><time>2026-05-02T08:49:50.48Z</time></trkpt><trkpt lat="46.26407569830219" lon="11.801077118276298"><ele>1492.0</ele><time>2026-05-02T08:49:52.481Z</time></trkpt><trkpt lat="46.26401146694555" lon="11.80114766658923"><ele>1492.0</ele><time>2026-05-02T08:49:55.481Z</time></trkpt><trkpt lat="46.26392362242001" lon="11.801470112345784"><ele>1492.0</ele><time>2026-05-02T08:49:58.481Z</time></trkpt><trkpt lat="46.263958444353015" lon="11.801625015727927"><ele>1492.0</ele><time>2026-05-02T08:49:59.481Z</time></trkpt><trkpt lat="46.263982445867725" lon="11.801735465534465"><ele>1492.0</ele><time>2026-05-02T08:50:00.481Z</time></trkpt><trkpt lat="46.263993732770636" lon="11.801832796105456"><ele>1492.0</ele><time>2026-05-02T08:50:01.481Z</time></trkpt><trkpt lat="46.264016119560736" lon="11.801978815499975"><ele>1492.0</ele><time>2026-05-02T08:50:02.481Z</time></trkpt><trkpt lat="46.26402682690599" lon="11.802088288192689"><ele>1492.0</ele><time>2026-05-02T08:50:03.481Z</time></trkpt><trkpt lat="46.264473947840585" lon="11.802127066621246"><ele>1492.0</ele><time>2026-05-02T08:50:04.481Z</time></trkpt><trkpt lat="46.264521125356616" lon="11.802255017641267"><ele>1492.0</ele><time>2026-05-02T08:50:05.481Z</time></trkpt><trkpt lat="46.264543873433" lon="11.80238371988028"><ele>1492.0</ele><time>2026-05-02T08:50:06.481Z</time></trkpt><trkpt lat="46.26455500576988" lon="11.802530952648137"><ele>1492.0</ele><time>2026-05-02T08:50:07.481Z</time></trkpt><trkpt lat="46.26456963646489" lon="11.802676104381547"><ele>1492.0</ele><time>2026-05-02T08:50:08.481Z</time></trkpt><trkpt lat="46.26459887965097" lon="11.802823595511446"><ele>1492.0</ele><time>2026-05-02T08:50:09.481Z</time></trkpt><trkpt lat="46.2646530052513" lon="11.802944792651592"><ele>1492.0</ele><time>2026-05-02T08:50:10.481Z</time></trkpt><trkpt lat="46.264723268315905" lon="11.8030422650724"><ele>1492.0</ele><time>2026-05-02T08:50:11.481Z</time></trkpt><trkpt lat="46.26479799333709" lon="11.803132415426933"><ele>1492.0</ele><time>2026-05-02T08:50:12.481Z</time></trkpt><trkpt lat="46.26485679722996" lon="11.803211176861867"><ele>1492.0</ele><time>2026-05-02T08:50:13.481Z</time></trkpt><trkpt lat="46.26490545076023" lon="11.803287766370696"><ele>1492.0</ele><time>2026-05-02T08:50:14.481Z</time></trkpt><trkpt lat="46.264945347035166" lon="11.803358262205958"><ele>1493.6</ele><time>2026-05-02T08:50:15.481Z</time></trkpt><trkpt lat="46.264976469254236" lon="11.80351155958604"><ele>1495.1999999999998</ele><time>2026-05-02T08:50:17.481Z</time></trkpt><trkpt lat="46.264938853701196" lon="11.80362507986707"><ele>1496.8</ele><time>2026-05-02T08:50:18.481Z</time></trkpt><trkpt lat="46.26488373881795" lon="11.80374054039892"><ele>1498.4</ele><time>2026-05-02T08:50:19.481Z</time></trkpt><trkpt lat="46.264823495524816" lon="11.8038668939548"><ele>1500.0</ele><time>2026-05-02T08:50:20.481Z</time></trkpt><trkpt lat="46.26474870359352" lon="11.804000784331327"><ele>1500.0</ele><time>2026-05-02T08:50:21.481Z</time></trkpt><trkpt lat="46.264675635689464" lon="11.804151774188561"><ele>1500.0</ele><time>2026-05-02T08:50:22.481Z</time></trkpt><trkpt lat="46.264617325308066" lon="11.804285284868799"><ele>1500.0</ele><time>2026-05-02T08:50:23.481Z</time></trkpt><trkpt lat="46.26456079707223" lon="11.804397914473084"><ele>1500.0</ele><time>2026-05-02T08:50:24.481Z</time></trkpt><trkpt lat="46.26453672350576" lon="11.804489642623661"><ele>1500.0</ele><time>2026-05-02T08:50:25.481Z</time></trkpt><trkpt lat="46.26460559436344" lon="11.804625281082007"><ele>1501.2</ele><time>2026-05-02T08:50:27.481Z</time></trkpt><trkpt lat="46.2646829606095" lon="11.804623494645394"><ele>1502.4</ele><time>2026-05-02T08:50:28.481Z</time></trkpt><trkpt lat="46.26475546119971" lon="11.804560364919643"><ele>1503.6</ele><time>2026-05-02T08:50:29.481Z</time></trkpt><trkpt lat="46.26483248911524" lon="11.804502896038702"><ele>1504.8</ele><time>2026-05-02T08:50:30.481Z</time></trkpt><trkpt lat="46.2649088750759" lon="11.804421635080065"><ele>1506.0</ele><time>2026-05-02T08:50:31.481Z</time></trkpt><trkpt lat="46.26497668237113" lon="11.804302677912544"><ele>1508.1999999999998</ele><time>2026-05-02T08:50:32.481Z</time></trkpt><trkpt lat="46.26500202934084" lon="11.804146408099468"><ele>1510.3999999999999</ele><time>2026-05-02T08:50:33.481Z</time></trkpt><trkpt lat="46.26503912505875" lon="11.804011157032594"><ele>1512.6</ele><time>2026-05-02T08:50:34.481Z</time></trkpt><trkpt lat="46.26508104160853" lon="11.803900083673852"><ele>1514.8</ele><time>2026-05-02T08:50:35.481Z</time></trkpt><trkpt lat="46.26512359290956" lon="11.803811688488631"><ele>1517.0</ele><time>2026-05-02T08:50:36.481Z</time></trkpt><trkpt lat="46.26517635194083" lon="11.803725768513164"><ele>1517.0</ele><time>2026-05-02T08:50:37.481Z</time></trkpt><trkpt lat="46.26522348614276" lon="11.803649314676601"><ele>1517.0</ele><time>2026-05-02T08:50:38.481Z</time></trkpt><trkpt lat="46.265298354473344" lon="11.803536974562805"><ele>1517.0</ele><time>2026-05-02T08:50:40.481Z</time></trkpt><trkpt lat="46.26534099163588" lon="11.803466526461012"><ele>1517.0</ele><time>2026-05-02T08:50:41.481Z</time></trkpt><trkpt lat="46.26540744993103" lon="11.8033711503249"><ele>1517.0</ele><time>2026-05-02T08:50:42.481Z</time></trkpt><trkpt lat="46.26552360193675" lon="11.803311014982791"><ele>1520.3333333333335</ele><time>2026-05-02T08:50:43.481Z</time></trkpt><trkpt lat="46.26566097723631" lon="11.803268174766155"><ele>1523.6666666666667</ele><time>2026-05-02T08:50:44.481Z</time></trkpt><trkpt lat="46.265839979375926" lon="11.80324293035349"><ele>1527.0</ele><time>2026-05-02T08:50:45.481Z</time></trkpt><trkpt lat="46.26599442334837" lon="11.803229570656484"><ele>1527.0</ele><time>2026-05-02T08:50:46.481Z</time></trkpt><trkpt lat="46.26612519431792" lon="11.803227258228485"><ele>1527.0</ele><time>2026-05-02T08:50:47.481Z</time></trkpt><trkpt lat="46.266227583918656" lon="11.80320193324977"><ele>1527.0</ele><time>2026-05-02T08:50:48.481Z</time></trkpt><trkpt lat="46.2663066681576" lon="11.803124932201943"><ele>1527.0</ele><time>2026-05-02T08:50:49.481Z</time></trkpt><trkpt lat="46.26636978344523" lon="11.803011868721322"><ele>1527.0</ele><time>2026-05-02T08:50:50.481Z</time></trkpt><trkpt lat="46.266396841266534" lon="11.802900576869444"><ele>1527.0</ele><time>2026-05-02T08:50:51.481Z</time></trkpt><trkpt lat="46.266400731101484" lon="11.802781424358626"><ele>1527.0</ele><time>2026-05-02T08:50:52.481Z</time></trkpt><trkpt lat="46.26639688073795" lon="11.802614856509399"><ele>1527.0</ele><time>2026-05-02T08:50:54.481Z</time></trkpt><trkpt lat="46.26639097678477" lon="11.802454497908569"><ele>1527.0</ele><time>2026-05-02T08:50:56.481Z</time></trkpt><trkpt lat="46.26645982056782" lon="11.802330321964892"><ele>1527.0</ele><time>2026-05-02T08:50:58.481Z</time></trkpt><trkpt lat="46.266528398578515" lon="11.802358754977455"><ele>1528.3999999999999</ele><time>2026-05-02T08:50:59.481Z</time></trkpt><trkpt lat="46.266548831164286" lon="11.80245494034561"><ele>1529.8</ele><time>2026-05-02T08:51:00.481Z</time></trkpt><trkpt lat="46.26654388510531" lon="11.802583107952755"><ele>1531.2</ele><time>2026-05-02T08:51:01.481Z</time></trkpt><trkpt lat="46.26655961096969" lon="11.802777921492616"><ele>1532.6</ele><time>2026-05-02T08:51:02.481Z</time></trkpt><trkpt lat="46.266588649176185" lon="11.802979421355907"><ele>1534.0</ele><time>2026-05-02T08:51:03.481Z</time></trkpt><trkpt lat="46.26656010175819" lon="11.80313263018282"><ele>1532.25</ele><time>2026-05-02T08:51:04.481Z</time></trkpt><trkpt lat="46.266482922677085" lon="11.803284373927584"><ele>1530.5</ele><time>2026-05-02T08:51:05.481Z</time></trkpt><trkpt lat="46.26637079520634" lon="11.803376974345092"><ele>1528.75</ele><time>2026-05-02T08:51:06.481Z</time></trkpt><trkpt lat="46.266209517391" lon="11.803440369584912"><ele>1527.0</ele><time>2026-05-02T08:51:07.481Z</time></trkpt><trkpt lat="46.26603555910873" lon="11.803504053634766"><ele>1532.75</ele><time>2026-05-02T08:51:08.481Z</time></trkpt><trkpt lat="46.26589743350605" lon="11.80355924760184"><ele>1538.5</ele><time>2026-05-02T08:51:09.481Z</time></trkpt><trkpt lat="46.2657926753893" lon="11.803622982091245"><ele>1544.25</ele><time>2026-05-02T08:51:10.481Z</time></trkpt><trkpt lat="46.26570228566779" lon="11.803704919279161"><ele>1550.0</ele><time>2026-05-02T08:51:11.481Z</time></trkpt><trkpt lat="46.26563438871146" lon="11.803825071885496"><ele>1550.0</ele><time>2026-05-02T08:51:12.481Z</time></trkpt><trkpt lat="46.2656148713316" lon="11.803981653287995"><ele>1550.0</ele><time>2026-05-02T08:51:13.481Z</time></trkpt><trkpt lat="46.26563740415864" lon="11.804163502622485"><ele>1550.0</ele><time>2026-05-02T08:51:14.481Z</time></trkpt><trkpt lat="46.26570832716762" lon="11.804363267607068"><ele>1550.0</ele><time>2026-05-02T08:51:15.481Z</time></trkpt><trkpt lat="46.26580267093449" lon="11.804597539059735"><ele>1550.0</ele><time>2026-05-02T08:51:16.481Z</time></trkpt><trkpt lat="46.265862087236364" lon="11.804815035407124"><ele>1550.0</ele><time>2026-05-02T08:51:17.481Z</time></trkpt><trkpt lat="46.265922595591334" lon="11.804990056416509"><ele>1550.0</ele><time>2026-05-02T08:51:18.481Z</time></trkpt><trkpt lat="46.26597684906906" lon="11.805152144512682"><ele>1550.0</ele><time>2026-05-02T08:51:19.481Z</time></trkpt><trkpt lat="46.265971649470245" lon="11.80531385419854"><ele>1550.0</ele><time>2026-05-02T08:51:20.481Z</time></trkpt><trkpt lat="46.26595413750855" lon="11.805491654904754"><ele>1550.0</ele><time>2026-05-02T08:51:21.481Z</time></trkpt><trkpt lat="46.26593605514754" lon="11.805641486139836"><ele>1550.0</ele><time>2026-05-02T08:51:22.481Z</time></trkpt><trkpt lat="46.26593819281379" lon="11.805775779505582"><ele>1550.0</ele><time>2026-05-02T08:51:23.481Z</time></trkpt><trkpt lat="46.26595474832775" lon="11.805934170774435"><ele>1550.0</ele><time>2026-05-02T08:51:24.481Z</time></trkpt><trkpt lat="46.265988184513326" lon="11.806100642248081"><ele>1550.8</ele><time>2026-05-02T08:51:25.481Z</time></trkpt><trkpt lat="46.266013111692054" lon="11.806235838770984"><ele>1551.6</ele><time>2026-05-02T08:51:26.481Z</time></trkpt><trkpt lat="46.26603870110973" lon="11.806338853840858"><ele>1552.4</ele><time>2026-05-02T08:51:27.481Z</time></trkpt><trkpt lat="46.26607384651136" lon="11.806421042797135"><ele>1553.2</ele><time>2026-05-02T08:51:28.481Z</time></trkpt><trkpt lat="46.2661102130461" lon="11.806575790922425"><ele>1554.0</ele><time>2026-05-02T08:51:30.481Z</time></trkpt><trkpt lat="46.266171626210024" lon="11.806687851652669"><ele>1554.0</ele><time>2026-05-02T08:51:32.481Z</time></trkpt><trkpt lat="46.266268712397874" lon="11.806612366940602"><ele>1554.0</ele><time>2026-05-02T08:51:34.481Z</time></trkpt><trkpt lat="46.26626931250959" lon="11.806501658533401"><ele>1554.0</ele><time>2026-05-02T08:51:35.481Z</time></trkpt><trkpt lat="46.26623222017579" lon="11.806394522141638"><ele>1554.0</ele><time>2026-05-02T08:51:36.481Z</time></trkpt><trkpt lat="46.266182184259314" lon="11.806293541823006"><ele>1554.0</ele><time>2026-05-02T08:51:37.481Z</time></trkpt><trkpt lat="46.26615008745759" lon="11.806208568716427"><ele>1554.0</ele><time>2026-05-02T08:51:38.481Z</time></trkpt><trkpt lat="46.266122442365166" lon="11.806095519773283"><ele>1553.2</ele><time>2026-05-02T08:51:39.481Z</time></trkpt><trkpt lat="46.26610973002731" lon="11.80595318708337"><ele>1552.4</ele><time>2026-05-02T08:51:40.481Z</time></trkpt><trkpt lat="46.26610623425189" lon="11.80579937636685"><ele>1551.6</ele><time>2026-05-02T08:51:41.481Z</time></trkpt><trkpt lat="46.26613176977684" lon="11.805668371356026"><ele>1550.8</ele><time>2026-05-02T08:51:42.481Z</time></trkpt><trkpt lat="46.26620310661553" lon="11.805554140713266"><ele>1550.0</ele><time>2026-05-02T08:51:43.481Z</time></trkpt><trkpt lat="46.266270589393685" lon="11.80540598199823"><ele>1550.0</ele><time>2026-05-02T08:51:44.481Z</time></trkpt><trkpt lat="46.26627122378989" lon="11.805212935351166"><ele>1550.0</ele><time>2026-05-02T08:51:45.481Z</time></trkpt><trkpt lat="46.266241230155686" lon="11.80504483319729"><ele>1550.0</ele><time>2026-05-02T08:51:46.481Z</time></trkpt><trkpt lat="46.266240069261194" lon="11.804891083967403"><ele>1550.0</ele><time>2026-05-02T08:51:47.481Z</time></trkpt><trkpt lat="46.26623946756545" lon="11.804767203684374"><ele>1550.0</ele><time>2026-05-02T08:51:48.481Z</time></trkpt><trkpt lat="46.26625482000836" lon="11.804662208162737"><ele>1550.2</ele><time>2026-05-02T08:51:49.481Z</time></trkpt><trkpt lat="46.266266855757536" lon="11.804566046012335"><ele>1550.4</ele><time>2026-05-02T08:51:50.481Z</time></trkpt><trkpt lat="46.266314974994216" lon="11.804416569900788"><ele>1550.6</ele><time>2026-05-02T08:51:52.481Z</time></trkpt><trkpt lat="46.266403408498526" lon="11.804434244410137"><ele>1550.8</ele><time>2026-05-02T08:51:53.481Z</time></trkpt><trkpt lat="46.26649304592597" lon="11.804456664969354"><ele>1551.0</ele><time>2026-05-02T08:51:54.481Z</time></trkpt><trkpt lat="46.266638004096386" lon="11.804483434856332"><ele>1563.3333333333335</ele><time>2026-05-02T08:51:55.481Z</time></trkpt><trkpt lat="46.26680151427808" lon="11.804514385642777"><ele>1575.6666666666667</ele><time>2026-05-02T08:51:56.481Z</time></trkpt><trkpt lat="46.26699644553714" lon="11.804531437696616"><ele>1588.0</ele><time>2026-05-02T08:51:57.481Z</time></trkpt><trkpt lat="46.2672246083277" lon="11.804498691699946"><ele>1594.0</ele><time>2026-05-02T08:51:58.481Z</time></trkpt><trkpt lat="46.26742491426993" lon="11.804432195288724"><ele>1600.0</ele><time>2026-05-02T08:51:59.481Z</time></trkpt><trkpt lat="46.26764491953667" lon="11.80441326860795"><ele>1606.0</ele><time>2026-05-02T08:52:00.481Z</time></trkpt><trkpt lat="46.267854587224406" lon="11.804345122901356"><ele>1606.0</ele><time>2026-05-02T08:52:01.481Z</time></trkpt><trkpt lat="46.26803616162107" lon="11.804330379199037"><ele>1606.0</ele><time>2026-05-02T08:52:02.481Z</time></trkpt><trkpt lat="46.26822408928188" lon="11.804347144302923"><ele>1606.0</ele><time>2026-05-02T08:52:03.481Z</time></trkpt><trkpt lat="46.26842619189399" lon="11.804378185889771"><ele>1605.0</ele><time>2026-05-02T08:52:04.481Z</time></trkpt><trkpt lat="46.26862581673716" lon="11.804415601179551"><ele>1604.0</ele><time>2026-05-02T08:52:05.481Z</time></trkpt><trkpt lat="46.26879638486612" lon="11.804425631517992"><ele>1603.0</ele><time>2026-05-02T08:52:06.481Z</time></trkpt><trkpt lat="46.26892351017087" lon="11.804440184134599"><ele>1605.3333333333335</ele><time>2026-05-02T08:52:07.481Z</time></trkpt><trkpt lat="46.269049687106985" lon="11.804330583463129"><ele>1607.6666666666665</ele><time>2026-05-02T08:52:08.481Z</time></trkpt><trkpt lat="46.26918147432858" lon="11.804196311778384"><ele>1610.0</ele><time>2026-05-02T08:52:09.481Z</time></trkpt><trkpt lat="46.26933013408811" lon="11.80404105528488"><ele>1608.0</ele><time>2026-05-02T08:52:10.481Z</time></trkpt><trkpt lat="46.26949117014599" lon="11.803857613679718"><ele>1606.0</ele><time>2026-05-02T08:52:11.481Z</time></trkpt><trkpt lat="46.26965479012883" lon="11.803637732085788"><ele>1604.0</ele><time>2026-05-02T08:52:12.481Z</time></trkpt><trkpt lat="46.2698450432391" lon="11.803430332671367"><ele>1604.0</ele><time>2026-05-02T08:52:13.481Z</time></trkpt><trkpt lat="46.27003577295485" lon="11.803209101295652"><ele>1604.0</ele><time>2026-05-02T08:52:14.481Z</time></trkpt><trkpt lat="46.27021617450296" lon="11.803006539475453"><ele>1604.0</ele><time>2026-05-02T08:52:15.481Z</time></trkpt><trkpt lat="46.27037866031072" lon="11.802817289459"><ele>1604.0</ele><time>2026-05-02T08:52:16.481Z</time></trkpt><trkpt lat="46.2705610329032" lon="11.802663187389003"><ele>1604.0</ele><time>2026-05-02T08:52:17.481Z</time></trkpt><trkpt lat="46.27076528761008" lon="11.802496616292416"><ele>1606.6666666666665</ele><time>2026-05-02T08:52:18.481Z</time></trkpt><trkpt lat="46.27095915563806" lon="11.802336769797519"><ele>1609.3333333333335</ele><time>2026-05-02T08:52:19.481Z</time></trkpt><trkpt lat="46.271130438695764" lon="11.80218496463936"><ele>1612.0</ele><time>2026-05-02T08:52:20.481Z</time></trkpt><trkpt lat="46.271293458208895" lon="11.80205706474711"><ele>1613.0</ele><time>2026-05-02T08:52:21.481Z</time></trkpt><trkpt lat="46.27144448391997" lon="11.801953858254057"><ele>1614.0</ele><time>2026-05-02T08:52:22.481Z</time></trkpt><trkpt lat="46.27158378842595" lon="11.80175662525124"><ele>1615.0</ele><time>2026-05-02T08:52:23.481Z</time></trkpt><trkpt lat="46.27170327890214" lon="11.801519643353746"><ele>1615.0</ele><time>2026-05-02T08:52:24.481Z</time></trkpt><trkpt lat="46.271805612514456" lon="11.801339625915432"><ele>1615.0</ele><time>2026-05-02T08:52:25.481Z</time></trkpt><trkpt lat="46.27191589237485" lon="11.801190572995193"><ele>1615.0</ele><time>2026-05-02T08:52:26.481Z</time></trkpt><trkpt lat="46.27203304162523" lon="11.801126354089499"><ele>1615.0</ele><time>2026-05-02T08:52:27.481Z</time></trkpt><trkpt lat="46.27217121662235" lon="11.801065411211564"><ele>1618.0</ele><time>2026-05-02T08:52:28.481Z</time></trkpt><trkpt lat="46.27228356122468" lon="11.800978292083887"><ele>1621.0</ele><time>2026-05-02T08:52:29.481Z</time></trkpt><trkpt lat="46.27231960406576" lon="11.800771481631385"><ele>1624.0</ele><time>2026-05-02T08:52:30.481Z</time></trkpt><trkpt lat="46.27236484335877" lon="11.80057688247699"><ele>1627.0</ele><time>2026-05-02T08:52:31.481Z</time></trkpt><trkpt lat="46.27237822577535" lon="11.800329599521737"><ele>1625.0</ele><time>2026-05-02T08:52:32.481Z</time></trkpt><trkpt lat="46.27241665239489" lon="11.80006869126753"><ele>1623.0</ele><time>2026-05-02T08:52:33.481Z</time></trkpt><trkpt lat="46.272462639306674" lon="11.799776856924275"><ele>1621.0</ele><time>2026-05-02T08:52:34.481Z</time></trkpt><trkpt lat="46.27249008559063" lon="11.799489792430274"><ele>1621.25</ele><time>2026-05-02T08:52:35.481Z</time></trkpt><trkpt lat="46.27251670429685" lon="11.799267358233509"><ele>1621.5</ele><time>2026-05-02T08:52:36.481Z</time></trkpt><trkpt lat="46.27253756503852" lon="11.799084039528466"><ele>1621.75</ele><time>2026-05-02T08:52:37.481Z</time></trkpt><trkpt lat="46.272600780160346" lon="11.798921095660736"><ele>1622.0</ele><time>2026-05-02T08:52:38.481Z</time></trkpt><trkpt lat="46.27270907314516" lon="11.798774719680296"><ele>1622.0</ele><time>2026-05-02T08:52:39.481Z</time></trkpt><trkpt lat="46.272818891281375" lon="11.798651241238238"><ele>1622.0</ele><time>2026-05-02T08:52:40.481Z</time></trkpt><trkpt lat="46.27290310666927" lon="11.798539758483091"><ele>1622.0</ele><time>2026-05-02T08:52:41.481Z</time></trkpt><trkpt lat="46.27296932518981" lon="11.79848335471203"><ele>1622.0</ele><time>2026-05-02T08:52:42.481Z</time></trkpt><trkpt lat="46.273033334215285" lon="11.798431888111951"><ele>1622.0</ele><time>2026-05-02T08:52:43.481Z</time></trkpt><trkpt lat="46.27308408741285" lon="11.798515585473965"><ele>1622.0</ele><time>2026-05-02T08:52:44.481Z</time></trkpt><trkpt lat="46.27303804823658" lon="11.798691056377049"><ele>1622.0</ele><time>2026-05-02T08:52:46.481Z</time></trkpt><trkpt lat="46.27301310555873" lon="11.798860458577554"><ele>1622.0</ele><time>2026-05-02T08:52:47.481Z</time></trkpt><trkpt lat="46.273027159750306" lon="11.799037486763844"><ele>1622.0</ele><time>2026-05-02T08:52:48.481Z</time></trkpt><trkpt lat="46.27308159036352" lon="11.799245051717897"><ele>1625.25</ele><time>2026-05-02T08:52:49.481Z</time></trkpt><trkpt lat="46.273147623231566" lon="11.799471839033819"><ele>1628.5</ele><time>2026-05-02T08:52:50.481Z</time></trkpt><trkpt lat="46.273200788915545" lon="11.799680496081095"><ele>1631.75</ele><time>2026-05-02T08:52:51.481Z</time></trkpt><trkpt lat="46.2732436416834" lon="11.79981371810051"><ele>1635.0</ele><time>2026-05-02T08:52:52.481Z</time></trkpt><trkpt lat="46.27327844710581" lon="11.799910625003454"><ele>1635.0</ele><time>2026-05-02T08:52:53.481Z</time></trkpt><trkpt lat="46.27338973751021" lon="11.799953398058204"><ele>1635.0</ele><time>2026-05-02T08:52:54.481Z</time></trkpt><trkpt lat="46.2734697086283" lon="11.799841102282587"><ele>1635.0</ele><time>2026-05-02T08:52:55.481Z</time></trkpt><trkpt lat="46.273533339590095" lon="11.799718408602596"><ele>1635.0</ele><time>2026-05-02T08:52:56.481Z</time></trkpt><trkpt lat="46.273602415663845" lon="11.799566655134772"><ele>1635.0</ele><time>2026-05-02T08:52:57.481Z</time></trkpt><trkpt lat="46.27368217656224" lon="11.799397353929555"><ele>1635.0</ele><time>2026-05-02T08:52:58.481Z</time></trkpt><trkpt lat="46.27376276820505" lon="11.799194503765333"><ele>1635.0</ele><time>2026-05-02T08:52:59.481Z</time></trkpt><trkpt lat="46.2738765405039" lon="11.79899017768549"><ele>1638.0</ele><time>2026-05-02T08:53:00.481Z</time></trkpt><trkpt lat="46.27399889087473" lon="11.798771488645821"><ele>1641.0</ele><time>2026-05-02T08:53:01.481Z</time></trkpt><trkpt lat="46.27415650238085" lon="11.798567943357652"><ele>1644.0</ele><time>2026-05-02T08:53:02.481Z</time></trkpt><trkpt lat="46.27434961399538" lon="11.798350655872405"><ele>1644.0</ele><time>2026-05-02T08:53:03.481Z</time></trkpt><trkpt lat="46.274528583577215" lon="11.798146006283648"><ele>1644.0</ele><time>2026-05-02T08:53:04.481Z</time></trkpt><trkpt lat="46.274679334699805" lon="11.797973623925722"><ele>1644.0</ele><time>2026-05-02T08:53:05.481Z</time></trkpt><trkpt lat="46.2747902784011" lon="11.797821373820884"><ele>1645.6666666666667</ele><time>2026-05-02T08:53:06.481Z</time></trkpt><trkpt lat="46.274885773538" lon="11.79771381784055"><ele>1647.3333333333335</ele><time>2026-05-02T08:53:07.481Z</time></trkpt><trkpt lat="46.2749715384438" lon="11.797643215389508"><ele>1649.0</ele><time>2026-05-02T08:53:08.481Z</time></trkpt><trkpt lat="46.27502664647507" lon="11.797579020506317"><ele>1650.6666666666667</ele><time>2026-05-02T08:53:09.481Z</time></trkpt><trkpt lat="46.27508292627431" lon="11.797622860628831"><ele>1652.3333333333335</ele><time>2026-05-02T08:53:10.481Z</time></trkpt><trkpt lat="46.275120767280626" lon="11.797719821440081"><ele>1654.0</ele><time>2026-05-02T08:53:11.481Z</time></trkpt><trkpt lat="46.275122343828315" lon="11.797871321335915"><ele>1655.6666666666667</ele><time>2026-05-02T08:53:12.481Z</time></trkpt><trkpt lat="46.27510511690988" lon="11.798056878268826"><ele>1657.3333333333335</ele><time>2026-05-02T08:53:13.481Z</time></trkpt><trkpt lat="46.27509144323531" lon="11.798265568682156"><ele>1659.0</ele><time>2026-05-02T08:53:14.481Z</time></trkpt><trkpt lat="46.27509143788277" lon="11.798531258410035"><ele>1659.0</ele><time>2026-05-02T08:53:15.481Z</time></trkpt><trkpt lat="46.275085172186515" lon="11.798717038202156"><ele>1659.0</ele><time>2026-05-02T08:53:16.481Z</time></trkpt><trkpt lat="46.27508165437941" lon="11.798936981541942"><ele>1659.0</ele><time>2026-05-02T08:53:17.481Z</time></trkpt><trkpt lat="46.275090655488704" lon="11.799155720269692"><ele>1659.0</ele><time>2026-05-02T08:53:18.481Z</time></trkpt><trkpt lat="46.275101117799906" lon="11.799371060905985"><ele>1660.0</ele><time>2026-05-02T08:53:19.481Z</time></trkpt><trkpt lat="46.2751122164179" lon="11.799579862202384"><ele>1661.0</ele><time>2026-05-02T08:53:20.481Z</time></trkpt><trkpt lat="46.27513937004956" lon="11.799802276113448"><ele>1662.0</ele><time>2026-05-02T08:53:21.481Z</time></trkpt><trkpt lat="46.27509034940869" lon="11.800057220772599"><ele>1661.0</ele><time>2026-05-02T08:53:22.481Z</time></trkpt><trkpt lat="46.27509307373272" lon="11.80028543446591"><ele>1660.0</ele><time>2026-05-02T08:53:23.481Z</time></trkpt><trkpt lat="46.27507798288893" lon="11.800448689388139"><ele>1659.0</ele><time>2026-05-02T08:53:24.481Z</time></trkpt><trkpt lat="46.27505529150023" lon="11.800592912594691"><ele>1658.0</ele><time>2026-05-02T08:53:25.481Z</time></trkpt><trkpt lat="46.27505044281049" lon="11.800723526527786"><ele>1658.0</ele><time>2026-05-02T08:53:26.481Z</time></trkpt><trkpt lat="46.27505043012043" lon="11.800839798448079"><ele>1658.0</ele><time>2026-05-02T08:53:27.481Z</time></trkpt><trkpt lat="46.27505183251199" lon="11.800943327212215"><ele>1658.0</ele><time>2026-05-02T08:53:28.481Z</time></trkpt><trkpt lat="46.27512613820454" lon="11.801071322176044"><ele>1658.0</ele><time>2026-05-02T08:53:30.481Z</time></trkpt><trkpt lat="46.27520249751532" lon="11.80104736444136"><ele>1658.0</ele><time>2026-05-02T08:53:31.481Z</time></trkpt><trkpt lat="46.27529414567164" lon="11.800950298199469"><ele>1658.0</ele><time>2026-05-02T08:53:32.481Z</time></trkpt><trkpt lat="46.275363304980324" lon="11.800780457453182"><ele>1658.0</ele><time>2026-05-02T08:53:33.481Z</time></trkpt><trkpt lat="46.27546839565989" lon="11.800626427110785"><ele>1658.0</ele><time>2026-05-02T08:53:34.481Z</time></trkpt><trkpt lat="46.275596436570844" lon="11.800464111173074"><ele>1661.75</ele><time>2026-05-02T08:53:35.481Z</time></trkpt><trkpt lat="46.275698699956266" lon="11.800302251591345"><ele>1665.5</ele><time>2026-05-02T08:53:36.481Z</time></trkpt><trkpt lat="46.275797495565975" lon="11.800178000384799"><ele>1669.25</ele><time>2026-05-02T08:53:37.481Z</time></trkpt><trkpt lat="46.275892340228616" lon="11.80004336545144"><ele>1673.0</ele><time>2026-05-02T08:53:38.481Z</time></trkpt><trkpt lat="46.27599444958741" lon="11.799923664260083"><ele>1673.0</ele><time>2026-05-02T08:53:39.481Z</time></trkpt><trkpt lat="46.27612857439413" lon="11.799809322941748"><ele>1673.0</ele><time>2026-05-02T08:53:40.481Z</time></trkpt><trkpt lat="46.27629853737654" lon="11.799722406996066"><ele>1673.0</ele><time>2026-05-02T08:53:41.481Z</time></trkpt><trkpt lat="46.27645280652832" lon="11.799639621825962"><ele>1676.0</ele><time>2026-05-02T08:53:42.481Z</time></trkpt><trkpt lat="46.2765742402784" lon="11.799527700524612"><ele>1679.0</ele><time>2026-05-02T08:53:43.481Z</time></trkpt><trkpt lat="46.276711283314434" lon="11.799340924594366"><ele>1682.0</ele><time>2026-05-02T08:53:44.481Z</time></trkpt><trkpt lat="46.27681982496003" lon="11.799127195407006"><ele>1682.0</ele><time>2026-05-02T08:53:45.481Z</time></trkpt><trkpt lat="46.27695438554772" lon="11.798953542439593"><ele>1682.0</ele><time>2026-05-02T08:53:46.481Z</time></trkpt><trkpt lat="46.27712900709954" lon="11.798847610776884"><ele>1682.0</ele><time>2026-05-02T08:53:47.481Z</time></trkpt><trkpt lat="46.27728010921569" lon="11.798777113358454"><ele>1684.0</ele><time>2026-05-02T08:53:48.481Z</time></trkpt><trkpt lat="46.27740741284869" lon="11.798692514007229"><ele>1686.0</ele><time>2026-05-02T08:53:49.481Z</time></trkpt><trkpt lat="46.27750103722556" lon="11.798620594387621"><ele>1688.0</ele><time>2026-05-02T08:53:50.481Z</time></trkpt><trkpt lat="46.27758302891143" lon="11.798561860705703"><ele>1690.0</ele><time>2026-05-02T08:53:51.481Z</time></trkpt><trkpt lat="46.27766489028006" lon="11.798493438677754"><ele>1692.0</ele><time>2026-05-02T08:53:52.481Z</time></trkpt><trkpt lat="46.277729625711466" lon="11.798457179231853"><ele>1692.0</ele><time>2026-05-02T08:53:53.481Z</time></trkpt><trkpt lat="46.27780448286139" lon="11.798472776742113"><ele>1692.0</ele><time>2026-05-02T08:53:54.481Z</time></trkpt><trkpt lat="46.27784262671798" lon="11.798564072029421"><ele>1692.0</ele><time>2026-05-02T08:53:55.481Z</time></trkpt><trkpt lat="46.27783028344472" lon="11.798726056664592"><ele>1692.0</ele><time>2026-05-02T08:53:56.481Z</time></trkpt><trkpt lat="46.27777497883575" lon="11.798865766425072"><ele>1692.0</ele><time>2026-05-02T08:53:57.481Z</time></trkpt><trkpt lat="46.27768495361578" lon="11.799020762542986"><ele>1693.25</ele><time>2026-05-02T08:53:58.481Z</time></trkpt><trkpt lat="46.27760710606141" lon="11.799161558700728"><ele>1694.5</ele><time>2026-05-02T08:53:59.481Z</time></trkpt><trkpt lat="46.277534354301004" lon="11.799344488339807"><ele>1695.75</ele><time>2026-05-02T08:54:00.481Z</time></trkpt><trkpt lat="46.277468691681776" lon="11.799536174580036"><ele>1697.0</ele><time>2026-05-02T08:54:01.481Z</time></trkpt><trkpt lat="46.277417307216034" lon="11.799706850477415"><ele>1698.0</ele><time>2026-05-02T08:54:02.481Z</time></trkpt><trkpt lat="46.27735247165931" lon="11.799894803459988"><ele>1699.0</ele><time>2026-05-02T08:54:03.482Z</time></trkpt><trkpt lat="46.2773243476909" lon="11.800114127305418"><ele>1700.0</ele><time>2026-05-02T08:54:04.482Z</time></trkpt><trkpt lat="46.27732759889361" lon="11.800347111036345"><ele>1701.25</ele><time>2026-05-02T08:54:05.482Z</time></trkpt><trkpt lat="46.277337482819895" lon="11.800535935392183"><ele>1702.5</ele><time>2026-05-02T08:54:06.482Z</time></trkpt><trkpt lat="46.27736232671024" lon="11.800711114183557"><ele>1703.75</ele><time>2026-05-02T08:54:07.482Z</time></trkpt><trkpt lat="46.27743187573732" lon="11.80089665323121"><ele>1705.0</ele><time>2026-05-02T08:54:08.482Z</time></trkpt><trkpt lat="46.27751481354931" lon="11.801098482943964"><ele>1705.3333333333335</ele><time>2026-05-02T08:54:09.482Z</time></trkpt><trkpt lat="46.277555838023964" lon="11.801374941183537"><ele>1705.6666666666665</ele><time>2026-05-02T08:54:10.482Z</time></trkpt><trkpt lat="46.277565682714716" lon="11.801653008164253"><ele>1706.0</ele><time>2026-05-02T08:54:11.482Z</time></trkpt><trkpt lat="46.27756674439693" lon="11.80187085561614"><ele>1705.9999999999998</ele><time>2026-05-02T08:54:12.482Z</time></trkpt><trkpt lat="46.277572806657815" lon="11.802044417556079"><ele>1706.0</ele><time>2026-05-02T08:54:13.482Z</time></trkpt><trkpt lat="46.27757348157742" lon="11.802177702070543"><ele>1706.0</ele><time>2026-05-02T08:54:14.482Z</time></trkpt><trkpt lat="46.27757388115989" lon="11.802293602117713"><ele>1706.0</ele><time>2026-05-02T08:54:15.482Z</time></trkpt><trkpt lat="46.27759851367333" lon="11.802378007765808"><ele>1705.9999999999998</ele><time>2026-05-02T08:54:16.482Z</time></trkpt><trkpt lat="46.27766366539292" lon="11.80245469946456"><ele>1706.0</ele><time>2026-05-02T08:54:17.482Z</time></trkpt><trkpt lat="46.27775032172944" lon="11.802440849680119"><ele>1706.0</ele><time>2026-05-02T08:54:18.482Z</time></trkpt><trkpt lat="46.277822284533165" lon="11.80234389629653"><ele>1706.0</ele><time>2026-05-02T08:54:19.482Z</time></trkpt><trkpt lat="46.27784104513743" lon="11.802174245118785"><ele>1706.0</ele><time>2026-05-02T08:54:20.482Z</time></trkpt><trkpt lat="46.27784163758345" lon="11.801959842245076"><ele>1706.0</ele><time>2026-05-02T08:54:21.482Z</time></trkpt><trkpt lat="46.277893094857994" lon="11.801768557581683"><ele>1706.25</ele><time>2026-05-02T08:54:22.482Z</time></trkpt><trkpt lat="46.27795546935838" lon="11.801613223660663"><ele>1706.5</ele><time>2026-05-02T08:54:23.482Z</time></trkpt><trkpt lat="46.27802612052883" lon="11.801439464835296"><ele>1706.75</ele><time>2026-05-02T08:54:24.482Z</time></trkpt><trkpt lat="46.27808661078814" lon="11.801290695694624"><ele>1707.0</ele><time>2026-05-02T08:54:25.482Z</time></trkpt><trkpt lat="46.27813448333179" lon="11.801174341568357"><ele>1709.1999999999998</ele><time>2026-05-02T08:54:26.482Z</time></trkpt><trkpt lat="46.27818160887704" lon="11.801059800906701"><ele>1711.3999999999999</ele><time>2026-05-02T08:54:27.482Z</time></trkpt><trkpt lat="46.27823391412674" lon="11.800942255760678"><ele>1713.6000000000001</ele><time>2026-05-02T08:54:28.482Z</time></trkpt><trkpt lat="46.278308405881305" lon="11.800826162424865"><ele>1715.8000000000002</ele><time>2026-05-02T08:54:29.482Z</time></trkpt><trkpt lat="46.278419258483964" lon="11.800701867990377"><ele>1718.0</ele><time>2026-05-02T08:54:30.482Z</time></trkpt><trkpt lat="46.27855904748091" lon="11.80053305847756"><ele>1718.0</ele><time>2026-05-02T08:54:31.482Z</time></trkpt><trkpt lat="46.27874055219801" lon="11.800371156322687"><ele>1718.0</ele><time>2026-05-02T08:54:32.482Z</time></trkpt><trkpt lat="46.278895177564806" lon="11.80021693403398"><ele>1718.0</ele><time>2026-05-02T08:54:33.482Z</time></trkpt><trkpt lat="46.279033861889246" lon="11.800057502851105"><ele>1722.3333333333333</ele><time>2026-05-02T08:54:34.482Z</time></trkpt><trkpt lat="46.27921259521865" lon="11.79994053403663"><ele>1726.6666666666665</ele><time>2026-05-02T08:54:35.482Z</time></trkpt><trkpt lat="46.27942161377545" lon="11.799828614422893"><ele>1731.0</ele><time>2026-05-02T08:54:36.482Z</time></trkpt><trkpt lat="46.27965357338921" lon="11.79973440018255"><ele>1735.0</ele><time>2026-05-02T08:54:37.482Z</time></trkpt><trkpt lat="46.27985978547651" lon="11.799628607511849"><ele>1739.0</ele><time>2026-05-02T08:54:38.482Z</time></trkpt><trkpt lat="46.280049306073344" lon="11.799532351762549"><ele>1743.0</ele><time>2026-05-02T08:54:39.482Z</time></trkpt><trkpt lat="46.28022058231082" lon="11.799457180155006"><ele>1743.0</ele><time>2026-05-02T08:54:40.482Z</time></trkpt><trkpt lat="46.28038108231501" lon="11.799402326130977"><ele>1743.0</ele><time>2026-05-02T08:54:41.482Z</time></trkpt><trkpt lat="46.280523572403084" lon="11.799351178849818"><ele>1743.0</ele><time>2026-05-02T08:54:42.482Z</time></trkpt><trkpt lat="46.28065217331569" lon="11.799305526226602"><ele>1743.0</ele><time>2026-05-02T08:54:43.482Z</time></trkpt><trkpt lat="46.280759867626244" lon="11.799269403595964"><ele>1742.0</ele><time>2026-05-02T08:54:44.482Z</time></trkpt><trkpt lat="46.28085696943741" lon="11.79924317036808"><ele>1741.0000000000002</ele><time>2026-05-02T08:54:45.482Z</time></trkpt><trkpt lat="46.28096181676856" lon="11.799254832902056"><ele>1740.0000000000002</ele><time>2026-05-02T08:54:47.482Z</time></trkpt><trkpt lat="46.28099737610779" lon="11.799347627412885"><ele>1739.0</ele><time>2026-05-02T08:54:48.482Z</time></trkpt><trkpt lat="46.280973865883595" lon="11.799469802690647"><ele>1738.0</ele><time>2026-05-02T08:54:49.482Z</time></trkpt><trkpt lat="46.28087787497519" lon="11.79950838012992"><ele>1739.25</ele><time>2026-05-02T08:54:50.482Z</time></trkpt><trkpt lat="46.28079408957561" lon="11.799585608510927"><ele>1740.5</ele><time>2026-05-02T08:54:51.482Z</time></trkpt><trkpt lat="46.28067175172264" lon="11.799644136997282"><ele>1741.75</ele><time>2026-05-02T08:54:52.482Z</time></trkpt><trkpt lat="46.280562535595145" lon="11.799750690539755"><ele>1743.0</ele><time>2026-05-02T08:54:53.482Z</time></trkpt><trkpt lat="46.28046838327191" lon="11.799858524143934"><ele>1743.0</ele><time>2026-05-02T08:54:54.482Z</time></trkpt><trkpt lat="46.280370701207595" lon="11.799973110577001"><ele>1743.0</ele><time>2026-05-02T08:54:55.482Z</time></trkpt><trkpt lat="46.28029623617594" lon="11.800074851901579"><ele>1743.0</ele><time>2026-05-02T08:54:56.482Z</time></trkpt><trkpt lat="46.280212970812144" lon="11.80020457825499"><ele>1743.0</ele><time>2026-05-02T08:54:57.482Z</time></trkpt><trkpt lat="46.28012297731698" lon="11.800379141432899"><ele>1746.3333333333335</ele><time>2026-05-02T08:54:58.482Z</time></trkpt><trkpt lat="46.28001885788319" lon="11.800596001664859"><ele>1749.6666666666667</ele><time>2026-05-02T08:54:59.482Z</time></trkpt><trkpt lat="46.27992517695467" lon="11.800843141265407"><ele>1753.0</ele><time>2026-05-02T08:55:00.482Z</time></trkpt><trkpt lat="46.2798404588778" lon="11.801044738832749"><ele>1750.0</ele><time>2026-05-02T08:55:01.482Z</time></trkpt><trkpt lat="46.27972741856861" lon="11.80121444766641"><ele>1747.0</ele><time>2026-05-02T08:55:02.482Z</time></trkpt><trkpt lat="46.279620782494" lon="11.801374203742002"><ele>1744.0</ele><time>2026-05-02T08:55:03.482Z</time></trkpt><trkpt lat="46.27953693626986" lon="11.801592104232048"><ele>1746.3333333333335</ele><time>2026-05-02T08:55:04.482Z</time></trkpt><trkpt lat="46.27947831160587" lon="11.801838093140706"><ele>1748.6666666666665</ele><time>2026-05-02T08:55:05.482Z</time></trkpt><trkpt lat="46.27943354320374" lon="11.802061967242613"><ele>1751.0</ele><time>2026-05-02T08:55:06.482Z</time></trkpt><trkpt lat="46.27941154650665" lon="11.80227366157945"><ele>1751.0</ele><time>2026-05-02T08:55:07.482Z</time></trkpt><trkpt lat="46.2794046310187" lon="11.802472416010083"><ele>1751.0</ele><time>2026-05-02T08:55:08.482Z</time></trkpt><trkpt lat="46.279393964003866" lon="11.802650673303559"><ele>1751.0</ele><time>2026-05-02T08:55:09.482Z</time></trkpt><trkpt lat="46.27936637710914" lon="11.802788359302196"><ele>1751.0</ele><time>2026-05-02T08:55:10.482Z</time></trkpt><trkpt lat="46.279357150997534" lon="11.802905020743912"><ele>1751.0</ele><time>2026-05-02T08:55:11.482Z</time></trkpt><trkpt lat="46.27939433262" lon="11.80299799219315"><ele>1751.0</ele><time>2026-05-02T08:55:12.482Z</time></trkpt><trkpt lat="46.27947861405615" lon="11.80305484916947"><ele>1751.0</ele><time>2026-05-02T08:55:13.482Z</time></trkpt><trkpt lat="46.27956624068596" lon="11.803008830955989"><ele>1751.0</ele><time>2026-05-02T08:55:14.482Z</time></trkpt><trkpt lat="46.279618592929985" lon="11.802905151818123"><ele>1751.0</ele><time>2026-05-02T08:55:15.482Z</time></trkpt><trkpt lat="46.279627014376864" lon="11.802747460670485"><ele>1751.0</ele><time>2026-05-02T08:55:16.482Z</time></trkpt><trkpt lat="46.279650378410814" lon="11.802585906930664"><ele>1751.0</ele><time>2026-05-02T08:55:17.482Z</time></trkpt><trkpt lat="46.27967459415104" lon="11.802457689436025"><ele>1751.0</ele><time>2026-05-02T08:55:18.482Z</time></trkpt><trkpt lat="46.27970670521006" lon="11.80234104008061"><ele>1751.0</ele><time>2026-05-02T08:55:19.482Z</time></trkpt><trkpt lat="46.27973912506934" lon="11.802210385653723"><ele>1751.0</ele><time>2026-05-02T08:55:20.482Z</time></trkpt><trkpt lat="46.27980591874131" lon="11.802084664989913"><ele>1751.0</ele><time>2026-05-02T08:55:21.482Z</time></trkpt><trkpt lat="46.27990890243016" lon="11.801990693794309"><ele>1754.5</ele><time>2026-05-02T08:55:22.482Z</time></trkpt><trkpt lat="46.2800587432676" lon="11.801966921974198"><ele>1758.0</ele><time>2026-05-02T08:55:23.482Z</time></trkpt><trkpt lat="46.28017795302687" lon="11.801927281511976"><ele>1761.5</ele><time>2026-05-02T08:55:24.482Z</time></trkpt><trkpt lat="46.28027960269193" lon="11.801852899113422"><ele>1765.0</ele><time>2026-05-02T08:55:25.482Z</time></trkpt><trkpt lat="46.28036513029604" lon="11.801721731974324"><ele>1765.0</ele><time>2026-05-02T08:55:26.482Z</time></trkpt><trkpt lat="46.28045045001806" lon="11.801596776749033"><ele>1765.0</ele><time>2026-05-02T08:55:27.482Z</time></trkpt><trkpt lat="46.2805489948161" lon="11.80148131645485"><ele>1765.0</ele><time>2026-05-02T08:55:28.482Z</time></trkpt><trkpt lat="46.280675945781105" lon="11.801390420536169"><ele>1765.0</ele><time>2026-05-02T08:55:29.482Z</time></trkpt><trkpt lat="46.2808301641586" lon="11.80135468109273"><ele>1770.6666666666667</ele><time>2026-05-02T08:55:30.482Z</time></trkpt><trkpt lat="46.28099915181673" lon="11.80131915362734"><ele>1776.3333333333335</ele><time>2026-05-02T08:55:31.482Z</time></trkpt><trkpt lat="46.28118579611485" lon="11.80131029561204"><ele>1782.0</ele><time>2026-05-02T08:55:32.482Z</time></trkpt><trkpt lat="46.281401664844495" lon="11.801319834945904"><ele>1785.6666666666665</ele><time>2026-05-02T08:55:33.482Z</time></trkpt><trkpt lat="46.281608350067" lon="11.801332665303022"><ele>1789.3333333333333</ele><time>2026-05-02T08:55:34.482Z</time></trkpt><trkpt lat="46.28179152112978" lon="11.801327657914204"><ele>1793.0</ele><time>2026-05-02T08:55:35.482Z</time></trkpt><trkpt lat="46.28196555597345" lon="11.801333855462122"><ele>1793.0</ele><time>2026-05-02T08:55:36.482Z</time></trkpt><trkpt lat="46.28211480503155" lon="11.801300076605681"><ele>1793.0</ele><time>2026-05-02T08:55:37.482Z</time></trkpt><trkpt lat="46.2822452685876" lon="11.801269172347974"><ele>1793.0</ele><time>2026-05-02T08:55:38.482Z</time></trkpt><trkpt lat="46.28237201791024" lon="11.80124086866995"><ele>1793.0</ele><time>2026-05-02T08:55:39.482Z</time></trkpt><trkpt lat="46.282475588892" lon="11.801218284119201"><ele>1794.8000000000002</ele><time>2026-05-02T08:55:40.482Z</time></trkpt><trkpt lat="46.28257093018372" lon="11.801193208925378"><ele>1796.6000000000001</ele><time>2026-05-02T08:55:41.482Z</time></trkpt><trkpt lat="46.28264014208846" lon="11.801175641826495"><ele>1798.3999999999999</ele><time>2026-05-02T08:55:42.482Z</time></trkpt><trkpt lat="46.28268128599699" lon="11.80125703042108"><ele>1800.1999999999998</ele><time>2026-05-02T08:55:44.482Z</time></trkpt><trkpt lat="46.28255397144611" lon="11.801388567486052"><ele>1802.0</ele><time>2026-05-02T08:55:46.482Z</time></trkpt><trkpt lat="46.28242861111981" lon="11.80143231958631"><ele>1802.0</ele><time>2026-05-02T08:55:47.482Z</time></trkpt><trkpt lat="46.28228156977506" lon="11.801472888440331"><ele>1802.0</ele><time>2026-05-02T08:55:48.482Z</time></trkpt><trkpt lat="46.28214185122417" lon="11.801543595456259"><ele>1802.0</ele><time>2026-05-02T08:55:49.482Z</time></trkpt><trkpt lat="46.28203009690528" lon="11.801615145810556"><ele>1802.0</ele><time>2026-05-02T08:55:50.482Z</time></trkpt><trkpt lat="46.28193579980939" lon="11.801655703623265"><ele>1803.1666666666665</ele><time>2026-05-02T08:55:51.482Z</time></trkpt><trkpt lat="46.28188024386019" lon="11.801728011598335"><ele>1804.3333333333333</ele><time>2026-05-02T08:55:52.482Z</time></trkpt><trkpt lat="46.281860453514554" lon="11.80181601736285"><ele>1805.5</ele><time>2026-05-02T08:55:53.482Z</time></trkpt><trkpt lat="46.28190534502463" lon="11.801927002329828"><ele>1806.6666666666665</ele><time>2026-05-02T08:55:54.482Z</time></trkpt><trkpt lat="46.28199661744029" lon="11.80195697158553"><ele>1807.8333333333333</ele><time>2026-05-02T08:55:55.482Z</time></trkpt><trkpt lat="46.282104147733385" lon="11.801913938353056"><ele>1809.0</ele><time>2026-05-02T08:55:56.482Z</time></trkpt><trkpt lat="46.282230026980194" lon="11.801912579554813"><ele>1812.0</ele><time>2026-05-02T08:55:57.482Z</time></trkpt><trkpt lat="46.28238162848741" lon="11.801890840063969"><ele>1815.0</ele><time>2026-05-02T08:55:58.482Z</time></trkpt><trkpt lat="46.2825539716817" lon="11.801866573151749"><ele>1818.0</ele><time>2026-05-02T08:55:59.482Z</time></trkpt><trkpt lat="46.28272452948032" lon="11.801842946107264"><ele>1815.75</ele><time>2026-05-02T08:56:00.482Z</time></trkpt><trkpt lat="46.28287368129841" lon="11.801826381867619"><ele>1813.5</ele><time>2026-05-02T08:56:01.482Z</time></trkpt><trkpt lat="46.283018193752135" lon="11.801808583109683"><ele>1811.25</ele><time>2026-05-02T08:56:02.482Z</time></trkpt><trkpt lat="46.28316692926217" lon="11.801785483633548"><ele>1809.0</ele><time>2026-05-02T08:56:03.482Z</time></trkpt><trkpt lat="46.28332008781843" lon="11.801763501644842"><ele>1809.0</ele><time>2026-05-02T08:56:04.482Z</time></trkpt><trkpt lat="46.28349068194532" lon="11.801756348024945"><ele>1809.0</ele><time>2026-05-02T08:56:05.482Z</time></trkpt><trkpt lat="46.283658438167755" lon="11.801776844926605"><ele>1809.0</ele><time>2026-05-02T08:56:06.482Z</time></trkpt><trkpt lat="46.28382288866966" lon="11.80178964469151"><ele>1809.3333333333335</ele><time>2026-05-02T08:56:07.482Z</time></trkpt><trkpt lat="46.28399281458696" lon="11.801784769934493"><ele>1809.6666666666667</ele><time>2026-05-02T08:56:08.482Z</time></trkpt><trkpt lat="46.28415592316299" lon="11.801763574787712"><ele>1810.0</ele><time>2026-05-02T08:56:09.482Z</time></trkpt><trkpt lat="46.28429493096994" lon="11.801730500050331"><ele>1810.0</ele><time>2026-05-02T08:56:10.482Z</time></trkpt><trkpt lat="46.28442174134647" lon="11.801690099450651"><ele>1810.0</ele><time>2026-05-02T08:56:11.482Z</time></trkpt><trkpt lat="46.28453206175561" lon="11.80168173551584"><ele>1810.0</ele><time>2026-05-02T08:56:12.482Z</time></trkpt><trkpt lat="46.284633918236906" lon="11.801669734412657"><ele>1810.0</ele><time>2026-05-02T08:56:13.482Z</time></trkpt><trkpt lat="46.28478758733084" lon="11.801624527784744"><ele>1811.6666666666667</ele><time>2026-05-02T08:56:15.482Z</time></trkpt><trkpt lat="46.28485534658583" lon="11.80160914222223"><ele>1813.3333333333335</ele><time>2026-05-02T08:56:16.482Z</time></trkpt><trkpt lat="46.28493592723345" lon="11.801591479764658"><ele>1815.0</ele><time>2026-05-02T08:56:17.482Z</time></trkpt><trkpt lat="46.28501051568708" lon="11.801556301866126"><ele>1816.6666666666665</ele><time>2026-05-02T08:56:18.482Z</time></trkpt><trkpt lat="46.28509393495344" lon="11.801495692449251"><ele>1818.3333333333333</ele><time>2026-05-02T08:56:19.482Z</time></trkpt><trkpt lat="46.28513336190561" lon="11.801366715640116"><ele>1820.0</ele><time>2026-05-02T08:56:20.482Z</time></trkpt><trkpt lat="46.28512716046375" lon="11.801227597094725"><ele>1820.0</ele><time>2026-05-02T08:56:21.482Z</time></trkpt><trkpt lat="46.285084205203056" lon="11.80108653271534"><ele>1820.0</ele><time>2026-05-02T08:56:22.482Z</time></trkpt><trkpt lat="46.2849628440237" lon="11.801024387476208"><ele>1820.0</ele><time>2026-05-02T08:56:23.482Z</time></trkpt><trkpt lat="46.2848311438204" lon="11.80098485921314"><ele>1820.0</ele><time>2026-05-02T08:56:24.482Z</time></trkpt><trkpt lat="46.284710869422405" lon="11.800881269531619"><ele>1816.4</ele><time>2026-05-02T08:56:25.482Z</time></trkpt><trkpt lat="46.284636687268176" lon="11.800781831298005"><ele>1812.8</ele><time>2026-05-02T08:56:26.482Z</time></trkpt><trkpt lat="46.28461004049638" lon="11.800653888122497"><ele>1809.1999999999998</ele><time>2026-05-02T08:56:27.482Z</time></trkpt><trkpt lat="46.28463475180782" lon="11.800513702821956"><ele>1805.6</ele><time>2026-05-02T08:56:28.482Z</time></trkpt><trkpt lat="46.28467102314497" lon="11.800378474904646"><ele>1802.0</ele><time>2026-05-02T08:56:29.482Z</time></trkpt><trkpt lat="46.28472481132483" lon="11.800225676811518"><ele>1810.75</ele><time>2026-05-02T08:56:30.482Z</time></trkpt><trkpt lat="46.28478715597361" lon="11.800037887158508"><ele>1819.5</ele><time>2026-05-02T08:56:31.482Z</time></trkpt><trkpt lat="46.28480292528836" lon="11.799808368486682"><ele>1828.25</ele><time>2026-05-02T08:56:32.482Z</time></trkpt><trkpt lat="46.28483766437952" lon="11.799653425755487"><ele>1837.0</ele><time>2026-05-02T08:56:33.482Z</time></trkpt><trkpt lat="46.28485519467348" lon="11.799558596075034"><ele>1837.0</ele><time>2026-05-02T08:56:34.482Z</time></trkpt><trkpt lat="46.284924078704506" lon="11.79950759620999"><ele>1837.0</ele><time>2026-05-02T08:56:36.482Z</time></trkpt><trkpt lat="46.284950935326805" lon="11.79967681679658"><ele>1837.0</ele><time>2026-05-02T08:56:38.482Z</time></trkpt><trkpt lat="46.284912466783204" lon="11.799821014950343"><ele>1837.0</ele><time>2026-05-02T08:56:39.482Z</time></trkpt><trkpt lat="46.284874605622434" lon="11.800027202461973"><ele>1835.3999999999999</ele><time>2026-05-02T08:56:40.482Z</time></trkpt><trkpt lat="46.28484079052321" lon="11.800199060050538"><ele>1833.7999999999997</ele><time>2026-05-02T08:56:41.482Z</time></trkpt><trkpt lat="46.2848247869509" lon="11.80033233390354"><ele>1832.2</ele><time>2026-05-02T08:56:42.482Z</time></trkpt><trkpt lat="46.28481193761015" lon="11.800439411777559"><ele>1830.6</ele><time>2026-05-02T08:56:43.482Z</time></trkpt><trkpt lat="46.28487478770128" lon="11.800589552593342"><ele>1829.0</ele><time>2026-05-02T08:56:45.482Z</time></trkpt><trkpt lat="46.284938836116304" lon="11.80063082171532"><ele>1829.0</ele><time>2026-05-02T08:56:46.482Z</time></trkpt><trkpt lat="46.28501825596105" lon="11.800547042676964"><ele>1829.0</ele><time>2026-05-02T08:56:47.482Z</time></trkpt><trkpt lat="46.285028514482" lon="11.80037479575829"><ele>1829.0</ele><time>2026-05-02T08:56:48.482Z</time></trkpt><trkpt lat="46.28501207484696" lon="11.800231621589939"><ele>1829.0</ele><time>2026-05-02T08:56:49.482Z</time></trkpt><trkpt lat="46.28502091966183" lon="11.800078566297662"><ele>1829.0</ele><time>2026-05-02T08:56:50.482Z</time></trkpt><trkpt lat="46.285100435731" lon="11.799945631411662"><ele>1831.3333333333333</ele><time>2026-05-02T08:56:51.482Z</time></trkpt><trkpt lat="46.28518687511997" lon="11.799775167258657"><ele>1833.6666666666665</ele><time>2026-05-02T08:56:52.482Z</time></trkpt><trkpt lat="46.28529810967233" lon="11.79955980346285"><ele>1836.0</ele><time>2026-05-02T08:56:53.482Z</time></trkpt><trkpt lat="46.2853581449583" lon="11.79929489237397"><ele>1836.0</ele><time>2026-05-02T08:56:54.482Z</time></trkpt><trkpt lat="46.28545424176205" lon="11.799028541234753"><ele>1836.0</ele><time>2026-05-02T08:56:56.482Z</time></trkpt><trkpt lat="46.28550976722235" lon="11.798962382150068"><ele>1836.0</ele><time>2026-05-02T08:56:57.482Z</time></trkpt><trkpt lat="46.285545973188206" lon="11.799169945455953"><ele>1836.0</ele><time>2026-05-02T08:56:59.482Z</time></trkpt><trkpt lat="46.2855072507922" lon="11.799333976548235"><ele>1836.25</ele><time>2026-05-02T08:57:00.482Z</time></trkpt><trkpt lat="46.285392631729316" lon="11.7994380263898"><ele>1836.5</ele><time>2026-05-02T08:57:01.482Z</time></trkpt><trkpt lat="46.285331968795816" lon="11.79958166022052"><ele>1836.75</ele><time>2026-05-02T08:57:02.482Z</time></trkpt><trkpt lat="46.285282569409354" lon="11.799758872822332"><ele>1837.0</ele><time>2026-05-02T08:57:03.482Z</time></trkpt><trkpt lat="46.28524589216475" lon="11.799907599895286"><ele>1837.0</ele><time>2026-05-02T08:57:04.482Z</time></trkpt><trkpt lat="46.28521472192579" lon="11.800038555882345"><ele>1836.9999999999998</ele><time>2026-05-02T08:57:05.482Z</time></trkpt><trkpt lat="46.28518155729357" lon="11.800183910282257"><ele>1836.9999999999998</ele><time>2026-05-02T08:57:06.482Z</time></trkpt><trkpt lat="46.2851473059537" lon="11.800292039996048"><ele>1837.0</ele><time>2026-05-02T08:57:07.482Z</time></trkpt><trkpt lat="46.28514816648464" lon="11.800392169651778"><ele>1837.0</ele><time>2026-05-02T08:57:08.482Z</time></trkpt><trkpt lat="46.28526756972053" lon="11.800415615556698"><ele>1837.0</ele><time>2026-05-02T08:57:10.482Z</time></trkpt><trkpt lat="46.285340334736894" lon="11.800365130468787"><ele>1837.0</ele><time>2026-05-02T08:57:11.482Z</time></trkpt><trkpt lat="46.28537106503507" lon="11.800190484794758"><ele>1837.0</ele><time>2026-05-02T08:57:12.482Z</time></trkpt><trkpt lat="46.28537591813628" lon="11.800014321577512"><ele>1837.0</ele><time>2026-05-02T08:57:13.482Z</time></trkpt><trkpt lat="46.285411715605306" lon="11.799829830367095"><ele>1837.0</ele><time>2026-05-02T08:57:14.482Z</time></trkpt><trkpt lat="46.28550321153444" lon="11.799689696642268"><ele>1837.0</ele><time>2026-05-02T08:57:15.482Z</time></trkpt><trkpt lat="46.28562558670869" lon="11.799492897033788"><ele>1837.0</ele><time>2026-05-02T08:57:16.482Z</time></trkpt><trkpt lat="46.28574715970796" lon="11.799278067570514"><ele>1841.6666666666667</ele><time>2026-05-02T08:57:17.482Z</time></trkpt><trkpt lat="46.28588119733885" lon="11.799081954794731"><ele>1846.3333333333335</ele><time>2026-05-02T08:57:18.482Z</time></trkpt><trkpt lat="46.28598806761787" lon="11.798920061168303"><ele>1851.0</ele><time>2026-05-02T08:57:19.482Z</time></trkpt><trkpt lat="46.286080712149975" lon="11.798785012339337"><ele>1851.0</ele><time>2026-05-02T08:57:20.482Z</time></trkpt><trkpt lat="46.28616237293318" lon="11.79868349167601"><ele>1851.0</ele><time>2026-05-02T08:57:21.482Z</time></trkpt><trkpt lat="46.28620490072795" lon="11.798612303646804"><ele>1851.0</ele><time>2026-05-02T08:57:22.482Z</time></trkpt><trkpt lat="46.28621567593882" lon="11.798493298189209"><ele>1851.0</ele><time>2026-05-02T08:57:23.482Z</time></trkpt><trkpt lat="46.286178789691405" lon="11.798359724536404"><ele>1851.0</ele><time>2026-05-02T08:57:24.482Z</time></trkpt><trkpt lat="46.2860882867636" lon="11.798252921924062"><ele>1851.5</ele><time>2026-05-02T08:57:25.482Z</time></trkpt><trkpt lat="46.285969569294004" lon="11.79823862240988"><ele>1852.0</ele><time>2026-05-02T08:57:26.482Z</time></trkpt><trkpt lat="46.28584702024137" lon="11.798250262564375"><ele>1852.5</ele><time>2026-05-02T08:57:27.482Z</time></trkpt><trkpt lat="46.28570632645406" lon="11.79826022883469"><ele>1853.0</ele><time>2026-05-02T08:57:28.482Z</time></trkpt><trkpt lat="46.28554275433635" lon="11.798261672428987"><ele>1853.0</ele><time>2026-05-02T08:57:29.482Z</time></trkpt><trkpt lat="46.28540803780311" lon="11.79823095306153"><ele>1853.0000000000002</ele><time>2026-05-02T08:57:30.482Z</time></trkpt><trkpt lat="46.285314201039455" lon="11.798217771955153"><ele>1853.0000000000002</ele><time>2026-05-02T08:57:31.482Z</time></trkpt><trkpt lat="46.28521292806375" lon="11.798194802286169"><ele>1853.0</ele><time>2026-05-02T08:57:32.482Z</time></trkpt><trkpt lat="46.285112820000556" lon="11.798113883830643"><ele>1853.0</ele><time>2026-05-02T08:57:33.482Z</time></trkpt><trkpt lat="46.28499814210816" lon="11.797998156837458"><ele>1853.0</ele><time>2026-05-02T08:57:34.482Z</time></trkpt><trkpt lat="46.284868692831154" lon="11.797941977490481"><ele>1853.0000000000002</ele><time>2026-05-02T08:57:35.482Z</time></trkpt><trkpt lat="46.28475709551632" lon="11.797906634686527"><ele>1853.0000000000002</ele><time>2026-05-02T08:57:36.482Z</time></trkpt><trkpt lat="46.28467413296351" lon="11.797845818757278"><ele>1853.0</ele><time>2026-05-02T08:57:37.482Z</time></trkpt><trkpt lat="46.28459094132315" lon="11.797805350258384"><ele>1853.0</ele><time>2026-05-02T08:57:38.482Z</time></trkpt><trkpt lat="46.28452534378563" lon="11.797693108600162"><ele>1857.0</ele><time>2026-05-02T08:57:39.482Z</time></trkpt><trkpt lat="46.284486105113196" lon="11.797550662984994"><ele>1861.0000000000002</ele><time>2026-05-02T08:57:40.482Z</time></trkpt><trkpt lat="46.284496297550106" lon="11.797405419568335"><ele>1865.0000000000002</ele><time>2026-05-02T08:57:41.482Z</time></trkpt><trkpt lat="46.284584140597524" lon="11.797314428973312"><ele>1869.0</ele><time>2026-05-02T08:57:42.482Z</time></trkpt><trkpt lat="46.28467112585999" lon="11.797205801730847"><ele>1873.0</ele><time>2026-05-02T08:57:43.482Z</time></trkpt><trkpt lat="46.28478190012702" lon="11.797134531334262"><ele>1876.0</ele><time>2026-05-02T08:57:44.482Z</time></trkpt><trkpt lat="46.284927661832704" lon="11.79705103674304"><ele>1879.0</ele><time>2026-05-02T08:57:45.482Z</time></trkpt><trkpt lat="46.28507588113736" lon="11.796879155443781"><ele>1882.0</ele><time>2026-05-02T08:57:46.482Z</time></trkpt><trkpt lat="46.285228742814176" lon="11.796710314961182"><ele>1882.0</ele><time>2026-05-02T08:57:47.482Z</time></trkpt><trkpt lat="46.28540427458607" lon="11.79654588857344"><ele>1882.0</ele><time>2026-05-02T08:57:48.482Z</time></trkpt><trkpt lat="46.28556071891512" lon="11.796413425048264"><ele>1882.0</ele><time>2026-05-02T08:57:49.482Z</time></trkpt><trkpt lat="46.285712918502014" lon="11.796300809304503"><ele>1884.0</ele><time>2026-05-02T08:57:50.482Z</time></trkpt><trkpt lat="46.28587230903177" lon="11.796176826472616"><ele>1886.0</ele><time>2026-05-02T08:57:51.482Z</time></trkpt><trkpt lat="46.28601791725921" lon="11.796026350930093"><ele>1888.0</ele><time>2026-05-02T08:57:52.482Z</time></trkpt><trkpt lat="46.28615479140054" lon="11.795861396474638"><ele>1888.0</ele><time>2026-05-02T08:57:53.482Z</time></trkpt><trkpt lat="46.2862869082086" lon="11.795717378264332"><ele>1888.0</ele><time>2026-05-02T08:57:54.482Z</time></trkpt><trkpt lat="46.28640881515423" lon="11.795597412654773"><ele>1888.0</ele><time>2026-05-02T08:57:55.482Z</time></trkpt><trkpt lat="46.28652896750762" lon="11.795493847260605"><ele>1892.0</ele><time>2026-05-02T08:57:56.482Z</time></trkpt><trkpt lat="46.28665068447257" lon="11.795393800660786"><ele>1896.0</ele><time>2026-05-02T08:57:57.482Z</time></trkpt><trkpt lat="46.28678675572059" lon="11.795363675716898"><ele>1900.0</ele><time>2026-05-02T08:57:58.482Z</time></trkpt><trkpt lat="46.2869148002724" lon="11.795339890646089"><ele>1904.0</ele><time>2026-05-02T08:57:59.482Z</time></trkpt><trkpt lat="46.287018556235786" lon="11.795362347586828"><ele>1904.0</ele><time>2026-05-02T08:58:00.482Z</time></trkpt><trkpt lat="46.287123083109385" lon="11.795414279496528"><ele>1904.0</ele><time>2026-05-02T08:58:01.482Z</time></trkpt><trkpt lat="46.287233617590665" lon="11.7955420814311"><ele>1904.0</ele><time>2026-05-02T08:58:02.482Z</time></trkpt><trkpt lat="46.28734926320255" lon="11.795669062310804"><ele>1904.0</ele><time>2026-05-02T08:58:03.482Z</time></trkpt><trkpt lat="46.28744544693959" lon="11.795813997000073"><ele>1903.6</ele><time>2026-05-02T08:58:04.482Z</time></trkpt><trkpt lat="46.287531160609184" lon="11.795935072868115"><ele>1903.2</ele><time>2026-05-02T08:58:05.482Z</time></trkpt><trkpt lat="46.28758094324018" lon="11.796094913285383"><ele>1902.7999999999997</ele><time>2026-05-02T08:58:06.482Z</time></trkpt><trkpt lat="46.28762701777626" lon="11.796213281964825"><ele>1902.3999999999999</ele><time>2026-05-02T08:58:07.482Z</time></trkpt><trkpt lat="46.287670832771646" lon="11.796318035169575"><ele>1902.0</ele><time>2026-05-02T08:58:08.482Z</time></trkpt><trkpt lat="46.28771327182327" lon="11.796429484473414"><ele>1904.0</ele><time>2026-05-02T08:58:10.482Z</time></trkpt><trkpt lat="46.287772204697845" lon="11.796493563367767"><ele>1905.9999999999998</ele><time>2026-05-02T08:58:14.482Z</time></trkpt><trkpt lat="46.28772628246646" lon="11.796341576314061"><ele>1907.9999999999998</ele><time>2026-05-02T08:58:20.482Z</time></trkpt><trkpt lat="46.28768496525829" lon="11.79620227467248"><ele>1910.0</ele><time>2026-05-02T08:58:22.482Z</time></trkpt><trkpt lat="46.28776918156231" lon="11.79608370358529"><ele>1912.0</ele><time>2026-05-02T08:58:24.482Z</time></trkpt><trkpt lat="46.287843804356214" lon="11.796081264103606"><ele>1912.0</ele><time>2026-05-02T08:58:25.482Z</time></trkpt><trkpt lat="46.28790317044553" lon="11.796112306421966"><ele>1911.9999999999998</ele><time>2026-05-02T08:58:26.482Z</time></trkpt><trkpt lat="46.288038388800196" lon="11.796089217300803"><ele>1911.9999999999998</ele><time>2026-05-02T08:58:28.482Z</time></trkpt><trkpt lat="46.28810522703793" lon="11.796015973250729"><ele>1912.0</ele><time>2026-05-02T08:58:29.482Z</time></trkpt><trkpt lat="46.288165543458085" lon="11.795892617210058"><ele>1912.0</ele><time>2026-05-02T08:58:30.482Z</time></trkpt><trkpt lat="46.28821216133835" lon="11.79576700900786"><ele>1911.25</ele><time>2026-05-02T08:58:31.482Z</time></trkpt><trkpt lat="46.28824965138415" lon="11.795613761095181"><ele>1910.5</ele><time>2026-05-02T08:58:32.482Z</time></trkpt><trkpt lat="46.28830204119888" lon="11.795429846459554"><ele>1909.75</ele><time>2026-05-02T08:58:33.482Z</time></trkpt><trkpt lat="46.28830003795189" lon="11.795229511915982"><ele>1909.0</ele><time>2026-05-02T08:58:34.482Z</time></trkpt><trkpt lat="46.28829453815189" lon="11.795053622197827"><ele>1908.0</ele><time>2026-05-02T08:58:35.482Z</time></trkpt><trkpt lat="46.28829656875522" lon="11.794891773874673"><ele>1907.0</ele><time>2026-05-02T08:58:36.482Z</time></trkpt><trkpt lat="46.288318367407705" lon="11.794740672509116"><ele>1906.0</ele><time>2026-05-02T08:58:37.482Z</time></trkpt><trkpt lat="46.288365316686075" lon="11.794585036018159"><ele>1905.0</ele><time>2026-05-02T08:58:38.482Z</time></trkpt><trkpt lat="46.28841872599128" lon="11.79442142238322"><ele>1900.75</ele><time>2026-05-02T08:58:39.482Z</time></trkpt><trkpt lat="46.2885090853558" lon="11.794304840325582"><ele>1896.5</ele><time>2026-05-02T08:58:40.482Z</time></trkpt><trkpt lat="46.28859507209626" lon="11.794164414625607"><ele>1892.25</ele><time>2026-05-02T08:58:41.482Z</time></trkpt><trkpt lat="46.288708002699444" lon="11.794068595709685"><ele>1888.0</ele><time>2026-05-02T08:58:42.482Z</time></trkpt><trkpt lat="46.2888335468108" lon="11.793976417081783"><ele>1889.75</ele><time>2026-05-02T08:58:43.482Z</time></trkpt><trkpt lat="46.288967840740035" lon="11.793944219866821"><ele>1891.5</ele><time>2026-05-02T08:58:44.482Z</time></trkpt><trkpt lat="46.289085948968896" lon="11.793924964699274"><ele>1893.25</ele><time>2026-05-02T08:58:45.482Z</time></trkpt><trkpt lat="46.28921442904475" lon="11.79391663186889"><ele>1895.0</ele><time>2026-05-02T08:58:46.482Z</time></trkpt><trkpt lat="46.28934680750888" lon="11.793907690892613"><ele>1895.0</ele><time>2026-05-02T08:58:47.482Z</time></trkpt><trkpt lat="46.289493806523225" lon="11.793892822791356"><ele>1895.0</ele><time>2026-05-02T08:58:48.482Z</time></trkpt><trkpt lat="46.289642103155096" lon="11.793900703034852"><ele>1895.0</ele><time>2026-05-02T08:58:49.482Z</time></trkpt><trkpt lat="46.289790686171884" lon="11.79388823702776"><ele>1895.0</ele><time>2026-05-02T08:58:50.482Z</time></trkpt><trkpt lat="46.28993903703064" lon="11.793845323590512"><ele>1893.3333333333333</ele><time>2026-05-02T08:58:51.482Z</time></trkpt><trkpt lat="46.2901003095881" lon="11.79380150052655"><ele>1891.6666666666665</ele><time>2026-05-02T08:58:52.482Z</time></trkpt><trkpt lat="46.29026468803421" lon="11.793665813579471"><ele>1890.0</ele><time>2026-05-02T08:58:53.482Z</time></trkpt><trkpt lat="46.290449052623075" lon="11.793510185703303"><ele>1895.0</ele><time>2026-05-02T08:58:54.482Z</time></trkpt><trkpt lat="46.29062152381603" lon="11.793309146480746"><ele>1900.0</ele><time>2026-05-02T08:58:55.482Z</time></trkpt><trkpt lat="46.29080762422535" lon="11.793089727190312"><ele>1900.0</ele><time>2026-05-02T08:58:56.482Z</time></trkpt><trkpt lat="46.291017438901925" lon="11.792864046102224"><ele>1900.0</ele><time>2026-05-02T08:58:57.482Z</time></trkpt><trkpt lat="46.29120301132093" lon="11.792776378784286"><ele>1900.0</ele><time>2026-05-02T08:58:58.482Z</time></trkpt><trkpt lat="46.29137546086711" lon="11.792701572745276"><ele>1900.0</ele><time>2026-05-02T08:58:59.482Z</time></trkpt><trkpt lat="46.291546353303964" lon="11.792643845350915"><ele>1900.0</ele><time>2026-05-02T08:59:00.482Z</time></trkpt><trkpt lat="46.29169304766315" lon="11.792585724771728"><ele>1902.0</ele><time>2026-05-02T08:59:01.482Z</time></trkpt><trkpt lat="46.29185060438531" lon="11.792558717009092"><ele>1904.0</ele><time>2026-05-02T08:59:02.482Z</time></trkpt><trkpt lat="46.292008584954715" lon="11.79250005278021"><ele>1906.0</ele><time>2026-05-02T08:59:03.482Z</time></trkpt><trkpt lat="46.292181293387245" lon="11.792440815004236"><ele>1909.3333333333335</ele><time>2026-05-02T08:59:04.482Z</time></trkpt><trkpt lat="46.29235020810471" lon="11.792334174136048"><ele>1912.6666666666665</ele><time>2026-05-02T08:59:05.482Z</time></trkpt><trkpt lat="46.29249844271665" lon="11.792206874769926"><ele>1916.0</ele><time>2026-05-02T08:59:06.482Z</time></trkpt><trkpt lat="46.29262380179745" lon="11.79205671714797"><ele>1916.0</ele><time>2026-05-02T08:59:07.482Z</time></trkpt><trkpt lat="46.292760140728376" lon="11.7919063451821"><ele>1916.0</ele><time>2026-05-02T08:59:08.482Z</time></trkpt><trkpt lat="46.2929019999482" lon="11.791752435683891"><ele>1916.0</ele><time>2026-05-02T08:59:09.482Z</time></trkpt><trkpt lat="46.29304440839099" lon="11.791601097338576"><ele>1918.3333333333333</ele><time>2026-05-02T08:59:10.482Z</time></trkpt><trkpt lat="46.29319940891857" lon="11.791449799676071"><ele>1920.6666666666665</ele><time>2026-05-02T08:59:11.482Z</time></trkpt><trkpt lat="46.293353785339235" lon="11.791290472327272"><ele>1923.0</ele><time>2026-05-02T08:59:12.482Z</time></trkpt><trkpt lat="46.29349536705275" lon="11.791141758652572"><ele>1923.0</ele><time>2026-05-02T08:59:13.482Z</time></trkpt><trkpt lat="46.29361678211908" lon="11.791019009810404"><ele>1923.0</ele><time>2026-05-02T08:59:14.482Z</time></trkpt><trkpt lat="46.29372739853963" lon="11.790902663995764"><ele>1923.0</ele><time>2026-05-02T08:59:15.482Z</time></trkpt><trkpt lat="46.29383264784536" lon="11.790813572234836"><ele>1923.0</ele><time>2026-05-02T08:59:16.482Z</time></trkpt><trkpt lat="46.29393499252026" lon="11.790731878002507"><ele>1924.75</ele><time>2026-05-02T08:59:17.482Z</time></trkpt><trkpt lat="46.29404488322955" lon="11.790668914841621"><ele>1926.5</ele><time>2026-05-02T08:59:18.482Z</time></trkpt><trkpt lat="46.29416202543859" lon="11.790621458151398"><ele>1928.25</ele><time>2026-05-02T08:59:19.482Z</time></trkpt><trkpt lat="46.29428412791112" lon="11.79056444380546"><ele>1930.0</ele><time>2026-05-02T08:59:20.482Z</time></trkpt><trkpt lat="46.29442121009832" lon="11.790552074881886"><ele>1930.0</ele><time>2026-05-02T08:59:21.482Z</time></trkpt><trkpt lat="46.29456942508267" lon="11.790545438531373"><ele>1930.0</ele><time>2026-05-02T08:59:22.482Z</time></trkpt><trkpt lat="46.29472212838947" lon="11.790543659038722"><ele>1930.0</ele><time>2026-05-02T08:59:23.482Z</time></trkpt><trkpt lat="46.29487418336708" lon="11.790527646161083"><ele>1929.3333333333335</ele><time>2026-05-02T08:59:24.482Z</time></trkpt><trkpt lat="46.29504500988464" lon="11.790555101100498"><ele>1928.6666666666665</ele><time>2026-05-02T08:59:25.482Z</time></trkpt><trkpt lat="46.29521522974674" lon="11.790543737456202"><ele>1928.0</ele><time>2026-05-02T08:59:26.482Z</time></trkpt><trkpt lat="46.295392457409974" lon="11.790500509317747"><ele>1928.0</ele><time>2026-05-02T08:59:27.482Z</time></trkpt><trkpt lat="46.29557295907103" lon="11.790424138684214"><ele>1928.0</ele><time>2026-05-02T08:59:28.482Z</time></trkpt><trkpt lat="46.29575948884223" lon="11.790324465267432"><ele>1928.0</ele><time>2026-05-02T08:59:29.482Z</time></trkpt><trkpt lat="46.295929817119394" lon="11.790204371079566"><ele>1932.0</ele><time>2026-05-02T08:59:30.482Z</time></trkpt><trkpt lat="46.296072823967506" lon="11.79007417798838"><ele>1936.0</ele><time>2026-05-02T08:59:31.482Z</time></trkpt><trkpt lat="46.29619430747129" lon="11.78993310653087"><ele>1940.0</ele><time>2026-05-02T08:59:32.482Z</time></trkpt><trkpt lat="46.296306455986375" lon="11.789808856931861"><ele>1941.0</ele><time>2026-05-02T08:59:33.482Z</time></trkpt><trkpt lat="46.296429743011316" lon="11.789686154979714"><ele>1942.0</ele><time>2026-05-02T08:59:34.482Z</time></trkpt><trkpt lat="46.296556317133586" lon="11.789570089424268"><ele>1943.0</ele><time>2026-05-02T08:59:35.482Z</time></trkpt><trkpt lat="46.296670303074926" lon="11.789466737797886"><ele>1944.0</ele><time>2026-05-02T08:59:36.482Z</time></trkpt><trkpt lat="46.296789803134466" lon="11.789431733046772"><ele>1944.0</ele><time>2026-05-02T08:59:37.482Z</time></trkpt><trkpt lat="46.29689091792325" lon="11.789394776366388"><ele>1944.0</ele><time>2026-05-02T08:59:38.482Z</time></trkpt><trkpt lat="46.29699136020837" lon="11.789368349465448"><ele>1944.0</ele><time>2026-05-02T08:59:39.482Z</time></trkpt><trkpt lat="46.29708887010162" lon="11.789355890823186"><ele>1944.0</ele><time>2026-05-02T08:59:40.482Z</time></trkpt><trkpt lat="46.29720277747655" lon="11.789338607455488"><ele>1944.0</ele><time>2026-05-02T08:59:41.482Z</time></trkpt><trkpt lat="46.29731412001789" lon="11.789396718799958"><ele>1947.8000000000002</ele><time>2026-05-02T08:59:42.482Z</time></trkpt><trkpt lat="46.29743563450916" lon="11.789421760160206"><ele>1951.6000000000001</ele><time>2026-05-02T08:59:43.482Z</time></trkpt><trkpt lat="46.29754791431763" lon="11.789421765039984"><ele>1955.4</ele><time>2026-05-02T08:59:44.482Z</time></trkpt><trkpt lat="46.297647721283845" lon="11.7894546062568"><ele>1959.2</ele><time>2026-05-02T08:59:45.482Z</time></trkpt><trkpt lat="46.29774085569169" lon="11.789453216385537"><ele>1963.0</ele><time>2026-05-02T08:59:46.482Z</time></trkpt><trkpt lat="46.29784249713321" lon="11.789403982519534"><ele>1961.6000000000001</ele><time>2026-05-02T08:59:47.482Z</time></trkpt><trkpt lat="46.29791605412938" lon="11.789297344015196"><ele>1960.2000000000003</ele><time>2026-05-02T08:59:48.482Z</time></trkpt><trkpt lat="46.29795208411673" lon="11.789148396781192"><ele>1958.8</ele><time>2026-05-02T08:59:49.482Z</time></trkpt><trkpt lat="46.297945949776256" lon="11.789015906207283"><ele>1957.4</ele><time>2026-05-02T08:59:50.482Z</time></trkpt><trkpt lat="46.297915553009425" lon="11.788890348794723"><ele>1956.0</ele><time>2026-05-02T08:59:51.482Z</time></trkpt><trkpt lat="46.29785194538426" lon="11.788783518569428"><ele>1956.0</ele><time>2026-05-02T08:59:52.482Z</time></trkpt><trkpt lat="46.29775907027862" lon="11.788714997121142"><ele>1956.0</ele><time>2026-05-02T08:59:53.482Z</time></trkpt><trkpt lat="46.29765244842055" lon="11.78870403906095"><ele>1956.0</ele><time>2026-05-02T08:59:54.482Z</time></trkpt><trkpt lat="46.29755162372666" lon="11.788731927910854"><ele>1956.0</ele><time>2026-05-02T08:59:55.482Z</time></trkpt><trkpt lat="46.297429349616536" lon="11.78878111362308"><ele>1956.0</ele><time>2026-05-02T08:59:56.482Z</time></trkpt><trkpt lat="46.29730962525682" lon="11.788807255750404"><ele>1956.4</ele><time>2026-05-02T08:59:57.482Z</time></trkpt><trkpt lat="46.29719442670351" lon="11.788835971809199"><ele>1956.8</ele><time>2026-05-02T08:59:58.482Z</time></trkpt><trkpt lat="46.29709521637712" lon="11.788856270566267"><ele>1957.2000000000003</ele><time>2026-05-02T08:59:59.482Z</time></trkpt><trkpt lat="46.29700388974469" lon="11.788876322697172"><ele>1957.6000000000001</ele><time>2026-05-02T09:00:00.482Z</time></trkpt><trkpt lat="46.2969256916584" lon="11.788887778970917"><ele>1958.0</ele><time>2026-05-02T09:00:01.482Z</time></trkpt><trkpt lat="46.29685776529459" lon="11.788896318587893"><ele>1958.0</ele><time>2026-05-02T09:00:02.482Z</time></trkpt><trkpt lat="46.296781177654665" lon="11.788901015608966"><ele>1958.0000000000002</ele><time>2026-05-02T09:00:03.482Z</time></trkpt><trkpt lat="46.29669565824542" lon="11.788876322479735"><ele>1958.0000000000002</ele><time>2026-05-02T09:00:04.482Z</time></trkpt><trkpt lat="46.29659623436181" lon="11.788836210033526"><ele>1958.0</ele><time>2026-05-02T09:00:05.482Z</time></trkpt><trkpt lat="46.296490013529336" lon="11.788769012151448"><ele>1958.0</ele><time>2026-05-02T09:00:06.482Z</time></trkpt><trkpt lat="46.29640745191977" lon="11.78870027468833"><ele>1958.5714285714284</ele><time>2026-05-02T09:00:07.482Z</time></trkpt><trkpt lat="46.29634057060687" lon="11.788638476318184"><ele>1959.1428571428573</ele><time>2026-05-02T09:00:08.482Z</time></trkpt><trkpt lat="46.296285077722445" lon="11.78856991473396"><ele>1959.7142857142858</ele><time>2026-05-02T09:00:09.482Z</time></trkpt><trkpt lat="46.296247753606494" lon="11.788488103445408"><ele>1960.2857142857142</ele><time>2026-05-02T09:00:10.482Z</time></trkpt><trkpt lat="46.29624206458663" lon="11.788386460520515"><ele>1960.8571428571427</ele><time>2026-05-02T09:00:11.482Z</time></trkpt><trkpt lat="46.29625572862794" lon="11.788277276983067"><ele>1961.4285714285716</ele><time>2026-05-02T09:00:12.482Z</time></trkpt><trkpt lat="46.29626869958183" lon="11.788166858784361"><ele>1962.0</ele><time>2026-05-02T09:00:13.482Z</time></trkpt><trkpt lat="46.29627680200149" lon="11.788068646866826"><ele>1964.1666666666667</ele><time>2026-05-02T09:00:14.482Z</time></trkpt><trkpt lat="46.2962853252326" lon="11.787962038282489"><ele>1966.3333333333335</ele><time>2026-05-02T09:00:15.482Z</time></trkpt><trkpt lat="46.296307231863345" lon="11.787795883014494"><ele>1968.5</ele><time>2026-05-02T09:00:17.482Z</time></trkpt><trkpt lat="46.29632262783455" lon="11.787698310071704"><ele>1970.6666666666667</ele><time>2026-05-02T09:00:18.482Z</time></trkpt><trkpt lat="46.29632424219241" lon="11.787602250095993"><ele>1972.8333333333335</ele><time>2026-05-02T09:00:19.482Z</time></trkpt><trkpt lat="46.29631920823614" lon="11.787493448595107"><ele>1975.0</ele><time>2026-05-02T09:00:20.482Z</time></trkpt><trkpt lat="46.29631220995784" lon="11.787385910428975"><ele>1975.3333333333335</ele><time>2026-05-02T09:00:21.482Z</time></trkpt><trkpt lat="46.29631295717917" lon="11.787274219861198"><ele>1975.6666666666667</ele><time>2026-05-02T09:00:22.482Z</time></trkpt><trkpt lat="46.29631527771702" lon="11.787173496618927"><ele>1976.0</ele><time>2026-05-02T09:00:23.482Z</time></trkpt><trkpt lat="46.296325362769274" lon="11.787073943837946"><ele>1976.3333333333335</ele><time>2026-05-02T09:00:24.482Z</time></trkpt><trkpt lat="46.29632215531503" lon="11.786980565642988"><ele>1976.6666666666667</ele><time>2026-05-02T09:00:25.482Z</time></trkpt><trkpt lat="46.296313837979596" lon="11.786820808310305"><ele>1977.0</ele><time>2026-05-02T09:00:27.482Z</time></trkpt><trkpt lat="46.29631516780693" lon="11.78668207676843"><ele>1977.0</ele><time>2026-05-02T09:00:29.482Z</time></trkpt><trkpt lat="46.29631656128503" lon="11.786556460716069"><ele>1977.0000000000002</ele><time>2026-05-02T09:00:31.482Z</time></trkpt><trkpt lat="46.29632504965351" lon="11.786460732845137"><ele>1977.0</ele><time>2026-05-02T09:00:32.482Z</time></trkpt><trkpt lat="46.29632839331432" lon="11.786356736572662"><ele>1977.0</ele><time>2026-05-02T09:00:33.482Z</time></trkpt><trkpt lat="46.29633509395645" lon="11.78626352934189"><ele>1977.0000000000002</ele><time>2026-05-02T09:00:34.482Z</time></trkpt><trkpt lat="46.29634773723124" lon="11.786163192040126"><ele>1977.0</ele><time>2026-05-02T09:00:35.482Z</time></trkpt><trkpt lat="46.29636046905923" lon="11.786060003809107"><ele>1977.0</ele><time>2026-05-02T09:00:36.482Z</time></trkpt><trkpt lat="46.29637279484951" lon="11.785969813504023"><ele>1976.5</ele><time>2026-05-02T09:00:37.482Z</time></trkpt><trkpt lat="46.296376643462736" lon="11.785828082657028"><ele>1976.0</ele><time>2026-05-02T09:00:39.482Z</time></trkpt><trkpt lat="46.296383310166895" lon="11.785728582704868"><ele>1975.5</ele><time>2026-05-02T09:00:42.482Z</time></trkpt><trkpt lat="46.296393934827556" lon="11.785616239928236"><ele>1975.0</ele><time>2026-05-02T09:00:46.482Z</time></trkpt><trkpt lat="46.29631976674577" lon="11.785906406487412"><ele>1975.3333333333335</ele><time>2026-05-02T09:03:37.483Z</time></trkpt><trkpt lat="46.29630617627606" lon="11.78603421386438"><ele>1975.6666666666667</ele><time>2026-05-02T09:03:39.483Z</time></trkpt><trkpt lat="46.29623908525732" lon="11.78604854903336"><ele>1976.0</ele><time>2026-05-02T09:03:43.483Z</time></trkpt><trkpt lat="46.29631923139605" lon="11.786090525895272"><ele>1976.3333333333335</ele><time>2026-05-02T09:04:33.484Z</time></trkpt><trkpt lat="46.29626621848906" lon="11.786149778008387"><ele>1976.6666666666667</ele><time>2026-05-02T09:04:50.483Z</time></trkpt><trkpt lat="46.29625630673515" lon="11.786247780560888"><ele>1977.0</ele><time>2026-05-02T09:04:56.483Z</time></trkpt><trkpt lat="46.29627270258163" lon="11.78614638403098"><ele>1977.0</ele><time>2026-05-02T09:05:40.483Z</time></trkpt><trkpt lat="46.29628257805573" lon="11.786047805744614"><ele>1977.0000000000002</ele><time>2026-05-02T09:05:45.483Z</time></trkpt><trkpt lat="46.29630048338698" lon="11.785957574339697"><ele>1977.0</ele><time>2026-05-02T09:06:11.483Z</time></trkpt><trkpt lat="46.29631260359295" lon="11.785864058117026"><ele>1977.0</ele><time>2026-05-02T09:06:17.483Z</time></trkpt><trkpt lat="46.29632527315382" lon="11.78576224909383"><ele>1977.0000000000002</ele><time>2026-05-02T09:06:21.483Z</time></trkpt><trkpt lat="46.29632247559633" lon="11.78565981465545"><ele>1977.0</ele><time>2026-05-02T09:06:24.483Z</time></trkpt><trkpt lat="46.29637440950234" lon="11.78559152950426"><ele>1977.0</ele><time>2026-05-02T09:09:24.484Z</time></trkpt><trkpt lat="46.29636912159427" lon="11.785480377406651"><ele>1976.6666666666667</ele><time>2026-05-02T09:09:28.484Z</time></trkpt><trkpt lat="46.2963913432218" lon="11.785362969535173"><ele>1976.3333333333335</ele><time>2026-05-02T09:09:31.484Z</time></trkpt><trkpt lat="46.296412866119276" lon="11.785266749363013"><ele>1976.0</ele><time>2026-05-02T09:09:33.484Z</time></trkpt><trkpt lat="46.296428021484076" lon="11.785170923644342"><ele>1975.6666666666667</ele><time>2026-05-02T09:09:35.484Z</time></trkpt><trkpt lat="46.2964378265262" lon="11.785035304132995"><ele>1975.3333333333335</ele><time>2026-05-02T09:09:38.484Z</time></trkpt><trkpt lat="46.296445264358205" lon="11.78493220154327"><ele>1975.0</ele><time>2026-05-02T09:09:40.484Z</time></trkpt><trkpt lat="46.29643340801156" lon="11.78482696130281"><ele>1974.8333333333335</ele><time>2026-05-02T09:09:43.484Z</time></trkpt><trkpt lat="46.29646292062854" lon="11.784730833773239"><ele>1974.6666666666667</ele><time>2026-05-02T09:09:49.484Z</time></trkpt><trkpt lat="46.29647615980033" lon="11.784633825849337"><ele>1974.5</ele><time>2026-05-02T09:11:39.484Z</time></trkpt><trkpt lat="46.29650064214365" lon="11.784544623189815"><ele>1974.3333333333335</ele><time>2026-05-02T09:11:50.484Z</time></trkpt><trkpt lat="46.29652483701746" lon="11.7844557437331"><ele>1974.1666666666667</ele><time>2026-05-02T09:12:03.484Z</time></trkpt><trkpt lat="46.296387948180104" lon="11.784428228467553"><ele>1974.0</ele><time>2026-05-02T09:13:14.942Z</time></trkpt><trkpt lat="46.296275799042455" lon="11.784562147719496"><ele>1974.0</ele><time>2026-05-02T09:13:20.946Z</time></trkpt><trkpt lat="46.29632683362643" lon="11.784496248767164"><ele>1974.0</ele><time>2026-05-02T09:13:39.5Z</time></trkpt><trkpt lat="46.29635935073084" lon="11.784372909069216"><ele>1974.0</ele><time>2026-05-02T09:13:46.499Z</time></trkpt><trkpt lat="46.29631396006622" lon="11.784475235246248"><ele>1974.0</ele><time>2026-05-02T09:15:16.438Z</time></trkpt><trkpt lat="46.2964141359978" lon="11.784430470788166"><ele>1974.0</ele><time>2026-05-02T09:17:14.484Z</time></trkpt><trkpt lat="46.296537294852" lon="11.784429746442516"><ele>1974.0</ele><time>2026-05-02T09:19:01.484Z</time></trkpt><trkpt lat="46.29642914100841" lon="11.784445496318376"><ele>1974.0</ele><time>2026-05-02T09:19:51.484Z</time></trkpt><trkpt lat="46.2964701506837" lon="11.78432157793232"><ele>1974.0</ele><time>2026-05-02T09:20:22.484Z</time></trkpt><trkpt lat="46.29649160762086" lon="11.784410266302242"><ele>1974.0</ele><time>2026-05-02T09:21:11.483Z</time></trkpt><trkpt lat="46.29642269197461" lon="11.784425603722665"><ele>1974.0</ele><time>2026-05-02T09:21:33.483Z</time></trkpt><trkpt lat="46.296467907438235" lon="11.78450035152574"><ele>1974.0</ele><time>2026-05-02T09:21:38.483Z</time></trkpt><trkpt lat="46.2964776038134" lon="11.784602578674038"><ele>1972.6666666666665</ele><time>2026-05-02T09:21:48.483Z</time></trkpt><trkpt lat="46.2964450057476" lon="11.784240941868424"><ele>1971.3333333333333</ele><time>2026-05-02T09:29:32.478Z</time></trkpt><trkpt lat="46.29645063849766" lon="11.784067223051458"><ele>1970.0</ele><time>2026-05-02T09:29:33.478Z</time></trkpt><trkpt lat="46.29644993444206" lon="11.78389351052845"><ele>1970.0</ele><time>2026-05-02T09:29:34.478Z</time></trkpt><trkpt lat="46.29643988102299" lon="11.783739935847965"><ele>1970.0</ele><time>2026-05-02T09:29:35.478Z</time></trkpt><trkpt lat="46.296433264415555" lon="11.78356661044965"><ele>1970.0</ele><time>2026-05-02T09:29:36.478Z</time></trkpt><trkpt lat="46.29643832397438" lon="11.783394711145057"><ele>1970.0</ele><time>2026-05-02T09:29:37.478Z</time></trkpt><trkpt lat="46.296413970672084" lon="11.783233373300497"><ele>1968.6</ele><time>2026-05-02T09:29:38.478Z</time></trkpt><trkpt lat="46.29640957605692" lon="11.78307209689722"><ele>1967.2</ele><time>2026-05-02T09:29:39.478Z</time></trkpt><trkpt lat="46.29638096009561" lon="11.78290451714362"><ele>1965.8000000000002</ele><time>2026-05-02T09:29:40.478Z</time></trkpt><trkpt lat="46.29635342923482" lon="11.78274812706972"><ele>1964.4</ele><time>2026-05-02T09:29:41.478Z</time></trkpt><trkpt lat="46.29631530485929" lon="11.782606920609746"><ele>1963.0</ele><time>2026-05-02T09:29:42.478Z</time></trkpt><trkpt lat="46.29629764586446" lon="11.782458784422897"><ele>1961.6666666666667</ele><time>2026-05-02T09:29:43.478Z</time></trkpt><trkpt lat="46.29626871801217" lon="11.782329779736159"><ele>1960.3333333333335</ele><time>2026-05-02T09:29:44.478Z</time></trkpt><trkpt lat="46.296225939632464" lon="11.782203553838123"><ele>1959.0</ele><time>2026-05-02T09:29:45.478Z</time></trkpt><trkpt lat="46.29619535960387" lon="11.782088545305342"><ele>1957.6666666666665</ele><time>2026-05-02T09:29:46.478Z</time></trkpt><trkpt lat="46.296174235281995" lon="11.781969867102758"><ele>1956.3333333333333</ele><time>2026-05-02T09:29:47.478Z</time></trkpt><trkpt lat="46.29616436781309" lon="11.781858898313125"><ele>1955.0</ele><time>2026-05-02T09:29:48.478Z</time></trkpt><trkpt lat="46.29615324636213" lon="11.781754064509068"><ele>1953.6666666666665</ele><time>2026-05-02T09:29:49.478Z</time></trkpt><trkpt lat="46.29614692368212" lon="11.781642768184984"><ele>1952.3333333333333</ele><time>2026-05-02T09:29:50.478Z</time></trkpt><trkpt lat="46.296143561319255" lon="11.78153285033479"><ele>1951.0</ele><time>2026-05-02T09:29:51.478Z</time></trkpt><trkpt lat="46.29614675392068" lon="11.781393964335109"><ele>1949.6666666666665</ele><time>2026-05-02T09:29:52.478Z</time></trkpt><trkpt lat="46.296153259953066" lon="11.781260662862818"><ele>1948.3333333333333</ele><time>2026-05-02T09:29:53.478Z</time></trkpt><trkpt lat="46.29616672391323" lon="11.781122953400729"><ele>1947.0</ele><time>2026-05-02T09:29:54.478Z</time></trkpt><trkpt lat="46.296193819443175" lon="11.780979705264738"><ele>1947.0</ele><time>2026-05-02T09:29:55.478Z</time></trkpt><trkpt lat="46.29623557017509" lon="11.780837855768695"><ele>1946.9999999999998</ele><time>2026-05-02T09:29:56.478Z</time></trkpt><trkpt lat="46.29628524948294" lon="11.780694306541418"><ele>1946.9999999999998</ele><time>2026-05-02T09:29:57.478Z</time></trkpt><trkpt lat="46.296349083943646" lon="11.78055882862442"><ele>1947.0</ele><time>2026-05-02T09:29:58.478Z</time></trkpt><trkpt lat="46.296436745135956" lon="11.780444062314128"><ele>1947.0</ele><time>2026-05-02T09:29:59.478Z</time></trkpt><trkpt lat="46.29651612662528" lon="11.78033654189748"><ele>1947.0</ele><time>2026-05-02T09:30:00.478Z</time></trkpt><trkpt lat="46.296616012010766" lon="11.780256685232679"><ele>1946.9999999999998</ele><time>2026-05-02T09:30:01.478Z</time></trkpt><trkpt lat="46.29672627519758" lon="11.780214117827098"><ele>1946.9999999999998</ele><time>2026-05-02T09:30:02.478Z</time></trkpt><trkpt lat="46.296810832691065" lon="11.780181311742368"><ele>1947.0</ele><time>2026-05-02T09:30:03.478Z</time></trkpt><trkpt lat="46.29691451280635" lon="11.780172023346909"><ele>1947.0</ele><time>2026-05-02T09:30:04.478Z</time></trkpt><trkpt lat="46.297009212086266" lon="11.780121986156905"><ele>1945.5</ele><time>2026-05-02T09:30:05.478Z</time></trkpt><trkpt lat="46.297102673438566" lon="11.780102729164508"><ele>1944.0</ele><time>2026-05-02T09:30:06.478Z</time></trkpt><trkpt lat="46.29719827423667" lon="11.78007970788925"><ele>1942.5</ele><time>2026-05-02T09:30:07.478Z</time></trkpt><trkpt lat="46.29728335077825" lon="11.780019523681423"><ele>1941.0</ele><time>2026-05-02T09:30:08.478Z</time></trkpt><trkpt lat="46.29736692917499" lon="11.779959068336364"><ele>1939.5</ele><time>2026-05-02T09:30:09.478Z</time></trkpt><trkpt lat="46.29740212563875" lon="11.779881777515206"><ele>1938.0</ele><time>2026-05-02T09:30:10.478Z</time></trkpt><trkpt lat="46.297405163262916" lon="11.77976635491976"><ele>1938.0</ele><time>2026-05-02T09:30:11.478Z</time></trkpt><trkpt lat="46.29733352829092" lon="11.779652797912782"><ele>1938.0</ele><time>2026-05-02T09:30:12.478Z</time></trkpt><trkpt lat="46.29723162472004" lon="11.77962461478371"><ele>1938.0</ele><time>2026-05-02T09:30:13.478Z</time></trkpt><trkpt lat="46.29711452910996" lon="11.77961692548613"><ele>1938.0</ele><time>2026-05-02T09:30:14.478Z</time></trkpt><trkpt lat="46.296979092705875" lon="11.779599384995661"><ele>1937.25</ele><time>2026-05-02T09:30:15.478Z</time></trkpt><trkpt lat="46.296854684338015" lon="11.7795354243736"><ele>1936.5</ele><time>2026-05-02T09:30:16.478Z</time></trkpt><trkpt lat="46.29674464404346" lon="11.77946913319913"><ele>1935.75</ele><time>2026-05-02T09:30:17.478Z</time></trkpt><trkpt lat="46.29663904373031" lon="11.779438637580178"><ele>1935.0</ele><time>2026-05-02T09:30:18.478Z</time></trkpt><trkpt lat="46.29653383563384" lon="11.779434573460765"><ele>1935.0</ele><time>2026-05-02T09:30:19.478Z</time></trkpt><trkpt lat="46.29642804573677" lon="11.779447954571003"><ele>1935.0</ele><time>2026-05-02T09:30:20.478Z</time></trkpt><trkpt lat="46.29632031761025" lon="11.779471508524502"><ele>1935.0</ele><time>2026-05-02T09:30:21.478Z</time></trkpt><trkpt lat="46.2962198416807" lon="11.77952821421506"><ele>1935.0</ele><time>2026-05-02T09:30:22.478Z</time></trkpt><trkpt lat="46.29611500597602" lon="11.779588097445107"><ele>1935.0</ele><time>2026-05-02T09:30:23.478Z</time></trkpt><trkpt lat="46.29601987935173" lon="11.779653002203917"><ele>1933.4</ele><time>2026-05-02T09:30:24.478Z</time></trkpt><trkpt lat="46.29591850606729" lon="11.779719848889002"><ele>1931.8</ele><time>2026-05-02T09:30:25.478Z</time></trkpt><trkpt lat="46.29581574358656" lon="11.779772240422414"><ele>1930.1999999999998</ele><time>2026-05-02T09:30:26.478Z</time></trkpt><trkpt lat="46.29572554036911" lon="11.779833416849367"><ele>1928.6</ele><time>2026-05-02T09:30:27.478Z</time></trkpt><trkpt lat="46.295641424932256" lon="11.779878638340207"><ele>1927.0</ele><time>2026-05-02T09:30:28.478Z</time></trkpt><trkpt lat="46.295563540439574" lon="11.779917459468571"><ele>1924.0</ele><time>2026-05-02T09:30:29.478Z</time></trkpt><trkpt lat="46.29549870455453" lon="11.779947095648332"><ele>1920.9999999999998</ele><time>2026-05-02T09:30:30.478Z</time></trkpt><trkpt lat="46.295425746613425" lon="11.779932420281675"><ele>1917.9999999999998</ele><time>2026-05-02T09:30:31.478Z</time></trkpt><trkpt lat="46.2953738648667" lon="11.77984693155693"><ele>1915.0</ele><time>2026-05-02T09:30:33.478Z</time></trkpt><trkpt lat="46.29539894137437" lon="11.779600772078672"><ele>1912.0</ele><time>2026-05-02T09:30:35.478Z</time></trkpt><trkpt lat="46.295586221928986" lon="11.77951935312257"><ele>1912.3333333333335</ele><time>2026-05-02T09:30:36.478Z</time></trkpt><trkpt lat="46.295700726360344" lon="11.779302724525802"><ele>1912.6666666666665</ele><time>2026-05-02T09:30:37.478Z</time></trkpt><trkpt lat="46.2957692994362" lon="11.779029810929295"><ele>1913.0</ele><time>2026-05-02T09:30:38.478Z</time></trkpt><trkpt lat="46.29581592045433" lon="11.778742727501733"><ele>1910.6666666666665</ele><time>2026-05-02T09:30:39.478Z</time></trkpt><trkpt lat="46.29590263539598" lon="11.778424568936593"><ele>1908.3333333333335</ele><time>2026-05-02T09:30:40.478Z</time></trkpt><trkpt lat="46.29591911110212" lon="11.77817953317041"><ele>1906.0</ele><time>2026-05-02T09:30:41.478Z</time></trkpt><trkpt lat="46.29592847439303" lon="11.777925781551017"><ele>1906.0</ele><time>2026-05-02T09:30:42.478Z</time></trkpt><trkpt lat="46.29589025374524" lon="11.777708431239382"><ele>1906.0</ele><time>2026-05-02T09:30:43.478Z</time></trkpt><trkpt lat="46.29590287285714" lon="11.777471089257848"><ele>1906.0</ele><time>2026-05-02T09:30:44.478Z</time></trkpt><trkpt lat="46.29587833454753" lon="11.777251588912435"><ele>1904.3333333333335</ele><time>2026-05-02T09:30:45.478Z</time></trkpt><trkpt lat="46.29585475188345" lon="11.776993439744123"><ele>1902.6666666666665</ele><time>2026-05-02T09:30:46.478Z</time></trkpt><trkpt lat="46.29584948246808" lon="11.776724142327467"><ele>1901.0</ele><time>2026-05-02T09:30:47.478Z</time></trkpt><trkpt lat="46.29583142889998" lon="11.776486042999538"><ele>1900.0</ele><time>2026-05-02T09:30:48.478Z</time></trkpt><trkpt lat="46.295827149708984" lon="11.776255620715505"><ele>1899.0</ele><time>2026-05-02T09:30:49.478Z</time></trkpt><trkpt lat="46.29581901365153" lon="11.776023150930612"><ele>1898.0</ele><time>2026-05-02T09:30:50.478Z</time></trkpt><trkpt lat="46.29580254094788" lon="11.775822353420311"><ele>1897.5</ele><time>2026-05-02T09:30:51.478Z</time></trkpt><trkpt lat="46.29579966828771" lon="11.7756152844493"><ele>1897.0</ele><time>2026-05-02T09:30:52.478Z</time></trkpt><trkpt lat="46.295799705246885" lon="11.775418013335793"><ele>1896.5</ele><time>2026-05-02T09:30:53.478Z</time></trkpt><trkpt lat="46.295796336216455" lon="11.775214759241827"><ele>1896.0</ele><time>2026-05-02T09:30:54.478Z</time></trkpt><trkpt lat="46.29579794909466" lon="11.774994805451195"><ele>1894.5</ele><time>2026-05-02T09:30:55.478Z</time></trkpt><trkpt lat="46.29578887866435" lon="11.774792429646716"><ele>1893.0</ele><time>2026-05-02T09:30:56.478Z</time></trkpt><trkpt lat="46.29580337175108" lon="11.77458699727912"><ele>1891.5</ele><time>2026-05-02T09:30:57.478Z</time></trkpt><trkpt lat="46.295786001115616" lon="11.774347723447068"><ele>1890.0</ele><time>2026-05-02T09:30:58.478Z</time></trkpt><trkpt lat="46.29575664715476" lon="11.774086872364308"><ele>1888.6666666666665</ele><time>2026-05-02T09:30:59.478Z</time></trkpt><trkpt lat="46.295732189998574" lon="11.773858591983377"><ele>1887.3333333333333</ele><time>2026-05-02T09:31:00.478Z</time></trkpt><trkpt lat="46.29572750836867" lon="11.773645576408201"><ele>1886.0</ele><time>2026-05-02T09:31:01.478Z</time></trkpt><trkpt lat="46.29571256454052" lon="11.773428264605084"><ele>1885.0</ele><time>2026-05-02T09:31:02.478Z</time></trkpt><trkpt lat="46.295706590435444" lon="11.773222797079539"><ele>1884.0</ele><time>2026-05-02T09:31:03.478Z</time></trkpt><trkpt lat="46.29571725851897" lon="11.773021703298868"><ele>1883.0</ele><time>2026-05-02T09:31:04.478Z</time></trkpt><trkpt lat="46.295736510877916" lon="11.772785776111446"><ele>1882.0</ele><time>2026-05-02T09:31:05.478Z</time></trkpt><trkpt lat="46.29578090934446" lon="11.772566510831732"><ele>1881.0</ele><time>2026-05-02T09:31:06.478Z</time></trkpt><trkpt lat="46.29584928325441" lon="11.772373308122104"><ele>1880.0</ele><time>2026-05-02T09:31:07.478Z</time></trkpt><trkpt lat="46.295940542003265" lon="11.772184316414108"><ele>1879.0</ele><time>2026-05-02T09:31:08.478Z</time></trkpt><trkpt lat="46.29600602139376" lon="11.77202054974073"><ele>1878.0</ele><time>2026-05-02T09:31:09.478Z</time></trkpt><trkpt lat="46.29606703689565" lon="11.771900287496225"><ele>1876.5</ele><time>2026-05-02T09:31:10.478Z</time></trkpt><trkpt lat="46.296157053045754" lon="11.771814591386224"><ele>1875.0</ele><time>2026-05-02T09:31:11.478Z</time></trkpt><trkpt lat="46.29625769405288" lon="11.771780517537767"><ele>1873.5</ele><time>2026-05-02T09:31:12.478Z</time></trkpt><trkpt lat="46.29641044022569" lon="11.771780284938046"><ele>1872.0</ele><time>2026-05-02T09:31:13.478Z</time></trkpt><trkpt lat="46.296541917306776" lon="11.771780710552566"><ele>1872.0</ele><time>2026-05-02T09:31:14.478Z</time></trkpt><trkpt lat="46.296665486044354" lon="11.771714118454172"><ele>1872.0</ele><time>2026-05-02T09:31:15.478Z</time></trkpt><trkpt lat="46.29678164876396" lon="11.771632032203897"><ele>1872.0</ele><time>2026-05-02T09:31:16.478Z</time></trkpt><trkpt lat="46.2969071846585" lon="11.771514832011905"><ele>1872.0</ele><time>2026-05-02T09:31:17.478Z</time></trkpt><trkpt lat="46.297020089645315" lon="11.771354247269844"><ele>1872.0</ele><time>2026-05-02T09:31:18.478Z</time></trkpt><trkpt lat="46.29712217708197" lon="11.771177690094206"><ele>1872.0</ele><time>2026-05-02T09:31:19.478Z</time></trkpt><trkpt lat="46.297221181018315" lon="11.771024921288506"><ele>1872.0</ele><time>2026-05-02T09:31:20.478Z</time></trkpt><trkpt lat="46.29732025190334" lon="11.770883826614655"><ele>1872.0</ele><time>2026-05-02T09:31:21.478Z</time></trkpt><trkpt lat="46.297409752393975" lon="11.770768048051469"><ele>1869.8</ele><time>2026-05-02T09:31:22.478Z</time></trkpt><trkpt lat="46.29751188566136" lon="11.77066614814093"><ele>1867.6</ele><time>2026-05-02T09:31:23.478Z</time></trkpt><trkpt lat="46.29760562880577" lon="11.770604536503875"><ele>1865.3999999999999</ele><time>2026-05-02T09:31:24.478Z</time></trkpt><trkpt lat="46.29766048298271" lon="11.770510496090456"><ele>1863.1999999999998</ele><time>2026-05-02T09:31:25.478Z</time></trkpt><trkpt lat="46.29765665476115" lon="11.770385921276672"><ele>1861.0</ele><time>2026-05-02T09:31:26.478Z</time></trkpt><trkpt lat="46.29759816947873" lon="11.770269553508482"><ele>1861.0</ele><time>2026-05-02T09:31:27.478Z</time></trkpt><trkpt lat="46.297508406843164" lon="11.77023182450926"><ele>1861.0</ele><time>2026-05-02T09:31:28.478Z</time></trkpt><trkpt lat="46.29739628659145" lon="11.770267136171386"><ele>1861.0</ele><time>2026-05-02T09:31:29.478Z</time></trkpt><trkpt lat="46.29724428273291" lon="11.770312408914137"><ele>1861.0</ele><time>2026-05-02T09:31:30.478Z</time></trkpt><trkpt lat="46.29708203129422" lon="11.77038960545266"><ele>1861.6666666666667</ele><time>2026-05-02T09:31:31.478Z</time></trkpt><trkpt lat="46.29692086151212" lon="11.770427081470052"><ele>1862.3333333333335</ele><time>2026-05-02T09:31:32.478Z</time></trkpt><trkpt lat="46.29677198583617" lon="11.770482702092375"><ele>1863.0</ele><time>2026-05-02T09:31:33.478Z</time></trkpt><trkpt lat="46.296609605036885" lon="11.770533808354742"><ele>1863.0</ele><time>2026-05-02T09:31:34.478Z</time></trkpt><trkpt lat="46.29644945793872" lon="11.770601028292916"><ele>1863.0</ele><time>2026-05-02T09:31:35.478Z</time></trkpt><trkpt lat="46.2962866183594" lon="11.770676964009757"><ele>1863.0</ele><time>2026-05-02T09:31:36.478Z</time></trkpt><trkpt lat="46.29612468092983" lon="11.770753334366317"><ele>1859.6666666666665</ele><time>2026-05-02T09:31:37.478Z</time></trkpt><trkpt lat="46.29597724369096" lon="11.770838054702821"><ele>1856.3333333333333</ele><time>2026-05-02T09:31:38.478Z</time></trkpt><trkpt lat="46.29583400719091" lon="11.77092309759793"><ele>1853.0</ele><time>2026-05-02T09:31:39.478Z</time></trkpt><trkpt lat="46.29569764071841" lon="11.771007956406216"><ele>1851.3333333333333</ele><time>2026-05-02T09:31:40.478Z</time></trkpt><trkpt lat="46.29556269825772" lon="11.771117843665097"><ele>1849.6666666666665</ele><time>2026-05-02T09:31:41.478Z</time></trkpt><trkpt lat="46.29542539639405" lon="11.771246888603518"><ele>1848.0</ele><time>2026-05-02T09:31:42.478Z</time></trkpt><trkpt lat="46.295289453099905" lon="11.771379886000897"><ele>1848.0</ele><time>2026-05-02T09:31:43.478Z</time></trkpt><trkpt lat="46.295149773616025" lon="11.771543386055003"><ele>1848.0</ele><time>2026-05-02T09:31:44.478Z</time></trkpt><trkpt lat="46.2950138531401" lon="11.771680508934457"><ele>1848.0</ele><time>2026-05-02T09:31:45.478Z</time></trkpt><trkpt lat="46.29488729557117" lon="11.771810044380885"><ele>1851.0</ele><time>2026-05-02T09:31:46.478Z</time></trkpt><trkpt lat="46.29477794103981" lon="11.77192848738923"><ele>1854.0</ele><time>2026-05-02T09:31:47.478Z</time></trkpt><trkpt lat="46.294681191868264" lon="11.772041997811012"><ele>1857.0</ele><time>2026-05-02T09:31:48.478Z</time></trkpt><trkpt lat="46.2946094795834" lon="11.772160028456222"><ele>1860.0</ele><time>2026-05-02T09:31:49.478Z</time></trkpt><trkpt lat="46.29454778608092" lon="11.772267774396843"><ele>1855.0</ele><time>2026-05-02T09:31:50.478Z</time></trkpt><trkpt lat="46.29450510296692" lon="11.772383935868096"><ele>1850.0</ele><time>2026-05-02T09:31:51.478Z</time></trkpt><trkpt lat="46.29447969601386" lon="11.772478734480641"><ele>1845.0</ele><time>2026-05-02T09:31:52.478Z</time></trkpt><trkpt lat="46.29436209794369" lon="11.772482847252391"><ele>1840.0</ele><time>2026-05-02T09:31:54.478Z</time></trkpt><trkpt lat="46.2943259208295" lon="11.772376036800628"><ele>1835.0</ele><time>2026-05-02T09:31:55.478Z</time></trkpt><trkpt lat="46.29437844154682" lon="11.772268669499988"><ele>1835.0</ele><time>2026-05-02T09:31:56.478Z</time></trkpt><trkpt lat="46.29441701362412" lon="11.772108476764558"><ele>1835.0</ele><time>2026-05-02T09:31:57.478Z</time></trkpt><trkpt lat="46.294504377958305" lon="11.771912273287173"><ele>1835.0</ele><time>2026-05-02T09:31:58.478Z</time></trkpt><trkpt lat="46.29458527987022" lon="11.771630060146833"><ele>1834.3333333333333</ele><time>2026-05-02T09:31:59.478Z</time></trkpt><trkpt lat="46.29467544577655" lon="11.77135778642399"><ele>1833.6666666666665</ele><time>2026-05-02T09:32:00.478Z</time></trkpt><trkpt lat="46.29475321459508" lon="11.771117192809557"><ele>1833.0</ele><time>2026-05-02T09:32:01.478Z</time></trkpt><trkpt lat="46.294828071433656" lon="11.77088935807666"><ele>1833.0</ele><time>2026-05-02T09:32:02.478Z</time></trkpt><trkpt lat="46.29490189585711" lon="11.770674361936168"><ele>1833.0</ele><time>2026-05-02T09:32:03.478Z</time></trkpt><trkpt lat="46.29498951309452" lon="11.770487496047378"><ele>1833.0</ele><time>2026-05-02T09:32:04.478Z</time></trkpt><trkpt lat="46.2950888248072" lon="11.7703298939233"><ele>1833.0</ele><time>2026-05-02T09:32:05.478Z</time></trkpt><trkpt lat="46.29520534923797" lon="11.77021871243495"><ele>1833.0</ele><time>2026-05-02T09:32:06.478Z</time></trkpt><trkpt lat="46.295326352411145" lon="11.770109115630063"><ele>1833.0</ele><time>2026-05-02T09:32:07.478Z</time></trkpt><trkpt lat="46.295422536003706" lon="11.769987333080476"><ele>1833.0</ele><time>2026-05-02T09:32:08.478Z</time></trkpt><trkpt lat="46.295495682330944" lon="11.769739741624518"><ele>1829.0</ele><time>2026-05-02T09:32:09.478Z</time></trkpt><trkpt lat="46.29556402857067" lon="11.76949617926947"><ele>1825.0</ele><time>2026-05-02T09:32:10.478Z</time></trkpt><trkpt lat="46.295648366872946" lon="11.769247958303767"><ele>1821.0</ele><time>2026-05-02T09:32:11.478Z</time></trkpt><trkpt lat="46.29571639928647" lon="11.769000063652662"><ele>1821.0</ele><time>2026-05-02T09:32:12.478Z</time></trkpt><trkpt lat="46.29578991627651" lon="11.76876489002338"><ele>1821.0</ele><time>2026-05-02T09:32:13.478Z</time></trkpt><trkpt lat="46.29585303364022" lon="11.768539784436658"><ele>1821.0</ele><time>2026-05-02T09:32:14.478Z</time></trkpt><trkpt lat="46.29590188246971" lon="11.768324921346913"><ele>1818.3333333333335</ele><time>2026-05-02T09:32:15.478Z</time></trkpt><trkpt lat="46.29594480153757" lon="11.768095930038163"><ele>1815.6666666666667</ele><time>2026-05-02T09:32:16.478Z</time></trkpt><trkpt lat="46.29597874112311" lon="11.767882350488968"><ele>1813.0</ele><time>2026-05-02T09:32:17.478Z</time></trkpt><trkpt lat="46.29601265694227" lon="11.767667713699717"><ele>1810.3333333333335</ele><time>2026-05-02T09:32:18.478Z</time></trkpt><trkpt lat="46.2960426330036" lon="11.767461074940222"><ele>1807.6666666666665</ele><time>2026-05-02T09:32:19.478Z</time></trkpt><trkpt lat="46.29607569835522" lon="11.767243541324197"><ele>1805.0</ele><time>2026-05-02T09:32:20.478Z</time></trkpt><trkpt lat="46.2961166859846" lon="11.767029344050133"><ele>1802.0</ele><time>2026-05-02T09:32:21.478Z</time></trkpt><trkpt lat="46.296189737315586" lon="11.766813208024239"><ele>1799.0</ele><time>2026-05-02T09:32:22.478Z</time></trkpt><trkpt lat="46.29628058760274" lon="11.766617592371759"><ele>1796.0</ele><time>2026-05-02T09:32:23.478Z</time></trkpt><trkpt lat="46.29637097485607" lon="11.766416971730767"><ele>1799.0</ele><time>2026-05-02T09:32:24.478Z</time></trkpt><trkpt lat="46.29645330846812" lon="11.766209975294815"><ele>1802.0</ele><time>2026-05-02T09:32:25.478Z</time></trkpt><trkpt lat="46.29653872404463" lon="11.766018879597283"><ele>1805.0</ele><time>2026-05-02T09:32:26.478Z</time></trkpt><trkpt lat="46.29660602684192" lon="11.765847628354566"><ele>1805.0</ele><time>2026-05-02T09:32:27.478Z</time></trkpt><trkpt lat="46.2966707309219" lon="11.765681399281764"><ele>1805.0</ele><time>2026-05-02T09:32:28.478Z</time></trkpt><trkpt lat="46.29676308831921" lon="11.765551912985021"><ele>1805.0</ele><time>2026-05-02T09:32:29.478Z</time></trkpt><trkpt lat="46.296899985191565" lon="11.765424252209902"><ele>1805.0</ele><time>2026-05-02T09:32:30.478Z</time></trkpt><trkpt lat="46.297001525737805" lon="11.765341740492646"><ele>1805.0</ele><time>2026-05-02T09:32:31.478Z</time></trkpt><trkpt lat="46.29715344629554" lon="11.765249361371685"><ele>1805.0</ele><time>2026-05-02T09:32:32.478Z</time></trkpt><trkpt lat="46.297281783184076" lon="11.765146431623126"><ele>1805.0</ele><time>2026-05-02T09:32:33.478Z</time></trkpt><trkpt lat="46.29741429361139" lon="11.765044773595523"><ele>1803.5</ele><time>2026-05-02T09:32:34.478Z</time></trkpt><trkpt lat="46.29752611155693" lon="11.76494452439223"><ele>1802.0</ele><time>2026-05-02T09:32:35.478Z</time></trkpt><trkpt lat="46.29764321137887" lon="11.76485807936075"><ele>1800.5</ele><time>2026-05-02T09:32:36.478Z</time></trkpt><trkpt lat="46.297764552003166" lon="11.764775882732685"><ele>1799.0</ele><time>2026-05-02T09:32:37.478Z</time></trkpt><trkpt lat="46.297887445449476" lon="11.764686527134327"><ele>1799.0</ele><time>2026-05-02T09:32:38.478Z</time></trkpt><trkpt lat="46.29800960508697" lon="11.764611017611678"><ele>1799.0</ele><time>2026-05-02T09:32:39.478Z</time></trkpt><trkpt lat="46.298130854445574" lon="11.764542002478027"><ele>1799.0</ele><time>2026-05-02T09:32:40.478Z</time></trkpt><trkpt lat="46.298233128866606" lon="11.764448225590828"><ele>1799.0</ele><time>2026-05-02T09:32:41.478Z</time></trkpt><trkpt lat="46.29834105562945" lon="11.764357674107087"><ele>1794.25</ele><time>2026-05-02T09:32:42.478Z</time></trkpt><trkpt lat="46.29845595898529" lon="11.764283094517024"><ele>1789.5</ele><time>2026-05-02T09:32:43.478Z</time></trkpt><trkpt lat="46.29856460532201" lon="11.764231598076474"><ele>1784.75</ele><time>2026-05-02T09:32:44.478Z</time></trkpt><trkpt lat="46.298674220360695" lon="11.764177402354434"><ele>1780.0</ele><time>2026-05-02T09:32:45.478Z</time></trkpt><trkpt lat="46.298792206500636" lon="11.764152147799386"><ele>1780.0</ele><time>2026-05-02T09:32:46.478Z</time></trkpt><trkpt lat="46.29889965312358" lon="11.764176336328175"><ele>1780.0</ele><time>2026-05-02T09:32:47.478Z</time></trkpt><trkpt lat="46.29897360603142" lon="11.76421275797762"><ele>1780.0</ele><time>2026-05-02T09:32:48.478Z</time></trkpt><trkpt lat="46.29908727436269" lon="11.764304052563674"><ele>1780.0</ele><time>2026-05-02T09:32:49.478Z</time></trkpt><trkpt lat="46.299169125561264" lon="11.76429269857127"><ele>1780.0</ele><time>2026-05-02T09:32:50.478Z</time></trkpt><trkpt lat="46.2992606084717" lon="11.764188729185353"><ele>1781.0</ele><time>2026-05-02T09:32:51.478Z</time></trkpt><trkpt lat="46.29936525795311" lon="11.764109992764425"><ele>1782.0</ele><time>2026-05-02T09:32:52.478Z</time></trkpt><trkpt lat="46.299466745783356" lon="11.764021025335946"><ele>1783.0</ele><time>2026-05-02T09:32:53.478Z</time></trkpt><trkpt lat="46.29952853579502" lon="11.763923261304786"><ele>1784.0</ele><time>2026-05-02T09:32:54.478Z</time></trkpt><trkpt lat="46.299599602191456" lon="11.763862265384484"><ele>1785.0</ele><time>2026-05-02T09:32:55.478Z</time></trkpt><trkpt lat="46.29968064750528" lon="11.763825489319832"><ele>1785.0</ele><time>2026-05-02T09:32:56.478Z</time></trkpt><trkpt lat="46.299747678709025" lon="11.763788805159791"><ele>1785.0</ele><time>2026-05-02T09:32:57.478Z</time></trkpt><trkpt lat="46.29982791248356" lon="11.763758643593231"><ele>1785.0</ele><time>2026-05-02T09:32:58.478Z</time></trkpt><trkpt lat="46.299900880751636" lon="11.763753339577512"><ele>1785.0</ele><time>2026-05-02T09:32:59.478Z</time></trkpt><trkpt lat="46.29997958617096" lon="11.76374500002928"><ele>1785.0</ele><time>2026-05-02T09:33:00.478Z</time></trkpt><trkpt lat="46.30005434209666" lon="11.763717033696222"><ele>1785.0</ele><time>2026-05-02T09:33:01.478Z</time></trkpt><trkpt lat="46.300110361417055" lon="11.763633091573267"><ele>1780.5</ele><time>2026-05-02T09:33:02.478Z</time></trkpt><trkpt lat="46.300113367044375" lon="11.763497707697184"><ele>1776.0</ele><time>2026-05-02T09:33:03.478Z</time></trkpt><trkpt lat="46.300103363415225" lon="11.763376702866685"><ele>1771.5</ele><time>2026-05-02T09:33:04.478Z</time></trkpt><trkpt lat="46.300051642607166" lon="11.763267307613463"><ele>1767.0</ele><time>2026-05-02T09:33:05.478Z</time></trkpt><trkpt lat="46.2998664461374" lon="11.76326085471434"><ele>1767.0</ele><time>2026-05-02T09:33:07.478Z</time></trkpt><trkpt lat="46.29975507537713" lon="11.763283365470112"><ele>1767.0</ele><time>2026-05-02T09:33:08.478Z</time></trkpt><trkpt lat="46.2996451787863" lon="11.763274849900046"><ele>1767.0</ele><time>2026-05-02T09:33:09.478Z</time></trkpt><trkpt lat="46.29952726008936" lon="11.763256635357326"><ele>1767.0</ele><time>2026-05-02T09:33:10.478Z</time></trkpt><trkpt lat="46.29941047246707" lon="11.763239072209748"><ele>1767.25</ele><time>2026-05-02T09:33:11.478Z</time></trkpt><trkpt lat="46.299276790934684" lon="11.763208383568875"><ele>1767.5</ele><time>2026-05-02T09:33:12.478Z</time></trkpt><trkpt lat="46.29914324319686" lon="11.763174199495783"><ele>1767.75</ele><time>2026-05-02T09:33:13.478Z</time></trkpt><trkpt lat="46.29901509586819" lon="11.76314126309047"><ele>1768.0</ele><time>2026-05-02T09:33:14.478Z</time></trkpt><trkpt lat="46.29889780034226" lon="11.763108006458594"><ele>1766.75</ele><time>2026-05-02T09:33:15.478Z</time></trkpt><trkpt lat="46.298775220681364" lon="11.763111424667484"><ele>1765.5</ele><time>2026-05-02T09:33:16.478Z</time></trkpt><trkpt lat="46.29864209196047" lon="11.763196745019055"><ele>1764.25</ele><time>2026-05-02T09:33:17.478Z</time></trkpt><trkpt lat="46.2985008186445" lon="11.76328603448425"><ele>1763.0</ele><time>2026-05-02T09:33:18.478Z</time></trkpt><trkpt lat="46.29836001866436" lon="11.763304945635413"><ele>1763.0</ele><time>2026-05-02T09:33:19.478Z</time></trkpt><trkpt lat="46.29822010787532" lon="11.76328275390243"><ele>1763.0</ele><time>2026-05-02T09:33:20.478Z</time></trkpt><trkpt lat="46.29807206813156" lon="11.763251675548211"><ele>1763.0</ele><time>2026-05-02T09:33:21.478Z</time></trkpt><trkpt lat="46.29791279432051" lon="11.763242159357032"><ele>1760.75</ele><time>2026-05-02T09:33:22.478Z</time></trkpt><trkpt lat="46.29776241946729" lon="11.763274542208515"><ele>1758.5</ele><time>2026-05-02T09:33:23.478Z</time></trkpt><trkpt lat="46.29761049813435" lon="11.763314743642924"><ele>1756.25</ele><time>2026-05-02T09:33:24.478Z</time></trkpt><trkpt lat="46.297471187825344" lon="11.763356191056875"><ele>1754.0</ele><time>2026-05-02T09:33:25.478Z</time></trkpt><trkpt lat="46.29733249703729" lon="11.763379474469934"><ele>1751.5</ele><time>2026-05-02T09:33:26.478Z</time></trkpt><trkpt lat="46.2971993605165" lon="11.763385337934071"><ele>1749.0</ele><time>2026-05-02T09:33:27.478Z</time></trkpt><trkpt lat="46.297066632785416" lon="11.76339903799563"><ele>1746.5</ele><time>2026-05-02T09:33:28.478Z</time></trkpt><trkpt lat="46.29692106328061" lon="11.763373908810498"><ele>1744.0</ele><time>2026-05-02T09:33:29.478Z</time></trkpt><trkpt lat="46.29678646496949" lon="11.763359825703377"><ele>1744.0</ele><time>2026-05-02T09:33:30.478Z</time></trkpt><trkpt lat="46.296656939365015" lon="11.763363411793549"><ele>1744.0</ele><time>2026-05-02T09:33:31.478Z</time></trkpt><trkpt lat="46.296533330284696" lon="11.763386983885937"><ele>1744.0</ele><time>2026-05-02T09:33:32.478Z</time></trkpt><trkpt lat="46.29641586153142" lon="11.763431070632999"><ele>1744.0</ele><time>2026-05-02T09:33:33.478Z</time></trkpt><trkpt lat="46.29630362226958" lon="11.763473011373485"><ele>1742.8000000000002</ele><time>2026-05-02T09:33:34.478Z</time></trkpt><trkpt lat="46.29619338769533" lon="11.763524536084681"><ele>1741.6000000000001</ele><time>2026-05-02T09:33:35.478Z</time></trkpt><trkpt lat="46.296096761482275" lon="11.763589305943414"><ele>1740.4</ele><time>2026-05-02T09:33:36.478Z</time></trkpt><trkpt lat="46.295995858977285" lon="11.763622350493206"><ele>1739.2</ele><time>2026-05-02T09:33:37.478Z</time></trkpt><trkpt lat="46.29593264793674" lon="11.763671596224167"><ele>1738.0</ele><time>2026-05-02T09:33:38.478Z</time></trkpt><trkpt lat="46.29585008093603" lon="11.763624579340119"><ele>1738.0</ele><time>2026-05-02T09:33:40.478Z</time></trkpt><trkpt lat="46.2958300516212" lon="11.763536158774892"><ele>1738.0000000000002</ele><time>2026-05-02T09:33:41.478Z</time></trkpt><trkpt lat="46.295879926675234" lon="11.763449053161631"><ele>1738.0000000000002</ele><time>2026-05-02T09:33:42.478Z</time></trkpt><trkpt lat="46.295976059977605" lon="11.763421876156958"><ele>1738.0</ele><time>2026-05-02T09:33:43.478Z</time></trkpt><trkpt lat="46.29611585165181" lon="11.763330962178765"><ele>1738.0</ele><time>2026-05-02T09:33:44.478Z</time></trkpt><trkpt lat="46.29627941165757" lon="11.763224973367233"><ele>1741.0</ele><time>2026-05-02T09:33:45.478Z</time></trkpt><trkpt lat="46.29648362068445" lon="11.763088861540021"><ele>1744.0</ele><time>2026-05-02T09:33:46.478Z</time></trkpt><trkpt lat="46.29668534715162" lon="11.762943698625206"><ele>1744.0</ele><time>2026-05-02T09:33:47.478Z</time></trkpt><trkpt lat="46.296925637324996" lon="11.762852131156198"><ele>1744.0</ele><time>2026-05-02T09:33:48.478Z</time></trkpt><trkpt lat="46.29712864003916" lon="11.76275681328919"><ele>1740.3333333333335</ele><time>2026-05-02T09:33:49.478Z</time></trkpt><trkpt lat="46.297322928907256" lon="11.762623788311965"><ele>1736.6666666666665</ele><time>2026-05-02T09:33:50.478Z</time></trkpt><trkpt lat="46.297500972592005" lon="11.762482970277977"><ele>1733.0</ele><time>2026-05-02T09:33:51.478Z</time></trkpt><trkpt lat="46.297683841663954" lon="11.762433631881558"><ele>1733.0</ele><time>2026-05-02T09:33:52.478Z</time></trkpt><trkpt lat="46.29785771876654" lon="11.762359482365433"><ele>1733.0</ele><time>2026-05-02T09:33:53.478Z</time></trkpt><trkpt lat="46.29802567392705" lon="11.762270791255066"><ele>1733.0</ele><time>2026-05-02T09:33:54.478Z</time></trkpt><trkpt lat="46.29820124375368" lon="11.762163362410647"><ele>1735.6666666666665</ele><time>2026-05-02T09:33:55.478Z</time></trkpt><trkpt lat="46.29835358194598" lon="11.762059650943561"><ele>1738.3333333333335</ele><time>2026-05-02T09:33:56.478Z</time></trkpt><trkpt lat="46.29850533895026" lon="11.76196740084333"><ele>1741.0</ele><time>2026-05-02T09:33:57.478Z</time></trkpt><trkpt lat="46.298635119157645" lon="11.761879008519879"><ele>1734.0</ele><time>2026-05-02T09:33:58.478Z</time></trkpt><trkpt lat="46.29876201807491" lon="11.76180600404175"><ele>1727.0</ele><time>2026-05-02T09:33:59.478Z</time></trkpt><trkpt lat="46.29891188487689" lon="11.761778650992287"><ele>1720.0</ele><time>2026-05-02T09:34:00.478Z</time></trkpt><trkpt lat="46.29908098440065" lon="11.761834525396752"><ele>1720.0</ele><time>2026-05-02T09:34:01.478Z</time></trkpt><trkpt lat="46.29930588658268" lon="11.761819356814666"><ele>1720.0</ele><time>2026-05-02T09:34:02.478Z</time></trkpt><trkpt lat="46.29951564283074" lon="11.761770900185791"><ele>1720.0</ele><time>2026-05-02T09:34:03.478Z</time></trkpt><trkpt lat="46.29971205486291" lon="11.761725411317153"><ele>1719.3333333333335</ele><time>2026-05-02T09:34:04.478Z</time></trkpt><trkpt lat="46.29989996546737" lon="11.761680193772765"><ele>1718.6666666666665</ele><time>2026-05-02T09:34:05.478Z</time></trkpt><trkpt lat="46.30006963459886" lon="11.761639365715482"><ele>1718.0</ele><time>2026-05-02T09:34:06.478Z</time></trkpt><trkpt lat="46.30023746784887" lon="11.761603186559949"><ele>1718.0</ele><time>2026-05-02T09:34:07.478Z</time></trkpt><trkpt lat="46.30039146205736" lon="11.761576796886528"><ele>1718.0</ele><time>2026-05-02T09:34:08.478Z</time></trkpt><trkpt lat="46.30053731798691" lon="11.761565420699155"><ele>1718.0</ele><time>2026-05-02T09:34:09.478Z</time></trkpt><trkpt lat="46.30068630785449" lon="11.761581159960887"><ele>1717.5</ele><time>2026-05-02T09:34:10.478Z</time></trkpt><trkpt lat="46.300831261009684" lon="11.761662820789812"><ele>1717.0</ele><time>2026-05-02T09:34:11.478Z</time></trkpt><trkpt lat="46.300972324546635" lon="11.761729157803371"><ele>1716.5</ele><time>2026-05-02T09:34:12.478Z</time></trkpt><trkpt lat="46.30111273006683" lon="11.761757670797232"><ele>1716.0</ele><time>2026-05-02T09:34:13.478Z</time></trkpt><trkpt lat="46.3012732185457" lon="11.761705492950961"><ele>1714.6666666666665</ele><time>2026-05-02T09:34:14.478Z</time></trkpt><trkpt lat="46.301431371749246" lon="11.761661714438088"><ele>1713.3333333333333</ele><time>2026-05-02T09:34:15.478Z</time></trkpt><trkpt lat="46.30158625163452" lon="11.761639913946984"><ele>1712.0</ele><time>2026-05-02T09:34:16.478Z</time></trkpt><trkpt lat="46.30175313836699" lon="11.761593350110005"><ele>1712.0</ele><time>2026-05-02T09:34:17.478Z</time></trkpt><trkpt lat="46.301906046920685" lon="11.761369730313207"><ele>1712.0</ele><time>2026-05-02T09:34:18.478Z</time></trkpt><trkpt lat="46.30204281523351" lon="11.761212940390946"><ele>1712.0</ele><time>2026-05-02T09:34:19.478Z</time></trkpt><trkpt lat="46.3021798787351" lon="11.76108955835102"><ele>1707.6666666666665</ele><time>2026-05-02T09:34:20.478Z</time></trkpt><trkpt lat="46.302321838326705" lon="11.760960140533104"><ele>1703.3333333333335</ele><time>2026-05-02T09:34:21.478Z</time></trkpt><trkpt lat="46.30247186752775" lon="11.760834399476732"><ele>1699.0</ele><time>2026-05-02T09:34:22.478Z</time></trkpt><trkpt lat="46.302636990984546" lon="11.760742713705227"><ele>1699.0</ele><time>2026-05-02T09:34:23.478Z</time></trkpt><trkpt lat="46.30281179864021" lon="11.760663589592555"><ele>1699.0</ele><time>2026-05-02T09:34:24.478Z</time></trkpt><trkpt lat="46.302991999462776" lon="11.760581974303015"><ele>1699.0</ele><time>2026-05-02T09:34:25.478Z</time></trkpt><trkpt lat="46.303159091641824" lon="11.76050560778477"><ele>1697.3333333333335</ele><time>2026-05-02T09:34:26.478Z</time></trkpt><trkpt lat="46.303336429312886" lon="11.76044446116314"><ele>1695.6666666666665</ele><time>2026-05-02T09:34:27.478Z</time></trkpt><trkpt lat="46.30351863803083" lon="11.760375990440936"><ele>1694.0</ele><time>2026-05-02T09:34:28.478Z</time></trkpt><trkpt lat="46.303704137937075" lon="11.7603104046241"><ele>1694.0</ele><time>2026-05-02T09:34:29.478Z</time></trkpt><trkpt lat="46.30388443372494" lon="11.76027376614664"><ele>1694.0</ele><time>2026-05-02T09:34:30.478Z</time></trkpt><trkpt lat="46.304049432449496" lon="11.760236089523517"><ele>1694.0</ele><time>2026-05-02T09:34:31.478Z</time></trkpt><trkpt lat="46.304212650743146" lon="11.760232133747806"><ele>1695.75</ele><time>2026-05-02T09:34:32.478Z</time></trkpt><trkpt lat="46.30437143326604" lon="11.760246689947909"><ele>1697.5</ele><time>2026-05-02T09:34:33.478Z</time></trkpt><trkpt lat="46.30451195591656" lon="11.760278786115983"><ele>1699.25</ele><time>2026-05-02T09:34:34.478Z</time></trkpt><trkpt lat="46.30464705910784" lon="11.760326930910004"><ele>1701.0</ele><time>2026-05-02T09:34:35.478Z</time></trkpt><trkpt lat="46.30475909131305" lon="11.760385877921669"><ele>1701.3333333333333</ele><time>2026-05-02T09:34:36.478Z</time></trkpt><trkpt lat="46.30482914068198" lon="11.760389544880248"><ele>1701.6666666666665</ele><time>2026-05-02T09:34:37.478Z</time></trkpt><trkpt lat="46.30490290676812" lon="11.76034511252253"><ele>1702.0</ele><time>2026-05-02T09:34:38.478Z</time></trkpt><trkpt lat="46.304959472853156" lon="11.76024271647772"><ele>1702.3333333333333</ele><time>2026-05-02T09:34:39.478Z</time></trkpt><trkpt lat="46.30497548811738" lon="11.760093489456416"><ele>1702.6666666666665</ele><time>2026-05-02T09:34:40.478Z</time></trkpt><trkpt lat="46.30493266100902" lon="11.759970774922884"><ele>1703.0</ele><time>2026-05-02T09:34:41.478Z</time></trkpt><trkpt lat="46.304848459175425" lon="11.759878144808175"><ele>1694.0</ele><time>2026-05-02T09:34:42.478Z</time></trkpt><trkpt lat="46.30471948655667" lon="11.759837100257633"><ele>1685.0</ele><time>2026-05-02T09:34:43.478Z</time></trkpt><trkpt lat="46.30455508611655" lon="11.759802352223483"><ele>1676.0</ele><time>2026-05-02T09:34:44.478Z</time></trkpt><trkpt lat="46.304364043229484" lon="11.759713514980056"><ele>1676.0</ele><time>2026-05-02T09:34:45.478Z</time></trkpt><trkpt lat="46.304190926678544" lon="11.759633445187985"><ele>1676.0</ele><time>2026-05-02T09:34:46.478Z</time></trkpt><trkpt lat="46.30403390548498" lon="11.759549501222418"><ele>1676.0</ele><time>2026-05-02T09:34:47.478Z</time></trkpt><trkpt lat="46.30387370284612" lon="11.759447884919377"><ele>1672.3333333333333</ele><time>2026-05-02T09:34:48.478Z</time></trkpt><trkpt lat="46.30372286270709" lon="11.759337206711377"><ele>1668.6666666666665</ele><time>2026-05-02T09:34:49.478Z</time></trkpt><trkpt lat="46.30357734279865" lon="11.75924911634023"><ele>1665.0</ele><time>2026-05-02T09:34:50.478Z</time></trkpt><trkpt lat="46.303437693580804" lon="11.759160676939286"><ele>1665.0</ele><time>2026-05-02T09:34:51.478Z</time></trkpt><trkpt lat="46.303311613923576" lon="11.759063104529643"><ele>1665.0</ele><time>2026-05-02T09:34:52.478Z</time></trkpt><trkpt lat="46.30319278406019" lon="11.758972394001015"><ele>1665.0</ele><time>2026-05-02T09:34:53.478Z</time></trkpt><trkpt lat="46.303094708109846" lon="11.758858825332034"><ele>1665.0</ele><time>2026-05-02T09:34:54.478Z</time></trkpt><trkpt lat="46.30302687006957" lon="11.758719817462769"><ele>1666.25</ele><time>2026-05-02T09:34:55.478Z</time></trkpt><trkpt lat="46.30294586683233" lon="11.758588264888436"><ele>1667.5</ele><time>2026-05-02T09:34:56.478Z</time></trkpt><trkpt lat="46.30283299380394" lon="11.758494709110764"><ele>1668.75</ele><time>2026-05-02T09:34:57.478Z</time></trkpt><trkpt lat="46.302701884560975" lon="11.758429388376335"><ele>1670.0</ele><time>2026-05-02T09:34:58.478Z</time></trkpt><trkpt lat="46.302580756351084" lon="11.758394946357129"><ele>1667.25</ele><time>2026-05-02T09:34:59.478Z</time></trkpt><trkpt lat="46.30244245890946" lon="11.758349608480737"><ele>1664.5</ele><time>2026-05-02T09:35:00.478Z</time></trkpt><trkpt lat="46.30230827892573" lon="11.758263459202407"><ele>1661.75</ele><time>2026-05-02T09:35:01.478Z</time></trkpt><trkpt lat="46.30218959558343" lon="11.758182414704994"><ele>1659.0</ele><time>2026-05-02T09:35:02.478Z</time></trkpt><trkpt lat="46.30208588695372" lon="11.758102530678107"><ele>1658.5</ele><time>2026-05-02T09:35:03.478Z</time></trkpt><trkpt lat="46.30198949250028" lon="11.758034338485903"><ele>1658.0</ele><time>2026-05-02T09:35:04.478Z</time></trkpt><trkpt lat="46.30191933547018" lon="11.757935169266771"><ele>1657.5</ele><time>2026-05-02T09:35:05.478Z</time></trkpt><trkpt lat="46.30186853705696" lon="11.757833654409891"><ele>1657.0</ele><time>2026-05-02T09:35:06.478Z</time></trkpt><trkpt lat="46.30186056057428" lon="11.757722681737917"><ele>1656.5</ele><time>2026-05-02T09:35:07.478Z</time></trkpt><trkpt lat="46.30190192715846" lon="11.757635834230983"><ele>1656.0</ele><time>2026-05-02T09:35:08.478Z</time></trkpt><trkpt lat="46.301976110894415" lon="11.757605564373012"><ele>1656.0</ele><time>2026-05-02T09:35:09.478Z</time></trkpt><trkpt lat="46.30205826781777" lon="11.757649282568181"><ele>1656.0</ele><time>2026-05-02T09:35:10.478Z</time></trkpt><trkpt lat="46.30213821098878" lon="11.757739591757366"><ele>1656.0</ele><time>2026-05-02T09:35:11.478Z</time></trkpt><trkpt lat="46.3022397932733" lon="11.7578110589266"><ele>1656.0</ele><time>2026-05-02T09:35:12.478Z</time></trkpt><trkpt lat="46.302394443268604" lon="11.757863254516224"><ele>1656.75</ele><time>2026-05-02T09:35:13.478Z</time></trkpt><trkpt lat="46.30254253563248" lon="11.757876048563968"><ele>1657.5</ele><time>2026-05-02T09:35:14.478Z</time></trkpt><trkpt lat="46.302686430119664" lon="11.757844925864312"><ele>1658.25</ele><time>2026-05-02T09:35:15.478Z</time></trkpt><trkpt lat="46.302833041844664" lon="11.757781466396503"><ele>1659.0</ele><time>2026-05-02T09:35:16.479Z</time></trkpt><trkpt lat="46.30299286648325" lon="11.757761823295628"><ele>1658.0</ele><time>2026-05-02T09:35:17.479Z</time></trkpt><trkpt lat="46.303143503874196" lon="11.757752468359946"><ele>1657.0</ele><time>2026-05-02T09:35:18.479Z</time></trkpt><trkpt lat="46.30329271367155" lon="11.75770695873413"><ele>1656.0</ele><time>2026-05-02T09:35:19.479Z</time></trkpt><trkpt lat="46.303434453557145" lon="11.757641009714815"><ele>1650.6666666666665</ele><time>2026-05-02T09:35:20.479Z</time></trkpt><trkpt lat="46.303574282745984" lon="11.757599144747024"><ele>1645.3333333333333</ele><time>2026-05-02T09:35:21.479Z</time></trkpt><trkpt lat="46.303726562577936" lon="11.757594635832557"><ele>1640.0</ele><time>2026-05-02T09:35:22.479Z</time></trkpt><trkpt lat="46.30389026028681" lon="11.757571873369823"><ele>1638.6666666666665</ele><time>2026-05-02T09:35:23.479Z</time></trkpt><trkpt lat="46.304050108659894" lon="11.757494948132207"><ele>1637.3333333333335</ele><time>2026-05-02T09:35:24.479Z</time></trkpt><trkpt lat="46.30420893374187" lon="11.757442406649549"><ele>1636.0</ele><time>2026-05-02T09:35:25.479Z</time></trkpt><trkpt lat="46.30436820783618" lon="11.75739711405816"><ele>1636.0</ele><time>2026-05-02T09:35:26.479Z</time></trkpt><trkpt lat="46.30451611078867" lon="11.75734336374669"><ele>1636.0</ele><time>2026-05-02T09:35:27.479Z</time></trkpt><trkpt lat="46.30464454296159" lon="11.757319565351922"><ele>1636.0</ele><time>2026-05-02T09:35:28.479Z</time></trkpt><trkpt lat="46.30475839285943" lon="11.757344254177672"><ele>1636.0</ele><time>2026-05-02T09:35:29.479Z</time></trkpt><trkpt lat="46.304848789214674" lon="11.75741560765485"><ele>1637.5</ele><time>2026-05-02T09:35:30.479Z</time></trkpt><trkpt lat="46.30491243411445" lon="11.757548993642432"><ele>1639.0</ele><time>2026-05-02T09:35:31.479Z</time></trkpt><trkpt lat="46.30495691900179" lon="11.757730062343642"><ele>1640.5</ele><time>2026-05-02T09:35:32.479Z</time></trkpt><trkpt lat="46.3049945004822" lon="11.757920603237208"><ele>1642.0</ele><time>2026-05-02T09:35:33.479Z</time></trkpt><trkpt lat="46.305064429096625" lon="11.758067770345109"><ele>1642.0</ele><time>2026-05-02T09:35:34.479Z</time></trkpt><trkpt lat="46.30515017282996" lon="11.758182477808965"><ele>1642.0</ele><time>2026-05-02T09:35:35.479Z</time></trkpt><trkpt lat="46.30527318126664" lon="11.758230967375644"><ele>1642.0</ele><time>2026-05-02T09:35:36.479Z</time></trkpt><trkpt lat="46.30542438171936" lon="11.758227076236302"><ele>1642.0</ele><time>2026-05-02T09:35:37.479Z</time></trkpt><trkpt lat="46.305609463997975" lon="11.758188200795242"><ele>1635.0</ele><time>2026-05-02T09:35:38.479Z</time></trkpt><trkpt lat="46.3058236566545" lon="11.758179338131097"><ele>1628.0</ele><time>2026-05-02T09:35:39.479Z</time></trkpt><trkpt lat="46.30605956577588" lon="11.758173160027837"><ele>1628.0</ele><time>2026-05-02T09:35:40.479Z</time></trkpt><trkpt lat="46.30627635493867" lon="11.758161268608289"><ele>1628.0</ele><time>2026-05-02T09:35:41.479Z</time></trkpt><trkpt lat="46.3064906376993" lon="11.75816046640916"><ele>1628.0</ele><time>2026-05-02T09:35:42.479Z</time></trkpt><trkpt lat="46.306692780515384" lon="11.758167545991688"><ele>1624.0</ele><time>2026-05-02T09:35:43.479Z</time></trkpt><trkpt lat="46.30687659038712" lon="11.758148284109984"><ele>1620.0</ele><time>2026-05-02T09:35:44.479Z</time></trkpt><trkpt lat="46.30703708525789" lon="11.758117366377759"><ele>1616.0</ele><time>2026-05-02T09:35:45.479Z</time></trkpt><trkpt lat="46.30717946784283" lon="11.758078063444243"><ele>1612.25</ele><time>2026-05-02T09:35:46.479Z</time></trkpt><trkpt lat="46.30728605051631" lon="11.75804061327485"><ele>1608.5</ele><time>2026-05-02T09:35:47.479Z</time></trkpt><trkpt lat="46.307402866213806" lon="11.758039795703402"><ele>1604.75</ele><time>2026-05-02T09:35:48.479Z</time></trkpt><trkpt lat="46.30752617401931" lon="11.75810858320822"><ele>1601.0</ele><time>2026-05-02T09:35:49.479Z</time></trkpt><trkpt lat="46.30767069375348" lon="11.75820415919709"><ele>1601.0</ele><time>2026-05-02T09:35:50.479Z</time></trkpt><trkpt lat="46.30780843190943" lon="11.758260893493283"><ele>1601.0</ele><time>2026-05-02T09:35:51.479Z</time></trkpt><trkpt lat="46.30795094613792" lon="11.758247919154119"><ele>1601.0</ele><time>2026-05-02T09:35:52.479Z</time></trkpt><trkpt lat="46.308098339373934" lon="11.758221412701815"><ele>1601.0</ele><time>2026-05-02T09:35:53.479Z</time></trkpt><trkpt lat="46.30823614099993" lon="11.758155535305454"><ele>1599.25</ele><time>2026-05-02T09:35:54.479Z</time></trkpt><trkpt lat="46.30836198514902" lon="11.758107933780597"><ele>1597.5</ele><time>2026-05-02T09:35:55.479Z</time></trkpt><trkpt lat="46.30848332285909" lon="11.758008320861382"><ele>1595.75</ele><time>2026-05-02T09:35:56.479Z</time></trkpt><trkpt lat="46.30858398165692" lon="11.757913335486574"><ele>1594.0</ele><time>2026-05-02T09:35:57.479Z</time></trkpt><trkpt lat="46.30865849037709" lon="11.757770996367496"><ele>1591.25</ele><time>2026-05-02T09:35:58.479Z</time></trkpt><trkpt lat="46.308716713951014" lon="11.757662465298946"><ele>1588.5</ele><time>2026-05-02T09:35:59.479Z</time></trkpt><trkpt lat="46.30880671832336" lon="11.757566659937549"><ele>1585.75</ele><time>2026-05-02T09:36:00.479Z</time></trkpt><trkpt lat="46.308926091312884" lon="11.757534953513115"><ele>1583.0</ele><time>2026-05-02T09:36:01.479Z</time></trkpt><trkpt lat="46.30906787366408" lon="11.75754101360236"><ele>1582.25</ele><time>2026-05-02T09:36:02.479Z</time></trkpt><trkpt lat="46.309209840610855" lon="11.757558244098126"><ele>1581.5</ele><time>2026-05-02T09:36:03.479Z</time></trkpt><trkpt lat="46.3093278424319" lon="11.757565006252365"><ele>1580.75</ele><time>2026-05-02T09:36:04.479Z</time></trkpt><trkpt lat="46.30940606587801" lon="11.757521084398514"><ele>1580.0</ele><time>2026-05-02T09:36:05.479Z</time></trkpt><trkpt lat="46.309494419117065" lon="11.75741346122406"><ele>1580.0</ele><time>2026-05-02T09:36:06.479Z</time></trkpt><trkpt lat="46.3095470290189" lon="11.757235841688972"><ele>1580.0</ele><time>2026-05-02T09:36:07.479Z</time></trkpt><trkpt lat="46.309583659937196" lon="11.757003194796875"><ele>1580.0</ele><time>2026-05-02T09:36:08.479Z</time></trkpt><trkpt lat="46.309605567478556" lon="11.756730327892106"><ele>1577.0</ele><time>2026-05-02T09:36:09.479Z</time></trkpt><trkpt lat="46.30962757196588" lon="11.756492894295762"><ele>1574.0</ele><time>2026-05-02T09:36:10.479Z</time></trkpt><trkpt lat="46.3096596796001" lon="11.756264064446988"><ele>1571.0</ele><time>2026-05-02T09:36:11.479Z</time></trkpt><trkpt lat="46.30969733564139" lon="11.756015598661476"><ele>1571.6666666666665</ele><time>2026-05-02T09:36:12.479Z</time></trkpt><trkpt lat="46.30973013858732" lon="11.755759711062732"><ele>1572.3333333333335</ele><time>2026-05-02T09:36:13.479Z</time></trkpt><trkpt lat="46.30975802015622" lon="11.755514046662777"><ele>1573.0</ele><time>2026-05-02T09:36:14.479Z</time></trkpt><trkpt lat="46.30977572308638" lon="11.755279765726758"><ele>1574.0</ele><time>2026-05-02T09:36:15.479Z</time></trkpt><trkpt lat="46.30974445454531" lon="11.755034713627348"><ele>1575.0</ele><time>2026-05-02T09:36:16.479Z</time></trkpt><trkpt lat="46.3096814667954" lon="11.754799517043043"><ele>1576.0</ele><time>2026-05-02T09:36:17.479Z</time></trkpt><trkpt lat="46.3096395549696" lon="11.754577193340337"><ele>1571.0</ele><time>2026-05-02T09:36:18.479Z</time></trkpt><trkpt lat="46.30963921503342" lon="11.754363934635109"><ele>1566.0</ele><time>2026-05-02T09:36:19.479Z</time></trkpt><trkpt lat="46.30961055251925" lon="11.75417074249425"><ele>1561.0</ele><time>2026-05-02T09:36:20.479Z</time></trkpt><trkpt lat="46.30955491114558" lon="11.753989593332928"><ele>1556.0</ele><time>2026-05-02T09:36:21.479Z</time></trkpt><trkpt lat="46.309469562851305" lon="11.753819210618637"><ele>1556.0</ele><time>2026-05-02T09:36:22.479Z</time></trkpt><trkpt lat="46.30936806878613" lon="11.753661148546136"><ele>1556.0</ele><time>2026-05-02T09:36:23.479Z</time></trkpt><trkpt lat="46.30926202098697" lon="11.753515543927527"><ele>1556.0</ele><time>2026-05-02T09:36:24.479Z</time></trkpt><trkpt lat="46.30916183279189" lon="11.753376183654531"><ele>1556.0</ele><time>2026-05-02T09:36:25.479Z</time></trkpt><trkpt lat="46.30907887530184" lon="11.753208817039848"><ele>1557.3333333333333</ele><time>2026-05-02T09:36:26.479Z</time></trkpt><trkpt lat="46.30900973386965" lon="11.753011032137332"><ele>1558.6666666666665</ele><time>2026-05-02T09:36:27.479Z</time></trkpt><trkpt lat="46.30893661528065" lon="11.752810311877841"><ele>1560.0</ele><time>2026-05-02T09:36:28.479Z</time></trkpt><trkpt lat="46.30886927951902" lon="11.752591659343668"><ele>1560.0</ele><time>2026-05-02T09:36:29.479Z</time></trkpt><trkpt lat="46.30880239562754" lon="11.752366615614843"><ele>1560.0</ele><time>2026-05-02T09:36:30.479Z</time></trkpt><trkpt lat="46.30874805743326" lon="11.752130601491181"><ele>1560.0</ele><time>2026-05-02T09:36:31.479Z</time></trkpt><trkpt lat="46.308699883460676" lon="11.751890156145633"><ele>1559.6666666666665</ele><time>2026-05-02T09:36:32.479Z</time></trkpt><trkpt lat="46.30863836754085" lon="11.751659159437672"><ele>1559.3333333333333</ele><time>2026-05-02T09:36:33.479Z</time></trkpt><trkpt lat="46.30859294622693" lon="11.751435846661732"><ele>1559.0</ele><time>2026-05-02T09:36:34.479Z</time></trkpt><trkpt lat="46.30853759172319" lon="11.751244707247485"><ele>1559.0</ele><time>2026-05-02T09:36:35.479Z</time></trkpt><trkpt lat="46.30849751173212" lon="11.751077147559794"><ele>1559.0</ele><time>2026-05-02T09:36:36.479Z</time></trkpt><trkpt lat="46.30847736430672" lon="11.750913558791675"><ele>1559.0</ele><time>2026-05-02T09:36:37.479Z</time></trkpt><trkpt lat="46.30849501589851" lon="11.750735154108451"><ele>1559.0</ele><time>2026-05-02T09:36:38.479Z</time></trkpt><trkpt lat="46.30854519802432" lon="11.750542656046573"><ele>1559.25</ele><time>2026-05-02T09:36:39.479Z</time></trkpt><trkpt lat="46.30859499720679" lon="11.750340008201118"><ele>1559.5</ele><time>2026-05-02T09:36:40.479Z</time></trkpt><trkpt lat="46.30859802886509" lon="11.750150534585037"><ele>1559.75</ele><time>2026-05-02T09:36:41.479Z</time></trkpt><trkpt lat="46.30863581075769" lon="11.749950235049107"><ele>1560.0</ele><time>2026-05-02T09:36:42.479Z</time></trkpt><trkpt lat="46.3087022526886" lon="11.749770243855655"><ele>1560.0</ele><time>2026-05-02T09:36:43.479Z</time></trkpt><trkpt lat="46.30876338303969" lon="11.749575803788142"><ele>1560.0</ele><time>2026-05-02T09:36:44.479Z</time></trkpt><trkpt lat="46.30882024923876" lon="11.749395545404745"><ele>1560.0</ele><time>2026-05-02T09:36:45.479Z</time></trkpt><trkpt lat="46.30888757309649" lon="11.749261295023745"><ele>1560.0</ele><time>2026-05-02T09:36:46.479Z</time></trkpt><trkpt lat="46.30897690578257" lon="11.749163179572435"><ele>1558.3333333333335</ele><time>2026-05-02T09:36:47.479Z</time></trkpt><trkpt lat="46.309116481729426" lon="11.749076717919575"><ele>1556.6666666666667</ele><time>2026-05-02T09:36:48.479Z</time></trkpt><trkpt lat="46.30923925807371" lon="11.748980404633633"><ele>1555.0</ele><time>2026-05-02T09:36:49.479Z</time></trkpt><trkpt lat="46.309455110900075" lon="11.748846686827882"><ele>1555.0</ele><time>2026-05-02T09:36:50.479Z</time></trkpt><trkpt lat="46.30956475234819" lon="11.74874535845217"><ele>1555.0</ele><time>2026-05-02T09:36:51.479Z</time></trkpt><trkpt lat="46.309592960183224" lon="11.748618189897806"><ele>1555.0</ele><time>2026-05-02T09:36:52.479Z</time></trkpt><trkpt lat="46.30962142050561" lon="11.748482790980269"><ele>1555.0</ele><time>2026-05-02T09:36:53.479Z</time></trkpt><trkpt lat="46.30962496353759" lon="11.74832510468864"><ele>1555.0</ele><time>2026-05-02T09:36:54.479Z</time></trkpt><trkpt lat="46.30959637900711" lon="11.748142258787112"><ele>1552.0</ele><time>2026-05-02T09:36:55.479Z</time></trkpt><trkpt lat="46.309533780845" lon="11.747954796364597"><ele>1549.0</ele><time>2026-05-02T09:36:56.479Z</time></trkpt><trkpt lat="46.30944598486076" lon="11.747747944897235"><ele>1546.0</ele><time>2026-05-02T09:36:57.479Z</time></trkpt><trkpt lat="46.30936019395946" lon="11.747547478132885"><ele>1544.5</ele><time>2026-05-02T09:36:58.479Z</time></trkpt><trkpt lat="46.30928282933347" lon="11.747352221307386"><ele>1543.0</ele><time>2026-05-02T09:36:59.479Z</time></trkpt><trkpt lat="46.30921825742536" lon="11.747161652104754"><ele>1541.5</ele><time>2026-05-02T09:37:00.479Z</time></trkpt><trkpt lat="46.309167569789764" lon="11.746976889461054"><ele>1540.0</ele><time>2026-05-02T09:37:01.479Z</time></trkpt><trkpt lat="46.30913810171424" lon="11.746792484164153"><ele>1540.0</ele><time>2026-05-02T09:37:02.479Z</time></trkpt><trkpt lat="46.30911623609715" lon="11.746623125120177"><ele>1540.0</ele><time>2026-05-02T09:37:03.479Z</time></trkpt><trkpt lat="46.30906718302662" lon="11.746469069598403"><ele>1540.0</ele><time>2026-05-02T09:37:04.479Z</time></trkpt><trkpt lat="46.30897878556898" lon="11.746318499580694"><ele>1540.0</ele><time>2026-05-02T09:37:05.479Z</time></trkpt><trkpt lat="46.30884955988467" lon="11.746145158671885"><ele>1535.0</ele><time>2026-05-02T09:37:06.479Z</time></trkpt><trkpt lat="46.30870777563098" lon="11.745972109837872"><ele>1530.0</ele><time>2026-05-02T09:37:07.479Z</time></trkpt><trkpt lat="46.30856951781054" lon="11.745852845368008"><ele>1525.0</ele><time>2026-05-02T09:37:08.479Z</time></trkpt><trkpt lat="46.308435239185734" lon="11.745770465976866"><ele>1525.0</ele><time>2026-05-02T09:37:09.479Z</time></trkpt><trkpt lat="46.30832394108922" lon="11.745681448157432"><ele>1525.0</ele><time>2026-05-02T09:37:10.479Z</time></trkpt><trkpt lat="46.30822615083508" lon="11.745556687067905"><ele>1525.0</ele><time>2026-05-02T09:37:11.479Z</time></trkpt><trkpt lat="46.30814396843276" lon="11.745402057525096"><ele>1525.0</ele><time>2026-05-02T09:37:12.479Z</time></trkpt><trkpt lat="46.30806557602426" lon="11.745184249137157"><ele>1522.3333333333333</ele><time>2026-05-02T09:37:13.479Z</time></trkpt><trkpt lat="46.30799676491611" lon="11.744963119315873"><ele>1519.6666666666667</ele><time>2026-05-02T09:37:14.479Z</time></trkpt><trkpt lat="46.30792451753003" lon="11.74472322435747"><ele>1517.0</ele><time>2026-05-02T09:37:15.479Z</time></trkpt><trkpt lat="46.307863179833014" lon="11.744466035907832"><ele>1516.3333333333335</ele><time>2026-05-02T09:37:16.479Z</time></trkpt><trkpt lat="46.30780091256531" lon="11.744234615339705"><ele>1515.6666666666667</ele><time>2026-05-02T09:37:17.479Z</time></trkpt><trkpt lat="46.30775232019934" lon="11.744015624487053"><ele>1515.0</ele><time>2026-05-02T09:37:18.479Z</time></trkpt><trkpt lat="46.30771595508145" lon="11.743782565607505"><ele>1514.3333333333333</ele><time>2026-05-02T09:37:19.479Z</time></trkpt><trkpt lat="46.3076911482929" lon="11.743518278043338"><ele>1513.6666666666665</ele><time>2026-05-02T09:37:20.479Z</time></trkpt><trkpt lat="46.30765759155754" lon="11.743229660850535"><ele>1513.0</ele><time>2026-05-02T09:37:21.479Z</time></trkpt><trkpt lat="46.30762781906789" lon="11.742971179293116"><ele>1513.0</ele><time>2026-05-02T09:37:22.478Z</time></trkpt><trkpt lat="46.30760249048775" lon="11.74272527381684"><ele>1513.0</ele><time>2026-05-02T09:37:23.478Z</time></trkpt><trkpt lat="46.30755869060428" lon="11.742490105020167"><ele>1513.0</ele><time>2026-05-02T09:37:24.478Z</time></trkpt><trkpt lat="46.30753689390924" lon="11.742263985490304"><ele>1513.75</ele><time>2026-05-02T09:37:25.478Z</time></trkpt><trkpt lat="46.30753846199877" lon="11.742036224298658"><ele>1514.5</ele><time>2026-05-02T09:37:26.478Z</time></trkpt><trkpt lat="46.30754352265737" lon="11.741823015943497"><ele>1515.25</ele><time>2026-05-02T09:37:27.478Z</time></trkpt><trkpt lat="46.307565056133654" lon="11.741622600951837"><ele>1516.0</ele><time>2026-05-02T09:37:28.478Z</time></trkpt><trkpt lat="46.307581011842615" lon="11.741426785666622"><ele>1516.25</ele><time>2026-05-02T09:37:29.478Z</time></trkpt><trkpt lat="46.30756255979033" lon="11.741250928605167"><ele>1516.5</ele><time>2026-05-02T09:37:30.478Z</time></trkpt><trkpt lat="46.30751616466534" lon="11.74108811046381"><ele>1516.75</ele><time>2026-05-02T09:37:31.478Z</time></trkpt><trkpt lat="46.307448251706795" lon="11.740934474312294"><ele>1517.0</ele><time>2026-05-02T09:37:32.478Z</time></trkpt><trkpt lat="46.30736762538925" lon="11.740763850264821"><ele>1517.3333333333335</ele><time>2026-05-02T09:37:33.478Z</time></trkpt><trkpt lat="46.30726403921025" lon="11.740582459519455"><ele>1517.6666666666667</ele><time>2026-05-02T09:37:34.478Z</time></trkpt><trkpt lat="46.30716558468342" lon="11.740396688797917"><ele>1518.0</ele><time>2026-05-02T09:37:35.478Z</time></trkpt><trkpt lat="46.30707621764723" lon="11.740224062650519"><ele>1515.5</ele><time>2026-05-02T09:37:36.478Z</time></trkpt><trkpt lat="46.307001292165864" lon="11.740053243575092"><ele>1513.0</ele><time>2026-05-02T09:37:37.478Z</time></trkpt><trkpt lat="46.306930411091294" lon="11.739892095627367"><ele>1510.5</ele><time>2026-05-02T09:37:38.478Z</time></trkpt><trkpt lat="46.30687144896246" lon="11.73972861763703"><ele>1508.0</ele><time>2026-05-02T09:37:39.478Z</time></trkpt><trkpt lat="46.306816117060244" lon="11.739567452226028"><ele>1508.0</ele><time>2026-05-02T09:37:40.478Z</time></trkpt><trkpt lat="46.30676693839927" lon="11.739412783434643"><ele>1508.0</ele><time>2026-05-02T09:37:41.478Z</time></trkpt><trkpt lat="46.30670999812992" lon="11.739243970618956"><ele>1508.0</ele><time>2026-05-02T09:37:42.478Z</time></trkpt><trkpt lat="46.30666113515392" lon="11.739065712001022"><ele>1508.0</ele><time>2026-05-02T09:37:43.478Z</time></trkpt><trkpt lat="46.306614037121044" lon="11.738882487459398"><ele>1509.0</ele><time>2026-05-02T09:37:44.478Z</time></trkpt><trkpt lat="46.30656264852984" lon="11.738691626913788"><ele>1510.0</ele><time>2026-05-02T09:37:45.478Z</time></trkpt><trkpt lat="46.30652643196576" lon="11.738488421462524"><ele>1511.0</ele><time>2026-05-02T09:37:46.478Z</time></trkpt><trkpt lat="46.30649498892724" lon="11.738280556456775"><ele>1512.0</ele><time>2026-05-02T09:37:47.478Z</time></trkpt><trkpt lat="46.3064733490763" lon="11.738063694144085"><ele>1512.0</ele><time>2026-05-02T09:37:48.478Z</time></trkpt><trkpt lat="46.30645466925834" lon="11.73784862629816"><ele>1512.0</ele><time>2026-05-02T09:37:49.478Z</time></trkpt><trkpt lat="46.30642632178791" lon="11.73764046568502"><ele>1512.0</ele><time>2026-05-02T09:37:50.478Z</time></trkpt><trkpt lat="46.30640254323809" lon="11.737444056713276"><ele>1512.0</ele><time>2026-05-02T09:37:51.478Z</time></trkpt><trkpt lat="46.306379124577205" lon="11.737244831606835"><ele>1512.0</ele><time>2026-05-02T09:37:52.478Z</time></trkpt><trkpt lat="46.30635805831736" lon="11.737044139829639"><ele>1512.0</ele><time>2026-05-02T09:37:53.478Z</time></trkpt><trkpt lat="46.30634223837307" lon="11.736858423318592"><ele>1512.0</ele><time>2026-05-02T09:37:54.478Z</time></trkpt><trkpt lat="46.30631034536323" lon="11.736680540690392"><ele>1512.0</ele><time>2026-05-02T09:37:55.478Z</time></trkpt><trkpt lat="46.306252015551784" lon="11.736522809794542"><ele>1512.75</ele><time>2026-05-02T09:37:56.478Z</time></trkpt><trkpt lat="46.30615484326361" lon="11.736394825556351"><ele>1513.5</ele><time>2026-05-02T09:37:57.478Z</time></trkpt><trkpt lat="46.30602912199461" lon="11.736300824623784"><ele>1514.25</ele><time>2026-05-02T09:37:58.478Z</time></trkpt><trkpt lat="46.305899442826664" lon="11.736257868635015"><ele>1515.0</ele><time>2026-05-02T09:37:59.478Z</time></trkpt><trkpt lat="46.305768679314745" lon="11.736272287762025"><ele>1515.0</ele><time>2026-05-02T09:38:00.478Z</time></trkpt><trkpt lat="46.30565568585547" lon="11.736332539694423"><ele>1515.0</ele><time>2026-05-02T09:38:01.478Z</time></trkpt><trkpt lat="46.30555336051048" lon="11.736366040055978"><ele>1515.0</ele><time>2026-05-02T09:38:02.478Z</time></trkpt><trkpt lat="46.30545040179201" lon="11.736335533894417"><ele>1515.0</ele><time>2026-05-02T09:38:03.478Z</time></trkpt><trkpt lat="46.305358025448164" lon="11.736268689874608"><ele>1515.0</ele><time>2026-05-02T09:38:04.478Z</time></trkpt><trkpt lat="46.30528126155019" lon="11.736130580102746"><ele>1511.6666666666667</ele><time>2026-05-02T09:38:05.478Z</time></trkpt><trkpt lat="46.30523178356774" lon="11.73593780737115"><ele>1508.3333333333335</ele><time>2026-05-02T09:38:06.478Z</time></trkpt><trkpt lat="46.30516215639938" lon="11.73573729627896"><ele>1505.0</ele><time>2026-05-02T09:38:07.478Z</time></trkpt><trkpt lat="46.30504981807693" lon="11.735550209562984"><ele>1505.0</ele><time>2026-05-02T09:38:08.478Z</time></trkpt><trkpt lat="46.30496881080718" lon="11.73534945775996"><ele>1505.0</ele><time>2026-05-02T09:38:09.478Z</time></trkpt><trkpt lat="46.30492726338912" lon="11.73513813483196"><ele>1505.0</ele><time>2026-05-02T09:38:10.478Z</time></trkpt><trkpt lat="46.30489419723747" lon="11.734896932709816"><ele>1503.6666666666667</ele><time>2026-05-02T09:38:11.478Z</time></trkpt><trkpt lat="46.304825768672394" lon="11.734630533037814"><ele>1502.3333333333333</ele><time>2026-05-02T09:38:12.478Z</time></trkpt><trkpt lat="46.30474517494244" lon="11.734376673140932"><ele>1501.0</ele><time>2026-05-02T09:38:13.478Z</time></trkpt><trkpt lat="46.3046475638472" lon="11.734155718984303"><ele>1501.0</ele><time>2026-05-02T09:38:14.478Z</time></trkpt><trkpt lat="46.30456602977021" lon="11.733935967818285"><ele>1501.0</ele><time>2026-05-02T09:38:15.478Z</time></trkpt><trkpt lat="46.30449522252728" lon="11.733722564596556"><ele>1501.0</ele><time>2026-05-02T09:38:16.478Z</time></trkpt><trkpt lat="46.30442415784894" lon="11.733522583306238"><ele>1503.0</ele><time>2026-05-02T09:38:17.478Z</time></trkpt><trkpt lat="46.30432730634385" lon="11.733327813337317"><ele>1505.0</ele><time>2026-05-02T09:38:18.478Z</time></trkpt><trkpt lat="46.3041742624586" lon="11.73319008083733"><ele>1507.0</ele><time>2026-05-02T09:38:19.478Z</time></trkpt><trkpt lat="46.30402332111682" lon="11.733114781295615"><ele>1499.0</ele><time>2026-05-02T09:38:20.478Z</time></trkpt><trkpt lat="46.30386264259902" lon="11.73302126867437"><ele>1491.0</ele><time>2026-05-02T09:38:21.478Z</time></trkpt><trkpt lat="46.3037342159864" lon="11.732884927999276"><ele>1483.0</ele><time>2026-05-02T09:38:22.478Z</time></trkpt><trkpt lat="46.30361147474158" lon="11.732745438396828"><ele>1486.0</ele><time>2026-05-02T09:38:23.478Z</time></trkpt><trkpt lat="46.30349865316339" lon="11.732575020998826"><ele>1489.0</ele><time>2026-05-02T09:38:24.478Z</time></trkpt><trkpt lat="46.30341369078542" lon="11.732421479038287"><ele>1492.0</ele><time>2026-05-02T09:38:25.478Z</time></trkpt><trkpt lat="46.303336641898284" lon="11.732246251146941"><ele>1495.0</ele><time>2026-05-02T09:38:26.478Z</time></trkpt><trkpt lat="46.30325899880404" lon="11.732008519309247"><ele>1500.6666666666665</ele><time>2026-05-02T09:38:27.478Z</time></trkpt><trkpt lat="46.30321314318748" lon="11.731765031843508"><ele>1506.3333333333333</ele><time>2026-05-02T09:38:28.478Z</time></trkpt><trkpt lat="46.30315405902618" lon="11.731489425033477"><ele>1512.0</ele><time>2026-05-02T09:38:29.478Z</time></trkpt><trkpt lat="46.30307489507151" lon="11.731242360107025"><ele>1502.0</ele><time>2026-05-02T09:38:30.478Z</time></trkpt><trkpt lat="46.302977777014966" lon="11.731019124882923"><ele>1492.0</ele><time>2026-05-02T09:38:31.478Z</time></trkpt><trkpt lat="46.30283482383376" lon="11.730801709576705"><ele>1482.0</ele><time>2026-05-02T09:38:32.478Z</time></trkpt><trkpt lat="46.3026802016682" lon="11.73067021610493"><ele>1482.0</ele><time>2026-05-02T09:38:33.478Z</time></trkpt><trkpt lat="46.30255204053987" lon="11.730514841471607"><ele>1482.0</ele><time>2026-05-02T09:38:34.478Z</time></trkpt><trkpt lat="46.30245310737172" lon="11.730299699884954"><ele>1482.0</ele><time>2026-05-02T09:38:35.478Z</time></trkpt><trkpt lat="46.30232882358337" lon="11.730110150009988"><ele>1477.6666666666667</ele><time>2026-05-02T09:38:36.478Z</time></trkpt><trkpt lat="46.30216620251552" lon="11.729955792565754"><ele>1473.3333333333335</ele><time>2026-05-02T09:38:37.478Z</time></trkpt><trkpt lat="46.301998406297585" lon="11.729801171601881"><ele>1469.0</ele><time>2026-05-02T09:38:38.478Z</time></trkpt><trkpt lat="46.301859670205374" lon="11.729666919468881"><ele>1469.0</ele><time>2026-05-02T09:38:39.478Z</time></trkpt><trkpt lat="46.301711377087656" lon="11.729551268154614"><ele>1469.0</ele><time>2026-05-02T09:38:40.478Z</time></trkpt><trkpt lat="46.301570980257516" lon="11.729432200048715"><ele>1469.0</ele><time>2026-05-02T09:38:41.478Z</time></trkpt><trkpt lat="46.30146736018575" lon="11.729282410231566"><ele>1466.6666666666667</ele><time>2026-05-02T09:38:42.478Z</time></trkpt><trkpt lat="46.30139147125274" lon="11.729102754439344"><ele>1464.3333333333333</ele><time>2026-05-02T09:38:43.478Z</time></trkpt><trkpt lat="46.301304474452266" lon="11.72889453832734"><ele>1462.0</ele><time>2026-05-02T09:38:44.478Z</time></trkpt><trkpt lat="46.30122816772496" lon="11.728630890026025"><ele>1467.6666666666665</ele><time>2026-05-02T09:38:45.478Z</time></trkpt><trkpt lat="46.30116184119971" lon="11.728346273447459"><ele>1473.3333333333333</ele><time>2026-05-02T09:38:46.478Z</time></trkpt><trkpt lat="46.301069143163666" lon="11.728070763569068"><ele>1479.0</ele><time>2026-05-02T09:38:47.478Z</time></trkpt><trkpt lat="46.30092427017022" lon="11.727870089487325"><ele>1482.3333333333333</ele><time>2026-05-02T09:38:48.478Z</time></trkpt><trkpt lat="46.30081090332178" lon="11.727678730163436"><ele>1485.6666666666665</ele><time>2026-05-02T09:38:49.478Z</time></trkpt><trkpt lat="46.30073562850362" lon="11.727469091096973"><ele>1489.0</ele><time>2026-05-02T09:38:50.478Z</time></trkpt><trkpt lat="46.300701041737824" lon="11.727237097516024"><ele>1489.0</ele><time>2026-05-02T09:38:51.478Z</time></trkpt><trkpt lat="46.30067450994936" lon="11.727003396644443"><ele>1489.0</ele><time>2026-05-02T09:38:52.478Z</time></trkpt><trkpt lat="46.3006168769244" lon="11.726722424410115"><ele>1489.0</ele><time>2026-05-02T09:38:53.478Z</time></trkpt><trkpt lat="46.30058554929481" lon="11.726438766159575"><ele>1470.5</ele><time>2026-05-02T09:38:54.478Z</time></trkpt><trkpt lat="46.300554480029184" lon="11.726124253341023"><ele>1452.0</ele><time>2026-05-02T09:38:55.478Z</time></trkpt><trkpt lat="46.30053498938656" lon="11.725782075058536"><ele>1451.5</ele><time>2026-05-02T09:38:56.478Z</time></trkpt><trkpt lat="46.30050782001866" lon="11.72539855478114"><ele>1451.0</ele><time>2026-05-02T09:38:57.478Z</time></trkpt><trkpt lat="46.300483880383865" lon="11.72504234524513"><ele>1450.0</ele><time>2026-05-02T09:38:58.478Z</time></trkpt><trkpt lat="46.300468610451915" lon="11.724716729876567"><ele>1449.0</ele><time>2026-05-02T09:38:59.478Z</time></trkpt><trkpt lat="46.30047554434062" lon="11.724364581023487"><ele>1451.0</ele><time>2026-05-02T09:39:00.478Z</time></trkpt><trkpt lat="46.30040974386914" lon="11.72406777886423"><ele>1453.0</ele><time>2026-05-02T09:39:01.478Z</time></trkpt><trkpt lat="46.300349595811305" lon="11.72379604369329"><ele>1455.0</ele><time>2026-05-02T09:39:02.478Z</time></trkpt><trkpt lat="46.30033320902982" lon="11.723503128353912"><ele>1455.0</ele><time>2026-05-02T09:39:03.478Z</time></trkpt><trkpt lat="46.300312859184004" lon="11.723195261616711"><ele>1455.0</ele><time>2026-05-02T09:39:04.478Z</time></trkpt><trkpt lat="46.30031367379892" lon="11.722883640697987"><ele>1455.0</ele><time>2026-05-02T09:39:05.478Z</time></trkpt><trkpt lat="46.3003132767734" lon="11.722568728059395"><ele>1452.3333333333333</ele><time>2026-05-02T09:39:06.478Z</time></trkpt><trkpt lat="46.30032945601898" lon="11.72224866527141"><ele>1449.6666666666665</ele><time>2026-05-02T09:39:07.478Z</time></trkpt><trkpt lat="46.30033485287765" lon="11.72192592067672"><ele>1447.0</ele><time>2026-05-02T09:39:08.478Z</time></trkpt><trkpt lat="46.300327987965396" lon="11.721582174561433"><ele>1447.0</ele><time>2026-05-02T09:39:09.478Z</time></trkpt><trkpt lat="46.3003328322036" lon="11.721253217971986"><ele>1447.0</ele><time>2026-05-02T09:39:10.478Z</time></trkpt><trkpt lat="46.30036072627379" lon="11.72093579948307"><ele>1447.0</ele><time>2026-05-02T09:39:11.478Z</time></trkpt><trkpt lat="46.30039267186395" lon="11.720648949242431"><ele>1447.0</ele><time>2026-05-02T09:39:12.478Z</time></trkpt><trkpt lat="46.3004252924953" lon="11.720374322728205"><ele>1447.0</ele><time>2026-05-02T09:39:13.478Z</time></trkpt><trkpt lat="46.30045092159762" lon="11.720069034975856"><ele>1447.0</ele><time>2026-05-02T09:39:14.478Z</time></trkpt><trkpt lat="46.300421921096984" lon="11.719810281666872"><ele>1447.0</ele><time>2026-05-02T09:39:15.478Z</time></trkpt><trkpt lat="46.30038311799424" lon="11.719549277985134"><ele>1447.0</ele><time>2026-05-02T09:39:16.478Z</time></trkpt><trkpt lat="46.300414256760455" lon="11.719302266690102"><ele>1447.0</ele><time>2026-05-02T09:39:17.478Z</time></trkpt><trkpt lat="46.300452557704446" lon="11.719063970990286"><ele>1446.0</ele><time>2026-05-02T09:39:18.478Z</time></trkpt><trkpt lat="46.300524290491836" lon="11.718821718494794"><ele>1445.0</ele><time>2026-05-02T09:39:19.478Z</time></trkpt><trkpt lat="46.30062408855679" lon="11.718611040234213"><ele>1444.0</ele><time>2026-05-02T09:39:20.478Z</time></trkpt><trkpt lat="46.300719604291416" lon="11.718363043239156"><ele>1456.0</ele><time>2026-05-02T09:39:21.478Z</time></trkpt><trkpt lat="46.300769669452556" lon="11.717999505187318"><ele>1468.0</ele><time>2026-05-02T09:39:22.478Z</time></trkpt><trkpt lat="46.300802240598976" lon="11.717709013525717"><ele>1468.0</ele><time>2026-05-02T09:39:23.478Z</time></trkpt><trkpt lat="46.300851622141565" lon="11.717461941328558"><ele>1468.0</ele><time>2026-05-02T09:39:24.478Z</time></trkpt><trkpt lat="46.30091342137697" lon="11.717209249985554"><ele>1468.0</ele><time>2026-05-02T09:39:25.478Z</time></trkpt><trkpt lat="46.30097296574214" lon="11.71696351903991"><ele>1465.5</ele><time>2026-05-02T09:39:26.478Z</time></trkpt><trkpt lat="46.30102900357001" lon="11.716742397412107"><ele>1463.0</ele><time>2026-05-02T09:39:27.478Z</time></trkpt><trkpt lat="46.301091838435504" lon="11.716568444046233"><ele>1460.5</ele><time>2026-05-02T09:39:28.479Z</time></trkpt><trkpt lat="46.30117144936659" lon="11.71638480183916"><ele>1458.0</ele><time>2026-05-02T09:39:29.479Z</time></trkpt><trkpt lat="46.30126149034106" lon="11.716200782237165"><ele>1456.25</ele><time>2026-05-02T09:39:30.479Z</time></trkpt><trkpt lat="46.3013418756773" lon="11.716037177402102"><ele>1454.5</ele><time>2026-05-02T09:39:31.479Z</time></trkpt><trkpt lat="46.30142584485099" lon="11.71589265496318"><ele>1452.75</ele><time>2026-05-02T09:39:32.498Z</time></trkpt><trkpt lat="46.301528133744725" lon="11.715766382701371"><ele>1451.0</ele><time>2026-05-02T09:39:33.496Z</time></trkpt><trkpt lat="46.301644780619405" lon="11.715653897450029"><ele>1459.0</ele><time>2026-05-02T09:39:34.493Z</time></trkpt><trkpt lat="46.301771410508465" lon="11.715545182525881"><ele>1467.0</ele><time>2026-05-02T09:39:35.493Z</time></trkpt><trkpt lat="46.305454052096515" lon="11.70958972537118"><ele>1467.0</ele><time>2026-05-02T09:40:11.479Z</time></trkpt><trkpt lat="46.30553096477272" lon="11.709445704551056"><ele>1467.0</ele><time>2026-05-02T09:40:12.479Z</time></trkpt><trkpt lat="46.30545829726264" lon="11.709241444748566"><ele>1467.0</ele><time>2026-05-02T09:40:13.479Z</time></trkpt><trkpt lat="46.30559979349551" lon="11.709115112985751"><ele>1474.6666666666667</ele><time>2026-05-02T09:40:14.479Z</time></trkpt><trkpt lat="46.305628037918765" lon="11.708862365578634"><ele>1482.3333333333335</ele><time>2026-05-02T09:40:15.479Z</time></trkpt><trkpt lat="46.30568839395431" lon="11.708621527564802"><ele>1490.0</ele><time>2026-05-02T09:40:16.479Z</time></trkpt><trkpt lat="46.30575638229424" lon="11.708420025226106"><ele>1490.0</ele><time>2026-05-02T09:40:17.479Z</time></trkpt><trkpt lat="46.305804111445475" lon="11.708237833981023"><ele>1490.0</ele><time>2026-05-02T09:40:18.479Z</time></trkpt><trkpt lat="46.305822168641996" lon="11.7080111043578"><ele>1490.0</ele><time>2026-05-02T09:40:19.479Z</time></trkpt><trkpt lat="46.305859470059225" lon="11.707773119645346"><ele>1490.6666666666667</ele><time>2026-05-02T09:40:20.479Z</time></trkpt><trkpt lat="46.30589444633327" lon="11.70749632143661"><ele>1491.3333333333333</ele><time>2026-05-02T09:40:21.479Z</time></trkpt><trkpt lat="46.30595332500599" lon="11.707199821106988"><ele>1492.0</ele><time>2026-05-02T09:40:22.479Z</time></trkpt><trkpt lat="46.30600057053788" lon="11.706870492178723"><ele>1488.6666666666665</ele><time>2026-05-02T09:40:23.479Z</time></trkpt><trkpt lat="46.30603742272952" lon="11.706565432128563"><ele>1485.3333333333333</ele><time>2026-05-02T09:40:24.479Z</time></trkpt><trkpt lat="46.306055337916675" lon="11.706319592104279"><ele>1482.0</ele><time>2026-05-02T09:40:25.479Z</time></trkpt><trkpt lat="46.30607494141208" lon="11.706077501953118"><ele>1477.0</ele><time>2026-05-02T09:40:26.479Z</time></trkpt><trkpt lat="46.30610806702807" lon="11.70582694092075"><ele>1472.0</ele><time>2026-05-02T09:40:27.479Z</time></trkpt><trkpt lat="46.30616189756714" lon="11.705540695103153"><ele>1467.0</ele><time>2026-05-02T09:40:28.479Z</time></trkpt><trkpt lat="46.30617880348924" lon="11.705286197050366"><ele>1464.3333333333333</ele><time>2026-05-02T09:40:29.479Z</time></trkpt><trkpt lat="46.30618262177947" lon="11.705084562641119"><ele>1461.6666666666665</ele><time>2026-05-02T09:40:30.479Z</time></trkpt><trkpt lat="46.30620251966598" lon="11.704853137008934"><ele>1459.0</ele><time>2026-05-02T09:40:31.479Z</time></trkpt><trkpt lat="46.306200289161175" lon="11.704620267849576"><ele>1458.6666666666665</ele><time>2026-05-02T09:40:32.479Z</time></trkpt><trkpt lat="46.30625470442898" lon="11.704366953059717"><ele>1458.3333333333333</ele><time>2026-05-02T09:40:33.479Z</time></trkpt><trkpt lat="46.306281677947815" lon="11.704112731267445"><ele>1458.0</ele><time>2026-05-02T09:40:34.479Z</time></trkpt><trkpt lat="46.3063312313673" lon="11.703857878785367"><ele>1458.0</ele><time>2026-05-02T09:40:35.479Z</time></trkpt><trkpt lat="46.30637985969411" lon="11.703615538983119"><ele>1458.0</ele><time>2026-05-02T09:40:36.479Z</time></trkpt><trkpt lat="46.306440353698136" lon="11.703367199422619"><ele>1458.0</ele><time>2026-05-02T09:40:37.479Z</time></trkpt><trkpt lat="46.306524114324155" lon="11.703108383885825"><ele>1465.3333333333333</ele><time>2026-05-02T09:40:38.479Z</time></trkpt><trkpt lat="46.30658980657265" lon="11.702858901197049"><ele>1472.6666666666665</ele><time>2026-05-02T09:40:39.479Z</time></trkpt><trkpt lat="46.30664670291334" lon="11.70258132593232"><ele>1480.0</ele><time>2026-05-02T09:40:40.479Z</time></trkpt><trkpt lat="46.30668312213546" lon="11.70235976559918"><ele>1480.0</ele><time>2026-05-02T09:40:41.479Z</time></trkpt><trkpt lat="46.30671418022289" lon="11.702131379927277"><ele>1480.0</ele><time>2026-05-02T09:40:42.479Z</time></trkpt><trkpt lat="46.30675217859185" lon="11.70188729040821"><ele>1480.0</ele><time>2026-05-02T09:40:43.479Z</time></trkpt><trkpt lat="46.30681671785296" lon="11.701650754040882"><ele>1481.6666666666665</ele><time>2026-05-02T09:40:44.479Z</time></trkpt><trkpt lat="46.30687365176696" lon="11.701400848570392"><ele>1483.3333333333333</ele><time>2026-05-02T09:40:45.479Z</time></trkpt><trkpt lat="46.30688562815609" lon="11.701123913572058"><ele>1485.0</ele><time>2026-05-02T09:40:46.479Z</time></trkpt><trkpt lat="46.30691854566955" lon="11.700849256751019"><ele>1485.6666666666667</ele><time>2026-05-02T09:40:47.479Z</time></trkpt><trkpt lat="46.307022683814274" lon="11.700576753484699"><ele>1486.3333333333335</ele><time>2026-05-02T09:40:48.479Z</time></trkpt><trkpt lat="46.307086652745" lon="11.700290029698643"><ele>1487.0</ele><time>2026-05-02T09:40:49.479Z</time></trkpt><trkpt lat="46.3071667223639" lon="11.700026843798726"><ele>1482.3333333333335</ele><time>2026-05-02T09:40:50.479Z</time></trkpt><trkpt lat="46.307171559961894" lon="11.699753232033707"><ele>1477.6666666666667</ele><time>2026-05-02T09:40:51.479Z</time></trkpt><trkpt lat="46.30720129642813" lon="11.699481507874252"><ele>1473.0</ele><time>2026-05-02T09:40:52.479Z</time></trkpt><trkpt lat="46.30721435858808" lon="11.699256246691895"><ele>1472.0</ele><time>2026-05-02T09:40:53.479Z</time></trkpt><trkpt lat="46.30722821928437" lon="11.699044126510682"><ele>1471.0</ele><time>2026-05-02T09:40:54.479Z</time></trkpt><trkpt lat="46.30728123165179" lon="11.698862260605573"><ele>1470.0</ele><time>2026-05-02T09:40:55.479Z</time></trkpt><trkpt lat="46.30730316887462" lon="11.698687514942094"><ele>1469.0</ele><time>2026-05-02T09:40:56.479Z</time></trkpt><trkpt lat="46.30735000632475" lon="11.698539551046133"><ele>1469.0</ele><time>2026-05-02T09:40:57.479Z</time></trkpt><trkpt lat="46.30735856251828" lon="11.698388589405923"><ele>1469.0</ele><time>2026-05-02T09:40:58.479Z</time></trkpt><trkpt lat="46.307377181689965" lon="11.698254244408716"><ele>1469.0</ele><time>2026-05-02T09:40:59.479Z</time></trkpt><trkpt lat="46.30732839258869" lon="11.698133141041305"><ele>1469.0</ele><time>2026-05-02T09:41:00.479Z</time></trkpt><trkpt lat="46.307242171585706" lon="11.69806299867965"><ele>1469.0</ele><time>2026-05-02T09:41:01.479Z</time></trkpt><trkpt lat="46.30716866371915" lon="11.697978303786494"><ele>1465.5</ele><time>2026-05-02T09:41:02.479Z</time></trkpt><trkpt lat="46.307071831182654" lon="11.697867969196837"><ele>1462.0</ele><time>2026-05-02T09:41:03.479Z</time></trkpt><trkpt lat="46.307046480420674" lon="11.697738902783613"><ele>1458.5</ele><time>2026-05-02T09:41:04.479Z</time></trkpt><trkpt lat="46.30705037746764" lon="11.69757509402808"><ele>1455.0</ele><time>2026-05-02T09:41:05.479Z</time></trkpt><trkpt lat="46.30707169433156" lon="11.697380868172322"><ele>1455.0</ele><time>2026-05-02T09:41:06.479Z</time></trkpt><trkpt lat="46.30706562530281" lon="11.697156117499688"><ele>1455.0</ele><time>2026-05-02T09:41:07.479Z</time></trkpt><trkpt lat="46.30706520386335" lon="11.69694432258121"><ele>1455.0</ele><time>2026-05-02T09:41:08.479Z</time></trkpt><trkpt lat="46.30705420579517" lon="11.696755568459622"><ele>1455.0</ele><time>2026-05-02T09:41:09.479Z</time></trkpt><trkpt lat="46.30707625793974" lon="11.69654888196592"><ele>1456.25</ele><time>2026-05-02T09:41:10.479Z</time></trkpt><trkpt lat="46.30708509408484" lon="11.696331138152516"><ele>1457.5</ele><time>2026-05-02T09:41:11.479Z</time></trkpt><trkpt lat="46.30711529944106" lon="11.696131732398644"><ele>1458.75</ele><time>2026-05-02T09:41:12.479Z</time></trkpt><trkpt lat="46.30716511037093" lon="11.695927961170772"><ele>1460.0</ele><time>2026-05-02T09:41:13.479Z</time></trkpt><trkpt lat="46.307232845759444" lon="11.695714041689678"><ele>1461.6666666666667</ele><time>2026-05-02T09:41:14.479Z</time></trkpt><trkpt lat="46.307324035679834" lon="11.69551306813741"><ele>1463.3333333333333</ele><time>2026-05-02T09:41:15.479Z</time></trkpt><trkpt lat="46.307451393320946" lon="11.695239050659017"><ele>1465.0</ele><time>2026-05-02T09:41:16.479Z</time></trkpt><trkpt lat="46.307577272240785" lon="11.694993723881119"><ele>1465.0</ele><time>2026-05-02T09:41:17.479Z</time></trkpt><trkpt lat="46.30768885132006" lon="11.694781633577493"><ele>1465.0</ele><time>2026-05-02T09:41:18.479Z</time></trkpt><trkpt lat="46.30777638696775" lon="11.694597421035908"><ele>1465.0</ele><time>2026-05-02T09:41:19.479Z</time></trkpt><trkpt lat="46.30786493892022" lon="11.69442653972309"><ele>1463.0</ele><time>2026-05-02T09:41:20.479Z</time></trkpt><trkpt lat="46.307978570073956" lon="11.69428767966037"><ele>1461.0</ele><time>2026-05-02T09:41:21.479Z</time></trkpt><trkpt lat="46.30813106451862" lon="11.694148585093457"><ele>1459.0</ele><time>2026-05-02T09:41:22.479Z</time></trkpt><trkpt lat="46.30833013726638" lon="11.69399561513114"><ele>1459.0</ele><time>2026-05-02T09:41:23.479Z</time></trkpt><trkpt lat="46.308475281386485" lon="11.693826990438295"><ele>1459.0</ele><time>2026-05-02T09:41:24.479Z</time></trkpt><trkpt lat="46.3086355760385" lon="11.693666910989036"><ele>1459.0</ele><time>2026-05-02T09:41:25.479Z</time></trkpt><trkpt lat="46.30878701127275" lon="11.693525855916578"><ele>1459.0</ele><time>2026-05-02T09:41:26.479Z</time></trkpt><trkpt lat="46.30892934160925" lon="11.693376474000711"><ele>1459.0</ele><time>2026-05-02T09:41:27.479Z</time></trkpt><trkpt lat="46.309072800545835" lon="11.693191324692018"><ele>1459.0</ele><time>2026-05-02T09:41:28.479Z</time></trkpt><trkpt lat="46.30918428593368" lon="11.6929948886455"><ele>1459.0</ele><time>2026-05-02T09:41:29.479Z</time></trkpt><trkpt lat="46.30928460164646" lon="11.69278668043898"><ele>1459.0</ele><time>2026-05-02T09:41:30.479Z</time></trkpt><trkpt lat="46.30935363804488" lon="11.692585077495801"><ele>1459.0</ele><time>2026-05-02T09:41:31.479Z</time></trkpt><trkpt lat="46.3093896017826" lon="11.692382203076853"><ele>1455.0</ele><time>2026-05-02T09:41:32.479Z</time></trkpt><trkpt lat="46.309373000986525" lon="11.692133463497884"><ele>1451.0</ele><time>2026-05-02T09:41:33.479Z</time></trkpt><trkpt lat="46.309336660532885" lon="11.691877124034386"><ele>1447.0</ele><time>2026-05-02T09:41:34.479Z</time></trkpt><trkpt lat="46.30926415478087" lon="11.691584923984562"><ele>1447.0</ele><time>2026-05-02T09:41:35.479Z</time></trkpt><trkpt lat="46.309217413647254" lon="11.691276436034416"><ele>1447.0</ele><time>2026-05-02T09:41:36.479Z</time></trkpt><trkpt lat="46.30917913199133" lon="11.690959610155328"><ele>1447.0</ele><time>2026-05-02T09:41:37.479Z</time></trkpt><trkpt lat="46.30912140977885" lon="11.690676459626754"><ele>1447.0</ele><time>2026-05-02T09:41:38.479Z</time></trkpt><trkpt lat="46.309035596921596" lon="11.690409212896181"><ele>1447.0</ele><time>2026-05-02T09:41:39.479Z</time></trkpt><trkpt lat="46.30892664800801" lon="11.69013520490828"><ele>1447.0</ele><time>2026-05-02T09:41:40.479Z</time></trkpt><trkpt lat="46.30882188940754" lon="11.689868352096223"><ele>1443.6666666666665</ele><time>2026-05-02T09:41:41.479Z</time></trkpt><trkpt lat="46.30871918515637" lon="11.689616308631011"><ele>1440.3333333333333</ele><time>2026-05-02T09:41:42.479Z</time></trkpt><trkpt lat="46.30863094210383" lon="11.68934115054275"><ele>1437.0</ele><time>2026-05-02T09:41:43.479Z</time></trkpt><trkpt lat="46.30852780849698" lon="11.68909078312327"><ele>1437.0</ele><time>2026-05-02T09:41:44.479Z</time></trkpt><trkpt lat="46.308445681150125" lon="11.688843416084127"><ele>1437.0</ele><time>2026-05-02T09:41:45.479Z</time></trkpt><trkpt lat="46.30835331146168" lon="11.68861582255304"><ele>1437.0</ele><time>2026-05-02T09:41:46.479Z</time></trkpt><trkpt lat="46.30831186901897" lon="11.688365689888132"><ele>1439.0</ele><time>2026-05-02T09:41:47.479Z</time></trkpt><trkpt lat="46.308256602388326" lon="11.688093694305541"><ele>1441.0</ele><time>2026-05-02T09:41:48.479Z</time></trkpt><trkpt lat="46.308230906558414" lon="11.687815550633982"><ele>1443.0</ele><time>2026-05-02T09:41:49.479Z</time></trkpt><trkpt lat="46.30819473158095" lon="11.687574558144215"><ele>1443.0</ele><time>2026-05-02T09:41:50.479Z</time></trkpt><trkpt lat="46.30817362288046" lon="11.687364390283493"><ele>1443.0</ele><time>2026-05-02T09:41:51.479Z</time></trkpt><trkpt lat="46.30816431707157" lon="11.687163504686662"><ele>1443.0</ele><time>2026-05-02T09:41:52.479Z</time></trkpt><trkpt lat="46.308197846223365" lon="11.68694062376344"><ele>1443.0</ele><time>2026-05-02T09:41:53.479Z</time></trkpt><trkpt lat="46.30823441240492" lon="11.686705838275131"><ele>1443.0</ele><time>2026-05-02T09:41:54.479Z</time></trkpt><trkpt lat="46.308258595450354" lon="11.6864472247544"><ele>1443.0</ele><time>2026-05-02T09:41:55.479Z</time></trkpt><trkpt lat="46.30830090371738" lon="11.68615695176312"><ele>1443.0</ele><time>2026-05-02T09:41:56.479Z</time></trkpt><trkpt lat="46.30834549287539" lon="11.68587894585506"><ele>1441.0</ele><time>2026-05-02T09:41:57.479Z</time></trkpt><trkpt lat="46.30835293295251" lon="11.685625339291484"><ele>1439.0</ele><time>2026-05-02T09:41:58.479Z</time></trkpt><trkpt lat="46.30836400951818" lon="11.685387395285547"><ele>1437.0</ele><time>2026-05-02T09:41:59.479Z</time></trkpt><trkpt lat="46.30838835816109" lon="11.685151609363691"><ele>1435.25</ele><time>2026-05-02T09:42:00.479Z</time></trkpt><trkpt lat="46.308403701299014" lon="11.684947535274336"><ele>1433.5</ele><time>2026-05-02T09:42:01.479Z</time></trkpt><trkpt lat="46.30842319746029" lon="11.684757841282964"><ele>1431.75</ele><time>2026-05-02T09:42:02.479Z</time></trkpt><trkpt lat="46.30846263190918" lon="11.684581143081388"><ele>1430.0</ele><time>2026-05-02T09:42:03.479Z</time></trkpt><trkpt lat="46.3085372178568" lon="11.684391928564773"><ele>1427.0</ele><time>2026-05-02T09:42:04.479Z</time></trkpt><trkpt lat="46.30864175231659" lon="11.684188425805699"><ele>1424.0</ele><time>2026-05-02T09:42:05.479Z</time></trkpt><trkpt lat="46.30875668342998" lon="11.683955820806322"><ele>1421.0</ele><time>2026-05-02T09:42:06.479Z</time></trkpt><trkpt lat="46.30885649420657" lon="11.683671717225812"><ele>1423.3333333333335</ele><time>2026-05-02T09:42:07.479Z</time></trkpt><trkpt lat="46.30893922285429" lon="11.683393525393472"><ele>1425.6666666666667</ele><time>2026-05-02T09:42:08.479Z</time></trkpt><trkpt lat="46.30900935584484" lon="11.683127620366808"><ele>1428.0</ele><time>2026-05-02T09:42:09.479Z</time></trkpt><trkpt lat="46.30910348781768" lon="11.682894012868035"><ele>1423.3333333333333</ele><time>2026-05-02T09:42:10.479Z</time></trkpt><trkpt lat="46.30920047786545" lon="11.682684648650664"><ele>1418.6666666666665</ele><time>2026-05-02T09:42:11.479Z</time></trkpt><trkpt lat="46.30930638145267" lon="11.682497398690023"><ele>1414.0</ele><time>2026-05-02T09:42:12.479Z</time></trkpt><trkpt lat="46.309421674574" lon="11.682318485156562"><ele>1414.0</ele><time>2026-05-02T09:42:13.479Z</time></trkpt><trkpt lat="46.30955960061156" lon="11.682135728696254"><ele>1414.0</ele><time>2026-05-02T09:42:14.479Z</time></trkpt><trkpt lat="46.30972309989243" lon="11.681943659893742"><ele>1414.0</ele><time>2026-05-02T09:42:15.479Z</time></trkpt><trkpt lat="46.30986283944399" lon="11.681759017488792"><ele>1417.6666666666665</ele><time>2026-05-02T09:42:16.479Z</time></trkpt><trkpt lat="46.30999049533271" lon="11.681578203981905"><ele>1421.3333333333333</ele><time>2026-05-02T09:42:17.479Z</time></trkpt><trkpt lat="46.31011186464836" lon="11.681406222322291"><ele>1425.0</ele><time>2026-05-02T09:42:18.479Z</time></trkpt><trkpt lat="46.31024292307689" lon="11.681232639950556"><ele>1420.3333333333333</ele><time>2026-05-02T09:42:19.479Z</time></trkpt><trkpt lat="46.310363251600165" lon="11.681040974260885"><ele>1415.6666666666665</ele><time>2026-05-02T09:42:20.479Z</time></trkpt><trkpt lat="46.31047027161565" lon="11.680835235707246"><ele>1411.0</ele><time>2026-05-02T09:42:21.479Z</time></trkpt><trkpt lat="46.31056346709268" lon="11.680618616992632"><ele>1417.6666666666665</ele><time>2026-05-02T09:42:22.479Z</time></trkpt><trkpt lat="46.310651742563124" lon="11.680385476972054"><ele>1424.3333333333333</ele><time>2026-05-02T09:42:23.479Z</time></trkpt><trkpt lat="46.310711652495534" lon="11.68015507574614"><ele>1431.0</ele><time>2026-05-02T09:42:24.479Z</time></trkpt><trkpt lat="46.31076548235185" lon="11.67990767417958"><ele>1431.0</ele><time>2026-05-02T09:42:25.479Z</time></trkpt><trkpt lat="46.31082246393419" lon="11.679670117398725"><ele>1431.0</ele><time>2026-05-02T09:42:26.479Z</time></trkpt><trkpt lat="46.310876392394164" lon="11.679447978174897"><ele>1431.0</ele><time>2026-05-02T09:42:27.479Z</time></trkpt><trkpt lat="46.31093735296215" lon="11.679244011740378"><ele>1428.0</ele><time>2026-05-02T09:42:28.479Z</time></trkpt><trkpt lat="46.31100402757526" lon="11.679047364597553"><ele>1425.0</ele><time>2026-05-02T09:42:29.479Z</time></trkpt><trkpt lat="46.31107586774371" lon="11.678881942030062"><ele>1422.0</ele><time>2026-05-02T09:42:30.479Z</time></trkpt><trkpt lat="46.31114891012639" lon="11.67873732030448"><ele>1419.0</ele><time>2026-05-02T09:42:31.479Z</time></trkpt><trkpt lat="46.311270608311695" lon="11.678658854099663"><ele>1419.0</ele><time>2026-05-02T09:42:32.479Z</time></trkpt><trkpt lat="46.31140038395391" lon="11.67862201244063"><ele>1419.0</ele><time>2026-05-02T09:42:33.479Z</time></trkpt><trkpt lat="46.31152902507198" lon="11.67865347532403"><ele>1419.0</ele><time>2026-05-02T09:42:34.479Z</time></trkpt><trkpt lat="46.31166488702386" lon="11.678756633147223"><ele>1419.0</ele><time>2026-05-02T09:42:35.479Z</time></trkpt><trkpt lat="46.31182793554648" lon="11.678857440343169"><ele>1424.6666666666667</ele><time>2026-05-02T09:42:36.479Z</time></trkpt><trkpt lat="46.31196995635491" lon="11.678945833244505"><ele>1430.3333333333335</ele><time>2026-05-02T09:42:37.479Z</time></trkpt><trkpt lat="46.31212785704237" lon="11.679044288318062"><ele>1436.0</ele><time>2026-05-02T09:42:38.479Z</time></trkpt><trkpt lat="46.31229132854711" lon="11.67914812737596"><ele>1436.0</ele><time>2026-05-02T09:42:39.479Z</time></trkpt><trkpt lat="46.3124327769854" lon="11.67921894720272"><ele>1436.0</ele><time>2026-05-02T09:42:40.479Z</time></trkpt><trkpt lat="46.31255837179789" lon="11.679303380479464"><ele>1436.0</ele><time>2026-05-02T09:42:41.479Z</time></trkpt><trkpt lat="46.31266935994129" lon="11.679367749497311"><ele>1436.0</ele><time>2026-05-02T09:42:42.479Z</time></trkpt><trkpt lat="46.312776642532576" lon="11.679453798263113"><ele>1441.4</ele><time>2026-05-02T09:42:43.479Z</time></trkpt><trkpt lat="46.312865525234436" lon="11.679529297076495"><ele>1446.8</ele><time>2026-05-02T09:42:44.479Z</time></trkpt><trkpt lat="46.31295161143559" lon="11.67958748669105"><ele>1452.2</ele><time>2026-05-02T09:42:45.479Z</time></trkpt><trkpt lat="46.313050135866064" lon="11.679629312167664"><ele>1457.6000000000001</ele><time>2026-05-02T09:42:46.479Z</time></trkpt><trkpt lat="46.31316010579534" lon="11.679626736323174"><ele>1463.0</ele><time>2026-05-02T09:42:47.479Z</time></trkpt><trkpt lat="46.31324079080299" lon="11.67960414513253"><ele>1463.0</ele><time>2026-05-02T09:42:48.479Z</time></trkpt><trkpt lat="46.31331774300453" lon="11.679511158822264"><ele>1463.0</ele><time>2026-05-02T09:42:49.479Z</time></trkpt><trkpt lat="46.31338001057157" lon="11.679419904734193"><ele>1463.0</ele><time>2026-05-02T09:42:50.479Z</time></trkpt><trkpt lat="46.31341482112951" lon="11.679340804864058"><ele>1463.0</ele><time>2026-05-02T09:42:51.479Z</time></trkpt><trkpt lat="46.31337462253085" lon="11.679142942435114"><ele>1463.0</ele><time>2026-05-02T09:42:52.479Z</time></trkpt><trkpt lat="46.313314807458234" lon="11.679025661227765"><ele>1456.25</ele><time>2026-05-02T09:42:53.479Z</time></trkpt><trkpt lat="46.31321911085125" lon="11.678938240635402"><ele>1449.5</ele><time>2026-05-02T09:42:54.479Z</time></trkpt><trkpt lat="46.3130917391839" lon="11.678843827111494"><ele>1442.75</ele><time>2026-05-02T09:42:55.479Z</time></trkpt><trkpt lat="46.312971607333125" lon="11.678724535220022"><ele>1436.0</ele><time>2026-05-02T09:42:56.479Z</time></trkpt><trkpt lat="46.31286466530848" lon="11.678605762943947"><ele>1433.0</ele><time>2026-05-02T09:42:57.479Z</time></trkpt><trkpt lat="46.312740455659174" lon="11.678492321781427"><ele>1430.0</ele><time>2026-05-02T09:42:58.479Z</time></trkpt><trkpt lat="46.31264252447758" lon="11.678403950305498"><ele>1427.0</ele><time>2026-05-02T09:42:59.479Z</time></trkpt><trkpt lat="46.31255691601005" lon="11.678297354995953"><ele>1424.0</ele><time>2026-05-02T09:43:00.479Z</time></trkpt><trkpt lat="46.31247880179898" lon="11.678168923791693"><ele>1424.0</ele><time>2026-05-02T09:43:01.479Z</time></trkpt><trkpt lat="46.31238697014392" lon="11.678004323854928"><ele>1424.0</ele><time>2026-05-02T09:43:02.479Z</time></trkpt><trkpt lat="46.31231644470853" lon="11.677821011215586"><ele>1424.0</ele><time>2026-05-02T09:43:03.479Z</time></trkpt><trkpt lat="46.31220300012581" lon="11.677556818236537"><ele>1418.6666666666667</ele><time>2026-05-02T09:43:04.479Z</time></trkpt><trkpt lat="46.31210658192871" lon="11.67731736018177"><ele>1413.3333333333333</ele><time>2026-05-02T09:43:05.479Z</time></trkpt><trkpt lat="46.31200725675209" lon="11.677066767784803"><ele>1408.0</ele><time>2026-05-02T09:43:06.479Z</time></trkpt><trkpt lat="46.31189160394429" lon="11.676773675217063"><ele>1408.0</ele><time>2026-05-02T09:43:07.479Z</time></trkpt><trkpt lat="46.311777876960285" lon="11.676490697615689"><ele>1408.0</ele><time>2026-05-02T09:43:08.479Z</time></trkpt><trkpt lat="46.31166902494102" lon="11.676216918057612"><ele>1408.0</ele><time>2026-05-02T09:43:09.479Z</time></trkpt><trkpt lat="46.31157711747287" lon="11.675982097527406"><ele>1408.25</ele><time>2026-05-02T09:43:10.479Z</time></trkpt><trkpt lat="46.31149787010047" lon="11.675784385933145"><ele>1408.5</ele><time>2026-05-02T09:43:11.479Z</time></trkpt><trkpt lat="46.31143122666162" lon="11.675616543053309"><ele>1408.75</ele><time>2026-05-02T09:43:12.479Z</time></trkpt><trkpt lat="46.311357210663346" lon="11.675425199179015"><ele>1409.0</ele><time>2026-05-02T09:43:13.479Z</time></trkpt><trkpt lat="46.31130685364187" lon="11.675287420054037"><ele>1409.25</ele><time>2026-05-02T09:43:14.479Z</time></trkpt><trkpt lat="46.31125492280253" lon="11.675114310882527"><ele>1409.5</ele><time>2026-05-02T09:43:15.479Z</time></trkpt><trkpt lat="46.31121729994123" lon="11.674928482839869"><ele>1409.75</ele><time>2026-05-02T09:43:16.479Z</time></trkpt><trkpt lat="46.31118644724993" lon="11.674747486579484"><ele>1410.0</ele><time>2026-05-02T09:43:17.479Z</time></trkpt><trkpt lat="46.31114492736323" lon="11.674571027745518"><ele>1409.75</ele><time>2026-05-02T09:43:18.479Z</time></trkpt><trkpt lat="46.31112718048631" lon="11.67437357593994"><ele>1409.5</ele><time>2026-05-02T09:43:19.479Z</time></trkpt><trkpt lat="46.31110006208326" lon="11.674200876081052"><ele>1409.25</ele><time>2026-05-02T09:43:20.479Z</time></trkpt><trkpt lat="46.31106986916937" lon="11.674007505714366"><ele>1409.0</ele><time>2026-05-02T09:43:21.479Z</time></trkpt><trkpt lat="46.31104032335392" lon="11.673818279671258"><ele>1409.0</ele><time>2026-05-02T09:43:22.479Z</time></trkpt><trkpt lat="46.31100667955065" lon="11.6736068073506"><ele>1409.0</ele><time>2026-05-02T09:43:23.479Z</time></trkpt><trkpt lat="46.31098078284332" lon="11.67341039470599"><ele>1409.0</ele><time>2026-05-02T09:43:24.479Z</time></trkpt><trkpt lat="46.310974379878154" lon="11.67322876057064"><ele>1409.0</ele><time>2026-05-02T09:43:25.479Z</time></trkpt><trkpt lat="46.31098772371683" lon="11.673042948911489"><ele>1410.0</ele><time>2026-05-02T09:43:26.479Z</time></trkpt><trkpt lat="46.311034532979896" lon="11.672824121212026"><ele>1411.0</ele><time>2026-05-02T09:43:27.479Z</time></trkpt><trkpt lat="46.31109571010275" lon="11.672586596093579"><ele>1412.0</ele><time>2026-05-02T09:43:28.479Z</time></trkpt><trkpt lat="46.311160105552155" lon="11.672343620086423"><ele>1412.0</ele><time>2026-05-02T09:43:29.479Z</time></trkpt><trkpt lat="46.31124318914114" lon="11.672092711260893"><ele>1412.0</ele><time>2026-05-02T09:43:30.479Z</time></trkpt><trkpt lat="46.311291877046266" lon="11.671838437372102"><ele>1412.0</ele><time>2026-05-02T09:43:31.479Z</time></trkpt><trkpt lat="46.31135292366511" lon="11.671605463205822"><ele>1410.0</ele><time>2026-05-02T09:43:32.479Z</time></trkpt><trkpt lat="46.31141948925328" lon="11.671356694615964"><ele>1408.0</ele><time>2026-05-02T09:43:33.479Z</time></trkpt><trkpt lat="46.311469128392275" lon="11.671111449355468"><ele>1406.0</ele><time>2026-05-02T09:43:34.479Z</time></trkpt><trkpt lat="46.311556899876976" lon="11.670876850606772"><ele>1405.3333333333335</ele><time>2026-05-02T09:43:35.479Z</time></trkpt><trkpt lat="46.311642677502924" lon="11.6706456948558"><ele>1404.6666666666667</ele><time>2026-05-02T09:43:36.479Z</time></trkpt><trkpt lat="46.311749104640185" lon="11.670443989184603"><ele>1404.0</ele><time>2026-05-02T09:43:37.479Z</time></trkpt><trkpt lat="46.311833605547776" lon="11.670215937475039"><ele>1403.0</ele><time>2026-05-02T09:43:38.479Z</time></trkpt><trkpt lat="46.31193930676343" lon="11.670014758436261"><ele>1402.0</ele><time>2026-05-02T09:43:39.479Z</time></trkpt><trkpt lat="46.31203251475421" lon="11.669801490824074"><ele>1401.0</ele><time>2026-05-02T09:43:40.48Z</time></trkpt><trkpt lat="46.31211661308545" lon="11.669588268284754"><ele>1398.6666666666667</ele><time>2026-05-02T09:43:41.48Z</time></trkpt><trkpt lat="46.31217612014488" lon="11.669340272777497"><ele>1396.3333333333335</ele><time>2026-05-02T09:43:42.48Z</time></trkpt><trkpt lat="46.31221382567736" lon="11.669063406307565"><ele>1394.0</ele><time>2026-05-02T09:43:43.48Z</time></trkpt><trkpt lat="46.31223770157278" lon="11.668739646392511"><ele>1391.0</ele><time>2026-05-02T09:43:44.48Z</time></trkpt><trkpt lat="46.31224252378397" lon="11.66840779433281"><ele>1388.0</ele><time>2026-05-02T09:43:45.48Z</time></trkpt><trkpt lat="46.31226711088318" lon="11.668054861267658"><ele>1388.3333333333335</ele><time>2026-05-02T09:43:46.48Z</time></trkpt><trkpt lat="46.31227641959832" lon="11.667718197836496"><ele>1388.6666666666667</ele><time>2026-05-02T09:43:47.48Z</time></trkpt><trkpt lat="46.312272747526386" lon="11.667408115927493"><ele>1389.0</ele><time>2026-05-02T09:43:48.48Z</time></trkpt><trkpt lat="46.31226625045066" lon="11.667117592548717"><ele>1389.3333333333333</ele><time>2026-05-02T09:43:49.48Z</time></trkpt><trkpt lat="46.31227167138304" lon="11.6668288580043"><ele>1389.6666666666665</ele><time>2026-05-02T09:43:50.48Z</time></trkpt><trkpt lat="46.31228490398835" lon="11.666548709595423"><ele>1390.0</ele><time>2026-05-02T09:43:51.48Z</time></trkpt><trkpt lat="46.31229789518101" lon="11.666268308721548"><ele>1388.0</ele><time>2026-05-02T09:43:52.48Z</time></trkpt><trkpt lat="46.31230865362312" lon="11.666019679286048"><ele>1386.0</ele><time>2026-05-02T09:43:53.48Z</time></trkpt><trkpt lat="46.312351999781676" lon="11.665764536886025"><ele>1384.0</ele><time>2026-05-02T09:43:54.48Z</time></trkpt><trkpt lat="46.31240911888589" lon="11.665523396801646"><ele>1381.6666666666665</ele><time>2026-05-02T09:43:55.48Z</time></trkpt><trkpt lat="46.31244612213997" lon="11.665272973894174"><ele>1379.3333333333333</ele><time>2026-05-02T09:43:56.48Z</time></trkpt><trkpt lat="46.31250141450087" lon="11.665029915615893"><ele>1377.0</ele><time>2026-05-02T09:43:57.48Z</time></trkpt><trkpt lat="46.31255117369731" lon="11.664817221031328"><ele>1377.0</ele><time>2026-05-02T09:43:58.48Z</time></trkpt><trkpt lat="46.31259014884053" lon="11.664625682165044"><ele>1377.0</ele><time>2026-05-02T09:43:59.48Z</time></trkpt><trkpt lat="46.312621873621424" lon="11.664445484571411"><ele>1377.0</ele><time>2026-05-02T09:44:00.48Z</time></trkpt><trkpt lat="46.312650696329605" lon="11.664258155640896"><ele>1377.0</ele><time>2026-05-02T09:44:01.48Z</time></trkpt><trkpt lat="46.31268536516473" lon="11.6640687204228"><ele>1376.5</ele><time>2026-05-02T09:44:02.48Z</time></trkpt><trkpt lat="46.31272616614771" lon="11.663875322512814"><ele>1376.0</ele><time>2026-05-02T09:44:03.48Z</time></trkpt><trkpt lat="46.31277927018244" lon="11.66367713954844"><ele>1375.5</ele><time>2026-05-02T09:44:04.48Z</time></trkpt><trkpt lat="46.3128114809139" lon="11.663470895736179"><ele>1375.0</ele><time>2026-05-02T09:44:05.48Z</time></trkpt><trkpt lat="46.31285867787554" lon="11.66327117586936"><ele>1373.5</ele><time>2026-05-02T09:44:06.48Z</time></trkpt><trkpt lat="46.31291364566237" lon="11.66306874392535"><ele>1372.0</ele><time>2026-05-02T09:44:07.48Z</time></trkpt><trkpt lat="46.3129712102185" lon="11.662862650697164"><ele>1370.5</ele><time>2026-05-02T09:44:08.48Z</time></trkpt><trkpt lat="46.31302732398326" lon="11.662669829479267"><ele>1369.0</ele><time>2026-05-02T09:44:09.48Z</time></trkpt><trkpt lat="46.31307493545702" lon="11.662469044193264"><ele>1369.0</ele><time>2026-05-02T09:44:10.48Z</time></trkpt><trkpt lat="46.313125754571075" lon="11.662281613106803"><ele>1369.0</ele><time>2026-05-02T09:44:11.48Z</time></trkpt><trkpt lat="46.313195059538124" lon="11.662094892551966"><ele>1369.0</ele><time>2026-05-02T09:44:12.48Z</time></trkpt><trkpt lat="46.31325009344427" lon="11.66192109024199"><ele>1369.0</ele><time>2026-05-02T09:44:13.48Z</time></trkpt><trkpt lat="46.31330939884903" lon="11.661738983463577"><ele>1368.0</ele><time>2026-05-02T09:44:14.48Z</time></trkpt><trkpt lat="46.313367127421465" lon="11.661561718550603"><ele>1367.0</ele><time>2026-05-02T09:44:15.48Z</time></trkpt><trkpt lat="46.313423368460406" lon="11.661389022336795"><ele>1366.0</ele><time>2026-05-02T09:44:16.48Z</time></trkpt><trkpt lat="46.31348014886958" lon="11.66121513634491"><ele>1365.0</ele><time>2026-05-02T09:44:17.48Z</time></trkpt><trkpt lat="46.313541945201756" lon="11.661026442390755"><ele>1362.6666666666667</ele><time>2026-05-02T09:44:18.48Z</time></trkpt><trkpt lat="46.313595314029286" lon="11.660817992438659"><ele>1360.3333333333335</ele><time>2026-05-02T09:44:19.48Z</time></trkpt><trkpt lat="46.3136559086331" lon="11.660626483190715"><ele>1358.0</ele><time>2026-05-02T09:44:20.48Z</time></trkpt><trkpt lat="46.31374148990108" lon="11.66041427349877"><ele>1356.0</ele><time>2026-05-02T09:44:21.48Z</time></trkpt><trkpt lat="46.313807536422786" lon="11.660210219986704"><ele>1354.0</ele><time>2026-05-02T09:44:22.48Z</time></trkpt><trkpt lat="46.31387492539059" lon="11.660008017330483"><ele>1352.0</ele><time>2026-05-02T09:44:23.48Z</time></trkpt><trkpt lat="46.31395235392317" lon="11.659823429568437"><ele>1351.6666666666667</ele><time>2026-05-02T09:44:24.48Z</time></trkpt><trkpt lat="46.31405446776467" lon="11.659632301964992"><ele>1351.3333333333333</ele><time>2026-05-02T09:44:25.48Z</time></trkpt><trkpt lat="46.31415031935618" lon="11.659439433156477"><ele>1351.0</ele><time>2026-05-02T09:44:26.48Z</time></trkpt><trkpt lat="46.31429248272109" lon="11.659249681671955"><ele>1348.0</ele><time>2026-05-02T09:44:27.48Z</time></trkpt><trkpt lat="46.314451507561714" lon="11.659063836998316"><ele>1345.0</ele><time>2026-05-02T09:44:28.48Z</time></trkpt><trkpt lat="46.31456944214086" lon="11.65887634782174"><ele>1342.0</ele><time>2026-05-02T09:44:29.48Z</time></trkpt><trkpt lat="46.314667158462484" lon="11.65869345055282"><ele>1339.3333333333333</ele><time>2026-05-02T09:44:30.48Z</time></trkpt><trkpt lat="46.31478152544424" lon="11.658524758992506"><ele>1336.6666666666667</ele><time>2026-05-02T09:44:31.48Z</time></trkpt><trkpt lat="46.314870779643826" lon="11.658323463508337"><ele>1334.0</ele><time>2026-05-02T09:44:32.48Z</time></trkpt><trkpt lat="46.314955157268386" lon="11.658105453344206"><ele>1334.0</ele><time>2026-05-02T09:44:33.48Z</time></trkpt><trkpt lat="46.31501777102344" lon="11.657838400793858"><ele>1334.0</ele><time>2026-05-02T09:44:34.48Z</time></trkpt><trkpt lat="46.3150589494507" lon="11.657603877241375"><ele>1334.0</ele><time>2026-05-02T09:44:35.48Z</time></trkpt><trkpt lat="46.315117458531994" lon="11.657371612818078"><ele>1332.0</ele><time>2026-05-02T09:44:36.48Z</time></trkpt><trkpt lat="46.31519875596333" lon="11.657145626812072"><ele>1330.0</ele><time>2026-05-02T09:44:37.48Z</time></trkpt><trkpt lat="46.315276028838845" lon="11.656925382551941"><ele>1328.0</ele><time>2026-05-02T09:44:38.48Z</time></trkpt><trkpt lat="46.315358412389074" lon="11.656698529229304"><ele>1326.0</ele><time>2026-05-02T09:44:39.48Z</time></trkpt><trkpt lat="46.31546603720592" lon="11.656488295352618"><ele>1324.0</ele><time>2026-05-02T09:44:40.48Z</time></trkpt><trkpt lat="46.315550615123215" lon="11.656257289203197"><ele>1322.0</ele><time>2026-05-02T09:44:41.48Z</time></trkpt><trkpt lat="46.315630638447246" lon="11.656021588246425"><ele>1321.6666666666667</ele><time>2026-05-02T09:44:42.48Z</time></trkpt><trkpt lat="46.315720159599664" lon="11.655797110616499"><ele>1321.3333333333333</ele><time>2026-05-02T09:44:43.48Z</time></trkpt><trkpt lat="46.315817995172814" lon="11.655577355129134"><ele>1321.0</ele><time>2026-05-02T09:44:44.48Z</time></trkpt><trkpt lat="46.315919529095844" lon="11.65536729831122"><ele>1318.0</ele><time>2026-05-02T09:44:45.48Z</time></trkpt><trkpt lat="46.316044879271374" lon="11.655154021903794"><ele>1315.0</ele><time>2026-05-02T09:44:46.48Z</time></trkpt><trkpt lat="46.316178314122666" lon="11.654941957961013"><ele>1312.0</ele><time>2026-05-02T09:44:47.48Z</time></trkpt><trkpt lat="46.31631289784967" lon="11.65474950933923"><ele>1313.6666666666665</ele><time>2026-05-02T09:44:48.48Z</time></trkpt><trkpt lat="46.316432808344295" lon="11.654568248018387"><ele>1315.3333333333333</ele><time>2026-05-02T09:44:49.48Z</time></trkpt><trkpt lat="46.31655341903058" lon="11.654369398738512"><ele>1317.0</ele><time>2026-05-02T09:44:50.48Z</time></trkpt><trkpt lat="46.316666397759334" lon="11.654180223284147"><ele>1313.6666666666667</ele><time>2026-05-02T09:44:51.48Z</time></trkpt><trkpt lat="46.316787494671914" lon="11.654006448638327"><ele>1310.3333333333335</ele><time>2026-05-02T09:44:52.48Z</time></trkpt><trkpt lat="46.31691492608679" lon="11.653833460177509"><ele>1307.0</ele><time>2026-05-02T09:44:53.48Z</time></trkpt><trkpt lat="46.31699642009159" lon="11.65365289591713"><ele>1302.6666666666667</ele><time>2026-05-02T09:44:54.48Z</time></trkpt><trkpt lat="46.31706554887023" lon="11.653461286255016"><ele>1298.3333333333333</ele><time>2026-05-02T09:44:55.48Z</time></trkpt><trkpt lat="46.31708987206521" lon="11.653244916951495"><ele>1294.0</ele><time>2026-05-02T09:44:56.48Z</time></trkpt><trkpt lat="46.31710644185841" lon="11.653021355962025"><ele>1289.3333333333333</ele><time>2026-05-02T09:44:57.48Z</time></trkpt><trkpt lat="46.3170960554866" lon="11.652784002374526"><ele>1284.6666666666667</ele><time>2026-05-02T09:44:58.48Z</time></trkpt><trkpt lat="46.31706576821088" lon="11.652549740966471"><ele>1280.0</ele><time>2026-05-02T09:44:59.48Z</time></trkpt><trkpt lat="46.31707051302391" lon="11.652350218892233"><ele>1280.0</ele><time>2026-05-02T09:45:00.48Z</time></trkpt><trkpt lat="46.31710997156918" lon="11.652114666618097"><ele>1280.0</ele><time>2026-05-02T09:45:01.48Z</time></trkpt><trkpt lat="46.31720211304441" lon="11.651853365851508"><ele>1280.0</ele><time>2026-05-02T09:45:02.48Z</time></trkpt><trkpt lat="46.317267097953774" lon="11.651564119351836"><ele>1282.0</ele><time>2026-05-02T09:45:03.48Z</time></trkpt><trkpt lat="46.317297603082615" lon="11.651271389829324"><ele>1284.0</ele><time>2026-05-02T09:45:04.48Z</time></trkpt><trkpt lat="46.3173074210902" lon="11.651004158955683"><ele>1286.0</ele><time>2026-05-02T09:45:05.48Z</time></trkpt><trkpt lat="46.31731691449409" lon="11.650740123748598"><ele>1286.0</ele><time>2026-05-02T09:45:06.48Z</time></trkpt><trkpt lat="46.31732725998317" lon="11.650493656388258"><ele>1286.0</ele><time>2026-05-02T09:45:07.48Z</time></trkpt><trkpt lat="46.31733721691292" lon="11.650256442745533"><ele>1286.0</ele><time>2026-05-02T09:45:08.48Z</time></trkpt><trkpt lat="46.317346964659" lon="11.65003032918607"><ele>1287.0</ele><time>2026-05-02T09:45:09.48Z</time></trkpt><trkpt lat="46.31735707882852" lon="11.649829483557763"><ele>1288.0</ele><time>2026-05-02T09:45:10.48Z</time></trkpt><trkpt lat="46.3173667262376" lon="11.6496504066654"><ele>1289.0</ele><time>2026-05-02T09:45:11.48Z</time></trkpt><trkpt lat="46.317370426505484" lon="11.649529088299701"><ele>1290.0</ele><time>2026-05-02T09:45:12.48Z</time></trkpt><trkpt lat="46.31734543458445" lon="11.649373080744532"><ele>1283.75</ele><time>2026-05-02T09:45:13.48Z</time></trkpt><trkpt lat="46.317230812153646" lon="11.649267149645711"><ele>1277.5</ele><time>2026-05-02T09:45:14.48Z</time></trkpt><trkpt lat="46.31716967266194" lon="11.649332188394897"><ele>1271.25</ele><time>2026-05-02T09:45:15.48Z</time></trkpt><trkpt lat="46.31710410447127" lon="11.64944714739297"><ele>1265.0</ele><time>2026-05-02T09:45:16.48Z</time></trkpt><trkpt lat="46.31704100520688" lon="11.649647250479324"><ele>1264.6666666666667</ele><time>2026-05-02T09:45:17.48Z</time></trkpt><trkpt lat="46.31699791374535" lon="11.649864942786756"><ele>1264.3333333333333</ele><time>2026-05-02T09:45:18.48Z</time></trkpt><trkpt lat="46.31690911735524" lon="11.65008565052913"><ele>1264.0</ele><time>2026-05-02T09:45:19.48Z</time></trkpt><trkpt lat="46.316811517375314" lon="11.650233101449366"><ele>1265.0</ele><time>2026-05-02T09:45:20.48Z</time></trkpt><trkpt lat="46.31670155013452" lon="11.65039254963514"><ele>1266.0</ele><time>2026-05-02T09:45:21.48Z</time></trkpt><trkpt lat="46.31656879595811" lon="11.650512648240783"><ele>1267.0</ele><time>2026-05-02T09:45:22.48Z</time></trkpt><trkpt lat="46.31642474272535" lon="11.650585180861379"><ele>1262.5</ele><time>2026-05-02T09:45:23.48Z</time></trkpt><trkpt lat="46.31631144183275" lon="11.650667255982079"><ele>1258.0</ele><time>2026-05-02T09:45:24.48Z</time></trkpt><trkpt lat="46.31623138912477" lon="11.65078633419418"><ele>1253.5</ele><time>2026-05-02T09:45:25.48Z</time></trkpt><trkpt lat="46.31617981876472" lon="11.650927660443813"><ele>1249.0</ele><time>2026-05-02T09:45:26.48Z</time></trkpt><trkpt lat="46.31614795261523" lon="11.65108858556689"><ele>1251.0</ele><time>2026-05-02T09:45:27.48Z</time></trkpt><trkpt lat="46.31614815219729" lon="11.651242972512378"><ele>1253.0</ele><time>2026-05-02T09:45:28.48Z</time></trkpt><trkpt lat="46.31614263205839" lon="11.651362980196602"><ele>1255.0</ele><time>2026-05-02T09:45:29.48Z</time></trkpt><trkpt lat="46.316039088513925" lon="11.65141647873017"><ele>1257.0</ele><time>2026-05-02T09:45:31.48Z</time></trkpt><trkpt lat="46.31598124490544" lon="11.651332490128476"><ele>1259.0</ele><time>2026-05-02T09:45:32.48Z</time></trkpt><trkpt lat="46.3159763332911" lon="11.651163358500552"><ele>1255.6666666666667</ele><time>2026-05-02T09:45:33.48Z</time></trkpt><trkpt lat="46.31595228614531" lon="11.650944935096149"><ele>1252.3333333333333</ele><time>2026-05-02T09:45:34.48Z</time></trkpt><trkpt lat="46.315950551095156" lon="11.650726786392095"><ele>1249.0</ele><time>2026-05-02T09:45:35.48Z</time></trkpt><trkpt lat="46.315946839789895" lon="11.650493048403153"><ele>1247.6666666666665</ele><time>2026-05-02T09:45:36.48Z</time></trkpt><trkpt lat="46.31597751707229" lon="11.650288702104405"><ele>1246.3333333333333</ele><time>2026-05-02T09:45:37.48Z</time></trkpt><trkpt lat="46.31603745821838" lon="11.650016808795456"><ele>1245.0</ele><time>2026-05-02T09:45:38.48Z</time></trkpt><trkpt lat="46.31609522264181" lon="11.649759015883141"><ele>1245.0</ele><time>2026-05-02T09:45:39.48Z</time></trkpt><trkpt lat="46.31614914907372" lon="11.649527225823974"><ele>1245.0</ele><time>2026-05-02T09:45:40.48Z</time></trkpt><trkpt lat="46.316198707553774" lon="11.649307539991389"><ele>1245.0</ele><time>2026-05-02T09:45:41.48Z</time></trkpt><trkpt lat="46.31624056537314" lon="11.649118645611123"><ele>1242.3333333333333</ele><time>2026-05-02T09:45:42.48Z</time></trkpt><trkpt lat="46.316270341592585" lon="11.648858499005385"><ele>1239.6666666666665</ele><time>2026-05-02T09:45:43.48Z</time></trkpt><trkpt lat="46.31623450835882" lon="11.648639496593185"><ele>1237.0</ele><time>2026-05-02T09:45:44.48Z</time></trkpt><trkpt lat="46.31618761634338" lon="11.648444798107153"><ele>1235.8</ele><time>2026-05-02T09:45:45.48Z</time></trkpt><trkpt lat="46.31615359086783" lon="11.648290394595099"><ele>1234.6</ele><time>2026-05-02T09:45:46.48Z</time></trkpt><trkpt lat="46.31613641258457" lon="11.648142854982654"><ele>1233.3999999999999</ele><time>2026-05-02T09:45:47.48Z</time></trkpt><trkpt lat="46.31614813114414" lon="11.648003617912453"><ele>1232.2</ele><time>2026-05-02T09:45:48.48Z</time></trkpt><trkpt lat="46.316186698749526" lon="11.647919312273485"><ele>1231.0</ele><time>2026-05-02T09:45:49.48Z</time></trkpt><trkpt lat="46.31622956694275" lon="11.647811673421552"><ele>1231.2</ele><time>2026-05-02T09:45:50.48Z</time></trkpt><trkpt lat="46.316271158565186" lon="11.647708005906809"><ele>1231.3999999999999</ele><time>2026-05-02T09:45:51.48Z</time></trkpt><trkpt lat="46.31629143982105" lon="11.647584863962942"><ele>1231.6</ele><time>2026-05-02T09:45:52.48Z</time></trkpt><trkpt lat="46.31624445968755" lon="11.647444488856939"><ele>1231.8</ele><time>2026-05-02T09:45:53.48Z</time></trkpt><trkpt lat="46.316081941277524" lon="11.647448785494825"><ele>1232.0</ele><time>2026-05-02T09:45:54.48Z</time></trkpt><trkpt lat="46.31603561669932" lon="11.647633386917416"><ele>1232.0</ele><time>2026-05-02T09:45:55.481Z</time></trkpt><trkpt lat="46.31599118978059" lon="11.647766519362097"><ele>1232.0</ele><time>2026-05-02T09:45:56.481Z</time></trkpt><trkpt lat="46.31593054694768" lon="11.647908780119389"><ele>1232.0</ele><time>2026-05-02T09:45:57.481Z</time></trkpt><trkpt lat="46.31587708520698" lon="11.64804571134353"><ele>1232.0</ele><time>2026-05-02T09:45:58.481Z</time></trkpt><trkpt lat="46.315794157350986" lon="11.648197906722986"><ele>1231.75</ele><time>2026-05-02T09:45:59.481Z</time></trkpt><trkpt lat="46.315684671940176" lon="11.64833051609666"><ele>1231.5</ele><time>2026-05-02T09:46:00.481Z</time></trkpt><trkpt lat="46.31556342459694" lon="11.6484292448635"><ele>1231.25</ele><time>2026-05-02T09:46:01.481Z</time></trkpt><trkpt lat="46.315442931208594" lon="11.648509145158384"><ele>1231.0</ele><time>2026-05-02T09:46:02.481Z</time></trkpt><trkpt lat="46.31532891134038" lon="11.64860117024959"><ele>1229.0</ele><time>2026-05-02T09:46:03.481Z</time></trkpt><trkpt lat="46.315219736412374" lon="11.648694284104183"><ele>1227.0</ele><time>2026-05-02T09:46:04.481Z</time></trkpt><trkpt lat="46.31510958326257" lon="11.648790861622775"><ele>1225.0</ele><time>2026-05-02T09:46:05.481Z</time></trkpt><trkpt lat="46.315003583493116" lon="11.648902645965185"><ele>1223.0</ele><time>2026-05-02T09:46:06.481Z</time></trkpt><trkpt lat="46.31489548682243" lon="11.649003741844256"><ele>1223.0</ele><time>2026-05-02T09:46:07.481Z</time></trkpt><trkpt lat="46.31479005061438" lon="11.649118586924907"><ele>1223.0</ele><time>2026-05-02T09:46:08.481Z</time></trkpt><trkpt lat="46.31469161936801" lon="11.649230277786947"><ele>1223.0</ele><time>2026-05-02T09:46:09.481Z</time></trkpt><trkpt lat="46.314597653499824" lon="11.649338837926463"><ele>1223.0</ele><time>2026-05-02T09:46:10.481Z</time></trkpt><trkpt lat="46.31450630382922" lon="11.649433282460105"><ele>1222.5</ele><time>2026-05-02T09:46:11.481Z</time></trkpt><trkpt lat="46.314431020150714" lon="11.649521509742565"><ele>1222.0</ele><time>2026-05-02T09:46:12.481Z</time></trkpt><trkpt lat="46.31436646902347" lon="11.649576505847621"><ele>1221.5</ele><time>2026-05-02T09:46:13.481Z</time></trkpt><trkpt lat="46.31430211916448" lon="11.64957103177964"><ele>1221.0</ele><time>2026-05-02T09:46:14.481Z</time></trkpt><trkpt lat="46.31424646933333" lon="11.649512254109748"><ele>1220.5</ele><time>2026-05-02T09:46:15.481Z</time></trkpt><trkpt lat="46.31422666058822" lon="11.649394608353028"><ele>1220.0</ele><time>2026-05-02T09:46:16.481Z</time></trkpt><trkpt lat="46.3142949938712" lon="11.649322519141453"><ele>1220.0</ele><time>2026-05-02T09:46:17.481Z</time></trkpt><trkpt lat="46.314353765296694" lon="11.649219189245528"><ele>1220.0</ele><time>2026-05-02T09:46:18.481Z</time></trkpt><trkpt lat="46.31443427337572" lon="11.64908271107339"><ele>1220.0</ele><time>2026-05-02T09:46:19.481Z</time></trkpt><trkpt lat="46.31449463327492" lon="11.648949852356017"><ele>1220.0</ele><time>2026-05-02T09:46:20.481Z</time></trkpt><trkpt lat="46.31455523820615" lon="11.648785823347515"><ele>1217.75</ele><time>2026-05-02T09:46:21.481Z</time></trkpt><trkpt lat="46.31455383727931" lon="11.648605836289473"><ele>1215.5</ele><time>2026-05-02T09:46:22.481Z</time></trkpt><trkpt lat="46.314533826279785" lon="11.648432152276662"><ele>1213.25</ele><time>2026-05-02T09:46:23.481Z</time></trkpt><trkpt lat="46.31452811090472" lon="11.648288498722206"><ele>1211.0</ele><time>2026-05-02T09:46:24.481Z</time></trkpt><trkpt lat="46.31452727502823" lon="11.648112758904434"><ele>1211.0</ele><time>2026-05-02T09:46:25.481Z</time></trkpt><trkpt lat="46.31451177403038" lon="11.647925104324706"><ele>1211.0</ele><time>2026-05-02T09:46:26.481Z</time></trkpt><trkpt lat="46.314530109093006" lon="11.647740528426644"><ele>1211.0</ele><time>2026-05-02T09:46:27.481Z</time></trkpt><trkpt lat="46.31455309584697" lon="11.647570181070334"><ele>1211.0</ele><time>2026-05-02T09:46:28.481Z</time></trkpt><trkpt lat="46.314585440790054" lon="11.647396204981389"><ele>1209.75</ele><time>2026-05-02T09:46:29.481Z</time></trkpt><trkpt lat="46.31459271597885" lon="11.647209505067533"><ele>1208.5</ele><time>2026-05-02T09:46:30.481Z</time></trkpt><trkpt lat="46.314581919063876" lon="11.64704380490137"><ele>1207.25</ele><time>2026-05-02T09:46:31.481Z</time></trkpt><trkpt lat="46.314553438947215" lon="11.646860625884665"><ele>1206.0</ele><time>2026-05-02T09:46:32.481Z</time></trkpt><trkpt lat="46.31449398358097" lon="11.646674909876152"><ele>1204.25</ele><time>2026-05-02T09:46:33.481Z</time></trkpt><trkpt lat="46.31439390384938" lon="11.646505398360024"><ele>1202.5</ele><time>2026-05-02T09:46:34.481Z</time></trkpt><trkpt lat="46.314317132764536" lon="11.646337362225776"><ele>1200.75</ele><time>2026-05-02T09:46:35.481Z</time></trkpt><trkpt lat="46.31426287819917" lon="11.646153940049446"><ele>1199.0</ele><time>2026-05-02T09:46:36.481Z</time></trkpt><trkpt lat="46.31424796197739" lon="11.645969531011708"><ele>1197.3333333333335</ele><time>2026-05-02T09:46:37.481Z</time></trkpt><trkpt lat="46.31423412753608" lon="11.645758853497528"><ele>1195.6666666666667</ele><time>2026-05-02T09:46:38.481Z</time></trkpt><trkpt lat="46.31425836938461" lon="11.645514454201235"><ele>1194.0</ele><time>2026-05-02T09:46:39.481Z</time></trkpt><trkpt lat="46.314275042305695" lon="11.645295810431437"><ele>1193.3333333333333</ele><time>2026-05-02T09:46:40.481Z</time></trkpt><trkpt lat="46.3142563040589" lon="11.645052110632697"><ele>1192.6666666666665</ele><time>2026-05-02T09:46:41.481Z</time></trkpt><trkpt lat="46.31418384827523" lon="11.644799077731452"><ele>1192.0</ele><time>2026-05-02T09:46:42.481Z</time></trkpt><trkpt lat="46.31410285208167" lon="11.64456745744835"><ele>1193.6666666666665</ele><time>2026-05-02T09:46:43.481Z</time></trkpt><trkpt lat="46.31400356545239" lon="11.644304045037368"><ele>1195.3333333333333</ele><time>2026-05-02T09:46:44.481Z</time></trkpt><trkpt lat="46.31391539746761" lon="11.644070085330325"><ele>1197.0</ele><time>2026-05-02T09:46:45.481Z</time></trkpt><trkpt lat="46.31382723627585" lon="11.64384013280082"><ele>1190.0</ele><time>2026-05-02T09:46:46.481Z</time></trkpt><trkpt lat="46.3137331749847" lon="11.643617248985581"><ele>1183.0</ele><time>2026-05-02T09:46:47.481Z</time></trkpt><trkpt lat="46.31361989833552" lon="11.643404612732722"><ele>1176.0</ele><time>2026-05-02T09:46:48.481Z</time></trkpt><trkpt lat="46.31349363102457" lon="11.643197331772521"><ele>1176.0</ele><time>2026-05-02T09:46:49.481Z</time></trkpt><trkpt lat="46.313364730721894" lon="11.643002266095317"><ele>1176.0</ele><time>2026-05-02T09:46:50.481Z</time></trkpt><trkpt lat="46.313239065411565" lon="11.64281485504165"><ele>1176.0</ele><time>2026-05-02T09:46:51.481Z</time></trkpt><trkpt lat="46.31312518727054" lon="11.642638344002425"><ele>1171.75</ele><time>2026-05-02T09:46:52.481Z</time></trkpt><trkpt lat="46.313028168592744" lon="11.642473096850502"><ele>1167.5</ele><time>2026-05-02T09:46:53.481Z</time></trkpt><trkpt lat="46.31294555195412" lon="11.642296408883535"><ele>1163.25</ele><time>2026-05-02T09:46:54.481Z</time></trkpt><trkpt lat="46.312882962571486" lon="11.642103357881096"><ele>1159.0</ele><time>2026-05-02T09:46:55.481Z</time></trkpt><trkpt lat="46.31283968579287" lon="11.641906920156702"><ele>1159.0</ele><time>2026-05-02T09:46:56.481Z</time></trkpt><trkpt lat="46.312813318676845" lon="11.641700706703256"><ele>1159.0</ele><time>2026-05-02T09:46:57.481Z</time></trkpt><trkpt lat="46.31280157420816" lon="11.641458948910197"><ele>1159.0</ele><time>2026-05-02T09:46:58.481Z</time></trkpt><trkpt lat="46.31279293505485" lon="11.64119614562457"><ele>1160.0</ele><time>2026-05-02T09:46:59.481Z</time></trkpt><trkpt lat="46.31277556323152" lon="11.640950741356818"><ele>1161.0</ele><time>2026-05-02T09:47:00.481Z</time></trkpt><trkpt lat="46.31278496089346" lon="11.640710203615122"><ele>1162.0</ele><time>2026-05-02T09:47:01.481Z</time></trkpt><trkpt lat="46.312768733880155" lon="11.640474279502738"><ele>1159.6666666666665</ele><time>2026-05-02T09:47:02.481Z</time></trkpt><trkpt lat="46.31277804226015" lon="11.640243270610375"><ele>1157.3333333333333</ele><time>2026-05-02T09:47:03.481Z</time></trkpt><trkpt lat="46.31276308437263" lon="11.64000231552387"><ele>1155.0</ele><time>2026-05-02T09:47:04.481Z</time></trkpt><trkpt lat="46.3127516315867" lon="11.639750940004557"><ele>1155.0</ele><time>2026-05-02T09:47:05.481Z</time></trkpt><trkpt lat="46.31273072532627" lon="11.639492005350954"><ele>1155.0</ele><time>2026-05-02T09:47:06.481Z</time></trkpt><trkpt lat="46.312747524987664" lon="11.639257361199594"><ele>1155.0</ele><time>2026-05-02T09:47:07.481Z</time></trkpt><trkpt lat="46.31274998464893" lon="11.639023941622574"><ele>1154.3333333333333</ele><time>2026-05-02T09:47:08.481Z</time></trkpt><trkpt lat="46.31273961368593" lon="11.63879222748121"><ele>1153.6666666666665</ele><time>2026-05-02T09:47:09.481Z</time></trkpt><trkpt lat="46.31273824869198" lon="11.638579154627154"><ele>1153.0</ele><time>2026-05-02T09:47:10.481Z</time></trkpt><trkpt lat="46.31269287586714" lon="11.638374025165367"><ele>1154.25</ele><time>2026-05-02T09:47:11.481Z</time></trkpt><trkpt lat="46.31262168173018" lon="11.638189521763403"><ele>1155.5</ele><time>2026-05-02T09:47:12.481Z</time></trkpt><trkpt lat="46.312536336928886" lon="11.63802854007518"><ele>1156.75</ele><time>2026-05-02T09:47:13.481Z</time></trkpt><trkpt lat="46.312441724896054" lon="11.637886990696767"><ele>1158.0</ele><time>2026-05-02T09:47:14.481Z</time></trkpt><trkpt lat="46.31238280007697" lon="11.637714578277622"><ele>1158.5</ele><time>2026-05-02T09:47:15.481Z</time></trkpt><trkpt lat="46.31235282047066" lon="11.637532570081069"><ele>1159.0</ele><time>2026-05-02T09:47:16.481Z</time></trkpt><trkpt lat="46.31235061451065" lon="11.637346935099751"><ele>1159.5</ele><time>2026-05-02T09:47:17.481Z</time></trkpt><trkpt lat="46.31237446848237" lon="11.637168398794607"><ele>1160.0</ele><time>2026-05-02T09:47:18.481Z</time></trkpt><trkpt lat="46.31242913810604" lon="11.636963891856684"><ele>1157.6666666666667</ele><time>2026-05-02T09:47:19.481Z</time></trkpt><trkpt lat="46.31248307304725" lon="11.636766669963972"><ele>1155.3333333333333</ele><time>2026-05-02T09:47:20.481Z</time></trkpt><trkpt lat="46.31250256916331" lon="11.636527764654014"><ele>1153.0</ele><time>2026-05-02T09:47:21.481Z</time></trkpt><trkpt lat="46.31250161472273" lon="11.63626967880631"><ele>1153.0</ele><time>2026-05-02T09:47:22.481Z</time></trkpt><trkpt lat="46.312460064015866" lon="11.63603772991289"><ele>1153.0</ele><time>2026-05-02T09:47:23.481Z</time></trkpt><trkpt lat="46.312465547291836" lon="11.635803134324728"><ele>1153.0</ele><time>2026-05-02T09:47:24.481Z</time></trkpt><trkpt lat="46.31249847851013" lon="11.635540064221924"><ele>1153.0</ele><time>2026-05-02T09:47:25.481Z</time></trkpt><trkpt lat="46.312554689162134" lon="11.63524721345132"><ele>1153.0</ele><time>2026-05-02T09:47:26.481Z</time></trkpt><trkpt lat="46.312523124837426" lon="11.634910823908818"><ele>1153.0</ele><time>2026-05-02T09:47:27.481Z</time></trkpt><trkpt lat="46.31252011037975" lon="11.634588896682923"><ele>1150.0</ele><time>2026-05-02T09:47:28.481Z</time></trkpt><trkpt lat="46.31251160824392" lon="11.63428424257562"><ele>1147.0</ele><time>2026-05-02T09:47:29.481Z</time></trkpt><trkpt lat="46.31250737154611" lon="11.633989959284747"><ele>1144.0</ele><time>2026-05-02T09:47:30.481Z</time></trkpt><trkpt lat="46.31251518414896" lon="11.633701562469668"><ele>1140.6666666666665</ele><time>2026-05-02T09:47:31.481Z</time></trkpt><trkpt lat="46.31254181369181" lon="11.633435423014639"><ele>1137.3333333333333</ele><time>2026-05-02T09:47:32.481Z</time></trkpt><trkpt lat="46.31258445899859" lon="11.633168501594817"><ele>1134.0</ele><time>2026-05-02T09:47:33.481Z</time></trkpt><trkpt lat="46.31259034012093" lon="11.632897349960524"><ele>1132.3333333333333</ele><time>2026-05-02T09:47:34.481Z</time></trkpt><trkpt lat="46.31256496089638" lon="11.632605846598866"><ele>1130.6666666666665</ele><time>2026-05-02T09:47:35.481Z</time></trkpt><trkpt lat="46.31253180421912" lon="11.632291555893268"><ele>1129.0</ele><time>2026-05-02T09:47:36.481Z</time></trkpt><trkpt lat="46.3124977887972" lon="11.63197788977072"><ele>1126.0</ele><time>2026-05-02T09:47:37.481Z</time></trkpt><trkpt lat="46.312466823274995" lon="11.631693801274073"><ele>1123.0</ele><time>2026-05-02T09:47:38.481Z</time></trkpt><trkpt lat="46.3124359053418" lon="11.631408673437596"><ele>1120.0</ele><time>2026-05-02T09:47:39.481Z</time></trkpt><trkpt lat="46.31240903730418" lon="11.631160894248344"><ele>1123.6666666666665</ele><time>2026-05-02T09:47:40.481Z</time></trkpt><trkpt lat="46.31237177049258" lon="11.630934176428426"><ele>1127.3333333333333</ele><time>2026-05-02T09:47:41.481Z</time></trkpt><trkpt lat="46.31229971355632" lon="11.630721716183968"><ele>1131.0</ele><time>2026-05-02T09:47:42.481Z</time></trkpt><trkpt lat="46.31219048206823" lon="11.630542786076841"><ele>1123.5</ele><time>2026-05-02T09:47:43.481Z</time></trkpt><trkpt lat="46.312081640847644" lon="11.630395920983952"><ele>1116.0</ele><time>2026-05-02T09:47:44.481Z</time></trkpt><trkpt lat="46.31196661256175" lon="11.630283591070922"><ele>1108.5</ele><time>2026-05-02T09:47:45.481Z</time></trkpt><trkpt lat="46.31186045950216" lon="11.630159670992139"><ele>1101.0</ele><time>2026-05-02T09:47:46.481Z</time></trkpt><trkpt lat="46.311790886597706" lon="11.629989220895826"><ele>1101.0</ele><time>2026-05-02T09:47:47.481Z</time></trkpt><trkpt lat="46.31173768759963" lon="11.629805342338384"><ele>1101.0</ele><time>2026-05-02T09:47:48.481Z</time></trkpt><trkpt lat="46.31170452383695" lon="11.629588021721537"><ele>1101.0</ele><time>2026-05-02T09:47:49.481Z</time></trkpt><trkpt lat="46.31169410575914" lon="11.629332812719584"><ele>1103.3333333333333</ele><time>2026-05-02T09:47:50.481Z</time></trkpt><trkpt lat="46.31168405351224" lon="11.629069937863724"><ele>1105.6666666666665</ele><time>2026-05-02T09:47:51.481Z</time></trkpt><trkpt lat="46.311665350519284" lon="11.628836185243365"><ele>1108.0</ele><time>2026-05-02T09:47:52.481Z</time></trkpt><trkpt lat="46.311646778816105" lon="11.628585211771282"><ele>1108.0</ele><time>2026-05-02T09:47:53.481Z</time></trkpt><trkpt lat="46.31161373344145" lon="11.62835687783897"><ele>1108.0</ele><time>2026-05-02T09:47:54.481Z</time></trkpt><trkpt lat="46.31157080477532" lon="11.628112918671027"><ele>1108.0</ele><time>2026-05-02T09:47:55.481Z</time></trkpt><trkpt lat="46.311557741676125" lon="11.627852734243472"><ele>1108.0</ele><time>2026-05-02T09:47:56.481Z</time></trkpt><trkpt lat="46.311561458189146" lon="11.627594203149377"><ele>1108.0</ele><time>2026-05-02T09:47:57.481Z</time></trkpt><trkpt lat="46.31155734495847" lon="11.62732979478069"><ele>1108.0</ele><time>2026-05-02T09:47:58.481Z</time></trkpt><trkpt lat="46.311571990553475" lon="11.627047318658944"><ele>1108.6666666666665</ele><time>2026-05-02T09:47:59.481Z</time></trkpt><trkpt lat="46.311589529455176" lon="11.626757065319069"><ele>1109.3333333333333</ele><time>2026-05-02T09:48:00.481Z</time></trkpt><trkpt lat="46.311592635361336" lon="11.626435468230891"><ele>1110.0</ele><time>2026-05-02T09:48:01.481Z</time></trkpt><trkpt lat="46.3115612219853" lon="11.626108523103815"><ele>1110.0</ele><time>2026-05-02T09:48:02.481Z</time></trkpt><trkpt lat="46.311552833153755" lon="11.625794617208454"><ele>1110.0</ele><time>2026-05-02T09:48:03.481Z</time></trkpt><trkpt lat="46.31153452486128" lon="11.625495134272649"><ele>1110.0</ele><time>2026-05-02T09:48:04.481Z</time></trkpt><trkpt lat="46.311514321741036" lon="11.625198749526445"><ele>1108.3333333333333</ele><time>2026-05-02T09:48:05.481Z</time></trkpt><trkpt lat="46.311507807077085" lon="11.624889663736575"><ele>1106.6666666666665</ele><time>2026-05-02T09:48:06.481Z</time></trkpt><trkpt lat="46.31150015134144" lon="11.624587517265585"><ele>1105.0</ele><time>2026-05-02T09:48:07.481Z</time></trkpt><trkpt lat="46.311500664842484" lon="11.624293931231074"><ele>1103.6666666666665</ele><time>2026-05-02T09:48:08.481Z</time></trkpt><trkpt lat="46.311504363747105" lon="11.6239995663998"><ele>1102.3333333333333</ele><time>2026-05-02T09:48:09.481Z</time></trkpt><trkpt lat="46.31150397638588" lon="11.62368544546283"><ele>1101.0</ele><time>2026-05-02T09:48:10.481Z</time></trkpt><trkpt lat="46.31152119309135" lon="11.623405694512197"><ele>1098.0</ele><time>2026-05-02T09:48:11.481Z</time></trkpt><trkpt lat="46.31153713457562" lon="11.623111108921638"><ele>1095.0</ele><time>2026-05-02T09:48:12.481Z</time></trkpt><trkpt lat="46.31158846038328" lon="11.622809594639952"><ele>1092.0</ele><time>2026-05-02T09:48:13.481Z</time></trkpt><trkpt lat="46.31159610126663" lon="11.622531490279098"><ele>1091.0</ele><time>2026-05-02T09:48:14.481Z</time></trkpt><trkpt lat="46.311606133200435" lon="11.62225135506378"><ele>1090.0</ele><time>2026-05-02T09:48:15.481Z</time></trkpt><trkpt lat="46.31155826987079" lon="11.621981125680367"><ele>1089.0</ele><time>2026-05-02T09:48:16.481Z</time></trkpt><trkpt lat="46.31149796571555" lon="11.621699382088494"><ele>1089.0</ele><time>2026-05-02T09:48:17.481Z</time></trkpt><trkpt lat="46.3114537313778" lon="11.621422770710918"><ele>1089.0</ele><time>2026-05-02T09:48:18.481Z</time></trkpt><trkpt lat="46.311390319542724" lon="11.621167033415928"><ele>1089.0</ele><time>2026-05-02T09:48:19.481Z</time></trkpt><trkpt lat="46.311344429446166" lon="11.620903647290527"><ele>1078.3333333333333</ele><time>2026-05-02T09:48:20.481Z</time></trkpt><trkpt lat="46.31126666429667" lon="11.620665067296946"><ele>1067.6666666666665</ele><time>2026-05-02T09:48:21.481Z</time></trkpt><trkpt lat="46.311206818309344" lon="11.620425701200345"><ele>1057.0</ele><time>2026-05-02T09:48:22.481Z</time></trkpt><trkpt lat="46.311143853969924" lon="11.620220631950348"><ele>1057.0</ele><time>2026-05-02T09:48:23.481Z</time></trkpt><trkpt lat="46.31108189425976" lon="11.620013416932293"><ele>1057.0</ele><time>2026-05-02T09:48:24.481Z</time></trkpt><trkpt lat="46.3110726692839" lon="11.619785333352919"><ele>1057.0</ele><time>2026-05-02T09:48:25.481Z</time></trkpt><trkpt lat="46.31110130511067" lon="11.619553605246754"><ele>1055.3333333333333</ele><time>2026-05-02T09:48:26.481Z</time></trkpt><trkpt lat="46.31113259948866" lon="11.619326278522633"><ele>1053.6666666666667</ele><time>2026-05-02T09:48:27.481Z</time></trkpt><trkpt lat="46.31115800734492" lon="11.619079777187828"><ele>1052.0</ele><time>2026-05-02T09:48:28.481Z</time></trkpt><trkpt lat="46.31118120319687" lon="11.618849123169262"><ele>1050.3333333333335</ele><time>2026-05-02T09:48:29.481Z</time></trkpt><trkpt lat="46.31121999377139" lon="11.618624161812509"><ele>1048.6666666666667</ele><time>2026-05-02T09:48:30.481Z</time></trkpt><trkpt lat="46.311261014442664" lon="11.61841619507743"><ele>1047.0</ele><time>2026-05-02T09:48:31.481Z</time></trkpt><trkpt lat="46.311294727735216" lon="11.61819730149988"><ele>1047.0</ele><time>2026-05-02T09:48:32.481Z</time></trkpt><trkpt lat="46.311310863500516" lon="11.617996235451763"><ele>1047.0</ele><time>2026-05-02T09:48:33.481Z</time></trkpt><trkpt lat="46.31134110774569" lon="11.617806736137755"><ele>1047.0</ele><time>2026-05-02T09:48:34.481Z</time></trkpt><trkpt lat="46.31136629717994" lon="11.617619604942673"><ele>1047.0</ele><time>2026-05-02T09:48:35.481Z</time></trkpt><trkpt lat="46.31139436211064" lon="11.617411070463188"><ele>1051.5</ele><time>2026-05-02T09:48:36.481Z</time></trkpt><trkpt lat="46.31141226370862" lon="11.617201834265588"><ele>1056.0</ele><time>2026-05-02T09:48:37.481Z</time></trkpt><trkpt lat="46.31145021973691" lon="11.616996013769928"><ele>1060.5</ele><time>2026-05-02T09:48:38.481Z</time></trkpt><trkpt lat="46.31147737628895" lon="11.61677276608185"><ele>1065.0</ele><time>2026-05-02T09:48:39.481Z</time></trkpt><trkpt lat="46.311507221498815" lon="11.616530608831583"><ele>1065.0</ele><time>2026-05-02T09:48:40.481Z</time></trkpt><trkpt lat="46.31152938706026" lon="11.616305193782082"><ele>1065.0</ele><time>2026-05-02T09:48:41.481Z</time></trkpt><trkpt lat="46.311534240313435" lon="11.616070208471122"><ele>1065.0</ele><time>2026-05-02T09:48:42.481Z</time></trkpt><trkpt lat="46.31153125443806" lon="11.615828070055532"><ele>1065.5</ele><time>2026-05-02T09:48:43.481Z</time></trkpt><trkpt lat="46.31152598197367" lon="11.615608290681791"><ele>1066.0</ele><time>2026-05-02T09:48:44.481Z</time></trkpt><trkpt lat="46.31151933875288" lon="11.615402572335057"><ele>1066.5</ele><time>2026-05-02T09:48:45.481Z</time></trkpt><trkpt lat="46.31151369207341" lon="11.615223534282832"><ele>1067.0</ele><time>2026-05-02T09:48:46.481Z</time></trkpt><trkpt lat="46.311508613071915" lon="11.615055805459312"><ele>1067.0</ele><time>2026-05-02T09:48:47.481Z</time></trkpt><trkpt lat="46.31150362681313" lon="11.614891140240665"><ele>1067.0</ele><time>2026-05-02T09:48:48.481Z</time></trkpt><trkpt lat="46.31149884888102" lon="11.61473335421831"><ele>1067.0</ele><time>2026-05-02T09:48:49.481Z</time></trkpt><trkpt lat="46.311495775689345" lon="11.614631865172658"><ele>1067.0</ele><time>2026-05-02T09:48:50.481Z</time></trkpt><trkpt lat="46.31149069355401" lon="11.614463817590952"><ele>1067.0</ele><time>2026-05-02T09:48:51.481Z</time></trkpt><trkpt lat="46.311485436808894" lon="11.614306279193036"><ele>1066.0</ele><time>2026-05-02T09:48:52.481Z</time></trkpt><trkpt lat="46.311479838579736" lon="11.614132574678655"><ele>1065.0</ele><time>2026-05-02T09:48:53.481Z</time></trkpt><trkpt lat="46.311385398662864" lon="11.613954003904563"><ele>1064.0</ele><time>2026-05-02T09:48:54.481Z</time></trkpt><trkpt lat="46.311380510938186" lon="11.613771704502653"><ele>1063.0</ele><time>2026-05-02T09:48:55.481Z</time></trkpt><trkpt lat="46.311382542192675" lon="11.613588867163012"><ele>1056.25</ele><time>2026-05-02T09:48:56.481Z</time></trkpt><trkpt lat="46.311380505860036" lon="11.613404911809642"><ele>1049.5</ele><time>2026-05-02T09:48:57.481Z</time></trkpt><trkpt lat="46.311357916910545" lon="11.613225659151494"><ele>1042.75</ele><time>2026-05-02T09:48:58.481Z</time></trkpt><trkpt lat="46.31133130115849" lon="11.613049789840911"><ele>1036.0</ele><time>2026-05-02T09:48:59.481Z</time></trkpt><trkpt lat="46.31131235623824" lon="11.612874726369482"><ele>1035.75</ele><time>2026-05-02T09:49:00.481Z</time></trkpt><trkpt lat="46.31134526503167" lon="11.612689103123515"><ele>1035.5</ele><time>2026-05-02T09:49:01.481Z</time></trkpt><trkpt lat="46.311328822736186" lon="11.612509836068991"><ele>1035.25</ele><time>2026-05-02T09:49:02.481Z</time></trkpt><trkpt lat="46.31131893844345" lon="11.612341076744999"><ele>1035.0</ele><time>2026-05-02T09:49:03.481Z</time></trkpt><trkpt lat="46.311309306562535" lon="11.612184450856304"><ele>1035.0</ele><time>2026-05-02T09:49:04.481Z</time></trkpt><trkpt lat="46.311301962070004" lon="11.612044201361607"><ele>1035.0</ele><time>2026-05-02T09:49:05.481Z</time></trkpt><trkpt lat="46.31129532663158" lon="11.611910012113217"><ele>1035.0</ele><time>2026-05-02T09:49:06.481Z</time></trkpt><trkpt lat="46.31129035973505" lon="11.61177576470081"><ele>1035.0</ele><time>2026-05-02T09:49:07.481Z</time></trkpt><trkpt lat="46.31128621178528" lon="11.611642971993598"><ele>1035.0</ele><time>2026-05-02T09:49:08.481Z</time></trkpt><trkpt lat="46.31128239697667" lon="11.611521276333107"><ele>1035.0</ele><time>2026-05-02T09:49:09.481Z</time></trkpt><trkpt lat="46.31127575977443" lon="11.611377535830185"><ele>1035.0</ele><time>2026-05-02T09:49:10.481Z</time></trkpt><trkpt lat="46.31123210373558" lon="11.61122657657573"><ele>1035.0</ele><time>2026-05-02T09:49:11.481Z</time></trkpt><trkpt lat="46.311152957987524" lon="11.611087913197315"><ele>1035.0</ele><time>2026-05-02T09:49:12.481Z</time></trkpt><trkpt lat="46.311083269198605" lon="11.610943202692338"><ele>1034.25</ele><time>2026-05-02T09:49:13.481Z</time></trkpt><trkpt lat="46.31101479990174" lon="11.610789785970265"><ele>1033.5</ele><time>2026-05-02T09:49:14.481Z</time></trkpt><trkpt lat="46.31094163297231" lon="11.610621789365922"><ele>1032.75</ele><time>2026-05-02T09:49:15.481Z</time></trkpt><trkpt lat="46.31088386349255" lon="11.61047789002174"><ele>1032.0</ele><time>2026-05-02T09:49:16.481Z</time></trkpt><trkpt lat="46.310838400153884" lon="11.610324759360205"><ele>1030.75</ele><time>2026-05-02T09:49:17.481Z</time></trkpt><trkpt lat="46.31079764767447" lon="11.610161520254236"><ele>1029.5</ele><time>2026-05-02T09:49:18.481Z</time></trkpt><trkpt lat="46.310755757754194" lon="11.609988053341617"><ele>1028.25</ele><time>2026-05-02T09:49:19.481Z</time></trkpt><trkpt lat="46.310716099127326" lon="11.609823170767335"><ele>1027.0</ele><time>2026-05-02T09:49:20.481Z</time></trkpt><trkpt lat="46.31067690167237" lon="11.609658100667717"><ele>1026.75</ele><time>2026-05-02T09:49:21.481Z</time></trkpt><trkpt lat="46.31063667857595" lon="11.609488710703934"><ele>1026.5</ele><time>2026-05-02T09:49:22.481Z</time></trkpt><trkpt lat="46.31060029915101" lon="11.609335507576162"><ele>1026.25</ele><time>2026-05-02T09:49:23.481Z</time></trkpt><trkpt lat="46.31056135940726" lon="11.60917152218485"><ele>1026.0</ele><time>2026-05-02T09:49:24.481Z</time></trkpt><trkpt lat="46.31052501409786" lon="11.609035473728296"><ele>1025.25</ele><time>2026-05-02T09:49:25.481Z</time></trkpt><trkpt lat="46.31048256208925" lon="11.60888492872497"><ele>1024.5</ele><time>2026-05-02T09:49:26.481Z</time></trkpt><trkpt lat="46.31043270146424" lon="11.60870963551802"><ele>1023.75</ele><time>2026-05-02T09:49:27.481Z</time></trkpt><trkpt lat="46.310370571055714" lon="11.60849104308309"><ele>1023.0</ele><time>2026-05-02T09:49:28.481Z</time></trkpt><trkpt lat="46.310313213908785" lon="11.608289244384528"><ele>1023.0</ele><time>2026-05-02T09:49:29.481Z</time></trkpt><trkpt lat="46.31026217420284" lon="11.608109672092123"><ele>1023.0</ele><time>2026-05-02T09:49:30.481Z</time></trkpt><trkpt lat="46.31020023065912" lon="11.607942642385309"><ele>1023.0</ele><time>2026-05-02T09:49:31.481Z</time></trkpt><trkpt lat="46.31016489934949" lon="11.607772837011849"><ele>1023.0</ele><time>2026-05-02T09:49:32.481Z</time></trkpt><trkpt lat="46.31013112781516" lon="11.607644227238172"><ele>1023.0</ele><time>2026-05-02T09:49:33.481Z</time></trkpt><trkpt lat="46.310076302676094" lon="11.607506870600263"><ele>1023.0</ele><time>2026-05-02T09:49:34.481Z</time></trkpt><trkpt lat="46.31002745194648" lon="11.607301462019484"><ele>1023.0</ele><time>2026-05-02T09:49:35.481Z</time></trkpt><trkpt lat="46.309956334964546" lon="11.607097576125007"><ele>1023.0</ele><time>2026-05-02T09:49:36.481Z</time></trkpt><trkpt lat="46.309907112339374" lon="11.606890991429283"><ele>1023.0</ele><time>2026-05-02T09:49:37.481Z</time></trkpt><trkpt lat="46.30986143290297" lon="11.606700913552302"><ele>1023.0</ele><time>2026-05-02T09:49:38.481Z</time></trkpt><trkpt lat="46.30982259130945" lon="11.606482062205961"><ele>1023.0</ele><time>2026-05-02T09:49:39.481Z</time></trkpt><trkpt lat="46.30978429515248" lon="11.606251995145968"><ele>1023.0</ele><time>2026-05-02T09:49:40.481Z</time></trkpt><trkpt lat="46.30974617695918" lon="11.606022997126832"><ele>1023.0</ele><time>2026-05-02T09:49:41.481Z</time></trkpt><trkpt lat="46.30971096265937" lon="11.605811444645076"><ele>1023.0</ele><time>2026-05-02T09:49:42.481Z</time></trkpt><trkpt lat="46.30967631682821" lon="11.605603307229714"><ele>1022.0</ele><time>2026-05-02T09:49:43.481Z</time></trkpt><trkpt lat="46.30964259590719" lon="11.605400726202731"><ele>1021.0</ele><time>2026-05-02T09:49:44.481Z</time></trkpt><trkpt lat="46.309609729263485" lon="11.605202135823667"><ele>1020.0</ele><time>2026-05-02T09:49:45.481Z</time></trkpt><trkpt lat="46.30956398981017" lon="11.605018209392332"><ele>1019.0</ele><time>2026-05-02T09:49:46.481Z</time></trkpt><trkpt lat="46.30955044094202" lon="11.604827436801187"><ele>1019.0</ele><time>2026-05-02T09:49:47.481Z</time></trkpt><trkpt lat="46.30952100422833" lon="11.604653120355358"><ele>1019.0</ele><time>2026-05-02T09:49:48.481Z</time></trkpt><trkpt lat="46.30949107427653" lon="11.60447246887861"><ele>1019.0</ele><time>2026-05-02T09:49:49.481Z</time></trkpt><trkpt lat="46.30946385128223" lon="11.604303713907441"><ele>1019.0</ele><time>2026-05-02T09:49:50.481Z</time></trkpt><trkpt lat="46.309437581896184" lon="11.60414087105886"><ele>1018.4000000000001</ele><time>2026-05-02T09:49:51.481Z</time></trkpt><trkpt lat="46.30941105476125" lon="11.603982159134445"><ele>1017.8000000000001</ele><time>2026-05-02T09:49:52.481Z</time></trkpt><trkpt lat="46.30938592248192" lon="11.603828524948815"><ele>1017.1999999999999</ele><time>2026-05-02T09:49:53.481Z</time></trkpt><trkpt lat="46.309362723525076" lon="11.603681905302016"><ele>1016.5999999999999</ele><time>2026-05-02T09:49:54.481Z</time></trkpt><trkpt lat="46.309337875848016" lon="11.603537247912119"><ele>1016.0</ele><time>2026-05-02T09:49:55.481Z</time></trkpt><trkpt lat="46.30931552322494" lon="11.603400533727513"><ele>1015.8</ele><time>2026-05-02T09:49:56.481Z</time></trkpt><trkpt lat="46.309296985589896" lon="11.603266918760852"><ele>1015.5999999999999</ele><time>2026-05-02T09:49:57.481Z</time></trkpt><trkpt lat="46.30928818587615" lon="11.6031317766801"><ele>1015.4</ele><time>2026-05-02T09:49:58.482Z</time></trkpt><trkpt lat="46.309284768188185" lon="11.602989688333086"><ele>1015.2</ele><time>2026-05-02T09:49:59.482Z</time></trkpt><trkpt lat="46.30927248387457" lon="11.602846013714915"><ele>1015.0</ele><time>2026-05-02T09:50:00.482Z</time></trkpt><trkpt lat="46.309287752808636" lon="11.6027314229746"><ele>1014.9999999999999</ele><time>2026-05-02T09:50:01.482Z</time></trkpt><trkpt lat="46.30928912376409" lon="11.602624225943323"><ele>1015.0</ele><time>2026-05-02T09:50:02.482Z</time></trkpt><trkpt lat="46.30929049160974" lon="11.602517271983034"><ele>1015.0</ele><time>2026-05-02T09:50:03.482Z</time></trkpt><trkpt lat="46.309291652603534" lon="11.602423001180018"><ele>1015.0</ele><time>2026-05-02T09:50:04.482Z</time></trkpt><trkpt lat="46.30929361370712" lon="11.602253152908917"><ele>1014.9999999999999</ele><time>2026-05-02T09:50:06.482Z</time></trkpt><trkpt lat="46.309295106694925" lon="11.60212384735054"><ele>1015.0</ele><time>2026-05-02T09:50:08.482Z</time></trkpt><trkpt lat="46.30929816744063" lon="11.601981490783137"><ele>1014.25</ele><time>2026-05-02T09:50:11.482Z</time></trkpt><trkpt lat="46.30932769543667" lon="11.601840192862312"><ele>1013.5</ele><time>2026-05-02T09:50:13.482Z</time></trkpt><trkpt lat="46.30938427762887" lon="11.601645752337017"><ele>1012.75</ele><time>2026-05-02T09:50:15.482Z</time></trkpt><trkpt lat="46.30941652521906" lon="11.60146598915134"><ele>1012.0</ele><time>2026-05-02T09:50:16.482Z</time></trkpt><trkpt lat="46.309420111726645" lon="11.601233503448231"><ele>1011.3333333333333</ele><time>2026-05-02T09:50:17.482Z</time></trkpt><trkpt lat="46.309422104130505" lon="11.601005098902633"><ele>1010.6666666666667</ele><time>2026-05-02T09:50:18.482Z</time></trkpt><trkpt lat="46.309425249934534" lon="11.600755806145491"><ele>1010.0</ele><time>2026-05-02T09:50:19.482Z</time></trkpt><trkpt lat="46.30942819164011" lon="11.600511880837132"><ele>1009.75</ele><time>2026-05-02T09:50:20.482Z</time></trkpt><trkpt lat="46.30943046363938" lon="11.600299251421378"><ele>1009.5</ele><time>2026-05-02T09:50:21.482Z</time></trkpt><trkpt lat="46.30943324594736" lon="11.600103392040127"><ele>1009.25</ele><time>2026-05-02T09:50:22.482Z</time></trkpt><trkpt lat="46.30944088801284" lon="11.599925959885402"><ele>1009.0</ele><time>2026-05-02T09:50:23.482Z</time></trkpt><trkpt lat="46.30945080402294" lon="11.599750526690864"><ele>1009.0</ele><time>2026-05-02T09:50:24.482Z</time></trkpt><trkpt lat="46.309462027547625" lon="11.59955382166543"><ele>1009.0</ele><time>2026-05-02T09:50:25.482Z</time></trkpt><trkpt lat="46.3094743714417" lon="11.599335560687884"><ele>1009.0</ele><time>2026-05-02T09:50:26.482Z</time></trkpt><trkpt lat="46.309486689173596" lon="11.599114285420058"><ele>1009.0</ele><time>2026-05-02T09:50:27.482Z</time></trkpt><trkpt lat="46.309497884802525" lon="11.598913167579576"><ele>1008.5</ele><time>2026-05-02T09:50:28.482Z</time></trkpt><trkpt lat="46.30950813403212" lon="11.598736116200374"><ele>1008.0</ele><time>2026-05-02T09:50:29.482Z</time></trkpt><trkpt lat="46.30951903656844" lon="11.598556140481787"><ele>1007.5</ele><time>2026-05-02T09:50:30.482Z</time></trkpt><trkpt lat="46.3095216466168" lon="11.59839151479918"><ele>1007.0</ele><time>2026-05-02T09:50:31.482Z</time></trkpt><trkpt lat="46.309546592189776" lon="11.598228098824565"><ele>1006.25</ele><time>2026-05-02T09:50:32.482Z</time></trkpt><trkpt lat="46.30955387483104" lon="11.598060650429728"><ele>1005.5</ele><time>2026-05-02T09:50:33.482Z</time></trkpt><trkpt lat="46.30955453990641" lon="11.597902472191139"><ele>1004.75</ele><time>2026-05-02T09:50:34.482Z</time></trkpt><trkpt lat="46.30958275985166" lon="11.59773469788608"><ele>1004.0</ele><time>2026-05-02T09:50:35.482Z</time></trkpt><trkpt lat="46.309589599714236" lon="11.597576832822412"><ele>1003.8000000000001</ele><time>2026-05-02T09:50:36.482Z</time></trkpt><trkpt lat="46.30959902814022" lon="11.597440962826523"><ele>1003.6000000000001</ele><time>2026-05-02T09:50:37.482Z</time></trkpt><trkpt lat="46.30961003095689" lon="11.597298553475062"><ele>1003.4</ele><time>2026-05-02T09:50:38.482Z</time></trkpt><trkpt lat="46.309639335961066" lon="11.597190134867517"><ele>1003.2</ele><time>2026-05-02T09:50:39.482Z</time></trkpt><trkpt lat="46.30969471853984" lon="11.597091395743414"><ele>1003.0</ele><time>2026-05-02T09:50:40.482Z</time></trkpt><trkpt lat="46.309763760690906" lon="11.596985054160202"><ele>1003.0</ele><time>2026-05-02T09:50:41.482Z</time></trkpt><trkpt lat="46.30981707365662" lon="11.596855181992124"><ele>1003.0</ele><time>2026-05-02T09:50:42.482Z</time></trkpt><trkpt lat="46.30985950430938" lon="11.596742958383754"><ele>1003.0</ele><time>2026-05-02T09:50:43.482Z</time></trkpt><trkpt lat="46.309910866221635" lon="11.59661464195171"><ele>1003.0</ele><time>2026-05-02T09:50:44.482Z</time></trkpt><trkpt lat="46.30996187158085" lon="11.596502562422865"><ele>1003.0</ele><time>2026-05-02T09:50:45.482Z</time></trkpt><trkpt lat="46.31001150434377" lon="11.596397482459583"><ele>1003.0</ele><time>2026-05-02T09:50:46.482Z</time></trkpt><trkpt lat="46.31006161484804" lon="11.596285558728018"><ele>1003.0</ele><time>2026-05-02T09:50:47.482Z</time></trkpt><trkpt lat="46.31010038010089" lon="11.596189440161217"><ele>1003.0</ele><time>2026-05-02T09:50:48.482Z</time></trkpt><trkpt lat="46.31015108842021" lon="11.596040726345592"><ele>1003.0</ele><time>2026-05-02T09:50:50.482Z</time></trkpt><trkpt lat="46.310211811094426" lon="11.595895863273823"><ele>1003.0</ele><time>2026-05-02T09:50:52.482Z</time></trkpt><trkpt lat="46.31026967566102" lon="11.595793005859035"><ele>1003.0</ele><time>2026-05-02T09:50:54.482Z</time></trkpt><trkpt lat="46.31031814936918" lon="11.595734750591085"><ele>1003.0</ele><time>2026-05-02T09:50:55.482Z</time></trkpt><trkpt lat="46.31027360762629" lon="11.595589395372958"><ele>1003.0</ele><time>2026-05-02T09:50:57.482Z</time></trkpt><trkpt lat="46.31021097659887" lon="11.595549674805516"><ele>1003.0</ele><time>2026-05-02T09:50:58.482Z</time></trkpt><trkpt lat="46.31012156136461" lon="11.595539229030583"><ele>1003.0</ele><time>2026-05-02T09:50:59.482Z</time></trkpt><trkpt lat="46.31000457303437" lon="11.595451623676183"><ele>1004.3333333333333</ele><time>2026-05-02T09:51:00.482Z</time></trkpt><trkpt lat="46.30985437186921" lon="11.595332079936746"><ele>1005.6666666666667</ele><time>2026-05-02T09:51:01.482Z</time></trkpt><trkpt lat="46.30967891196513" lon="11.59520350039519"><ele>1007.0</ele><time>2026-05-02T09:51:02.482Z</time></trkpt><trkpt lat="46.30952679140445" lon="11.595114425609887"><ele>1004.0</ele><time>2026-05-02T09:51:03.482Z</time></trkpt><trkpt lat="46.30938517048818" lon="11.594985551641443"><ele>1001.0</ele><time>2026-05-02T09:51:04.482Z</time></trkpt><trkpt lat="46.309209342420125" lon="11.594860377102568"><ele>998.0</ele><time>2026-05-02T09:51:05.482Z</time></trkpt><trkpt lat="46.30906078362228" lon="11.594746120517328"><ele>998.0</ele><time>2026-05-02T09:51:06.482Z</time></trkpt><trkpt lat="46.30891249327197" lon="11.594606323312883"><ele>998.0</ele><time>2026-05-02T09:51:07.482Z</time></trkpt><trkpt lat="46.308760432791786" lon="11.594431994684765"><ele>998.0</ele><time>2026-05-02T09:51:08.482Z</time></trkpt><trkpt lat="46.30859178984732" lon="11.594215831297342"><ele>996.5</ele><time>2026-05-02T09:51:09.482Z</time></trkpt><trkpt lat="46.30840943604555" lon="11.593991925396015"><ele>995.0</ele><time>2026-05-02T09:51:10.482Z</time></trkpt><trkpt lat="46.30825495596241" lon="11.593750248331995"><ele>995.3333333333334</ele><time>2026-05-02T09:51:11.482Z</time></trkpt><trkpt lat="46.30810506476685" lon="11.593547160455078"><ele>995.6666666666667</ele><time>2026-05-02T09:51:12.482Z</time></trkpt><trkpt lat="46.30794181082851" lon="11.593349558188144"><ele>996.0</ele><time>2026-05-02T09:51:13.482Z</time></trkpt><trkpt lat="46.30779874460611" lon="11.593130617997005"><ele>996.0</ele><time>2026-05-02T09:51:14.482Z</time></trkpt><trkpt lat="46.30765870755066" lon="11.592933915887794"><ele>996.0</ele><time>2026-05-02T09:51:15.482Z</time></trkpt><trkpt lat="46.30750450529333" lon="11.592743336066574"><ele>996.0</ele><time>2026-05-02T09:51:16.482Z</time></trkpt><trkpt lat="46.30733791084555" lon="11.592577131434934"><ele>995.0</ele><time>2026-05-02T09:51:17.482Z</time></trkpt><trkpt lat="46.30716634469423" lon="11.592407580144247"><ele>994.0</ele><time>2026-05-02T09:51:18.482Z</time></trkpt><trkpt lat="46.30695808546441" lon="11.592251945591537"><ele>993.0</ele><time>2026-05-02T09:51:19.482Z</time></trkpt><trkpt lat="46.306728190359074" lon="11.59211727327782"><ele>999.0</ele><time>2026-05-02T09:51:20.482Z</time></trkpt><trkpt lat="46.30647922372892" lon="11.592005144932495"><ele>1005.0</ele><time>2026-05-02T09:51:21.482Z</time></trkpt><trkpt lat="46.30621478218512" lon="11.591911459430651"><ele>1005.0</ele><time>2026-05-02T09:51:22.482Z</time></trkpt><trkpt lat="46.30594065111259" lon="11.591816346952088"><ele>1005.0</ele><time>2026-05-02T09:51:23.482Z</time></trkpt><trkpt lat="46.30565626792183" lon="11.591717675270461"><ele>1000.5</ele><time>2026-05-02T09:51:24.482Z</time></trkpt><trkpt lat="46.305374525755624" lon="11.591619752107334"><ele>996.0</ele><time>2026-05-02T09:51:25.482Z</time></trkpt><trkpt lat="46.30511707017214" lon="11.591530098522206"><ele>996.0</ele><time>2026-05-02T09:51:26.482Z</time></trkpt><trkpt lat="46.30487266510828" lon="11.591443123420298"><ele>996.0</ele><time>2026-05-02T09:51:27.482Z</time></trkpt><trkpt lat="46.30464282560353" lon="11.591352892134216"><ele>993.5</ele><time>2026-05-02T09:51:28.482Z</time></trkpt><trkpt lat="46.30441606028583" lon="11.591263867646173"><ele>991.0</ele><time>2026-05-02T09:51:29.482Z</time></trkpt><trkpt lat="46.30418866944761" lon="11.591174607887357"><ele>995.5</ele><time>2026-05-02T09:51:30.482Z</time></trkpt><trkpt lat="46.30395637336606" lon="11.59108240322214"><ele>1000.0</ele><time>2026-05-02T09:51:31.482Z</time></trkpt><trkpt lat="46.30372655237393" lon="11.59099118098042"><ele>1000.0</ele><time>2026-05-02T09:51:32.482Z</time></trkpt><trkpt lat="46.30350510070101" lon="11.590903280720271"><ele>1000.0</ele><time>2026-05-02T09:51:33.482Z</time></trkpt><trkpt lat="46.303289672396005" lon="11.590816682787727"><ele>1000.0</ele><time>2026-05-02T09:51:34.482Z</time></trkpt><trkpt lat="46.303086153802695" lon="11.590733276395088"><ele>1000.0</ele><time>2026-05-02T09:51:35.482Z</time></trkpt><trkpt lat="46.302889959688635" lon="11.590648252121941"><ele>1000.0</ele><time>2026-05-02T09:51:36.482Z</time></trkpt><trkpt lat="46.30271127358837" lon="11.590555856216179"><ele>998.3333333333333</ele><time>2026-05-02T09:51:37.482Z</time></trkpt><trkpt lat="46.302532928641924" lon="11.590455962016472"><ele>996.6666666666667</ele><time>2026-05-02T09:51:38.482Z</time></trkpt><trkpt lat="46.30237345900104" lon="11.59039958402156"><ele>995.0</ele><time>2026-05-02T09:51:39.482Z</time></trkpt><trkpt lat="46.30223260584095" lon="11.590288082621738"><ele>995.0</ele><time>2026-05-02T09:51:40.482Z</time></trkpt><trkpt lat="46.30209731900509" lon="11.590210775707714"><ele>995.0</ele><time>2026-05-02T09:51:41.482Z</time></trkpt><trkpt lat="46.30196340044474" lon="11.590138449413711"><ele>995.0</ele><time>2026-05-02T09:51:42.482Z</time></trkpt><trkpt lat="46.30183721101069" lon="11.590077074617481"><ele>995.0</ele><time>2026-05-02T09:51:43.482Z</time></trkpt><trkpt lat="46.30173248281942" lon="11.590023686832765"><ele>995.0</ele><time>2026-05-02T09:51:44.482Z</time></trkpt><trkpt lat="46.30163864227848" lon="11.589994554737165"><ele>995.0</ele><time>2026-05-02T09:51:45.482Z</time></trkpt><trkpt lat="46.3015212218628" lon="11.589922214891148"><ele>995.0</ele><time>2026-05-02T09:51:46.482Z</time></trkpt><trkpt lat="46.30141382040013" lon="11.58986001178452"><ele>995.0</ele><time>2026-05-02T09:51:47.482Z</time></trkpt><trkpt lat="46.30129283404432" lon="11.58983986428481"><ele>992.5</ele><time>2026-05-02T09:51:48.482Z</time></trkpt><trkpt lat="46.3011715025107" lon="11.589825994994841"><ele>990.0</ele><time>2026-05-02T09:51:49.482Z</time></trkpt><trkpt lat="46.301057070915704" lon="11.589736468650754"><ele>987.5</ele><time>2026-05-02T09:51:50.482Z</time></trkpt><trkpt lat="46.30095135645136" lon="11.589639831333926"><ele>985.0</ele><time>2026-05-02T09:51:51.482Z</time></trkpt><trkpt lat="46.300857610239916" lon="11.589527337451045"><ele>985.25</ele><time>2026-05-02T09:51:52.482Z</time></trkpt><trkpt lat="46.30076330412011" lon="11.589393827737819"><ele>985.5</ele><time>2026-05-02T09:51:53.482Z</time></trkpt><trkpt lat="46.3006576669167" lon="11.589266121221863"><ele>985.75</ele><time>2026-05-02T09:51:54.482Z</time></trkpt><trkpt lat="46.30055803143098" lon="11.589091769634779"><ele>986.0</ele><time>2026-05-02T09:51:55.482Z</time></trkpt><trkpt lat="46.30046732500427" lon="11.588989028908689"><ele>986.0</ele><time>2026-05-02T09:51:56.482Z</time></trkpt><trkpt lat="46.30037089070448" lon="11.588855219012386"><ele>986.0</ele><time>2026-05-02T09:51:57.482Z</time></trkpt><trkpt lat="46.30026631513655" lon="11.588698047653002"><ele>986.0</ele><time>2026-05-02T09:51:58.482Z</time></trkpt><trkpt lat="46.30016116982768" lon="11.588548792583751"><ele>986.0</ele><time>2026-05-02T09:51:59.482Z</time></trkpt><trkpt lat="46.30004726140215" lon="11.58842092842293"><ele>987.25</ele><time>2026-05-02T09:52:00.482Z</time></trkpt><trkpt lat="46.2999377769057" lon="11.58829579707539"><ele>988.5</ele><time>2026-05-02T09:52:01.482Z</time></trkpt><trkpt lat="46.299833978612696" lon="11.588169280092611"><ele>989.75</ele><time>2026-05-02T09:52:02.482Z</time></trkpt><trkpt lat="46.299724794114745" lon="11.588030433387562"><ele>991.0</ele><time>2026-05-02T09:52:03.482Z</time></trkpt><trkpt lat="46.29962334841938" lon="11.587907058793308"><ele>991.25</ele><time>2026-05-02T09:52:04.483Z</time></trkpt><trkpt lat="46.29953031279859" lon="11.587763317181551"><ele>991.5</ele><time>2026-05-02T09:52:05.483Z</time></trkpt><trkpt lat="46.299436807400134" lon="11.587630868827986"><ele>991.75</ele><time>2026-05-02T09:52:06.483Z</time></trkpt><trkpt lat="46.29933812372909" lon="11.587502266587892"><ele>992.0</ele><time>2026-05-02T09:52:07.483Z</time></trkpt><trkpt lat="46.29923853115062" lon="11.587348060870626"><ele>992.0</ele><time>2026-05-02T09:52:08.483Z</time></trkpt><trkpt lat="46.29911278418503" lon="11.587214008498865"><ele>992.0</ele><time>2026-05-02T09:52:09.483Z</time></trkpt><trkpt lat="46.29896785360537" lon="11.58703667643443"><ele>992.0</ele><time>2026-05-02T09:52:10.483Z</time></trkpt><trkpt lat="46.298812986895996" lon="11.5868326917694"><ele>986.5</ele><time>2026-05-02T09:52:11.483Z</time></trkpt><trkpt lat="46.298648273374106" lon="11.586611616620635"><ele>981.0</ele><time>2026-05-02T09:52:12.483Z</time></trkpt><trkpt lat="46.29846498078708" lon="11.586407737236978"><ele>981.0</ele><time>2026-05-02T09:52:13.483Z</time></trkpt><trkpt lat="46.29829645067967" lon="11.58623397030501"><ele>981.0</ele><time>2026-05-02T09:52:14.483Z</time></trkpt><trkpt lat="46.29812618724989" lon="11.586056154410919"><ele>981.0</ele><time>2026-05-02T09:52:15.483Z</time></trkpt><trkpt lat="46.297959004418935" lon="11.585893795881345"><ele>978.3333333333333</ele><time>2026-05-02T09:52:16.483Z</time></trkpt><trkpt lat="46.29781816894854" lon="11.585744223933188"><ele>975.6666666666666</ele><time>2026-05-02T09:52:17.483Z</time></trkpt><trkpt lat="46.29765975338915" lon="11.585589709073071"><ele>973.0</ele><time>2026-05-02T09:52:18.483Z</time></trkpt><trkpt lat="46.29752378376615" lon="11.58543764889378"><ele>973.3333333333333</ele><time>2026-05-02T09:52:19.483Z</time></trkpt><trkpt lat="46.29737936656418" lon="11.585311514480862"><ele>973.6666666666667</ele><time>2026-05-02T09:52:20.483Z</time></trkpt><trkpt lat="46.297251306303565" lon="11.58516277633465"><ele>974.0</ele><time>2026-05-02T09:52:21.483Z</time></trkpt><trkpt lat="46.29714058111686" lon="11.585005165602995"><ele>974.0</ele><time>2026-05-02T09:52:22.483Z</time></trkpt><trkpt lat="46.29704322353388" lon="11.584857404298102"><ele>974.0</ele><time>2026-05-02T09:52:23.483Z</time></trkpt><trkpt lat="46.29694930197339" lon="11.584699605868268"><ele>974.0</ele><time>2026-05-02T09:52:24.483Z</time></trkpt><trkpt lat="46.29686180423348" lon="11.58453019773811"><ele>974.0</ele><time>2026-05-02T09:52:25.483Z</time></trkpt><trkpt lat="46.29677910497314" lon="11.584344794098405"><ele>977.0</ele><time>2026-05-02T09:52:26.483Z</time></trkpt><trkpt lat="46.296695650714625" lon="11.584148536968643"><ele>980.0</ele><time>2026-05-02T09:52:27.483Z</time></trkpt><trkpt lat="46.29661979302612" lon="11.583953100816755"><ele>983.0</ele><time>2026-05-02T09:52:28.483Z</time></trkpt><trkpt lat="46.29655531178006" lon="11.583750917408967"><ele>985.5</ele><time>2026-05-02T09:52:29.483Z</time></trkpt><trkpt lat="46.29650489166533" lon="11.583567111212645"><ele>988.0</ele><time>2026-05-02T09:52:30.483Z</time></trkpt><trkpt lat="46.29646155843391" lon="11.58341196832822"><ele>990.5</ele><time>2026-05-02T09:52:31.483Z</time></trkpt><trkpt lat="46.296415568306315" lon="11.583264370053898"><ele>993.0</ele><time>2026-05-02T09:52:32.483Z</time></trkpt><trkpt lat="46.296376774464015" lon="11.58311164166081"><ele>988.75</ele><time>2026-05-02T09:52:33.483Z</time></trkpt><trkpt lat="46.29631741714244" lon="11.582941492902272"><ele>984.5</ele><time>2026-05-02T09:52:34.483Z</time></trkpt><trkpt lat="46.29625472710693" lon="11.582749823848804"><ele>980.25</ele><time>2026-05-02T09:52:35.483Z</time></trkpt><trkpt lat="46.29618569715577" lon="11.582525495906284"><ele>976.0</ele><time>2026-05-02T09:52:36.483Z</time></trkpt><trkpt lat="46.296106694650526" lon="11.582278463427437"><ele>979.0</ele><time>2026-05-02T09:52:37.483Z</time></trkpt><trkpt lat="46.2960161262293" lon="11.582012156351153"><ele>982.0</ele><time>2026-05-02T09:52:38.483Z</time></trkpt><trkpt lat="46.29592135125352" lon="11.58170775010396"><ele>985.0</ele><time>2026-05-02T09:52:39.483Z</time></trkpt><trkpt lat="46.29582723762637" lon="11.581410068487807"><ele>981.0</ele><time>2026-05-02T09:52:40.483Z</time></trkpt><trkpt lat="46.29574141153394" lon="11.581143087260939"><ele>977.0</ele><time>2026-05-02T09:52:41.483Z</time></trkpt><trkpt lat="46.29566143781999" lon="11.580899004564698"><ele>973.0</ele><time>2026-05-02T09:52:42.483Z</time></trkpt><trkpt lat="46.295581238973654" lon="11.580672128203542"><ele>973.0</ele><time>2026-05-02T09:52:43.483Z</time></trkpt><trkpt lat="46.295514282364195" lon="11.580448356651972"><ele>973.0</ele><time>2026-05-02T09:52:44.483Z</time></trkpt><trkpt lat="46.29545627194999" lon="11.580226617297074"><ele>973.0</ele><time>2026-05-02T09:52:45.483Z</time></trkpt><trkpt lat="46.29539023832953" lon="11.580030532835417"><ele>973.3333333333333</ele><time>2026-05-02T09:52:46.483Z</time></trkpt><trkpt lat="46.29535661940664" lon="11.57981687761448"><ele>973.6666666666667</ele><time>2026-05-02T09:52:47.483Z</time></trkpt><trkpt lat="46.295309851858164" lon="11.579614794483422"><ele>974.0</ele><time>2026-05-02T09:52:48.483Z</time></trkpt><trkpt lat="46.29527563978242" lon="11.579401300302866"><ele>979.3333333333334</ele><time>2026-05-02T09:52:49.483Z</time></trkpt><trkpt lat="46.29523939974853" lon="11.579182654539897"><ele>984.6666666666667</ele><time>2026-05-02T09:52:50.483Z</time></trkpt><trkpt lat="46.29520677986968" lon="11.578951879362636"><ele>990.0</ele><time>2026-05-02T09:52:51.483Z</time></trkpt><trkpt lat="46.29517698593294" lon="11.57869880635719"><ele>996.0</ele><time>2026-05-02T09:52:52.5Z</time></trkpt><trkpt lat="46.295147405025375" lon="11.578438092995631"><ele>1002.0</ele><time>2026-05-02T09:52:53.501Z</time></trkpt><trkpt lat="46.295188475869594" lon="11.578140650306812"><ele>1008.0</ele><time>2026-05-02T09:52:54.502Z</time></trkpt><trkpt lat="46.295165082688634" lon="11.577853892096797"><ele>1037.0</ele><time>2026-05-02T09:52:55.499Z</time></trkpt><trkpt lat="46.295062400634784" lon="11.57681572653962"><ele>1047.0</ele><time>2026-05-02T09:53:15.166Z</time></trkpt><trkpt lat="46.29489527135088" lon="11.575939548214055"><ele>1035.0</ele><time>2026-05-02T09:53:16.165Z</time></trkpt><trkpt lat="46.29466217909864" lon="11.575093680400816"><ele>1053.0</ele><time>2026-05-02T09:53:17.165Z</time></trkpt><trkpt lat="46.2943176125028" lon="11.574334024404827"><ele>1064.0</ele><time>2026-05-02T09:53:18.163Z</time></trkpt><trkpt lat="46.29397408925358" lon="11.573569596660066"><ele>1042.0</ele><time>2026-05-02T09:53:19.166Z</time></trkpt><trkpt lat="46.29364731549604" lon="11.572792768181632"><ele>935.0</ele><time>2026-05-02T09:53:20.165Z</time></trkpt><trkpt lat="46.28537247893054" lon="11.556247081618343"><ele>936.0</ele><time>2026-05-02T09:54:18.483Z</time></trkpt><trkpt lat="46.28530929098879" lon="11.556034464254541"><ele>937.0</ele><time>2026-05-02T09:54:19.483Z</time></trkpt><trkpt lat="46.28522571717984" lon="11.55585496864716"><ele>938.0</ele><time>2026-05-02T09:54:20.483Z</time></trkpt><trkpt lat="46.28530555185253" lon="11.555521531980878"><ele>939.6666666666667</ele><time>2026-05-02T09:54:21.483Z</time></trkpt><trkpt lat="46.285236356166514" lon="11.555290170516331"><ele>941.3333333333333</ele><time>2026-05-02T09:54:22.483Z</time></trkpt><trkpt lat="46.28515938886582" lon="11.55505535985127"><ele>943.0</ele><time>2026-05-02T09:54:23.483Z</time></trkpt><trkpt lat="46.285075876828444" lon="11.554823724499737"><ele>943.0</ele><time>2026-05-02T09:54:24.484Z</time></trkpt><trkpt lat="46.2849896986575" lon="11.554614013469633"><ele>943.0</ele><time>2026-05-02T09:54:25.484Z</time></trkpt><trkpt lat="46.2848878439439" lon="11.554385143682476"><ele>943.0</ele><time>2026-05-02T09:54:26.484Z</time></trkpt><trkpt lat="46.28477645976636" lon="11.554156918684775"><ele>939.3333333333333</ele><time>2026-05-02T09:54:27.484Z</time></trkpt><trkpt lat="46.284662702556055" lon="11.553943658508674"><ele>935.6666666666667</ele><time>2026-05-02T09:54:28.484Z</time></trkpt><trkpt lat="46.28453028898294" lon="11.553735926319517"><ele>932.0</ele><time>2026-05-02T09:54:29.484Z</time></trkpt><trkpt lat="46.28439239047194" lon="11.553508690974523"><ele>931.6666666666667</ele><time>2026-05-02T09:54:30.484Z</time></trkpt><trkpt lat="46.28422206474667" lon="11.55328000971679"><ele>931.3333333333333</ele><time>2026-05-02T09:54:31.484Z</time></trkpt><trkpt lat="46.28406949087243" lon="11.553073460037036"><ele>931.0</ele><time>2026-05-02T09:54:32.484Z</time></trkpt><trkpt lat="46.28390336575624" lon="11.552905773144806"><ele>931.6666666666666</ele><time>2026-05-02T09:54:33.484Z</time></trkpt><trkpt lat="46.28374495163174" lon="11.552719272632006"><ele>932.3333333333333</ele><time>2026-05-02T09:54:34.484Z</time></trkpt><trkpt lat="46.28358188973088" lon="11.552572697175336"><ele>933.0</ele><time>2026-05-02T09:54:35.484Z</time></trkpt><trkpt lat="46.28340181990727" lon="11.552446183169415"><ele>933.0</ele><time>2026-05-02T09:54:36.484Z</time></trkpt><trkpt lat="46.28324558965665" lon="11.552297099105097"><ele>933.0</ele><time>2026-05-02T09:54:37.484Z</time></trkpt><trkpt lat="46.28310214108151" lon="11.552149832481021"><ele>933.0</ele><time>2026-05-02T09:54:38.484Z</time></trkpt><trkpt lat="46.28298433524639" lon="11.552014456072433"><ele>932.3333333333333</ele><time>2026-05-02T09:54:39.484Z</time></trkpt><trkpt lat="46.28283741230204" lon="11.551853242480759"><ele>931.6666666666666</ele><time>2026-05-02T09:54:40.484Z</time></trkpt><trkpt lat="46.28272448122964" lon="11.551694552123312"><ele>931.0</ele><time>2026-05-02T09:54:41.484Z</time></trkpt><trkpt lat="46.28260367772407" lon="11.551511528355766"><ele>931.0</ele><time>2026-05-02T09:54:42.484Z</time></trkpt><trkpt lat="46.28248412552104" lon="11.55133296896794"><ele>931.0</ele><time>2026-05-02T09:54:43.484Z</time></trkpt><trkpt lat="46.2823691872882" lon="11.551130631589729"><ele>931.0</ele><time>2026-05-02T09:54:44.484Z</time></trkpt><trkpt lat="46.28224325937035" lon="11.550939180545246"><ele>930.3333333333333</ele><time>2026-05-02T09:54:45.484Z</time></trkpt><trkpt lat="46.2821169263661" lon="11.550733617982328"><ele>929.6666666666667</ele><time>2026-05-02T09:54:46.484Z</time></trkpt><trkpt lat="46.28200144689631" lon="11.550534688515286"><ele>929.0</ele><time>2026-05-02T09:54:47.484Z</time></trkpt><trkpt lat="46.281890143649214" lon="11.550334985063639"><ele>928.6666666666667</ele><time>2026-05-02T09:54:48.484Z</time></trkpt><trkpt lat="46.281787591345434" lon="11.550155341896383"><ele>928.3333333333333</ele><time>2026-05-02T09:54:49.484Z</time></trkpt><trkpt lat="46.28166976256555" lon="11.549939959060367"><ele>928.0</ele><time>2026-05-02T09:54:50.484Z</time></trkpt><trkpt lat="46.2815583098663" lon="11.549717210720575"><ele>927.3333333333333</ele><time>2026-05-02T09:54:51.484Z</time></trkpt><trkpt lat="46.281473458962736" lon="11.549466929728235"><ele>926.6666666666667</ele><time>2026-05-02T09:54:52.484Z</time></trkpt><trkpt lat="46.28140151086752" lon="11.549205417418644"><ele>926.0</ele><time>2026-05-02T09:54:53.484Z</time></trkpt><trkpt lat="46.28134332733412" lon="11.548944991385358"><ele>927.3333333333334</ele><time>2026-05-02T09:54:54.484Z</time></trkpt><trkpt lat="46.281290223783365" lon="11.548674202947318"><ele>928.6666666666667</ele><time>2026-05-02T09:54:55.484Z</time></trkpt><trkpt lat="46.28126442945659" lon="11.548429272648438"><ele>930.0</ele><time>2026-05-02T09:54:56.484Z</time></trkpt><trkpt lat="46.281233924361324" lon="11.548169778990895"><ele>930.0</ele><time>2026-05-02T09:54:57.484Z</time></trkpt><trkpt lat="46.281236176078764" lon="11.547930907762861"><ele>930.0</ele><time>2026-05-02T09:54:58.484Z</time></trkpt><trkpt lat="46.281236118883854" lon="11.547706010075874"><ele>930.0</ele><time>2026-05-02T09:54:59.484Z</time></trkpt><trkpt lat="46.28124761056573" lon="11.547491781865018"><ele>931.6666666666667</ele><time>2026-05-02T09:55:00.484Z</time></trkpt><trkpt lat="46.28126839406841" lon="11.547268451263392"><ele>933.3333333333334</ele><time>2026-05-02T09:55:01.484Z</time></trkpt><trkpt lat="46.2813009793125" lon="11.5470340177023"><ele>935.0</ele><time>2026-05-02T09:55:02.484Z</time></trkpt><trkpt lat="46.28134152567819" lon="11.546793268122132"><ele>934.3333333333334</ele><time>2026-05-02T09:55:03.484Z</time></trkpt><trkpt lat="46.281384570809735" lon="11.546543158773442"><ele>933.6666666666667</ele><time>2026-05-02T09:55:04.484Z</time></trkpt><trkpt lat="46.28142766349885" lon="11.546297715265855"><ele>933.0</ele><time>2026-05-02T09:55:05.484Z</time></trkpt><trkpt lat="46.281468901699256" lon="11.546062374705402"><ele>933.0</ele><time>2026-05-02T09:55:06.484Z</time></trkpt><trkpt lat="46.281512664209444" lon="11.54581240964188"><ele>933.0</ele><time>2026-05-02T09:55:07.497Z</time></trkpt><trkpt lat="46.281553456814585" lon="11.545579408077241"><ele>933.0</ele><time>2026-05-02T09:55:08.499Z</time></trkpt><trkpt lat="46.28159550008719" lon="11.545339263045074"><ele>935.0</ele><time>2026-05-02T09:55:09.503Z</time></trkpt><trkpt lat="46.281637676091265" lon="11.545098281915713"><ele>937.0</ele><time>2026-05-02T09:55:10.503Z</time></trkpt><trkpt lat="46.28168003025484" lon="11.544855999965446"><ele>939.0</ele><time>2026-05-02T09:55:11.501Z</time></trkpt><trkpt lat="46.28172221033125" lon="11.544615380583185"><ele>930.0</ele><time>2026-05-02T09:55:12.503Z</time></trkpt><trkpt lat="46.28210081257511" lon="11.542426915850063"><ele>930.0</ele><time>2026-05-02T09:55:20.484Z</time></trkpt><trkpt lat="46.282142671975166" lon="11.542158055085164"><ele>930.0</ele><time>2026-05-02T09:55:21.484Z</time></trkpt><trkpt lat="46.28216103190562" lon="11.54182359208769"><ele>930.0</ele><time>2026-05-02T09:55:22.484Z</time></trkpt><trkpt lat="46.282170099548004" lon="11.541505727811241"><ele>929.3333333333333</ele><time>2026-05-02T09:55:23.484Z</time></trkpt><trkpt lat="46.282117667805245" lon="11.541204569433019"><ele>928.6666666666666</ele><time>2026-05-02T09:55:24.484Z</time></trkpt><trkpt lat="46.282085533227075" lon="11.540944800978746"><ele>928.0</ele><time>2026-05-02T09:55:25.484Z</time></trkpt><trkpt lat="46.28205323140221" lon="11.54068754660346"><ele>928.0</ele><time>2026-05-02T09:55:26.484Z</time></trkpt><trkpt lat="46.282012893678896" lon="11.540429927550845"><ele>928.0</ele><time>2026-05-02T09:55:27.484Z</time></trkpt><trkpt lat="46.28196939548068" lon="11.5401600235375"><ele>928.0</ele><time>2026-05-02T09:55:28.484Z</time></trkpt><trkpt lat="46.2819391717049" lon="11.539912785120483"><ele>924.6666666666666</ele><time>2026-05-02T09:55:29.484Z</time></trkpt><trkpt lat="46.28190771157379" lon="11.539634619089371"><ele>921.3333333333333</ele><time>2026-05-02T09:55:30.484Z</time></trkpt><trkpt lat="46.281888518351714" lon="11.539360025415213"><ele>918.0</ele><time>2026-05-02T09:55:31.484Z</time></trkpt><trkpt lat="46.28185983777949" lon="11.539083597468482"><ele>916.3333333333333</ele><time>2026-05-02T09:55:32.484Z</time></trkpt><trkpt lat="46.28185051028781" lon="11.538812947513732"><ele>914.6666666666666</ele><time>2026-05-02T09:55:33.484Z</time></trkpt><trkpt lat="46.281848163784254" lon="11.538528953045946"><ele>913.0</ele><time>2026-05-02T09:55:34.484Z</time></trkpt><trkpt lat="46.281874249573335" lon="11.538249658562869"><ele>911.0</ele><time>2026-05-02T09:55:35.484Z</time></trkpt><trkpt lat="46.281900320515" lon="11.537937437279663"><ele>909.0</ele><time>2026-05-02T09:55:36.484Z</time></trkpt><trkpt lat="46.28194321649385" lon="11.537599372063706"><ele>909.0</ele><time>2026-05-02T09:55:37.484Z</time></trkpt><trkpt lat="46.281993923521995" lon="11.537223782937845"><ele>909.0</ele><time>2026-05-02T09:55:38.484Z</time></trkpt><trkpt lat="46.282028829265485" lon="11.536844650728016"><ele>908.0</ele><time>2026-05-02T09:55:39.484Z</time></trkpt><trkpt lat="46.282084605128524" lon="11.536459943574863"><ele>907.0</ele><time>2026-05-02T09:55:40.484Z</time></trkpt><trkpt lat="46.28214632429171" lon="11.53606121448648"><ele>905.5</ele><time>2026-05-02T09:55:41.484Z</time></trkpt><trkpt lat="46.28221189813367" lon="11.535671880818786"><ele>904.0</ele><time>2026-05-02T09:55:42.484Z</time></trkpt><trkpt lat="46.28229392264313" lon="11.535326231897788"><ele>907.0</ele><time>2026-05-02T09:55:43.484Z</time></trkpt><trkpt lat="46.28235177847335" lon="11.534971469600265"><ele>910.0</ele><time>2026-05-02T09:55:44.484Z</time></trkpt><trkpt lat="46.28242452872263" lon="11.534610712434121"><ele>909.0</ele><time>2026-05-02T09:55:45.484Z</time></trkpt><trkpt lat="46.28251710317948" lon="11.534259066246644"><ele>908.0</ele><time>2026-05-02T09:55:46.484Z</time></trkpt><trkpt lat="46.28258409873807" lon="11.533901970872105"><ele>905.5</ele><time>2026-05-02T09:55:47.484Z</time></trkpt><trkpt lat="46.28264979583532" lon="11.533544244893132"><ele>903.0</ele><time>2026-05-02T09:55:48.484Z</time></trkpt><trkpt lat="46.28273024645687" lon="11.533182806958607"><ele>903.5</ele><time>2026-05-02T09:55:49.484Z</time></trkpt><trkpt lat="46.282797883837546" lon="11.532846953654554"><ele>904.0</ele><time>2026-05-02T09:55:50.484Z</time></trkpt><trkpt lat="46.28287537192313" lon="11.532536056148194"><ele>904.0</ele><time>2026-05-02T09:55:51.484Z</time></trkpt><trkpt lat="46.2829860128921" lon="11.532240461167298"><ele>904.0</ele><time>2026-05-02T09:55:52.484Z</time></trkpt><trkpt lat="46.28305655809936" lon="11.531961271139455"><ele>904.0</ele><time>2026-05-02T09:55:53.484Z</time></trkpt><trkpt lat="46.28313445120567" lon="11.531663570792606"><ele>905.3333333333333</ele><time>2026-05-02T09:55:54.484Z</time></trkpt><trkpt lat="46.283203462512155" lon="11.531352536901291"><ele>906.6666666666667</ele><time>2026-05-02T09:55:55.484Z</time></trkpt><trkpt lat="46.283241685964676" lon="11.531048076383774"><ele>908.0</ele><time>2026-05-02T09:55:56.484Z</time></trkpt><trkpt lat="46.283270809036985" lon="11.53073000969612"><ele>908.0</ele><time>2026-05-02T09:55:57.484Z</time></trkpt><trkpt lat="46.2832957113268" lon="11.530410850918322"><ele>908.0</ele><time>2026-05-02T09:55:58.484Z</time></trkpt><trkpt lat="46.2832918447058" lon="11.530078096225045"><ele>907.3333333333334</ele><time>2026-05-02T09:55:59.484Z</time></trkpt><trkpt lat="46.28331210010002" lon="11.529747169973355"><ele>906.6666666666667</ele><time>2026-05-02T09:56:00.484Z</time></trkpt><trkpt lat="46.28332092541541" lon="11.529433218409938"><ele>906.0</ele><time>2026-05-02T09:56:01.484Z</time></trkpt><trkpt lat="46.2833501454036" lon="11.52914019855539"><ele>905.0</ele><time>2026-05-02T09:56:02.484Z</time></trkpt><trkpt lat="46.28338079443798" lon="11.52886341666578"><ele>904.0</ele><time>2026-05-02T09:56:03.484Z</time></trkpt><trkpt lat="46.28345520735054" lon="11.528598606919928"><ele>903.0</ele><time>2026-05-02T09:56:04.484Z</time></trkpt><trkpt lat="46.28353591343952" lon="11.528326561361492"><ele>901.6666666666667</ele><time>2026-05-02T09:56:05.484Z</time></trkpt><trkpt lat="46.28362820565085" lon="11.528070375074712"><ele>900.3333333333334</ele><time>2026-05-02T09:56:06.484Z</time></trkpt><trkpt lat="46.28372761768838" lon="11.52782459791502"><ele>899.0</ele><time>2026-05-02T09:56:07.484Z</time></trkpt><trkpt lat="46.283842165484174" lon="11.527556333979192"><ele>899.0</ele><time>2026-05-02T09:56:08.484Z</time></trkpt><trkpt lat="46.28395930501138" lon="11.527278159596388"><ele>899.0</ele><time>2026-05-02T09:56:09.484Z</time></trkpt><trkpt lat="46.28406098817712" lon="11.527043292032683"><ele>899.0</ele><time>2026-05-02T09:56:10.484Z</time></trkpt><trkpt lat="46.28413211040982" lon="11.52681874601274"><ele>898.6666666666667</ele><time>2026-05-02T09:56:11.484Z</time></trkpt><trkpt lat="46.28422440191398" lon="11.526592323929732"><ele>898.3333333333333</ele><time>2026-05-02T09:56:12.484Z</time></trkpt><trkpt lat="46.284311128412895" lon="11.526375718002432"><ele>898.0</ele><time>2026-05-02T09:56:13.484Z</time></trkpt><trkpt lat="46.284388811778534" lon="11.526144116189824"><ele>897.6666666666666</ele><time>2026-05-02T09:56:14.484Z</time></trkpt><trkpt lat="46.28447428617226" lon="11.525931997090735"><ele>897.3333333333333</ele><time>2026-05-02T09:56:15.484Z</time></trkpt><trkpt lat="46.28455211475919" lon="11.525715220520834"><ele>897.0</ele><time>2026-05-02T09:56:16.484Z</time></trkpt><trkpt lat="46.2846309896844" lon="11.525500834362552"><ele>897.0</ele><time>2026-05-02T09:56:17.484Z</time></trkpt><trkpt lat="46.284692404199824" lon="11.525300770265835"><ele>897.0</ele><time>2026-05-02T09:56:18.484Z</time></trkpt><trkpt lat="46.28477016884795" lon="11.525111126881308"><ele>897.0</ele><time>2026-05-02T09:56:19.484Z</time></trkpt><trkpt lat="46.28483802139951" lon="11.524915556025691"><ele>897.0</ele><time>2026-05-02T09:56:20.484Z</time></trkpt><trkpt lat="46.28490780337377" lon="11.524738837263511"><ele>897.0</ele><time>2026-05-02T09:56:21.484Z</time></trkpt><trkpt lat="46.28494899313055" lon="11.524576163248435"><ele>897.0</ele><time>2026-05-02T09:56:22.484Z</time></trkpt><trkpt lat="46.28501006352173" lon="11.524418384893405"><ele>897.0</ele><time>2026-05-02T09:56:23.484Z</time></trkpt><trkpt lat="46.285058110603046" lon="11.52429700397702"><ele>897.0</ele><time>2026-05-02T09:56:24.484Z</time></trkpt><trkpt lat="46.285112892496514" lon="11.524190776464062"><ele>897.0</ele><time>2026-05-02T09:56:25.484Z</time></trkpt><trkpt lat="46.2851123992928" lon="11.524073657778994"><ele>897.0</ele><time>2026-05-02T09:56:26.484Z</time></trkpt><trkpt lat="46.285130971946714" lon="11.52397002323216"><ele>897.0</ele><time>2026-05-02T09:56:27.484Z</time></trkpt><trkpt lat="46.28516843195995" lon="11.523894386041134"><ele>897.0</ele><time>2026-05-02T09:56:28.484Z</time></trkpt><trkpt lat="46.285211364748385" lon="11.523824028579034"><ele>897.0</ele><time>2026-05-02T09:56:29.484Z</time></trkpt><trkpt lat="46.28527365225873" lon="11.52376395971236"><ele>896.5</ele><time>2026-05-02T09:56:30.485Z</time></trkpt><trkpt lat="46.2854118124048" lon="11.523708449410718"><ele>896.0</ele><time>2026-05-02T09:56:31.485Z</time></trkpt><trkpt lat="46.285510855720034" lon="11.523686498047578"><ele>895.5</ele><time>2026-05-02T09:56:32.485Z</time></trkpt><trkpt lat="46.285620536621664" lon="11.523710007869505"><ele>895.0</ele><time>2026-05-02T09:56:33.485Z</time></trkpt><trkpt lat="46.285751567002336" lon="11.523747988190937"><ele>898.0</ele><time>2026-05-02T09:56:34.485Z</time></trkpt><trkpt lat="46.285890133351074" lon="11.523903383533398"><ele>901.0</ele><time>2026-05-02T09:56:35.485Z</time></trkpt><trkpt lat="46.28598637034246" lon="11.523917979100416"><ele>904.0</ele><time>2026-05-02T09:56:36.485Z</time></trkpt><trkpt lat="46.286076245402086" lon="11.523890958940925"><ele>907.0</ele><time>2026-05-02T09:56:37.485Z</time></trkpt><trkpt lat="46.2861533764559" lon="11.523827866691615"><ele>905.5</ele><time>2026-05-02T09:56:38.485Z</time></trkpt><trkpt lat="46.28621548499322" lon="11.523653561793635"><ele>904.0</ele><time>2026-05-02T09:56:39.485Z</time></trkpt><trkpt lat="46.28625847761367" lon="11.523495834591063"><ele>902.5</ele><time>2026-05-02T09:56:40.485Z</time></trkpt><trkpt lat="46.28631814977701" lon="11.523322290783014"><ele>901.0</ele><time>2026-05-02T09:56:41.485Z</time></trkpt><trkpt lat="46.28637673097689" lon="11.52314458790658"><ele>900.0</ele><time>2026-05-02T09:56:42.485Z</time></trkpt><trkpt lat="46.28634895580892" lon="11.52286595460983"><ele>899.0</ele><time>2026-05-02T09:56:43.485Z</time></trkpt><trkpt lat="46.28629698954108" lon="11.522541873297904"><ele>898.0</ele><time>2026-05-02T09:56:44.485Z</time></trkpt><trkpt lat="46.2862678422607" lon="11.522232801764932"><ele>899.3333333333333</ele><time>2026-05-02T09:56:45.485Z</time></trkpt><trkpt lat="46.28626689295034" lon="11.521984804042942"><ele>900.6666666666667</ele><time>2026-05-02T09:56:46.485Z</time></trkpt><trkpt lat="46.28624947175492" lon="11.52175801020006"><ele>902.0</ele><time>2026-05-02T09:56:47.485Z</time></trkpt><trkpt lat="46.28626241211142" lon="11.521515073556591"><ele>902.0</ele><time>2026-05-02T09:56:48.485Z</time></trkpt><trkpt lat="46.28630084967188" lon="11.521258729507908"><ele>902.0</ele><time>2026-05-02T09:56:49.485Z</time></trkpt><trkpt lat="46.28634659869409" lon="11.520987730528683"><ele>902.0</ele><time>2026-05-02T09:56:50.485Z</time></trkpt><trkpt lat="46.28639484474661" lon="11.52068729497068"><ele>935.5</ele><time>2026-05-02T09:56:51.485Z</time></trkpt><trkpt lat="46.2864282292712" lon="11.520364541395441"><ele>969.0</ele><time>2026-05-02T09:56:52.485Z</time></trkpt><trkpt lat="46.28644447642605" lon="11.52003931213715"><ele>969.0</ele><time>2026-05-02T09:56:53.485Z</time></trkpt><trkpt lat="46.286449783862444" lon="11.519742634186217"><ele>969.0</ele><time>2026-05-02T09:56:54.485Z</time></trkpt><trkpt lat="46.286453787218136" lon="11.519476716251187"><ele>969.0</ele><time>2026-05-02T09:56:55.485Z</time></trkpt><trkpt lat="46.286457936276115" lon="11.519210538534532"><ele>968.6666666666667</ele><time>2026-05-02T09:56:56.485Z</time></trkpt><trkpt lat="46.28643480140009" lon="11.518944901754999"><ele>968.3333333333334</ele><time>2026-05-02T09:56:57.485Z</time></trkpt><trkpt lat="46.286433623799105" lon="11.518665868716019"><ele>968.0</ele><time>2026-05-02T09:56:58.485Z</time></trkpt><trkpt lat="46.28643170673028" lon="11.518371569019276"><ele>964.3333333333334</ele><time>2026-05-02T09:56:59.485Z</time></trkpt><trkpt lat="46.28641877681849" lon="11.518085512476631"><ele>960.6666666666667</ele><time>2026-05-02T09:57:00.485Z</time></trkpt><trkpt lat="46.28642524407121" lon="11.517794528526649"><ele>957.0</ele><time>2026-05-02T09:57:01.485Z</time></trkpt><trkpt lat="46.286450332394566" lon="11.51750357206428"><ele>957.0</ele><time>2026-05-02T09:57:02.485Z</time></trkpt><trkpt lat="46.28651516731837" lon="11.517201802993709"><ele>957.0</ele><time>2026-05-02T09:57:03.485Z</time></trkpt><trkpt lat="46.28658536525894" lon="11.516915576811297"><ele>957.0</ele><time>2026-05-02T09:57:04.485Z</time></trkpt><trkpt lat="46.28658581168103" lon="11.51666687767149"><ele>955.6666666666667</ele><time>2026-05-02T09:57:05.485Z</time></trkpt><trkpt lat="46.28666008458484" lon="11.516376763938613"><ele>954.3333333333334</ele><time>2026-05-02T09:57:06.485Z</time></trkpt><trkpt lat="46.28678186979465" lon="11.516090442334598"><ele>953.0</ele><time>2026-05-02T09:57:07.485Z</time></trkpt><trkpt lat="46.28688495425278" lon="11.515817716180491"><ele>951.6666666666667</ele><time>2026-05-02T09:57:08.485Z</time></trkpt><trkpt lat="46.28699199153904" lon="11.515544388872424"><ele>950.3333333333333</ele><time>2026-05-02T09:57:09.485Z</time></trkpt><trkpt lat="46.28710538974691" lon="11.515310874465678"><ele>949.0</ele><time>2026-05-02T09:57:10.485Z</time></trkpt><trkpt lat="46.28721761910627" lon="11.515106999158437"><ele>952.5</ele><time>2026-05-02T09:57:11.485Z</time></trkpt><trkpt lat="46.28732082229933" lon="11.514952031399295"><ele>956.0</ele><time>2026-05-02T09:57:12.485Z</time></trkpt><trkpt lat="46.28742963849991" lon="11.514811551567151"><ele>959.5</ele><time>2026-05-02T09:57:13.485Z</time></trkpt><trkpt lat="46.287539628714974" lon="11.514665155568764"><ele>963.0</ele><time>2026-05-02T09:57:14.485Z</time></trkpt><trkpt lat="46.287651382856104" lon="11.514555662166396"><ele>963.0</ele><time>2026-05-02T09:57:15.485Z</time></trkpt><trkpt lat="46.287739792656346" lon="11.514418553846356"><ele>963.0</ele><time>2026-05-02T09:57:16.485Z</time></trkpt><trkpt lat="46.287854646758525" lon="11.514344076913419"><ele>963.0</ele><time>2026-05-02T09:57:17.485Z</time></trkpt><trkpt lat="46.28792759968197" lon="11.51424815420936"><ele>963.0</ele><time>2026-05-02T09:57:18.485Z</time></trkpt><trkpt lat="46.287973409115935" lon="11.514113857045798"><ele>963.0</ele><time>2026-05-02T09:57:19.485Z</time></trkpt><trkpt lat="46.287966061380445" lon="11.513965259577855"><ele>963.0</ele><time>2026-05-02T09:57:20.485Z</time></trkpt><trkpt lat="46.28792025038674" lon="11.513820512132666"><ele>963.0</ele><time>2026-05-02T09:57:21.485Z</time></trkpt><trkpt lat="46.287867702157676" lon="11.513669464662968"><ele>963.0</ele><time>2026-05-02T09:57:22.485Z</time></trkpt><trkpt lat="46.287830199294646" lon="11.513541601326727"><ele>963.0</ele><time>2026-05-02T09:57:23.485Z</time></trkpt><trkpt lat="46.28783083984654" lon="11.513436515719572"><ele>965.4</ele><time>2026-05-02T09:57:24.485Z</time></trkpt><trkpt lat="46.28784215106835" lon="11.513338334324057"><ele>967.8</ele><time>2026-05-02T09:57:26.485Z</time></trkpt><trkpt lat="46.287913666215125" lon="11.513226056042553"><ele>970.2</ele><time>2026-05-02T09:57:40.485Z</time></trkpt><trkpt lat="46.28796680344143" lon="11.5131109210125"><ele>972.6</ele><time>2026-05-02T09:57:41.485Z</time></trkpt><trkpt lat="46.288002404917194" lon="11.512999117058481"><ele>975.0</ele><time>2026-05-02T09:57:42.485Z</time></trkpt><trkpt lat="46.28804623221841" lon="11.512866847772868"><ele>979.0</ele><time>2026-05-02T09:57:43.485Z</time></trkpt><trkpt lat="46.28810043889023" lon="11.512700335096962"><ele>983.0</ele><time>2026-05-02T09:57:44.485Z</time></trkpt><trkpt lat="46.28816397043827" lon="11.512525390300187"><ele>987.0</ele><time>2026-05-02T09:57:45.485Z</time></trkpt><trkpt lat="46.28822140078529" lon="11.512359811864664"><ele>991.0</ele><time>2026-05-02T09:57:46.485Z</time></trkpt><trkpt lat="46.28828730142764" lon="11.512185263510435"><ele>989.75</ele><time>2026-05-02T09:57:47.485Z</time></trkpt><trkpt lat="46.28835062196627" lon="11.512019880425894"><ele>988.5</ele><time>2026-05-02T09:57:48.485Z</time></trkpt><trkpt lat="46.28844221941752" lon="11.511832184181774"><ele>987.25</ele><time>2026-05-02T09:57:49.485Z</time></trkpt><trkpt lat="46.28852832743435" lon="11.511685318689718"><ele>986.0</ele><time>2026-05-02T09:57:50.485Z</time></trkpt><trkpt lat="46.28862253295193" lon="11.511560756572003"><ele>986.0</ele><time>2026-05-02T09:57:51.485Z</time></trkpt><trkpt lat="46.28871091477621" lon="11.511433757361186"><ele>986.0</ele><time>2026-05-02T09:57:52.485Z</time></trkpt><trkpt lat="46.2888241251084" lon="11.511345039096948"><ele>986.0</ele><time>2026-05-02T09:57:53.485Z</time></trkpt><trkpt lat="46.28893362711" lon="11.51125952586698"><ele>986.0</ele><time>2026-05-02T09:57:54.485Z</time></trkpt><trkpt lat="46.289038883298076" lon="11.511137858423902"><ele>987.5</ele><time>2026-05-02T09:57:55.485Z</time></trkpt><trkpt lat="46.28915081415375" lon="11.511032745854546"><ele>989.0</ele><time>2026-05-02T09:57:56.485Z</time></trkpt><trkpt lat="46.289228560677884" lon="11.510959974148369"><ele>990.5</ele><time>2026-05-02T09:57:57.485Z</time></trkpt><trkpt lat="46.28931573764328" lon="11.510881894569318"><ele>992.0</ele><time>2026-05-02T09:57:58.485Z</time></trkpt><trkpt lat="46.289409611591466" lon="11.510737036399592"><ele>992.0</ele><time>2026-05-02T09:57:59.485Z</time></trkpt><trkpt lat="46.289477321390144" lon="11.51059130485156"><ele>992.0</ele><time>2026-05-02T09:58:00.485Z</time></trkpt><trkpt lat="46.28948444791861" lon="11.510414106442285"><ele>992.0</ele><time>2026-05-02T09:58:01.485Z</time></trkpt><trkpt lat="46.28946587677648" lon="11.510256975316516"><ele>992.0</ele><time>2026-05-02T09:58:02.485Z</time></trkpt><trkpt lat="46.28947266947824" lon="11.510084801947329"><ele>992.25</ele><time>2026-05-02T09:58:03.485Z</time></trkpt><trkpt lat="46.28947173817086" lon="11.50989125755679"><ele>992.5</ele><time>2026-05-02T09:58:04.485Z</time></trkpt><trkpt lat="46.28947728912538" lon="11.50971164764026"><ele>992.75</ele><time>2026-05-02T09:58:05.485Z</time></trkpt><trkpt lat="46.28949127411488" lon="11.50952571898305"><ele>993.0</ele><time>2026-05-02T09:58:06.485Z</time></trkpt><trkpt lat="46.28951431334712" lon="11.509329531125069"><ele>991.5</ele><time>2026-05-02T09:58:07.485Z</time></trkpt><trkpt lat="46.28953454409914" lon="11.509151887103515"><ele>990.0</ele><time>2026-05-02T09:58:08.485Z</time></trkpt><trkpt lat="46.289584478272474" lon="11.50897468994236"><ele>988.5</ele><time>2026-05-02T09:58:09.485Z</time></trkpt><trkpt lat="46.289628639781135" lon="11.508797405110498"><ele>987.0</ele><time>2026-05-02T09:58:10.485Z</time></trkpt><trkpt lat="46.289631872447686" lon="11.50862410185389"><ele>985.2</ele><time>2026-05-02T09:58:11.485Z</time></trkpt><trkpt lat="46.289612892195116" lon="11.508428282506985"><ele>983.4000000000001</ele><time>2026-05-02T09:58:12.485Z</time></trkpt><trkpt lat="46.28961406334496" lon="11.508267260936718"><ele>981.5999999999999</ele><time>2026-05-02T09:58:13.485Z</time></trkpt><trkpt lat="46.28959742255424" lon="11.508138941669404"><ele>979.8</ele><time>2026-05-02T09:58:14.485Z</time></trkpt><trkpt lat="46.289641278089206" lon="11.508064657371502"><ele>978.0</ele><time>2026-05-02T09:58:15.485Z</time></trkpt><trkpt lat="46.2896931164063" lon="11.508004840805045"><ele>979.5</ele><time>2026-05-02T09:58:16.485Z</time></trkpt><trkpt lat="46.28983569263229" lon="11.507966563870998"><ele>981.0</ele><time>2026-05-02T09:58:17.485Z</time></trkpt><trkpt lat="46.289944697280376" lon="11.50796549923246"><ele>982.5</ele><time>2026-05-02T09:58:18.485Z</time></trkpt><trkpt lat="46.29004568549857" lon="11.507937113830055"><ele>984.0</ele><time>2026-05-02T09:58:19.485Z</time></trkpt><trkpt lat="46.290127370814915" lon="11.507859123682453"><ele>986.5</ele><time>2026-05-02T09:58:20.485Z</time></trkpt><trkpt lat="46.29021083245239" lon="11.507749240368392"><ele>989.0</ele><time>2026-05-02T09:58:21.485Z</time></trkpt><trkpt lat="46.290274246370466" lon="11.507611158141737"><ele>991.5</ele><time>2026-05-02T09:58:22.485Z</time></trkpt><trkpt lat="46.29036370149741" lon="11.507455568501216"><ele>994.0</ele><time>2026-05-02T09:58:23.485Z</time></trkpt><trkpt lat="46.29050931773549" lon="11.507332237011372"><ele>996.0</ele><time>2026-05-02T09:58:24.485Z</time></trkpt><trkpt lat="46.29069355947907" lon="11.50723368855758"><ele>998.0</ele><time>2026-05-02T09:58:25.485Z</time></trkpt><trkpt lat="46.2908949604656" lon="11.507137289122273"><ele>1000.0</ele><time>2026-05-02T09:58:26.485Z</time></trkpt><trkpt lat="46.291078352153555" lon="11.50703860052177"><ele>1000.0</ele><time>2026-05-02T09:58:27.485Z</time></trkpt><trkpt lat="46.29124431278986" lon="11.506934583506208"><ele>1000.0</ele><time>2026-05-02T09:58:28.485Z</time></trkpt><trkpt lat="46.29139017476996" lon="11.506796709031743"><ele>1000.0</ele><time>2026-05-02T09:58:29.485Z</time></trkpt><trkpt lat="46.29154119454243" lon="11.50661661963129"><ele>998.6666666666666</ele><time>2026-05-02T09:58:30.485Z</time></trkpt><trkpt lat="46.29168860493793" lon="11.5064510788317"><ele>997.3333333333333</ele><time>2026-05-02T09:58:31.485Z</time></trkpt><trkpt lat="46.29186961624479" lon="11.506181770719984"><ele>996.0</ele><time>2026-05-02T09:58:32.485Z</time></trkpt><trkpt lat="46.29202870174817" lon="11.505951452006785"><ele>998.6666666666667</ele><time>2026-05-02T09:58:33.485Z</time></trkpt><trkpt lat="46.292173546412556" lon="11.505733277536233"><ele>1001.3333333333334</ele><time>2026-05-02T09:58:34.485Z</time></trkpt><trkpt lat="46.29231435598946" lon="11.505530975098038"><ele>1004.0</ele><time>2026-05-02T09:58:35.485Z</time></trkpt><trkpt lat="46.29246736403519" lon="11.50536399674209"><ele>1009.6666666666667</ele><time>2026-05-02T09:58:36.486Z</time></trkpt><trkpt lat="46.29263078789566" lon="11.505224767203652"><ele>1015.3333333333333</ele><time>2026-05-02T09:58:37.486Z</time></trkpt><trkpt lat="46.29283896346466" lon="11.505106027535227"><ele>1021.0</ele><time>2026-05-02T09:58:38.486Z</time></trkpt><trkpt lat="46.29305374316258" lon="11.505026612447095"><ele>1018.6666666666666</ele><time>2026-05-02T09:58:39.486Z</time></trkpt><trkpt lat="46.293274837757835" lon="11.504972560408294"><ele>1016.3333333333333</ele><time>2026-05-02T09:58:40.486Z</time></trkpt><trkpt lat="46.29349612228439" lon="11.504966101089787"><ele>1014.0</ele><time>2026-05-02T09:58:41.486Z</time></trkpt><trkpt lat="46.293731879367435" lon="11.505006734313968"><ele>1015.0</ele><time>2026-05-02T09:58:42.486Z</time></trkpt><trkpt lat="46.293977516944864" lon="11.505064177619834"><ele>1016.0</ele><time>2026-05-02T09:58:43.486Z</time></trkpt><trkpt lat="46.294230580272846" lon="11.505116816560625"><ele>1016.0</ele><time>2026-05-02T09:58:44.486Z</time></trkpt><trkpt lat="46.29446236223844" lon="11.505173502005803"><ele>1016.0</ele><time>2026-05-02T09:58:45.486Z</time></trkpt><trkpt lat="46.294637347438616" lon="11.505184379455097"><ele>1016.0</ele><time>2026-05-02T09:58:46.486Z</time></trkpt><trkpt lat="46.2947828263063" lon="11.505157194989469"><ele>1017.3333333333334</ele><time>2026-05-02T09:58:47.486Z</time></trkpt><trkpt lat="46.29495239508797" lon="11.505079806932313"><ele>1018.6666666666667</ele><time>2026-05-02T09:58:48.486Z</time></trkpt><trkpt lat="46.295127378028475" lon="11.504926006472061"><ele>1020.0</ele><time>2026-05-02T09:58:49.486Z</time></trkpt><trkpt lat="46.2952973918279" lon="11.50477930461144"><ele>1020.0</ele><time>2026-05-02T09:58:50.486Z</time></trkpt><trkpt lat="46.295470102772164" lon="11.50461486510364"><ele>1020.0</ele><time>2026-05-02T09:58:51.486Z</time></trkpt><trkpt lat="46.295653610674094" lon="11.50452805971628"><ele>1020.0</ele><time>2026-05-02T09:58:52.486Z</time></trkpt><trkpt lat="46.29585571874455" lon="11.504489529651252"><ele>1026.0</ele><time>2026-05-02T09:58:53.486Z</time></trkpt><trkpt lat="46.29606951128289" lon="11.504450438869961"><ele>1032.0</ele><time>2026-05-02T09:58:54.486Z</time></trkpt><trkpt lat="46.29623133309044" lon="11.504435228472833"><ele>1038.0</ele><time>2026-05-02T09:58:55.486Z</time></trkpt><trkpt lat="46.296355131415304" lon="11.504407421279792"><ele>1037.5</ele><time>2026-05-02T09:58:56.486Z</time></trkpt><trkpt lat="46.296470368621264" lon="11.504402206181938"><ele>1037.0</ele><time>2026-05-02T09:58:57.486Z</time></trkpt><trkpt lat="46.29661549996275" lon="11.504451883611889"><ele>1036.5</ele><time>2026-05-02T09:58:58.486Z</time></trkpt><trkpt lat="46.29670990099474" lon="11.50456060731666"><ele>1036.0</ele><time>2026-05-02T09:58:59.486Z</time></trkpt><trkpt lat="46.296767486927465" lon="11.504727331441291"><ele>1036.0</ele><time>2026-05-02T09:59:00.486Z</time></trkpt><trkpt lat="46.29681591215907" lon="11.50484946118159"><ele>1036.0</ele><time>2026-05-02T09:59:01.486Z</time></trkpt><trkpt lat="46.29680293227693" lon="11.505055720285448"><ele>1036.0</ele><time>2026-05-02T09:59:02.486Z</time></trkpt><trkpt lat="46.296752839109345" lon="11.505238952657391"><ele>1036.0</ele><time>2026-05-02T09:59:03.486Z</time></trkpt><trkpt lat="46.29664518588542" lon="11.505390856958137"><ele>1035.6</ele><time>2026-05-02T09:59:04.486Z</time></trkpt><trkpt lat="46.29656490961568" lon="11.505539462730072"><ele>1035.1999999999998</ele><time>2026-05-02T09:59:05.486Z</time></trkpt><trkpt lat="46.296497152797855" lon="11.505632031487083"><ele>1034.8000000000002</ele><time>2026-05-02T09:59:06.486Z</time></trkpt><trkpt lat="46.296431717891025" lon="11.505736536397938"><ele>1034.4</ele><time>2026-05-02T09:59:07.486Z</time></trkpt><trkpt lat="46.296366717706086" lon="11.505844003284027"><ele>1034.0</ele><time>2026-05-02T09:59:08.486Z</time></trkpt><trkpt lat="46.29637009993082" lon="11.505984010836022"><ele>1034.0</ele><time>2026-05-02T09:59:09.486Z</time></trkpt><trkpt lat="46.29641385455598" lon="11.506121579131579"><ele>1034.0</ele><time>2026-05-02T09:59:10.486Z</time></trkpt><trkpt lat="46.296510274717484" lon="11.506214930433078"><ele>1034.0</ele><time>2026-05-02T09:59:11.486Z</time></trkpt><trkpt lat="46.296635121138785" lon="11.506241241512955"><ele>1034.0</ele><time>2026-05-02T09:59:12.486Z</time></trkpt><trkpt lat="46.29677054823212" lon="11.50619974346371"><ele>1037.0</ele><time>2026-05-02T09:59:13.486Z</time></trkpt><trkpt lat="46.29692824679982" lon="11.50617187591609"><ele>1040.0</ele><time>2026-05-02T09:59:14.486Z</time></trkpt><trkpt lat="46.297102848885665" lon="11.506185166464238"><ele>1043.0</ele><time>2026-05-02T09:59:15.486Z</time></trkpt><trkpt lat="46.29730806709149" lon="11.506200992718432"><ele>1047.0</ele><time>2026-05-02T09:59:16.486Z</time></trkpt><trkpt lat="46.29753337179143" lon="11.50621110790129"><ele>1051.0</ele><time>2026-05-02T09:59:17.486Z</time></trkpt><trkpt lat="46.29777021049053" lon="11.506248471281353"><ele>1056.0</ele><time>2026-05-02T09:59:18.486Z</time></trkpt><trkpt lat="46.298047367204276" lon="11.506267223875316"><ele>1061.0</ele><time>2026-05-02T09:59:19.486Z</time></trkpt><trkpt lat="46.298315005165136" lon="11.506231137206077"><ele>1061.0</ele><time>2026-05-02T09:59:20.486Z</time></trkpt><trkpt lat="46.29856234046118" lon="11.506191407567341"><ele>1061.0</ele><time>2026-05-02T09:59:21.486Z</time></trkpt><trkpt lat="46.29881851926234" lon="11.506151277396587"><ele>1065.3333333333335</ele><time>2026-05-02T09:59:22.486Z</time></trkpt><trkpt lat="46.299028303212566" lon="11.506118414941785"><ele>1069.6666666666667</ele><time>2026-05-02T09:59:23.486Z</time></trkpt><trkpt lat="46.299221713296305" lon="11.506086056503298"><ele>1074.0</ele><time>2026-05-02T09:59:24.486Z</time></trkpt><trkpt lat="46.299398718755455" lon="11.506039046545752"><ele>1074.0</ele><time>2026-05-02T09:59:25.486Z</time></trkpt><trkpt lat="46.29957463869757" lon="11.505974495694558"><ele>1074.0</ele><time>2026-05-02T09:59:26.486Z</time></trkpt><trkpt lat="46.29976087970419" lon="11.505906042125963"><ele>1074.0</ele><time>2026-05-02T09:59:27.486Z</time></trkpt><trkpt lat="46.29996380035813" lon="11.505872038611324"><ele>1081.5</ele><time>2026-05-02T09:59:28.486Z</time></trkpt><trkpt lat="46.300184218434644" lon="11.505868215798504"><ele>1089.0</ele><time>2026-05-02T09:59:29.486Z</time></trkpt><trkpt lat="46.30041999017051" lon="11.50589868062836"><ele>1094.6666666666667</ele><time>2026-05-02T09:59:30.486Z</time></trkpt><trkpt lat="46.300634996302584" lon="11.505890779169452"><ele>1100.3333333333335</ele><time>2026-05-02T09:59:31.486Z</time></trkpt><trkpt lat="46.30083744420022" lon="11.505849502841333"><ele>1106.0</ele><time>2026-05-02T09:59:32.486Z</time></trkpt><trkpt lat="46.301059205738376" lon="11.505776000344978"><ele>1106.0</ele><time>2026-05-02T09:59:33.486Z</time></trkpt><trkpt lat="46.30129615229952" lon="11.50562607460464"><ele>1106.0</ele><time>2026-05-02T09:59:34.486Z</time></trkpt><trkpt lat="46.30153153736909" lon="11.50552898070517"><ele>1105.5</ele><time>2026-05-02T09:59:35.486Z</time></trkpt><trkpt lat="46.301773827738856" lon="11.505423166285631"><ele>1105.0</ele><time>2026-05-02T09:59:36.486Z</time></trkpt><trkpt lat="46.301985067169966" lon="11.505351707150124"><ele>1105.0</ele><time>2026-05-02T09:59:37.486Z</time></trkpt><trkpt lat="46.30218517338459" lon="11.505289782167457"><ele>1105.0</ele><time>2026-05-02T09:59:38.486Z</time></trkpt><trkpt lat="46.302378052559774" lon="11.505206528717446"><ele>1105.0</ele><time>2026-05-02T09:59:39.486Z</time></trkpt><trkpt lat="46.30258312073095" lon="11.505169497702475"><ele>1109.6666666666665</ele><time>2026-05-02T09:59:40.486Z</time></trkpt><trkpt lat="46.30279897197257" lon="11.505096117350034"><ele>1114.3333333333333</ele><time>2026-05-02T09:59:41.486Z</time></trkpt><trkpt lat="46.30300708253508" lon="11.50503427925805"><ele>1119.0</ele><time>2026-05-02T09:59:42.486Z</time></trkpt><trkpt lat="46.3032240833556" lon="11.504973948788958"><ele>1123.0</ele><time>2026-05-02T09:59:43.486Z</time></trkpt><trkpt lat="46.30343520812455" lon="11.504927750777634"><ele>1127.0</ele><time>2026-05-02T09:59:44.486Z</time></trkpt><trkpt lat="46.30365834418145" lon="11.50489780470824"><ele>1131.0</ele><time>2026-05-02T09:59:45.486Z</time></trkpt><trkpt lat="46.303885884848825" lon="11.504883121146566"><ele>1135.6666666666667</ele><time>2026-05-02T09:59:46.486Z</time></trkpt><trkpt lat="46.30408789688291" lon="11.504844368780148"><ele>1140.3333333333335</ele><time>2026-05-02T09:59:47.486Z</time></trkpt><trkpt lat="46.30427441041302" lon="11.504819180538032"><ele>1145.0</ele><time>2026-05-02T09:59:48.486Z</time></trkpt><trkpt lat="46.30442114592519" lon="11.504821002919687"><ele>1145.0</ele><time>2026-05-02T09:59:49.486Z</time></trkpt><trkpt lat="46.30462029091086" lon="11.504851507977468"><ele>1145.0</ele><time>2026-05-02T09:59:50.486Z</time></trkpt><trkpt lat="46.30483256802217" lon="11.504895784061821"><ele>1145.0</ele><time>2026-05-02T09:59:51.486Z</time></trkpt><trkpt lat="46.305059434526804" lon="11.504954594136175"><ele>1143.0</ele><time>2026-05-02T09:59:52.486Z</time></trkpt><trkpt lat="46.30529675677489" lon="11.505010145380224"><ele>1141.0</ele><time>2026-05-02T09:59:53.486Z</time></trkpt><trkpt lat="46.30552640590927" lon="11.505015137180559"><ele>1142.0</ele><time>2026-05-02T09:59:54.486Z</time></trkpt><trkpt lat="46.305745763871926" lon="11.505029889497147"><ele>1143.0</ele><time>2026-05-02T09:59:55.486Z</time></trkpt><trkpt lat="46.305946199817484" lon="11.505006530078452"><ele>1144.0</ele><time>2026-05-02T09:59:56.486Z</time></trkpt><trkpt lat="46.30615786052848" lon="11.505033804622775"><ele>1144.0</ele><time>2026-05-02T09:59:57.486Z</time></trkpt><trkpt lat="46.30636405530323" lon="11.505042058975627"><ele>1144.0</ele><time>2026-05-02T09:59:58.486Z</time></trkpt><trkpt lat="46.30656636778572" lon="11.505064968812379"><ele>1144.0</ele><time>2026-05-02T09:59:59.486Z</time></trkpt><trkpt lat="46.306770514441304" lon="11.505100594963263"><ele>1147.3333333333333</ele><time>2026-05-02T10:00:00.486Z</time></trkpt><trkpt lat="46.30697849437368" lon="11.50512014291503"><ele>1150.6666666666667</ele><time>2026-05-02T10:00:01.486Z</time></trkpt><trkpt lat="46.307184613427786" lon="11.505118891743177"><ele>1154.0</ele><time>2026-05-02T10:00:02.486Z</time></trkpt><trkpt lat="46.30737245084545" lon="11.505129432390923"><ele>1156.3333333333335</ele><time>2026-05-02T10:00:03.486Z</time></trkpt><trkpt lat="46.307543637765875" lon="11.505152469806097"><ele>1158.6666666666667</ele><time>2026-05-02T10:00:04.486Z</time></trkpt><trkpt lat="46.30772156232363" lon="11.505158911616878"><ele>1161.0</ele><time>2026-05-02T10:00:05.486Z</time></trkpt><trkpt lat="46.307902928976354" lon="11.5052229309635"><ele>1161.6666666666667</ele><time>2026-05-02T10:00:06.486Z</time></trkpt><trkpt lat="46.30809598760269" lon="11.505289578523872"><ele>1162.3333333333335</ele><time>2026-05-02T10:00:07.486Z</time></trkpt><trkpt lat="46.308299739613716" lon="11.505364972836789"><ele>1163.0</ele><time>2026-05-02T10:00:08.486Z</time></trkpt><trkpt lat="46.30850771898052" lon="11.505438680684708"><ele>1171.6666666666667</ele><time>2026-05-02T10:00:09.486Z</time></trkpt><trkpt lat="46.30872813574241" lon="11.505501937605388"><ele>1180.3333333333333</ele><time>2026-05-02T10:00:10.486Z</time></trkpt><trkpt lat="46.30893364135918" lon="11.50551345607948"><ele>1189.0</ele><time>2026-05-02T10:00:11.486Z</time></trkpt><trkpt lat="46.30914742384331" lon="11.505456789090593"><ele>1189.3333333333333</ele><time>2026-05-02T10:00:12.486Z</time></trkpt><trkpt lat="46.309367499477126" lon="11.505397312742588"><ele>1189.6666666666667</ele><time>2026-05-02T10:00:13.486Z</time></trkpt><trkpt lat="46.30958513915235" lon="11.505359480977804"><ele>1190.0</ele><time>2026-05-02T10:00:14.486Z</time></trkpt><trkpt lat="46.30977465714075" lon="11.505202845332919"><ele>1190.0</ele><time>2026-05-02T10:00:15.486Z</time></trkpt><trkpt lat="46.30996132581384" lon="11.50515989901225"><ele>1190.0</ele><time>2026-05-02T10:00:16.486Z</time></trkpt><trkpt lat="46.310141602869784" lon="11.505127691646411"><ele>1190.0</ele><time>2026-05-02T10:00:17.486Z</time></trkpt><trkpt lat="46.310309967533435" lon="11.50508649545325"><ele>1190.0</ele><time>2026-05-02T10:00:18.486Z</time></trkpt><trkpt lat="46.310503959160954" lon="11.505056820460043"><ele>1190.0</ele><time>2026-05-02T10:00:19.486Z</time></trkpt><trkpt lat="46.310706288418814" lon="11.505006780787435"><ele>1190.0</ele><time>2026-05-02T10:00:20.486Z</time></trkpt><trkpt lat="46.31092008137644" lon="11.504966422064363"><ele>1197.0</ele><time>2026-05-02T10:00:21.486Z</time></trkpt><trkpt lat="46.31113704159272" lon="11.504927318254225"><ele>1204.0</ele><time>2026-05-02T10:00:22.486Z</time></trkpt><trkpt lat="46.31136570596355" lon="11.504872117341321"><ele>1208.6666666666665</ele><time>2026-05-02T10:00:23.486Z</time></trkpt><trkpt lat="46.31157809886226" lon="11.504827220952203"><ele>1213.3333333333333</ele><time>2026-05-02T10:00:24.486Z</time></trkpt><trkpt lat="46.311777655536076" lon="11.504787782956202"><ele>1218.0</ele><time>2026-05-02T10:00:25.486Z</time></trkpt><trkpt lat="46.311962553568534" lon="11.50474409502724"><ele>1218.0</ele><time>2026-05-02T10:00:26.486Z</time></trkpt><trkpt lat="46.312118720511386" lon="11.504713604124627"><ele>1218.0</ele><time>2026-05-02T10:00:27.486Z</time></trkpt><trkpt lat="46.312275837872704" lon="11.504676917706583"><ele>1218.0</ele><time>2026-05-02T10:00:28.486Z</time></trkpt><trkpt lat="46.31241885358686" lon="11.504649691722332"><ele>1220.6666666666667</ele><time>2026-05-02T10:00:29.486Z</time></trkpt><trkpt lat="46.31257774764303" lon="11.504629205734824"><ele>1223.3333333333335</ele><time>2026-05-02T10:00:30.486Z</time></trkpt><trkpt lat="46.31275818318301" lon="11.504588717266413"><ele>1226.0</ele><time>2026-05-02T10:00:31.486Z</time></trkpt><trkpt lat="46.312949654029026" lon="11.504518511262985"><ele>1220.0</ele><time>2026-05-02T10:00:32.486Z</time></trkpt><trkpt lat="46.31315090482257" lon="11.504462348414814"><ele>1214.0</ele><time>2026-05-02T10:00:33.486Z</time></trkpt><trkpt lat="46.31334895699647" lon="11.504380359323976"><ele>1208.0</ele><time>2026-05-02T10:00:34.486Z</time></trkpt><trkpt lat="46.313564917711055" lon="11.504258368596629"><ele>1208.0</ele><time>2026-05-02T10:00:35.486Z</time></trkpt><trkpt lat="46.313787457787534" lon="11.504123419671096"><ele>1208.0</ele><time>2026-05-02T10:00:36.486Z</time></trkpt><trkpt lat="46.31401838524063" lon="11.503975551390694"><ele>1217.5</ele><time>2026-05-02T10:00:37.486Z</time></trkpt><trkpt lat="46.314265546271855" lon="11.50388492912696"><ele>1227.0</ele><time>2026-05-02T10:00:38.486Z</time></trkpt><trkpt lat="46.314519639590586" lon="11.503807153203756"><ele>1224.0</ele><time>2026-05-02T10:00:39.486Z</time></trkpt><trkpt lat="46.31479559075579" lon="11.503740558496723"><ele>1221.0</ele><time>2026-05-02T10:00:40.486Z</time></trkpt><trkpt lat="46.3150686384436" lon="11.503659678476732"><ele>1221.0</ele><time>2026-05-02T10:00:41.486Z</time></trkpt><trkpt lat="46.31530478506215" lon="11.503598606794618"><ele>1221.0</ele><time>2026-05-02T10:00:42.487Z</time></trkpt><trkpt lat="46.31553676004364" lon="11.503523504845496"><ele>1227.0</ele><time>2026-05-02T10:00:43.487Z</time></trkpt><trkpt lat="46.315767921070794" lon="11.503459092176216"><ele>1233.0</ele><time>2026-05-02T10:00:44.487Z</time></trkpt><trkpt lat="46.315999885708656" lon="11.503382690321466"><ele>1233.0</ele><time>2026-05-02T10:00:45.487Z</time></trkpt><trkpt lat="46.316230766622375" lon="11.503252969702281"><ele>1233.0</ele><time>2026-05-02T10:00:46.487Z</time></trkpt><trkpt lat="46.31646663425206" lon="11.503046311069081"><ele>1237.0</ele><time>2026-05-02T10:00:47.487Z</time></trkpt><trkpt lat="46.31666986934683" lon="11.502826133014931"><ele>1241.0</ele><time>2026-05-02T10:00:48.487Z</time></trkpt><trkpt lat="46.31685808207388" lon="11.502622210345178"><ele>1241.0</ele><time>2026-05-02T10:00:49.487Z</time></trkpt><trkpt lat="46.31702764092122" lon="11.502411489011024"><ele>1241.0</ele><time>2026-05-02T10:00:50.487Z</time></trkpt><trkpt lat="46.31720117095523" lon="11.502245644899611"><ele>1241.0</ele><time>2026-05-02T10:00:51.487Z</time></trkpt><trkpt lat="46.31737785341412" lon="11.502081664140801"><ele>1242.3333333333335</ele><time>2026-05-02T10:00:52.487Z</time></trkpt><trkpt lat="46.317587725713054" lon="11.501971631633639"><ele>1243.6666666666667</ele><time>2026-05-02T10:00:53.487Z</time></trkpt><trkpt lat="46.31780265836909" lon="11.501869184509538"><ele>1245.0</ele><time>2026-05-02T10:00:54.487Z</time></trkpt><trkpt lat="46.318035683880744" lon="11.501757717432554"><ele>1250.0</ele><time>2026-05-02T10:00:55.487Z</time></trkpt><trkpt lat="46.31824782092604" lon="11.501645761988076"><ele>1255.0</ele><time>2026-05-02T10:00:56.487Z</time></trkpt><trkpt lat="46.31845205455244" lon="11.501569184818601"><ele>1260.0</ele><time>2026-05-02T10:00:57.487Z</time></trkpt><trkpt lat="46.31866213685334" lon="11.501505043986231"><ele>1260.0</ele><time>2026-05-02T10:00:58.487Z</time></trkpt><trkpt lat="46.318860546769486" lon="11.501477289254467"><ele>1260.0</ele><time>2026-05-02T10:00:59.487Z</time></trkpt><trkpt lat="46.31904667707535" lon="11.501484032223587"><ele>1260.0</ele><time>2026-05-02T10:01:00.487Z</time></trkpt><trkpt lat="46.31923165832818" lon="11.501498752210246"><ele>1263.3333333333333</ele><time>2026-05-02T10:01:01.487Z</time></trkpt><trkpt lat="46.31943126964448" lon="11.501544724908726"><ele>1266.6666666666665</ele><time>2026-05-02T10:01:02.487Z</time></trkpt><trkpt lat="46.31963516761889" lon="11.50157102337719"><ele>1270.0</ele><time>2026-05-02T10:01:03.487Z</time></trkpt><trkpt lat="46.319851825223196" lon="11.501584249144397"><ele>1272.3333333333333</ele><time>2026-05-02T10:01:04.487Z</time></trkpt><trkpt lat="46.32008317887977" lon="11.501603883084787"><ele>1274.6666666666667</ele><time>2026-05-02T10:01:05.487Z</time></trkpt><trkpt lat="46.320292570539536" lon="11.501653885429642"><ele>1277.0</ele><time>2026-05-02T10:01:06.487Z</time></trkpt><trkpt lat="46.32047456928791" lon="11.501753610247567"><ele>1278.75</ele><time>2026-05-02T10:01:07.487Z</time></trkpt><trkpt lat="46.32061473481672" lon="11.501805818227824"><ele>1280.5</ele><time>2026-05-02T10:01:08.487Z</time></trkpt><trkpt lat="46.32073457311335" lon="11.501832287725144"><ele>1282.25</ele><time>2026-05-02T10:01:09.487Z</time></trkpt><trkpt lat="46.320843931011716" lon="11.501747238272483"><ele>1284.0</ele><time>2026-05-02T10:01:10.487Z</time></trkpt><trkpt lat="46.32095817617179" lon="11.501583960211873"><ele>1284.0</ele><time>2026-05-02T10:01:11.487Z</time></trkpt><trkpt lat="46.32107149393078" lon="11.501434437524745"><ele>1284.0</ele><time>2026-05-02T10:01:12.487Z</time></trkpt><trkpt lat="46.32118764609681" lon="11.501249283988319"><ele>1284.0</ele><time>2026-05-02T10:01:13.487Z</time></trkpt><trkpt lat="46.32129538075909" lon="11.501109532171013"><ele>1283.75</ele><time>2026-05-02T10:01:14.487Z</time></trkpt><trkpt lat="46.3213584069081" lon="11.500978942735012"><ele>1283.5</ele><time>2026-05-02T10:01:15.487Z</time></trkpt><trkpt lat="46.32136496014548" lon="11.500779256523542"><ele>1283.25</ele><time>2026-05-02T10:01:16.487Z</time></trkpt><trkpt lat="46.32130378450963" lon="11.50059707131424"><ele>1283.0</ele><time>2026-05-02T10:01:17.487Z</time></trkpt><trkpt lat="46.32122668853559" lon="11.50043452783647"><ele>1290.0</ele><time>2026-05-02T10:01:18.487Z</time></trkpt><trkpt lat="46.32109363580796" lon="11.500279136853695"><ele>1297.0</ele><time>2026-05-02T10:01:19.487Z</time></trkpt><trkpt lat="46.32095185309105" lon="11.500144962496941"><ele>1304.0</ele><time>2026-05-02T10:01:20.487Z</time></trkpt><trkpt lat="46.32077258915796" lon="11.49999293779824"><ele>1304.0</ele><time>2026-05-02T10:01:21.487Z</time></trkpt><trkpt lat="46.32063800782325" lon="11.499859466070893"><ele>1304.0</ele><time>2026-05-02T10:01:22.487Z</time></trkpt><trkpt lat="46.320515146673465" lon="11.499705972710741"><ele>1304.0</ele><time>2026-05-02T10:01:23.487Z</time></trkpt><trkpt lat="46.320417444250104" lon="11.499494462326757"><ele>1304.0</ele><time>2026-05-02T10:01:24.487Z</time></trkpt><trkpt lat="46.320307405990995" lon="11.499295352596116"><ele>1304.0</ele><time>2026-05-02T10:01:25.487Z</time></trkpt><trkpt lat="46.320204777411384" lon="11.499103465269553"><ele>1304.0</ele><time>2026-05-02T10:01:26.487Z</time></trkpt><trkpt lat="46.32012741070323" lon="11.498949615867224"><ele>1304.0</ele><time>2026-05-02T10:01:27.487Z</time></trkpt><trkpt lat="46.32007682259374" lon="11.498813517381542"><ele>1304.0</ele><time>2026-05-02T10:01:28.487Z</time></trkpt><trkpt lat="46.32008464276302" lon="11.498634185023295"><ele>1304.0</ele><time>2026-05-02T10:01:29.487Z</time></trkpt><trkpt lat="46.32010769506917" lon="11.49840603679704"><ele>1304.0</ele><time>2026-05-02T10:01:30.487Z</time></trkpt><trkpt lat="46.320125251527195" lon="11.49818348892155"><ele>1307.0</ele><time>2026-05-02T10:01:31.487Z</time></trkpt><trkpt lat="46.32009296917818" lon="11.497930924100624"><ele>1310.0</ele><time>2026-05-02T10:01:32.487Z</time></trkpt><trkpt lat="46.31996667298542" lon="11.497710263020018"><ele>1313.0</ele><time>2026-05-02T10:01:33.487Z</time></trkpt><trkpt lat="46.319870719296645" lon="11.497500716102367"><ele>1313.6666666666667</ele><time>2026-05-02T10:01:34.487Z</time></trkpt><trkpt lat="46.31980390522646" lon="11.49728106223308"><ele>1314.3333333333333</ele><time>2026-05-02T10:01:35.487Z</time></trkpt><trkpt lat="46.31978383269868" lon="11.497032971801781"><ele>1315.0</ele><time>2026-05-02T10:01:36.487Z</time></trkpt><trkpt lat="46.319783927525" lon="11.496782321358506"><ele>1315.2</ele><time>2026-05-02T10:01:37.487Z</time></trkpt><trkpt lat="46.31980847165183" lon="11.496643513431426"><ele>1315.4</ele><time>2026-05-02T10:01:38.487Z</time></trkpt><trkpt lat="46.31985378398112" lon="11.496532927868712"><ele>1315.6</ele><time>2026-05-02T10:01:39.487Z</time></trkpt><trkpt lat="46.31996118534207" lon="11.496517127706896"><ele>1315.8</ele><time>2026-05-02T10:01:40.487Z</time></trkpt><trkpt lat="46.3200626770544" lon="11.496550184138128"><ele>1316.0</ele><time>2026-05-02T10:01:41.487Z</time></trkpt><trkpt lat="46.320185443843194" lon="11.496552748752938"><ele>1316.0</ele><time>2026-05-02T10:01:42.487Z</time></trkpt><trkpt lat="46.320344006856125" lon="11.496556061165597"><ele>1316.0</ele><time>2026-05-02T10:01:43.487Z</time></trkpt><trkpt lat="46.32052982272702" lon="11.496541615208288"><ele>1316.0</ele><time>2026-05-02T10:01:44.487Z</time></trkpt><trkpt lat="46.320711079409335" lon="11.49655865241214"><ele>1322.25</ele><time>2026-05-02T10:01:45.487Z</time></trkpt><trkpt lat="46.320871871712434" lon="11.49654206580124"><ele>1328.5</ele><time>2026-05-02T10:01:46.487Z</time></trkpt><trkpt lat="46.320999378500716" lon="11.496568333204952"><ele>1334.75</ele><time>2026-05-02T10:01:47.487Z</time></trkpt><trkpt lat="46.321099890722984" lon="11.496607005918307"><ele>1341.0</ele><time>2026-05-02T10:01:48.487Z</time></trkpt><trkpt lat="46.32119042611263" lon="11.496682678608819"><ele>1341.0</ele><time>2026-05-02T10:01:49.487Z</time></trkpt><trkpt lat="46.321257639228314" lon="11.49684171715159"><ele>1341.0</ele><time>2026-05-02T10:01:50.487Z</time></trkpt><trkpt lat="46.321287613655535" lon="11.497018278850252"><ele>1341.0</ele><time>2026-05-02T10:01:51.487Z</time></trkpt><trkpt lat="46.321308345935904" lon="11.497162639916214"><ele>1341.0</ele><time>2026-05-02T10:01:52.487Z</time></trkpt><trkpt lat="46.32135903584125" lon="11.497280267875922"><ele>1346.25</ele><time>2026-05-02T10:01:53.487Z</time></trkpt><trkpt lat="46.32143253211576" lon="11.497384058622025"><ele>1351.5</ele><time>2026-05-02T10:01:54.487Z</time></trkpt><trkpt lat="46.32153620780488" lon="11.497372634613027"><ele>1356.75</ele><time>2026-05-02T10:01:55.487Z</time></trkpt><trkpt lat="46.32163210905626" lon="11.497205262654639"><ele>1362.0</ele><time>2026-05-02T10:01:56.487Z</time></trkpt><trkpt lat="46.321632740529665" lon="11.496963719564757"><ele>1362.0</ele><time>2026-05-02T10:01:57.487Z</time></trkpt><trkpt lat="46.321644503334475" lon="11.496818608648399"><ele>1362.0</ele><time>2026-05-02T10:01:58.487Z</time></trkpt><trkpt lat="46.321660465094446" lon="11.496616854460143"><ele>1362.0</ele><time>2026-05-02T10:01:59.487Z</time></trkpt><trkpt lat="46.32167769734741" lon="11.496369578114884"><ele>1362.0</ele><time>2026-05-02T10:02:00.487Z</time></trkpt><trkpt lat="46.321683007959756" lon="11.49610896279276"><ele>1362.6666666666667</ele><time>2026-05-02T10:02:01.487Z</time></trkpt><trkpt lat="46.321668324024756" lon="11.495817740819419"><ele>1363.3333333333335</ele><time>2026-05-02T10:02:02.487Z</time></trkpt><trkpt lat="46.32165953944833" lon="11.495560660193558"><ele>1364.0</ele><time>2026-05-02T10:02:03.487Z</time></trkpt><trkpt lat="46.32169401227195" lon="11.495294705053624"><ele>1366.0</ele><time>2026-05-02T10:02:04.487Z</time></trkpt><trkpt lat="46.32176721061909" lon="11.49501057037382"><ele>1368.0</ele><time>2026-05-02T10:02:05.487Z</time></trkpt><trkpt lat="46.321838387693155" lon="11.494715808099793"><ele>1370.0</ele><time>2026-05-02T10:02:06.487Z</time></trkpt><trkpt lat="46.3218596634188" lon="11.49443884907193"><ele>1373.3333333333335</ele><time>2026-05-02T10:02:07.487Z</time></trkpt><trkpt lat="46.32184109194984" lon="11.49418543728513"><ele>1376.6666666666667</ele><time>2026-05-02T10:02:08.487Z</time></trkpt><trkpt lat="46.32178707226922" lon="11.49389715167515"><ele>1380.0</ele><time>2026-05-02T10:02:09.487Z</time></trkpt><trkpt lat="46.321749293740446" lon="11.493622056649135"><ele>1384.3333333333333</ele><time>2026-05-02T10:02:10.487Z</time></trkpt><trkpt lat="46.32174476602725" lon="11.49334052035061"><ele>1388.6666666666665</ele><time>2026-05-02T10:02:11.487Z</time></trkpt><trkpt lat="46.32175664550769" lon="11.493088116540461"><ele>1393.0</ele><time>2026-05-02T10:02:12.487Z</time></trkpt><trkpt lat="46.32177982019565" lon="11.492876763115953"><ele>1394.2</ele><time>2026-05-02T10:02:13.487Z</time></trkpt><trkpt lat="46.32178646941064" lon="11.4927149225974"><ele>1395.4</ele><time>2026-05-02T10:02:14.487Z</time></trkpt><trkpt lat="46.32176941176129" lon="11.492590093837078"><ele>1396.6000000000001</ele><time>2026-05-02T10:02:15.487Z</time></trkpt><trkpt lat="46.321681340128315" lon="11.492480307400427"><ele>1397.8000000000002</ele><time>2026-05-02T10:02:16.487Z</time></trkpt><trkpt lat="46.32155233852691" lon="11.492456966325246"><ele>1399.0</ele><time>2026-05-02T10:02:17.487Z</time></trkpt><trkpt lat="46.3214116915629" lon="11.492463414348801"><ele>1399.0</ele><time>2026-05-02T10:02:18.487Z</time></trkpt><trkpt lat="46.3213111534191" lon="11.492414463453088"><ele>1399.0</ele><time>2026-05-02T10:02:19.487Z</time></trkpt><trkpt lat="46.32122953129057" lon="11.492302662611111"><ele>1399.0</ele><time>2026-05-02T10:02:20.487Z</time></trkpt><trkpt lat="46.321187095677665" lon="11.492154703007522"><ele>1399.0</ele><time>2026-05-02T10:02:21.487Z</time></trkpt><trkpt lat="46.321198994803254" lon="11.491961479721436"><ele>1399.0</ele><time>2026-05-02T10:02:22.487Z</time></trkpt><trkpt lat="46.321214302840545" lon="11.491749443517806"><ele>1399.0</ele><time>2026-05-02T10:02:23.487Z</time></trkpt><trkpt lat="46.32121369765024" lon="11.491527645556587"><ele>1399.0</ele><time>2026-05-02T10:02:24.487Z</time></trkpt><trkpt lat="46.32114611990454" lon="11.491349194702547"><ele>1399.0</ele><time>2026-05-02T10:02:25.487Z</time></trkpt><trkpt lat="46.32102057529099" lon="11.491154420765884"><ele>1405.0</ele><time>2026-05-02T10:02:26.487Z</time></trkpt><trkpt lat="46.32085611711434" lon="11.490997280459876"><ele>1411.0</ele><time>2026-05-02T10:02:27.487Z</time></trkpt><trkpt lat="46.320724191203375" lon="11.490875809667038"><ele>1417.0</ele><time>2026-05-02T10:02:28.487Z</time></trkpt><trkpt lat="46.32058463274956" lon="11.490785372259603"><ele>1420.0</ele><time>2026-05-02T10:02:29.487Z</time></trkpt><trkpt lat="46.32037396878892" lon="11.490821684829491"><ele>1423.0</ele><time>2026-05-02T10:02:30.487Z</time></trkpt><trkpt lat="46.32019326596156" lon="11.490913070620392"><ele>1426.0</ele><time>2026-05-02T10:02:31.487Z</time></trkpt><trkpt lat="46.32002528903067" lon="11.49096432126087"><ele>1426.0</ele><time>2026-05-02T10:02:32.487Z</time></trkpt><trkpt lat="46.319848534533946" lon="11.490980884118105"><ele>1426.0</ele><time>2026-05-02T10:02:33.487Z</time></trkpt><trkpt lat="46.31968829254708" lon="11.490979583942458"><ele>1426.0</ele><time>2026-05-02T10:02:34.487Z</time></trkpt><trkpt lat="46.31953332862884" lon="11.490934925800143"><ele>1426.3333333333333</ele><time>2026-05-02T10:02:35.487Z</time></trkpt><trkpt lat="46.319453342367765" lon="11.490808917446799"><ele>1426.6666666666667</ele><time>2026-05-02T10:02:36.487Z</time></trkpt><trkpt lat="46.31933171416072" lon="11.490623733618618"><ele>1427.0</ele><time>2026-05-02T10:02:37.487Z</time></trkpt><trkpt lat="46.319174905547264" lon="11.490544489519886"><ele>1427.0</ele><time>2026-05-02T10:02:38.487Z</time></trkpt><trkpt lat="46.31904204292854" lon="11.490492816440652"><ele>1427.0</ele><time>2026-05-02T10:02:39.487Z</time></trkpt><trkpt lat="46.31884501444098" lon="11.490437469328628"><ele>1427.0</ele><time>2026-05-02T10:02:40.487Z</time></trkpt><trkpt lat="46.31867666201807" lon="11.49044934336432"><ele>1428.3333333333335</ele><time>2026-05-02T10:02:41.487Z</time></trkpt><trkpt lat="46.31851364489507" lon="11.490506191646553"><ele>1429.6666666666667</ele><time>2026-05-02T10:02:42.487Z</time></trkpt><trkpt lat="46.318372641182584" lon="11.490570415274842"><ele>1431.0</ele><time>2026-05-02T10:02:43.487Z</time></trkpt><trkpt lat="46.318238842319104" lon="11.490614843368114"><ele>1431.0</ele><time>2026-05-02T10:02:44.487Z</time></trkpt><trkpt lat="46.31814925005806" lon="11.49071953211642"><ele>1431.0</ele><time>2026-05-02T10:02:45.487Z</time></trkpt><trkpt lat="46.31794144669339" lon="11.49096739166953"><ele>1431.0</ele><time>2026-05-02T10:02:46.487Z</time></trkpt><trkpt lat="46.31779775625115" lon="11.490949915695454"><ele>1433.5</ele><time>2026-05-02T10:02:47.487Z</time></trkpt><trkpt lat="46.31770598589771" lon="11.490836337724524"><ele>1436.0</ele><time>2026-05-02T10:02:48.488Z</time></trkpt><trkpt lat="46.31763887964257" lon="11.49077867337326"><ele>1438.5</ele><time>2026-05-02T10:02:49.488Z</time></trkpt><trkpt lat="46.31754656757131" lon="11.490691808629904"><ele>1441.0</ele><time>2026-05-02T10:02:50.488Z</time></trkpt><trkpt lat="46.31742175499263" lon="11.490577223826019"><ele>1441.0</ele><time>2026-05-02T10:02:51.488Z</time></trkpt><trkpt lat="46.31731181612904" lon="11.490476293884292"><ele>1441.0</ele><time>2026-05-02T10:02:52.488Z</time></trkpt><trkpt lat="46.3172820354565" lon="11.490328507617136"><ele>1441.0</ele><time>2026-05-02T10:02:54.488Z</time></trkpt><trkpt lat="46.31733441018041" lon="11.490209882114328"><ele>1441.0</ele><time>2026-05-02T10:02:56.488Z</time></trkpt><trkpt lat="46.31748579250604" lon="11.490177732834823"><ele>1441.25</ele><time>2026-05-02T10:02:57.488Z</time></trkpt><trkpt lat="46.31727065962431" lon="11.490013093912802"><ele>1441.5</ele><time>2026-05-02T10:02:58.488Z</time></trkpt><trkpt lat="46.31729838677415" lon="11.489928383482527"><ele>1441.75</ele><time>2026-05-02T10:02:59.488Z</time></trkpt><trkpt lat="46.31718637023608" lon="11.489866311404858"><ele>1442.0</ele><time>2026-05-02T10:03:00.488Z</time></trkpt><trkpt lat="46.31706641631045" lon="11.489766686545625"><ele>1445.5</ele><time>2026-05-02T10:03:01.488Z</time></trkpt><trkpt lat="46.316919682248084" lon="11.489663274436904"><ele>1449.0</ele><time>2026-05-02T10:03:02.488Z</time></trkpt><trkpt lat="46.31795556102482" lon="11.489317872608042"><ele>1447.3333333333333</ele><time>2026-05-02T10:03:03.488Z</time></trkpt><trkpt lat="46.318234698405504" lon="11.489277182011694"><ele>1445.6666666666665</ele><time>2026-05-02T10:03:04.488Z</time></trkpt><trkpt lat="46.318289032655876" lon="11.489168043874942"><ele>1444.0</ele><time>2026-05-02T10:03:05.488Z</time></trkpt><trkpt lat="46.31838753375547" lon="11.48904212283305"><ele>1444.0</ele><time>2026-05-02T10:03:06.488Z</time></trkpt><trkpt lat="46.318587963806" lon="11.488810798193132"><ele>1444.0</ele><time>2026-05-02T10:03:07.488Z</time></trkpt><trkpt lat="46.318744516247804" lon="11.488506574677533"><ele>1444.6666666666665</ele><time>2026-05-02T10:03:08.488Z</time></trkpt><trkpt lat="46.31884022293149" lon="11.488265280395586"><ele>1445.3333333333333</ele><time>2026-05-02T10:03:09.488Z</time></trkpt><trkpt lat="46.31893355201896" lon="11.488024941072963"><ele>1446.0</ele><time>2026-05-02T10:03:10.488Z</time></trkpt><trkpt lat="46.31900188785298" lon="11.48780205420796"><ele>1446.6666666666667</ele><time>2026-05-02T10:03:11.488Z</time></trkpt><trkpt lat="46.31902961337001" lon="11.487540736386771"><ele>1447.3333333333335</ele><time>2026-05-02T10:03:12.488Z</time></trkpt><trkpt lat="46.31903422571061" lon="11.487353244473203"><ele>1448.0</ele><time>2026-05-02T10:03:13.488Z</time></trkpt><trkpt lat="46.31908678281518" lon="11.487143446235692"><ele>1447.8000000000002</ele><time>2026-05-02T10:03:14.488Z</time></trkpt><trkpt lat="46.31910207237253" lon="11.486958269814567"><ele>1447.6</ele><time>2026-05-02T10:03:15.488Z</time></trkpt><trkpt lat="46.319126392582234" lon="11.486819168595854"><ele>1447.4</ele><time>2026-05-02T10:03:16.488Z</time></trkpt><trkpt lat="46.319209034503494" lon="11.486677649676206"><ele>1447.1999999999998</ele><time>2026-05-02T10:03:17.488Z</time></trkpt><trkpt lat="46.31927472262248" lon="11.486612031878803"><ele>1447.0</ele><time>2026-05-02T10:03:18.488Z</time></trkpt><trkpt lat="46.31933515257677" lon="11.48655448674122"><ele>1447.0</ele><time>2026-05-02T10:03:19.488Z</time></trkpt><trkpt lat="46.31942872221822" lon="11.486533937721825"><ele>1447.0</ele><time>2026-05-02T10:03:21.488Z</time></trkpt><trkpt lat="46.31950168081209" lon="11.486139016629982"><ele>1447.0</ele><time>2026-05-02T10:03:22.488Z</time></trkpt><trkpt lat="46.320091037496496" lon="11.486205274228228"><ele>1449.5</ele><time>2026-05-02T10:03:23.488Z</time></trkpt><trkpt lat="46.32036399389784" lon="11.486439034764297"><ele>1452.0</ele><time>2026-05-02T10:03:24.488Z</time></trkpt><trkpt lat="46.32067547482643" lon="11.486395299504311"><ele>1457.0</ele><time>2026-05-02T10:03:25.488Z</time></trkpt><trkpt lat="46.32090972179182" lon="11.486363894950644"><ele>1462.0</ele><time>2026-05-02T10:03:26.488Z</time></trkpt><trkpt lat="46.321234139730684" lon="11.4863195957706"><ele>1461.5</ele><time>2026-05-02T10:03:27.488Z</time></trkpt><trkpt lat="46.32152514746554" lon="11.486279126613688"><ele>1461.0</ele><time>2026-05-02T10:03:28.488Z</time></trkpt><trkpt lat="46.32178247043664" lon="11.486243341864103"><ele>1460.5</ele><time>2026-05-02T10:03:29.488Z</time></trkpt><trkpt lat="46.32209177886326" lon="11.486199531101809"><ele>1460.0</ele><time>2026-05-02T10:03:30.488Z</time></trkpt><trkpt lat="46.322306650060625" lon="11.48616901214229"><ele>1457.6666666666667</ele><time>2026-05-02T10:03:31.488Z</time></trkpt><trkpt lat="46.322508564634894" lon="11.486143174830136"><ele>1455.3333333333333</ele><time>2026-05-02T10:03:32.488Z</time></trkpt><trkpt lat="46.322678001478884" lon="11.486144647054141"><ele>1453.0</ele><time>2026-05-02T10:03:33.488Z</time></trkpt><trkpt lat="46.32283151331332" lon="11.486177648524821"><ele>1453.0</ele><time>2026-05-02T10:03:34.488Z</time></trkpt><trkpt lat="46.322989676298604" lon="11.486219484948762"><ele>1453.0</ele><time>2026-05-02T10:03:35.488Z</time></trkpt><trkpt lat="46.323115292934006" lon="11.486253095026777"><ele>1453.0</ele><time>2026-05-02T10:03:36.488Z</time></trkpt><trkpt lat="46.32324886615715" lon="11.486284013789492"><ele>1453.0</ele><time>2026-05-02T10:03:39.488Z</time></trkpt><trkpt lat="46.32334102514761" lon="11.486293454223556"><ele>1455.8000000000002</ele><time>2026-05-02T10:03:40.488Z</time></trkpt><trkpt lat="46.32340453003897" lon="11.486308536970073"><ele>1458.6</ele><time>2026-05-02T10:03:41.488Z</time></trkpt><trkpt lat="46.323520475825795" lon="11.486326982424204"><ele>1461.4</ele><time>2026-05-02T10:03:42.488Z</time></trkpt><trkpt lat="46.323632124201204" lon="11.486348147499335"><ele>1464.1999999999998</ele><time>2026-05-02T10:03:43.488Z</time></trkpt><trkpt lat="46.323738585397926" lon="11.486305027797275"><ele>1467.0</ele><time>2026-05-02T10:03:44.488Z</time></trkpt><trkpt lat="46.323835281245096" lon="11.48628773891981"><ele>1469.1999999999998</ele><time>2026-05-02T10:03:45.488Z</time></trkpt><trkpt lat="46.32395252693984" lon="11.486266812354089"><ele>1471.4</ele><time>2026-05-02T10:03:46.488Z</time></trkpt><trkpt lat="46.32404831641765" lon="11.486250005789888"><ele>1473.6</ele><time>2026-05-02T10:03:47.488Z</time></trkpt><trkpt lat="46.32415162724863" lon="11.486231879556813"><ele>1475.8000000000002</ele><time>2026-05-02T10:03:48.488Z</time></trkpt><trkpt lat="46.32423126121565" lon="11.486217851732919"><ele>1478.0</ele><time>2026-05-02T10:03:49.488Z</time></trkpt><trkpt lat="46.32413327001366" lon="11.486235100393731"><ele>1478.0</ele><time>2026-05-02T10:03:50.488Z</time></trkpt><trkpt lat="46.324010835146616" lon="11.486262854427451"><ele>1478.0</ele><time>2026-05-02T10:03:51.488Z</time></trkpt><trkpt lat="46.32397116158867" lon="11.486158281921966"><ele>1478.0</ele><time>2026-05-02T10:06:36.488Z</time></trkpt><trkpt lat="46.32389041705409" lon="11.486229701690364"><ele>1478.0</ele><time>2026-05-02T10:07:15.487Z</time></trkpt><trkpt lat="46.323828640436645" lon="11.48625220887251"><ele>1478.0</ele><time>2026-05-02T10:07:16.487Z</time></trkpt><trkpt lat="46.32370003472949" lon="11.486284383126389"><ele>1476.1666666666667</ele><time>2026-05-02T10:07:17.487Z</time></trkpt><trkpt lat="46.32362371709231" lon="11.486307684974909"><ele>1474.3333333333335</ele><time>2026-05-02T10:07:18.487Z</time></trkpt><trkpt lat="46.32355692463679" lon="11.486328585859749"><ele>1472.5</ele><time>2026-05-02T10:07:19.487Z</time></trkpt><trkpt lat="46.3234855095929" lon="11.486338142606082"><ele>1470.6666666666667</ele><time>2026-05-02T10:07:20.487Z</time></trkpt><trkpt lat="46.323418788066625" lon="11.486333140627199"><ele>1468.8333333333333</ele><time>2026-05-02T10:07:21.487Z</time></trkpt><trkpt lat="46.32334601163415" lon="11.486330378696278"><ele>1467.0</ele><time>2026-05-02T10:07:22.487Z</time></trkpt><trkpt lat="46.32326470097563" lon="11.486237783579032"><ele>1464.6666666666667</ele><time>2026-05-02T10:07:23.487Z</time></trkpt><trkpt lat="46.3231630855204" lon="11.486216495594887"><ele>1462.3333333333333</ele><time>2026-05-02T10:07:24.487Z</time></trkpt><trkpt lat="46.323073000033276" lon="11.48621713066372"><ele>1460.0</ele><time>2026-05-02T10:07:25.487Z</time></trkpt><trkpt lat="46.32299067008977" lon="11.486170878502385"><ele>1457.6666666666665</ele><time>2026-05-02T10:07:26.487Z</time></trkpt><trkpt lat="46.32291768052839" lon="11.486151039412222"><ele>1455.3333333333333</ele><time>2026-05-02T10:07:27.487Z</time></trkpt><trkpt lat="46.32285072743785" lon="11.486133653015282"><ele>1453.0</ele><time>2026-05-02T10:07:28.487Z</time></trkpt><trkpt lat="46.32276227391357" lon="11.486111634691454"><ele>1453.0000000000002</ele><time>2026-05-02T10:07:29.487Z</time></trkpt><trkpt lat="46.32269545250657" lon="11.486098251527062"><ele>1453.0</ele><time>2026-05-02T10:07:30.487Z</time></trkpt><trkpt lat="46.32263006609078" lon="11.486091683464409"><ele>1453.0</ele><time>2026-05-02T10:07:32.487Z</time></trkpt><trkpt lat="46.32256094029774" lon="11.48607099603418"><ele>1453.0</ele><time>2026-05-02T10:08:25.487Z</time></trkpt><trkpt lat="46.32252536172148" lon="11.486151944908485"><ele>1453.0</ele><time>2026-05-02T10:08:32.487Z</time></trkpt><trkpt lat="46.3225940490751" lon="11.486187841832463"><ele>1453.0000000000002</ele><time>2026-05-02T10:09:30.486Z</time></trkpt><trkpt lat="46.3225546468643" lon="11.486115526435876"><ele>1453.0</ele><time>2026-05-02T10:11:46.484Z</time></trkpt><trkpt lat="46.32249548029744" lon="11.486184239702984"><ele>1453.0</ele><time>2026-05-02T10:12:21.484Z</time></trkpt><trkpt lat="46.32256309288894" lon="11.486162438738798"><ele>1453.0</ele><time>2026-05-02T10:12:27.484Z</time></trkpt><trkpt lat="46.322763353215606" lon="11.486110608358413"><ele>1453.0</ele><time>2026-05-02T10:12:28.484Z</time></trkpt><trkpt lat="46.322852358921125" lon="11.486125677543178"><ele>1453.0</ele><time>2026-05-02T10:12:29.484Z</time></trkpt><trkpt lat="46.3229260619774" lon="11.486202194207317"><ele>1453.0</ele><time>2026-05-02T10:12:30.484Z</time></trkpt><trkpt lat="46.32300127302291" lon="11.48621142162785"><ele>1453.0</ele><time>2026-05-02T10:12:31.484Z</time></trkpt><trkpt lat="46.32309399520763" lon="11.48624056290701"><ele>1453.0</ele><time>2026-05-02T10:12:32.484Z</time></trkpt><trkpt lat="46.32319170057995" lon="11.486215131844256"><ele>1453.0</ele><time>2026-05-02T10:12:33.484Z</time></trkpt><trkpt lat="46.323277604612734" lon="11.48628761179109"><ele>1453.0</ele><time>2026-05-02T10:12:34.484Z</time></trkpt><trkpt lat="46.3233748928949" lon="11.486294885330276"><ele>1453.25</ele><time>2026-05-02T10:12:35.484Z</time></trkpt><trkpt lat="46.323493193513485" lon="11.48628684875952"><ele>1453.5</ele><time>2026-05-02T10:12:36.484Z</time></trkpt><trkpt lat="46.32362023268428" lon="11.48626568970976"><ele>1453.75</ele><time>2026-05-02T10:12:37.484Z</time></trkpt><trkpt lat="46.323761470701804" lon="11.486240436803676"><ele>1454.0</ele><time>2026-05-02T10:12:38.484Z</time></trkpt><trkpt lat="46.3239172013174" lon="11.486212592691414"><ele>1454.0</ele><time>2026-05-02T10:12:39.484Z</time></trkpt><trkpt lat="46.324055718142425" lon="11.48618822483955"><ele>1454.0</ele><time>2026-05-02T10:12:40.484Z</time></trkpt><trkpt lat="46.324178152839806" lon="11.48616673844326"><ele>1454.0</ele><time>2026-05-02T10:12:41.484Z</time></trkpt><trkpt lat="46.32432123154911" lon="11.48614144666856"><ele>1454.0</ele><time>2026-05-02T10:12:42.484Z</time></trkpt><trkpt lat="46.32445904368982" lon="11.486116642156045"><ele>1454.0</ele><time>2026-05-02T10:12:43.484Z</time></trkpt><trkpt lat="46.324620430665924" lon="11.486076681903688"><ele>1454.0</ele><time>2026-05-02T10:12:44.484Z</time></trkpt><trkpt lat="46.32480122794235" lon="11.4859947804096"><ele>1454.0</ele><time>2026-05-02T10:12:45.484Z</time></trkpt><trkpt lat="46.32496783159265" lon="11.485868475653874"><ele>1458.3333333333335</ele><time>2026-05-02T10:12:46.484Z</time></trkpt><trkpt lat="46.325123917986076" lon="11.485722823745496"><ele>1462.6666666666667</ele><time>2026-05-02T10:12:47.484Z</time></trkpt><trkpt lat="46.32528132099602" lon="11.485605397588351"><ele>1467.0</ele><time>2026-05-02T10:12:48.484Z</time></trkpt><trkpt lat="46.32543206550561" lon="11.48548174587105"><ele>1466.0</ele><time>2026-05-02T10:12:49.484Z</time></trkpt><trkpt lat="46.3255633003109" lon="11.485379276052788"><ele>1465.0</ele><time>2026-05-02T10:12:50.484Z</time></trkpt><trkpt lat="46.32570469850092" lon="11.485268872387785"><ele>1464.0</ele><time>2026-05-02T10:12:51.484Z</time></trkpt><trkpt lat="46.32582528032135" lon="11.485148123991571"><ele>1464.0</ele><time>2026-05-02T10:12:52.484Z</time></trkpt><trkpt lat="46.325942050716236" lon="11.485078935772231"><ele>1464.0</ele><time>2026-05-02T10:12:53.484Z</time></trkpt><trkpt lat="46.3260755647095" lon="11.484983710489319"><ele>1464.0</ele><time>2026-05-02T10:12:54.484Z</time></trkpt><trkpt lat="46.32619155900729" lon="11.484886094808381"><ele>1464.0</ele><time>2026-05-02T10:12:55.484Z</time></trkpt><trkpt lat="46.326306095592905" lon="11.48483464018901"><ele>1463.0</ele><time>2026-05-02T10:12:56.484Z</time></trkpt><trkpt lat="46.32641388695599" lon="11.484846518338653"><ele>1462.0</ele><time>2026-05-02T10:12:57.484Z</time></trkpt><trkpt lat="46.32656685324014" lon="11.484888172825128"><ele>1461.0</ele><time>2026-05-02T10:12:58.484Z</time></trkpt><trkpt lat="46.32673592982183" lon="11.484901131867565"><ele>1460.0</ele><time>2026-05-02T10:12:59.484Z</time></trkpt><trkpt lat="46.32686282644673" lon="11.48486016799364"><ele>1460.0</ele><time>2026-05-02T10:13:00.484Z</time></trkpt><trkpt lat="46.32697624453507" lon="11.484798428145158"><ele>1460.0</ele><time>2026-05-02T10:13:01.484Z</time></trkpt><trkpt lat="46.32707887565264" lon="11.484754877656359"><ele>1460.0</ele><time>2026-05-02T10:13:02.484Z</time></trkpt><trkpt lat="46.32717119170701" lon="11.48462298004619"><ele>1460.0</ele><time>2026-05-02T10:13:03.484Z</time></trkpt><trkpt lat="46.32727826156444" lon="11.484537969008004"><ele>1460.25</ele><time>2026-05-02T10:13:04.484Z</time></trkpt><trkpt lat="46.32738249510333" lon="11.484421435710725"><ele>1460.5</ele><time>2026-05-02T10:13:05.484Z</time></trkpt><trkpt lat="46.32744909382633" lon="11.484336199020776"><ele>1460.75</ele><time>2026-05-02T10:13:06.484Z</time></trkpt><trkpt lat="46.327492183654535" lon="11.484199553991283"><ele>1461.0</ele><time>2026-05-02T10:13:07.484Z</time></trkpt><trkpt lat="46.327521640165735" lon="11.483999937926065"><ele>1461.0</ele><time>2026-05-02T10:13:08.484Z</time></trkpt><trkpt lat="46.327544015755564" lon="11.483901388038888"><ele>1461.0</ele><time>2026-05-02T10:13:09.484Z</time></trkpt><trkpt lat="46.327449064932885" lon="11.483829175546656"><ele>1461.0</ele><time>2026-05-02T10:13:11.484Z</time></trkpt><trkpt lat="46.32734687384698" lon="11.483770933534055"><ele>1461.0</ele><time>2026-05-02T10:13:14.484Z</time></trkpt><trkpt lat="46.32726136270107" lon="11.483770193440998"><ele>1461.0</ele><time>2026-05-02T10:13:15.484Z</time></trkpt><trkpt lat="46.327157340574715" lon="11.483761832592352"><ele>1459.0</ele><time>2026-05-02T10:13:16.484Z</time></trkpt><trkpt lat="46.32702748669575" lon="11.483771039954519"><ele>1457.0</ele><time>2026-05-02T10:13:17.484Z</time></trkpt><trkpt lat="46.32691101594126" lon="11.483778114656696"><ele>1455.0</ele><time>2026-05-02T10:13:18.482Z</time></trkpt><trkpt lat="46.32678780993298" lon="11.483782835908302"><ele>1453.0</ele><time>2026-05-02T10:13:19.482Z</time></trkpt><trkpt lat="46.32661641614056" lon="11.483786004781274"><ele>1453.0</ele><time>2026-05-02T10:13:20.482Z</time></trkpt><trkpt lat="46.32644589058228" lon="11.48379199080054"><ele>1453.0</ele><time>2026-05-02T10:13:21.482Z</time></trkpt><trkpt lat="46.3262845236475" lon="11.483818372285883"><ele>1453.0</ele><time>2026-05-02T10:13:22.482Z</time></trkpt><trkpt lat="46.32610712054635" lon="11.483899202179538"><ele>1453.6666666666665</ele><time>2026-05-02T10:13:23.482Z</time></trkpt><trkpt lat="46.325930906902975" lon="11.484024664728778"><ele>1454.3333333333333</ele><time>2026-05-02T10:13:24.482Z</time></trkpt><trkpt lat="46.32575809313006" lon="11.484120394651189"><ele>1455.0</ele><time>2026-05-02T10:13:25.482Z</time></trkpt><trkpt lat="46.32558492647597" lon="11.484164817689063"><ele>1453.3333333333333</ele><time>2026-05-02T10:13:26.482Z</time></trkpt><trkpt lat="46.32541074572751" lon="11.484196854943873"><ele>1451.6666666666665</ele><time>2026-05-02T10:13:27.482Z</time></trkpt><trkpt lat="46.325232888085516" lon="11.484200843566951"><ele>1450.0</ele><time>2026-05-02T10:13:28.482Z</time></trkpt><trkpt lat="46.325029776939175" lon="11.484201536638777"><ele>1450.0</ele><time>2026-05-02T10:13:29.482Z</time></trkpt><trkpt lat="46.32482967914319" lon="11.484201035939972"><ele>1450.0</ele><time>2026-05-02T10:13:30.482Z</time></trkpt><trkpt lat="46.32463695651448" lon="11.484200553697494"><ele>1450.0</ele><time>2026-05-02T10:13:31.482Z</time></trkpt><trkpt lat="46.32445567708466" lon="11.484201202003497"><ele>1449.3333333333333</ele><time>2026-05-02T10:13:32.482Z</time></trkpt><trkpt lat="46.32426435192386" lon="11.484209917634002"><ele>1448.6666666666667</ele><time>2026-05-02T10:13:33.482Z</time></trkpt><trkpt lat="46.32408673485872" lon="11.484254928055188"><ele>1448.0</ele><time>2026-05-02T10:13:34.482Z</time></trkpt><trkpt lat="46.32391187481604" lon="11.484294626960429"><ele>1446.3333333333335</ele><time>2026-05-02T10:13:35.482Z</time></trkpt><trkpt lat="46.3237498124958" lon="11.484360872859073"><ele>1444.6666666666667</ele><time>2026-05-02T10:13:36.482Z</time></trkpt><trkpt lat="46.32359557574949" lon="11.484380145069785"><ele>1443.0</ele><time>2026-05-02T10:13:37.482Z</time></trkpt><trkpt lat="46.32340567825926" lon="11.48434401989461"><ele>1443.0</ele><time>2026-05-02T10:13:38.482Z</time></trkpt><trkpt lat="46.32320009155116" lon="11.484298491070286"><ele>1443.0</ele><time>2026-05-02T10:13:39.482Z</time></trkpt><trkpt lat="46.32301982966729" lon="11.484260526030141"><ele>1443.0</ele><time>2026-05-02T10:13:40.482Z</time></trkpt><trkpt lat="46.32284128354812" lon="11.484250338658825"><ele>1440.6666666666667</ele><time>2026-05-02T10:13:41.482Z</time></trkpt><trkpt lat="46.32267527827125" lon="11.48425304843058"><ele>1438.3333333333335</ele><time>2026-05-02T10:13:42.482Z</time></trkpt><trkpt lat="46.32251187783374" lon="11.484276913062082"><ele>1436.0</ele><time>2026-05-02T10:13:43.482Z</time></trkpt><trkpt lat="46.32234519896961" lon="11.484319462189854"><ele>1434.0</ele><time>2026-05-02T10:13:44.482Z</time></trkpt><trkpt lat="46.32218656567881" lon="11.484308352409377"><ele>1432.0</ele><time>2026-05-02T10:13:45.482Z</time></trkpt><trkpt lat="46.32202119491542" lon="11.48424258898109"><ele>1430.0</ele><time>2026-05-02T10:13:46.482Z</time></trkpt><trkpt lat="46.32182660286561" lon="11.484146520688762"><ele>1430.0</ele><time>2026-05-02T10:13:47.482Z</time></trkpt><trkpt lat="46.321626849372656" lon="11.484045862417902"><ele>1430.0</ele><time>2026-05-02T10:13:48.482Z</time></trkpt><trkpt lat="46.321396217518185" lon="11.483939864732768"><ele>1429.3333333333335</ele><time>2026-05-02T10:13:49.482Z</time></trkpt><trkpt lat="46.32120527942683" lon="11.483848870857457"><ele>1428.6666666666667</ele><time>2026-05-02T10:13:50.482Z</time></trkpt><trkpt lat="46.32104928303354" lon="11.48376805721255"><ele>1428.0</ele><time>2026-05-02T10:13:51.482Z</time></trkpt><trkpt lat="46.32087737818356" lon="11.483662785236664"><ele>1427.0</ele><time>2026-05-02T10:13:52.482Z</time></trkpt><trkpt lat="46.32072904234326" lon="11.48351706945143"><ele>1426.0</ele><time>2026-05-02T10:13:53.482Z</time></trkpt><trkpt lat="46.320611417284944" lon="11.483406410311419"><ele>1425.0</ele><time>2026-05-02T10:13:54.482Z</time></trkpt><trkpt lat="46.320456173450495" lon="11.483252769929285"><ele>1423.0</ele><time>2026-05-02T10:13:55.482Z</time></trkpt><trkpt lat="46.320311740025076" lon="11.483081704560306"><ele>1421.0</ele><time>2026-05-02T10:13:56.482Z</time></trkpt><trkpt lat="46.32016198129212" lon="11.482872963289507"><ele>1419.0</ele><time>2026-05-02T10:13:57.482Z</time></trkpt><trkpt lat="46.32001037148006" lon="11.482647063567912"><ele>1419.0</ele><time>2026-05-02T10:13:58.482Z</time></trkpt><trkpt lat="46.31985362844845" lon="11.48241079051966"><ele>1419.0</ele><time>2026-05-02T10:13:59.482Z</time></trkpt><trkpt lat="46.319692692859405" lon="11.482169395629551"><ele>1416.6666666666667</ele><time>2026-05-02T10:14:00.482Z</time></trkpt><trkpt lat="46.31953242704125" lon="11.481931758341045"><ele>1414.3333333333335</ele><time>2026-05-02T10:14:01.482Z</time></trkpt><trkpt lat="46.31938104916416" lon="11.48170689149136"><ele>1412.0</ele><time>2026-05-02T10:14:02.482Z</time></trkpt><trkpt lat="46.319230818043145" lon="11.481508404803312"><ele>1412.0</ele><time>2026-05-02T10:14:03.482Z</time></trkpt><trkpt lat="46.31908423559236" lon="11.481280079538694"><ele>1412.0</ele><time>2026-05-02T10:14:04.482Z</time></trkpt><trkpt lat="46.318938891458195" lon="11.48104669563077"><ele>1412.0</ele><time>2026-05-02T10:14:05.482Z</time></trkpt><trkpt lat="46.31878742031654" lon="11.480829105842085"><ele>1410.6666666666667</ele><time>2026-05-02T10:14:06.482Z</time></trkpt><trkpt lat="46.31864318338845" lon="11.48058472922717"><ele>1409.3333333333333</ele><time>2026-05-02T10:14:07.482Z</time></trkpt><trkpt lat="46.31849079334974" lon="11.480363923771007"><ele>1408.0</ele><time>2026-05-02T10:14:08.482Z</time></trkpt><trkpt lat="46.31833236016644" lon="11.480180837640258"><ele>1408.0</ele><time>2026-05-02T10:14:09.482Z</time></trkpt><trkpt lat="46.318161516615" lon="11.480007213225639"><ele>1408.0</ele><time>2026-05-02T10:14:10.482Z</time></trkpt><trkpt lat="46.317995455053115" lon="11.47983872423316"><ele>1408.0</ele><time>2026-05-02T10:14:11.482Z</time></trkpt><trkpt lat="46.317827954722894" lon="11.479677310898737"><ele>1406.0</ele><time>2026-05-02T10:14:12.482Z</time></trkpt><trkpt lat="46.317674283831266" lon="11.479530379397861"><ele>1404.0</ele><time>2026-05-02T10:14:13.482Z</time></trkpt><trkpt lat="46.31755260133076" lon="11.479409604698285"><ele>1402.0</ele><time>2026-05-02T10:14:14.482Z</time></trkpt><trkpt lat="46.31741773374359" lon="11.47929129632482"><ele>1402.0</ele><time>2026-05-02T10:14:15.482Z</time></trkpt><trkpt lat="46.31731274943373" lon="11.479141802044124"><ele>1402.0</ele><time>2026-05-02T10:14:16.482Z</time></trkpt><trkpt lat="46.31718944399473" lon="11.478937999363838"><ele>1402.0</ele><time>2026-05-02T10:14:17.482Z</time></trkpt><trkpt lat="46.31708959571269" lon="11.478714399033692"><ele>1396.5</ele><time>2026-05-02T10:14:18.482Z</time></trkpt><trkpt lat="46.316971337501656" lon="11.47846376298233"><ele>1391.0</ele><time>2026-05-02T10:14:19.482Z</time></trkpt><trkpt lat="46.31682804583785" lon="11.47817066334357"><ele>1391.3333333333335</ele><time>2026-05-02T10:14:20.482Z</time></trkpt><trkpt lat="46.31670235339708" lon="11.477908228056732"><ele>1391.6666666666667</ele><time>2026-05-02T10:14:21.482Z</time></trkpt><trkpt lat="46.31658243295536" lon="11.477651638958207"><ele>1392.0</ele><time>2026-05-02T10:14:22.482Z</time></trkpt><trkpt lat="46.3164673375658" lon="11.47740571857925"><ele>1388.0</ele><time>2026-05-02T10:14:23.482Z</time></trkpt><trkpt lat="46.31635040809772" lon="11.477164162990121"><ele>1384.0</ele><time>2026-05-02T10:14:24.482Z</time></trkpt><trkpt lat="46.31622722873026" lon="11.476915463764016"><ele>1380.0</ele><time>2026-05-02T10:14:25.482Z</time></trkpt><trkpt lat="46.31610403778211" lon="11.476667811384505"><ele>1380.0</ele><time>2026-05-02T10:14:26.482Z</time></trkpt><trkpt lat="46.31598153303295" lon="11.47641951904729"><ele>1380.0</ele><time>2026-05-02T10:14:27.482Z</time></trkpt><trkpt lat="46.31585477738731" lon="11.476159303724469"><ele>1380.0</ele><time>2026-05-02T10:14:28.482Z</time></trkpt><trkpt lat="46.315731369493705" lon="11.475905961084214"><ele>1380.0</ele><time>2026-05-02T10:14:29.482Z</time></trkpt><trkpt lat="46.31561229646546" lon="11.47566151737397"><ele>1380.0</ele><time>2026-05-02T10:14:30.482Z</time></trkpt><trkpt lat="46.315493732362185" lon="11.475418118422324"><ele>1380.0</ele><time>2026-05-02T10:14:31.482Z</time></trkpt><trkpt lat="46.31538377063029" lon="11.475189562279462"><ele>1379.6666666666667</ele><time>2026-05-02T10:14:32.482Z</time></trkpt><trkpt lat="46.31527796636594" lon="11.474961797592307"><ele>1379.3333333333335</ele><time>2026-05-02T10:14:33.482Z</time></trkpt><trkpt lat="46.315183684225474" lon="11.474732482597965"><ele>1379.0</ele><time>2026-05-02T10:14:34.482Z</time></trkpt><trkpt lat="46.31510863393074" lon="11.474476050517307"><ele>1379.0</ele><time>2026-05-02T10:14:35.482Z</time></trkpt><trkpt lat="46.31503419407637" lon="11.474190748911745"><ele>1379.0</ele><time>2026-05-02T10:14:36.482Z</time></trkpt><trkpt lat="46.31495041571648" lon="11.473919138356374"><ele>1379.0</ele><time>2026-05-02T10:14:37.482Z</time></trkpt><trkpt lat="46.314893655895794" lon="11.473635882443798"><ele>1380.6666666666667</ele><time>2026-05-02T10:14:38.482Z</time></trkpt><trkpt lat="46.31482572425134" lon="11.473356946184648"><ele>1382.3333333333333</ele><time>2026-05-02T10:14:39.482Z</time></trkpt><trkpt lat="46.31476402514073" lon="11.473087021205064"><ele>1384.0</ele><time>2026-05-02T10:14:40.482Z</time></trkpt><trkpt lat="46.31472191394643" lon="11.472808860568335"><ele>1380.6666666666665</ele><time>2026-05-02T10:14:41.482Z</time></trkpt><trkpt lat="46.31470863197325" lon="11.472536820055588"><ele>1377.3333333333333</ele><time>2026-05-02T10:14:42.482Z</time></trkpt><trkpt lat="46.31469830473096" lon="11.472302772580935"><ele>1374.0</ele><time>2026-05-02T10:14:43.482Z</time></trkpt><trkpt lat="46.31469550059286" lon="11.472091823989915"><ele>1374.0</ele><time>2026-05-02T10:14:44.482Z</time></trkpt><trkpt lat="46.3146262656733" lon="11.471916489666592"><ele>1374.0</ele><time>2026-05-02T10:14:45.482Z</time></trkpt><trkpt lat="46.3145449676225" lon="11.471748356287252"><ele>1374.0</ele><time>2026-05-02T10:14:46.482Z</time></trkpt><trkpt lat="46.314407545882354" lon="11.471614288930757"><ele>1374.0</ele><time>2026-05-02T10:14:47.482Z</time></trkpt><trkpt lat="46.31425786247949" lon="11.471503675716594"><ele>1374.0</ele><time>2026-05-02T10:14:48.482Z</time></trkpt><trkpt lat="46.31408994812813" lon="11.4713845235868"><ele>1374.0</ele><time>2026-05-02T10:14:49.482Z</time></trkpt><trkpt lat="46.31392269392721" lon="11.471263641522587"><ele>1374.0</ele><time>2026-05-02T10:14:50.482Z</time></trkpt><trkpt lat="46.31377175729754" lon="11.47115204707435"><ele>1373.25</ele><time>2026-05-02T10:14:51.482Z</time></trkpt><trkpt lat="46.31364055134134" lon="11.471056025237457"><ele>1372.5</ele><time>2026-05-02T10:14:52.482Z</time></trkpt><trkpt lat="46.31351540274313" lon="11.470991031223983"><ele>1371.75</ele><time>2026-05-02T10:14:53.482Z</time></trkpt><trkpt lat="46.31337777938325" lon="11.47099271861132"><ele>1371.0</ele><time>2026-05-02T10:14:54.482Z</time></trkpt><trkpt lat="46.31323957061753" lon="11.471037239406861"><ele>1371.0</ele><time>2026-05-02T10:14:55.482Z</time></trkpt><trkpt lat="46.31311978245054" lon="11.471132470590797"><ele>1371.0</ele><time>2026-05-02T10:14:56.482Z</time></trkpt><trkpt lat="46.31298831408921" lon="11.47119026100099"><ele>1371.0</ele><time>2026-05-02T10:14:57.482Z</time></trkpt><trkpt lat="46.31290133827385" lon="11.471252204725237"><ele>1371.0</ele><time>2026-05-02T10:14:58.482Z</time></trkpt><trkpt lat="46.31280892652104" lon="11.471247829156809"><ele>1367.75</ele><time>2026-05-02T10:14:59.482Z</time></trkpt><trkpt lat="46.31273732200778" lon="11.471165316671579"><ele>1364.5</ele><time>2026-05-02T10:15:00.482Z</time></trkpt><trkpt lat="46.31270188687549" lon="11.47102302314422"><ele>1361.25</ele><time>2026-05-02T10:15:01.482Z</time></trkpt><trkpt lat="46.31269796847113" lon="11.470844663818863"><ele>1358.0</ele><time>2026-05-02T10:15:02.482Z</time></trkpt><trkpt lat="46.31264800992462" lon="11.470661936978575"><ele>1358.0</ele><time>2026-05-02T10:15:03.482Z</time></trkpt><trkpt lat="46.31254949279885" lon="11.47050025110237"><ele>1358.0</ele><time>2026-05-02T10:15:04.482Z</time></trkpt><trkpt lat="46.312496057105044" lon="11.4703245051465"><ele>1358.0</ele><time>2026-05-02T10:15:05.482Z</time></trkpt><trkpt lat="46.312505270474084" lon="11.470116846615994"><ele>1358.0</ele><time>2026-05-02T10:15:06.482Z</time></trkpt><trkpt lat="46.31251011570177" lon="11.469915312417582"><ele>1356.75</ele><time>2026-05-02T10:15:07.482Z</time></trkpt><trkpt lat="46.31251084977255" lon="11.46972913802555"><ele>1355.5</ele><time>2026-05-02T10:15:08.482Z</time></trkpt><trkpt lat="46.312396262019725" lon="11.469589375712317"><ele>1354.25</ele><time>2026-05-02T10:15:09.482Z</time></trkpt><trkpt lat="46.312310037260005" lon="11.469460833674251"><ele>1353.0</ele><time>2026-05-02T10:15:10.482Z</time></trkpt><trkpt lat="46.31226988313602" lon="11.469293611578951"><ele>1350.6666666666667</ele><time>2026-05-02T10:15:11.482Z</time></trkpt><trkpt lat="46.31226865064105" lon="11.469092827767502"><ele>1348.3333333333335</ele><time>2026-05-02T10:15:12.482Z</time></trkpt><trkpt lat="46.31226468635083" lon="11.468873607150064"><ele>1346.0</ele><time>2026-05-02T10:15:13.482Z</time></trkpt><trkpt lat="46.31222982545543" lon="11.468645724774122"><ele>1345.5</ele><time>2026-05-02T10:15:14.482Z</time></trkpt><trkpt lat="46.31219889163037" lon="11.468429219290968"><ele>1345.0</ele><time>2026-05-02T10:15:15.482Z</time></trkpt><trkpt lat="46.312185858047386" lon="11.468231562218042"><ele>1344.5</ele><time>2026-05-02T10:15:16.482Z</time></trkpt><trkpt lat="46.31221096678027" lon="11.468038207169803"><ele>1344.0</ele><time>2026-05-02T10:15:17.482Z</time></trkpt><trkpt lat="46.31224681079212" lon="11.467813095401166"><ele>1344.0</ele><time>2026-05-02T10:15:18.482Z</time></trkpt><trkpt lat="46.312280645419676" lon="11.467614868810971"><ele>1344.0</ele><time>2026-05-02T10:15:19.482Z</time></trkpt><trkpt lat="46.31231008923653" lon="11.467418189788582"><ele>1344.0</ele><time>2026-05-02T10:15:20.482Z</time></trkpt><trkpt lat="46.31232173961992" lon="11.467245284191506"><ele>1344.0</ele><time>2026-05-02T10:15:21.482Z</time></trkpt><trkpt lat="46.312304171025424" lon="11.467100719688972"><ele>1345.0</ele><time>2026-05-02T10:15:22.482Z</time></trkpt><trkpt lat="46.31224326597774" lon="11.466941864979765"><ele>1346.0</ele><time>2026-05-02T10:15:23.482Z</time></trkpt><trkpt lat="46.3120139213486" lon="11.466841181208814"><ele>1347.0</ele><time>2026-05-02T10:15:24.482Z</time></trkpt><trkpt lat="46.31191925412208" lon="11.466770253619984"><ele>1342.0</ele><time>2026-05-02T10:15:25.482Z</time></trkpt><trkpt lat="46.3118579722149" lon="11.466632341878098"><ele>1337.0</ele><time>2026-05-02T10:15:26.482Z</time></trkpt><trkpt lat="46.3118416730432" lon="11.466540828563884"><ele>1332.0</ele><time>2026-05-02T10:15:27.482Z</time></trkpt><trkpt lat="46.31186256715756" lon="11.4663825108757"><ele>1327.0</ele><time>2026-05-02T10:15:28.482Z</time></trkpt><trkpt lat="46.31188530869966" lon="11.466187874720296"><ele>1322.0</ele><time>2026-05-02T10:15:29.482Z</time></trkpt><trkpt lat="46.311881515136406" lon="11.466009835159849"><ele>1320.3333333333335</ele><time>2026-05-02T10:15:30.482Z</time></trkpt><trkpt lat="46.31189784048393" lon="11.465769207457543"><ele>1318.6666666666667</ele><time>2026-05-02T10:15:31.482Z</time></trkpt><trkpt lat="46.311913578795036" lon="11.465525051546502"><ele>1317.0</ele><time>2026-05-02T10:15:32.482Z</time></trkpt><trkpt lat="46.311926294902264" lon="11.465311844800956"><ele>1313.3333333333333</ele><time>2026-05-02T10:15:33.482Z</time></trkpt><trkpt lat="46.31193404402304" lon="11.465070341848728"><ele>1309.6666666666665</ele><time>2026-05-02T10:15:34.482Z</time></trkpt><trkpt lat="46.311913092151045" lon="11.464834742362749"><ele>1306.0</ele><time>2026-05-02T10:15:35.482Z</time></trkpt><trkpt lat="46.311886024821625" lon="11.464626108963902"><ele>1304.4</ele><time>2026-05-02T10:15:36.482Z</time></trkpt><trkpt lat="46.311863533123045" lon="11.464460238737454"><ele>1302.8</ele><time>2026-05-02T10:15:37.482Z</time></trkpt><trkpt lat="46.31185689482591" lon="11.464303907647636"><ele>1301.2</ele><time>2026-05-02T10:15:38.482Z</time></trkpt><trkpt lat="46.311879188735915" lon="11.464150485243504"><ele>1299.6000000000001</ele><time>2026-05-02T10:15:39.482Z</time></trkpt><trkpt lat="46.31193464488827" lon="11.464078925313464"><ele>1298.0</ele><time>2026-05-02T10:15:40.482Z</time></trkpt><trkpt lat="46.3120453634394" lon="11.463887067420737"><ele>1296.75</ele><time>2026-05-02T10:15:41.482Z</time></trkpt><trkpt lat="46.31216680735612" lon="11.463687122684018"><ele>1295.5</ele><time>2026-05-02T10:15:42.482Z</time></trkpt><trkpt lat="46.31225346274023" lon="11.463540370501745"><ele>1294.25</ele><time>2026-05-02T10:15:43.482Z</time></trkpt><trkpt lat="46.31230616503484" lon="11.463440419259907"><ele>1293.0</ele><time>2026-05-02T10:15:44.482Z</time></trkpt><trkpt lat="46.312362200223426" lon="11.463287576365405"><ele>1293.25</ele><time>2026-05-02T10:15:45.482Z</time></trkpt><trkpt lat="46.31236399220087" lon="11.463110035688096"><ele>1293.5</ele><time>2026-05-02T10:15:46.482Z</time></trkpt><trkpt lat="46.31231876317553" lon="11.462960122138481"><ele>1293.75</ele><time>2026-05-02T10:15:47.482Z</time></trkpt><trkpt lat="46.312215779695464" lon="11.462813377012923"><ele>1294.0</ele><time>2026-05-02T10:15:48.482Z</time></trkpt><trkpt lat="46.31206766623234" lon="11.46268522610015"><ele>1294.0</ele><time>2026-05-02T10:15:49.482Z</time></trkpt><trkpt lat="46.3119002089643" lon="11.462583633975393"><ele>1294.0</ele><time>2026-05-02T10:15:50.482Z</time></trkpt><trkpt lat="46.31174754507156" lon="11.462502983093316"><ele>1294.0</ele><time>2026-05-02T10:15:51.482Z</time></trkpt><trkpt lat="46.31158110483307" lon="11.462432961973697"><ele>1294.0</ele><time>2026-05-02T10:15:52.482Z</time></trkpt><trkpt lat="46.31143479362857" lon="11.462393706006365"><ele>1294.0</ele><time>2026-05-02T10:15:53.482Z</time></trkpt><trkpt lat="46.31127961955987" lon="11.462375481659606"><ele>1294.0</ele><time>2026-05-02T10:15:54.482Z</time></trkpt><trkpt lat="46.311128062755586" lon="11.462401326226201"><ele>1290.75</ele><time>2026-05-02T10:15:55.482Z</time></trkpt><trkpt lat="46.31099125250896" lon="11.462452320243688"><ele>1287.5</ele><time>2026-05-02T10:15:56.482Z</time></trkpt><trkpt lat="46.31088278591982" lon="11.4624711308987"><ele>1284.25</ele><time>2026-05-02T10:15:57.482Z</time></trkpt><trkpt lat="46.31077169841022" lon="11.462464453385593"><ele>1281.0</ele><time>2026-05-02T10:15:58.482Z</time></trkpt><trkpt lat="46.310651371379" lon="11.462379477836217"><ele>1278.25</ele><time>2026-05-02T10:15:59.482Z</time></trkpt><trkpt lat="46.3105693406182" lon="11.462243448243758"><ele>1275.5</ele><time>2026-05-02T10:16:00.482Z</time></trkpt><trkpt lat="46.310510161705395" lon="11.462112401960823"><ele>1272.75</ele><time>2026-05-02T10:16:01.482Z</time></trkpt><trkpt lat="46.310421949572444" lon="11.461995854441303"><ele>1270.0</ele><time>2026-05-02T10:16:02.482Z</time></trkpt><trkpt lat="46.3103052000317" lon="11.461956270051893"><ele>1270.0</ele><time>2026-05-02T10:16:03.482Z</time></trkpt><trkpt lat="46.310178673318454" lon="11.461976119047147"><ele>1270.0</ele><time>2026-05-02T10:16:04.482Z</time></trkpt><trkpt lat="46.31006787706786" lon="11.462036113489006"><ele>1270.0</ele><time>2026-05-02T10:16:05.482Z</time></trkpt><trkpt lat="46.309970358461094" lon="11.462166217289576"><ele>1270.0</ele><time>2026-05-02T10:16:06.482Z</time></trkpt><trkpt lat="46.30988533471075" lon="11.462326515156596"><ele>1270.0</ele><time>2026-05-02T10:16:07.482Z</time></trkpt><trkpt lat="46.30977561909847" lon="11.46245875442912"><ele>1270.0</ele><time>2026-05-02T10:16:08.482Z</time></trkpt><trkpt lat="46.309705963605175" lon="11.462611543305348"><ele>1270.0</ele><time>2026-05-02T10:16:09.482Z</time></trkpt><trkpt lat="46.309633789336296" lon="11.462747466616818"><ele>1270.0</ele><time>2026-05-02T10:16:10.482Z</time></trkpt><trkpt lat="46.30955117211692" lon="11.462847282975288"><ele>1267.0</ele><time>2026-05-02T10:16:11.482Z</time></trkpt><trkpt lat="46.30944557866451" lon="11.46291637847961"><ele>1264.0</ele><time>2026-05-02T10:16:12.482Z</time></trkpt><trkpt lat="46.30932344294473" lon="11.462946853039345"><ele>1261.0</ele><time>2026-05-02T10:16:13.482Z</time></trkpt><trkpt lat="46.30919589840037" lon="11.46292973342431"><ele>1258.0</ele><time>2026-05-02T10:16:14.482Z</time></trkpt><trkpt lat="46.30908196915164" lon="11.462882224051048"><ele>1258.0</ele><time>2026-05-02T10:16:15.482Z</time></trkpt><trkpt lat="46.30896114122094" lon="11.462762273873544"><ele>1258.0</ele><time>2026-05-02T10:16:16.482Z</time></trkpt><trkpt lat="46.30887970455291" lon="11.462577954370495"><ele>1258.0</ele><time>2026-05-02T10:16:17.482Z</time></trkpt><trkpt lat="46.30880303031481" lon="11.462422660399087"><ele>1258.0</ele><time>2026-05-02T10:16:18.482Z</time></trkpt><trkpt lat="46.30873138429378" lon="11.462258101285647"><ele>1253.5</ele><time>2026-05-02T10:16:19.482Z</time></trkpt><trkpt lat="46.308680603073704" lon="11.462081891232472"><ele>1249.0</ele><time>2026-05-02T10:16:20.482Z</time></trkpt><trkpt lat="46.308616442310296" lon="11.46192908328886"><ele>1244.5</ele><time>2026-05-02T10:16:21.482Z</time></trkpt><trkpt lat="46.308550873904224" lon="11.461799591678773"><ele>1240.0</ele><time>2026-05-02T10:16:22.482Z</time></trkpt><trkpt lat="46.3084907979768" lon="11.46170315213977"><ele>1240.0</ele><time>2026-05-02T10:16:23.482Z</time></trkpt><trkpt lat="46.308423416558846" lon="11.461587633970536"><ele>1240.0</ele><time>2026-05-02T10:16:24.482Z</time></trkpt><trkpt lat="46.30835346043622" lon="11.461489108934982"><ele>1240.0</ele><time>2026-05-02T10:16:25.482Z</time></trkpt><trkpt lat="46.308276755540966" lon="11.461402034259596"><ele>1240.0</ele><time>2026-05-02T10:16:26.482Z</time></trkpt><trkpt lat="46.30820265068036" lon="11.461322857966255"><ele>1240.0</ele><time>2026-05-02T10:16:27.482Z</time></trkpt><trkpt lat="46.308135762941944" lon="11.461256502663902"><ele>1239.5</ele><time>2026-05-02T10:16:28.482Z</time></trkpt><trkpt lat="46.30807948528598" lon="11.461179495162318"><ele>1239.0</ele><time>2026-05-02T10:16:29.482Z</time></trkpt><trkpt lat="46.30803302838367" lon="11.461092858709714"><ele>1238.5</ele><time>2026-05-02T10:16:30.482Z</time></trkpt><trkpt lat="46.30795715874915" lon="11.461013856598516"><ele>1238.0</ele><time>2026-05-02T10:16:31.482Z</time></trkpt><trkpt lat="46.30788900023489" lon="11.46090162339537"><ele>1237.5</ele><time>2026-05-02T10:16:32.482Z</time></trkpt><trkpt lat="46.307838739266835" lon="11.460779750345646"><ele>1237.0</ele><time>2026-05-02T10:16:33.482Z</time></trkpt><trkpt lat="46.30779270471953" lon="11.460662818319161"><ele>1234.6</ele><time>2026-05-02T10:16:34.482Z</time></trkpt><trkpt lat="46.307762269363835" lon="11.460543822640366"><ele>1232.2</ele><time>2026-05-02T10:16:35.482Z</time></trkpt><trkpt lat="46.30775378422893" lon="11.460411674342934"><ele>1229.8</ele><time>2026-05-02T10:16:36.482Z</time></trkpt><trkpt lat="46.30774088391015" lon="11.460280461811632"><ele>1227.4</ele><time>2026-05-02T10:16:37.482Z</time></trkpt><trkpt lat="46.30771606083956" lon="11.460148629344378"><ele>1225.0</ele><time>2026-05-02T10:16:38.482Z</time></trkpt><trkpt lat="46.30766959889708" lon="11.460032303007953"><ele>1225.0</ele><time>2026-05-02T10:16:39.482Z</time></trkpt><trkpt lat="46.30760359532774" lon="11.459923587337938"><ele>1225.0</ele><time>2026-05-02T10:16:40.482Z</time></trkpt><trkpt lat="46.30753200121475" lon="11.459828452043537"><ele>1225.0</ele><time>2026-05-02T10:16:41.482Z</time></trkpt><trkpt lat="46.30747440370735" lon="11.459752673987158"><ele>1225.0</ele><time>2026-05-02T10:16:42.482Z</time></trkpt><trkpt lat="46.307414488950165" lon="11.459691496673587"><ele>1225.0</ele><time>2026-05-02T10:16:43.482Z</time></trkpt><trkpt lat="46.307370199735374" lon="11.459607426589029"><ele>1225.0</ele><time>2026-05-02T10:16:44.482Z</time></trkpt><trkpt lat="46.30730277494898" lon="11.459552377833875"><ele>1225.0</ele><time>2026-05-02T10:16:45.482Z</time></trkpt><trkpt lat="46.307247534268676" lon="11.459468822608425"><ele>1225.0</ele><time>2026-05-02T10:16:46.482Z</time></trkpt><trkpt lat="46.30719747951234" lon="11.459371291499314"><ele>1225.0</ele><time>2026-05-02T10:16:47.482Z</time></trkpt><trkpt lat="46.307141661720095" lon="11.459252154448352"><ele>1225.0</ele><time>2026-05-02T10:16:48.482Z</time></trkpt><trkpt lat="46.30706788502593" lon="11.459145894563036"><ele>1225.0</ele><time>2026-05-02T10:16:49.482Z</time></trkpt><trkpt lat="46.30698160258056" lon="11.459054641083107"><ele>1221.8</ele><time>2026-05-02T10:16:50.482Z</time></trkpt><trkpt lat="46.306890200874015" lon="11.458990455920324"><ele>1218.6</ele><time>2026-05-02T10:16:51.482Z</time></trkpt><trkpt lat="46.30681455902005" lon="11.458912715881626"><ele>1215.4</ele><time>2026-05-02T10:16:52.482Z</time></trkpt><trkpt lat="46.30673672584495" lon="11.45883581489597"><ele>1212.2</ele><time>2026-05-02T10:16:53.482Z</time></trkpt><trkpt lat="46.306663840551046" lon="11.458758895527685"><ele>1209.0</ele><time>2026-05-02T10:16:54.482Z</time></trkpt><trkpt lat="46.30658119162723" lon="11.458677709056321"><ele>1208.8</ele><time>2026-05-02T10:16:55.482Z</time></trkpt><trkpt lat="46.30650466163855" lon="11.45859592768434"><ele>1208.6000000000001</ele><time>2026-05-02T10:16:56.482Z</time></trkpt><trkpt lat="46.306416675466224" lon="11.458526464337131"><ele>1208.4</ele><time>2026-05-02T10:16:57.482Z</time></trkpt><trkpt lat="46.30633013972636" lon="11.458479463004245"><ele>1208.2</ele><time>2026-05-02T10:16:58.482Z</time></trkpt><trkpt lat="46.30623588032945" lon="11.458420554783812"><ele>1208.0</ele><time>2026-05-02T10:16:59.482Z</time></trkpt><trkpt lat="46.30612870582981" lon="11.458397547900814"><ele>1206.2</ele><time>2026-05-02T10:17:00.482Z</time></trkpt><trkpt lat="46.3060292193241" lon="11.45838312848257"><ele>1204.4</ele><time>2026-05-02T10:17:01.482Z</time></trkpt><trkpt lat="46.30591588417461" lon="11.458364684584007"><ele>1202.6000000000001</ele><time>2026-05-02T10:17:02.482Z</time></trkpt><trkpt lat="46.30581313765585" lon="11.458337835667868"><ele>1200.8</ele><time>2026-05-02T10:17:03.482Z</time></trkpt><trkpt lat="46.30571648140241" lon="11.458285404200558"><ele>1199.0</ele><time>2026-05-02T10:17:04.482Z</time></trkpt><trkpt lat="46.30561732096233" lon="11.458222501906787"><ele>1197.3333333333335</ele><time>2026-05-02T10:17:05.482Z</time></trkpt><trkpt lat="46.30553961110692" lon="11.458160107255448"><ele>1195.6666666666667</ele><time>2026-05-02T10:17:06.482Z</time></trkpt><trkpt lat="46.30546615366837" lon="11.458089166017675"><ele>1194.0</ele><time>2026-05-02T10:17:07.482Z</time></trkpt><trkpt lat="46.3053961316416" lon="11.458006788727026"><ele>1192.3333333333333</ele><time>2026-05-02T10:17:08.482Z</time></trkpt><trkpt lat="46.30533961392686" lon="11.457923675704086"><ele>1190.6666666666665</ele><time>2026-05-02T10:17:09.482Z</time></trkpt><trkpt lat="46.30528435167114" lon="11.457833932449864"><ele>1189.0</ele><time>2026-05-02T10:17:10.482Z</time></trkpt><trkpt lat="46.30525819056407" lon="11.457704315557308"><ele>1189.0</ele><time>2026-05-02T10:17:11.482Z</time></trkpt><trkpt lat="46.305235824056474" lon="11.457564793846545"><ele>1189.0</ele><time>2026-05-02T10:17:12.482Z</time></trkpt><trkpt lat="46.30521433913805" lon="11.457431369257083"><ele>1189.0</ele><time>2026-05-02T10:17:13.482Z</time></trkpt><trkpt lat="46.305199477829724" lon="11.457302818078126"><ele>1189.0</ele><time>2026-05-02T10:17:14.482Z</time></trkpt><trkpt lat="46.305184637444235" lon="11.457175158238574"><ele>1189.0</ele><time>2026-05-02T10:17:15.482Z</time></trkpt><trkpt lat="46.305164887102684" lon="11.45705473724188"><ele>1189.6000000000001</ele><time>2026-05-02T10:17:16.482Z</time></trkpt><trkpt lat="46.30512912346969" lon="11.456946232016957"><ele>1190.2</ele><time>2026-05-02T10:17:17.482Z</time></trkpt><trkpt lat="46.305105940204314" lon="11.456829694934067"><ele>1190.8000000000002</ele><time>2026-05-02T10:17:18.482Z</time></trkpt><trkpt lat="46.305043622792866" lon="11.456736357243633"><ele>1191.4</ele><time>2026-05-02T10:17:19.482Z</time></trkpt><trkpt lat="46.30494602253609" lon="11.456672079260844"><ele>1192.0</ele><time>2026-05-02T10:17:20.482Z</time></trkpt><trkpt lat="46.30485926219415" lon="11.456657314693572"><ele>1192.0</ele><time>2026-05-02T10:17:21.482Z</time></trkpt><trkpt lat="46.30475855105554" lon="11.456640987669786"><ele>1192.0</ele><time>2026-05-02T10:17:22.482Z</time></trkpt><trkpt lat="46.30468339123176" lon="11.456629694256353"><ele>1192.0</ele><time>2026-05-02T10:17:23.482Z</time></trkpt><trkpt lat="46.3046082600651" lon="11.45661923034658"><ele>1192.0</ele><time>2026-05-02T10:17:24.482Z</time></trkpt><trkpt lat="46.30452325106262" lon="11.456636301781451"><ele>1192.0</ele><time>2026-05-02T10:17:25.482Z</time></trkpt><trkpt lat="46.30443512848048" lon="11.456604673778788"><ele>1192.0</ele><time>2026-05-02T10:17:26.482Z</time></trkpt><trkpt lat="46.30435070219311" lon="11.456558930415282"><ele>1189.5</ele><time>2026-05-02T10:17:27.482Z</time></trkpt><trkpt lat="46.30427734889552" lon="11.456527075070044"><ele>1187.0</ele><time>2026-05-02T10:17:28.482Z</time></trkpt><trkpt lat="46.304203475760126" lon="11.456491102026646"><ele>1184.5</ele><time>2026-05-02T10:17:29.482Z</time></trkpt><trkpt lat="46.304126585240034" lon="11.456468894472914"><ele>1182.0</ele><time>2026-05-02T10:17:30.483Z</time></trkpt><trkpt lat="46.304065352104445" lon="11.456398181801028"><ele>1179.5</ele><time>2026-05-02T10:17:31.483Z</time></trkpt><trkpt lat="46.3039924315007" lon="11.456369225421604"><ele>1177.0</ele><time>2026-05-02T10:17:32.483Z</time></trkpt><trkpt lat="46.30391550405644" lon="11.456396423365952"><ele>1176.4285714285716</ele><time>2026-05-02T10:17:33.483Z</time></trkpt><trkpt lat="46.30384936539142" lon="11.4563607050456"><ele>1175.857142857143</ele><time>2026-05-02T10:17:34.483Z</time></trkpt><trkpt lat="46.30378187691506" lon="11.456324891860342"><ele>1175.2857142857142</ele><time>2026-05-02T10:17:35.483Z</time></trkpt><trkpt lat="46.30371647526552" lon="11.456280944791436"><ele>1174.7142857142858</ele><time>2026-05-02T10:17:36.483Z</time></trkpt><trkpt lat="46.30365366016373" lon="11.456220624514723"><ele>1174.142857142857</ele><time>2026-05-02T10:17:37.483Z</time></trkpt><trkpt lat="46.30359199799562" lon="11.456174570140476"><ele>1173.5714285714287</ele><time>2026-05-02T10:17:38.483Z</time></trkpt><trkpt lat="46.30352555967406" lon="11.456127109756185"><ele>1173.0</ele><time>2026-05-02T10:17:39.483Z</time></trkpt><trkpt lat="46.30347203701989" lon="11.456078863537503"><ele>1173.0</ele><time>2026-05-02T10:17:40.483Z</time></trkpt><trkpt lat="46.30336638916895" lon="11.455988607354346"><ele>1173.0</ele><time>2026-05-02T10:17:42.483Z</time></trkpt><trkpt lat="46.303311248174445" lon="11.455944142573038"><ele>1173.0</ele><time>2026-05-02T10:17:43.483Z</time></trkpt><trkpt lat="46.303239958606845" lon="11.455921845002784"><ele>1173.0</ele><time>2026-05-02T10:17:44.483Z</time></trkpt><trkpt lat="46.303171178609425" lon="11.455892162212686"><ele>1173.0</ele><time>2026-05-02T10:17:45.483Z</time></trkpt><trkpt lat="46.3030767735328" lon="11.455864801559374"><ele>1173.0</ele><time>2026-05-02T10:17:47.483Z</time></trkpt><trkpt lat="46.30301074842162" lon="11.455845622432054"><ele>1170.6</ele><time>2026-05-02T10:17:49.483Z</time></trkpt><trkpt lat="46.302928919989895" lon="11.455836154503697"><ele>1168.1999999999998</ele><time>2026-05-02T10:17:51.483Z</time></trkpt><trkpt lat="46.30285991580314" lon="11.455847999092681"><ele>1165.8</ele><time>2026-05-02T10:17:53.483Z</time></trkpt><trkpt lat="46.30279742343134" lon="11.455774378496548"><ele>1163.3999999999999</ele><time>2026-05-02T10:17:55.483Z</time></trkpt><trkpt lat="46.30270811542231" lon="11.455702124973783"><ele>1161.0</ele><time>2026-05-02T10:17:57.483Z</time></trkpt><trkpt lat="46.30272378676585" lon="11.455533204862714"><ele>1161.0</ele><time>2026-05-02T10:17:59.483Z</time></trkpt><trkpt lat="46.30283288394334" lon="11.45546236721141"><ele>1161.0</ele><time>2026-05-02T10:18:01.483Z</time></trkpt><trkpt lat="46.3028997482327" lon="11.455421738857812"><ele>1161.0</ele><time>2026-05-02T10:18:02.483Z</time></trkpt><trkpt lat="46.30296069258745" lon="11.455380809254628"><ele>1161.0</ele><time>2026-05-02T10:18:03.483Z</time></trkpt><trkpt lat="46.30301818112626" lon="11.455337824357702"><ele>1161.0</ele><time>2026-05-02T10:18:04.483Z</time></trkpt><trkpt lat="46.30310146500989" lon="11.455279079973263"><ele>1161.0</ele><time>2026-05-02T10:18:05.483Z</time></trkpt><trkpt lat="46.303150860690096" lon="11.455192316495719"><ele>1162.1666666666667</ele><time>2026-05-02T10:18:06.483Z</time></trkpt><trkpt lat="46.303187394199036" lon="11.45509770668806"><ele>1163.3333333333333</ele><time>2026-05-02T10:18:07.483Z</time></trkpt><trkpt lat="46.30322049726054" lon="11.455014560144104"><ele>1164.5</ele><time>2026-05-02T10:18:08.483Z</time></trkpt><trkpt lat="46.30324203003409" lon="11.454920237406874"><ele>1165.6666666666665</ele><time>2026-05-02T10:18:09.483Z</time></trkpt><trkpt lat="46.30324081341019" lon="11.454808399365277"><ele>1166.8333333333333</ele><time>2026-05-02T10:18:10.483Z</time></trkpt><trkpt lat="46.3032414317524" lon="11.454687428011885"><ele>1168.0</ele><time>2026-05-02T10:18:11.483Z</time></trkpt><trkpt lat="46.303229069692186" lon="11.454567853767097"><ele>1169.0</ele><time>2026-05-02T10:18:12.483Z</time></trkpt><trkpt lat="46.30319303005025" lon="11.454440649615508"><ele>1170.0</ele><time>2026-05-02T10:18:13.483Z</time></trkpt><trkpt lat="46.30314280699558" lon="11.454327180644807"><ele>1171.0</ele><time>2026-05-02T10:18:14.483Z</time></trkpt><trkpt lat="46.30303843908717" lon="11.454208030612687"><ele>1172.0</ele><time>2026-05-02T10:18:15.483Z</time></trkpt><trkpt lat="46.30291626808688" lon="11.454075644756209"><ele>1173.0</ele><time>2026-05-02T10:18:16.483Z</time></trkpt><trkpt lat="46.302806000110934" lon="11.453941015458929"><ele>1174.0</ele><time>2026-05-02T10:18:17.483Z</time></trkpt><trkpt lat="46.30270790380108" lon="11.453816587954813"><ele>1175.0</ele><time>2026-05-02T10:18:18.483Z</time></trkpt><trkpt lat="46.30262152818983" lon="11.453708547191008"><ele>1176.0</ele><time>2026-05-02T10:18:19.483Z</time></trkpt><trkpt lat="46.30254054577023" lon="11.45360768150088"><ele>1176.0</ele><time>2026-05-02T10:18:20.483Z</time></trkpt><trkpt lat="46.30246952737685" lon="11.453520387932542"><ele>1176.0</ele><time>2026-05-02T10:18:21.483Z</time></trkpt><trkpt lat="46.302386751406516" lon="11.453417810057696"><ele>1176.0</ele><time>2026-05-02T10:18:22.483Z</time></trkpt><trkpt lat="46.30228016164964" lon="11.4532951935903"><ele>1176.0</ele><time>2026-05-02T10:18:23.483Z</time></trkpt><trkpt lat="46.30215722749071" lon="11.453215185572319"><ele>1173.6</ele><time>2026-05-02T10:18:24.483Z</time></trkpt><trkpt lat="46.30203847873621" lon="11.453185985669561"><ele>1171.1999999999998</ele><time>2026-05-02T10:18:25.483Z</time></trkpt><trkpt lat="46.30193132461272" lon="11.45316835399484"><ele>1168.8000000000002</ele><time>2026-05-02T10:18:26.483Z</time></trkpt><trkpt lat="46.301836341629354" lon="11.453153904255956"><ele>1166.4</ele><time>2026-05-02T10:18:27.483Z</time></trkpt><trkpt lat="46.30175562100318" lon="11.453142345598918"><ele>1164.0</ele><time>2026-05-02T10:18:28.483Z</time></trkpt><trkpt lat="46.3016820496549" lon="11.453136944603866"><ele>1164.0</ele><time>2026-05-02T10:18:29.483Z</time></trkpt><trkpt lat="46.30160705506206" lon="11.453144930364276"><ele>1164.0</ele><time>2026-05-02T10:18:30.483Z</time></trkpt><trkpt lat="46.30150083224286" lon="11.453038446941889"><ele>1164.0</ele><time>2026-05-02T10:18:32.483Z</time></trkpt><trkpt lat="46.301441727022464" lon="11.45294867017448"><ele>1164.0</ele><time>2026-05-02T10:18:33.483Z</time></trkpt><trkpt lat="46.30138698734146" lon="11.452833021015675"><ele>1164.0</ele><time>2026-05-02T10:18:34.483Z</time></trkpt><trkpt lat="46.30136790578429" lon="11.45266422487406"><ele>1164.25</ele><time>2026-05-02T10:18:35.483Z</time></trkpt><trkpt lat="46.301346670720044" lon="11.452480709495287"><ele>1164.5</ele><time>2026-05-02T10:18:36.483Z</time></trkpt><trkpt lat="46.301344296189036" lon="11.452328015190682"><ele>1164.75</ele><time>2026-05-02T10:18:37.483Z</time></trkpt><trkpt lat="46.3013337339644" lon="11.452164428646173"><ele>1165.0</ele><time>2026-05-02T10:18:38.483Z</time></trkpt><trkpt lat="46.30132240509" lon="11.451993808919976"><ele>1165.0</ele><time>2026-05-02T10:18:39.483Z</time></trkpt><trkpt lat="46.30130439030137" lon="11.451820909595545"><ele>1165.0</ele><time>2026-05-02T10:18:40.483Z</time></trkpt><trkpt lat="46.30129085861216" lon="11.451623796266636"><ele>1165.0</ele><time>2026-05-02T10:18:41.483Z</time></trkpt><trkpt lat="46.30127050854906" lon="11.451439374582389"><ele>1165.0</ele><time>2026-05-02T10:18:42.483Z</time></trkpt><trkpt lat="46.301256257904" lon="11.451275032079073"><ele>1165.25</ele><time>2026-05-02T10:18:43.483Z</time></trkpt><trkpt lat="46.301240427950745" lon="11.451111190377052"><ele>1165.5</ele><time>2026-05-02T10:18:44.483Z</time></trkpt><trkpt lat="46.30121856270996" lon="11.450940916311794"><ele>1165.75</ele><time>2026-05-02T10:18:45.483Z</time></trkpt><trkpt lat="46.301194851326166" lon="11.450779191613371"><ele>1166.0</ele><time>2026-05-02T10:18:46.483Z</time></trkpt><trkpt lat="46.301180257780565" lon="11.45059917021515"><ele>1167.25</ele><time>2026-05-02T10:18:47.483Z</time></trkpt><trkpt lat="46.30116516878546" lon="11.450420083931784"><ele>1168.5</ele><time>2026-05-02T10:18:48.483Z</time></trkpt><trkpt lat="46.30115437138719" lon="11.450238526616111"><ele>1169.75</ele><time>2026-05-02T10:18:49.483Z</time></trkpt><trkpt lat="46.3011504418076" lon="11.45005621645439"><ele>1171.0</ele><time>2026-05-02T10:18:50.483Z</time></trkpt><trkpt lat="46.30112830544837" lon="11.44987516076777"><ele>1171.0</ele><time>2026-05-02T10:18:51.483Z</time></trkpt><trkpt lat="46.30112406754546" lon="11.449690342114224"><ele>1171.0</ele><time>2026-05-02T10:18:52.483Z</time></trkpt><trkpt lat="46.301111832566065" lon="11.449507659815325"><ele>1171.0</ele><time>2026-05-02T10:18:53.483Z</time></trkpt><trkpt lat="46.30106794975129" lon="11.449345302435567"><ele>1171.0</ele><time>2026-05-02T10:18:54.483Z</time></trkpt><trkpt lat="46.30106022530333" lon="11.449189012238804"><ele>1172.2</ele><time>2026-05-02T10:18:55.483Z</time></trkpt><trkpt lat="46.301020926840366" lon="11.44901424415689"><ele>1173.3999999999999</ele><time>2026-05-02T10:18:56.483Z</time></trkpt><trkpt lat="46.30099858366802" lon="11.44885516978113"><ele>1174.6</ele><time>2026-05-02T10:18:57.483Z</time></trkpt><trkpt lat="46.30097880497822" lon="11.44872463998647"><ele>1175.8</ele><time>2026-05-02T10:18:58.483Z</time></trkpt><trkpt lat="46.30096380536007" lon="11.448596659910695"><ele>1177.0</ele><time>2026-05-02T10:18:59.483Z</time></trkpt><trkpt lat="46.30095405324016" lon="11.448483711785725"><ele>1178.3333333333333</ele><time>2026-05-02T10:19:00.483Z</time></trkpt><trkpt lat="46.300942897767385" lon="11.448382376830905"><ele>1179.6666666666665</ele><time>2026-05-02T10:19:01.483Z</time></trkpt><trkpt lat="46.30096729580277" lon="11.448215175393461"><ele>1181.0</ele><time>2026-05-02T10:19:03.483Z</time></trkpt><trkpt lat="46.30096976324198" lon="11.448070049980577"><ele>1182.3333333333333</ele><time>2026-05-02T10:19:05.483Z</time></trkpt><trkpt lat="46.300915379745625" lon="11.447994609410014"><ele>1183.6666666666667</ele><time>2026-05-02T10:19:06.483Z</time></trkpt><trkpt lat="46.300855854837415" lon="11.44796220204744"><ele>1185.0</ele><time>2026-05-02T10:19:07.483Z</time></trkpt><trkpt lat="46.30086061331266" lon="11.447856055437482"><ele>1186.0</ele><time>2026-05-02T10:19:08.483Z</time></trkpt><trkpt lat="46.30088379980003" lon="11.447738649863455"><ele>1187.0</ele><time>2026-05-02T10:19:09.483Z</time></trkpt><trkpt lat="46.30087865366364" lon="11.447632022365061"><ele>1188.0</ele><time>2026-05-02T10:19:10.483Z</time></trkpt><trkpt lat="46.30087622650201" lon="11.447433422681492"><ele>1189.0</ele><time>2026-05-02T10:19:12.483Z</time></trkpt><trkpt lat="46.3008631607048" lon="11.447312057168087"><ele>1190.0</ele><time>2026-05-02T10:19:13.483Z</time></trkpt><trkpt lat="46.300850274259155" lon="11.44721311952965"><ele>1190.857142857143</ele><time>2026-05-02T10:19:14.483Z</time></trkpt><trkpt lat="46.30083786458035" lon="11.447121386621575"><ele>1191.7142857142858</ele><time>2026-05-02T10:19:15.483Z</time></trkpt><trkpt lat="46.30081290467106" lon="11.447034974266549"><ele>1192.5714285714284</ele><time>2026-05-02T10:19:16.483Z</time></trkpt><trkpt lat="46.300814837735516" lon="11.446941200618529"><ele>1193.4285714285716</ele><time>2026-05-02T10:19:17.483Z</time></trkpt><trkpt lat="46.30080049195502" lon="11.4468451268789"><ele>1194.2857142857142</ele><time>2026-05-02T10:19:18.483Z</time></trkpt><trkpt lat="46.300780787134606" lon="11.446755244181064"><ele>1195.142857142857</ele><time>2026-05-02T10:19:19.483Z</time></trkpt><trkpt lat="46.30076402722386" lon="11.446660614806571"><ele>1196.0</ele><time>2026-05-02T10:19:20.483Z</time></trkpt><trkpt lat="46.30077239758874" lon="11.446561049029382"><ele>1196.0</ele><time>2026-05-02T10:19:21.483Z</time></trkpt><trkpt lat="46.30078254238419" lon="11.44646825366215"><ele>1196.0</ele><time>2026-05-02T10:19:22.483Z</time></trkpt><trkpt lat="46.30073414694123" lon="11.44636019878548"><ele>1196.0</ele><time>2026-05-02T10:19:24.483Z</time></trkpt><trkpt lat="46.30077814459632" lon="11.446223239874184"><ele>1196.0</ele><time>2026-05-02T10:19:26.483Z</time></trkpt><trkpt lat="46.300824509965025" lon="11.446159080828439"><ele>1196.0</ele><time>2026-05-02T10:19:27.483Z</time></trkpt><trkpt lat="46.30085752883925" lon="11.446018568822998"><ele>1196.0</ele><time>2026-05-02T10:19:29.483Z</time></trkpt><trkpt lat="46.300829901202555" lon="11.445927777734395"><ele>1196.3999999999999</ele><time>2026-05-02T10:19:30.483Z</time></trkpt><trkpt lat="46.300846247637" lon="11.445779848138898"><ele>1196.8</ele><time>2026-05-02T10:19:32.483Z</time></trkpt><trkpt lat="46.30089994636532" lon="11.445731751090072"><ele>1197.1999999999998</ele><time>2026-05-02T10:19:33.483Z</time></trkpt><trkpt lat="46.301011079923114" lon="11.44572525630424"><ele>1197.6</ele><time>2026-05-02T10:19:35.483Z</time></trkpt><trkpt lat="46.30112468549105" lon="11.445703088027553"><ele>1198.0</ele><time>2026-05-02T10:19:38.483Z</time></trkpt><trkpt lat="46.30118783690522" lon="11.445720013144348"><ele>1198.0</ele><time>2026-05-02T10:19:39.483Z</time></trkpt><trkpt lat="46.30124415686732" lon="11.445678860637038"><ele>1198.0</ele><time>2026-05-02T10:19:40.483Z</time></trkpt><trkpt lat="46.301347948539075" lon="11.4455863986617"><ele>1198.0</ele><time>2026-05-02T10:19:42.483Z</time></trkpt><trkpt lat="46.30141767715704" lon="11.445517615667029"><ele>1198.0</ele><time>2026-05-02T10:19:43.483Z</time></trkpt><trkpt lat="46.30147120255667" lon="11.445467234419572"><ele>1198.0</ele><time>2026-05-02T10:19:44.483Z</time></trkpt><trkpt lat="46.30157191850311" lon="11.445399464564323"><ele>1198.0</ele><time>2026-05-02T10:19:46.483Z</time></trkpt><trkpt lat="46.301651205724305" lon="11.445328846233027"><ele>1201.8333333333333</ele><time>2026-05-02T10:19:47.483Z</time></trkpt><trkpt lat="46.301720858936356" lon="11.445244384446607"><ele>1205.6666666666665</ele><time>2026-05-02T10:19:48.483Z</time></trkpt><trkpt lat="46.30178099174073" lon="11.445156161659174"><ele>1209.5</ele><time>2026-05-02T10:19:49.483Z</time></trkpt><trkpt lat="46.30182928085522" lon="11.445067139710028"><ele>1213.3333333333333</ele><time>2026-05-02T10:19:50.483Z</time></trkpt><trkpt lat="46.301885761501346" lon="11.444977599125773"><ele>1217.1666666666667</ele><time>2026-05-02T10:19:51.483Z</time></trkpt><trkpt lat="46.30194212664029" lon="11.444894658590007"><ele>1221.0</ele><time>2026-05-02T10:19:52.483Z</time></trkpt><trkpt lat="46.302019539779145" lon="11.444815311202776"><ele>1221.0</ele><time>2026-05-02T10:19:53.483Z</time></trkpt><trkpt lat="46.302110981874904" lon="11.44471742145509"><ele>1221.0</ele><time>2026-05-02T10:19:54.483Z</time></trkpt><trkpt lat="46.302197479998775" lon="11.444627603654135"><ele>1221.0</ele><time>2026-05-02T10:19:55.483Z</time></trkpt><trkpt lat="46.30226408709791" lon="11.44457679561901"><ele>1221.0</ele><time>2026-05-02T10:19:56.483Z</time></trkpt><trkpt lat="46.30232935518841" lon="11.444507892739223"><ele>1221.0</ele><time>2026-05-02T10:19:57.483Z</time></trkpt><trkpt lat="46.3024073645053" lon="11.444424229552213"><ele>1226.3999999999999</ele><time>2026-05-02T10:19:58.483Z</time></trkpt><trkpt lat="46.30250068293472" lon="11.444341158092985"><ele>1231.8</ele><time>2026-05-02T10:19:59.483Z</time></trkpt><trkpt lat="46.30259173394251" lon="11.444257713201571"><ele>1237.1999999999998</ele><time>2026-05-02T10:20:00.483Z</time></trkpt><trkpt lat="46.3026744282213" lon="11.444149750776226"><ele>1242.6</ele><time>2026-05-02T10:20:01.483Z</time></trkpt><trkpt lat="46.302751566980454" lon="11.444061959301404"><ele>1248.0</ele><time>2026-05-02T10:20:02.483Z</time></trkpt><trkpt lat="46.30282214923881" lon="11.443962763405729"><ele>1248.0</ele><time>2026-05-02T10:20:03.483Z</time></trkpt><trkpt lat="46.30285633534466" lon="11.443827312947342"><ele>1248.0</ele><time>2026-05-02T10:20:04.483Z</time></trkpt><trkpt lat="46.30285185217289" lon="11.443655478042515"><ele>1248.0</ele><time>2026-05-02T10:20:05.483Z</time></trkpt><trkpt lat="46.30285647004963" lon="11.44347162636632"><ele>1248.0</ele><time>2026-05-02T10:20:06.483Z</time></trkpt><trkpt lat="46.302862339846534" lon="11.443290873217649"><ele>1250.0</ele><time>2026-05-02T10:20:07.483Z</time></trkpt><trkpt lat="46.30286965192566" lon="11.443133407901735"><ele>1252.0</ele><time>2026-05-02T10:20:08.483Z</time></trkpt><trkpt lat="46.30288997287413" lon="11.442979534969925"><ele>1254.0</ele><time>2026-05-02T10:20:09.483Z</time></trkpt><trkpt lat="46.30292657276306" lon="11.44282491818527"><ele>1256.0</ele><time>2026-05-02T10:20:10.483Z</time></trkpt><trkpt lat="46.302997353876286" lon="11.4426932050781"><ele>1258.0</ele><time>2026-05-02T10:20:11.483Z</time></trkpt><trkpt lat="46.303068856406014" lon="11.442575076292473"><ele>1259.75</ele><time>2026-05-02T10:20:12.483Z</time></trkpt><trkpt lat="46.30316383352901" lon="11.442460131720106"><ele>1261.5</ele><time>2026-05-02T10:20:13.483Z</time></trkpt><trkpt lat="46.30324033912536" lon="11.442358027208785"><ele>1263.25</ele><time>2026-05-02T10:20:14.483Z</time></trkpt><trkpt lat="46.30331688289551" lon="11.442254722415665"><ele>1265.0</ele><time>2026-05-02T10:20:15.483Z</time></trkpt><trkpt lat="46.30342645767309" lon="11.44214810384578"><ele>1265.0</ele><time>2026-05-02T10:20:16.483Z</time></trkpt><trkpt lat="46.303498089636406" lon="11.442033867140218"><ele>1265.0</ele><time>2026-05-02T10:20:17.483Z</time></trkpt><trkpt lat="46.303552094338684" lon="11.441939401633624"><ele>1265.0</ele><time>2026-05-02T10:20:18.483Z</time></trkpt><trkpt lat="46.30361154866742" lon="11.441857809880618"><ele>1265.0</ele><time>2026-05-02T10:20:19.483Z</time></trkpt><trkpt lat="46.303669776523265" lon="11.44181141046332"><ele>1265.0</ele><time>2026-05-02T10:20:20.483Z</time></trkpt><trkpt lat="46.30372499578821" lon="11.441757530783958"><ele>1265.0</ele><time>2026-05-02T10:20:21.483Z</time></trkpt><trkpt lat="46.30378053504273" lon="11.441703338880359"><ele>1265.0</ele><time>2026-05-02T10:20:22.483Z</time></trkpt><trkpt lat="46.3038142800023" lon="11.441598590667576"><ele>1265.0</ele><time>2026-05-02T10:20:23.483Z</time></trkpt><trkpt lat="46.30387394280192" lon="11.441462955494227"><ele>1265.0</ele><time>2026-05-02T10:20:25.483Z</time></trkpt><trkpt lat="46.30391218214733" lon="11.441374216945476"><ele>1265.0</ele><time>2026-05-02T10:20:26.483Z</time></trkpt><trkpt lat="46.30393395042657" lon="11.441269274073374"><ele>1265.0</ele><time>2026-05-02T10:20:27.483Z</time></trkpt><trkpt lat="46.30394130558157" lon="11.441159693150446"><ele>1265.0</ele><time>2026-05-02T10:20:28.483Z</time></trkpt><trkpt lat="46.30394048963994" lon="11.441048098619346"><ele>1265.3333333333335</ele><time>2026-05-02T10:20:29.483Z</time></trkpt><trkpt lat="46.30393976543208" lon="11.440948820711899"><ele>1265.6666666666667</ele><time>2026-05-02T10:20:30.483Z</time></trkpt><trkpt lat="46.30391629011599" lon="11.440853039576437"><ele>1266.0</ele><time>2026-05-02T10:20:31.483Z</time></trkpt><trkpt lat="46.3038993367023" lon="11.440762839006531"><ele>1266.3333333333333</ele><time>2026-05-02T10:20:32.483Z</time></trkpt><trkpt lat="46.30386765130586" lon="11.440680412529867"><ele>1266.6666666666665</ele><time>2026-05-02T10:20:33.483Z</time></trkpt><trkpt lat="46.303811832478175" lon="11.440519981814449"><ele>1267.0</ele><time>2026-05-02T10:20:35.483Z</time></trkpt><trkpt lat="46.303754826411726" lon="11.4404596610112"><ele>1267.0</ele><time>2026-05-02T10:20:36.483Z</time></trkpt><trkpt lat="46.30372105618238" lon="11.440378648176598"><ele>1267.0</ele><time>2026-05-02T10:20:37.483Z</time></trkpt><trkpt lat="46.303675341809566" lon="11.440313408574966"><ele>1267.0</ele><time>2026-05-02T10:20:38.483Z</time></trkpt><trkpt lat="46.30361434002566" lon="11.440236747779819"><ele>1267.0</ele><time>2026-05-02T10:20:39.483Z</time></trkpt><trkpt lat="46.30355885898915" lon="11.44015025714585"><ele>1267.0</ele><time>2026-05-02T10:20:40.483Z</time></trkpt><trkpt lat="46.303512646920424" lon="11.440061654842415"><ele>1267.0</ele><time>2026-05-02T10:20:41.483Z</time></trkpt><trkpt lat="46.30349217517911" lon="11.439924651064606"><ele>1267.0</ele><time>2026-05-02T10:20:42.483Z</time></trkpt><trkpt lat="46.30349317444475" lon="11.439812525759812"><ele>1267.0</ele><time>2026-05-02T10:20:43.483Z</time></trkpt><trkpt lat="46.30350030083768" lon="11.43969927789717"><ele>1267.0</ele><time>2026-05-02T10:20:44.483Z</time></trkpt><trkpt lat="46.30353043557335" lon="11.439583631727876"><ele>1267.0</ele><time>2026-05-02T10:20:45.483Z</time></trkpt><trkpt lat="46.30357115679919" lon="11.439476878340288"><ele>1267.0</ele><time>2026-05-02T10:20:46.483Z</time></trkpt><trkpt lat="46.30361416728579" lon="11.439378847866402"><ele>1267.0</ele><time>2026-05-02T10:20:47.483Z</time></trkpt><trkpt lat="46.30366908022418" lon="11.43928539941802"><ele>1265.0</ele><time>2026-05-02T10:20:48.483Z</time></trkpt><trkpt lat="46.303721935923434" lon="11.43919015053812"><ele>1263.0</ele><time>2026-05-02T10:20:49.483Z</time></trkpt><trkpt lat="46.30376489773533" lon="11.43910613747088"><ele>1261.0</ele><time>2026-05-02T10:20:50.483Z</time></trkpt><trkpt lat="46.30383517810994" lon="11.438965527416856"><ele>1259.0</ele><time>2026-05-02T10:20:52.483Z</time></trkpt><trkpt lat="46.3039057145363" lon="11.438818383676615"><ele>1257.0</ele><time>2026-05-02T10:20:54.483Z</time></trkpt><trkpt lat="46.30397684415277" lon="11.438680547778418"><ele>1255.7142857142858</ele><time>2026-05-02T10:20:56.483Z</time></trkpt><trkpt lat="46.30401682885929" lon="11.43860883182129"><ele>1254.4285714285716</ele><time>2026-05-02T10:20:57.483Z</time></trkpt><trkpt lat="46.304065123681724" lon="11.438536281201998"><ele>1253.1428571428573</ele><time>2026-05-02T10:20:58.483Z</time></trkpt><trkpt lat="46.30410636328381" lon="11.43845736011666"><ele>1251.857142857143</ele><time>2026-05-02T10:20:59.483Z</time></trkpt><trkpt lat="46.3041570406736" lon="11.438375883755798"><ele>1250.5714285714284</ele><time>2026-05-02T10:21:00.483Z</time></trkpt><trkpt lat="46.30421566340308" lon="11.438304857402565"><ele>1249.2857142857144</ele><time>2026-05-02T10:21:01.483Z</time></trkpt><trkpt lat="46.30428538327516" lon="11.438232939160677"><ele>1248.0</ele><time>2026-05-02T10:21:02.483Z</time></trkpt><trkpt lat="46.304356852942696" lon="11.438165681984469"><ele>1248.0</ele><time>2026-05-02T10:21:03.483Z</time></trkpt><trkpt lat="46.30440443545959" lon="11.438091118704982"><ele>1248.0</ele><time>2026-05-02T10:21:04.483Z</time></trkpt><trkpt lat="46.304455976624645" lon="11.438016699707015"><ele>1248.0</ele><time>2026-05-02T10:21:05.483Z</time></trkpt><trkpt lat="46.30449461757466" lon="11.43793054559842"><ele>1248.0</ele><time>2026-05-02T10:21:06.483Z</time></trkpt><trkpt lat="46.304532231489496" lon="11.437823707346405"><ele>1248.0</ele><time>2026-05-02T10:21:07.483Z</time></trkpt><trkpt lat="46.30456339615762" lon="11.437689128447863"><ele>1248.0</ele><time>2026-05-02T10:21:08.483Z</time></trkpt><trkpt lat="46.30459667314695" lon="11.437574736300494"><ele>1247.5</ele><time>2026-05-02T10:21:09.483Z</time></trkpt><trkpt lat="46.304621608929224" lon="11.437457953468199"><ele>1247.0</ele><time>2026-05-02T10:21:10.483Z</time></trkpt><trkpt lat="46.30465430558612" lon="11.437341983125155"><ele>1246.5</ele><time>2026-05-02T10:21:11.483Z</time></trkpt><trkpt lat="46.30468763659828" lon="11.437231496819471"><ele>1246.0</ele><time>2026-05-02T10:21:12.483Z</time></trkpt><trkpt lat="46.30471722755723" lon="11.437124340520718"><ele>1245.5</ele><time>2026-05-02T10:21:13.483Z</time></trkpt><trkpt lat="46.304748041075094" lon="11.437020295123697"><ele>1245.0</ele><time>2026-05-02T10:21:14.483Z</time></trkpt><trkpt lat="46.30477472101756" lon="11.4369208065017"><ele>1246.6666666666667</ele><time>2026-05-02T10:21:15.483Z</time></trkpt><trkpt lat="46.304802926430185" lon="11.436832406603612"><ele>1248.3333333333333</ele><time>2026-05-02T10:21:16.483Z</time></trkpt><trkpt lat="46.30484977671282" lon="11.436751555051407"><ele>1250.0</ele><time>2026-05-02T10:21:17.483Z</time></trkpt><trkpt lat="46.30488823659145" lon="11.436676543338585"><ele>1251.6666666666665</ele><time>2026-05-02T10:21:18.483Z</time></trkpt><trkpt lat="46.304931433534406" lon="11.436603139981154"><ele>1253.3333333333333</ele><time>2026-05-02T10:21:19.483Z</time></trkpt><trkpt lat="46.30498124981955" lon="11.436526984175181"><ele>1255.0</ele><time>2026-05-02T10:21:20.483Z</time></trkpt><trkpt lat="46.30504683779109" lon="11.436394444491091"><ele>1254.5</ele><time>2026-05-02T10:21:22.483Z</time></trkpt><trkpt lat="46.30509992875199" lon="11.436294947316906"><ele>1254.0</ele><time>2026-05-02T10:21:24.483Z</time></trkpt><trkpt lat="46.30513990187683" lon="11.436206798809103"><ele>1253.5</ele><time>2026-05-02T10:21:26.483Z</time></trkpt><trkpt lat="46.30520646242177" lon="11.436126022502398"><ele>1253.0</ele><time>2026-05-02T10:21:30.483Z</time></trkpt><trkpt lat="46.30524823933922" lon="11.436044539711288"><ele>1252.5</ele><time>2026-05-02T10:21:39.483Z</time></trkpt><trkpt lat="46.30532727990398" lon="11.4360025146285"><ele>1252.0</ele><time>2026-05-02T10:21:42.484Z</time></trkpt><trkpt lat="46.305373845998474" lon="11.435923973264858"><ele>1252.0</ele><time>2026-05-02T10:21:45.484Z</time></trkpt><trkpt lat="46.30544251007694" lon="11.435940869284405"><ele>1252.0</ele><time>2026-05-02T10:25:20.485Z</time></trkpt><trkpt lat="46.305506109145846" lon="11.435963076449045"><ele>1252.0</ele><time>2026-05-02T10:25:32.485Z</time></trkpt><trkpt lat="46.30557531134771" lon="11.435978505962428"><ele>1252.0</ele><time>2026-05-02T10:26:02.485Z</time></trkpt><trkpt lat="46.30554069732758" lon="11.43607738722463"><ele>1252.0</ele><time>2026-05-02T10:26:11.485Z</time></trkpt><trkpt lat="46.30551439983498" lon="11.436163416697767"><ele>1252.0</ele><time>2026-05-02T10:26:18.485Z</time></trkpt><trkpt lat="46.3054635964154" lon="11.436225941408495"><ele>1252.0</ele><time>2026-05-02T10:26:38.485Z</time></trkpt><trkpt lat="46.3055606177767" lon="11.436196395552027"><ele>1252.0</ele><time>2026-05-02T10:34:20.487Z</time></trkpt><trkpt lat="46.30549500817501" lon="11.436180317605315"><ele>1252.0</ele><time>2026-05-02T10:41:47.486Z</time></trkpt><trkpt lat="46.30554873269579" lon="11.436244231940298"><ele>1252.0</ele><time>2026-05-02T10:58:29.489Z</time></trkpt><trkpt lat="46.30546162609706" lon="11.436246791026571"><ele>1252.0</ele><time>2026-05-02T11:02:14.49Z</time></trkpt><trkpt lat="46.305532516758205" lon="11.436223490668338"><ele>1252.0</ele><time>2026-05-02T11:03:09.49Z</time></trkpt><trkpt lat="46.30543482573189" lon="11.436196269840796"><ele>1252.0</ele><time>2026-05-02T11:06:30.491Z</time></trkpt><trkpt lat="46.30550653052816" lon="11.436197707973982"><ele>1252.0</ele><time>2026-05-02T11:09:58.492Z</time></trkpt><trkpt lat="46.30545373240578" lon="11.436307452900108"><ele>1252.0</ele><time>2026-05-02T11:14:29.491Z</time></trkpt><trkpt lat="46.30554070130737" lon="11.436204567348243"><ele>1252.0</ele><time>2026-05-02T11:32:31.492Z</time></trkpt><trkpt lat="46.30547710394213" lon="11.43617319231722"><ele>1252.0</ele><time>2026-05-02T11:41:51.494Z</time></trkpt><trkpt lat="46.30552817620103" lon="11.436115495733754"><ele>1252.0</ele><time>2026-05-02T11:42:04.494Z</time></trkpt><trkpt lat="46.305528453252656" lon="11.435973919887687"><ele>1252.0</ele><time>2026-05-02T11:46:03.494Z</time></trkpt><trkpt lat="46.305495499280674" lon="11.4358685524594"><ele>1252.0</ele><time>2026-05-02T11:46:10.493Z</time></trkpt><trkpt lat="46.305433058523484" lon="11.435888254239693"><ele>1252.0</ele><time>2026-05-02T11:46:16.492Z</time></trkpt><trkpt lat="46.30537601032036" lon="11.435936907635943"><ele>1252.0</ele><time>2026-05-02T11:46:21.492Z</time></trkpt><trkpt lat="46.30531788796899" lon="11.435986794051022"><ele>1252.0</ele><time>2026-05-02T11:46:26.492Z</time></trkpt><trkpt lat="46.305330524167985" lon="11.435892931735838"><ele>1252.0</ele><time>2026-05-02T11:46:34.492Z</time></trkpt><trkpt lat="46.30536434684744" lon="11.435814031917483"><ele>1252.0</ele><time>2026-05-02T11:46:37.492Z</time></trkpt><trkpt lat="46.30541576085761" lon="11.435878672646458"><ele>1252.0</ele><time>2026-05-02T11:46:43.492Z</time></trkpt><trkpt lat="46.305368021994155" lon="11.435941313841859"><ele>1252.0</ele><time>2026-05-02T11:46:54.492Z</time></trkpt><trkpt lat="46.30536198081895" lon="11.435833451635462"><ele>1252.0</ele><time>2026-05-02T11:53:06.492Z</time></trkpt><trkpt lat="46.30531787894135" lon="11.435919673847314"><ele>1252.0</ele><time>2026-05-02T11:53:42.492Z</time></trkpt><trkpt lat="46.305265954722394" lon="11.436016898056737"><ele>1252.0</ele><time>2026-05-02T11:53:44.492Z</time></trkpt><trkpt lat="46.305198962833884" lon="11.436135195719709"><ele>1252.0</ele><time>2026-05-02T11:53:46.492Z</time></trkpt><trkpt lat="46.305133758679" lon="11.436245157947525"><ele>1252.0</ele><time>2026-05-02T11:53:48.492Z</time></trkpt><trkpt lat="46.305063969219205" lon="11.436372532875277"><ele>1252.4285714285713</ele><time>2026-05-02T11:53:50.492Z</time></trkpt><trkpt lat="46.30498920095705" lon="11.436389507492779"><ele>1252.857142857143</ele><time>2026-05-02T11:53:51.492Z</time></trkpt><trkpt lat="46.304945812265856" lon="11.436467938183752"><ele>1253.2857142857142</ele><time>2026-05-02T11:53:52.492Z</time></trkpt><trkpt lat="46.304900623746896" lon="11.436549622300063"><ele>1253.7142857142858</ele><time>2026-05-02T11:53:53.492Z</time></trkpt><trkpt lat="46.30486103011988" lon="11.436622785607355"><ele>1254.142857142857</ele><time>2026-05-02T11:53:54.492Z</time></trkpt><trkpt lat="46.304818082316544" lon="11.436711840674457"><ele>1254.5714285714287</ele><time>2026-05-02T11:53:55.492Z</time></trkpt><trkpt lat="46.3047810853123" lon="11.436796111585904"><ele>1255.0</ele><time>2026-05-02T11:53:56.492Z</time></trkpt><trkpt lat="46.30474992069341" lon="11.436898986219889"><ele>1253.5714285714287</ele><time>2026-05-02T11:53:57.492Z</time></trkpt><trkpt lat="46.30472219099452" lon="11.436987099822952"><ele>1252.142857142857</ele><time>2026-05-02T11:53:58.492Z</time></trkpt><trkpt lat="46.30469452764334" lon="11.437085205044335"><ele>1250.7142857142858</ele><time>2026-05-02T11:53:59.492Z</time></trkpt><trkpt lat="46.30466594454773" lon="11.43718630314045"><ele>1249.2857142857142</ele><time>2026-05-02T11:54:00.492Z</time></trkpt><trkpt lat="46.30463967964364" lon="11.437279201811183"><ele>1247.857142857143</ele><time>2026-05-02T11:54:01.492Z</time></trkpt><trkpt lat="46.30461111821825" lon="11.437380223239346"><ele>1246.4285714285713</ele><time>2026-05-02T11:54:02.492Z</time></trkpt><trkpt lat="46.30458239568244" lon="11.437483284120317"><ele>1245.0</ele><time>2026-05-02T11:54:03.492Z</time></trkpt><trkpt lat="46.30455783617433" lon="11.43757156737455"><ele>1245.0</ele><time>2026-05-02T11:54:04.492Z</time></trkpt><trkpt lat="46.30453242960806" lon="11.437662772895973"><ele>1245.0</ele><time>2026-05-02T11:54:05.492Z</time></trkpt><trkpt lat="46.30450284198357" lon="11.437761946218899"><ele>1245.0</ele><time>2026-05-02T11:54:06.492Z</time></trkpt><trkpt lat="46.3044733571269" lon="11.437845566323979"><ele>1245.0</ele><time>2026-05-02T11:54:07.492Z</time></trkpt><trkpt lat="46.30443841977178" lon="11.437931722999899"><ele>1245.0</ele><time>2026-05-02T11:54:08.492Z</time></trkpt><trkpt lat="46.30439455219264" lon="11.438020380121953"><ele>1245.0</ele><time>2026-05-02T11:54:09.492Z</time></trkpt><trkpt lat="46.304338605262" lon="11.43810277289432"><ele>1245.0</ele><time>2026-05-02T11:54:10.492Z</time></trkpt><trkpt lat="46.30427482151954" lon="11.438177223028383"><ele>1244.8333333333333</ele><time>2026-05-02T11:54:11.492Z</time></trkpt><trkpt lat="46.304215705335714" lon="11.438251422089563"><ele>1244.6666666666667</ele><time>2026-05-02T11:54:12.492Z</time></trkpt><trkpt lat="46.30414507501791" lon="11.438344318728733"><ele>1244.5</ele><time>2026-05-02T11:54:13.492Z</time></trkpt><trkpt lat="46.30408033218306" lon="11.438432034814268"><ele>1244.3333333333335</ele><time>2026-05-02T11:54:14.492Z</time></trkpt><trkpt lat="46.30402228470126" lon="11.438523129752099"><ele>1244.1666666666667</ele><time>2026-05-02T11:54:15.492Z</time></trkpt><trkpt lat="46.30396513122003" lon="11.438619895412046"><ele>1244.0</ele><time>2026-05-02T11:54:16.492Z</time></trkpt><trkpt lat="46.30391222536836" lon="11.438714401303475"><ele>1246.1666666666667</ele><time>2026-05-02T11:54:17.492Z</time></trkpt><trkpt lat="46.30385956679659" lon="11.43881142960619"><ele>1248.3333333333335</ele><time>2026-05-02T11:54:18.492Z</time></trkpt><trkpt lat="46.30380795091423" lon="11.438907719441543"><ele>1250.5</ele><time>2026-05-02T11:54:19.492Z</time></trkpt><trkpt lat="46.30375968625123" lon="11.438997929326938"><ele>1252.6666666666667</ele><time>2026-05-02T11:54:20.492Z</time></trkpt><trkpt lat="46.30371597749651" lon="11.439082395507663"><ele>1254.8333333333333</ele><time>2026-05-02T11:54:21.492Z</time></trkpt><trkpt lat="46.30367048244985" lon="11.439170313665825"><ele>1257.0</ele><time>2026-05-02T11:54:22.492Z</time></trkpt><trkpt lat="46.30361970439171" lon="11.43926844111795"><ele>1257.0</ele><time>2026-05-02T11:54:23.492Z</time></trkpt><trkpt lat="46.30357019463543" lon="11.439364117610252"><ele>1257.0</ele><time>2026-05-02T11:54:24.492Z</time></trkpt><trkpt lat="46.30352498502488" lon="11.439458594528293"><ele>1257.0</ele><time>2026-05-02T11:54:25.492Z</time></trkpt><trkpt lat="46.30347853246307" lon="11.439570645607757"><ele>1257.0</ele><time>2026-05-02T11:54:26.492Z</time></trkpt><trkpt lat="46.303445223553176" lon="11.439717410969312"><ele>1257.0</ele><time>2026-05-02T11:54:27.492Z</time></trkpt><trkpt lat="46.30346348414921" lon="11.439869156756018"><ele>1259.0</ele><time>2026-05-02T11:54:28.492Z</time></trkpt><trkpt lat="46.30346228721889" lon="11.440014397697778"><ele>1261.0</ele><time>2026-05-02T11:54:29.492Z</time></trkpt><trkpt lat="46.303479708547" lon="11.440143886351875"><ele>1263.0</ele><time>2026-05-02T11:54:30.492Z</time></trkpt><trkpt lat="46.3035487381107" lon="11.44024784368216"><ele>1265.0</ele><time>2026-05-02T11:54:31.492Z</time></trkpt><trkpt lat="46.30361210126818" lon="11.440339535921316"><ele>1267.0</ele><time>2026-05-02T11:54:32.492Z</time></trkpt><trkpt lat="46.30368512466842" lon="11.440423308485126"><ele>1267.4285714285713</ele><time>2026-05-02T11:54:33.492Z</time></trkpt><trkpt lat="46.303736269713355" lon="11.440535317504803"><ele>1267.857142857143</ele><time>2026-05-02T11:54:34.492Z</time></trkpt><trkpt lat="46.30379030457916" lon="11.440589050495522"><ele>1268.2857142857142</ele><time>2026-05-02T11:54:35.492Z</time></trkpt><trkpt lat="46.303827016409045" lon="11.440664552878907"><ele>1268.7142857142858</ele><time>2026-05-02T11:54:36.492Z</time></trkpt><trkpt lat="46.30386518303548" lon="11.44075126610736"><ele>1269.142857142857</ele><time>2026-05-02T11:54:37.492Z</time></trkpt><trkpt lat="46.30389025949813" lon="11.44085512914974"><ele>1269.5714285714284</ele><time>2026-05-02T11:54:38.492Z</time></trkpt><trkpt lat="46.30390653340002" lon="11.440961109777499"><ele>1270.0</ele><time>2026-05-02T11:54:39.492Z</time></trkpt><trkpt lat="46.30391479866358" lon="11.44107272933662"><ele>1270.5</ele><time>2026-05-02T11:54:40.492Z</time></trkpt><trkpt lat="46.30391086022436" lon="11.441185645790396"><ele>1271.0</ele><time>2026-05-02T11:54:41.492Z</time></trkpt><trkpt lat="46.303882932005884" lon="11.441301207922242"><ele>1271.5</ele><time>2026-05-02T11:54:42.492Z</time></trkpt><trkpt lat="46.30385492499853" lon="11.441414122209839"><ele>1272.0</ele><time>2026-05-02T11:54:43.492Z</time></trkpt><trkpt lat="46.303815622032054" lon="11.44151180053266"><ele>1272.5</ele><time>2026-05-02T11:54:44.492Z</time></trkpt><trkpt lat="46.30377051209641" lon="11.441587455073718"><ele>1273.0</ele><time>2026-05-02T11:54:45.492Z</time></trkpt><trkpt lat="46.30370337852315" lon="11.44167912850403"><ele>1271.6666666666665</ele><time>2026-05-02T11:54:47.492Z</time></trkpt><trkpt lat="46.3036650583206" lon="11.441769971228918"><ele>1270.3333333333333</ele><time>2026-05-02T11:54:49.492Z</time></trkpt><trkpt lat="46.30360988292578" lon="11.441849879723991"><ele>1269.0</ele><time>2026-05-02T11:54:52.492Z</time></trkpt><trkpt lat="46.30353960297395" lon="11.441945131358368"><ele>1267.6666666666667</ele><time>2026-05-02T11:54:55.492Z</time></trkpt><trkpt lat="46.30349220211279" lon="11.4420093817813"><ele>1266.3333333333335</ele><time>2026-05-02T11:54:56.492Z</time></trkpt><trkpt lat="46.30339097629" lon="11.442088974781536"><ele>1265.0</ele><time>2026-05-02T11:54:58.492Z</time></trkpt><trkpt lat="46.303332073043606" lon="11.442168471617986"><ele>1265.0</ele><time>2026-05-02T11:54:59.492Z</time></trkpt><trkpt lat="46.303268088382865" lon="11.442254826407055"><ele>1265.0</ele><time>2026-05-02T11:55:00.492Z</time></trkpt><trkpt lat="46.30320007204394" lon="11.442346573787205"><ele>1265.0</ele><time>2026-05-02T11:55:01.492Z</time></trkpt><trkpt lat="46.303132381406435" lon="11.442436665621209"><ele>1265.0</ele><time>2026-05-02T11:55:02.492Z</time></trkpt><trkpt lat="46.30306034052652" lon="11.44252951947418"><ele>1265.0</ele><time>2026-05-02T11:55:03.492Z</time></trkpt><trkpt lat="46.302988781821114" lon="11.442634416840233"><ele>1263.8</ele><time>2026-05-02T11:55:04.492Z</time></trkpt><trkpt lat="46.302926349584595" lon="11.442748034987263"><ele>1262.6</ele><time>2026-05-02T11:55:05.492Z</time></trkpt><trkpt lat="46.30287373783004" lon="11.442878453211543"><ele>1261.4</ele><time>2026-05-02T11:55:06.492Z</time></trkpt><trkpt lat="46.30283675418406" lon="11.443011833690681"><ele>1260.2</ele><time>2026-05-02T11:55:07.492Z</time></trkpt><trkpt lat="46.302816568254556" lon="11.44315226871265"><ele>1259.0</ele><time>2026-05-02T11:55:08.492Z</time></trkpt><trkpt lat="46.302810206504226" lon="11.443306077126294"><ele>1258.8333333333335</ele><time>2026-05-02T11:55:09.492Z</time></trkpt><trkpt lat="46.30280684937607" lon="11.443452383814066"><ele>1258.6666666666667</ele><time>2026-05-02T11:55:10.492Z</time></trkpt><trkpt lat="46.30280380148487" lon="11.443602550431416"><ele>1258.5</ele><time>2026-05-02T11:55:11.492Z</time></trkpt><trkpt lat="46.302799119874464" lon="11.443730374987597"><ele>1258.3333333333333</ele><time>2026-05-02T11:55:12.492Z</time></trkpt><trkpt lat="46.30279257029637" lon="11.443836091188343"><ele>1258.1666666666665</ele><time>2026-05-02T11:55:13.492Z</time></trkpt><trkpt lat="46.3027630671388" lon="11.443947639482381"><ele>1258.0</ele><time>2026-05-02T11:55:14.492Z</time></trkpt><trkpt lat="46.30270742004606" lon="11.44402583979961"><ele>1256.0</ele><time>2026-05-02T11:55:15.492Z</time></trkpt><trkpt lat="46.30264843652785" lon="11.444099498121718"><ele>1254.0</ele><time>2026-05-02T11:55:16.492Z</time></trkpt><trkpt lat="46.30257718869688" lon="11.444180139609179"><ele>1252.0</ele><time>2026-05-02T11:55:17.492Z</time></trkpt><trkpt lat="46.302498483592416" lon="11.444262308678725"><ele>1250.0</ele><time>2026-05-02T11:55:18.492Z</time></trkpt><trkpt lat="46.30241535071845" lon="11.444345961514982"><ele>1248.0</ele><time>2026-05-02T11:55:19.492Z</time></trkpt><trkpt lat="46.30233994135625" lon="11.444419742556995"><ele>1248.0</ele><time>2026-05-02T11:55:20.492Z</time></trkpt><trkpt lat="46.30226010639001" lon="11.444497297891402"><ele>1248.0</ele><time>2026-05-02T11:55:21.492Z</time></trkpt><trkpt lat="46.302172279545935" lon="11.44458261689156"><ele>1248.0</ele><time>2026-05-02T11:55:22.492Z</time></trkpt><trkpt lat="46.30208892811092" lon="11.444663588282046"><ele>1248.0</ele><time>2026-05-02T11:55:23.492Z</time></trkpt><trkpt lat="46.30200123187398" lon="11.44475095366947"><ele>1248.0</ele><time>2026-05-02T11:55:24.492Z</time></trkpt><trkpt lat="46.30191545919908" lon="11.444840578178903"><ele>1242.6</ele><time>2026-05-02T11:55:25.492Z</time></trkpt><trkpt lat="46.301832567409534" lon="11.44494286275053"><ele>1237.1999999999998</ele><time>2026-05-02T11:55:26.492Z</time></trkpt><trkpt lat="46.301771695431356" lon="11.44505353450272"><ele>1231.8</ele><time>2026-05-02T11:55:27.492Z</time></trkpt><trkpt lat="46.30172213440919" lon="11.445136902016781"><ele>1226.3999999999999</ele><time>2026-05-02T11:55:28.492Z</time></trkpt><trkpt lat="46.30163203113769" lon="11.445256347991096"><ele>1221.0</ele><time>2026-05-02T11:55:30.492Z</time></trkpt><trkpt lat="46.30158069398939" lon="11.445311173919027"><ele>1221.0</ele><time>2026-05-02T11:55:31.492Z</time></trkpt><trkpt lat="46.301523947357" lon="11.445354362930706"><ele>1221.0</ele><time>2026-05-02T11:55:32.492Z</time></trkpt><trkpt lat="46.301458884250785" lon="11.44540641996862"><ele>1221.0</ele><time>2026-05-02T11:55:33.492Z</time></trkpt><trkpt lat="46.30140167258919" lon="11.445453862408668"><ele>1221.0</ele><time>2026-05-02T11:55:34.492Z</time></trkpt><trkpt lat="46.30129307691133" lon="11.445548019021302"><ele>1221.0</ele><time>2026-05-02T11:55:36.492Z</time></trkpt><trkpt lat="46.30120981892175" lon="11.445623242938366"><ele>1221.0</ele><time>2026-05-02T11:55:38.492Z</time></trkpt><trkpt lat="46.30113489554773" lon="11.44572160734061"><ele>1216.3999999999999</ele><time>2026-05-02T11:55:40.492Z</time></trkpt><trkpt lat="46.30107010973416" lon="11.445735104073002"><ele>1211.8</ele><time>2026-05-02T11:55:41.492Z</time></trkpt><trkpt lat="46.30100287596592" lon="11.4457346612963"><ele>1207.1999999999998</ele><time>2026-05-02T11:55:42.492Z</time></trkpt><trkpt lat="46.30095451790898" lon="11.44567555494177"><ele>1202.6</ele><time>2026-05-02T11:55:43.492Z</time></trkpt><trkpt lat="46.30087438094024" lon="11.445677130884986"><ele>1198.0</ele><time>2026-05-02T11:55:45.492Z</time></trkpt><trkpt lat="46.30083384765111" lon="11.4459594493968"><ele>1198.0</ele><time>2026-05-02T11:55:48.492Z</time></trkpt><trkpt lat="46.30082440585976" lon="11.44610880633295"><ele>1198.0</ele><time>2026-05-02T11:55:50.492Z</time></trkpt><trkpt lat="46.300775016414796" lon="11.446186184777991"><ele>1198.0</ele><time>2026-05-02T11:55:52.492Z</time></trkpt><trkpt lat="46.300736263242456" lon="11.4462849971287"><ele>1198.0</ele><time>2026-05-02T11:55:54.492Z</time></trkpt><trkpt lat="46.30068022147941" lon="11.4463278942875"><ele>1198.0</ele><time>2026-05-02T11:55:58.492Z</time></trkpt><trkpt lat="46.300648595834765" lon="11.446206131509898"><ele>1198.0</ele><time>2026-05-02T11:56:03.492Z</time></trkpt><trkpt lat="46.300616245339995" lon="11.446096900948655"><ele>1195.1666666666665</ele><time>2026-05-02T11:56:05.492Z</time></trkpt><trkpt lat="46.30054487083925" lon="11.446003486402878"><ele>1192.3333333333333</ele><time>2026-05-02T11:56:07.492Z</time></trkpt><trkpt lat="46.300452518542045" lon="11.446014732713786"><ele>1189.5</ele><time>2026-05-02T11:56:09.492Z</time></trkpt><trkpt lat="46.30038692718802" lon="11.445959819069675"><ele>1186.6666666666667</ele><time>2026-05-02T11:56:11.492Z</time></trkpt><trkpt lat="46.300365920383896" lon="11.445823562718234"><ele>1183.8333333333335</ele><time>2026-05-02T11:56:13.492Z</time></trkpt><trkpt lat="46.30037469138836" lon="11.44570429501899"><ele>1181.0</ele><time>2026-05-02T11:56:14.492Z</time></trkpt><trkpt lat="46.300366940456726" lon="11.445595041802466"><ele>1181.0</ele><time>2026-05-02T11:56:15.492Z</time></trkpt><trkpt lat="46.300341606092985" lon="11.445478239737097"><ele>1181.0</ele><time>2026-05-02T11:56:16.492Z</time></trkpt><trkpt lat="46.300325917558666" lon="11.44537267581331"><ele>1181.0</ele><time>2026-05-02T11:56:17.492Z</time></trkpt><trkpt lat="46.30029801418572" lon="11.445274427526156"><ele>1181.0</ele><time>2026-05-02T11:56:18.492Z</time></trkpt><trkpt lat="46.30026956421959" lon="11.445172714286402"><ele>1181.0</ele><time>2026-05-02T11:56:19.492Z</time></trkpt><trkpt lat="46.300213287293666" lon="11.445090468121883"><ele>1181.0</ele><time>2026-05-02T11:56:20.492Z</time></trkpt><trkpt lat="46.30011870744206" lon="11.44505468188481"><ele>1181.75</ele><time>2026-05-02T11:56:21.492Z</time></trkpt><trkpt lat="46.29999721865572" lon="11.445123669590771"><ele>1182.5</ele><time>2026-05-02T11:56:22.492Z</time></trkpt><trkpt lat="46.29986848958304" lon="11.445181059762776"><ele>1183.25</ele><time>2026-05-02T11:56:23.492Z</time></trkpt><trkpt lat="46.29976171287893" lon="11.445233685971962"><ele>1184.0</ele><time>2026-05-02T11:56:24.492Z</time></trkpt><trkpt lat="46.29966261868021" lon="11.445279424284674"><ele>1182.2</ele><time>2026-05-02T11:56:25.492Z</time></trkpt><trkpt lat="46.29957401767832" lon="11.445303409479942"><ele>1180.4</ele><time>2026-05-02T11:56:26.492Z</time></trkpt><trkpt lat="46.29948402304473" lon="11.44530359065419"><ele>1178.6</ele><time>2026-05-02T11:56:27.492Z</time></trkpt><trkpt lat="46.2993962806554" lon="11.445271421095123"><ele>1176.8</ele><time>2026-05-02T11:56:28.492Z</time></trkpt><trkpt lat="46.29931463960023" lon="11.44521491083707"><ele>1175.0</ele><time>2026-05-02T11:56:29.492Z</time></trkpt><trkpt lat="46.29920784967413" lon="11.445075286633118"><ele>1175.0</ele><time>2026-05-02T11:56:30.492Z</time></trkpt><trkpt lat="46.29910996207645" lon="11.444936260524525"><ele>1175.0</ele><time>2026-05-02T11:56:31.492Z</time></trkpt><trkpt lat="46.29902300635612" lon="11.444813245863878"><ele>1175.0</ele><time>2026-05-02T11:56:32.492Z</time></trkpt><trkpt lat="46.29894450185827" lon="11.444702186991556"><ele>1175.0</ele><time>2026-05-02T11:56:33.492Z</time></trkpt><trkpt lat="46.298868093496225" lon="11.444600702853867"><ele>1173.6</ele><time>2026-05-02T11:56:34.492Z</time></trkpt><trkpt lat="46.298792756563294" lon="11.444514433474838"><ele>1172.2</ele><time>2026-05-02T11:56:35.492Z</time></trkpt><trkpt lat="46.29869805734743" lon="11.444447841090852"><ele>1170.8</ele><time>2026-05-02T11:56:36.492Z</time></trkpt><trkpt lat="46.29859983767398" lon="11.444379177296257"><ele>1169.4</ele><time>2026-05-02T11:56:37.492Z</time></trkpt><trkpt lat="46.29850774279684" lon="11.444329887792406"><ele>1168.0</ele><time>2026-05-02T11:56:38.492Z</time></trkpt><trkpt lat="46.298404613275636" lon="11.44429830677129"><ele>1168.0</ele><time>2026-05-02T11:56:39.492Z</time></trkpt><trkpt lat="46.2983056033425" lon="11.444258213064519"><ele>1168.0</ele><time>2026-05-02T11:56:40.492Z</time></trkpt><trkpt lat="46.298207578406654" lon="11.444213739480107"><ele>1168.0</ele><time>2026-05-02T11:56:41.492Z</time></trkpt><trkpt lat="46.29811249362484" lon="11.444167749042968"><ele>1168.0</ele><time>2026-05-02T11:56:42.492Z</time></trkpt><trkpt lat="46.29802751223199" lon="11.444123668919133"><ele>1168.0</ele><time>2026-05-02T11:56:43.492Z</time></trkpt><trkpt lat="46.29793660554049" lon="11.444072011261506"><ele>1167.2</ele><time>2026-05-02T11:56:44.492Z</time></trkpt><trkpt lat="46.297836571061204" lon="11.444023496178351"><ele>1166.4</ele><time>2026-05-02T11:56:45.492Z</time></trkpt><trkpt lat="46.297744243080786" lon="11.443964699319416"><ele>1165.6000000000001</ele><time>2026-05-02T11:56:46.492Z</time></trkpt><trkpt lat="46.29765826600981" lon="11.443892407524327"><ele>1164.8</ele><time>2026-05-02T11:56:47.492Z</time></trkpt><trkpt lat="46.297580951489024" lon="11.44376785819681"><ele>1164.0</ele><time>2026-05-02T11:56:48.492Z</time></trkpt><trkpt lat="46.29748899881685" lon="11.443633261844449"><ele>1164.0</ele><time>2026-05-02T11:56:49.492Z</time></trkpt><trkpt lat="46.297404635796035" lon="11.443474700787208"><ele>1164.0</ele><time>2026-05-02T11:56:50.492Z</time></trkpt><trkpt lat="46.297327455629684" lon="11.44328927426003"><ele>1164.0</ele><time>2026-05-02T11:56:51.492Z</time></trkpt><trkpt lat="46.29725438062018" lon="11.443097838600478"><ele>1164.0</ele><time>2026-05-02T11:56:52.492Z</time></trkpt><trkpt lat="46.2971756226978" lon="11.442917055266411"><ele>1160.25</ele><time>2026-05-02T11:56:53.492Z</time></trkpt><trkpt lat="46.29708860875336" lon="11.442735774875954"><ele>1156.5</ele><time>2026-05-02T11:56:54.492Z</time></trkpt><trkpt lat="46.29698847903869" lon="11.44257306965701"><ele>1152.75</ele><time>2026-05-02T11:56:55.492Z</time></trkpt><trkpt lat="46.29687669934254" lon="11.442454461766298"><ele>1149.0</ele><time>2026-05-02T11:56:56.492Z</time></trkpt><trkpt lat="46.29677454114822" lon="11.44230101872286"><ele>1149.0</ele><time>2026-05-02T11:56:57.492Z</time></trkpt><trkpt lat="46.29665890449992" lon="11.442182423021885"><ele>1149.0</ele><time>2026-05-02T11:56:58.492Z</time></trkpt><trkpt lat="46.29653025859515" lon="11.442080793925772"><ele>1149.0</ele><time>2026-05-02T11:56:59.492Z</time></trkpt><trkpt lat="46.29641561744422" lon="11.442034532826565"><ele>1149.0</ele><time>2026-05-02T11:57:00.492Z</time></trkpt><trkpt lat="46.29628990262415" lon="11.441967465422406"><ele>1147.75</ele><time>2026-05-02T11:57:01.492Z</time></trkpt><trkpt lat="46.29616159355278" lon="11.441959680006049"><ele>1146.5</ele><time>2026-05-02T11:57:02.492Z</time></trkpt><trkpt lat="46.29605111466299" lon="11.44194845768559"><ele>1145.25</ele><time>2026-05-02T11:57:03.492Z</time></trkpt><trkpt lat="46.295929299833574" lon="11.441973880575066"><ele>1144.0</ele><time>2026-05-02T11:57:04.492Z</time></trkpt><trkpt lat="46.295806976503044" lon="11.442000559673707"><ele>1144.0</ele><time>2026-05-02T11:57:05.492Z</time></trkpt><trkpt lat="46.29568396130575" lon="11.442029634315372"><ele>1144.0</ele><time>2026-05-02T11:57:06.492Z</time></trkpt><trkpt lat="46.29556968252604" lon="11.442032354824484"><ele>1144.0</ele><time>2026-05-02T11:57:07.492Z</time></trkpt><trkpt lat="46.29545767446742" lon="11.442001123478576"><ele>1144.0</ele><time>2026-05-02T11:57:08.492Z</time></trkpt><trkpt lat="46.29536797795952" lon="11.44190862242766"><ele>1140.75</ele><time>2026-05-02T11:57:09.492Z</time></trkpt><trkpt lat="46.29528689759319" lon="11.441806955120862"><ele>1137.5</ele><time>2026-05-02T11:57:10.492Z</time></trkpt><trkpt lat="46.295211662508876" lon="11.441661385788503"><ele>1134.25</ele><time>2026-05-02T11:57:11.492Z</time></trkpt><trkpt lat="46.295125045056125" lon="11.441524471478958"><ele>1131.0</ele><time>2026-05-02T11:57:12.492Z</time></trkpt><trkpt lat="46.29505052733155" lon="11.441370968796807"><ele>1132.25</ele><time>2026-05-02T11:57:13.492Z</time></trkpt><trkpt lat="46.294984887714136" lon="11.441196143743577"><ele>1133.5</ele><time>2026-05-02T11:57:14.492Z</time></trkpt><trkpt lat="46.29490624321901" lon="11.441059215847245"><ele>1134.75</ele><time>2026-05-02T11:57:15.492Z</time></trkpt><trkpt lat="46.294835462266036" lon="11.440913323634312"><ele>1136.0</ele><time>2026-05-02T11:57:16.492Z</time></trkpt><trkpt lat="46.29475838755123" lon="11.440760263300863"><ele>1130.5</ele><time>2026-05-02T11:57:17.492Z</time></trkpt><trkpt lat="46.29468356593637" lon="11.440601339342507"><ele>1125.0</ele><time>2026-05-02T11:57:18.492Z</time></trkpt><trkpt lat="46.29461406057723" lon="11.440445171326408"><ele>1119.5</ele><time>2026-05-02T11:57:19.492Z</time></trkpt><trkpt lat="46.2945726374205" lon="11.440263530195853"><ele>1114.0</ele><time>2026-05-02T11:57:20.492Z</time></trkpt><trkpt lat="46.29453872897014" lon="11.440077881930044"><ele>1114.0</ele><time>2026-05-02T11:57:21.492Z</time></trkpt><trkpt lat="46.294505759287944" lon="11.439883658469784"><ele>1114.0</ele><time>2026-05-02T11:57:22.492Z</time></trkpt><trkpt lat="46.29445999501494" lon="11.439688415289796"><ele>1114.0</ele><time>2026-05-02T11:57:23.492Z</time></trkpt><trkpt lat="46.29444182897805" lon="11.439484818858517"><ele>1114.0</ele><time>2026-05-02T11:57:24.492Z</time></trkpt><trkpt lat="46.29441122079508" lon="11.439301554754184"><ele>1114.75</ele><time>2026-05-02T11:57:25.492Z</time></trkpt><trkpt lat="46.29436031681692" lon="11.439138842320892"><ele>1115.5</ele><time>2026-05-02T11:57:26.492Z</time></trkpt><trkpt lat="46.29429361689647" lon="11.438988575806395"><ele>1116.25</ele><time>2026-05-02T11:57:27.492Z</time></trkpt><trkpt lat="46.294196394319094" lon="11.438872574093654"><ele>1117.0</ele><time>2026-05-02T11:57:28.492Z</time></trkpt><trkpt lat="46.29408853407015" lon="11.438786626747085"><ele>1115.25</ele><time>2026-05-02T11:57:29.492Z</time></trkpt><trkpt lat="46.293960692646195" lon="11.43873223136737"><ele>1113.5</ele><time>2026-05-02T11:57:30.492Z</time></trkpt><trkpt lat="46.29382997259097" lon="11.43866538873807"><ele>1111.75</ele><time>2026-05-02T11:57:31.492Z</time></trkpt><trkpt lat="46.293719530244836" lon="11.438588066435274"><ele>1110.0</ele><time>2026-05-02T11:57:32.492Z</time></trkpt><trkpt lat="46.293614029446" lon="11.438516921940765"><ele>1110.0</ele><time>2026-05-02T11:57:33.492Z</time></trkpt><trkpt lat="46.29351672519337" lon="11.438448917356983"><ele>1110.0</ele><time>2026-05-02T11:57:34.492Z</time></trkpt><trkpt lat="46.29348444229069" lon="11.438326590979438"><ele>1110.0</ele><time>2026-05-02T11:57:35.492Z</time></trkpt><trkpt lat="46.29343950550771" lon="11.438203461771465"><ele>1110.0</ele><time>2026-05-02T11:57:36.492Z</time></trkpt><trkpt lat="46.29338086327862" lon="11.438057601316206"><ele>1110.0</ele><time>2026-05-02T11:57:37.492Z</time></trkpt><trkpt lat="46.293318002480426" lon="11.437899508678905"><ele>1111.1666666666667</ele><time>2026-05-02T11:57:38.492Z</time></trkpt><trkpt lat="46.29327140823325" lon="11.437780229449308"><ele>1112.3333333333333</ele><time>2026-05-02T11:57:39.492Z</time></trkpt><trkpt lat="46.29321437838724" lon="11.43765522248894"><ele>1113.5</ele><time>2026-05-02T11:57:40.492Z</time></trkpt><trkpt lat="46.2931651714415" lon="11.4375780743706"><ele>1114.6666666666665</ele><time>2026-05-02T11:57:41.492Z</time></trkpt><trkpt lat="46.29310089427176" lon="11.437536269737874"><ele>1115.8333333333333</ele><time>2026-05-02T11:57:42.492Z</time></trkpt><trkpt lat="46.29304489974866" lon="11.437472192184803"><ele>1117.0</ele><time>2026-05-02T11:57:43.492Z</time></trkpt><trkpt lat="46.29298082034698" lon="11.437435741671578"><ele>1114.6666666666665</ele><time>2026-05-02T11:57:44.492Z</time></trkpt><trkpt lat="46.2928716272041" lon="11.437405627520382"><ele>1112.3333333333333</ele><time>2026-05-02T11:57:45.492Z</time></trkpt><trkpt lat="46.29279829652573" lon="11.437348430891875"><ele>1110.0</ele><time>2026-05-02T11:57:46.492Z</time></trkpt><trkpt lat="46.292723191416826" lon="11.437333839324097"><ele>1107.6666666666667</ele><time>2026-05-02T11:57:47.492Z</time></trkpt><trkpt lat="46.29265364699375" lon="11.43729438080829"><ele>1105.3333333333335</ele><time>2026-05-02T11:57:48.492Z</time></trkpt><trkpt lat="46.29258048775051" lon="11.437267133670705"><ele>1103.0</ele><time>2026-05-02T11:57:49.492Z</time></trkpt><trkpt lat="46.29250221294391" lon="11.437213099249938"><ele>1103.0</ele><time>2026-05-02T11:57:50.492Z</time></trkpt><trkpt lat="46.29243231669916" lon="11.437165000796865"><ele>1103.0</ele><time>2026-05-02T11:57:51.492Z</time></trkpt><trkpt lat="46.2923631790117" lon="11.437252355111566"><ele>1103.0</ele><time>2026-05-02T11:57:52.492Z</time></trkpt><trkpt lat="46.29230185129499" lon="11.437327987420034"><ele>1103.0</ele><time>2026-05-02T11:57:53.492Z</time></trkpt><trkpt lat="46.29229126690189" lon="11.437425179471962"><ele>1103.0</ele><time>2026-05-02T11:57:54.492Z</time></trkpt><trkpt lat="46.292276357132984" lon="11.43752887915063"><ele>1103.0</ele><time>2026-05-02T11:57:55.492Z</time></trkpt><trkpt lat="46.2922799073804" lon="11.437652557873685"><ele>1103.0000000000002</ele><time>2026-05-02T11:57:56.492Z</time></trkpt><trkpt lat="46.29227477754772" lon="11.437761626244002"><ele>1103.0</ele><time>2026-05-02T11:57:57.492Z</time></trkpt><trkpt lat="46.29227851171299" lon="11.437869562080893"><ele>1103.0</ele><time>2026-05-02T11:57:58.492Z</time></trkpt><trkpt lat="46.29226663875639" lon="11.437959936876714"><ele>1103.0</ele><time>2026-05-02T11:57:59.492Z</time></trkpt><trkpt lat="46.29224154151477" lon="11.43805099652179"><ele>1103.0</ele><time>2026-05-02T11:58:00.492Z</time></trkpt><trkpt lat="46.292208625970815" lon="11.438133193169543"><ele>1103.0000000000002</ele><time>2026-05-02T11:58:01.492Z</time></trkpt><trkpt lat="46.29217669782936" lon="11.438222494709448"><ele>1103.0</ele><time>2026-05-02T11:58:02.492Z</time></trkpt><trkpt lat="46.292143468079324" lon="11.438314900265935"><ele>1102.0</ele><time>2026-05-02T11:58:03.492Z</time></trkpt><trkpt lat="46.292108856500796" lon="11.438392038603569"><ele>1101.0</ele><time>2026-05-02T11:58:04.492Z</time></trkpt><trkpt lat="46.29203404630991" lon="11.438516429531337"><ele>1100.0</ele><time>2026-05-02T11:58:06.492Z</time></trkpt><trkpt lat="46.29195628469758" lon="11.438605548227526"><ele>1099.0</ele><time>2026-05-02T11:58:08.492Z</time></trkpt><trkpt lat="46.29184568635644" lon="11.438598324334047"><ele>1098.0</ele><time>2026-05-02T11:58:10.492Z</time></trkpt><trkpt lat="46.291752117742455" lon="11.438646280311223"><ele>1098.0</ele><time>2026-05-02T11:58:11.492Z</time></trkpt><trkpt lat="46.291646774927536" lon="11.438719479444803"><ele>1098.0</ele><time>2026-05-02T11:58:13.492Z</time></trkpt><trkpt lat="46.291544432656806" lon="11.438801840475207"><ele>1098.0</ele><time>2026-05-02T11:58:15.492Z</time></trkpt><trkpt lat="46.2914596434406" lon="11.438840013844768"><ele>1098.0</ele><time>2026-05-02T11:58:17.492Z</time></trkpt><trkpt lat="46.29136650236828" lon="11.438866076193744"><ele>1098.0</ele><time>2026-05-02T11:58:19.492Z</time></trkpt><trkpt lat="46.29128756449651" lon="11.43892814891453"><ele>1094.6</ele><time>2026-05-02T11:58:21.492Z</time></trkpt><trkpt lat="46.291209349376466" lon="11.438958590816856"><ele>1091.1999999999998</ele><time>2026-05-02T11:58:23.492Z</time></trkpt><trkpt lat="46.2910899182505" lon="11.438980256164886"><ele>1087.8</ele><time>2026-05-02T11:58:25.492Z</time></trkpt><trkpt lat="46.291022707557275" lon="11.438962257115193"><ele>1084.3999999999999</ele><time>2026-05-02T11:58:26.492Z</time></trkpt><trkpt lat="46.290897305498326" lon="11.438885903196889"><ele>1081.0</ele><time>2026-05-02T11:58:28.492Z</time></trkpt><trkpt lat="46.29083186833374" lon="11.438819786294996"><ele>1081.0</ele><time>2026-05-02T11:58:29.492Z</time></trkpt><trkpt lat="46.290748431620415" lon="11.43881279013072"><ele>1081.0</ele><time>2026-05-02T11:58:30.492Z</time></trkpt><trkpt lat="46.290675377516926" lon="11.438768811920893"><ele>1081.0</ele><time>2026-05-02T11:58:31.492Z</time></trkpt><trkpt lat="46.29060848065958" lon="11.438739252071043"><ele>1081.0</ele><time>2026-05-02T11:58:32.492Z</time></trkpt><trkpt lat="46.290545593464074" lon="11.438700242143174"><ele>1081.0</ele><time>2026-05-02T11:58:33.492Z</time></trkpt><trkpt lat="46.29046855872619" lon="11.438654545752996"><ele>1081.0</ele><time>2026-05-02T11:58:34.492Z</time></trkpt><trkpt lat="46.290385761092736" lon="11.4386704889132"><ele>1080.5</ele><time>2026-05-02T11:58:35.492Z</time></trkpt><trkpt lat="46.29030879075284" lon="11.43861828046439"><ele>1080.0</ele><time>2026-05-02T11:58:36.492Z</time></trkpt><trkpt lat="46.29021272406063" lon="11.4385670072248"><ele>1079.5</ele><time>2026-05-02T11:58:37.492Z</time></trkpt><trkpt lat="46.290122916864796" lon="11.438557382276404"><ele>1079.0</ele><time>2026-05-02T11:58:38.492Z</time></trkpt><trkpt lat="46.29003231907425" lon="11.438529592590148"><ele>1078.5</ele><time>2026-05-02T11:58:39.492Z</time></trkpt><trkpt lat="46.28996105190646" lon="11.43853395500508"><ele>1078.0</ele><time>2026-05-02T11:58:40.492Z</time></trkpt><trkpt lat="46.28984018834088" lon="11.438506164533868"><ele>1076.25</ele><time>2026-05-02T11:58:42.492Z</time></trkpt><trkpt lat="46.28971048288253" lon="11.438469623967135"><ele>1074.5</ele><time>2026-05-02T11:58:44.492Z</time></trkpt><trkpt lat="46.28960052359545" lon="11.438426221466434"><ele>1072.75</ele><time>2026-05-02T11:58:46.492Z</time></trkpt><trkpt lat="46.28963082222377" lon="11.438683185382715"><ele>1071.0</ele><time>2026-05-02T11:58:50.492Z</time></trkpt><trkpt lat="46.289673341084736" lon="11.438755117741739"><ele>1070.3333333333333</ele><time>2026-05-02T11:58:51.492Z</time></trkpt><trkpt lat="46.289749152761814" lon="11.438812060108543"><ele>1069.6666666666667</ele><time>2026-05-02T11:58:52.492Z</time></trkpt><trkpt lat="46.289823693744275" lon="11.438919411821757"><ele>1069.0</ele><time>2026-05-02T11:58:53.492Z</time></trkpt><trkpt lat="46.289894187450635" lon="11.438991863238435"><ele>1068.3333333333335</ele><time>2026-05-02T11:58:54.492Z</time></trkpt><trkpt lat="46.28996602255314" lon="11.439059505260552"><ele>1067.6666666666667</ele><time>2026-05-02T11:58:55.492Z</time></trkpt><trkpt lat="46.29003471808842" lon="11.439120314795721"><ele>1067.0</ele><time>2026-05-02T11:58:56.492Z</time></trkpt><trkpt lat="46.290098206848455" lon="11.439199132260464"><ele>1067.0</ele><time>2026-05-02T11:58:58.492Z</time></trkpt><trkpt lat="46.290152408895736" lon="11.439299556103364"><ele>1067.0</ele><time>2026-05-02T11:59:00.492Z</time></trkpt><trkpt lat="46.29020712478215" lon="11.439482496509742"><ele>1067.0</ele><time>2026-05-02T11:59:02.492Z</time></trkpt><trkpt lat="46.29023162272021" lon="11.439574721490226"><ele>1067.0</ele><time>2026-05-02T11:59:03.492Z</time></trkpt><trkpt lat="46.29024124794543" lon="11.43968158809157"><ele>1067.0</ele><time>2026-05-02T11:59:04.492Z</time></trkpt><trkpt lat="46.29025534077711" lon="11.439773117291656"><ele>1067.0</ele><time>2026-05-02T11:59:05.492Z</time></trkpt><trkpt lat="46.29029826476423" lon="11.439940113561816"><ele>1064.9999999999998</ele><time>2026-05-02T11:59:07.492Z</time></trkpt><trkpt lat="46.29034587903821" lon="11.44009006032629"><ele>1063.0</ele><time>2026-05-02T11:59:09.492Z</time></trkpt><trkpt lat="46.29038031042875" lon="11.440175829970679"><ele>1061.0</ele><time>2026-05-02T11:59:10.492Z</time></trkpt><trkpt lat="46.29041134807113" lon="11.440260953417509"><ele>1059.0</ele><time>2026-05-02T11:59:11.492Z</time></trkpt><trkpt lat="46.290442791136684" lon="11.440341278071608"><ele>1057.0</ele><time>2026-05-02T11:59:12.492Z</time></trkpt><trkpt lat="46.290484581778216" lon="11.44041619764104"><ele>1054.9999999999998</ele><time>2026-05-02T11:59:13.492Z</time></trkpt><trkpt lat="46.29051084861955" lon="11.440499793667486"><ele>1053.0</ele><time>2026-05-02T11:59:14.492Z</time></trkpt><trkpt lat="46.290552828952514" lon="11.440579511127654"><ele>1053.6666666666667</ele><time>2026-05-02T11:59:15.492Z</time></trkpt><trkpt lat="46.29060024519626" lon="11.440648933000418"><ele>1054.3333333333333</ele><time>2026-05-02T11:59:16.492Z</time></trkpt><trkpt lat="46.29063037444409" lon="11.440729405811323"><ele>1055.0</ele><time>2026-05-02T11:59:17.492Z</time></trkpt><trkpt lat="46.2906318357379" lon="11.440826413474758"><ele>1055.6666666666665</ele><time>2026-05-02T11:59:18.492Z</time></trkpt><trkpt lat="46.29053190475989" lon="11.441002266100446"><ele>1056.3333333333333</ele><time>2026-05-02T11:59:20.492Z</time></trkpt><trkpt lat="46.2904673560078" lon="11.441078947792793"><ele>1057.0</ele><time>2026-05-02T11:59:21.492Z</time></trkpt><trkpt lat="46.290400902519465" lon="11.441159651782248"><ele>1054.2</ele><time>2026-05-02T11:59:22.492Z</time></trkpt><trkpt lat="46.29032780488703" lon="11.441247071629013"><ele>1051.4</ele><time>2026-05-02T11:59:23.492Z</time></trkpt><trkpt lat="46.290265695574504" lon="11.441370622336933"><ele>1048.6</ele><time>2026-05-02T11:59:24.492Z</time></trkpt><trkpt lat="46.29021471451682" lon="11.441498766034774"><ele>1045.8</ele><time>2026-05-02T11:59:25.492Z</time></trkpt><trkpt lat="46.2902013263796" lon="11.441645363083024"><ele>1043.0</ele><time>2026-05-02T11:59:26.492Z</time></trkpt><trkpt lat="46.290208129473854" lon="11.441804473803991"><ele>1042.5</ele><time>2026-05-02T11:59:27.492Z</time></trkpt><trkpt lat="46.290267427802924" lon="11.441985531526445"><ele>1042.0</ele><time>2026-05-02T11:59:28.492Z</time></trkpt><trkpt lat="46.290362453340016" lon="11.442147182877646"><ele>1041.5</ele><time>2026-05-02T11:59:29.492Z</time></trkpt><trkpt lat="46.290439993234585" lon="11.442298827435105"><ele>1041.0</ele><time>2026-05-02T11:59:30.492Z</time></trkpt><trkpt lat="46.29049767056639" lon="11.442420833390768"><ele>1040.2</ele><time>2026-05-02T11:59:31.492Z</time></trkpt><trkpt lat="46.29049540967757" lon="11.442533260764856"><ele>1039.3999999999999</ele><time>2026-05-02T11:59:32.492Z</time></trkpt><trkpt lat="46.29044664131251" lon="11.44263366530508"><ele>1038.6</ele><time>2026-05-02T11:59:33.492Z</time></trkpt><trkpt lat="46.290378642857036" lon="11.442722494395094"><ele>1037.8</ele><time>2026-05-02T11:59:34.492Z</time></trkpt><trkpt lat="46.29031147357487" lon="11.442871931513857"><ele>1037.0</ele><time>2026-05-02T11:59:35.492Z</time></trkpt><trkpt lat="46.29024139723493" lon="11.442990321282373"><ele>1036.0</ele><time>2026-05-02T11:59:36.492Z</time></trkpt><trkpt lat="46.290161894913886" lon="11.443109205139056"><ele>1035.0</ele><time>2026-05-02T11:59:37.492Z</time></trkpt><trkpt lat="46.290091533783134" lon="11.443242710826823"><ele>1034.0</ele><time>2026-05-02T11:59:38.492Z</time></trkpt><trkpt lat="46.29002095553623" lon="11.443379998061998"><ele>1033.0</ele><time>2026-05-02T11:59:39.492Z</time></trkpt><trkpt lat="46.28995839447493" lon="11.443501190563055"><ele>1033.0</ele><time>2026-05-02T11:59:40.492Z</time></trkpt><trkpt lat="46.28989960229308" lon="11.44358486069184"><ele>1033.0</ele><time>2026-05-02T11:59:41.492Z</time></trkpt><trkpt lat="46.2898361838711" lon="11.443647047334544"><ele>1033.0</ele><time>2026-05-02T11:59:42.492Z</time></trkpt><trkpt lat="46.28975534462288" lon="11.443611473398809"><ele>1033.0</ele><time>2026-05-02T11:59:43.492Z</time></trkpt><trkpt lat="46.28967237440382" lon="11.443584093113717"><ele>1033.0</ele><time>2026-05-02T11:59:44.492Z</time></trkpt><trkpt lat="46.289562372864886" lon="11.44353500563825"><ele>1033.0</ele><time>2026-05-02T11:59:45.492Z</time></trkpt><trkpt lat="46.289434767621245" lon="11.443481299863851"><ele>1031.0</ele><time>2026-05-02T11:59:46.492Z</time></trkpt><trkpt lat="46.289311887808395" lon="11.443466711811311"><ele>1029.0</ele><time>2026-05-02T11:59:47.492Z</time></trkpt><trkpt lat="46.28919548220472" lon="11.443527315409312"><ele>1027.0</ele><time>2026-05-02T11:59:48.492Z</time></trkpt><trkpt lat="46.28908408032531" lon="11.443601724556498"><ele>1025.0</ele><time>2026-05-02T11:59:49.492Z</time></trkpt><trkpt lat="46.28897772311044" lon="11.4437093516416"><ele>1022.25</ele><time>2026-05-02T11:59:50.492Z</time></trkpt><trkpt lat="46.288876417844946" lon="11.443836230165198"><ele>1019.5</ele><time>2026-05-02T11:59:51.492Z</time></trkpt><trkpt lat="46.28875751483611" lon="11.443920306664795"><ele>1016.75</ele><time>2026-05-02T11:59:52.492Z</time></trkpt><trkpt lat="46.28865346648523" lon="11.44401713515189"><ele>1014.0</ele><time>2026-05-02T11:59:53.492Z</time></trkpt><trkpt lat="46.288552108970414" lon="11.4441069497035"><ele>1014.0</ele><time>2026-05-02T11:59:54.492Z</time></trkpt><trkpt lat="46.28845790591416" lon="11.444162587336997"><ele>1014.0000000000001</ele><time>2026-05-02T11:59:55.492Z</time></trkpt><trkpt lat="46.288359039143636" lon="11.444209873391884"><ele>1014.0000000000001</ele><time>2026-05-02T11:59:56.492Z</time></trkpt><trkpt lat="46.288259676992645" lon="11.444253813898044"><ele>1014.0</ele><time>2026-05-02T11:59:57.492Z</time></trkpt><trkpt lat="46.288173756970075" lon="11.44428317936111"><ele>1014.0</ele><time>2026-05-02T11:59:58.492Z</time></trkpt><trkpt lat="46.288099088265795" lon="11.444386446371189"><ele>1013.0</ele><time>2026-05-02T11:59:59.492Z</time></trkpt><trkpt lat="46.28804152834219" lon="11.444518013542684"><ele>1012.0000000000001</ele><time>2026-05-02T12:00:00.492Z</time></trkpt><trkpt lat="46.28803517927629" lon="11.444665990338809"><ele>1011.0000000000001</ele><time>2026-05-02T12:00:01.492Z</time></trkpt><trkpt lat="46.28807697723452" lon="11.444796608704497"><ele>1010.0</ele><time>2026-05-02T12:00:02.492Z</time></trkpt><trkpt lat="46.28813441601259" lon="11.444896842231064"><ele>1009.0</ele><time>2026-05-02T12:00:03.492Z</time></trkpt><trkpt lat="46.28819877330468" lon="11.444995189550779"><ele>1009.0</ele><time>2026-05-02T12:00:04.492Z</time></trkpt><trkpt lat="46.28830790012604" lon="11.444998359223122"><ele>1009.0000000000001</ele><time>2026-05-02T12:00:05.492Z</time></trkpt><trkpt lat="46.2884246992679" lon="11.445033904081146"><ele>1009.0000000000001</ele><time>2026-05-02T12:00:06.492Z</time></trkpt><trkpt lat="46.28852994215109" lon="11.445080745982233"><ele>1009.0</ele><time>2026-05-02T12:00:07.492Z</time></trkpt><trkpt lat="46.28860126855684" lon="11.44512108042614"><ele>1009.0</ele><time>2026-05-02T12:00:08.492Z</time></trkpt><trkpt lat="46.2886311080556" lon="11.445241007586823"><ele>1009.0</ele><time>2026-05-02T12:00:10.492Z</time></trkpt><trkpt lat="46.28855402229083" lon="11.44538850578062"><ele>1009.0</ele><time>2026-05-02T12:00:12.492Z</time></trkpt><trkpt lat="46.288480050458524" lon="11.445510831123286"><ele>1009.0</ele><time>2026-05-02T12:00:14.492Z</time></trkpt><trkpt lat="46.28840528102984" lon="11.445605010599026"><ele>1009.0</ele><time>2026-05-02T12:00:16.492Z</time></trkpt><trkpt lat="46.288296134400966" lon="11.445502434321572"><ele>1008.9999999999999</ele><time>2026-05-02T12:00:18.492Z</time></trkpt><trkpt lat="46.28823960662849" lon="11.445398392504456"><ele>1009.0</ele><time>2026-05-02T12:00:19.492Z</time></trkpt><trkpt lat="46.28817353704458" lon="11.445307601650216"><ele>1009.0</ele><time>2026-05-02T12:00:20.492Z</time></trkpt><trkpt lat="46.28811982816914" lon="11.445239548175271"><ele>1009.0</ele><time>2026-05-02T12:00:21.492Z</time></trkpt><trkpt lat="46.288071221719875" lon="11.445164354150766"><ele>1008.9999999999999</ele><time>2026-05-02T12:00:22.492Z</time></trkpt><trkpt lat="46.28802100447247" lon="11.44508329847087"><ele>1009.0</ele><time>2026-05-02T12:00:23.492Z</time></trkpt><trkpt lat="46.287967581266415" lon="11.44498811142959"><ele>1007.8333333333333</ele><time>2026-05-02T12:00:24.492Z</time></trkpt><trkpt lat="46.2879155775564" lon="11.444888903483914"><ele>1006.6666666666666</ele><time>2026-05-02T12:00:25.492Z</time></trkpt><trkpt lat="46.28788986984038" lon="11.444783160000084"><ele>1005.5</ele><time>2026-05-02T12:00:26.492Z</time></trkpt><trkpt lat="46.28782568293284" lon="11.444631942931673"><ele>1004.3333333333333</ele><time>2026-05-02T12:00:28.492Z</time></trkpt><trkpt lat="46.287792754842165" lon="11.444536665798212"><ele>1003.1666666666666</ele><time>2026-05-02T12:00:29.492Z</time></trkpt><trkpt lat="46.28776326353243" lon="11.444427568239098"><ele>1002.0</ele><time>2026-05-02T12:00:30.492Z</time></trkpt><trkpt lat="46.287750251434346" lon="11.444295912978227"><ele>1002.0</ele><time>2026-05-02T12:00:31.492Z</time></trkpt><trkpt lat="46.28773147193883" lon="11.444164732471338"><ele>1002.0</ele><time>2026-05-02T12:00:32.492Z</time></trkpt><trkpt lat="46.2877176523061" lon="11.444028363460987"><ele>1002.0</ele><time>2026-05-02T12:00:33.492Z</time></trkpt><trkpt lat="46.28771116611466" lon="11.443923129059822"><ele>1002.0</ele><time>2026-05-02T12:00:34.492Z</time></trkpt><trkpt lat="46.28770781270701" lon="11.443770901742827"><ele>1002.0</ele><time>2026-05-02T12:00:36.492Z</time></trkpt><trkpt lat="46.28771100968235" lon="11.443677891645079"><ele>1002.0</ele><time>2026-05-02T12:00:38.492Z</time></trkpt><trkpt lat="46.28771674390515" lon="11.443579612610892"><ele>1002.0</ele><time>2026-05-02T12:00:42.492Z</time></trkpt><trkpt lat="46.287725447795275" lon="11.443467902101503"><ele>1002.0</ele><time>2026-05-02T12:00:44.492Z</time></trkpt><trkpt lat="46.287695199102934" lon="11.443362689357535"><ele>1002.0</ele><time>2026-05-02T12:00:46.492Z</time></trkpt><trkpt lat="46.28772091806338" lon="11.443191209566855"><ele>1002.0</ele><time>2026-05-02T12:00:49.492Z</time></trkpt><trkpt lat="46.287713972134775" lon="11.443089443961624"><ele>1002.0</ele><time>2026-05-02T12:00:50.492Z</time></trkpt><trkpt lat="46.28770502251892" lon="11.442955267420157"><ele>1002.0</ele><time>2026-05-02T12:00:52.492Z</time></trkpt><trkpt lat="46.28770395058798" lon="11.44286057408873"><ele>1002.2</ele><time>2026-05-02T12:00:54.492Z</time></trkpt><trkpt lat="46.28771355286019" lon="11.442757063913309"><ele>1002.4000000000001</ele><time>2026-05-02T12:00:57.492Z</time></trkpt><trkpt lat="46.28770881693404" lon="11.442617545440973"><ele>1002.5999999999999</ele><time>2026-05-02T12:00:59.492Z</time></trkpt><trkpt lat="46.28770321816056" lon="11.442488450052565"><ele>1002.8</ele><time>2026-05-02T12:01:01.492Z</time></trkpt><trkpt lat="46.28767562976682" lon="11.442307205913291"><ele>1003.0</ele><time>2026-05-02T12:01:03.492Z</time></trkpt><trkpt lat="46.28764468875422" lon="11.44217851428398"><ele>1003.5999999999999</ele><time>2026-05-02T12:01:04.492Z</time></trkpt><trkpt lat="46.2876227708706" lon="11.442068066845405"><ele>1004.1999999999999</ele><time>2026-05-02T12:01:05.492Z</time></trkpt><trkpt lat="46.28759249094822" lon="11.441946442978868"><ele>1004.8</ele><time>2026-05-02T12:01:06.492Z</time></trkpt><trkpt lat="46.287529673012976" lon="11.441782936121392"><ele>1005.4</ele><time>2026-05-02T12:01:07.492Z</time></trkpt><trkpt lat="46.287471075980996" lon="11.441618425908418"><ele>1006.0</ele><time>2026-05-02T12:01:08.492Z</time></trkpt><trkpt lat="46.28739758098227" lon="11.44148329526784"><ele>1006.0</ele><time>2026-05-02T12:01:09.492Z</time></trkpt><trkpt lat="46.287321326625296" lon="11.4413397263172"><ele>1005.9999999999999</ele><time>2026-05-02T12:01:10.492Z</time></trkpt><trkpt lat="46.28726122972811" lon="11.441191027282363"><ele>1005.9999999999999</ele><time>2026-05-02T12:01:11.492Z</time></trkpt><trkpt lat="46.28720911839497" lon="11.441064339171673"><ele>1006.0</ele><time>2026-05-02T12:01:12.492Z</time></trkpt><trkpt lat="46.28716298251736" lon="11.440942187054565"><ele>1006.0</ele><time>2026-05-02T12:01:13.492Z</time></trkpt><trkpt lat="46.287121609545245" lon="11.440835665146372"><ele>1006.0</ele><time>2026-05-02T12:01:14.492Z</time></trkpt><trkpt lat="46.28707288300568" lon="11.440729653421782"><ele>1005.9999999999999</ele><time>2026-05-02T12:01:15.492Z</time></trkpt><trkpt lat="46.28702655499082" lon="11.440623454901619"><ele>1005.9999999999999</ele><time>2026-05-02T12:01:16.492Z</time></trkpt><trkpt lat="46.28697050854525" lon="11.440524237603308"><ele>1006.0</ele><time>2026-05-02T12:01:17.492Z</time></trkpt><trkpt lat="46.28689547951823" lon="11.440430796233809"><ele>1006.0</ele><time>2026-05-02T12:01:18.492Z</time></trkpt><trkpt lat="46.28680475808569" lon="11.440360870125042"><ele>1006.0</ele><time>2026-05-02T12:01:19.492Z</time></trkpt><trkpt lat="46.28672625615601" lon="11.440299264417842"><ele>1005.9999999999999</ele><time>2026-05-02T12:01:20.492Z</time></trkpt><trkpt lat="46.286649331832024" lon="11.44021879856152"><ele>1005.9999999999999</ele><time>2026-05-02T12:01:21.492Z</time></trkpt><trkpt lat="46.28658759735122" lon="11.440093606523078"><ele>1006.0</ele><time>2026-05-02T12:01:22.492Z</time></trkpt><trkpt lat="46.28649867510828" lon="11.439997786852075"><ele>1006.0</ele><time>2026-05-02T12:01:23.492Z</time></trkpt><trkpt lat="46.286437433296584" lon="11.439864253518563"><ele>1003.5</ele><time>2026-05-02T12:01:24.492Z</time></trkpt><trkpt lat="46.28637418869209" lon="11.4397346138955"><ele>1001.0</ele><time>2026-05-02T12:01:25.492Z</time></trkpt><trkpt lat="46.28630035957114" lon="11.439622949948106"><ele>998.5</ele><time>2026-05-02T12:01:26.492Z</time></trkpt><trkpt lat="46.286208369923145" lon="11.439493426698292"><ele>996.0</ele><time>2026-05-02T12:01:27.492Z</time></trkpt><trkpt lat="46.28611827197822" lon="11.439364686999918"><ele>996.0</ele><time>2026-05-02T12:01:28.492Z</time></trkpt><trkpt lat="46.28601647752447" lon="11.439225184396152"><ele>996.0</ele><time>2026-05-02T12:01:29.492Z</time></trkpt><trkpt lat="46.285891871672106" lon="11.439096466538947"><ele>996.0</ele><time>2026-05-02T12:01:30.492Z</time></trkpt><trkpt lat="46.28577566710635" lon="11.43895862205365"><ele>996.0</ele><time>2026-05-02T12:01:31.492Z</time></trkpt><trkpt lat="46.285669566409794" lon="11.438833520951485"><ele>993.5</ele><time>2026-05-02T12:01:32.492Z</time></trkpt><trkpt lat="46.28555955495381" lon="11.438711991887935"><ele>991.0</ele><time>2026-05-02T12:01:33.492Z</time></trkpt><trkpt lat="46.285456507047286" lon="11.43860420174624"><ele>988.5</ele><time>2026-05-02T12:01:34.492Z</time></trkpt><trkpt lat="46.285347466063676" lon="11.438474775988272"><ele>986.0</ele><time>2026-05-02T12:01:35.492Z</time></trkpt><trkpt lat="46.28522698832462" lon="11.438393602888452"><ele>986.0</ele><time>2026-05-02T12:01:36.492Z</time></trkpt><trkpt lat="46.285100898391555" lon="11.43832384914617"><ele>986.0</ele><time>2026-05-02T12:01:37.492Z</time></trkpt><trkpt lat="46.284969875145656" lon="11.438269239367987"><ele>986.0</ele><time>2026-05-02T12:01:38.492Z</time></trkpt><trkpt lat="46.28486090118536" lon="11.438216198435747"><ele>986.0</ele><time>2026-05-02T12:01:39.492Z</time></trkpt><trkpt lat="46.28475308790501" lon="11.438153641003693"><ele>983.75</ele><time>2026-05-02T12:01:40.492Z</time></trkpt><trkpt lat="46.284648512574364" lon="11.438084987455214"><ele>981.5</ele><time>2026-05-02T12:01:41.492Z</time></trkpt><trkpt lat="46.284559171234214" lon="11.43797794330155"><ele>979.25</ele><time>2026-05-02T12:01:42.492Z</time></trkpt><trkpt lat="46.2844768912562" lon="11.437865793388545"><ele>977.0</ele><time>2026-05-02T12:01:43.492Z</time></trkpt><trkpt lat="46.284397719043525" lon="11.43774553806483"><ele>977.0</ele><time>2026-05-02T12:01:44.492Z</time></trkpt><trkpt lat="46.28432360277423" lon="11.437628834638984"><ele>977.0</ele><time>2026-05-02T12:01:45.492Z</time></trkpt><trkpt lat="46.28423930890657" lon="11.43749534355156"><ele>977.0</ele><time>2026-05-02T12:01:46.492Z</time></trkpt><trkpt lat="46.284142512691204" lon="11.437378108022454"><ele>977.0</ele><time>2026-05-02T12:01:47.492Z</time></trkpt><trkpt lat="46.28405440078464" lon="11.437236531470324"><ele>978.75</ele><time>2026-05-02T12:01:48.492Z</time></trkpt><trkpt lat="46.2839652314123" lon="11.437095836848776"><ele>980.5</ele><time>2026-05-02T12:01:49.492Z</time></trkpt><trkpt lat="46.28388378953351" lon="11.436958067242063"><ele>982.25</ele><time>2026-05-02T12:01:50.492Z</time></trkpt><trkpt lat="46.28379096877075" lon="11.436806294983906"><ele>984.0</ele><time>2026-05-02T12:01:51.492Z</time></trkpt><trkpt lat="46.28369265450817" lon="11.43667085905087"><ele>981.0</ele><time>2026-05-02T12:01:52.492Z</time></trkpt><trkpt lat="46.283586838306896" lon="11.43655772648838"><ele>978.0</ele><time>2026-05-02T12:01:53.492Z</time></trkpt><trkpt lat="46.28347903688314" lon="11.436450383009221"><ele>975.0</ele><time>2026-05-02T12:01:54.492Z</time></trkpt><trkpt lat="46.28336947515117" lon="11.436336901701203"><ele>972.0</ele><time>2026-05-02T12:01:55.492Z</time></trkpt><trkpt lat="46.28326919267345" lon="11.436231362091277"><ele>972.0</ele><time>2026-05-02T12:01:56.492Z</time></trkpt><trkpt lat="46.283163028201194" lon="11.436112604235953"><ele>972.0</ele><time>2026-05-02T12:01:57.492Z</time></trkpt><trkpt lat="46.28305222460245" lon="11.436015511582713"><ele>972.0</ele><time>2026-05-02T12:01:58.492Z</time></trkpt><trkpt lat="46.28295367562475" lon="11.435897287174452"><ele>972.0</ele><time>2026-05-02T12:01:59.492Z</time></trkpt><trkpt lat="46.28286015829153" lon="11.43578925205547"><ele>970.75</ele><time>2026-05-02T12:02:00.492Z</time></trkpt><trkpt lat="46.28276153872415" lon="11.435691249105616"><ele>969.5</ele><time>2026-05-02T12:02:01.492Z</time></trkpt><trkpt lat="46.282660335954155" lon="11.435574890999439"><ele>968.25</ele><time>2026-05-02T12:02:02.492Z</time></trkpt><trkpt lat="46.28256713427529" lon="11.435483950440194"><ele>967.0</ele><time>2026-05-02T12:02:03.492Z</time></trkpt><trkpt lat="46.28246786382214" lon="11.435380569071407"><ele>967.0</ele><time>2026-05-02T12:02:04.492Z</time></trkpt><trkpt lat="46.282368538904315" lon="11.43527006963949"><ele>967.0</ele><time>2026-05-02T12:02:05.492Z</time></trkpt><trkpt lat="46.28226027745565" lon="11.43518555855924"><ele>967.0</ele><time>2026-05-02T12:02:06.492Z</time></trkpt><trkpt lat="46.28216432753203" lon="11.435117989794554"><ele>967.0</ele><time>2026-05-02T12:02:07.492Z</time></trkpt><trkpt lat="46.282047043949994" lon="11.435031231293431"><ele>963.75</ele><time>2026-05-02T12:02:08.492Z</time></trkpt><trkpt lat="46.28193067172595" lon="11.43496227878421"><ele>960.5</ele><time>2026-05-02T12:02:09.492Z</time></trkpt><trkpt lat="46.281802744407344" lon="11.434926863363266"><ele>957.25</ele><time>2026-05-02T12:02:10.492Z</time></trkpt><trkpt lat="46.28168355822379" lon="11.434890340804065"><ele>954.0</ele><time>2026-05-02T12:02:11.492Z</time></trkpt><trkpt lat="46.28155228220325" lon="11.434828553745179"><ele>953.5</ele><time>2026-05-02T12:02:12.492Z</time></trkpt><trkpt lat="46.281429006411955" lon="11.434784633005567"><ele>953.0</ele><time>2026-05-02T12:02:13.492Z</time></trkpt><trkpt lat="46.281298220354515" lon="11.434757380041326"><ele>952.5</ele><time>2026-05-02T12:02:14.492Z</time></trkpt><trkpt lat="46.281176621603656" lon="11.434695468133318"><ele>952.0</ele><time>2026-05-02T12:02:15.492Z</time></trkpt><trkpt lat="46.28106449572541" lon="11.434654973951572"><ele>951.5</ele><time>2026-05-02T12:02:16.492Z</time></trkpt><trkpt lat="46.280944250792665" lon="11.434611672247245"><ele>951.0</ele><time>2026-05-02T12:02:17.492Z</time></trkpt><trkpt lat="46.28082957702951" lon="11.434592040544247"><ele>950.5</ele><time>2026-05-02T12:02:18.492Z</time></trkpt><trkpt lat="46.2807188775334" lon="11.434530512190124"><ele>950.0</ele><time>2026-05-02T12:02:19.492Z</time></trkpt><trkpt lat="46.280609029853906" lon="11.434490770000705"><ele>949.0</ele><time>2026-05-02T12:02:20.492Z</time></trkpt><trkpt lat="46.28049281294498" lon="11.434448781406793"><ele>948.0</ele><time>2026-05-02T12:02:21.492Z</time></trkpt><trkpt lat="46.280390143094984" lon="11.434411687299113"><ele>947.0</ele><time>2026-05-02T12:02:22.492Z</time></trkpt><trkpt lat="46.28027565681119" lon="11.434370323960936"><ele>946.0</ele><time>2026-05-02T12:02:23.492Z</time></trkpt><trkpt lat="46.28016870784592" lon="11.434331683834905"><ele>946.0</ele><time>2026-05-02T12:02:24.492Z</time></trkpt><trkpt lat="46.28006524196429" lon="11.434294301925393"><ele>945.9999999999999</ele><time>2026-05-02T12:02:25.492Z</time></trkpt><trkpt lat="46.27996654627526" lon="11.434258861069889"><ele>945.9999999999999</ele><time>2026-05-02T12:02:26.492Z</time></trkpt><trkpt lat="46.27987153151392" lon="11.43422695057563"><ele>946.0</ele><time>2026-05-02T12:02:27.492Z</time></trkpt><trkpt lat="46.27976595261819" lon="11.43419286372623"><ele>946.0</ele><time>2026-05-02T12:02:28.492Z</time></trkpt><trkpt lat="46.27966738246476" lon="11.434159354819112"><ele>945.4999999999999</ele><time>2026-05-02T12:02:29.492Z</time></trkpt><trkpt lat="46.27956313792307" lon="11.434149111298312"><ele>945.0</ele><time>2026-05-02T12:02:30.492Z</time></trkpt><trkpt lat="46.27948916878666" lon="11.434149987836443"><ele>944.5</ele><time>2026-05-02T12:02:31.492Z</time></trkpt><trkpt lat="46.27942183134661" lon="11.434109919407566"><ele>944.0</ele><time>2026-05-02T12:02:32.492Z</time></trkpt><trkpt lat="46.279357878957484" lon="11.434067522827162"><ele>943.4999999999999</ele><time>2026-05-02T12:02:33.492Z</time></trkpt><trkpt lat="46.27930075677004" lon="11.43398404418998"><ele>943.0</ele><time>2026-05-02T12:02:34.492Z</time></trkpt><trkpt lat="46.27928272504103" lon="11.433882992400191"><ele>941.4999999999999</ele><time>2026-05-02T12:02:35.492Z</time></trkpt><trkpt lat="46.27927727394626" lon="11.43378627650381"><ele>940.0</ele><time>2026-05-02T12:02:36.492Z</time></trkpt><trkpt lat="46.27930891926304" lon="11.433672172939522"><ele>938.5</ele><time>2026-05-02T12:02:38.492Z</time></trkpt><trkpt lat="46.279339956406076" lon="11.433527457209976"><ele>937.0</ele><time>2026-05-02T12:02:40.492Z</time></trkpt><trkpt lat="46.27936304829041" lon="11.43341502997446"><ele>935.4999999999999</ele><time>2026-05-02T12:02:41.492Z</time></trkpt><trkpt lat="46.27938177675967" lon="11.433272575376451"><ele>934.0</ele><time>2026-05-02T12:02:42.492Z</time></trkpt><trkpt lat="46.279424055591335" lon="11.433151891544831"><ele>934.0</ele><time>2026-05-02T12:02:43.492Z</time></trkpt><trkpt lat="46.279450958835746" lon="11.43302448719244"><ele>934.0000000000001</ele><time>2026-05-02T12:02:44.492Z</time></trkpt><trkpt lat="46.27947698314969" lon="11.432897654611763"><ele>934.0000000000001</ele><time>2026-05-02T12:02:45.492Z</time></trkpt><trkpt lat="46.27950792913676" lon="11.43274592312232"><ele>934.0</ele><time>2026-05-02T12:02:46.492Z</time></trkpt><trkpt lat="46.27954016658703" lon="11.432590600194985"><ele>934.0</ele><time>2026-05-02T12:02:47.492Z</time></trkpt><trkpt lat="46.279572569515416" lon="11.432438537927545"><ele>931.4000000000001</ele><time>2026-05-02T12:02:48.492Z</time></trkpt><trkpt lat="46.279604486143924" lon="11.432291475431745"><ele>928.8000000000001</ele><time>2026-05-02T12:02:49.492Z</time></trkpt><trkpt lat="46.27963537210226" lon="11.432144660322002"><ele>926.1999999999999</ele><time>2026-05-02T12:02:50.492Z</time></trkpt><trkpt lat="46.27965094836328" lon="11.4319950786641"><ele>923.5999999999999</ele><time>2026-05-02T12:02:51.492Z</time></trkpt><trkpt lat="46.279634536236564" lon="11.431840698519268"><ele>921.0</ele><time>2026-05-02T12:02:52.492Z</time></trkpt><trkpt lat="46.27960960217064" lon="11.43169555847004"><ele>921.25</ele><time>2026-05-02T12:02:53.492Z</time></trkpt><trkpt lat="46.27956314153811" lon="11.431527276944376"><ele>921.5</ele><time>2026-05-02T12:02:54.492Z</time></trkpt><trkpt lat="46.27948989555404" lon="11.431341554922936"><ele>921.75</ele><time>2026-05-02T12:02:55.493Z</time></trkpt><trkpt lat="46.279416856161326" lon="11.431174173222857"><ele>922.0</ele><time>2026-05-02T12:02:56.493Z</time></trkpt><trkpt lat="46.279360277193916" lon="11.431016600530901"><ele>922.0</ele><time>2026-05-02T12:02:57.493Z</time></trkpt><trkpt lat="46.27930556868722" lon="11.430861675308968"><ele>922.0</ele><time>2026-05-02T12:02:58.493Z</time></trkpt><trkpt lat="46.279226541009194" lon="11.430710387558381"><ele>922.0</ele><time>2026-05-02T12:02:59.493Z</time></trkpt><trkpt lat="46.279174866784345" lon="11.430527769441305"><ele>922.0</ele><time>2026-05-02T12:03:00.493Z</time></trkpt><trkpt lat="46.27910977229589" lon="11.43034608011434"><ele>921.6666666666666</ele><time>2026-05-02T12:03:01.493Z</time></trkpt><trkpt lat="46.27902743632482" lon="11.430153747721034"><ele>921.3333333333333</ele><time>2026-05-02T12:03:02.493Z</time></trkpt><trkpt lat="46.27894740144081" lon="11.429969129202252"><ele>921.0</ele><time>2026-05-02T12:03:03.493Z</time></trkpt><trkpt lat="46.278864643703876" lon="11.429768472323827"><ele>921.0</ele><time>2026-05-02T12:03:04.493Z</time></trkpt><trkpt lat="46.278786064666306" lon="11.4295745786302"><ele>921.0</ele><time>2026-05-02T12:03:05.493Z</time></trkpt><trkpt lat="46.27870089345158" lon="11.429413892527357"><ele>921.0</ele><time>2026-05-02T12:03:06.493Z</time></trkpt><trkpt lat="46.27863149296673" lon="11.429235944429074"><ele>921.0</ele><time>2026-05-02T12:03:07.493Z</time></trkpt><trkpt lat="46.27856061482583" lon="11.429065007047123"><ele>921.0</ele><time>2026-05-02T12:03:08.493Z</time></trkpt><trkpt lat="46.27848682336902" lon="11.428886155600793"><ele>921.0</ele><time>2026-05-02T12:03:09.493Z</time></trkpt><trkpt lat="46.27839927779678" lon="11.428719948543167"><ele>921.0</ele><time>2026-05-02T12:03:10.493Z</time></trkpt><trkpt lat="46.27833981779661" lon="11.428530285681168"><ele>921.0</ele><time>2026-05-02T12:03:11.493Z</time></trkpt><trkpt lat="46.27827205840075" lon="11.428366254293664"><ele>921.75</ele><time>2026-05-02T12:03:12.493Z</time></trkpt><trkpt lat="46.27820521716365" lon="11.428204445290566"><ele>922.5</ele><time>2026-05-02T12:03:13.493Z</time></trkpt><trkpt lat="46.27812329981208" lon="11.428051100487393"><ele>923.25</ele><time>2026-05-02T12:03:14.493Z</time></trkpt><trkpt lat="46.27806569905123" lon="11.427867143223656"><ele>924.0</ele><time>2026-05-02T12:03:15.493Z</time></trkpt><trkpt lat="46.277993399995665" lon="11.427693067660716"><ele>922.5</ele><time>2026-05-02T12:03:16.493Z</time></trkpt><trkpt lat="46.277920526602834" lon="11.427517609572899"><ele>921.0</ele><time>2026-05-02T12:03:17.493Z</time></trkpt><trkpt lat="46.277850374932065" lon="11.427346918302577"><ele>919.5</ele><time>2026-05-02T12:03:18.493Z</time></trkpt><trkpt lat="46.27777888884558" lon="11.427170727070777"><ele>918.0</ele><time>2026-05-02T12:03:19.493Z</time></trkpt><trkpt lat="46.27770585182221" lon="11.426998223750795"><ele>918.0</ele><time>2026-05-02T12:03:20.493Z</time></trkpt><trkpt lat="46.27762988848336" lon="11.426848117755156"><ele>918.0</ele><time>2026-05-02T12:03:21.493Z</time></trkpt><trkpt lat="46.27752471490832" lon="11.426705204524122"><ele>918.0</ele><time>2026-05-02T12:03:22.493Z</time></trkpt><trkpt lat="46.27739951862978" lon="11.426584990775236"><ele>918.0</ele><time>2026-05-02T12:03:23.493Z</time></trkpt><trkpt lat="46.27728041371178" lon="11.4264767808982"><ele>916.75</ele><time>2026-05-02T12:03:24.493Z</time></trkpt><trkpt lat="46.27716789244914" lon="11.426369172664046"><ele>915.5</ele><time>2026-05-02T12:03:25.493Z</time></trkpt><trkpt lat="46.27705672576414" lon="11.426259997503253"><ele>914.25</ele><time>2026-05-02T12:03:26.493Z</time></trkpt><trkpt lat="46.276957091174836" lon="11.426165731146185"><ele>913.0</ele><time>2026-05-02T12:03:27.493Z</time></trkpt><trkpt lat="46.276862340885515" lon="11.426079455404942"><ele>912.5999999999999</ele><time>2026-05-02T12:03:28.493Z</time></trkpt><trkpt lat="46.276780117073116" lon="11.426009065789447"><ele>912.1999999999999</ele><time>2026-05-02T12:03:29.493Z</time></trkpt><trkpt lat="46.27670058001172" lon="11.425960463264019"><ele>911.8</ele><time>2026-05-02T12:03:30.493Z</time></trkpt><trkpt lat="46.27662510918621" lon="11.425879060453958"><ele>911.4</ele><time>2026-05-02T12:03:31.493Z</time></trkpt><trkpt lat="46.276549731506336" lon="11.4258546216319"><ele>911.0</ele><time>2026-05-02T12:03:32.493Z</time></trkpt><trkpt lat="46.2765715892999" lon="11.42564456380492"><ele>911.0</ele><time>2026-05-02T12:03:33.493Z</time></trkpt><trkpt lat="46.27657935205301" lon="11.425498683011229"><ele>911.0</ele><time>2026-05-02T12:03:34.493Z</time></trkpt><trkpt lat="46.27658909040454" lon="11.425327688959761"><ele>911.0</ele><time>2026-05-02T12:03:35.493Z</time></trkpt><trkpt lat="46.27659810129163" lon="11.42514213964588"><ele>911.0</ele><time>2026-05-02T12:03:36.493Z</time></trkpt><trkpt lat="46.27659903579949" lon="11.424960366537016"><ele>911.8</ele><time>2026-05-02T12:03:37.493Z</time></trkpt><trkpt lat="46.276578665090135" lon="11.424792124566245"><ele>912.5999999999999</ele><time>2026-05-02T12:03:38.493Z</time></trkpt><trkpt lat="46.2765032946193" lon="11.424658752931707"><ele>913.4</ele><time>2026-05-02T12:03:39.493Z</time></trkpt><trkpt lat="46.27644882199846" lon="11.424561249250077"><ele>914.2</ele><time>2026-05-02T12:03:40.493Z</time></trkpt><trkpt lat="46.27638119783453" lon="11.424531544557512"><ele>915.0</ele><time>2026-05-02T12:03:41.493Z</time></trkpt><trkpt lat="46.27631508267967" lon="11.424466934390267"><ele>912.2</ele><time>2026-05-02T12:03:43.493Z</time></trkpt><trkpt lat="46.27625117448409" lon="11.424419780664637"><ele>909.4</ele><time>2026-05-02T12:03:48.493Z</time></trkpt><trkpt lat="46.276169132190375" lon="11.424427814559532"><ele>906.5999999999999</ele><time>2026-05-02T12:03:51.493Z</time></trkpt><trkpt lat="46.27611858640153" lon="11.42460284309494"><ele>903.8</ele><time>2026-05-02T12:03:53.493Z</time></trkpt><trkpt lat="46.276140034476185" lon="11.424795300994315"><ele>901.0</ele><time>2026-05-02T12:03:54.493Z</time></trkpt><trkpt lat="46.27616101585323" lon="11.425031478222909"><ele>899.75</ele><time>2026-05-02T12:03:55.493Z</time></trkpt><trkpt lat="46.27619837120832" lon="11.425256886237086"><ele>898.5</ele><time>2026-05-02T12:03:56.493Z</time></trkpt><trkpt lat="46.27623133346653" lon="11.425447470440785"><ele>897.25</ele><time>2026-05-02T12:03:57.493Z</time></trkpt><trkpt lat="46.27624900013067" lon="11.425628875763323"><ele>896.0</ele><time>2026-05-02T12:03:58.493Z</time></trkpt><trkpt lat="46.27627927247897" lon="11.425857679851179"><ele>896.0</ele><time>2026-05-02T12:03:59.493Z</time></trkpt><trkpt lat="46.27630399811358" lon="11.42615435079931"><ele>896.0</ele><time>2026-05-02T12:04:00.493Z</time></trkpt><trkpt lat="46.27631666339005" lon="11.42644230516201"><ele>896.0</ele><time>2026-05-02T12:04:01.493Z</time></trkpt><trkpt lat="46.276319772985154" lon="11.426690848694276"><ele>895.0</ele><time>2026-05-02T12:04:02.493Z</time></trkpt><trkpt lat="46.27631623792618" lon="11.426919758578812"><ele>894.0</ele><time>2026-05-02T12:04:03.493Z</time></trkpt><trkpt lat="46.276310763110864" lon="11.427147909949214"><ele>893.0</ele><time>2026-05-02T12:04:04.493Z</time></trkpt><trkpt lat="46.276309982852375" lon="11.427381100784615"><ele>893.0</ele><time>2026-05-02T12:04:05.493Z</time></trkpt><trkpt lat="46.276305778219346" lon="11.427633706289061"><ele>893.0</ele><time>2026-05-02T12:04:06.493Z</time></trkpt><trkpt lat="46.27630352410098" lon="11.427893971754237"><ele>893.0</ele><time>2026-05-02T12:04:07.493Z</time></trkpt><trkpt lat="46.27631364465637" lon="11.42814351520266"><ele>892.0</ele><time>2026-05-02T12:04:08.493Z</time></trkpt><trkpt lat="46.276330168273624" lon="11.42838078283143"><ele>891.0</ele><time>2026-05-02T12:04:09.493Z</time></trkpt><trkpt lat="46.27635948580293" lon="11.428641557986005"><ele>890.0</ele><time>2026-05-02T12:04:10.493Z</time></trkpt><trkpt lat="46.2764119737312" lon="11.428926323188609"><ele>893.0</ele><time>2026-05-02T12:04:11.493Z</time></trkpt><trkpt lat="46.276492233290504" lon="11.429210499485215"><ele>896.0</ele><time>2026-05-02T12:04:12.493Z</time></trkpt><trkpt lat="46.276589442891165" lon="11.429466546779235"><ele>899.0</ele><time>2026-05-02T12:04:13.493Z</time></trkpt><trkpt lat="46.276690234727376" lon="11.429711386896754"><ele>899.0</ele><time>2026-05-02T12:04:14.493Z</time></trkpt><trkpt lat="46.27680555068602" lon="11.42994613288547"><ele>899.0</ele><time>2026-05-02T12:04:15.493Z</time></trkpt><trkpt lat="46.27694108145031" lon="11.430169444873782"><ele>899.0</ele><time>2026-05-02T12:04:16.493Z</time></trkpt><trkpt lat="46.27707401505277" lon="11.430375877619248"><ele>898.6666666666667</ele><time>2026-05-02T12:04:17.493Z</time></trkpt><trkpt lat="46.277196955024316" lon="11.430575671363803"><ele>898.3333333333333</ele><time>2026-05-02T12:04:18.493Z</time></trkpt><trkpt lat="46.27730549287136" lon="11.430779800855403"><ele>898.0</ele><time>2026-05-02T12:04:19.493Z</time></trkpt><trkpt lat="46.277397407554425" lon="11.430984307929021"><ele>898.0</ele><time>2026-05-02T12:04:20.493Z</time></trkpt><trkpt lat="46.27746631666293" lon="11.43119367295906"><ele>898.0</ele><time>2026-05-02T12:04:21.493Z</time></trkpt><trkpt lat="46.277519672310355" lon="11.431415411631923"><ele>898.0</ele><time>2026-05-02T12:04:22.493Z</time></trkpt><trkpt lat="46.277566170451834" lon="11.431642674045898"><ele>900.6666666666666</ele><time>2026-05-02T12:04:23.493Z</time></trkpt><trkpt lat="46.277614210776655" lon="11.431877393752213"><ele>903.3333333333333</ele><time>2026-05-02T12:04:24.493Z</time></trkpt><trkpt lat="46.27765672223898" lon="11.43212806951926"><ele>906.0</ele><time>2026-05-02T12:04:25.493Z</time></trkpt><trkpt lat="46.27765909940943" lon="11.43239479176318"><ele>906.0</ele><time>2026-05-02T12:04:26.493Z</time></trkpt><trkpt lat="46.277657619690416" lon="11.432652107347524"><ele>906.0</ele><time>2026-05-02T12:04:27.493Z</time></trkpt><trkpt lat="46.277649548410814" lon="11.43290808620097"><ele>906.0</ele><time>2026-05-02T12:04:28.51Z</time></trkpt><trkpt lat="46.27763614089275" lon="11.433157317455127"><ele>906.6666666666667</ele><time>2026-05-02T12:04:29.507Z</time></trkpt><trkpt lat="46.277621497057204" lon="11.43342517410158"><ele>907.3333333333334</ele><time>2026-05-02T12:04:30.508Z</time></trkpt><trkpt lat="46.27761073167849" lon="11.433725924572862"><ele>908.0</ele><time>2026-05-02T12:04:31.505Z</time></trkpt><trkpt lat="46.27761030601163" lon="11.434038465786427"><ele>908.0</ele><time>2026-05-02T12:04:32.506Z</time></trkpt><trkpt lat="46.27761783989159" lon="11.434305790758861"><ele>908.0</ele><time>2026-05-02T12:04:33.508Z</time></trkpt><trkpt lat="46.27763376003039" lon="11.434587447025338"><ele>908.0</ele><time>2026-05-02T12:04:34.506Z</time></trkpt><trkpt lat="46.2777898551467" lon="11.43573937958352"><ele>896.3333333333334</ele><time>2026-05-02T12:04:37.493Z</time></trkpt><trkpt lat="46.277851556542764" lon="11.436042654110958"><ele>884.6666666666667</ele><time>2026-05-02T12:04:38.493Z</time></trkpt><trkpt lat="46.27792116554974" lon="11.436348217110764"><ele>873.0</ele><time>2026-05-02T12:04:39.509Z</time></trkpt><trkpt lat="46.27875073351551" lon="11.439737621705456"><ele>874.3333333333333</ele><time>2026-05-02T12:04:50.493Z</time></trkpt><trkpt lat="46.27883836980604" lon="11.440027545395308"><ele>875.6666666666666</ele><time>2026-05-02T12:04:51.493Z</time></trkpt><trkpt lat="46.27891351356648" lon="11.440240781406652"><ele>877.0</ele><time>2026-05-02T12:04:52.493Z</time></trkpt><trkpt lat="46.27903475817193" lon="11.440465578140973"><ele>877.5</ele><time>2026-05-02T12:04:53.493Z</time></trkpt><trkpt lat="46.27913050319297" lon="11.440734501034255"><ele>878.0</ele><time>2026-05-02T12:04:54.508Z</time></trkpt><trkpt lat="46.27982294656921" lon="11.443930082033802"><ele>868.5</ele><time>2026-05-02T12:05:05.493Z</time></trkpt><trkpt lat="46.27985599558015" lon="11.444162256970472"><ele>859.0</ele><time>2026-05-02T12:05:06.493Z</time></trkpt><trkpt lat="46.279927151628726" lon="11.444277357221239"><ele>849.5</ele><time>2026-05-02T12:05:07.493Z</time></trkpt><trkpt lat="46.28001427265904" lon="11.444321552570866"><ele>840.0</ele><time>2026-05-02T12:05:08.493Z</time></trkpt><trkpt lat="46.280035725061246" lon="11.444470990157205"><ele>840.0</ele><time>2026-05-02T12:05:09.493Z</time></trkpt><trkpt lat="46.28004811413418" lon="11.444584177580236"><ele>840.0</ele><time>2026-05-02T12:05:12.493Z</time></trkpt><trkpt lat="46.27983055668523" lon="11.444511567926911"><ele>840.0</ele><time>2026-05-02T12:05:14.493Z</time></trkpt><trkpt lat="46.279776806619" lon="11.444415160146043"><ele>840.0</ele><time>2026-05-02T12:05:15.493Z</time></trkpt><trkpt lat="46.27972965986415" lon="11.444310107816122"><ele>838.3333333333333</ele><time>2026-05-02T12:05:16.493Z</time></trkpt><trkpt lat="46.27965442908969" lon="11.444183946303285"><ele>836.6666666666666</ele><time>2026-05-02T12:05:17.493Z</time></trkpt><trkpt lat="46.27957983043261" lon="11.44396296557091"><ele>835.0</ele><time>2026-05-02T12:05:18.493Z</time></trkpt><trkpt lat="46.2794840622578" lon="11.443730407217464"><ele>835.0</ele><time>2026-05-02T12:05:19.493Z</time></trkpt><trkpt lat="46.27939904538706" lon="11.443504547503396"><ele>835.0</ele><time>2026-05-02T12:05:20.493Z</time></trkpt><trkpt lat="46.2793163896941" lon="11.443312561853247"><ele>835.0</ele><time>2026-05-02T12:05:21.493Z</time></trkpt><trkpt lat="46.279205357782885" lon="11.443112270985072"><ele>831.3333333333333</ele><time>2026-05-02T12:05:22.493Z</time></trkpt><trkpt lat="46.279073418110876" lon="11.442905504377967"><ele>827.6666666666667</ele><time>2026-05-02T12:05:23.493Z</time></trkpt><trkpt lat="46.2789346714756" lon="11.442694129117493"><ele>824.0</ele><time>2026-05-02T12:05:24.493Z</time></trkpt><trkpt lat="46.27882120004145" lon="11.44246731686799"><ele>824.0</ele><time>2026-05-02T12:05:25.493Z</time></trkpt><trkpt lat="46.27871672604513" lon="11.442243645934305"><ele>824.0</ele><time>2026-05-02T12:05:26.493Z</time></trkpt><trkpt lat="46.278632939684385" lon="11.442030086162733"><ele>824.0</ele><time>2026-05-02T12:05:27.493Z</time></trkpt><trkpt lat="46.27854594033305" lon="11.441797178662814"><ele>826.0</ele><time>2026-05-02T12:05:28.493Z</time></trkpt><trkpt lat="46.27845666785236" lon="11.441568271393749"><ele>828.0</ele><time>2026-05-02T12:05:29.493Z</time></trkpt><trkpt lat="46.278375798648" lon="11.441343983705378"><ele>830.0</ele><time>2026-05-02T12:05:30.493Z</time></trkpt><trkpt lat="46.27831102149636" lon="11.441115309004514"><ele>827.0</ele><time>2026-05-02T12:05:31.493Z</time></trkpt><trkpt lat="46.278239100979384" lon="11.44090648607255"><ele>824.0</ele><time>2026-05-02T12:05:32.493Z</time></trkpt><trkpt lat="46.27816226650977" lon="11.440690179482733"><ele>821.0</ele><time>2026-05-02T12:05:33.493Z</time></trkpt><trkpt lat="46.27806356949311" lon="11.440472372656131"><ele>821.6666666666667</ele><time>2026-05-02T12:05:34.493Z</time></trkpt><trkpt lat="46.277971842557385" lon="11.440251991756726"><ele>822.3333333333333</ele><time>2026-05-02T12:05:35.493Z</time></trkpt><trkpt lat="46.27787108820827" lon="11.440020744972983"><ele>823.0</ele><time>2026-05-02T12:05:36.493Z</time></trkpt><trkpt lat="46.27777144165924" lon="11.439780940970907"><ele>827.3333333333333</ele><time>2026-05-02T12:05:37.493Z</time></trkpt><trkpt lat="46.27765295266624" lon="11.43953606838604"><ele>831.6666666666667</ele><time>2026-05-02T12:05:38.493Z</time></trkpt><trkpt lat="46.27753260604408" lon="11.439289813159673"><ele>836.0</ele><time>2026-05-02T12:05:39.493Z</time></trkpt><trkpt lat="46.277411822544046" lon="11.43905665182881"><ele>836.0</ele><time>2026-05-02T12:05:40.493Z</time></trkpt><trkpt lat="46.27729319972387" lon="11.438825582305808"><ele>836.0</ele><time>2026-05-02T12:05:41.493Z</time></trkpt><trkpt lat="46.2771786010398" lon="11.438599436905008"><ele>836.0</ele><time>2026-05-02T12:05:42.493Z</time></trkpt><trkpt lat="46.277044466125325" lon="11.43835744005008"><ele>829.0</ele><time>2026-05-02T12:05:43.493Z</time></trkpt><trkpt lat="46.276940536791045" lon="11.438070996000866"><ele>822.0</ele><time>2026-05-02T12:05:44.493Z</time></trkpt><trkpt lat="46.27682891946814" lon="11.437776984862154"><ele>822.0</ele><time>2026-05-02T12:05:45.493Z</time></trkpt><trkpt lat="46.276713656050795" lon="11.437510700972888"><ele>822.0</ele><time>2026-05-02T12:05:46.493Z</time></trkpt><trkpt lat="46.27662054385834" lon="11.437240359042548"><ele>822.0</ele><time>2026-05-02T12:05:47.493Z</time></trkpt><trkpt lat="46.27654536585712" lon="11.437002029684308"><ele>820.6666666666667</ele><time>2026-05-02T12:05:48.493Z</time></trkpt><trkpt lat="46.27643847164035" lon="11.436761252569186"><ele>819.3333333333334</ele><time>2026-05-02T12:05:49.493Z</time></trkpt><trkpt lat="46.27633280025598" lon="11.436520311049522"><ele>818.0</ele><time>2026-05-02T12:05:50.493Z</time></trkpt><trkpt lat="46.27624430837358" lon="11.43628259917871"><ele>818.0</ele><time>2026-05-02T12:05:51.493Z</time></trkpt><trkpt lat="46.276150466116746" lon="11.436027157953477"><ele>818.0</ele><time>2026-05-02T12:05:52.493Z</time></trkpt><trkpt lat="46.27605948473211" lon="11.43575303043296"><ele>818.0</ele><time>2026-05-02T12:05:53.493Z</time></trkpt><trkpt lat="46.27595020564197" lon="11.435447001343157"><ele>819.0</ele><time>2026-05-02T12:05:54.493Z</time></trkpt><trkpt lat="46.275838065608035" lon="11.43514315666631"><ele>820.0</ele><time>2026-05-02T12:05:55.493Z</time></trkpt><trkpt lat="46.27571922045755" lon="11.434844550721461"><ele>817.0</ele><time>2026-05-02T12:05:56.493Z</time></trkpt><trkpt lat="46.275593560288485" lon="11.434550857084412"><ele>814.0</ele><time>2026-05-02T12:05:57.493Z</time></trkpt><trkpt lat="46.27546045902082" lon="11.43427376133861"><ele>814.0</ele><time>2026-05-02T12:05:58.493Z</time></trkpt><trkpt lat="46.275313637889994" lon="11.434013951085172"><ele>814.0</ele><time>2026-05-02T12:05:59.493Z</time></trkpt><trkpt lat="46.275163344043236" lon="11.433778620513818"><ele>814.6666666666666</ele><time>2026-05-02T12:06:00.493Z</time></trkpt><trkpt lat="46.27502201789931" lon="11.433535316687047"><ele>815.3333333333333</ele><time>2026-05-02T12:06:01.493Z</time></trkpt><trkpt lat="46.27488028620145" lon="11.433303381773756"><ele>816.0</ele><time>2026-05-02T12:06:02.493Z</time></trkpt><trkpt lat="46.27474613758135" lon="11.433083855875369"><ele>816.0</ele><time>2026-05-02T12:06:03.493Z</time></trkpt><trkpt lat="46.27460915654315" lon="11.432859752142843"><ele>816.0</ele><time>2026-05-02T12:06:04.493Z</time></trkpt><trkpt lat="46.274458846507834" lon="11.432609070395392"><ele>816.0</ele><time>2026-05-02T12:06:05.493Z</time></trkpt><trkpt lat="46.27432557581347" lon="11.432375191567916"><ele>816.0</ele><time>2026-05-02T12:06:06.493Z</time></trkpt><trkpt lat="46.27420821657139" lon="11.432151382443555"><ele>816.0</ele><time>2026-05-02T12:06:07.493Z</time></trkpt><trkpt lat="46.27409293554162" lon="11.431886307666547"><ele>816.0</ele><time>2026-05-02T12:06:08.493Z</time></trkpt><trkpt lat="46.27397942096299" lon="11.431613594676906"><ele>814.0</ele><time>2026-05-02T12:06:09.493Z</time></trkpt><trkpt lat="46.27386405853533" lon="11.431332043931752"><ele>812.0</ele><time>2026-05-02T12:06:10.493Z</time></trkpt><trkpt lat="46.27374408844953" lon="11.431038421647441"><ele>811.5</ele><time>2026-05-02T12:06:11.493Z</time></trkpt><trkpt lat="46.273628263148225" lon="11.430754942994115"><ele>811.0</ele><time>2026-05-02T12:06:12.493Z</time></trkpt><trkpt lat="46.27351418268884" lon="11.430475734437174"><ele>811.0</ele><time>2026-05-02T12:06:13.493Z</time></trkpt><trkpt lat="46.27339029831058" lon="11.43016879606389"><ele>811.0</ele><time>2026-05-02T12:06:14.493Z</time></trkpt><trkpt lat="46.27326910332572" lon="11.42986707547476"><ele>810.5</ele><time>2026-05-02T12:06:15.493Z</time></trkpt><trkpt lat="46.27314662884633" lon="11.429564175607007"><ele>810.0</ele><time>2026-05-02T12:06:16.493Z</time></trkpt><trkpt lat="46.2730499223838" lon="11.429271756878855"><ele>809.0</ele><time>2026-05-02T12:06:17.493Z</time></trkpt><trkpt lat="46.27292153234501" lon="11.428981459696196"><ele>808.0</ele><time>2026-05-02T12:06:18.493Z</time></trkpt><trkpt lat="46.27280467791397" lon="11.428689745309095"><ele>807.0</ele><time>2026-05-02T12:06:19.493Z</time></trkpt><trkpt lat="46.272687750308805" lon="11.428406851437959"><ele>806.0</ele><time>2026-05-02T12:06:20.493Z</time></trkpt><trkpt lat="46.27258389369256" lon="11.428110694221237"><ele>806.0</ele><time>2026-05-02T12:06:21.493Z</time></trkpt><trkpt lat="46.27244347029282" lon="11.427842016321788"><ele>806.0</ele><time>2026-05-02T12:06:22.493Z</time></trkpt><trkpt lat="46.27232701578998" lon="11.427540544401799"><ele>806.0</ele><time>2026-05-02T12:06:23.493Z</time></trkpt><trkpt lat="46.27220743883698" lon="11.427245033756495"><ele>806.0</ele><time>2026-05-02T12:06:24.493Z</time></trkpt><trkpt lat="46.27208231079497" lon="11.426932110802126"><ele>806.0</ele><time>2026-05-02T12:06:25.493Z</time></trkpt><trkpt lat="46.27195521999446" lon="11.426618697374485"><ele>806.0</ele><time>2026-05-02T12:06:26.493Z</time></trkpt><trkpt lat="46.27184256148479" lon="11.426258604847654"><ele>804.5</ele><time>2026-05-02T12:06:27.493Z</time></trkpt><trkpt lat="46.27175588545942" lon="11.425890057235927"><ele>803.0</ele><time>2026-05-02T12:06:28.493Z</time></trkpt><trkpt lat="46.27167076344472" lon="11.425515702761293"><ele>803.5</ele><time>2026-05-02T12:06:29.493Z</time></trkpt><trkpt lat="46.27159499660446" lon="11.42515645111757"><ele>804.0</ele><time>2026-05-02T12:06:30.493Z</time></trkpt><trkpt lat="46.27154739777679" lon="11.424808852092033"><ele>804.3333333333333</ele><time>2026-05-02T12:06:31.493Z</time></trkpt><trkpt lat="46.271506029071645" lon="11.424527207504328"><ele>804.6666666666666</ele><time>2026-05-02T12:06:32.493Z</time></trkpt><trkpt lat="46.27149495937047" lon="11.42428151256511"><ele>805.0</ele><time>2026-05-02T12:06:33.493Z</time></trkpt><trkpt lat="46.271489364585555" lon="11.424046893284078"><ele>805.0</ele><time>2026-05-02T12:06:34.493Z</time></trkpt><trkpt lat="46.271495603646976" lon="11.423852128543226"><ele>805.0</ele><time>2026-05-02T12:06:35.493Z</time></trkpt><trkpt lat="46.27149080540367" lon="11.423683679491887"><ele>805.0</ele><time>2026-05-02T12:06:36.493Z</time></trkpt><trkpt lat="46.27149175261587" lon="11.423537370139123"><ele>805.0</ele><time>2026-05-02T12:06:37.493Z</time></trkpt><trkpt lat="46.27149598690218" lon="11.42343417545466"><ele>805.0</ele><time>2026-05-02T12:06:38.493Z</time></trkpt><trkpt lat="46.2715164076694" lon="11.423327482337694"><ele>804.8</ele><time>2026-05-02T12:06:39.493Z</time></trkpt><trkpt lat="46.27156575502374" lon="11.423233915521186"><ele>804.6</ele><time>2026-05-02T12:06:40.493Z</time></trkpt><trkpt lat="46.27170126320443" lon="11.423116440759207"><ele>804.4000000000001</ele><time>2026-05-02T12:06:42.493Z</time></trkpt><trkpt lat="46.27172733893196" lon="11.423022504196497"><ele>804.2</ele><time>2026-05-02T12:06:43.493Z</time></trkpt><trkpt lat="46.27172544688892" lon="11.422916108176667"><ele>804.0</ele><time>2026-05-02T12:06:44.493Z</time></trkpt><trkpt lat="46.271682926403216" lon="11.422830002147704"><ele>804.0</ele><time>2026-05-02T12:06:45.493Z</time></trkpt><trkpt lat="46.2716224583322" lon="11.42278345851934"><ele>804.0</ele><time>2026-05-02T12:06:46.493Z</time></trkpt><trkpt lat="46.2715538225299" lon="11.422783132848405"><ele>804.0</ele><time>2026-05-02T12:06:47.493Z</time></trkpt><trkpt lat="46.27148746550819" lon="11.42283358836463"><ele>804.0</ele><time>2026-05-02T12:06:48.493Z</time></trkpt><trkpt lat="46.271413113387084" lon="11.422978090778964"><ele>804.0</ele><time>2026-05-02T12:06:50.493Z</time></trkpt><trkpt lat="46.27132627708934" lon="11.423075641986417"><ele>804.0</ele><time>2026-05-02T12:06:52.493Z</time></trkpt><trkpt lat="46.271250300432925" lon="11.423075360550198"><ele>808.0</ele><time>2026-05-02T12:06:53.493Z</time></trkpt><trkpt lat="46.27116636434416" lon="11.423043399524607"><ele>812.0</ele><time>2026-05-02T12:06:54.493Z</time></trkpt><trkpt lat="46.27106247009643" lon="11.422952223917642"><ele>816.0</ele><time>2026-05-02T12:06:55.493Z</time></trkpt><trkpt lat="46.270957216140474" lon="11.422907120792916"><ele>820.0</ele><time>2026-05-02T12:06:56.493Z</time></trkpt><trkpt lat="46.27086558108438" lon="11.422859377886827"><ele>824.0</ele><time>2026-05-02T12:06:57.493Z</time></trkpt><trkpt lat="46.2707857431901" lon="11.422807649532006"><ele>824.0</ele><time>2026-05-02T12:06:58.493Z</time></trkpt><trkpt lat="46.27069717806943" lon="11.422714274771726"><ele>824.0</ele><time>2026-05-02T12:06:59.493Z</time></trkpt><trkpt lat="46.270657575917106" lon="11.422518072825504"><ele>824.0</ele><time>2026-05-02T12:07:00.493Z</time></trkpt><trkpt lat="46.270624688866796" lon="11.42231213673028"><ele>824.0</ele><time>2026-05-02T12:07:01.493Z</time></trkpt><trkpt lat="46.2705300168132" lon="11.422104184376073"><ele>834.0</ele><time>2026-05-02T12:07:02.493Z</time></trkpt><trkpt lat="46.270458744033554" lon="11.42188121097143"><ele>844.0</ele><time>2026-05-02T12:07:03.493Z</time></trkpt><trkpt lat="46.27038310082701" lon="11.421672102366035"><ele>854.0</ele><time>2026-05-02T12:07:04.493Z</time></trkpt><trkpt lat="46.2702924382257" lon="11.4214841435543"><ele>854.0</ele><time>2026-05-02T12:07:05.493Z</time></trkpt><trkpt lat="46.27019274228549" lon="11.421318586191859"><ele>854.0</ele><time>2026-05-02T12:07:06.493Z</time></trkpt><trkpt lat="46.270114271224784" lon="11.42115836602399"><ele>854.0</ele><time>2026-05-02T12:07:07.493Z</time></trkpt><trkpt lat="46.26998438416522" lon="11.420985305297446"><ele>857.3333333333334</ele><time>2026-05-02T12:07:08.493Z</time></trkpt><trkpt lat="46.26987266212242" lon="11.420780308230512"><ele>860.6666666666667</ele><time>2026-05-02T12:07:09.493Z</time></trkpt><trkpt lat="46.26971788731158" lon="11.420567669278313"><ele>864.0</ele><time>2026-05-02T12:07:10.493Z</time></trkpt><trkpt lat="46.26958999673626" lon="11.420384622707244"><ele>864.0</ele><time>2026-05-02T12:07:11.493Z</time></trkpt><trkpt lat="46.26947582808641" lon="11.420214828622745"><ele>864.0</ele><time>2026-05-02T12:07:12.493Z</time></trkpt><trkpt lat="46.26937789367493" lon="11.420070168238908"><ele>864.0</ele><time>2026-05-02T12:07:13.493Z</time></trkpt><trkpt lat="46.26927885236274" lon="11.419931456827475"><ele>864.0</ele><time>2026-05-02T12:07:14.493Z</time></trkpt><trkpt lat="46.26917522447179" lon="11.419794919905955"><ele>863.25</ele><time>2026-05-02T12:07:15.493Z</time></trkpt><trkpt lat="46.26910780383061" lon="11.41961554415827"><ele>862.5</ele><time>2026-05-02T12:07:16.493Z</time></trkpt><trkpt lat="46.26905406986175" lon="11.419432319642516"><ele>861.75</ele><time>2026-05-02T12:07:17.493Z</time></trkpt><trkpt lat="46.269055148479474" lon="11.419265289145978"><ele>861.0</ele><time>2026-05-02T12:07:18.493Z</time></trkpt><trkpt lat="46.26908790408066" lon="11.41901682953956"><ele>861.0</ele><time>2026-05-02T12:07:19.493Z</time></trkpt><trkpt lat="46.269128533698684" lon="11.41882929752691"><ele>861.0</ele><time>2026-05-02T12:07:20.493Z</time></trkpt><trkpt lat="46.269201322975746" lon="11.418639663177563"><ele>861.0</ele><time>2026-05-02T12:07:21.493Z</time></trkpt><trkpt lat="46.269260467180416" lon="11.418467423469975"><ele>861.0</ele><time>2026-05-02T12:07:22.493Z</time></trkpt><trkpt lat="46.269244313821304" lon="11.418308432736547"><ele>861.25</ele><time>2026-05-02T12:07:23.493Z</time></trkpt><trkpt lat="46.26917350688181" lon="11.418144222273003"><ele>861.5</ele><time>2026-05-02T12:07:24.493Z</time></trkpt><trkpt lat="46.26909613660271" lon="11.418002713060979"><ele>861.75</ele><time>2026-05-02T12:07:25.493Z</time></trkpt><trkpt lat="46.26901352995056" lon="11.417868264770949"><ele>862.0</ele><time>2026-05-02T12:07:26.493Z</time></trkpt><trkpt lat="46.26889609160247" lon="11.41787459520149"><ele>863.3333333333333</ele><time>2026-05-02T12:07:27.493Z</time></trkpt><trkpt lat="46.26875364563128" lon="11.417913245622186"><ele>864.6666666666667</ele><time>2026-05-02T12:07:28.493Z</time></trkpt><trkpt lat="46.26862010470824" lon="11.41794901154697"><ele>866.0</ele><time>2026-05-02T12:07:29.493Z</time></trkpt><trkpt lat="46.26844585208016" lon="11.417988560445446"><ele>868.75</ele><time>2026-05-02T12:07:30.493Z</time></trkpt><trkpt lat="46.268294602959095" lon="11.418040480131348"><ele>871.5</ele><time>2026-05-02T12:07:31.493Z</time></trkpt><trkpt lat="46.26816347699721" lon="11.418075594416841"><ele>874.25</ele><time>2026-05-02T12:07:32.493Z</time></trkpt><trkpt lat="46.26803015813768" lon="11.418099039180586"><ele>877.0</ele><time>2026-05-02T12:07:33.493Z</time></trkpt><trkpt lat="46.26791112364419" lon="11.418030810690993"><ele>878.3333333333333</ele><time>2026-05-02T12:07:34.493Z</time></trkpt><trkpt lat="46.26776517153317" lon="11.417930293035107"><ele>879.6666666666667</ele><time>2026-05-02T12:07:35.493Z</time></trkpt><trkpt lat="46.267587374987166" lon="11.417798049208852"><ele>881.0</ele><time>2026-05-02T12:07:36.493Z</time></trkpt><trkpt lat="46.26747120253429" lon="11.417710438664189"><ele>881.0</ele><time>2026-05-02T12:07:37.493Z</time></trkpt><trkpt lat="46.26735542966359" lon="11.417621310603593"><ele>881.0</ele><time>2026-05-02T12:07:38.493Z</time></trkpt><trkpt lat="46.26723133893049" lon="11.417525779091667"><ele>881.0</ele><time>2026-05-02T12:07:39.493Z</time></trkpt><trkpt lat="46.2670974502043" lon="11.417423271291131"><ele>881.0</ele><time>2026-05-02T12:07:40.493Z</time></trkpt><trkpt lat="46.2669674197059" lon="11.417344193620307"><ele>880.6666666666667</ele><time>2026-05-02T12:07:41.493Z</time></trkpt><trkpt lat="46.26681719239674" lon="11.417225650836182"><ele>880.3333333333333</ele><time>2026-05-02T12:07:42.493Z</time></trkpt><trkpt lat="46.266694934816506" lon="11.417116916944353"><ele>880.0</ele><time>2026-05-02T12:07:43.493Z</time></trkpt><trkpt lat="46.26655582626972" lon="11.4170217090243"><ele>877.25</ele><time>2026-05-02T12:07:44.493Z</time></trkpt><trkpt lat="46.266425761044275" lon="11.416941035620107"><ele>874.5</ele><time>2026-05-02T12:07:45.493Z</time></trkpt><trkpt lat="46.26631850310102" lon="11.41685747738303"><ele>871.75</ele><time>2026-05-02T12:07:46.493Z</time></trkpt><trkpt lat="46.26622558517013" lon="11.416813848342052"><ele>869.0</ele><time>2026-05-02T12:07:47.493Z</time></trkpt><trkpt lat="46.26612506331949" lon="11.416776556558556"><ele>869.0</ele><time>2026-05-02T12:07:48.493Z</time></trkpt><trkpt lat="46.26599418510938" lon="11.416833702642396"><ele>869.0</ele><time>2026-05-02T12:07:49.493Z</time></trkpt><trkpt lat="46.265856375237306" lon="11.416862375149128"><ele>869.0</ele><time>2026-05-02T12:07:50.493Z</time></trkpt><trkpt lat="46.26572263025838" lon="11.416882441497977"><ele>869.0</ele><time>2026-05-02T12:07:51.493Z</time></trkpt><trkpt lat="46.265602125412485" lon="11.416884994812905"><ele>864.4000000000001</ele><time>2026-05-02T12:07:52.493Z</time></trkpt><trkpt lat="46.265482663111094" lon="11.416891473501831"><ele>859.8000000000001</ele><time>2026-05-02T12:07:53.493Z</time></trkpt><trkpt lat="46.26535680463643" lon="11.416947038317327"><ele>855.2</ele><time>2026-05-02T12:07:54.493Z</time></trkpt><trkpt lat="46.26527117990695" lon="11.41701802659561"><ele>850.5999999999999</ele><time>2026-05-02T12:07:55.493Z</time></trkpt><trkpt lat="46.265184163700916" lon="11.417053146336848"><ele>846.0</ele><time>2026-05-02T12:07:56.493Z</time></trkpt><trkpt lat="46.265088818657354" lon="11.417051909934036"><ele>846.0</ele><time>2026-05-02T12:07:57.493Z</time></trkpt><trkpt lat="46.264997555501836" lon="11.41709604272376"><ele>846.0</ele><time>2026-05-02T12:07:58.493Z</time></trkpt><trkpt lat="46.264971325918275" lon="11.417321698278913"><ele>846.0</ele><time>2026-05-02T12:07:59.493Z</time></trkpt><trkpt lat="46.26491106745196" lon="11.417529313674901"><ele>846.0</ele><time>2026-05-02T12:08:00.493Z</time></trkpt><trkpt lat="46.26483237808502" lon="11.41769095915547"><ele>846.75</ele><time>2026-05-02T12:08:01.493Z</time></trkpt><trkpt lat="46.26475693926961" lon="11.417831507530803"><ele>847.5</ele><time>2026-05-02T12:08:02.493Z</time></trkpt><trkpt lat="46.26466779892733" lon="11.41796763495037"><ele>848.25</ele><time>2026-05-02T12:08:03.493Z</time></trkpt><trkpt lat="46.26458419711139" lon="11.418068643181181"><ele>849.0</ele><time>2026-05-02T12:08:04.493Z</time></trkpt><trkpt lat="46.26448728892126" lon="11.418168467113652"><ele>856.5</ele><time>2026-05-02T12:08:05.493Z</time></trkpt><trkpt lat="46.26438155712325" lon="11.418301159209596"><ele>864.0</ele><time>2026-05-02T12:08:06.493Z</time></trkpt><trkpt lat="46.26430113016006" lon="11.418459339911823"><ele>871.5</ele><time>2026-05-02T12:08:07.493Z</time></trkpt><trkpt lat="46.26424404990683" lon="11.418681539769523"><ele>879.0</ele><time>2026-05-02T12:08:08.493Z</time></trkpt><trkpt lat="46.26417595038757" lon="11.41887847257532"><ele>884.25</ele><time>2026-05-02T12:08:09.493Z</time></trkpt><trkpt lat="46.26407886916842" lon="11.419015124760907"><ele>889.5</ele><time>2026-05-02T12:08:10.493Z</time></trkpt><trkpt lat="46.26398156505653" lon="11.419107141871859"><ele>894.75</ele><time>2026-05-02T12:08:11.493Z</time></trkpt><trkpt lat="46.26387016535516" lon="11.419144502117012"><ele>900.0</ele><time>2026-05-02T12:08:12.493Z</time></trkpt><trkpt lat="46.263677893372325" lon="11.419177594625745"><ele>900.0</ele><time>2026-05-02T12:08:13.493Z</time></trkpt><trkpt lat="46.263484580092374" lon="11.419190102123801"><ele>900.0</ele><time>2026-05-02T12:08:14.493Z</time></trkpt><trkpt lat="46.263296915354076" lon="11.419202258519354"><ele>900.0</ele><time>2026-05-02T12:08:15.493Z</time></trkpt><trkpt lat="46.263133054542735" lon="11.41921257057069"><ele>905.5</ele><time>2026-05-02T12:08:16.493Z</time></trkpt><trkpt lat="46.26299396235523" lon="11.419217979867154"><ele>911.0</ele><time>2026-05-02T12:08:17.493Z</time></trkpt><trkpt lat="46.26286917913508" lon="11.419209872520032"><ele>916.5</ele><time>2026-05-02T12:08:18.493Z</time></trkpt><trkpt lat="46.262759804659744" lon="11.419160050159912"><ele>922.0</ele><time>2026-05-02T12:08:19.493Z</time></trkpt><trkpt lat="46.262666845334586" lon="11.419081543201695"><ele>922.0</ele><time>2026-05-02T12:08:20.493Z</time></trkpt><trkpt lat="46.262628891913806" lon="11.418935376385521"><ele>922.0</ele><time>2026-05-02T12:08:21.493Z</time></trkpt><trkpt lat="46.26265402633725" lon="11.418816901849958"><ele>922.0</ele><time>2026-05-02T12:08:22.493Z</time></trkpt><trkpt lat="46.26256133564307" lon="11.418462477930335"><ele>915.5</ele><time>2026-05-02T12:08:23.493Z</time></trkpt><trkpt lat="46.26246854165494" lon="11.418328104369536"><ele>909.0</ele><time>2026-05-02T12:08:24.493Z</time></trkpt><trkpt lat="46.26239797696893" lon="11.418236639039277"><ele>902.5</ele><time>2026-05-02T12:08:25.493Z</time></trkpt><trkpt lat="46.2622918714796" lon="11.418096893853221"><ele>896.0</ele><time>2026-05-02T12:08:26.493Z</time></trkpt><trkpt lat="46.262178452768886" lon="11.417975137930487"><ele>897.25</ele><time>2026-05-02T12:08:27.493Z</time></trkpt><trkpt lat="46.26208137413778" lon="11.417870315230264"><ele>898.5</ele><time>2026-05-02T12:08:28.493Z</time></trkpt><trkpt lat="46.261977549020315" lon="11.417845072185107"><ele>899.75</ele><time>2026-05-02T12:08:29.493Z</time></trkpt><trkpt lat="46.26183154357493" lon="11.417945036656532"><ele>901.0</ele><time>2026-05-02T12:08:30.493Z</time></trkpt><trkpt lat="46.26179822431648" lon="11.418042431889242"><ele>901.0</ele><time>2026-05-02T12:08:31.493Z</time></trkpt><trkpt lat="46.26179960878799" lon="11.41828671694119"><ele>901.0</ele><time>2026-05-02T12:08:32.493Z</time></trkpt><trkpt lat="46.2617093269636" lon="11.41846799425428"><ele>901.0</ele><time>2026-05-02T12:08:33.493Z</time></trkpt><trkpt lat="46.26160359506873" lon="11.418686606494735"><ele>903.5</ele><time>2026-05-02T12:08:34.493Z</time></trkpt><trkpt lat="46.26148896667408" lon="11.418844774814549"><ele>906.0</ele><time>2026-05-02T12:08:35.493Z</time></trkpt><trkpt lat="46.261380876702596" lon="11.418949492660591"><ele>908.5</ele><time>2026-05-02T12:08:36.493Z</time></trkpt><trkpt lat="46.26127964455424" lon="11.41902337641091"><ele>911.0</ele><time>2026-05-02T12:08:37.493Z</time></trkpt><trkpt lat="46.261149486865115" lon="11.419076762354534"><ele>911.0</ele><time>2026-05-02T12:08:38.493Z</time></trkpt><trkpt lat="46.26100968295354" lon="11.419115172411342"><ele>911.0</ele><time>2026-05-02T12:08:39.493Z</time></trkpt><trkpt lat="46.260856456456565" lon="11.419139481010605"><ele>911.0</ele><time>2026-05-02T12:08:40.493Z</time></trkpt><trkpt lat="46.260747693953924" lon="11.41912130573447"><ele>911.0</ele><time>2026-05-02T12:08:41.493Z</time></trkpt><trkpt lat="46.260629686227894" lon="11.419083106906823"><ele>909.75</ele><time>2026-05-02T12:08:42.493Z</time></trkpt><trkpt lat="46.2605160818654" lon="11.419093983604117"><ele>908.5</ele><time>2026-05-02T12:08:43.493Z</time></trkpt><trkpt lat="46.26040819177305" lon="11.419152169980947"><ele>907.25</ele><time>2026-05-02T12:08:44.493Z</time></trkpt><trkpt lat="46.26027836067989" lon="11.419322709717253"><ele>906.0</ele><time>2026-05-02T12:08:45.493Z</time></trkpt><trkpt lat="46.26020467929062" lon="11.419348692546363"><ele>906.0</ele><time>2026-05-02T12:08:46.493Z</time></trkpt><trkpt lat="46.26012245109077" lon="11.419353978252627"><ele>906.0</ele><time>2026-05-02T12:08:47.493Z</time></trkpt><trkpt lat="46.260002396658315" lon="11.419239786602652"><ele>906.0</ele><time>2026-05-02T12:08:49.493Z</time></trkpt><trkpt lat="46.259817851632874" lon="11.419178710587806"><ele>906.0</ele><time>2026-05-02T12:08:50.493Z</time></trkpt><trkpt lat="46.25964400912251" lon="11.41919345452794"><ele>904.5</ele><time>2026-05-02T12:08:51.493Z</time></trkpt><trkpt lat="46.25949899290272" lon="11.419244650656072"><ele>903.0</ele><time>2026-05-02T12:08:52.493Z</time></trkpt><trkpt lat="46.259382988116926" lon="11.419345132368479"><ele>901.5</ele><time>2026-05-02T12:08:53.493Z</time></trkpt><trkpt lat="46.259289925008154" lon="11.419494604647044"><ele>900.0</ele><time>2026-05-02T12:08:54.493Z</time></trkpt><trkpt lat="46.259190827160445" lon="11.419627472051584"><ele>908.25</ele><time>2026-05-02T12:08:55.493Z</time></trkpt><trkpt lat="46.25908908158746" lon="11.419706448331468"><ele>916.5</ele><time>2026-05-02T12:08:56.493Z</time></trkpt><trkpt lat="46.25898141976398" lon="11.419733224305062"><ele>924.75</ele><time>2026-05-02T12:08:57.493Z</time></trkpt><trkpt lat="46.25876434436615" lon="11.419788077816454"><ele>933.0</ele><time>2026-05-02T12:08:58.493Z</time></trkpt><trkpt lat="46.25859006431336" lon="11.419823827382865"><ele>933.0</ele><time>2026-05-02T12:08:59.493Z</time></trkpt><trkpt lat="46.25842879859975" lon="11.419856580124168"><ele>933.0</ele><time>2026-05-02T12:09:00.493Z</time></trkpt><trkpt lat="46.25828285601136" lon="11.419875739604707"><ele>933.0</ele><time>2026-05-02T12:09:01.493Z</time></trkpt><trkpt lat="46.25813784710063" lon="11.41988380910529"><ele>934.0</ele><time>2026-05-02T12:09:02.493Z</time></trkpt><trkpt lat="46.257962512583056" lon="11.419880859028375"><ele>935.0</ele><time>2026-05-02T12:09:03.493Z</time></trkpt><trkpt lat="46.25780000917223" lon="11.419850123045162"><ele>936.0</ele><time>2026-05-02T12:09:04.493Z</time></trkpt><trkpt lat="46.257623404338226" lon="11.41979428085572"><ele>936.0</ele><time>2026-05-02T12:09:05.493Z</time></trkpt><trkpt lat="46.25747199868649" lon="11.4197647057151"><ele>936.0</ele><time>2026-05-02T12:09:06.493Z</time></trkpt><trkpt lat="46.25732843511935" lon="11.419746306973401"><ele>936.0</ele><time>2026-05-02T12:09:07.493Z</time></trkpt><trkpt lat="46.25720511352426" lon="11.419725485355514"><ele>936.0</ele><time>2026-05-02T12:09:08.493Z</time></trkpt><trkpt lat="46.25708105135359" lon="11.419714809101785"><ele>935.5999999999999</ele><time>2026-05-02T12:09:09.493Z</time></trkpt><trkpt lat="46.256951127756906" lon="11.419736750000625"><ele>935.1999999999999</ele><time>2026-05-02T12:09:10.493Z</time></trkpt><trkpt lat="46.256835322666056" lon="11.419823227563905"><ele>934.8000000000001</ele><time>2026-05-02T12:09:11.493Z</time></trkpt><trkpt lat="46.25676181715399" lon="11.419890496466275"><ele>934.4000000000001</ele><time>2026-05-02T12:09:12.493Z</time></trkpt><trkpt lat="46.256691176704386" lon="11.41994479129688"><ele>934.0</ele><time>2026-05-02T12:09:13.493Z</time></trkpt><trkpt lat="46.25662175959399" lon="11.419825795736966"><ele>934.0</ele><time>2026-05-02T12:09:14.493Z</time></trkpt><trkpt lat="46.25653861241081" lon="11.419683837078205"><ele>934.0</ele><time>2026-05-02T12:09:15.493Z</time></trkpt><trkpt lat="46.256434438269906" lon="11.41952545658927"><ele>934.0</ele><time>2026-05-02T12:09:16.493Z</time></trkpt><trkpt lat="46.25632422707042" lon="11.419427178643087"><ele>934.0</ele><time>2026-05-02T12:09:17.493Z</time></trkpt><trkpt lat="46.25619902832215" lon="11.419366599325972"><ele>930.25</ele><time>2026-05-02T12:09:18.493Z</time></trkpt><trkpt lat="46.25608244487339" lon="11.419335340885644"><ele>926.5</ele><time>2026-05-02T12:09:19.493Z</time></trkpt><trkpt lat="46.25592024029316" lon="11.419261155823081"><ele>922.75</ele><time>2026-05-02T12:09:20.493Z</time></trkpt><trkpt lat="46.25578393073888" lon="11.41924395262729"><ele>919.0</ele><time>2026-05-02T12:09:21.493Z</time></trkpt><trkpt lat="46.25564759166223" lon="11.41922333999818"><ele>926.3333333333333</ele><time>2026-05-02T12:09:22.493Z</time></trkpt><trkpt lat="46.255447351902944" lon="11.41918900299918"><ele>933.6666666666667</ele><time>2026-05-02T12:09:23.494Z</time></trkpt><trkpt lat="46.25527441315368" lon="11.419143154068305"><ele>941.0</ele><time>2026-05-02T12:09:24.494Z</time></trkpt><trkpt lat="46.25515343938635" lon="11.419119115514233"><ele>941.0</ele><time>2026-05-02T12:09:25.494Z</time></trkpt><trkpt lat="46.25505600829625" lon="11.419070232748773"><ele>941.0</ele><time>2026-05-02T12:09:26.494Z</time></trkpt><trkpt lat="46.25489509157121" lon="11.418936797685664"><ele>941.0</ele><time>2026-05-02T12:09:27.494Z</time></trkpt><trkpt lat="46.2548008744559" lon="11.418781694357598"><ele>941.0</ele><time>2026-05-02T12:09:28.494Z</time></trkpt><trkpt lat="46.25473261379456" lon="11.418766460653377"><ele>938.75</ele><time>2026-05-02T12:09:29.494Z</time></trkpt><trkpt lat="46.25462650771066" lon="11.418687361798764"><ele>936.5</ele><time>2026-05-02T12:09:30.494Z</time></trkpt><trkpt lat="46.254515173662966" lon="11.418618986643136"><ele>934.25</ele><time>2026-05-02T12:09:31.494Z</time></trkpt><trkpt lat="46.25437909678679" lon="11.418560987033057"><ele>932.0</ele><time>2026-05-02T12:09:32.494Z</time></trkpt><trkpt lat="46.254212823653255" lon="11.418472788426953"><ele>932.0</ele><time>2026-05-02T12:09:33.494Z</time></trkpt><trkpt lat="46.254072749106314" lon="11.41838533881011"><ele>932.0</ele><time>2026-05-02T12:09:34.494Z</time></trkpt><trkpt lat="46.253921746814534" lon="11.418291442518365"><ele>932.0</ele><time>2026-05-02T12:09:35.494Z</time></trkpt><trkpt lat="46.253783789251145" lon="11.418208704516983"><ele>942.0</ele><time>2026-05-02T12:09:36.494Z</time></trkpt><trkpt lat="46.25363516574287" lon="11.418167855341206"><ele>952.0</ele><time>2026-05-02T12:09:37.494Z</time></trkpt><trkpt lat="46.25347369668878" lon="11.418155852450125"><ele>962.0</ele><time>2026-05-02T12:09:38.494Z</time></trkpt><trkpt lat="46.25333306937415" lon="11.418131936110774"><ele>962.0</ele><time>2026-05-02T12:09:39.494Z</time></trkpt><trkpt lat="46.25318724539958" lon="11.418063455837572"><ele>962.0</ele><time>2026-05-02T12:09:40.494Z</time></trkpt><trkpt lat="46.253058073784985" lon="11.417975055967949"><ele>962.0</ele><time>2026-05-02T12:09:41.494Z</time></trkpt><trkpt lat="46.25287407673594" lon="11.41784036130676"><ele>955.0</ele><time>2026-05-02T12:09:42.494Z</time></trkpt><trkpt lat="46.252725753505175" lon="11.417740517340793"><ele>948.0</ele><time>2026-05-02T12:09:43.494Z</time></trkpt><trkpt lat="46.252599783718686" lon="11.417628344940226"><ele>941.0</ele><time>2026-05-02T12:09:44.494Z</time></trkpt><trkpt lat="46.252456774677334" lon="11.417517218120853"><ele>941.0</ele><time>2026-05-02T12:09:45.494Z</time></trkpt><trkpt lat="46.25233174428864" lon="11.417401341820614"><ele>941.0</ele><time>2026-05-02T12:09:46.494Z</time></trkpt><trkpt lat="46.25219319715569" lon="11.417316249064667"><ele>941.0</ele><time>2026-05-02T12:09:47.494Z</time></trkpt><trkpt lat="46.25197077276593" lon="11.417292729536435"><ele>939.0</ele><time>2026-05-02T12:09:48.494Z</time></trkpt><trkpt lat="46.25176807835514" lon="11.417197066203332"><ele>937.0</ele><time>2026-05-02T12:09:49.494Z</time></trkpt><trkpt lat="46.25158748100374" lon="11.4170587314566"><ele>935.0</ele><time>2026-05-02T12:09:50.494Z</time></trkpt><trkpt lat="46.25142087938558" lon="11.416961539475889"><ele>942.0</ele><time>2026-05-02T12:09:51.494Z</time></trkpt><trkpt lat="46.2512584709554" lon="11.416896006269573"><ele>949.0</ele><time>2026-05-02T12:09:52.494Z</time></trkpt><trkpt lat="46.25109859851324" lon="11.4168472344363"><ele>956.0</ele><time>2026-05-02T12:09:53.494Z</time></trkpt><trkpt lat="46.250938376991165" lon="11.416780579811029"><ele>956.0</ele><time>2026-05-02T12:09:54.494Z</time></trkpt><trkpt lat="46.25078149292255" lon="11.416726134205431"><ele>956.0</ele><time>2026-05-02T12:09:55.494Z</time></trkpt><trkpt lat="46.250599809161905" lon="11.416689144673505"><ele>956.0</ele><time>2026-05-02T12:09:56.494Z</time></trkpt><trkpt lat="46.25044852416593" lon="11.416530491460525"><ele>952.3333333333334</ele><time>2026-05-02T12:09:57.494Z</time></trkpt><trkpt lat="46.2502879518438" lon="11.416414866419316"><ele>948.6666666666667</ele><time>2026-05-02T12:09:58.494Z</time></trkpt><trkpt lat="46.25009727698833" lon="11.416291904428837"><ele>945.0</ele><time>2026-05-02T12:09:59.494Z</time></trkpt><trkpt lat="46.24989137642995" lon="11.416135774041472"><ele>955.3333333333333</ele><time>2026-05-02T12:10:00.494Z</time></trkpt><trkpt lat="46.24969751555633" lon="11.416025039714304"><ele>965.6666666666666</ele><time>2026-05-02T12:10:01.494Z</time></trkpt><trkpt lat="46.24955792501742" lon="11.415887306644565"><ele>976.0</ele><time>2026-05-02T12:10:02.494Z</time></trkpt><trkpt lat="46.24937478788759" lon="11.415798277022"><ele>976.0</ele><time>2026-05-02T12:10:03.494Z</time></trkpt><trkpt lat="46.24921516939641" lon="11.415703762281264"><ele>976.0</ele><time>2026-05-02T12:10:04.494Z</time></trkpt><trkpt lat="46.24904208320878" lon="11.415607046894019"><ele>976.0</ele><time>2026-05-02T12:10:05.494Z</time></trkpt><trkpt lat="46.24888773409494" lon="11.41550077438751"><ele>969.75</ele><time>2026-05-02T12:10:06.494Z</time></trkpt><trkpt lat="46.24872406952064" lon="11.415379648584725"><ele>963.5</ele><time>2026-05-02T12:10:07.494Z</time></trkpt><trkpt lat="46.248609220551764" lon="11.415329927431685"><ele>957.25</ele><time>2026-05-02T12:10:08.494Z</time></trkpt><trkpt lat="46.24848441783613" lon="11.415276507561206"><ele>951.0</ele><time>2026-05-02T12:10:09.494Z</time></trkpt><trkpt lat="46.24836616629194" lon="11.415315380842"><ele>951.0</ele><time>2026-05-02T12:10:10.494Z</time></trkpt><trkpt lat="46.248217177812144" lon="11.415404621547141"><ele>951.0</ele><time>2026-05-02T12:10:11.494Z</time></trkpt><trkpt lat="46.248065176168424" lon="11.415526591029737"><ele>951.0</ele><time>2026-05-02T12:10:12.494Z</time></trkpt><trkpt lat="46.24791241815154" lon="11.415638305777097"><ele>956.6666666666667</ele><time>2026-05-02T12:10:13.494Z</time></trkpt><trkpt lat="46.24770313825483" lon="11.415740953814494"><ele>962.3333333333334</ele><time>2026-05-02T12:10:14.494Z</time></trkpt><trkpt lat="46.24750401731419" lon="11.415849434697678"><ele>968.0</ele><time>2026-05-02T12:10:15.494Z</time></trkpt><trkpt lat="46.247295685577846" lon="11.415955772427688"><ele>967.6666666666667</ele><time>2026-05-02T12:10:16.494Z</time></trkpt><trkpt lat="46.24711860842884" lon="11.416054643499619"><ele>967.3333333333333</ele><time>2026-05-02T12:10:17.494Z</time></trkpt><trkpt lat="46.24693814985134" lon="11.416174395905806"><ele>967.0</ele><time>2026-05-02T12:10:18.494Z</time></trkpt><trkpt lat="46.24679212701059" lon="11.416234773516774"><ele>967.0</ele><time>2026-05-02T12:10:19.494Z</time></trkpt><trkpt lat="46.246645693718015" lon="11.416316286903982"><ele>967.0</ele><time>2026-05-02T12:10:20.494Z</time></trkpt><trkpt lat="46.24649699785532" lon="11.416399059425068"><ele>967.0</ele><time>2026-05-02T12:10:21.494Z</time></trkpt><trkpt lat="46.24638701941421" lon="11.416449691529845"><ele>967.0</ele><time>2026-05-02T12:10:22.494Z</time></trkpt><trkpt lat="46.24626671989998" lon="11.416478813599849"><ele>966.5</ele><time>2026-05-02T12:10:23.494Z</time></trkpt><trkpt lat="46.24612000996676" lon="11.416513064473902"><ele>966.0</ele><time>2026-05-02T12:10:24.494Z</time></trkpt><trkpt lat="46.24607115036069" lon="11.41639794448684"><ele>965.5</ele><time>2026-05-02T12:10:25.494Z</time></trkpt><trkpt lat="46.24593767051809" lon="11.416335682177106"><ele>965.0</ele><time>2026-05-02T12:10:26.494Z</time></trkpt><trkpt lat="46.2458036155155" lon="11.41627126044349"><ele>965.0</ele><time>2026-05-02T12:10:27.494Z</time></trkpt><trkpt lat="46.245644166950754" lon="11.416196727981921"><ele>965.0</ele><time>2026-05-02T12:10:28.494Z</time></trkpt><trkpt lat="46.24545328959908" lon="11.41614971353152"><ele>965.0</ele><time>2026-05-02T12:10:29.494Z</time></trkpt><trkpt lat="46.245289435556735" lon="11.416166594000442"><ele>965.6666666666667</ele><time>2026-05-02T12:10:30.494Z</time></trkpt><trkpt lat="46.24514368711308" lon="11.416240551783908"><ele>966.3333333333333</ele><time>2026-05-02T12:10:31.494Z</time></trkpt><trkpt lat="46.245015513389546" lon="11.416397030828843"><ele>967.0</ele><time>2026-05-02T12:10:32.494Z</time></trkpt><trkpt lat="46.24492123623654" lon="11.416521033082208"><ele>971.3333333333333</ele><time>2026-05-02T12:10:33.494Z</time></trkpt><trkpt lat="46.24481933801775" lon="11.41665668604059"><ele>975.6666666666667</ele><time>2026-05-02T12:10:34.494Z</time></trkpt><trkpt lat="46.24470676777737" lon="11.416807041717954"><ele>980.0</ele><time>2026-05-02T12:10:35.494Z</time></trkpt><trkpt lat="46.24457960928481" lon="11.416978057240884"><ele>980.0</ele><time>2026-05-02T12:10:36.494Z</time></trkpt><trkpt lat="46.24446575322844" lon="11.417131290051024"><ele>980.0</ele><time>2026-05-02T12:10:37.494Z</time></trkpt><trkpt lat="46.24435262535084" lon="11.417246667867765"><ele>980.0</ele><time>2026-05-02T12:10:38.494Z</time></trkpt><trkpt lat="46.24422721797333" lon="11.417301936898276"><ele>980.0</ele><time>2026-05-02T12:10:39.494Z</time></trkpt><trkpt lat="46.24411924035371" lon="11.417315827961312"><ele>984.3333333333334</ele><time>2026-05-02T12:10:40.494Z</time></trkpt><trkpt lat="46.24400728934948" lon="11.417324783340966"><ele>988.6666666666667</ele><time>2026-05-02T12:10:41.494Z</time></trkpt><trkpt lat="46.24385508426955" lon="11.417328981783402"><ele>993.0</ele><time>2026-05-02T12:10:42.494Z</time></trkpt><trkpt lat="46.24362629101931" lon="11.417421972513079"><ele>993.0</ele><time>2026-05-02T12:10:43.494Z</time></trkpt><trkpt lat="46.243515968845465" lon="11.417527456624379"><ele>993.0</ele><time>2026-05-02T12:10:44.494Z</time></trkpt><trkpt lat="46.24339362171902" lon="11.417648408395298"><ele>993.0</ele><time>2026-05-02T12:10:45.494Z</time></trkpt><trkpt lat="46.2432859371856" lon="11.417737224835616"><ele>993.0</ele><time>2026-05-02T12:10:46.494Z</time></trkpt><trkpt lat="46.24317207688623" lon="11.417790109408926"><ele>993.5</ele><time>2026-05-02T12:10:47.494Z</time></trkpt><trkpt lat="46.24303718798964" lon="11.417818051782614"><ele>994.0</ele><time>2026-05-02T12:10:48.494Z</time></trkpt><trkpt lat="46.242914177067455" lon="11.417836979141047"><ele>994.5</ele><time>2026-05-02T12:10:49.494Z</time></trkpt><trkpt lat="46.24275251930001" lon="11.41786738345477"><ele>995.0</ele><time>2026-05-02T12:10:50.494Z</time></trkpt><trkpt lat="46.242592289444914" lon="11.417926262257586"><ele>1005.6666666666667</ele><time>2026-05-02T12:10:51.494Z</time></trkpt><trkpt lat="46.24243796939148" lon="11.418025288800944"><ele>1016.3333333333333</ele><time>2026-05-02T12:10:52.494Z</time></trkpt><trkpt lat="46.24225900476123" lon="11.41813071382754"><ele>1027.0</ele><time>2026-05-02T12:10:53.494Z</time></trkpt><trkpt lat="46.24211186514727" lon="11.418189515768084"><ele>1027.0</ele><time>2026-05-02T12:10:54.494Z</time></trkpt><trkpt lat="46.24196414136696" lon="11.418223347612392"><ele>1027.0</ele><time>2026-05-02T12:10:55.494Z</time></trkpt><trkpt lat="46.24180992200318" lon="11.41824848101498"><ele>1027.0</ele><time>2026-05-02T12:10:56.494Z</time></trkpt><trkpt lat="46.24167402917203" lon="11.418258906673834"><ele>1027.0</ele><time>2026-05-02T12:10:57.494Z</time></trkpt><trkpt lat="46.24156710453065" lon="11.418256687536626"><ele>1027.0</ele><time>2026-05-02T12:10:58.494Z</time></trkpt><trkpt lat="46.24148368795767" lon="11.418248713729366"><ele>1027.0</ele><time>2026-05-02T12:10:59.494Z</time></trkpt><trkpt lat="46.24138748748785" lon="11.418235474788409"><ele>1027.0</ele><time>2026-05-02T12:11:00.494Z</time></trkpt><trkpt lat="46.24118024939953" lon="11.418201416659016"><ele>1027.0</ele><time>2026-05-02T12:11:01.494Z</time></trkpt><trkpt lat="46.24101683054433" lon="11.418128699221516"><ele>1028.5</ele><time>2026-05-02T12:11:02.494Z</time></trkpt><trkpt lat="46.240923432787845" lon="11.418095729369831"><ele>1030.0</ele><time>2026-05-02T12:11:03.494Z</time></trkpt><trkpt lat="46.240776963880315" lon="11.418073907547363"><ele>1031.5</ele><time>2026-05-02T12:11:04.494Z</time></trkpt><trkpt lat="46.240653553987165" lon="11.418099132939805"><ele>1033.0</ele><time>2026-05-02T12:11:05.494Z</time></trkpt><trkpt lat="46.240521013272804" lon="11.418076124546303"><ele>1037.0</ele><time>2026-05-02T12:11:06.494Z</time></trkpt><trkpt lat="46.24038107840345" lon="11.418193790599151"><ele>1041.0</ele><time>2026-05-02T12:11:07.494Z</time></trkpt><trkpt lat="46.240267797881145" lon="11.418360243002422"><ele>1045.0</ele><time>2026-05-02T12:11:08.494Z</time></trkpt><trkpt lat="46.240182495744065" lon="11.418547998987378"><ele>1045.0</ele><time>2026-05-02T12:11:09.494Z</time></trkpt><trkpt lat="46.24005555084455" lon="11.41870935829954"><ele>1045.0</ele><time>2026-05-02T12:11:10.494Z</time></trkpt><trkpt lat="46.23990692670876" lon="11.418828908645587"><ele>1045.0</ele><time>2026-05-02T12:11:11.494Z</time></trkpt><trkpt lat="46.23973352831483" lon="11.418936134325484"><ele>1045.6666666666665</ele><time>2026-05-02T12:11:12.494Z</time></trkpt><trkpt lat="46.23955438539115" lon="11.419027269012469"><ele>1046.3333333333333</ele><time>2026-05-02T12:11:13.494Z</time></trkpt><trkpt lat="46.23941890161032" lon="11.419099827996515"><ele>1047.0</ele><time>2026-05-02T12:11:14.494Z</time></trkpt><trkpt lat="46.23928312604536" lon="11.4191727237456"><ele>1047.0</ele><time>2026-05-02T12:11:15.494Z</time></trkpt><trkpt lat="46.2391530948213" lon="11.419243152597462"><ele>1047.0</ele><time>2026-05-02T12:11:16.494Z</time></trkpt><trkpt lat="46.23900466319819" lon="11.419312174845249"><ele>1047.0</ele><time>2026-05-02T12:11:17.494Z</time></trkpt><trkpt lat="46.23886916299041" lon="11.419340193996884"><ele>1047.0</ele><time>2026-05-02T12:11:18.494Z</time></trkpt><trkpt lat="46.23875120157374" lon="11.419331193497264"><ele>1049.0</ele><time>2026-05-02T12:11:19.494Z</time></trkpt><trkpt lat="46.23864523569915" lon="11.419310081282836"><ele>1051.0</ele><time>2026-05-02T12:11:20.494Z</time></trkpt><trkpt lat="46.23848190276554" lon="11.419272347773893"><ele>1053.0</ele><time>2026-05-02T12:11:21.494Z</time></trkpt><trkpt lat="46.2382317384212" lon="11.419217427502858"><ele>1058.0</ele><time>2026-05-02T12:11:22.494Z</time></trkpt><trkpt lat="46.23787982506119" lon="11.419152254354197"><ele>1063.0</ele><time>2026-05-02T12:11:23.494Z</time></trkpt><trkpt lat="46.237644626801725" lon="11.419140817219601"><ele>1063.0</ele><time>2026-05-02T12:11:24.494Z</time></trkpt><trkpt lat="46.23739672347334" lon="11.419142846954779"><ele>1063.0</ele><time>2026-05-02T12:11:25.494Z</time></trkpt><trkpt lat="46.23716129561812" lon="11.419169151857766"><ele>1064.6666666666665</ele><time>2026-05-02T12:11:26.494Z</time></trkpt><trkpt lat="46.23693926285027" lon="11.419170775371617"><ele>1066.3333333333333</ele><time>2026-05-02T12:11:27.494Z</time></trkpt><trkpt lat="46.236732624542654" lon="11.419195214603612"><ele>1068.0</ele><time>2026-05-02T12:11:28.494Z</time></trkpt><trkpt lat="46.23653573501181" lon="11.419201256909588"><ele>1065.3333333333333</ele><time>2026-05-02T12:11:29.494Z</time></trkpt><trkpt lat="46.23633422424861" lon="11.419282158493628"><ele>1062.6666666666665</ele><time>2026-05-02T12:11:30.494Z</time></trkpt><trkpt lat="46.236109075853406" lon="11.419324707566153"><ele>1060.0</ele><time>2026-05-02T12:11:31.494Z</time></trkpt><trkpt lat="46.235882283692156" lon="11.419391719840641"><ele>1060.0</ele><time>2026-05-02T12:11:32.494Z</time></trkpt><trkpt lat="46.23566048664215" lon="11.419429729705493"><ele>1060.0</ele><time>2026-05-02T12:11:33.494Z</time></trkpt><trkpt lat="46.23545247487237" lon="11.41938876137747"><ele>1060.0</ele><time>2026-05-02T12:11:34.494Z</time></trkpt><trkpt lat="46.23524612434717" lon="11.4194225561894"><ele>1060.6666666666665</ele><time>2026-05-02T12:11:35.494Z</time></trkpt><trkpt lat="46.23503654024343" lon="11.419447625063453"><ele>1061.3333333333333</ele><time>2026-05-02T12:11:36.494Z</time></trkpt><trkpt lat="46.234822951474655" lon="11.419444504126009"><ele>1062.0</ele><time>2026-05-02T12:11:37.494Z</time></trkpt><trkpt lat="46.23459470729561" lon="11.419432361152344"><ele>1064.0</ele><time>2026-05-02T12:11:38.494Z</time></trkpt><trkpt lat="46.23436783412297" lon="11.419420241778122"><ele>1066.0</ele><time>2026-05-02T12:11:39.494Z</time></trkpt><trkpt lat="46.23416539214974" lon="11.41940942748216"><ele>1068.0</ele><time>2026-05-02T12:11:40.494Z</time></trkpt><trkpt lat="46.233981786027165" lon="11.419393118040519"><ele>1072.6666666666667</ele><time>2026-05-02T12:11:41.494Z</time></trkpt><trkpt lat="46.23380481565685" lon="11.419362273776727"><ele>1077.3333333333335</ele><time>2026-05-02T12:11:42.494Z</time></trkpt><trkpt lat="46.233635101515695" lon="11.41932102623031"><ele>1082.0</ele><time>2026-05-02T12:11:43.494Z</time></trkpt><trkpt lat="46.23348449728644" lon="11.419266708460528"><ele>1082.0</ele><time>2026-05-02T12:11:44.494Z</time></trkpt><trkpt lat="46.23335103822186" lon="11.419211370563552"><ele>1082.0</ele><time>2026-05-02T12:11:45.494Z</time></trkpt><trkpt lat="46.23321463823755" lon="11.419154601406563"><ele>1082.0</ele><time>2026-05-02T12:11:46.494Z</time></trkpt><trkpt lat="46.23307233330465" lon="11.419098102096047"><ele>1082.0</ele><time>2026-05-02T12:11:47.494Z</time></trkpt><trkpt lat="46.23292582559466" lon="11.419052878608108"><ele>1086.3333333333335</ele><time>2026-05-02T12:11:48.494Z</time></trkpt><trkpt lat="46.232763075270114" lon="11.41900280106808"><ele>1090.6666666666667</ele><time>2026-05-02T12:11:49.494Z</time></trkpt><trkpt lat="46.232605527149616" lon="11.418954324217289"><ele>1095.0</ele><time>2026-05-02T12:11:50.494Z</time></trkpt><trkpt lat="46.232428662316615" lon="11.419053671099064"><ele>1097.6666666666667</ele><time>2026-05-02T12:11:51.494Z</time></trkpt><trkpt lat="46.23225274306139" lon="11.419029644589893"><ele>1100.3333333333335</ele><time>2026-05-02T12:11:52.494Z</time></trkpt><trkpt lat="46.23206476174487" lon="11.419074179792199"><ele>1103.0</ele><time>2026-05-02T12:11:53.494Z</time></trkpt><trkpt lat="46.231847184596724" lon="11.41908932155576"><ele>1103.0</ele><time>2026-05-02T12:11:54.494Z</time></trkpt><trkpt lat="46.2316458486221" lon="11.419091115087515"><ele>1103.0</ele><time>2026-05-02T12:11:55.494Z</time></trkpt><trkpt lat="46.231452445380036" lon="11.419070856437742"><ele>1103.0</ele><time>2026-05-02T12:11:56.494Z</time></trkpt><trkpt lat="46.23124544309722" lon="11.419101008201823"><ele>1101.5</ele><time>2026-05-02T12:11:57.494Z</time></trkpt><trkpt lat="46.231008602552535" lon="11.419138740308457"><ele>1100.0</ele><time>2026-05-02T12:11:58.494Z</time></trkpt><trkpt lat="46.230768752322604" lon="11.419224969286836"><ele>1099.6666666666667</ele><time>2026-05-02T12:11:59.494Z</time></trkpt><trkpt lat="46.23055802961722" lon="11.419271567061807"><ele>1099.3333333333333</ele><time>2026-05-02T12:12:00.494Z</time></trkpt><trkpt lat="46.230349604407785" lon="11.419310326645604"><ele>1099.0</ele><time>2026-05-02T12:12:01.494Z</time></trkpt><trkpt lat="46.23013334565633" lon="11.419330222424415"><ele>1099.0</ele><time>2026-05-02T12:12:02.494Z</time></trkpt><trkpt lat="46.22991815131573" lon="11.41932461804937"><ele>1099.0</ele><time>2026-05-02T12:12:03.494Z</time></trkpt><trkpt lat="46.229705122898274" lon="11.419341710235473"><ele>1099.0</ele><time>2026-05-02T12:12:04.494Z</time></trkpt><trkpt lat="46.229491817198905" lon="11.41936118325259"><ele>1100.6666666666665</ele><time>2026-05-02T12:12:05.494Z</time></trkpt><trkpt lat="46.229287800024466" lon="11.419381454604205"><ele>1102.3333333333333</ele><time>2026-05-02T12:12:06.494Z</time></trkpt><trkpt lat="46.22908091007336" lon="11.419383484159939"><ele>1104.0</ele><time>2026-05-02T12:12:07.494Z</time></trkpt><trkpt lat="46.228890790197994" lon="11.419394253470307"><ele>1106.6666666666667</ele><time>2026-05-02T12:12:08.494Z</time></trkpt><trkpt lat="46.228696956640306" lon="11.419414515950175"><ele>1109.3333333333335</ele><time>2026-05-02T12:12:09.494Z</time></trkpt><trkpt lat="46.22850174843094" lon="11.419425304492046"><ele>1112.0</ele><time>2026-05-02T12:12:10.494Z</time></trkpt><trkpt lat="46.22830730550956" lon="11.419439802739495"><ele>1112.3333333333335</ele><time>2026-05-02T12:12:11.494Z</time></trkpt><trkpt lat="46.2281363661356" lon="11.419450769505808"><ele>1112.6666666666667</ele><time>2026-05-02T12:12:12.494Z</time></trkpt><trkpt lat="46.22796886690356" lon="11.419470473069023"><ele>1113.0</ele><time>2026-05-02T12:12:13.494Z</time></trkpt><trkpt lat="46.227775899671066" lon="11.41936034822902"><ele>1113.0</ele><time>2026-05-02T12:12:14.494Z</time></trkpt><trkpt lat="46.22763963306213" lon="11.419210788914876"><ele>1113.0</ele><time>2026-05-02T12:12:15.494Z</time></trkpt><trkpt lat="46.22750272770833" lon="11.418908878441828"><ele>1113.0</ele><time>2026-05-02T12:12:16.494Z</time></trkpt><trkpt lat="46.22736805319095" lon="11.418929595146691"><ele>1114.3333333333333</ele><time>2026-05-02T12:12:17.494Z</time></trkpt><trkpt lat="46.2272004066654" lon="11.41893670638494"><ele>1115.6666666666665</ele><time>2026-05-02T12:12:18.494Z</time></trkpt><trkpt lat="46.22698581793965" lon="11.418935236468684"><ele>1117.0</ele><time>2026-05-02T12:12:19.494Z</time></trkpt><trkpt lat="46.2267944080696" lon="11.418979731273572"><ele>1117.0</ele><time>2026-05-02T12:12:20.494Z</time></trkpt><trkpt lat="46.22659129955918" lon="11.419063090709006"><ele>1117.0</ele><time>2026-05-02T12:12:21.494Z</time></trkpt><trkpt lat="46.22637497636112" lon="11.419121852714937"><ele>1117.0</ele><time>2026-05-02T12:12:22.494Z</time></trkpt><trkpt lat="46.22615580502588" lon="11.419177100474407"><ele>1118.5</ele><time>2026-05-02T12:12:23.494Z</time></trkpt><trkpt lat="46.22592630410285" lon="11.419248236528377"><ele>1120.0</ele><time>2026-05-02T12:12:24.494Z</time></trkpt><trkpt lat="46.22567390611184" lon="11.419300705799856"><ele>1123.6666666666665</ele><time>2026-05-02T12:12:25.494Z</time></trkpt><trkpt lat="46.22546245858347" lon="11.419378919605787"><ele>1127.3333333333333</ele><time>2026-05-02T12:12:26.494Z</time></trkpt><trkpt lat="46.22523770224432" lon="11.419408835961818"><ele>1131.0</ele><time>2026-05-02T12:12:27.494Z</time></trkpt><trkpt lat="46.22504278592842" lon="11.419464568715572"><ele>1131.0</ele><time>2026-05-02T12:12:28.494Z</time></trkpt><trkpt lat="46.22488625031753" lon="11.419544431432044"><ele>1131.0</ele><time>2026-05-02T12:12:29.494Z</time></trkpt><trkpt lat="46.22471967449349" lon="11.419585213205918"><ele>1131.0</ele><time>2026-05-02T12:12:30.494Z</time></trkpt><trkpt lat="46.224555833797865" lon="11.419623887761778"><ele>1132.0</ele><time>2026-05-02T12:12:31.494Z</time></trkpt><trkpt lat="46.22438821897081" lon="11.419639707931804"><ele>1133.0</ele><time>2026-05-02T12:12:32.494Z</time></trkpt><trkpt lat="46.224217718562514" lon="11.419667584859525"><ele>1134.0</ele><time>2026-05-02T12:12:33.494Z</time></trkpt><trkpt lat="46.22404555723389" lon="11.419678508033657"><ele>1143.6666666666667</ele><time>2026-05-02T12:12:34.494Z</time></trkpt><trkpt lat="46.223885122499425" lon="11.419681107765049"><ele>1153.3333333333335</ele><time>2026-05-02T12:12:35.494Z</time></trkpt><trkpt lat="46.22371103990672" lon="11.419703568365012"><ele>1163.0</ele><time>2026-05-02T12:12:36.494Z</time></trkpt><trkpt lat="46.223531810026245" lon="11.419766727572387"><ele>1163.0</ele><time>2026-05-02T12:12:37.494Z</time></trkpt><trkpt lat="46.2233770906876" lon="11.419830698348314"><ele>1163.0</ele><time>2026-05-02T12:12:38.494Z</time></trkpt><trkpt lat="46.22321628285603" lon="11.41988613131775"><ele>1163.0</ele><time>2026-05-02T12:12:39.494Z</time></trkpt><trkpt lat="46.223047985961045" lon="11.419898775358238"><ele>1167.0</ele><time>2026-05-02T12:12:40.494Z</time></trkpt><trkpt lat="46.222867837019066" lon="11.419876247373207"><ele>1171.0</ele><time>2026-05-02T12:12:41.494Z</time></trkpt><trkpt lat="46.222697690657014" lon="11.419821079302007"><ele>1175.0</ele><time>2026-05-02T12:12:42.494Z</time></trkpt><trkpt lat="46.22254614200239" lon="11.419750842961273"><ele>1175.0</ele><time>2026-05-02T12:12:43.494Z</time></trkpt><trkpt lat="46.22238674183436" lon="11.419685254397438"><ele>1175.0</ele><time>2026-05-02T12:12:44.494Z</time></trkpt><trkpt lat="46.22226134983076" lon="11.419573904638497"><ele>1175.0</ele><time>2026-05-02T12:12:45.494Z</time></trkpt><trkpt lat="46.22211501830297" lon="11.419531184002398"><ele>1169.0</ele><time>2026-05-02T12:12:46.494Z</time></trkpt><trkpt lat="46.221957120719495" lon="11.41946660383267"><ele>1163.0</ele><time>2026-05-02T12:12:47.494Z</time></trkpt><trkpt lat="46.221807434570465" lon="11.419492325711849"><ele>1157.0</ele><time>2026-05-02T12:12:48.494Z</time></trkpt><trkpt lat="46.221626807200884" lon="11.419566336243815"><ele>1159.0</ele><time>2026-05-02T12:12:49.494Z</time></trkpt><trkpt lat="46.22144585945097" lon="11.419556631979003"><ele>1161.0</ele><time>2026-05-02T12:12:50.494Z</time></trkpt><trkpt lat="46.22124809285969" lon="11.419552675957478"><ele>1163.0</ele><time>2026-05-02T12:12:51.494Z</time></trkpt><trkpt lat="46.22104163873963" lon="11.419543840063236"><ele>1163.0</ele><time>2026-05-02T12:12:52.494Z</time></trkpt><trkpt lat="46.220829773366184" lon="11.41953826426672"><ele>1163.0</ele><time>2026-05-02T12:12:53.494Z</time></trkpt><trkpt lat="46.22059432867376" lon="11.419575752953492"><ele>1163.0</ele><time>2026-05-02T12:12:54.494Z</time></trkpt><trkpt lat="46.22036112779246" lon="11.41960775379378"><ele>1163.0</ele><time>2026-05-02T12:12:55.494Z</time></trkpt><trkpt lat="46.22014330427674" lon="11.419633355253705"><ele>1163.0</ele><time>2026-05-02T12:12:56.494Z</time></trkpt><trkpt lat="46.219929817542464" lon="11.419655305730204"><ele>1163.0</ele><time>2026-05-02T12:12:57.494Z</time></trkpt><trkpt lat="46.21972371745787" lon="11.419680766136226"><ele>1171.0</ele><time>2026-05-02T12:12:58.494Z</time></trkpt><trkpt lat="46.219526454746045" lon="11.419703740711904"><ele>1179.0</ele><time>2026-05-02T12:12:59.494Z</time></trkpt><trkpt lat="46.21933196973999" lon="11.419730929974643"><ele>1187.0</ele><time>2026-05-02T12:13:00.494Z</time></trkpt><trkpt lat="46.21915963389607" lon="11.419745047883842"><ele>1187.0</ele><time>2026-05-02T12:13:01.494Z</time></trkpt><trkpt lat="46.21899769234581" lon="11.419756969010997"><ele>1187.0</ele><time>2026-05-02T12:13:02.494Z</time></trkpt><trkpt lat="46.21884536484184" lon="11.419771390281314"><ele>1187.0</ele><time>2026-05-02T12:13:03.494Z</time></trkpt><trkpt lat="46.218708932232005" lon="11.419837709499793"><ele>1185.6666666666667</ele><time>2026-05-02T12:13:04.494Z</time></trkpt><trkpt lat="46.21858295550663" lon="11.419926915314502"><ele>1184.3333333333333</ele><time>2026-05-02T12:13:05.494Z</time></trkpt><trkpt lat="46.218453537875924" lon="11.420054166610418"><ele>1183.0</ele><time>2026-05-02T12:13:06.494Z</time></trkpt><trkpt lat="46.21833550051239" lon="11.420229671859614"><ele>1183.0</ele><time>2026-05-02T12:13:07.494Z</time></trkpt><trkpt lat="46.21820758849286" lon="11.420404931303286"><ele>1183.0</ele><time>2026-05-02T12:13:08.494Z</time></trkpt><trkpt lat="46.21806067919644" lon="11.420567022363075"><ele>1183.0</ele><time>2026-05-02T12:13:09.494Z</time></trkpt><trkpt lat="46.21788406328865" lon="11.42069858363002"><ele>1185.3333333333333</ele><time>2026-05-02T12:13:10.494Z</time></trkpt><trkpt lat="46.21769553645814" lon="11.420826453728512"><ele>1187.6666666666667</ele><time>2026-05-02T12:13:11.494Z</time></trkpt><trkpt lat="46.21749108524594" lon="11.42093336361894"><ele>1190.0</ele><time>2026-05-02T12:13:12.494Z</time></trkpt><trkpt lat="46.217315894965004" lon="11.42104884762234"><ele>1190.0</ele><time>2026-05-02T12:13:13.494Z</time></trkpt><trkpt lat="46.21715836505282" lon="11.421155519434222"><ele>1190.0</ele><time>2026-05-02T12:13:14.494Z</time></trkpt><trkpt lat="46.21700247384583" lon="11.421215338296838"><ele>1190.0</ele><time>2026-05-02T12:13:15.494Z</time></trkpt><trkpt lat="46.216845197501634" lon="11.421248541099018"><ele>1190.0</ele><time>2026-05-02T12:13:16.494Z</time></trkpt><trkpt lat="46.216669618825364" lon="11.421279310459504"><ele>1190.0</ele><time>2026-05-02T12:13:17.494Z</time></trkpt><trkpt lat="46.216504141440026" lon="11.421284157090463"><ele>1190.0</ele><time>2026-05-02T12:13:18.494Z</time></trkpt><trkpt lat="46.2163763731805" lon="11.421238976323531"><ele>1195.25</ele><time>2026-05-02T12:13:19.494Z</time></trkpt><trkpt lat="46.216238697276445" lon="11.421173208265099"><ele>1200.5</ele><time>2026-05-02T12:13:20.494Z</time></trkpt><trkpt lat="46.21614166831522" lon="11.421121250430256"><ele>1205.75</ele><time>2026-05-02T12:13:21.494Z</time></trkpt><trkpt lat="46.216028950072634" lon="11.421226669448075"><ele>1211.0</ele><time>2026-05-02T12:13:22.494Z</time></trkpt><trkpt lat="46.21589731436601" lon="11.4213516263383"><ele>1213.6666666666667</ele><time>2026-05-02T12:13:23.494Z</time></trkpt><trkpt lat="46.21574550997288" lon="11.421456927482305"><ele>1216.3333333333333</ele><time>2026-05-02T12:13:24.494Z</time></trkpt><trkpt lat="46.2156068736121" lon="11.421588437551053"><ele>1219.0</ele><time>2026-05-02T12:13:25.494Z</time></trkpt><trkpt lat="46.215451642478826" lon="11.421716458972192"><ele>1219.0</ele><time>2026-05-02T12:13:26.494Z</time></trkpt><trkpt lat="46.21527685181239" lon="11.42182295126084"><ele>1219.0</ele><time>2026-05-02T12:13:27.494Z</time></trkpt><trkpt lat="46.21508573526254" lon="11.421883398850792"><ele>1219.0</ele><time>2026-05-02T12:13:28.494Z</time></trkpt><trkpt lat="46.214885420630736" lon="11.421909890920132"><ele>1222.6666666666665</ele><time>2026-05-02T12:13:29.494Z</time></trkpt><trkpt lat="46.21470679301995" lon="11.421931315383135"><ele>1226.3333333333333</ele><time>2026-05-02T12:13:30.494Z</time></trkpt><trkpt lat="46.21455549289598" lon="11.421958752085581"><ele>1230.0</ele><time>2026-05-02T12:13:31.494Z</time></trkpt><trkpt lat="46.214414306206905" lon="11.421985769778535"><ele>1230.0</ele><time>2026-05-02T12:13:32.494Z</time></trkpt><trkpt lat="46.2142836073823" lon="11.42199246692384"><ele>1230.0</ele><time>2026-05-02T12:13:33.494Z</time></trkpt><trkpt lat="46.21416781684362" lon="11.422033849679755"><ele>1230.0</ele><time>2026-05-02T12:13:34.494Z</time></trkpt><trkpt lat="46.21405232019306" lon="11.42211215322439"><ele>1230.0</ele><time>2026-05-02T12:13:35.494Z</time></trkpt><trkpt lat="46.213943016894625" lon="11.42224782391365"><ele>1228.6666666666667</ele><time>2026-05-02T12:13:36.494Z</time></trkpt><trkpt lat="46.213842647579824" lon="11.42243683281916"><ele>1227.3333333333335</ele><time>2026-05-02T12:13:37.494Z</time></trkpt><trkpt lat="46.21372748434058" lon="11.422625194696675"><ele>1226.0</ele><time>2026-05-02T12:13:38.494Z</time></trkpt><trkpt lat="46.213589326609835" lon="11.422815197501322"><ele>1228.3333333333335</ele><time>2026-05-02T12:13:39.494Z</time></trkpt><trkpt lat="46.21343689988149" lon="11.423012486596448"><ele>1230.6666666666667</ele><time>2026-05-02T12:13:40.494Z</time></trkpt><trkpt lat="46.21330251740859" lon="11.42319460435224"><ele>1233.0</ele><time>2026-05-02T12:13:41.494Z</time></trkpt><trkpt lat="46.213182537055886" lon="11.423369617649612"><ele>1232.3333333333333</ele><time>2026-05-02T12:13:42.494Z</time></trkpt><trkpt lat="46.213062313462764" lon="11.423540088980692"><ele>1231.6666666666665</ele><time>2026-05-02T12:13:43.494Z</time></trkpt><trkpt lat="46.21296351371511" lon="11.42373979057795"><ele>1231.0</ele><time>2026-05-02T12:13:44.494Z</time></trkpt><trkpt lat="46.212872472789726" lon="11.423940654563378"><ele>1232.5</ele><time>2026-05-02T12:13:45.494Z</time></trkpt><trkpt lat="46.21279022828227" lon="11.424121177770362"><ele>1234.0</ele><time>2026-05-02T12:13:46.494Z</time></trkpt><trkpt lat="46.212710583297216" lon="11.424269739425704"><ele>1235.5</ele><time>2026-05-02T12:13:47.494Z</time></trkpt><trkpt lat="46.21259607129313" lon="11.424386188577998"><ele>1237.0</ele><time>2026-05-02T12:13:48.494Z</time></trkpt><trkpt lat="46.21247806080066" lon="11.424475564486075"><ele>1237.0</ele><time>2026-05-02T12:13:49.494Z</time></trkpt><trkpt lat="46.21236594521905" lon="11.424585296935426"><ele>1237.0</ele><time>2026-05-02T12:13:50.494Z</time></trkpt><trkpt lat="46.21224677006332" lon="11.424694299403159"><ele>1237.0</ele><time>2026-05-02T12:13:51.494Z</time></trkpt><trkpt lat="46.212100288418455" lon="11.424770947014098"><ele>1237.0</ele><time>2026-05-02T12:13:52.494Z</time></trkpt><trkpt lat="46.21193434539209" lon="11.424824009776529"><ele>1240.5</ele><time>2026-05-02T12:13:53.494Z</time></trkpt><trkpt lat="46.21169546126958" lon="11.424794798704461"><ele>1244.0</ele><time>2026-05-02T12:13:54.494Z</time></trkpt><trkpt lat="46.211484603114954" lon="11.42480683271401"><ele>1244.0</ele><time>2026-05-02T12:13:55.494Z</time></trkpt><trkpt lat="46.211243881432836" lon="11.42482250135535"><ele>1244.0</ele><time>2026-05-02T12:13:56.494Z</time></trkpt><trkpt lat="46.211016538005914" lon="11.424887554862767"><ele>1244.0</ele><time>2026-05-02T12:13:57.494Z</time></trkpt><trkpt lat="46.210816010730305" lon="11.424972033522911"><ele>1244.0</ele><time>2026-05-02T12:13:58.494Z</time></trkpt><trkpt lat="46.21063399701374" lon="11.425051514017998"><ele>1244.0</ele><time>2026-05-02T12:13:59.494Z</time></trkpt><trkpt lat="46.210472605381895" lon="11.425134811386872"><ele>1244.6666666666667</ele><time>2026-05-02T12:14:00.494Z</time></trkpt><trkpt lat="46.21031409864012" lon="11.425214776845342"><ele>1245.3333333333333</ele><time>2026-05-02T12:14:01.494Z</time></trkpt><trkpt lat="46.210159164505185" lon="11.425302871051194"><ele>1246.0</ele><time>2026-05-02T12:14:02.494Z</time></trkpt><trkpt lat="46.21001237154034" lon="11.425419232216896"><ele>1249.0</ele><time>2026-05-02T12:14:03.494Z</time></trkpt><trkpt lat="46.20987779176655" lon="11.42551372176863"><ele>1252.0</ele><time>2026-05-02T12:14:04.494Z</time></trkpt><trkpt lat="46.20975465845354" lon="11.425593713878751"><ele>1255.0</ele><time>2026-05-02T12:14:05.494Z</time></trkpt><trkpt lat="46.209637355206716" lon="11.425672820974773"><ele>1258.0</ele><time>2026-05-02T12:14:06.494Z</time></trkpt><trkpt lat="46.209517813921565" lon="11.425747642496528"><ele>1258.0</ele><time>2026-05-02T12:14:07.494Z</time></trkpt><trkpt lat="46.20939824013954" lon="11.42579936132549"><ele>1258.0</ele><time>2026-05-02T12:14:08.494Z</time></trkpt><trkpt lat="46.20930532499043" lon="11.425829440993644"><ele>1258.0</ele><time>2026-05-02T12:14:09.494Z</time></trkpt><trkpt lat="46.209206405261924" lon="11.425811796676017"><ele>1258.0</ele><time>2026-05-02T12:14:10.494Z</time></trkpt><trkpt lat="46.20913383442" lon="11.425715606891043"><ele>1258.0</ele><time>2026-05-02T12:14:11.494Z</time></trkpt><trkpt lat="46.209059804409804" lon="11.425611631649254"><ele>1257.6666666666665</ele><time>2026-05-02T12:14:12.494Z</time></trkpt><trkpt lat="46.209023622220705" lon="11.425358581810146"><ele>1257.3333333333333</ele><time>2026-05-02T12:14:13.494Z</time></trkpt><trkpt lat="46.20899633791647" lon="11.425196453574578"><ele>1257.0</ele><time>2026-05-02T12:14:14.494Z</time></trkpt><trkpt lat="46.208982214344324" lon="11.4248783288769"><ele>1257.0</ele><time>2026-05-02T12:14:15.494Z</time></trkpt><trkpt lat="46.20902538501973" lon="11.424692944503638"><ele>1257.0</ele><time>2026-05-02T12:14:16.494Z</time></trkpt><trkpt lat="46.209099313876685" lon="11.424449224989196"><ele>1257.0</ele><time>2026-05-02T12:14:17.494Z</time></trkpt><trkpt lat="46.20929232513984" lon="11.424256571261436"><ele>1262.6666666666667</ele><time>2026-05-02T12:14:18.494Z</time></trkpt><trkpt lat="46.20938347227056" lon="11.424050415740744"><ele>1268.3333333333335</ele><time>2026-05-02T12:14:19.494Z</time></trkpt><trkpt lat="46.209468928464645" lon="11.423854072256859"><ele>1274.0</ele><time>2026-05-02T12:14:20.494Z</time></trkpt><trkpt lat="46.20953520164746" lon="11.423699006429025"><ele>1274.4</ele><time>2026-05-02T12:14:21.494Z</time></trkpt><trkpt lat="46.20957477417891" lon="11.423579470071113"><ele>1274.8000000000002</ele><time>2026-05-02T12:14:22.494Z</time></trkpt><trkpt lat="46.2095671849182" lon="11.423434043739718"><ele>1275.1999999999998</ele><time>2026-05-02T12:14:23.494Z</time></trkpt><trkpt lat="46.209545999265224" lon="11.423335984267949"><ele>1275.6</ele><time>2026-05-02T12:14:24.494Z</time></trkpt><trkpt lat="46.20949552718777" lon="11.423249694180276"><ele>1276.0</ele><time>2026-05-02T12:14:25.494Z</time></trkpt><trkpt lat="46.209439723352176" lon="11.423062239077545"><ele>1275.25</ele><time>2026-05-02T12:14:27.494Z</time></trkpt><trkpt lat="46.2093701485182" lon="11.422972017462472"><ele>1274.5</ele><time>2026-05-02T12:14:28.494Z</time></trkpt><trkpt lat="46.20930007287314" lon="11.422794225162512"><ele>1273.75</ele><time>2026-05-02T12:14:29.494Z</time></trkpt><trkpt lat="46.209249522922775" lon="11.422635972814158"><ele>1273.0</ele><time>2026-05-02T12:14:30.494Z</time></trkpt><trkpt lat="46.20918090901468" lon="11.422522740419257"><ele>1273.0</ele><time>2026-05-02T12:14:31.494Z</time></trkpt><trkpt lat="46.20910256082945" lon="11.422383297720012"><ele>1273.0</ele><time>2026-05-02T12:14:32.494Z</time></trkpt><trkpt lat="46.20900874966026" lon="11.422298483709676"><ele>1273.0</ele><time>2026-05-02T12:14:33.494Z</time></trkpt><trkpt lat="46.208811873785294" lon="11.422288062689457"><ele>1273.0</ele><time>2026-05-02T12:14:34.494Z</time></trkpt><trkpt lat="46.208701881546986" lon="11.4222258767063"><ele>1277.0</ele><time>2026-05-02T12:14:35.494Z</time></trkpt><trkpt lat="46.208649145605" lon="11.422079191616296"><ele>1281.0</ele><time>2026-05-02T12:14:36.494Z</time></trkpt><trkpt lat="46.208571229551616" lon="11.421943292461323"><ele>1285.0</ele><time>2026-05-02T12:14:37.494Z</time></trkpt><trkpt lat="46.20849111178086" lon="11.421831515450913"><ele>1289.0</ele><time>2026-05-02T12:14:38.494Z</time></trkpt><trkpt lat="46.20844943493166" lon="11.421691947457592"><ele>1289.0</ele><time>2026-05-02T12:14:39.494Z</time></trkpt><trkpt lat="46.20840062842305" lon="11.421561652351414"><ele>1289.0</ele><time>2026-05-02T12:14:40.494Z</time></trkpt><trkpt lat="46.20829510335997" lon="11.421456924197182"><ele>1289.0</ele><time>2026-05-02T12:14:41.494Z</time></trkpt><trkpt lat="46.20818448323193" lon="11.42139577363062"><ele>1289.0</ele><time>2026-05-02T12:14:42.494Z</time></trkpt><trkpt lat="46.208022165272794" lon="11.421318043985186"><ele>1294.3333333333335</ele><time>2026-05-02T12:14:43.494Z</time></trkpt><trkpt lat="46.20788898522341" lon="11.421210730719993"><ele>1299.6666666666667</ele><time>2026-05-02T12:14:44.494Z</time></trkpt><trkpt lat="46.20774550641879" lon="11.421073505657446"><ele>1305.0</ele><time>2026-05-02T12:14:45.494Z</time></trkpt><trkpt lat="46.207603067351094" lon="11.420911735731961"><ele>1305.0</ele><time>2026-05-02T12:14:46.494Z</time></trkpt><trkpt lat="46.207491796679214" lon="11.420766743549638"><ele>1305.0</ele><time>2026-05-02T12:14:47.494Z</time></trkpt><trkpt lat="46.20736941972298" lon="11.420649493556432"><ele>1305.0</ele><time>2026-05-02T12:14:48.494Z</time></trkpt><trkpt lat="46.20727335319183" lon="11.420541750493555"><ele>1305.0</ele><time>2026-05-02T12:14:49.494Z</time></trkpt><trkpt lat="46.20710618334169" lon="11.420485622171114"><ele>1307.6666666666667</ele><time>2026-05-02T12:14:50.494Z</time></trkpt><trkpt lat="46.20695140745794" lon="11.420448415406636"><ele>1310.3333333333335</ele><time>2026-05-02T12:14:51.494Z</time></trkpt><trkpt lat="46.206801683761114" lon="11.42039983400516"><ele>1313.0</ele><time>2026-05-02T12:14:52.494Z</time></trkpt><trkpt lat="46.20665262858459" lon="11.42033058493662"><ele>1313.0</ele><time>2026-05-02T12:14:53.494Z</time></trkpt><trkpt lat="46.2065256775349" lon="11.420268304917002"><ele>1313.0</ele><time>2026-05-02T12:14:54.494Z</time></trkpt><trkpt lat="46.20640707164101" lon="11.420220824718484"><ele>1313.0</ele><time>2026-05-02T12:14:55.494Z</time></trkpt><trkpt lat="46.20630002126141" lon="11.42020442331824"><ele>1313.0</ele><time>2026-05-02T12:14:56.494Z</time></trkpt><trkpt lat="46.206146737238704" lon="11.420267610413568"><ele>1313.3333333333335</ele><time>2026-05-02T12:14:57.494Z</time></trkpt><trkpt lat="46.206015878199295" lon="11.42030196121109"><ele>1313.6666666666667</ele><time>2026-05-02T12:14:58.494Z</time></trkpt><trkpt lat="46.20586449470326" lon="11.420314659051586"><ele>1314.0</ele><time>2026-05-02T12:14:59.494Z</time></trkpt><trkpt lat="46.20569111496619" lon="11.420283467900122"><ele>1318.0</ele><time>2026-05-02T12:15:00.494Z</time></trkpt><trkpt lat="46.205503454938324" lon="11.420252589853579"><ele>1322.0</ele><time>2026-05-02T12:15:01.494Z</time></trkpt><trkpt lat="46.205360614475346" lon="11.420163115703469"><ele>1326.0</ele><time>2026-05-02T12:15:02.494Z</time></trkpt><trkpt lat="46.205262824749056" lon="11.42008179695826"><ele>1326.0</ele><time>2026-05-02T12:15:03.494Z</time></trkpt><trkpt lat="46.20513748777348" lon="11.41995913937843"><ele>1326.0</ele><time>2026-05-02T12:15:04.494Z</time></trkpt><trkpt lat="46.20500330878668" lon="11.419808024436913"><ele>1326.0</ele><time>2026-05-02T12:15:05.494Z</time></trkpt><trkpt lat="46.20489312914638" lon="11.41970781303275"><ele>1327.3333333333333</ele><time>2026-05-02T12:15:06.494Z</time></trkpt><trkpt lat="46.204780257091016" lon="11.419604389245585"><ele>1328.6666666666665</ele><time>2026-05-02T12:15:07.494Z</time></trkpt><trkpt lat="46.20463771746596" lon="11.419496831660725"><ele>1330.0</ele><time>2026-05-02T12:15:08.494Z</time></trkpt><trkpt lat="46.204492879582375" lon="11.41935488978635"><ele>1330.0</ele><time>2026-05-02T12:15:09.494Z</time></trkpt><trkpt lat="46.20436317376393" lon="11.419236582727201"><ele>1330.0</ele><time>2026-05-02T12:15:10.494Z</time></trkpt><trkpt lat="46.20423093999679" lon="11.419184699488595"><ele>1330.0</ele><time>2026-05-02T12:15:11.494Z</time></trkpt><trkpt lat="46.204121264100586" lon="11.41908970227603"><ele>1330.0</ele><time>2026-05-02T12:15:12.494Z</time></trkpt><trkpt lat="46.20401344885508" lon="11.419054410814368"><ele>1331.3333333333333</ele><time>2026-05-02T12:15:13.494Z</time></trkpt><trkpt lat="46.20386246370502" lon="11.419033224889743"><ele>1332.6666666666667</ele><time>2026-05-02T12:15:14.494Z</time></trkpt><trkpt lat="46.20369938830043" lon="11.41910409315511"><ele>1334.0</ele><time>2026-05-02T12:15:15.494Z</time></trkpt><trkpt lat="46.20355685885165" lon="11.419111699004057"><ele>1334.0</ele><time>2026-05-02T12:15:16.494Z</time></trkpt><trkpt lat="46.20341334863549" lon="11.419123575377885"><ele>1334.0</ele><time>2026-05-02T12:15:17.494Z</time></trkpt><trkpt lat="46.20326059929873" lon="11.41915707274591"><ele>1334.0</ele><time>2026-05-02T12:15:18.494Z</time></trkpt><trkpt lat="46.203117544504906" lon="11.419230420030393"><ele>1336.3333333333335</ele><time>2026-05-02T12:15:19.494Z</time></trkpt><trkpt lat="46.2029428249725" lon="11.41932492195405"><ele>1338.6666666666667</ele><time>2026-05-02T12:15:20.494Z</time></trkpt><trkpt lat="46.202774024723055" lon="11.419392808103991"><ele>1341.0</ele><time>2026-05-02T12:15:21.494Z</time></trkpt><trkpt lat="46.20255820368243" lon="11.419434458025476"><ele>1344.3333333333333</ele><time>2026-05-02T12:15:22.494Z</time></trkpt><trkpt lat="46.20230962739734" lon="11.419425536388415"><ele>1347.6666666666665</ele><time>2026-05-02T12:15:23.494Z</time></trkpt><trkpt lat="46.20213606635664" lon="11.419405571305985"><ele>1351.0</ele><time>2026-05-02T12:15:24.494Z</time></trkpt><trkpt lat="46.201971728267324" lon="11.419444689847394"><ele>1351.0</ele><time>2026-05-02T12:15:25.494Z</time></trkpt><trkpt lat="46.20182050713294" lon="11.419451884894094"><ele>1351.0</ele><time>2026-05-02T12:15:26.494Z</time></trkpt><trkpt lat="46.20167441002189" lon="11.41941537737122"><ele>1351.0</ele><time>2026-05-02T12:15:27.494Z</time></trkpt><trkpt lat="46.2015618908202" lon="11.419400185763111"><ele>1351.0</ele><time>2026-05-02T12:15:28.494Z</time></trkpt><trkpt lat="46.201422479506974" lon="11.41943197505413"><ele>1352.3333333333333</ele><time>2026-05-02T12:15:29.494Z</time></trkpt><trkpt lat="46.20126451032206" lon="11.419432523371063"><ele>1353.6666666666667</ele><time>2026-05-02T12:15:30.494Z</time></trkpt><trkpt lat="46.20110077128014" lon="11.419421404521724"><ele>1355.0</ele><time>2026-05-02T12:15:31.494Z</time></trkpt><trkpt lat="46.20091987262225" lon="11.41942155895692"><ele>1355.0</ele><time>2026-05-02T12:15:32.494Z</time></trkpt><trkpt lat="46.20077839546189" lon="11.419400655826607"><ele>1355.0</ele><time>2026-05-02T12:15:33.494Z</time></trkpt><trkpt lat="46.20062224913859" lon="11.41935324480455"><ele>1355.0</ele><time>2026-05-02T12:15:34.494Z</time></trkpt><trkpt lat="46.20045773999282" lon="11.419292351464607"><ele>1358.0</ele><time>2026-05-02T12:15:35.494Z</time></trkpt><trkpt lat="46.2003274813825" lon="11.419209950962456"><ele>1361.0</ele><time>2026-05-02T12:15:36.494Z</time></trkpt><trkpt lat="46.20017279393897" lon="11.419149382248442"><ele>1364.0</ele><time>2026-05-02T12:15:37.494Z</time></trkpt><trkpt lat="46.20002388716287" lon="11.419097632629583"><ele>1364.0</ele><time>2026-05-02T12:15:38.494Z</time></trkpt><trkpt lat="46.199908314700025" lon="11.419052751837045"><ele>1364.0</ele><time>2026-05-02T12:15:39.494Z</time></trkpt><trkpt lat="46.19979579192984" lon="11.419068431664828"><ele>1364.0</ele><time>2026-05-02T12:15:40.494Z</time></trkpt><trkpt lat="46.199656604198765" lon="11.419017877493914"><ele>1364.0</ele><time>2026-05-02T12:15:41.494Z</time></trkpt><trkpt lat="46.199508567027124" lon="11.4189865230507"><ele>1367.3333333333335</ele><time>2026-05-02T12:15:42.494Z</time></trkpt><trkpt lat="46.19934402668373" lon="11.4190116562627"><ele>1370.6666666666667</ele><time>2026-05-02T12:15:43.494Z</time></trkpt><trkpt lat="46.19913852205801" lon="11.419043145214916"><ele>1374.0</ele><time>2026-05-02T12:15:44.494Z</time></trkpt><trkpt lat="46.1990029391906" lon="11.419047069112144"><ele>1374.0</ele><time>2026-05-02T12:15:45.494Z</time></trkpt><trkpt lat="46.19893858512766" lon="11.41922115434791"><ele>1374.0</ele><time>2026-05-02T12:15:46.494Z</time></trkpt><trkpt lat="46.19883340734507" lon="11.419381940736251"><ele>1374.0</ele><time>2026-05-02T12:15:47.494Z</time></trkpt><trkpt lat="46.198681304539924" lon="11.41949633480334"><ele>1374.0</ele><time>2026-05-02T12:15:48.494Z</time></trkpt><trkpt lat="46.19854653452877" lon="11.419586986969051"><ele>1374.0</ele><time>2026-05-02T12:15:49.494Z</time></trkpt><trkpt lat="46.19840598451023" lon="11.419689782288541"><ele>1374.0</ele><time>2026-05-02T12:15:50.494Z</time></trkpt><trkpt lat="46.198205070613746" lon="11.419779532515559"><ele>1380.6666666666667</ele><time>2026-05-02T12:15:51.494Z</time></trkpt><trkpt lat="46.198043744428126" lon="11.419874023729566"><ele>1387.3333333333335</ele><time>2026-05-02T12:15:52.494Z</time></trkpt><trkpt lat="46.19788978331619" lon="11.419957307714661"><ele>1394.0</ele><time>2026-05-02T12:15:53.494Z</time></trkpt><trkpt lat="46.197762245047464" lon="11.42002036159807"><ele>1394.0</ele><time>2026-05-02T12:15:54.494Z</time></trkpt><trkpt lat="46.1976859825125" lon="11.420118931348666"><ele>1394.0</ele><time>2026-05-02T12:15:55.494Z</time></trkpt><trkpt lat="46.19755040452446" lon="11.420146129481779"><ele>1394.0</ele><time>2026-05-02T12:15:56.494Z</time></trkpt><trkpt lat="46.19741167832681" lon="11.420121448096497"><ele>1394.0</ele><time>2026-05-02T12:15:57.494Z</time></trkpt><trkpt lat="46.1972951824991" lon="11.420114007215563"><ele>1397.25</ele><time>2026-05-02T12:15:58.494Z</time></trkpt><trkpt lat="46.197201846068566" lon="11.42006926331589"><ele>1400.5</ele><time>2026-05-02T12:15:59.494Z</time></trkpt><trkpt lat="46.197055144274074" lon="11.42005084752537"><ele>1403.75</ele><time>2026-05-02T12:16:00.494Z</time></trkpt><trkpt lat="46.196892753208864" lon="11.420035013688254"><ele>1407.0</ele><time>2026-05-02T12:16:01.494Z</time></trkpt><trkpt lat="46.196727393506656" lon="11.420054006718315"><ele>1407.0</ele><time>2026-05-02T12:16:02.494Z</time></trkpt><trkpt lat="46.19658955090194" lon="11.420018312166693"><ele>1407.0</ele><time>2026-05-02T12:16:03.494Z</time></trkpt><trkpt lat="46.19645201722931" lon="11.42003817010427"><ele>1407.0</ele><time>2026-05-02T12:16:04.494Z</time></trkpt><trkpt lat="46.19627236447879" lon="11.420048781156316"><ele>1408.6666666666667</ele><time>2026-05-02T12:16:05.494Z</time></trkpt><trkpt lat="46.19610616444911" lon="11.420093618812514"><ele>1410.3333333333335</ele><time>2026-05-02T12:16:06.494Z</time></trkpt><trkpt lat="46.19592563456592" lon="11.420194281987023"><ele>1412.0</ele><time>2026-05-02T12:16:07.494Z</time></trkpt><trkpt lat="46.19573632220039" lon="11.420279153805254"><ele>1414.25</ele><time>2026-05-02T12:16:08.494Z</time></trkpt><trkpt lat="46.19558581783884" lon="11.420371284611884"><ele>1416.5</ele><time>2026-05-02T12:16:09.494Z</time></trkpt><trkpt lat="46.19545281337281" lon="11.420435574297018"><ele>1418.75</ele><time>2026-05-02T12:16:10.494Z</time></trkpt><trkpt lat="46.19532260739423" lon="11.420459278827066"><ele>1421.0</ele><time>2026-05-02T12:16:11.494Z</time></trkpt><trkpt lat="46.19521890862903" lon="11.420459251407333"><ele>1421.0</ele><time>2026-05-02T12:16:12.494Z</time></trkpt><trkpt lat="46.19507221373978" lon="11.420376961157865"><ele>1421.0</ele><time>2026-05-02T12:16:13.494Z</time></trkpt><trkpt lat="46.19498181410737" lon="11.42028027720809"><ele>1421.0</ele><time>2026-05-02T12:16:14.494Z</time></trkpt><trkpt lat="46.194897967152414" lon="11.420209473331187"><ele>1421.0</ele><time>2026-05-02T12:16:15.494Z</time></trkpt><trkpt lat="46.194842741121896" lon="11.420124898429892"><ele>1421.0</ele><time>2026-05-02T12:16:16.494Z</time></trkpt><trkpt lat="46.194784163686144" lon="11.42008640286891"><ele>1425.0</ele><time>2026-05-02T12:16:17.494Z</time></trkpt><trkpt lat="46.194706545340146" lon="11.42023299505307"><ele>1429.0</ele><time>2026-05-02T12:16:19.494Z</time></trkpt><trkpt lat="46.19476614570992" lon="11.420459057126532"><ele>1433.0</ele><time>2026-05-02T12:16:20.494Z</time></trkpt><trkpt lat="46.19480874292142" lon="11.42063822124946"><ele>1437.0</ele><time>2026-05-02T12:16:21.494Z</time></trkpt><trkpt lat="46.19481482111142" lon="11.420762151071225"><ele>1439.0</ele><time>2026-05-02T12:16:22.494Z</time></trkpt><trkpt lat="46.19470693156389" lon="11.42080009328451"><ele>1441.0</ele><time>2026-05-02T12:16:25.494Z</time></trkpt><trkpt lat="46.19461315425664" lon="11.420692159429183"><ele>1443.0</ele><time>2026-05-02T12:16:26.494Z</time></trkpt><trkpt lat="46.19452637992286" lon="11.420619783509231"><ele>1445.0</ele><time>2026-05-02T12:16:27.494Z</time></trkpt><trkpt lat="46.194418431158766" lon="11.420591216002343"><ele>1447.0</ele><time>2026-05-02T12:16:28.494Z</time></trkpt><trkpt lat="46.19433885805676" lon="11.420605467600726"><ele>1447.0</ele><time>2026-05-02T12:16:29.494Z</time></trkpt><trkpt lat="46.19426067016697" lon="11.420614851169343"><ele>1447.0</ele><time>2026-05-02T12:16:30.494Z</time></trkpt><trkpt lat="46.194181112345895" lon="11.420606691752745"><ele>1447.0</ele><time>2026-05-02T12:16:31.494Z</time></trkpt><trkpt lat="46.19409650301513" lon="11.42059359806248"><ele>1447.0</ele><time>2026-05-02T12:16:32.494Z</time></trkpt><trkpt lat="46.19401510229686" lon="11.420551334909844"><ele>1447.0</ele><time>2026-05-02T12:16:33.494Z</time></trkpt><trkpt lat="46.19392940054942" lon="11.42048680250434"><ele>1447.0</ele><time>2026-05-02T12:16:34.494Z</time></trkpt><trkpt lat="46.193852983539195" lon="11.42042621985756"><ele>1447.0</ele><time>2026-05-02T12:16:35.494Z</time></trkpt><trkpt lat="46.19375808581358" lon="11.420365029209885"><ele>1447.0</ele><time>2026-05-02T12:16:36.494Z</time></trkpt><trkpt lat="46.19366577978251" lon="11.420384184747041"><ele>1447.0</ele><time>2026-05-02T12:16:37.494Z</time></trkpt><trkpt lat="46.19356895927901" lon="11.420441171626498"><ele>1447.0</ele><time>2026-05-02T12:16:38.494Z</time></trkpt><trkpt lat="46.19348880623836" lon="11.42050807262765"><ele>1447.0</ele><time>2026-05-02T12:16:39.494Z</time></trkpt><trkpt lat="46.19343237246903" lon="11.420567898373998"><ele>1446.3999999999999</ele><time>2026-05-02T12:16:40.494Z</time></trkpt><trkpt lat="46.193432691984064" lon="11.420660833124696"><ele>1445.8</ele><time>2026-05-02T12:16:41.494Z</time></trkpt><trkpt lat="46.1935071792984" lon="11.42078289173377"><ele>1445.2</ele><time>2026-05-02T12:16:42.494Z</time></trkpt><trkpt lat="46.193598004527104" lon="11.42086698266447"><ele>1444.6</ele><time>2026-05-02T12:16:43.494Z</time></trkpt><trkpt lat="46.19369238500327" lon="11.420963370568233"><ele>1444.0</ele><time>2026-05-02T12:16:44.494Z</time></trkpt><trkpt lat="46.19376044353336" lon="11.421107956979935"><ele>1444.0</ele><time>2026-05-02T12:16:45.494Z</time></trkpt><trkpt lat="46.193807314204804" lon="11.421251095440063"><ele>1444.0</ele><time>2026-05-02T12:16:46.494Z</time></trkpt><trkpt lat="46.19384933008792" lon="11.421388131865317"><ele>1444.0</ele><time>2026-05-02T12:16:47.494Z</time></trkpt><trkpt lat="46.193911315230636" lon="11.421515268630438"><ele>1444.0</ele><time>2026-05-02T12:16:48.494Z</time></trkpt><trkpt lat="46.19398352562116" lon="11.421544662941523"><ele>1444.0</ele><time>2026-05-02T12:16:49.494Z</time></trkpt><trkpt lat="46.194023540442856" lon="11.421672905768022"><ele>1448.75</ele><time>2026-05-02T12:16:51.494Z</time></trkpt><trkpt lat="46.19398813505817" lon="11.42177264363711"><ele>1453.5</ele><time>2026-05-02T12:16:52.494Z</time></trkpt><trkpt lat="46.19379582787121" lon="11.421738167908767"><ele>1458.25</ele><time>2026-05-02T12:16:54.494Z</time></trkpt><trkpt lat="46.193670801088025" lon="11.421624621347066"><ele>1463.0</ele><time>2026-05-02T12:16:55.494Z</time></trkpt><trkpt lat="46.19356229602105" lon="11.42161193846121"><ele>1463.0</ele><time>2026-05-02T12:16:56.494Z</time></trkpt><trkpt lat="46.19340612610692" lon="11.421636451679571"><ele>1463.0</ele><time>2026-05-02T12:16:57.494Z</time></trkpt><trkpt lat="46.193246870460264" lon="11.42169270579347"><ele>1463.0</ele><time>2026-05-02T12:16:58.494Z</time></trkpt><trkpt lat="46.19311174805266" lon="11.421785574353333"><ele>1463.4</ele><time>2026-05-02T12:16:59.494Z</time></trkpt><trkpt lat="46.193008727857396" lon="11.421861169993342"><ele>1463.8000000000002</ele><time>2026-05-02T12:17:00.494Z</time></trkpt><trkpt lat="46.19292093304849" lon="11.42189956929342"><ele>1464.2</ele><time>2026-05-02T12:17:01.494Z</time></trkpt><trkpt lat="46.19281866714397" lon="11.421918012363305"><ele>1464.6</ele><time>2026-05-02T12:17:02.494Z</time></trkpt><trkpt lat="46.19271419523193" lon="11.421932729409223"><ele>1465.0</ele><time>2026-05-02T12:17:03.494Z</time></trkpt><trkpt lat="46.19260963461553" lon="11.42202462045876"><ele>1465.0</ele><time>2026-05-02T12:17:04.494Z</time></trkpt><trkpt lat="46.192523080960996" lon="11.422119668786614"><ele>1465.0</ele><time>2026-05-02T12:17:05.494Z</time></trkpt><trkpt lat="46.19244590760451" lon="11.422204675146027"><ele>1465.0</ele><time>2026-05-02T12:17:06.494Z</time></trkpt><trkpt lat="46.192389978311695" lon="11.422319041571512"><ele>1465.0</ele><time>2026-05-02T12:17:07.494Z</time></trkpt><trkpt lat="46.19232218959193" lon="11.42240653823879"><ele>1465.0</ele><time>2026-05-02T12:17:08.494Z</time></trkpt><trkpt lat="46.19223001223151" lon="11.422451777290942"><ele>1473.25</ele><time>2026-05-02T12:17:09.494Z</time></trkpt><trkpt lat="46.19211773012652" lon="11.42249171154396"><ele>1481.5</ele><time>2026-05-02T12:17:10.494Z</time></trkpt><trkpt lat="46.192009921601844" lon="11.4225345304189"><ele>1489.75</ele><time>2026-05-02T12:17:11.494Z</time></trkpt><trkpt lat="46.1918775023536" lon="11.42253669159531"><ele>1498.0</ele><time>2026-05-02T12:17:12.494Z</time></trkpt><trkpt lat="46.191779506771375" lon="11.42256920127731"><ele>1498.0</ele><time>2026-05-02T12:17:13.494Z</time></trkpt><trkpt lat="46.19168310328753" lon="11.42256888108749"><ele>1498.0</ele><time>2026-05-02T12:17:14.494Z</time></trkpt><trkpt lat="46.191591659043596" lon="11.422572755009526"><ele>1498.0</ele><time>2026-05-02T12:17:15.494Z</time></trkpt><trkpt lat="46.19149429407598" lon="11.42258828368085"><ele>1498.0</ele><time>2026-05-02T12:17:16.494Z</time></trkpt><trkpt lat="46.191398419926706" lon="11.422594847958313"><ele>1498.0</ele><time>2026-05-02T12:17:17.494Z</time></trkpt><trkpt lat="46.19131722221638" lon="11.422606083368276"><ele>1500.75</ele><time>2026-05-02T12:17:18.494Z</time></trkpt><trkpt lat="46.19120893867769" lon="11.422518047933076"><ele>1503.5</ele><time>2026-05-02T12:17:19.494Z</time></trkpt><trkpt lat="46.19109776028592" lon="11.422409376484396"><ele>1506.25</ele><time>2026-05-02T12:17:20.494Z</time></trkpt><trkpt lat="46.190982874014416" lon="11.422276412733416"><ele>1509.0</ele><time>2026-05-02T12:17:21.494Z</time></trkpt><trkpt lat="46.190913288364655" lon="11.42218560413492"><ele>1506.2</ele><time>2026-05-02T12:17:22.494Z</time></trkpt><trkpt lat="46.19079852712844" lon="11.422134098192767"><ele>1503.4</ele><time>2026-05-02T12:17:23.494Z</time></trkpt><trkpt lat="46.190689864159154" lon="11.422098086316742"><ele>1500.6</ele><time>2026-05-02T12:17:24.494Z</time></trkpt><trkpt lat="46.190594187233025" lon="11.422070274895772"><ele>1497.8</ele><time>2026-05-02T12:17:25.494Z</time></trkpt><trkpt lat="46.19050560134762" lon="11.422063770198207"><ele>1495.0</ele><time>2026-05-02T12:17:26.494Z</time></trkpt><trkpt lat="46.19041359906837" lon="11.422041925223239"><ele>1495.0</ele><time>2026-05-02T12:17:27.494Z</time></trkpt><trkpt lat="46.19032635400774" lon="11.422017747937314"><ele>1495.0</ele><time>2026-05-02T12:17:28.494Z</time></trkpt><trkpt lat="46.190239197199624" lon="11.421982157083772"><ele>1495.0</ele><time>2026-05-02T12:17:29.494Z</time></trkpt><trkpt lat="46.190153907686344" lon="11.421941197958924"><ele>1495.0</ele><time>2026-05-02T12:17:30.494Z</time></trkpt><trkpt lat="46.19006421251216" lon="11.421944006182898"><ele>1495.0</ele><time>2026-05-02T12:17:31.494Z</time></trkpt><trkpt lat="46.189955767716754" lon="11.421996008502719"><ele>1495.0</ele><time>2026-05-02T12:17:32.494Z</time></trkpt><trkpt lat="46.18988305254551" lon="11.422083382986276"><ele>1495.0</ele><time>2026-05-02T12:17:33.494Z</time></trkpt><trkpt lat="46.18981466424521" lon="11.422191181761177"><ele>1495.0</ele><time>2026-05-02T12:17:34.494Z</time></trkpt><trkpt lat="46.18974069016538" lon="11.422324011674839"><ele>1495.0</ele><time>2026-05-02T12:17:35.494Z</time></trkpt><trkpt lat="46.189673750516064" lon="11.422422365239813"><ele>1495.0</ele><time>2026-05-02T12:17:36.494Z</time></trkpt><trkpt lat="46.18958156209837" lon="11.4224861295389"><ele>1503.5</ele><time>2026-05-02T12:17:37.494Z</time></trkpt><trkpt lat="46.18946696458868" lon="11.42249890697932"><ele>1512.0</ele><time>2026-05-02T12:17:38.494Z</time></trkpt><trkpt lat="46.18935581586967" lon="11.42250296310768"><ele>1520.5</ele><time>2026-05-02T12:17:39.494Z</time></trkpt><trkpt lat="46.18924678712043" lon="11.42251262070327"><ele>1529.0</ele><time>2026-05-02T12:17:40.494Z</time></trkpt><trkpt lat="46.189101532307554" lon="11.42245360362616"><ele>1532.0</ele><time>2026-05-02T12:17:41.494Z</time></trkpt><trkpt lat="46.188977308765395" lon="11.422470135294784"><ele>1535.0</ele><time>2026-05-02T12:17:42.494Z</time></trkpt><trkpt lat="46.188851848853865" lon="11.422498284580087"><ele>1538.0</ele><time>2026-05-02T12:17:43.494Z</time></trkpt><trkpt lat="46.18872703116247" lon="11.422509812473749"><ele>1541.0</ele><time>2026-05-02T12:17:44.494Z</time></trkpt><trkpt lat="46.188608691035206" lon="11.422516674496302"><ele>1541.0</ele><time>2026-05-02T12:17:45.494Z</time></trkpt><trkpt lat="46.18848791982647" lon="11.422499462979383"><ele>1541.0</ele><time>2026-05-02T12:17:46.494Z</time></trkpt><trkpt lat="46.18834621502851" lon="11.422498637577982"><ele>1541.0</ele><time>2026-05-02T12:17:47.495Z</time></trkpt><trkpt lat="46.18820462735415" lon="11.422494497437603"><ele>1541.0</ele><time>2026-05-02T12:17:48.495Z</time></trkpt><trkpt lat="46.18805863853971" lon="11.422486841559802"><ele>1544.5</ele><time>2026-05-02T12:17:49.495Z</time></trkpt><trkpt lat="46.187939608049085" lon="11.422470842366549"><ele>1548.0</ele><time>2026-05-02T12:17:50.495Z</time></trkpt><trkpt lat="46.18782530664881" lon="11.422455178892408"><ele>1551.5</ele><time>2026-05-02T12:17:51.495Z</time></trkpt><trkpt lat="46.187707082857685" lon="11.422444851125075"><ele>1555.0</ele><time>2026-05-02T12:17:52.495Z</time></trkpt><trkpt lat="46.187595924619394" lon="11.422471831156596"><ele>1555.0</ele><time>2026-05-02T12:17:53.495Z</time></trkpt><trkpt lat="46.1874889587477" lon="11.422478452554234"><ele>1555.0</ele><time>2026-05-02T12:17:54.495Z</time></trkpt><trkpt lat="46.187378303535" lon="11.422435979370656"><ele>1555.0</ele><time>2026-05-02T12:17:55.495Z</time></trkpt><trkpt lat="46.18727372660889" lon="11.422391538683742"><ele>1555.0</ele><time>2026-05-02T12:17:56.495Z</time></trkpt><trkpt lat="46.18715042614061" lon="11.422330054541229"><ele>1558.75</ele><time>2026-05-02T12:17:57.495Z</time></trkpt><trkpt lat="46.187024329634646" lon="11.422288312958438"><ele>1562.5</ele><time>2026-05-02T12:17:58.495Z</time></trkpt><trkpt lat="46.18689624194882" lon="11.422273230784247"><ele>1566.25</ele><time>2026-05-02T12:17:59.495Z</time></trkpt><trkpt lat="46.18675995409217" lon="11.422238497805864"><ele>1570.0</ele><time>2026-05-02T12:18:00.495Z</time></trkpt><trkpt lat="46.18662133536974" lon="11.422174347193751"><ele>1565.0</ele><time>2026-05-02T12:18:01.495Z</time></trkpt><trkpt lat="46.18651064875514" lon="11.42211651486548"><ele>1560.0</ele><time>2026-05-02T12:18:02.495Z</time></trkpt><trkpt lat="46.186426274207406" lon="11.42209108234062"><ele>1555.0</ele><time>2026-05-02T12:18:03.495Z</time></trkpt><trkpt lat="46.18634158792452" lon="11.422107814489177"><ele>1550.0</ele><time>2026-05-02T12:18:04.495Z</time></trkpt><trkpt lat="46.18624125415619" lon="11.422106436268479"><ele>1545.0</ele><time>2026-05-02T12:18:05.495Z</time></trkpt><trkpt lat="46.18613362953332" lon="11.422123734231382"><ele>1553.0</ele><time>2026-05-02T12:18:06.495Z</time></trkpt><trkpt lat="46.18602252214299" lon="11.422169654218541"><ele>1561.0</ele><time>2026-05-02T12:18:07.495Z</time></trkpt><trkpt lat="46.185921475781726" lon="11.422231836168011"><ele>1569.0</ele><time>2026-05-02T12:18:08.495Z</time></trkpt><trkpt lat="46.185825528866104" lon="11.422323161947245"><ele>1577.0</ele><time>2026-05-02T12:18:09.495Z</time></trkpt><trkpt lat="46.18573166289852" lon="11.422421576743716"><ele>1575.0</ele><time>2026-05-02T12:18:10.495Z</time></trkpt><trkpt lat="46.18563863857187" lon="11.422501861169371"><ele>1573.0</ele><time>2026-05-02T12:18:11.495Z</time></trkpt><trkpt lat="46.185516614415555" lon="11.422522717460508"><ele>1571.0</ele><time>2026-05-02T12:18:12.495Z</time></trkpt><trkpt lat="46.18540593976443" lon="11.422554147701621"><ele>1569.0</ele><time>2026-05-02T12:18:13.495Z</time></trkpt><trkpt lat="46.18528485260528" lon="11.422585276230704"><ele>1569.0</ele><time>2026-05-02T12:18:14.495Z</time></trkpt><trkpt lat="46.18516893432499" lon="11.422620026925088"><ele>1569.0</ele><time>2026-05-02T12:18:15.495Z</time></trkpt><trkpt lat="46.1850718706348" lon="11.422644258467411"><ele>1569.0</ele><time>2026-05-02T12:18:16.495Z</time></trkpt><trkpt lat="46.184989943328965" lon="11.422658889717146"><ele>1569.0</ele><time>2026-05-02T12:18:17.495Z</time></trkpt><trkpt lat="46.18490574801151" lon="11.42268182225069"><ele>1569.0</ele><time>2026-05-02T12:18:18.495Z</time></trkpt><trkpt lat="46.18482796417098" lon="11.422746428593419"><ele>1570.8000000000002</ele><time>2026-05-02T12:18:19.495Z</time></trkpt><trkpt lat="46.184748427443886" lon="11.42280639157463"><ele>1572.6000000000001</ele><time>2026-05-02T12:18:20.495Z</time></trkpt><trkpt lat="46.18466274486158" lon="11.422875708403815"><ele>1574.4</ele><time>2026-05-02T12:18:21.495Z</time></trkpt><trkpt lat="46.18456816793758" lon="11.422935278508763"><ele>1576.2</ele><time>2026-05-02T12:18:22.495Z</time></trkpt><trkpt lat="46.184469435639755" lon="11.42296602588633"><ele>1578.0</ele><time>2026-05-02T12:18:23.495Z</time></trkpt><trkpt lat="46.18439667703928" lon="11.422999413256479"><ele>1578.0</ele><time>2026-05-02T12:18:24.495Z</time></trkpt><trkpt lat="46.184357060725674" lon="11.423134882354553"><ele>1578.0</ele><time>2026-05-02T12:18:26.495Z</time></trkpt><trkpt lat="46.18442357969671" lon="11.4232263524882"><ele>1578.0</ele><time>2026-05-02T12:18:27.495Z</time></trkpt><trkpt lat="46.18452531857411" lon="11.423230033743561"><ele>1578.0</ele><time>2026-05-02T12:18:28.495Z</time></trkpt><trkpt lat="46.1846136182885" lon="11.42319941459581"><ele>1578.0</ele><time>2026-05-02T12:18:29.495Z</time></trkpt><trkpt lat="46.18473265062093" lon="11.423087800849279"><ele>1578.0</ele><time>2026-05-02T12:18:30.495Z</time></trkpt><trkpt lat="46.18483695567909" lon="11.423009786044876"><ele>1578.0</ele><time>2026-05-02T12:18:31.495Z</time></trkpt><trkpt lat="46.18494593479937" lon="11.42298430362149"><ele>1578.0</ele><time>2026-05-02T12:18:32.495Z</time></trkpt><trkpt lat="46.1850654825056" lon="11.422986870400647"><ele>1578.0</ele><time>2026-05-02T12:18:33.495Z</time></trkpt><trkpt lat="46.18522945213615" lon="11.423050556560542"><ele>1582.75</ele><time>2026-05-02T12:18:34.495Z</time></trkpt><trkpt lat="46.18535320214686" lon="11.42308790938128"><ele>1587.5</ele><time>2026-05-02T12:18:35.495Z</time></trkpt><trkpt lat="46.18545891649373" lon="11.423121967268578"><ele>1592.25</ele><time>2026-05-02T12:18:36.495Z</time></trkpt><trkpt lat="46.18555874297701" lon="11.423185897142018"><ele>1597.0</ele><time>2026-05-02T12:18:37.495Z</time></trkpt><trkpt lat="46.185681307440284" lon="11.423259102326204"><ele>1598.0</ele><time>2026-05-02T12:18:38.495Z</time></trkpt><trkpt lat="46.18579357433325" lon="11.423331153832661"><ele>1599.0</ele><time>2026-05-02T12:18:39.495Z</time></trkpt><trkpt lat="46.18589157168869" lon="11.423381532869607"><ele>1600.0</ele><time>2026-05-02T12:18:40.495Z</time></trkpt><trkpt lat="46.185970167908394" lon="11.423450361533932"><ele>1601.0</ele><time>2026-05-02T12:18:41.495Z</time></trkpt><trkpt lat="46.18605699833065" lon="11.423506011704058"><ele>1602.0</ele><time>2026-05-02T12:18:42.495Z</time></trkpt><trkpt lat="46.186157654685786" lon="11.42357137362712"><ele>1602.0</ele><time>2026-05-02T12:18:43.495Z</time></trkpt><trkpt lat="46.18627190922914" lon="11.423637063160523"><ele>1602.0</ele><time>2026-05-02T12:18:44.495Z</time></trkpt><trkpt lat="46.18638669484936" lon="11.423712067786289"><ele>1602.0</ele><time>2026-05-02T12:18:45.495Z</time></trkpt><trkpt lat="46.186504971050546" lon="11.423797183704508"><ele>1602.0</ele><time>2026-05-02T12:18:46.495Z</time></trkpt><trkpt lat="46.186617167643476" lon="11.423878098104844"><ele>1606.25</ele><time>2026-05-02T12:18:47.495Z</time></trkpt><trkpt lat="46.18673574123741" lon="11.423952325387017"><ele>1610.5</ele><time>2026-05-02T12:18:48.495Z</time></trkpt><trkpt lat="46.186844471915585" lon="11.42403446872818"><ele>1614.75</ele><time>2026-05-02T12:18:49.495Z</time></trkpt><trkpt lat="46.18695532541961" lon="11.424107231914306"><ele>1619.0</ele><time>2026-05-02T12:18:50.495Z</time></trkpt><trkpt lat="46.187069139318126" lon="11.424171138476268"><ele>1619.0</ele><time>2026-05-02T12:18:51.495Z</time></trkpt><trkpt lat="46.1871657513391" lon="11.424203382516653"><ele>1619.0</ele><time>2026-05-02T12:18:52.495Z</time></trkpt><trkpt lat="46.187250628050336" lon="11.424260068799903"><ele>1619.0</ele><time>2026-05-02T12:18:53.495Z</time></trkpt><trkpt lat="46.18733085017401" lon="11.424340173610851"><ele>1619.0</ele><time>2026-05-02T12:18:54.495Z</time></trkpt><trkpt lat="46.18740706530817" lon="11.424430304968391"><ele>1619.0</ele><time>2026-05-02T12:18:55.495Z</time></trkpt><trkpt lat="46.18749122550011" lon="11.424513393718666"><ele>1617.4</ele><time>2026-05-02T12:18:56.495Z</time></trkpt><trkpt lat="46.187574033268284" lon="11.424563822308706"><ele>1615.8000000000002</ele><time>2026-05-02T12:18:57.495Z</time></trkpt><trkpt lat="46.1876393889911" lon="11.424595625648694"><ele>1614.1999999999998</ele><time>2026-05-02T12:18:58.495Z</time></trkpt><trkpt lat="46.18772687706016" lon="11.424654134533753"><ele>1612.6</ele><time>2026-05-02T12:19:00.495Z</time></trkpt><trkpt lat="46.18780302447977" lon="11.42476090898812"><ele>1611.0</ele><time>2026-05-02T12:19:02.495Z</time></trkpt><trkpt lat="46.18766298776507" lon="11.424764761646324"><ele>1611.0</ele><time>2026-05-02T12:19:04.495Z</time></trkpt><trkpt lat="46.18758657587575" lon="11.424699772883507"><ele>1611.0</ele><time>2026-05-02T12:19:05.495Z</time></trkpt><trkpt lat="46.187453173729644" lon="11.42463801189245"><ele>1611.0</ele><time>2026-05-02T12:19:06.495Z</time></trkpt><trkpt lat="46.18728176083077" lon="11.424614743210501"><ele>1611.0</ele><time>2026-05-02T12:19:07.495Z</time></trkpt><trkpt lat="46.18715856878578" lon="11.424636700585454"><ele>1613.0</ele><time>2026-05-02T12:19:08.495Z</time></trkpt><trkpt lat="46.187054707034996" lon="11.424626919167547"><ele>1615.0</ele><time>2026-05-02T12:19:09.495Z</time></trkpt><trkpt lat="46.186928216980164" lon="11.424640204178147"><ele>1617.0</ele><time>2026-05-02T12:19:10.495Z</time></trkpt><trkpt lat="46.18677972478985" lon="11.424620981241246"><ele>1619.0</ele><time>2026-05-02T12:19:11.495Z</time></trkpt><trkpt lat="46.18661917330014" lon="11.424660966541214"><ele>1627.5</ele><time>2026-05-02T12:19:12.495Z</time></trkpt><trkpt lat="46.18648837355818" lon="11.424685751510669"><ele>1636.0</ele><time>2026-05-02T12:19:13.495Z</time></trkpt><trkpt lat="46.18636190335113" lon="11.424705010829063"><ele>1644.5</ele><time>2026-05-02T12:19:14.495Z</time></trkpt><trkpt lat="46.186231301364124" lon="11.42471670004512"><ele>1653.0</ele><time>2026-05-02T12:19:15.495Z</time></trkpt><trkpt lat="46.186096560259074" lon="11.424756828568592"><ele>1653.0</ele><time>2026-05-02T12:19:16.495Z</time></trkpt><trkpt lat="46.18595995213411" lon="11.424785466107492"><ele>1653.0</ele><time>2026-05-02T12:19:17.495Z</time></trkpt><trkpt lat="46.18582621261081" lon="11.424812737566903"><ele>1653.0</ele><time>2026-05-02T12:19:18.495Z</time></trkpt><trkpt lat="46.18568740209674" lon="11.424887498710243"><ele>1653.0</ele><time>2026-05-02T12:19:19.495Z</time></trkpt><trkpt lat="46.18555268659033" lon="11.424975822149749"><ele>1651.0</ele><time>2026-05-02T12:19:20.495Z</time></trkpt><trkpt lat="46.185417734712665" lon="11.425064021480784"><ele>1649.0</ele><time>2026-05-02T12:19:21.495Z</time></trkpt><trkpt lat="46.18529811807354" lon="11.425129640747494"><ele>1647.0</ele><time>2026-05-02T12:19:22.495Z</time></trkpt><trkpt lat="46.185181967439966" lon="11.42520096596339"><ele>1645.0</ele><time>2026-05-02T12:19:23.495Z</time></trkpt><trkpt lat="46.18507545032883" lon="11.425298601034909"><ele>1645.0</ele><time>2026-05-02T12:19:24.495Z</time></trkpt><trkpt lat="46.18498193858657" lon="11.425429592665106"><ele>1645.0</ele><time>2026-05-02T12:19:25.495Z</time></trkpt><trkpt lat="46.184895531406866" lon="11.425589677868057"><ele>1645.0</ele><time>2026-05-02T12:19:26.495Z</time></trkpt><trkpt lat="46.18480430833927" lon="11.425716072285022"><ele>1645.0</ele><time>2026-05-02T12:19:27.495Z</time></trkpt><trkpt lat="46.18470674446705" lon="11.42581350923503"><ele>1645.0000000000002</ele><time>2026-05-02T12:19:28.495Z</time></trkpt><trkpt lat="46.18461072254908" lon="11.425875931103043"><ele>1645.0</ele><time>2026-05-02T12:19:29.495Z</time></trkpt><trkpt lat="46.184528496303585" lon="11.425912282069223"><ele>1645.0</ele><time>2026-05-02T12:19:30.495Z</time></trkpt><trkpt lat="46.18446947123518" lon="11.425946606840514"><ele>1645.0</ele><time>2026-05-02T12:19:31.495Z</time></trkpt><trkpt lat="46.18443177420365" lon="11.42605414640112"><ele>1645.0000000000002</ele><time>2026-05-02T12:19:33.495Z</time></trkpt><trkpt lat="46.184493218452516" lon="11.426118291530681"><ele>1645.0</ele><time>2026-05-02T12:19:34.495Z</time></trkpt><trkpt lat="46.184588064188404" lon="11.426110354899418"><ele>1645.0</ele><time>2026-05-02T12:19:35.495Z</time></trkpt><trkpt lat="46.18465849538428" lon="11.426070271417798"><ele>1645.0</ele><time>2026-05-02T12:19:36.495Z</time></trkpt><trkpt lat="46.184747221977084" lon="11.425994123772869"><ele>1645.0</ele><time>2026-05-02T12:19:37.495Z</time></trkpt><trkpt lat="46.18484296864147" lon="11.425944603732063"><ele>1645.0</ele><time>2026-05-02T12:19:38.495Z</time></trkpt><trkpt lat="46.18495589293971" lon="11.425894594629478"><ele>1645.0</ele><time>2026-05-02T12:19:39.495Z</time></trkpt><trkpt lat="46.185077629005065" lon="11.425833620290728"><ele>1649.8</ele><time>2026-05-02T12:19:40.495Z</time></trkpt><trkpt lat="46.18518711263255" lon="11.425797520625686"><ele>1654.6</ele><time>2026-05-02T12:19:41.495Z</time></trkpt><trkpt lat="46.1852956762881" lon="11.42575866087575"><ele>1659.4</ele><time>2026-05-02T12:19:42.495Z</time></trkpt><trkpt lat="46.185398450151816" lon="11.425763693089277"><ele>1664.2</ele><time>2026-05-02T12:19:43.495Z</time></trkpt><trkpt lat="46.18550326510766" lon="11.425752682947753"><ele>1669.0</ele><time>2026-05-02T12:19:44.495Z</time></trkpt><trkpt lat="46.18564368371647" lon="11.425752167073886"><ele>1671.25</ele><time>2026-05-02T12:19:45.495Z</time></trkpt><trkpt lat="46.185761483521034" lon="11.425762630724808"><ele>1673.5</ele><time>2026-05-02T12:19:46.495Z</time></trkpt><trkpt lat="46.18588547687926" lon="11.425772887308291"><ele>1675.75</ele><time>2026-05-02T12:19:47.495Z</time></trkpt><trkpt lat="46.18600990455284" lon="11.425804765178333"><ele>1678.0</ele><time>2026-05-02T12:19:48.495Z</time></trkpt><trkpt lat="46.18613421832798" lon="11.425843113363033"><ele>1678.0</ele><time>2026-05-02T12:19:49.495Z</time></trkpt><trkpt lat="46.1862560693705" lon="11.42590424587965"><ele>1678.0</ele><time>2026-05-02T12:19:50.495Z</time></trkpt><trkpt lat="46.18636026795796" lon="11.425955102824295"><ele>1678.0</ele><time>2026-05-02T12:19:51.495Z</time></trkpt><trkpt lat="46.18644366964775" lon="11.425987521320335"><ele>1678.0</ele><time>2026-05-02T12:19:52.495Z</time></trkpt><trkpt lat="46.18653537169912" lon="11.42599697983798"><ele>1678.0</ele><time>2026-05-02T12:19:54.495Z</time></trkpt><trkpt lat="46.18661576001391" lon="11.426044254834162"><ele>1678.0</ele><time>2026-05-02T12:19:57.495Z</time></trkpt><trkpt lat="46.18659759253942" lon="11.426147308254757"><ele>1678.0</ele><time>2026-05-02T12:19:58.495Z</time></trkpt><trkpt lat="46.186426920747465" lon="11.426124597173045"><ele>1678.0</ele><time>2026-05-02T12:20:00.495Z</time></trkpt><trkpt lat="46.18631281073163" lon="11.426070091058742"><ele>1678.0</ele><time>2026-05-02T12:20:01.495Z</time></trkpt><trkpt lat="46.186177347457495" lon="11.426053946328091"><ele>1678.0</ele><time>2026-05-02T12:20:02.495Z</time></trkpt><trkpt lat="46.18607456959182" lon="11.426101029443698"><ele>1678.0</ele><time>2026-05-02T12:20:03.495Z</time></trkpt><trkpt lat="46.185971217046884" lon="11.42612635240725"><ele>1678.0</ele><time>2026-05-02T12:20:04.495Z</time></trkpt><trkpt lat="46.185845199251325" lon="11.426194526521527"><ele>1678.0</ele><time>2026-05-02T12:20:05.495Z</time></trkpt><trkpt lat="46.18570624852101" lon="11.42624645132809"><ele>1681.25</ele><time>2026-05-02T12:20:06.495Z</time></trkpt><trkpt lat="46.18560782904417" lon="11.426320680876634"><ele>1684.5</ele><time>2026-05-02T12:20:07.495Z</time></trkpt><trkpt lat="46.18552049278331" lon="11.426385526707334"><ele>1687.75</ele><time>2026-05-02T12:20:08.495Z</time></trkpt><trkpt lat="46.18542214109196" lon="11.426466923786176"><ele>1691.0</ele><time>2026-05-02T12:20:09.495Z</time></trkpt><trkpt lat="46.18531663498152" lon="11.42657097850313"><ele>1691.0</ele><time>2026-05-02T12:20:10.495Z</time></trkpt><trkpt lat="46.18521460826822" lon="11.426730132663419"><ele>1691.0</ele><time>2026-05-02T12:20:11.495Z</time></trkpt><trkpt lat="46.18512474120538" lon="11.426889539036965"><ele>1691.0</ele><time>2026-05-02T12:20:12.495Z</time></trkpt><trkpt lat="46.185042181421956" lon="11.427047819642606"><ele>1691.0</ele><time>2026-05-02T12:20:13.495Z</time></trkpt><trkpt lat="46.18497464347622" lon="11.427189200297317"><ele>1690.75</ele><time>2026-05-02T12:20:14.495Z</time></trkpt><trkpt lat="46.18490125051039" lon="11.427319695674157"><ele>1690.5</ele><time>2026-05-02T12:20:15.495Z</time></trkpt><trkpt lat="46.18483966703861" lon="11.427453921584258"><ele>1690.25</ele><time>2026-05-02T12:20:16.495Z</time></trkpt><trkpt lat="46.18477778742674" lon="11.427599529844356"><ele>1690.0</ele><time>2026-05-02T12:20:17.495Z</time></trkpt><trkpt lat="46.18470971174054" lon="11.427750972009989"><ele>1690.0</ele><time>2026-05-02T12:20:18.495Z</time></trkpt><trkpt lat="46.18464860207873" lon="11.427923394484324"><ele>1690.0</ele><time>2026-05-02T12:20:19.495Z</time></trkpt><trkpt lat="46.18456946482882" lon="11.428093018333158"><ele>1690.0</ele><time>2026-05-02T12:20:20.495Z</time></trkpt><trkpt lat="46.18447962760194" lon="11.428256248441308"><ele>1690.0</ele><time>2026-05-02T12:20:21.495Z</time></trkpt><trkpt lat="46.18440110216725" lon="11.428433819253916"><ele>1694.25</ele><time>2026-05-02T12:20:22.495Z</time></trkpt><trkpt lat="46.184310904784326" lon="11.428633868367571"><ele>1698.5</ele><time>2026-05-02T12:20:23.495Z</time></trkpt><trkpt lat="46.18424049450135" lon="11.428817567098374"><ele>1702.75</ele><time>2026-05-02T12:20:24.495Z</time></trkpt><trkpt lat="46.18417236133242" lon="11.42897571168311"><ele>1707.0</ele><time>2026-05-02T12:20:25.495Z</time></trkpt><trkpt lat="46.184093809970015" lon="11.429129722968534"><ele>1704.75</ele><time>2026-05-02T12:20:26.495Z</time></trkpt><trkpt lat="46.184007550878064" lon="11.429278823462358"><ele>1702.5</ele><time>2026-05-02T12:20:27.495Z</time></trkpt><trkpt lat="46.183926657426554" lon="11.429428295404614"><ele>1700.25</ele><time>2026-05-02T12:20:28.495Z</time></trkpt><trkpt lat="46.18384832410013" lon="11.429579063263414"><ele>1698.0</ele><time>2026-05-02T12:20:29.495Z</time></trkpt><trkpt lat="46.18377537322102" lon="11.429742851044889"><ele>1703.0</ele><time>2026-05-02T12:20:30.495Z</time></trkpt><trkpt lat="46.183716013071844" lon="11.429914320604324"><ele>1708.0</ele><time>2026-05-02T12:20:31.495Z</time></trkpt><trkpt lat="46.183669231678074" lon="11.430100820641272"><ele>1713.0</ele><time>2026-05-02T12:20:32.495Z</time></trkpt><trkpt lat="46.18361363915752" lon="11.430275295874464"><ele>1718.0</ele><time>2026-05-02T12:20:33.495Z</time></trkpt><trkpt lat="46.18356868883858" lon="11.430451142613277"><ele>1721.6000000000001</ele><time>2026-05-02T12:20:34.495Z</time></trkpt><trkpt lat="46.18352865061743" lon="11.430615900582838"><ele>1725.2000000000003</ele><time>2026-05-02T12:20:35.495Z</time></trkpt><trkpt lat="46.183515494471514" lon="11.430770263280616"><ele>1728.8</ele><time>2026-05-02T12:20:36.495Z</time></trkpt><trkpt lat="46.183470479585026" lon="11.430915389342324"><ele>1732.4</ele><time>2026-05-02T12:20:37.495Z</time></trkpt><trkpt lat="46.18341178596401" lon="11.431031555595315"><ele>1736.0</ele><time>2026-05-02T12:20:38.495Z</time></trkpt><trkpt lat="46.18334269036598" lon="11.431161480000881"><ele>1739.5</ele><time>2026-05-02T12:20:39.495Z</time></trkpt><trkpt lat="46.1833047613887" lon="11.431308047252816"><ele>1743.0</ele><time>2026-05-02T12:20:40.495Z</time></trkpt><trkpt lat="46.18329631000628" lon="11.431472868554184"><ele>1746.5</ele><time>2026-05-02T12:20:41.495Z</time></trkpt><trkpt lat="46.183300720846766" lon="11.431644249957582"><ele>1750.0</ele><time>2026-05-02T12:20:42.495Z</time></trkpt><trkpt lat="46.183278732758005" lon="11.43180196972065"><ele>1750.0</ele><time>2026-05-02T12:20:43.495Z</time></trkpt><trkpt lat="46.18322915384524" lon="11.431953207808926"><ele>1750.0</ele><time>2026-05-02T12:20:44.495Z</time></trkpt><trkpt lat="46.18314676288254" lon="11.432087034828738"><ele>1750.0</ele><time>2026-05-02T12:20:45.495Z</time></trkpt><trkpt lat="46.183051434279484" lon="11.432195808213748"><ele>1750.0</ele><time>2026-05-02T12:20:46.495Z</time></trkpt><trkpt lat="46.1829782697999" lon="11.432313848798337"><ele>1746.25</ele><time>2026-05-02T12:20:47.495Z</time></trkpt><trkpt lat="46.18293273072409" lon="11.43244590070368"><ele>1742.5</ele><time>2026-05-02T12:20:48.495Z</time></trkpt><trkpt lat="46.18289507496239" lon="11.432585511251391"><ele>1738.75</ele><time>2026-05-02T12:20:49.495Z</time></trkpt><trkpt lat="46.18288572967429" lon="11.432771215736155"><ele>1735.0</ele><time>2026-05-02T12:20:50.495Z</time></trkpt><trkpt lat="46.18283746093213" lon="11.43294837703064"><ele>1737.6666666666667</ele><time>2026-05-02T12:20:51.495Z</time></trkpt><trkpt lat="46.18280130304223" lon="11.433145466321124"><ele>1740.3333333333335</ele><time>2026-05-02T12:20:52.495Z</time></trkpt><trkpt lat="46.18277269639881" lon="11.433369802118815"><ele>1743.0</ele><time>2026-05-02T12:20:53.495Z</time></trkpt><trkpt lat="46.18275522671185" lon="11.433588341256243"><ele>1743.0</ele><time>2026-05-02T12:20:54.495Z</time></trkpt><trkpt lat="46.1827184361364" lon="11.433777318312558"><ele>1743.0</ele><time>2026-05-02T12:20:55.495Z</time></trkpt><trkpt lat="46.182651610727625" lon="11.433953566772848"><ele>1743.0</ele><time>2026-05-02T12:20:56.495Z</time></trkpt><trkpt lat="46.18256557344196" lon="11.434149928756483"><ele>1743.0</ele><time>2026-05-02T12:20:57.495Z</time></trkpt><trkpt lat="46.1824850195766" lon="11.434313292978626"><ele>1743.25</ele><time>2026-05-02T12:20:58.495Z</time></trkpt><trkpt lat="46.18241581078457" lon="11.434463660448078"><ele>1743.5</ele><time>2026-05-02T12:20:59.495Z</time></trkpt><trkpt lat="46.18234863965185" lon="11.43460656168664"><ele>1743.75</ele><time>2026-05-02T12:21:00.495Z</time></trkpt><trkpt lat="46.182323614845956" lon="11.43475971619667"><ele>1744.0</ele><time>2026-05-02T12:21:01.495Z</time></trkpt><trkpt lat="46.1822877487535" lon="11.434923185556482"><ele>1744.0</ele><time>2026-05-02T12:21:02.495Z</time></trkpt><trkpt lat="46.18226047624702" lon="11.435103486971586"><ele>1744.0</ele><time>2026-05-02T12:21:03.495Z</time></trkpt><trkpt lat="46.18224469607017" lon="11.435300923519348"><ele>1744.0</ele><time>2026-05-02T12:21:04.495Z</time></trkpt><trkpt lat="46.18224378328672" lon="11.435498288666022"><ele>1744.0</ele><time>2026-05-02T12:21:05.495Z</time></trkpt><trkpt lat="46.18220713055788" lon="11.435673431756475"><ele>1747.25</ele><time>2026-05-02T12:21:06.495Z</time></trkpt><trkpt lat="46.18214318751209" lon="11.435831817008076"><ele>1750.5</ele><time>2026-05-02T12:21:07.495Z</time></trkpt><trkpt lat="46.18207575990947" lon="11.435999209331683"><ele>1753.75</ele><time>2026-05-02T12:21:08.495Z</time></trkpt><trkpt lat="46.18197654393554" lon="11.436143239641325"><ele>1757.0</ele><time>2026-05-02T12:21:09.495Z</time></trkpt><trkpt lat="46.18185824280045" lon="11.436300749708534"><ele>1761.75</ele><time>2026-05-02T12:21:10.495Z</time></trkpt><trkpt lat="46.181754599623645" lon="11.436445610000527"><ele>1766.5</ele><time>2026-05-02T12:21:11.495Z</time></trkpt><trkpt lat="46.18166369939981" lon="11.436591844608465"><ele>1771.25</ele><time>2026-05-02T12:21:12.495Z</time></trkpt><trkpt lat="46.18158970638475" lon="11.436721808491788"><ele>1776.0</ele><time>2026-05-02T12:21:13.495Z</time></trkpt><trkpt lat="46.18149817437186" lon="11.436822686352437"><ele>1779.1999999999998</ele><time>2026-05-02T12:21:14.495Z</time></trkpt><trkpt lat="46.181419162145986" lon="11.43694017479361"><ele>1782.3999999999999</ele><time>2026-05-02T12:21:15.495Z</time></trkpt><trkpt lat="46.18134026965669" lon="11.437046503758106"><ele>1785.6</ele><time>2026-05-02T12:21:16.495Z</time></trkpt><trkpt lat="46.18127651450507" lon="11.437164966532057"><ele>1788.8</ele><time>2026-05-02T12:21:17.495Z</time></trkpt><trkpt lat="46.18121467679612" lon="11.437244506860209"><ele>1792.0</ele><time>2026-05-02T12:21:18.495Z</time></trkpt><trkpt lat="46.18115513144045" lon="11.437306382085449"><ele>1792.8</ele><time>2026-05-02T12:21:19.495Z</time></trkpt><trkpt lat="46.181101074148714" lon="11.437359377403963"><ele>1793.6</ele><time>2026-05-02T12:21:20.495Z</time></trkpt><trkpt lat="46.18102735018092" lon="11.43746170733017"><ele>1794.3999999999999</ele><time>2026-05-02T12:21:22.495Z</time></trkpt><trkpt lat="46.18108901268937" lon="11.437611243113642"><ele>1795.1999999999998</ele><time>2026-05-02T12:21:24.495Z</time></trkpt><trkpt lat="46.1811640108939" lon="11.437616945122231"><ele>1796.0</ele><time>2026-05-02T12:21:25.495Z</time></trkpt><trkpt lat="46.181242706451556" lon="11.437538391906122"><ele>1796.0</ele><time>2026-05-02T12:21:26.495Z</time></trkpt><trkpt lat="46.18131942982424" lon="11.43745875387913"><ele>1796.0</ele><time>2026-05-02T12:21:27.495Z</time></trkpt><trkpt lat="46.1814293324744" lon="11.437421271960396"><ele>1796.0</ele><time>2026-05-02T12:21:28.495Z</time></trkpt><trkpt lat="46.181559673210124" lon="11.437426612859602"><ele>1796.0</ele><time>2026-05-02T12:21:29.495Z</time></trkpt><trkpt lat="46.18167418689068" lon="11.437433378663291"><ele>1795.6666666666665</ele><time>2026-05-02T12:21:30.495Z</time></trkpt><trkpt lat="46.18175264081607" lon="11.437416021083145"><ele>1795.3333333333333</ele><time>2026-05-02T12:21:31.495Z</time></trkpt><trkpt lat="46.18181372016037" lon="11.43733763542372"><ele>1795.0</ele><time>2026-05-02T12:21:32.495Z</time></trkpt><trkpt lat="46.18185931888711" lon="11.43724948328444"><ele>1794.6666666666665</ele><time>2026-05-02T12:21:33.495Z</time></trkpt><trkpt lat="46.18193556671915" lon="11.437157404862061"><ele>1794.3333333333333</ele><time>2026-05-02T12:21:35.495Z</time></trkpt><trkpt lat="46.18197754197981" lon="11.437262969769664"><ele>1794.0</ele><time>2026-05-02T12:21:37.495Z</time></trkpt><trkpt lat="46.18193484981139" lon="11.437370658735844"><ele>1794.0</ele><time>2026-05-02T12:21:38.495Z</time></trkpt><trkpt lat="46.18187163800575" lon="11.437474176988152"><ele>1794.0</ele><time>2026-05-02T12:21:39.495Z</time></trkpt><trkpt lat="46.1818023167625" lon="11.437564933063232"><ele>1794.0</ele><time>2026-05-02T12:21:40.495Z</time></trkpt><trkpt lat="46.18173202962589" lon="11.437652187439165"><ele>1794.0</ele><time>2026-05-02T12:21:41.495Z</time></trkpt><trkpt lat="46.181670731299754" lon="11.437745921146684"><ele>1794.0</ele><time>2026-05-02T12:21:42.495Z</time></trkpt><trkpt lat="46.18161669151557" lon="11.43786125665334"><ele>1794.0</ele><time>2026-05-02T12:21:43.495Z</time></trkpt><trkpt lat="46.181569712120094" lon="11.43796642982792"><ele>1794.0</ele><time>2026-05-02T12:21:44.495Z</time></trkpt><trkpt lat="46.18151789407457" lon="11.438061600383405"><ele>1794.0</ele><time>2026-05-02T12:21:45.495Z</time></trkpt><trkpt lat="46.181477107739354" lon="11.438156128687808"><ele>1794.0</ele><time>2026-05-02T12:21:46.495Z</time></trkpt><trkpt lat="46.18143547911768" lon="11.438240502789565"><ele>1794.0</ele><time>2026-05-02T12:21:47.495Z</time></trkpt><trkpt lat="46.1813862770052" lon="11.438378509127121"><ele>1794.0</ele><time>2026-05-02T12:21:49.495Z</time></trkpt><trkpt lat="46.18146179376331" lon="11.438456552721954"><ele>1799.0</ele><time>2026-05-02T12:21:51.495Z</time></trkpt><trkpt lat="46.18161768408992" lon="11.438275926544499"><ele>1804.0</ele><time>2026-05-02T12:21:53.495Z</time></trkpt><trkpt lat="46.18169670543282" lon="11.438145872263188"><ele>1809.0</ele><time>2026-05-02T12:21:54.495Z</time></trkpt><trkpt lat="46.18181007733504" lon="11.43803579143719"><ele>1806.0</ele><time>2026-05-02T12:21:55.495Z</time></trkpt><trkpt lat="46.18189487734892" lon="11.437922547948483"><ele>1803.0</ele><time>2026-05-02T12:21:56.495Z</time></trkpt><trkpt lat="46.18197018654832" lon="11.437835428580355"><ele>1800.0</ele><time>2026-05-02T12:21:57.495Z</time></trkpt><trkpt lat="46.18203667054739" lon="11.437762144858404"><ele>1797.0</ele><time>2026-05-02T12:21:58.495Z</time></trkpt><trkpt lat="46.18211520788007" lon="11.437697077439022"><ele>1794.0</ele><time>2026-05-02T12:21:59.496Z</time></trkpt><trkpt lat="46.18220950684355" lon="11.437656593596095"><ele>1794.0</ele><time>2026-05-02T12:22:00.496Z</time></trkpt><trkpt lat="46.18231623516475" lon="11.43763314427769"><ele>1794.0</ele><time>2026-05-02T12:22:01.496Z</time></trkpt><trkpt lat="46.182433292594595" lon="11.437570531133005"><ele>1794.0</ele><time>2026-05-02T12:22:02.496Z</time></trkpt><trkpt lat="46.182536410796295" lon="11.437463600156383"><ele>1794.0</ele><time>2026-05-02T12:22:03.496Z</time></trkpt><trkpt lat="46.18263303618172" lon="11.437351641056587"><ele>1794.4</ele><time>2026-05-02T12:22:04.496Z</time></trkpt><trkpt lat="46.1827394366984" lon="11.437258609576107"><ele>1794.8000000000002</ele><time>2026-05-02T12:22:05.496Z</time></trkpt><trkpt lat="46.18284779800359" lon="11.437189334734773"><ele>1795.1999999999998</ele><time>2026-05-02T12:22:06.496Z</time></trkpt><trkpt lat="46.18292693510482" lon="11.437112429085147"><ele>1795.6</ele><time>2026-05-02T12:22:07.496Z</time></trkpt><trkpt lat="46.18297054371804" lon="11.437018262736096"><ele>1796.0</ele><time>2026-05-02T12:22:09.496Z</time></trkpt><trkpt lat="46.18295876331634" lon="11.437221556496064"><ele>1801.4</ele><time>2026-05-02T12:22:13.496Z</time></trkpt><trkpt lat="46.1828643926457" lon="11.437317196046546"><ele>1806.8</ele><time>2026-05-02T12:22:14.496Z</time></trkpt><trkpt lat="46.18277246401282" lon="11.437400857921084"><ele>1812.2000000000003</ele><time>2026-05-02T12:22:15.496Z</time></trkpt><trkpt lat="46.182722211488006" lon="11.437516918472701"><ele>1817.6000000000001</ele><time>2026-05-02T12:22:16.496Z</time></trkpt><trkpt lat="46.18267581591145" lon="11.437636702905184"><ele>1823.0</ele><time>2026-05-02T12:22:17.496Z</time></trkpt><trkpt lat="46.18264490583846" lon="11.437755914964008"><ele>1823.0</ele><time>2026-05-02T12:22:18.496Z</time></trkpt><trkpt lat="46.182619170642745" lon="11.437902549499599"><ele>1823.0000000000002</ele><time>2026-05-02T12:22:19.496Z</time></trkpt><trkpt lat="46.18257523795287" lon="11.438031540538804"><ele>1823.0000000000002</ele><time>2026-05-02T12:22:20.496Z</time></trkpt><trkpt lat="46.182509597349316" lon="11.438148779560862"><ele>1823.0</ele><time>2026-05-02T12:22:21.496Z</time></trkpt><trkpt lat="46.182433951391204" lon="11.438241619609006"><ele>1823.0</ele><time>2026-05-02T12:22:22.496Z</time></trkpt><trkpt lat="46.18235091531906" lon="11.43830354519085"><ele>1823.2</ele><time>2026-05-02T12:22:23.496Z</time></trkpt><trkpt lat="46.182260237533725" lon="11.438406057421512"><ele>1823.4</ele><time>2026-05-02T12:22:25.496Z</time></trkpt><trkpt lat="46.1822400219416" lon="11.438507055618581"><ele>1823.6000000000001</ele><time>2026-05-02T12:22:26.496Z</time></trkpt><trkpt lat="46.18223732055679" lon="11.438619620898406"><ele>1823.8000000000002</ele><time>2026-05-02T12:22:27.496Z</time></trkpt><trkpt lat="46.18225908057873" lon="11.43877762540267"><ele>1824.0</ele><time>2026-05-02T12:22:28.496Z</time></trkpt><trkpt lat="46.18226186689217" lon="11.438929772149006"><ele>1824.0</ele><time>2026-05-02T12:22:29.496Z</time></trkpt><trkpt lat="46.18223800468037" lon="11.43905247337878"><ele>1824.0</ele><time>2026-05-02T12:22:30.496Z</time></trkpt><trkpt lat="46.18219509614853" lon="11.439151641083921"><ele>1824.0</ele><time>2026-05-02T12:22:31.496Z</time></trkpt><trkpt lat="46.182149171726635" lon="11.439240538889887"><ele>1824.0</ele><time>2026-05-02T12:22:32.496Z</time></trkpt><trkpt lat="46.18209324954262" lon="11.439315804763485"><ele>1824.0</ele><time>2026-05-02T12:22:33.496Z</time></trkpt><trkpt lat="46.18205461301478" lon="11.43941370370416"><ele>1824.0</ele><time>2026-05-02T12:22:34.496Z</time></trkpt><trkpt lat="46.18203611886642" lon="11.439529660000895"><ele>1827.0</ele><time>2026-05-02T12:22:35.496Z</time></trkpt><trkpt lat="46.182023517913564" lon="11.439665721222239"><ele>1830.0</ele><time>2026-05-02T12:22:36.496Z</time></trkpt><trkpt lat="46.18201677458993" lon="11.439808976915174"><ele>1833.0</ele><time>2026-05-02T12:22:37.496Z</time></trkpt><trkpt lat="46.181987743712284" lon="11.439955862436594"><ele>1836.0</ele><time>2026-05-02T12:22:38.496Z</time></trkpt><trkpt lat="46.18196174922178" lon="11.440123011804378"><ele>1839.0</ele><time>2026-05-02T12:22:39.496Z</time></trkpt><trkpt lat="46.18192258424782" lon="11.440284141846202"><ele>1839.0</ele><time>2026-05-02T12:22:40.496Z</time></trkpt><trkpt lat="46.18187986280089" lon="11.440456185063717"><ele>1839.0</ele><time>2026-05-02T12:22:41.496Z</time></trkpt><trkpt lat="46.1818395456756" lon="11.440618152710066"><ele>1839.0</ele><time>2026-05-02T12:22:42.496Z</time></trkpt><trkpt lat="46.181765489883574" lon="11.440750166713572"><ele>1839.0</ele><time>2026-05-02T12:22:43.496Z</time></trkpt><trkpt lat="46.181684907737" lon="11.44089647460976"><ele>1843.75</ele><time>2026-05-02T12:22:44.496Z</time></trkpt><trkpt lat="46.18161532805889" lon="11.441041749265656"><ele>1848.5</ele><time>2026-05-02T12:22:45.496Z</time></trkpt><trkpt lat="46.18154765759525" lon="11.44117961332846"><ele>1853.25</ele><time>2026-05-02T12:22:46.496Z</time></trkpt><trkpt lat="46.18147700444137" lon="11.441315803074858"><ele>1858.0</ele><time>2026-05-02T12:22:47.496Z</time></trkpt><trkpt lat="46.18140590333439" lon="11.441438533015095"><ele>1858.4</ele><time>2026-05-02T12:22:48.496Z</time></trkpt><trkpt lat="46.18134230376493" lon="11.441552381216656"><ele>1858.8000000000002</ele><time>2026-05-02T12:22:49.496Z</time></trkpt><trkpt lat="46.181281556014255" lon="11.44166643872718"><ele>1859.2</ele><time>2026-05-02T12:22:50.496Z</time></trkpt><trkpt lat="46.18122610667319" lon="11.441774394499479"><ele>1859.6</ele><time>2026-05-02T12:22:51.496Z</time></trkpt><trkpt lat="46.181180949642034" lon="11.441873279894871"><ele>1860.0</ele><time>2026-05-02T12:22:52.496Z</time></trkpt><trkpt lat="46.18112542064405" lon="11.441978665049719"><ele>1860.0</ele><time>2026-05-02T12:22:53.496Z</time></trkpt><trkpt lat="46.18104542300176" lon="11.44205446406137"><ele>1860.0</ele><time>2026-05-02T12:22:54.496Z</time></trkpt><trkpt lat="46.18095432852463" lon="11.442090927299576"><ele>1860.0</ele><time>2026-05-02T12:22:55.496Z</time></trkpt><trkpt lat="46.18084745789505" lon="11.44210906611611"><ele>1860.0</ele><time>2026-05-02T12:22:56.496Z</time></trkpt><trkpt lat="46.18074094695217" lon="11.442092777972842"><ele>1860.0</ele><time>2026-05-02T12:22:57.496Z</time></trkpt><trkpt lat="46.180625244806926" lon="11.442050164341593"><ele>1865.4</ele><time>2026-05-02T12:22:58.496Z</time></trkpt><trkpt lat="46.18052016249745" lon="11.441967850947542"><ele>1870.8</ele><time>2026-05-02T12:22:59.496Z</time></trkpt><trkpt lat="46.18040683773773" lon="11.441890059499356"><ele>1876.1999999999998</ele><time>2026-05-02T12:23:00.496Z</time></trkpt><trkpt lat="46.18030925339638" lon="11.44181833034692"><ele>1881.6</ele><time>2026-05-02T12:23:01.496Z</time></trkpt><trkpt lat="46.180260501179085" lon="11.441736558442276"><ele>1887.0</ele><time>2026-05-02T12:23:02.496Z</time></trkpt><trkpt lat="46.1801854378331" lon="11.441689427960352"><ele>1887.0</ele><time>2026-05-02T12:23:03.496Z</time></trkpt><trkpt lat="46.18001850127448" lon="11.44169892194272"><ele>1887.0</ele><time>2026-05-02T12:23:04.496Z</time></trkpt><trkpt lat="46.179898778606024" lon="11.441664091192491"><ele>1887.0</ele><time>2026-05-02T12:23:05.496Z</time></trkpt><trkpt lat="46.17981072699383" lon="11.44157942473402"><ele>1887.0</ele><time>2026-05-02T12:23:06.496Z</time></trkpt><trkpt lat="46.1797319686225" lon="11.441514638761529"><ele>1891.0</ele><time>2026-05-02T12:23:07.496Z</time></trkpt><trkpt lat="46.17966597918722" lon="11.441460538531182"><ele>1895.0</ele><time>2026-05-02T12:23:08.496Z</time></trkpt><trkpt lat="46.179583893269516" lon="11.44140985346015"><ele>1899.0</ele><time>2026-05-02T12:23:09.496Z</time></trkpt><trkpt lat="46.17943620147789" lon="11.441332927673471"><ele>1903.0</ele><time>2026-05-02T12:23:11.496Z</time></trkpt><trkpt lat="46.17929776325948" lon="11.441351850899304"><ele>1903.0</ele><time>2026-05-02T12:23:12.496Z</time></trkpt><trkpt lat="46.17920585483847" lon="11.441324270066135"><ele>1903.0000000000002</ele><time>2026-05-02T12:23:13.496Z</time></trkpt><trkpt lat="46.17911962008607" lon="11.441278227875975"><ele>1903.0000000000002</ele><time>2026-05-02T12:23:14.496Z</time></trkpt><trkpt lat="46.17900627471391" lon="11.441197381388553"><ele>1903.0</ele><time>2026-05-02T12:23:15.496Z</time></trkpt><trkpt lat="46.17890898615374" lon="11.44115956725641"><ele>1903.0</ele><time>2026-05-02T12:23:16.496Z</time></trkpt><trkpt lat="46.1787737539486" lon="11.441096002032253"><ele>1907.0</ele><time>2026-05-02T12:23:18.496Z</time></trkpt><trkpt lat="46.17870090718814" lon="11.441054120492588"><ele>1911.0</ele><time>2026-05-02T12:23:19.496Z</time></trkpt><trkpt lat="46.17859741346471" lon="11.440965805832871"><ele>1915.0</ele><time>2026-05-02T12:23:20.496Z</time></trkpt><trkpt lat="46.178467191079434" lon="11.44071925245303"><ele>1919.0</ele><time>2026-05-02T12:23:21.496Z</time></trkpt><trkpt lat="46.17839028253468" lon="11.440639219136896"><ele>1919.0</ele><time>2026-05-02T12:23:22.496Z</time></trkpt><trkpt lat="46.17831490455088" lon="11.44052721182769"><ele>1919.0</ele><time>2026-05-02T12:23:23.496Z</time></trkpt><trkpt lat="46.17821392077021" lon="11.440438407827296"><ele>1919.0</ele><time>2026-05-02T12:23:24.496Z</time></trkpt><trkpt lat="46.178127230568116" lon="11.440339230915091"><ele>1919.0</ele><time>2026-05-02T12:23:25.496Z</time></trkpt><trkpt lat="46.17803673006278" lon="11.44021886440684"><ele>1921.0</ele><time>2026-05-02T12:23:26.496Z</time></trkpt><trkpt lat="46.17794714364991" lon="11.440112697069004"><ele>1923.0</ele><time>2026-05-02T12:23:27.496Z</time></trkpt><trkpt lat="46.17787010122809" lon="11.439995573649254"><ele>1925.0</ele><time>2026-05-02T12:23:28.496Z</time></trkpt><trkpt lat="46.17778775456328" lon="11.439853416026306"><ele>1927.0</ele><time>2026-05-02T12:23:29.496Z</time></trkpt><trkpt lat="46.17771165472553" lon="11.439702142291832"><ele>1925.5</ele><time>2026-05-02T12:23:30.496Z</time></trkpt><trkpt lat="46.17765961998615" lon="11.439541485349835"><ele>1924.0</ele><time>2026-05-02T12:23:31.496Z</time></trkpt><trkpt lat="46.177576957114084" lon="11.439399241369314"><ele>1922.5</ele><time>2026-05-02T12:23:32.496Z</time></trkpt><trkpt lat="46.17747163879309" lon="11.439312746941104"><ele>1921.0</ele><time>2026-05-02T12:23:33.496Z</time></trkpt><trkpt lat="46.17739319829942" lon="11.439214433792062"><ele>1924.1999999999998</ele><time>2026-05-02T12:23:34.496Z</time></trkpt><trkpt lat="46.177313881588454" lon="11.439104359625485"><ele>1927.3999999999999</ele><time>2026-05-02T12:23:35.496Z</time></trkpt><trkpt lat="46.17723534353966" lon="11.438995871581584"><ele>1930.6</ele><time>2026-05-02T12:23:36.496Z</time></trkpt><trkpt lat="46.17722574605215" lon="11.4388893623665"><ele>1933.8</ele><time>2026-05-02T12:23:37.496Z</time></trkpt><trkpt lat="46.177144535289536" lon="11.438806461301361"><ele>1937.0</ele><time>2026-05-02T12:23:38.496Z</time></trkpt><trkpt lat="46.17708998130775" lon="11.43873533365079"><ele>1937.0</ele><time>2026-05-02T12:23:39.496Z</time></trkpt><trkpt lat="46.17692150337347" lon="11.43871033198942"><ele>1937.0</ele><time>2026-05-02T12:23:40.496Z</time></trkpt><trkpt lat="46.17686908866342" lon="11.438616434982745"><ele>1937.0</ele><time>2026-05-02T12:23:41.496Z</time></trkpt><trkpt lat="46.17676033711326" lon="11.438492043010887"><ele>1937.0</ele><time>2026-05-02T12:23:42.496Z</time></trkpt><trkpt lat="46.17671258312341" lon="11.43835353412917"><ele>1937.0</ele><time>2026-05-02T12:23:43.496Z</time></trkpt><trkpt lat="46.17667874836368" lon="11.438206003915536"><ele>1936.9999999999998</ele><time>2026-05-02T12:23:44.496Z</time></trkpt><trkpt lat="46.17664612028832" lon="11.438043486982924"><ele>1936.9999999999998</ele><time>2026-05-02T12:23:45.496Z</time></trkpt><trkpt lat="46.1766251360731" lon="11.437894910646499"><ele>1937.0</ele><time>2026-05-02T12:23:46.496Z</time></trkpt><trkpt lat="46.17662479886583" lon="11.437738223077838"><ele>1937.0</ele><time>2026-05-02T12:23:47.496Z</time></trkpt><trkpt lat="46.17665451216235" lon="11.43758569614511"><ele>1936.8</ele><time>2026-05-02T12:23:48.496Z</time></trkpt><trkpt lat="46.17667948126441" lon="11.437444908007"><ele>1936.6</ele><time>2026-05-02T12:23:49.496Z</time></trkpt><trkpt lat="46.17668165344136" lon="11.43730723743199"><ele>1936.3999999999999</ele><time>2026-05-02T12:23:50.496Z</time></trkpt><trkpt lat="46.17667037335448" lon="11.437162483194479"><ele>1936.1999999999998</ele><time>2026-05-02T12:23:51.496Z</time></trkpt><trkpt lat="46.17666231485084" lon="11.437011268159623"><ele>1936.0</ele><time>2026-05-02T12:23:52.496Z</time></trkpt><trkpt lat="46.17664520318506" lon="11.436887550965603"><ele>1936.0</ele><time>2026-05-02T12:23:53.496Z</time></trkpt><trkpt lat="46.176635480471596" lon="11.43678900788784"><ele>1936.0</ele><time>2026-05-02T12:23:54.496Z</time></trkpt><trkpt lat="46.17657192967009" lon="11.4367882330286"><ele>1936.0</ele><time>2026-05-02T12:23:55.496Z</time></trkpt><trkpt lat="46.17650179057278" lon="11.436795698691375"><ele>1936.0</ele><time>2026-05-02T12:23:57.496Z</time></trkpt><trkpt lat="46.17635582469832" lon="11.436871994520668"><ele>1936.0</ele><time>2026-05-02T12:23:58.496Z</time></trkpt><trkpt lat="46.17626790498735" lon="11.436915306991285"><ele>1936.25</ele><time>2026-05-02T12:23:59.496Z</time></trkpt><trkpt lat="46.1761636711718" lon="11.436965408119374"><ele>1936.5</ele><time>2026-05-02T12:24:00.496Z</time></trkpt><trkpt lat="46.17601974028185" lon="11.43699998769736"><ele>1936.75</ele><time>2026-05-02T12:24:01.496Z</time></trkpt><trkpt lat="46.175856322809715" lon="11.437049788302385"><ele>1937.0</ele><time>2026-05-02T12:24:02.496Z</time></trkpt><trkpt lat="46.17568691593766" lon="11.43710510974702"><ele>1942.25</ele><time>2026-05-02T12:24:03.496Z</time></trkpt><trkpt lat="46.17554199074428" lon="11.437190714544968"><ele>1947.5</ele><time>2026-05-02T12:24:04.496Z</time></trkpt><trkpt lat="46.175395315490626" lon="11.437262591575742"><ele>1952.75</ele><time>2026-05-02T12:24:05.496Z</time></trkpt><trkpt lat="46.17528264851081" lon="11.437336352326998"><ele>1958.0</ele><time>2026-05-02T12:24:06.496Z</time></trkpt><trkpt lat="46.17522138940089" lon="11.43742833342864"><ele>1957.9999999999998</ele><time>2026-05-02T12:24:07.496Z</time></trkpt><trkpt lat="46.17513088646398" lon="11.43748707569177"><ele>1958.0</ele><time>2026-05-02T12:24:08.496Z</time></trkpt><trkpt lat="46.17503540672434" lon="11.437519708830436"><ele>1958.0</ele><time>2026-05-02T12:24:09.496Z</time></trkpt><trkpt lat="46.17493648178883" lon="11.43753369269928"><ele>1958.0</ele><time>2026-05-02T12:24:10.496Z</time></trkpt><trkpt lat="46.174873104261316" lon="11.437477539753326"><ele>1957.9999999999998</ele><time>2026-05-02T12:24:11.496Z</time></trkpt><trkpt lat="46.17481014046197" lon="11.437469327595062"><ele>1958.0</ele><time>2026-05-02T12:24:12.496Z</time></trkpt><trkpt lat="46.17479309431112" lon="11.437602984888198"><ele>1957.9999999999998</ele><time>2026-05-02T12:24:14.496Z</time></trkpt><trkpt lat="46.1748467776265" lon="11.437674908984091"><ele>1958.0</ele><time>2026-05-02T12:24:15.496Z</time></trkpt><trkpt lat="46.174926577062024" lon="11.437711662186912"><ele>1958.0</ele><time>2026-05-02T12:24:16.496Z</time></trkpt><trkpt lat="46.17498934060457" lon="11.43771949053535"><ele>1958.0</ele><time>2026-05-02T12:24:17.496Z</time></trkpt><trkpt lat="46.17506854575092" lon="11.437685506416246"><ele>1957.9999999999998</ele><time>2026-05-02T12:24:18.496Z</time></trkpt><trkpt lat="46.17515184747058" lon="11.43766286605828"><ele>1958.0</ele><time>2026-05-02T12:24:19.496Z</time></trkpt><trkpt lat="46.17521835870184" lon="11.437680880907356"><ele>1957.9999999999998</ele><time>2026-05-02T12:24:20.496Z</time></trkpt><trkpt lat="46.17528334647118" lon="11.437709412943462"><ele>1958.0</ele><time>2026-05-02T12:24:21.496Z</time></trkpt><trkpt lat="46.17534100936486" lon="11.437776469484026"><ele>1958.0</ele><time>2026-05-02T12:24:22.496Z</time></trkpt><trkpt lat="46.175414446045274" lon="11.437859695338656"><ele>1958.0</ele><time>2026-05-02T12:24:23.496Z</time></trkpt><trkpt lat="46.17549962368838" lon="11.437904975030188"><ele>1957.9999999999998</ele><time>2026-05-02T12:24:24.496Z</time></trkpt><trkpt lat="46.175603415157504" lon="11.437876349795141"><ele>1958.0</ele><time>2026-05-02T12:24:25.496Z</time></trkpt><trkpt lat="46.175676175925275" lon="11.437793854739189"><ele>1958.142857142857</ele><time>2026-05-02T12:24:26.496Z</time></trkpt><trkpt lat="46.17573795292097" lon="11.437705045025911"><ele>1958.2857142857142</ele><time>2026-05-02T12:24:27.496Z</time></trkpt><trkpt lat="46.17580008162398" lon="11.437646982422264"><ele>1958.4285714285713</ele><time>2026-05-02T12:24:28.496Z</time></trkpt><trkpt lat="46.17587112053494" lon="11.437644183157108"><ele>1958.5714285714284</ele><time>2026-05-02T12:24:29.496Z</time></trkpt><trkpt lat="46.1759366524474" lon="11.437668460629029"><ele>1958.7142857142858</ele><time>2026-05-02T12:24:30.496Z</time></trkpt><trkpt lat="46.17594972649916" lon="11.43777301132446"><ele>1958.8571428571427</ele><time>2026-05-02T12:24:32.496Z</time></trkpt><trkpt lat="46.17590313102629" lon="11.437858703566805"><ele>1958.9999999999998</ele><time>2026-05-02T12:24:33.496Z</time></trkpt><trkpt lat="46.17580692606394" lon="11.437841016125944"><ele>1959.0</ele><time>2026-05-02T12:24:35.496Z</time></trkpt><trkpt lat="46.17574019047946" lon="11.43785136106585"><ele>1959.0</ele><time>2026-05-02T12:24:36.496Z</time></trkpt><trkpt lat="46.17568575722067" lon="11.437925997365097"><ele>1959.0</ele><time>2026-05-02T12:24:37.496Z</time></trkpt><trkpt lat="46.175601198752524" lon="11.438031732855364"><ele>1959.0</ele><time>2026-05-02T12:24:38.496Z</time></trkpt><trkpt lat="46.17550077099439" lon="11.438118136660231"><ele>1959.0</ele><time>2026-05-02T12:24:39.496Z</time></trkpt><trkpt lat="46.17539930625289" lon="11.438172555906787"><ele>1963.2</ele><time>2026-05-02T12:24:40.496Z</time></trkpt><trkpt lat="46.17532783149765" lon="11.438238234953245"><ele>1967.4</ele><time>2026-05-02T12:24:41.496Z</time></trkpt><trkpt lat="46.17521197473571" lon="11.438265270912876"><ele>1971.6</ele><time>2026-05-02T12:24:43.496Z</time></trkpt><trkpt lat="46.17508957048029" lon="11.438241942942655"><ele>1975.8</ele><time>2026-05-02T12:24:45.496Z</time></trkpt><trkpt lat="46.17501329189676" lon="11.438258815318443"><ele>1980.0</ele><time>2026-05-02T12:24:46.496Z</time></trkpt><trkpt lat="46.17504233739417" lon="11.438404492453337"><ele>1980.0</ele><time>2026-05-02T12:24:47.496Z</time></trkpt><trkpt lat="46.17508451425644" lon="11.438479296138853"><ele>1980.0</ele><time>2026-05-02T12:24:48.496Z</time></trkpt><trkpt lat="46.17515472364276" lon="11.438496820085353"><ele>1980.0</ele><time>2026-05-02T12:24:49.496Z</time></trkpt><trkpt lat="46.17523779671702" lon="11.438511557622318"><ele>1980.0</ele><time>2026-05-02T12:24:50.496Z</time></trkpt><trkpt lat="46.17531432558499" lon="11.438536625980545"><ele>1980.0</ele><time>2026-05-02T12:24:51.496Z</time></trkpt><trkpt lat="46.175370634611724" lon="11.438587063847852"><ele>1980.0</ele><time>2026-05-02T12:24:52.496Z</time></trkpt><trkpt lat="46.17538986004625" lon="11.438800674167952"><ele>1983.2</ele><time>2026-05-02T12:24:54.496Z</time></trkpt><trkpt lat="46.175369910473684" lon="11.438906825805963"><ele>1986.4</ele><time>2026-05-02T12:24:55.496Z</time></trkpt><trkpt lat="46.175440967516764" lon="11.439038908556807"><ele>1989.6</ele><time>2026-05-02T12:24:57.496Z</time></trkpt><trkpt lat="46.17548823058383" lon="11.439125469246017"><ele>1992.8</ele><time>2026-05-02T12:24:58.496Z</time></trkpt><trkpt lat="46.17547779351202" lon="11.439303225330587"><ele>1996.0</ele><time>2026-05-02T12:25:00.496Z</time></trkpt><trkpt lat="46.175428981277555" lon="11.43937561509182"><ele>1996.0</ele><time>2026-05-02T12:25:01.496Z</time></trkpt><trkpt lat="46.17534298001395" lon="11.439472636338866"><ele>1996.0</ele><time>2026-05-02T12:25:03.496Z</time></trkpt><trkpt lat="46.17522298036565" lon="11.43929982578252"><ele>1996.0</ele><time>2026-05-02T12:25:04.496Z</time></trkpt><trkpt lat="46.175091299288475" lon="11.439190684238891"><ele>1996.0</ele><time>2026-05-02T12:25:05.496Z</time></trkpt><trkpt lat="46.17501869994198" lon="11.439194060505331"><ele>1996.0</ele><time>2026-05-02T12:25:06.496Z</time></trkpt><trkpt lat="46.174937948749346" lon="11.439239037912081"><ele>1996.0</ele><time>2026-05-02T12:25:07.496Z</time></trkpt><trkpt lat="46.1748501609625" lon="11.439281968431677"><ele>1996.0</ele><time>2026-05-02T12:25:08.496Z</time></trkpt><trkpt lat="46.174757783612584" lon="11.439330196749363"><ele>1996.0</ele><time>2026-05-02T12:25:09.496Z</time></trkpt><trkpt lat="46.1746534732571" lon="11.43938174225658"><ele>1996.0</ele><time>2026-05-02T12:25:10.496Z</time></trkpt><trkpt lat="46.17455117234307" lon="11.439433688137123"><ele>1999.1666666666667</ele><time>2026-05-02T12:25:11.496Z</time></trkpt><trkpt lat="46.174445163316" lon="11.439478905868915"><ele>2002.3333333333335</ele><time>2026-05-02T12:25:12.496Z</time></trkpt><trkpt lat="46.174349174957236" lon="11.439504507848635"><ele>2005.5</ele><time>2026-05-02T12:25:13.496Z</time></trkpt><trkpt lat="46.17427701108302" lon="11.43953469083162"><ele>2008.6666666666665</ele><time>2026-05-02T12:25:14.496Z</time></trkpt><trkpt lat="46.174219484449935" lon="11.439597292168951"><ele>2011.8333333333333</ele><time>2026-05-02T12:25:15.496Z</time></trkpt><trkpt lat="46.17417804959861" lon="11.439672610567863"><ele>2015.0</ele><time>2026-05-02T12:25:16.496Z</time></trkpt><trkpt lat="46.174150424343026" lon="11.439795721649924"><ele>2014.9999999999998</ele><time>2026-05-02T12:25:17.496Z</time></trkpt><trkpt lat="46.17413415935463" lon="11.439928097500564"><ele>2015.0</ele><time>2026-05-02T12:25:18.496Z</time></trkpt><trkpt lat="46.17410545005093" lon="11.440027713005298"><ele>2015.0</ele><time>2026-05-02T12:25:19.496Z</time></trkpt><trkpt lat="46.17411113833201" lon="11.440122504015465"><ele>2015.0</ele><time>2026-05-02T12:25:20.496Z</time></trkpt><trkpt lat="46.17413771950195" lon="11.440205159612022"><ele>2014.9999999999998</ele><time>2026-05-02T12:25:21.496Z</time></trkpt><trkpt lat="46.174218767258274" lon="11.440290036717476"><ele>2015.0</ele><time>2026-05-02T12:25:23.496Z</time></trkpt><trkpt lat="46.17427880684304" lon="11.440401147619943"><ele>2016.8</ele><time>2026-05-02T12:25:26.496Z</time></trkpt><trkpt lat="46.17425594812222" lon="11.4405614911246"><ele>2018.6</ele><time>2026-05-02T12:25:28.496Z</time></trkpt><trkpt lat="46.17417197990831" lon="11.440657423087329"><ele>2020.4</ele><time>2026-05-02T12:25:30.496Z</time></trkpt><trkpt lat="46.17406692459251" lon="11.440708906845767"><ele>2022.2</ele><time>2026-05-02T12:25:32.496Z</time></trkpt><trkpt lat="46.1740183062297" lon="11.440777628130036"><ele>2024.0</ele><time>2026-05-02T12:25:35.496Z</time></trkpt><trkpt lat="46.174080225643856" lon="11.44081745331384"><ele>2024.0</ele><time>2026-05-02T12:25:38.496Z</time></trkpt><trkpt lat="46.174079002503234" lon="11.440702343637922"><ele>2024.0</ele><time>2026-05-02T12:26:36.496Z</time></trkpt><trkpt lat="46.17400137378951" lon="11.440653245274667"><ele>2024.0</ele><time>2026-05-02T12:26:39.496Z</time></trkpt><trkpt lat="46.17389921051891" lon="11.440575227628713"><ele>2024.0</ele><time>2026-05-02T12:26:41.496Z</time></trkpt><trkpt lat="46.17387227377639" lon="11.440451216165584"><ele>2024.0</ele><time>2026-05-02T12:26:42.496Z</time></trkpt><trkpt lat="46.17384176615788" lon="11.440336525821534"><ele>2024.4</ele><time>2026-05-02T12:26:43.496Z</time></trkpt><trkpt lat="46.17381734759131" lon="11.440249854360319"><ele>2024.8000000000002</ele><time>2026-05-02T12:26:44.496Z</time></trkpt><trkpt lat="46.173825739210606" lon="11.440064790417228"><ele>2025.1999999999998</ele><time>2026-05-02T12:26:46.496Z</time></trkpt><trkpt lat="46.173827798977264" lon="11.439944222377715"><ele>2025.6</ele><time>2026-05-02T12:26:47.496Z</time></trkpt><trkpt lat="46.173852141043206" lon="11.43982724732424"><ele>2026.0</ele><time>2026-05-02T12:26:48.496Z</time></trkpt><trkpt lat="46.17389493762843" lon="11.439688271242984"><ele>2026.0000000000002</ele><time>2026-05-02T12:26:50.496Z</time></trkpt><trkpt lat="46.173884460345164" lon="11.439573058933313"><ele>2026.0</ele><time>2026-05-02T12:26:52.496Z</time></trkpt><trkpt lat="46.17379251686929" lon="11.439644565205333"><ele>2026.0</ele><time>2026-05-02T12:26:54.496Z</time></trkpt><trkpt lat="46.173774149605364" lon="11.439742513396853"><ele>2026.0</ele><time>2026-05-02T12:26:55.496Z</time></trkpt><trkpt lat="46.17376045385539" lon="11.439856304478484"><ele>2026.0000000000002</ele><time>2026-05-02T12:26:56.496Z</time></trkpt><trkpt lat="46.17374345887892" lon="11.43997143162691"><ele>2026.0</ele><time>2026-05-02T12:26:57.496Z</time></trkpt><trkpt lat="46.173704525990075" lon="11.44008891972869"><ele>2026.0</ele><time>2026-05-02T12:26:58.496Z</time></trkpt><trkpt lat="46.17366178115673" lon="11.440212038060286"><ele>2026.0</ele><time>2026-05-02T12:26:59.496Z</time></trkpt><trkpt lat="46.17361615557107" lon="11.440336113145028"><ele>2026.0</ele><time>2026-05-02T12:27:00.496Z</time></trkpt><trkpt lat="46.17357559899542" lon="11.440461542403241"><ele>2026.0</ele><time>2026-05-02T12:27:01.496Z</time></trkpt><trkpt lat="46.17354137539197" lon="11.44057797863053"><ele>2026.0</ele><time>2026-05-02T12:27:02.496Z</time></trkpt><trkpt lat="46.17351315232184" lon="11.440682603425687"><ele>2026.0000000000002</ele><time>2026-05-02T12:27:03.496Z</time></trkpt><trkpt lat="46.173489982554756" lon="11.440786578675612"><ele>2026.0</ele><time>2026-05-02T12:27:04.496Z</time></trkpt><trkpt lat="46.17346631766949" lon="11.440885057405804"><ele>2026.0</ele><time>2026-05-02T12:27:05.496Z</time></trkpt><trkpt lat="46.173449267881736" lon="11.440980007106662"><ele>2026.0</ele><time>2026-05-02T12:27:06.496Z</time></trkpt><trkpt lat="46.17342021795535" lon="11.441120920909144"><ele>2026.0000000000002</ele><time>2026-05-02T12:27:08.496Z</time></trkpt><trkpt lat="46.17339022100114" lon="11.441238749600355"><ele>2026.0</ele><time>2026-05-02T12:27:10.496Z</time></trkpt><trkpt lat="46.173344781452016" lon="11.441314541208072"><ele>2027.6666666666667</ele><time>2026-05-02T12:27:12.496Z</time></trkpt><trkpt lat="46.173303506358835" lon="11.441394285252118"><ele>2029.3333333333335</ele><time>2026-05-02T12:27:15.496Z</time></trkpt><trkpt lat="46.173232056982165" lon="11.44150270641279"><ele>2031.0</ele><time>2026-05-02T12:27:18.496Z</time></trkpt><trkpt lat="46.17319075645611" lon="11.441604480989247"><ele>2032.6666666666665</ele><time>2026-05-02T12:27:20.496Z</time></trkpt><trkpt lat="46.17313173420892" lon="11.44168783119702"><ele>2034.3333333333333</ele><time>2026-05-02T12:27:24.496Z</time></trkpt><trkpt lat="46.17307892729037" lon="11.441779110171666"><ele>2036.0</ele><time>2026-05-02T12:27:42.496Z</time></trkpt><trkpt lat="46.173115796659566" lon="11.441919665346088"><ele>2033.1666666666665</ele><time>2026-05-02T12:27:46.496Z</time></trkpt><trkpt lat="46.17316557387174" lon="11.44207016422804"><ele>2030.3333333333333</ele><time>2026-05-02T12:27:48.496Z</time></trkpt><trkpt lat="46.17317706879092" lon="11.442170114742682"><ele>2027.5</ele><time>2026-05-02T12:27:49.496Z</time></trkpt><trkpt lat="46.17316847724671" lon="11.442276690203837"><ele>2024.6666666666665</ele><time>2026-05-02T12:27:50.496Z</time></trkpt><trkpt lat="46.173124204531675" lon="11.442378995623347"><ele>2021.8333333333333</ele><time>2026-05-02T12:27:51.496Z</time></trkpt><trkpt lat="46.173060207381894" lon="11.442465726809498"><ele>2019.0</ele><time>2026-05-02T12:27:52.496Z</time></trkpt><trkpt lat="46.17301556404427" lon="11.442575916921381"><ele>2019.0</ele><time>2026-05-02T12:27:53.496Z</time></trkpt><trkpt lat="46.172985844240834" lon="11.442705178664117"><ele>2019.0</ele><time>2026-05-02T12:27:54.496Z</time></trkpt><trkpt lat="46.17296203512274" lon="11.442831294682893"><ele>2019.0</ele><time>2026-05-02T12:27:55.496Z</time></trkpt><trkpt lat="46.17294153539355" lon="11.442965463633344"><ele>2019.0</ele><time>2026-05-02T12:27:56.496Z</time></trkpt><trkpt lat="46.1729120980572" lon="11.443088764620736"><ele>2019.0</ele><time>2026-05-02T12:27:57.496Z</time></trkpt><trkpt lat="46.17289562152014" lon="11.443205047423488"><ele>2018.4</ele><time>2026-05-02T12:27:58.496Z</time></trkpt><trkpt lat="46.17289533093237" lon="11.443326032596657"><ele>2017.8000000000002</ele><time>2026-05-02T12:27:59.496Z</time></trkpt><trkpt lat="46.17292498338077" lon="11.443466317765651"><ele>2017.1999999999998</ele><time>2026-05-02T12:28:00.496Z</time></trkpt><trkpt lat="46.1729689345387" lon="11.443611893958854"><ele>2016.6</ele><time>2026-05-02T12:28:01.496Z</time></trkpt><trkpt lat="46.17301388962768" lon="11.443753544135761"><ele>2016.0</ele><time>2026-05-02T12:28:02.496Z</time></trkpt><trkpt lat="46.173061723986045" lon="11.443885106502938"><ele>2015.5</ele><time>2026-05-02T12:28:03.496Z</time></trkpt><trkpt lat="46.17307656874267" lon="11.444023391218463"><ele>2015.0</ele><time>2026-05-02T12:28:04.496Z</time></trkpt><trkpt lat="46.173048781650735" lon="11.444159152960921"><ele>2014.5</ele><time>2026-05-02T12:28:05.496Z</time></trkpt><trkpt lat="46.17301652802589" lon="11.44427335814834"><ele>2014.0</ele><time>2026-05-02T12:28:06.496Z</time></trkpt><trkpt lat="46.17297171671919" lon="11.444372529094142"><ele>2013.5</ele><time>2026-05-02T12:28:07.496Z</time></trkpt><trkpt lat="46.1729170874926" lon="11.444442359461835"><ele>2013.0</ele><time>2026-05-02T12:28:08.496Z</time></trkpt><trkpt lat="46.17285132255015" lon="11.444482367700843"><ele>2013.0</ele><time>2026-05-02T12:28:09.496Z</time></trkpt><trkpt lat="46.17278200180318" lon="11.444508563875994"><ele>2013.0000000000002</ele><time>2026-05-02T12:28:10.496Z</time></trkpt><trkpt lat="46.1726956000031" lon="11.444482720553895"><ele>2013.0000000000002</ele><time>2026-05-02T12:28:11.496Z</time></trkpt><trkpt lat="46.17259682993565" lon="11.444429967319744"><ele>2013.0</ele><time>2026-05-02T12:28:12.496Z</time></trkpt><trkpt lat="46.17251699871274" lon="11.444366963384551"><ele>2013.0</ele><time>2026-05-02T12:28:13.496Z</time></trkpt><trkpt lat="46.17244078377555" lon="11.44424759010311"><ele>2013.0</ele><time>2026-05-02T12:28:14.496Z</time></trkpt><trkpt lat="46.17237355387506" lon="11.444128480681442"><ele>2013.0000000000002</ele><time>2026-05-02T12:28:15.496Z</time></trkpt><trkpt lat="46.172308762539764" lon="11.44402856553272"><ele>2013.0000000000002</ele><time>2026-05-02T12:28:16.496Z</time></trkpt><trkpt lat="46.172245863451" lon="11.443923581906098"><ele>2013.0</ele><time>2026-05-02T12:28:17.496Z</time></trkpt><trkpt lat="46.172193261420325" lon="11.443829575131655"><ele>2013.0</ele><time>2026-05-02T12:28:18.496Z</time></trkpt><trkpt lat="46.17214605915387" lon="11.443726707946604"><ele>2010.2</ele><time>2026-05-02T12:28:19.496Z</time></trkpt><trkpt lat="46.17212542482757" lon="11.443598201207257"><ele>2007.4</ele><time>2026-05-02T12:28:20.496Z</time></trkpt><trkpt lat="46.17221191333572" lon="11.443455220640653"><ele>2004.6000000000001</ele><time>2026-05-02T12:28:21.496Z</time></trkpt><trkpt lat="46.17216711103412" lon="11.443345117645551"><ele>2001.8000000000002</ele><time>2026-05-02T12:28:22.496Z</time></trkpt><trkpt lat="46.172122198119084" lon="11.443255090730066"><ele>1999.0</ele><time>2026-05-02T12:28:23.496Z</time></trkpt><trkpt lat="46.172065306584166" lon="11.443200791595807"><ele>1999.0</ele><time>2026-05-02T12:28:24.496Z</time></trkpt><trkpt lat="46.17197773949634" lon="11.443209803595272"><ele>1999.0</ele><time>2026-05-02T12:28:25.496Z</time></trkpt><trkpt lat="46.171876626194155" lon="11.443325912003054"><ele>1999.0</ele><time>2026-05-02T12:28:26.496Z</time></trkpt><trkpt lat="46.1718289841129" lon="11.443477109461842"><ele>1999.0</ele><time>2026-05-02T12:28:27.496Z</time></trkpt><trkpt lat="46.17178353153277" lon="11.443613080980573"><ele>1999.0</ele><time>2026-05-02T12:28:28.496Z</time></trkpt><trkpt lat="46.17172451773816" lon="11.443716927010406"><ele>1999.0000000000002</ele><time>2026-05-02T12:28:29.496Z</time></trkpt><trkpt lat="46.17168167603239" lon="11.443793571195489"><ele>1999.0</ele><time>2026-05-02T12:28:30.496Z</time></trkpt><trkpt lat="46.17164399664494" lon="11.443872581520711"><ele>1999.0</ele><time>2026-05-02T12:28:31.496Z</time></trkpt><trkpt lat="46.17159147127397" lon="11.44392590289057"><ele>1999.0</ele><time>2026-05-02T12:28:32.496Z</time></trkpt><trkpt lat="46.17152266697604" lon="11.443956241247122"><ele>1999.0000000000002</ele><time>2026-05-02T12:28:33.496Z</time></trkpt><trkpt lat="46.17138042178654" lon="11.443944135649115"><ele>1999.0</ele><time>2026-05-02T12:28:34.496Z</time></trkpt><trkpt lat="46.171221012863555" lon="11.443929496517567"><ele>1998.0</ele><time>2026-05-02T12:28:35.496Z</time></trkpt><trkpt lat="46.17110269961069" lon="11.443975362565098"><ele>1997.0</ele><time>2026-05-02T12:28:36.496Z</time></trkpt><trkpt lat="46.17099122871853" lon="11.44401694207657"><ele>1996.0</ele><time>2026-05-02T12:28:37.496Z</time></trkpt><trkpt lat="46.17086903180475" lon="11.444052718373158"><ele>1995.0</ele><time>2026-05-02T12:28:38.496Z</time></trkpt><trkpt lat="46.17076583019065" lon="11.444103931152409"><ele>1992.5</ele><time>2026-05-02T12:28:39.496Z</time></trkpt><trkpt lat="46.17065375388146" lon="11.444169460392562"><ele>1990.0</ele><time>2026-05-02T12:28:40.496Z</time></trkpt><trkpt lat="46.17055060896878" lon="11.44424215090684"><ele>1987.5</ele><time>2026-05-02T12:28:41.496Z</time></trkpt><trkpt lat="46.1704111148086" lon="11.444271699725817"><ele>1985.0</ele><time>2026-05-02T12:28:42.496Z</time></trkpt><trkpt lat="46.1702824941543" lon="11.444304263383207"><ele>1985.0</ele><time>2026-05-02T12:28:43.496Z</time></trkpt><trkpt lat="46.17015892862154" lon="11.444311374909592"><ele>1985.0</ele><time>2026-05-02T12:28:44.496Z</time></trkpt><trkpt lat="46.1700338259309" lon="11.444305395291497"><ele>1985.0</ele><time>2026-05-02T12:28:45.496Z</time></trkpt><trkpt lat="46.16992683314459" lon="11.444214372806032"><ele>1985.0</ele><time>2026-05-02T12:28:46.496Z</time></trkpt><trkpt lat="46.169845954339785" lon="11.444207198724802"><ele>1986.6</ele><time>2026-05-02T12:28:47.496Z</time></trkpt><trkpt lat="46.169742597453585" lon="11.444175622274729"><ele>1988.2</ele><time>2026-05-02T12:28:48.496Z</time></trkpt><trkpt lat="46.16963203968131" lon="11.444218135999582"><ele>1989.8000000000002</ele><time>2026-05-02T12:28:49.496Z</time></trkpt><trkpt lat="46.1695351381562" lon="11.444154832478539"><ele>1991.4</ele><time>2026-05-02T12:28:50.496Z</time></trkpt><trkpt lat="46.16944457242055" lon="11.444072597235406"><ele>1993.0</ele><time>2026-05-02T12:28:51.496Z</time></trkpt><trkpt lat="46.16932437848221" lon="11.443976987336345"><ele>1993.0</ele><time>2026-05-02T12:28:52.496Z</time></trkpt><trkpt lat="46.169227946439314" lon="11.443878816570699"><ele>1993.0</ele><time>2026-05-02T12:28:53.496Z</time></trkpt><trkpt lat="46.16912059528791" lon="11.443796370155571"><ele>1993.0</ele><time>2026-05-02T12:28:54.496Z</time></trkpt><trkpt lat="46.1690248113241" lon="11.44372873404468"><ele>1993.0</ele><time>2026-05-02T12:28:55.496Z</time></trkpt><trkpt lat="46.168925608889836" lon="11.443602860954286"><ele>1990.25</ele><time>2026-05-02T12:28:56.496Z</time></trkpt><trkpt lat="46.16885607216302" lon="11.443465702618981"><ele>1987.5</ele><time>2026-05-02T12:28:57.496Z</time></trkpt><trkpt lat="46.16878463118415" lon="11.443310995637436"><ele>1984.75</ele><time>2026-05-02T12:28:58.496Z</time></trkpt><trkpt lat="46.16869958203505" lon="11.443202173471207"><ele>1982.0</ele><time>2026-05-02T12:28:59.496Z</time></trkpt><trkpt lat="46.16861506884401" lon="11.443090502817967"><ele>1982.0</ele><time>2026-05-02T12:29:00.496Z</time></trkpt><trkpt lat="46.16852620994725" lon="11.442969849792217"><ele>1981.9999999999998</ele><time>2026-05-02T12:29:01.496Z</time></trkpt><trkpt lat="46.16843244448371" lon="11.442871046418377"><ele>1981.9999999999998</ele><time>2026-05-02T12:29:02.496Z</time></trkpt><trkpt lat="46.16834282678829" lon="11.442803989958202"><ele>1982.0</ele><time>2026-05-02T12:29:03.496Z</time></trkpt><trkpt lat="46.1682624488853" lon="11.442740041651165"><ele>1982.0</ele><time>2026-05-02T12:29:04.496Z</time></trkpt><trkpt lat="46.16818020177931" lon="11.442680470676097"><ele>1982.25</ele><time>2026-05-02T12:29:05.496Z</time></trkpt><trkpt lat="46.168094383371276" lon="11.442644222115904"><ele>1982.5</ele><time>2026-05-02T12:29:06.496Z</time></trkpt><trkpt lat="46.16815835758362" lon="11.442571735615807"><ele>1982.75</ele><time>2026-05-02T12:29:10.496Z</time></trkpt><trkpt lat="46.168347753589295" lon="11.442640028750475"><ele>1983.0</ele><time>2026-05-02T12:29:11.496Z</time></trkpt><trkpt lat="46.16843529370531" lon="11.442704497889906"><ele>1982.75</ele><time>2026-05-02T12:29:12.496Z</time></trkpt><trkpt lat="46.168541322201854" lon="11.44276849957969"><ele>1982.5</ele><time>2026-05-02T12:29:13.496Z</time></trkpt><trkpt lat="46.16865576228437" lon="11.442858594538349"><ele>1982.25</ele><time>2026-05-02T12:29:14.496Z</time></trkpt><trkpt lat="46.16878283293482" lon="11.442985309861744"><ele>1982.0</ele><time>2026-05-02T12:29:15.496Z</time></trkpt><trkpt lat="46.168916397919844" lon="11.443096362172286"><ele>1975.75</ele><time>2026-05-02T12:29:16.496Z</time></trkpt><trkpt lat="46.16905024874695" lon="11.443165711931034"><ele>1969.5</ele><time>2026-05-02T12:29:17.496Z</time></trkpt><trkpt lat="46.16917732067309" lon="11.443238955285517"><ele>1963.25</ele><time>2026-05-02T12:29:18.496Z</time></trkpt><trkpt lat="46.16930824320668" lon="11.4432931833954"><ele>1957.0</ele><time>2026-05-02T12:29:19.496Z</time></trkpt><trkpt lat="46.16944121904962" lon="11.443323387519484"><ele>1957.0</ele><time>2026-05-02T12:29:20.496Z</time></trkpt><trkpt lat="46.169566793250574" lon="11.443340340199045"><ele>1957.0</ele><time>2026-05-02T12:29:21.496Z</time></trkpt><trkpt lat="46.169695159021146" lon="11.443290424922472"><ele>1957.0</ele><time>2026-05-02T12:29:22.496Z</time></trkpt><trkpt lat="46.16982808337663" lon="11.443147091030703"><ele>1957.0</ele><time>2026-05-02T12:29:23.496Z</time></trkpt><trkpt lat="46.16993426479706" lon="11.443029630653424"><ele>1948.5</ele><time>2026-05-02T12:29:24.496Z</time></trkpt><trkpt lat="46.17005639635644" lon="11.44294103959712"><ele>1940.0</ele><time>2026-05-02T12:29:25.496Z</time></trkpt><trkpt lat="46.170195686478024" lon="11.442855118100594"><ele>1931.5</ele><time>2026-05-02T12:29:26.496Z</time></trkpt><trkpt lat="46.17032724866578" lon="11.442801984896759"><ele>1923.0</ele><time>2026-05-02T12:29:27.496Z</time></trkpt><trkpt lat="46.17042713421222" lon="11.44273833141197"><ele>1923.0</ele><time>2026-05-02T12:29:28.496Z</time></trkpt><trkpt lat="46.17051016728877" lon="11.442671176014711"><ele>1923.0000000000002</ele><time>2026-05-02T12:29:29.496Z</time></trkpt><trkpt lat="46.1705773182135" lon="11.442565594941723"><ele>1923.0000000000002</ele><time>2026-05-02T12:29:30.496Z</time></trkpt><trkpt lat="46.170618311384935" lon="11.442404396264202"><ele>1923.0</ele><time>2026-05-02T12:29:31.496Z</time></trkpt><trkpt lat="46.170628795537176" lon="11.442240020989976"><ele>1923.0</ele><time>2026-05-02T12:29:32.496Z</time></trkpt><trkpt lat="46.170674316693905" lon="11.442095177289447"><ele>1921.25</ele><time>2026-05-02T12:29:33.496Z</time></trkpt><trkpt lat="46.17074623766769" lon="11.441955053233709"><ele>1919.5</ele><time>2026-05-02T12:29:34.496Z</time></trkpt><trkpt lat="46.17082837936466" lon="11.441813523554575"><ele>1917.75</ele><time>2026-05-02T12:29:35.496Z</time></trkpt><trkpt lat="46.17095995363299" lon="11.441659690887137"><ele>1916.0</ele><time>2026-05-02T12:29:36.496Z</time></trkpt><trkpt lat="46.171054892828394" lon="11.44148784750746"><ele>1916.0</ele><time>2026-05-02T12:29:37.496Z</time></trkpt><trkpt lat="46.17115128376101" lon="11.441332397393996"><ele>1916.0</ele><time>2026-05-02T12:29:38.496Z</time></trkpt><trkpt lat="46.171265330930176" lon="11.441196054980116"><ele>1916.0</ele><time>2026-05-02T12:29:39.496Z</time></trkpt><trkpt lat="46.171376748674625" lon="11.441072182050776"><ele>1916.0</ele><time>2026-05-02T12:29:40.496Z</time></trkpt><trkpt lat="46.17145148270239" lon="11.44092423776061"><ele>1915.0</ele><time>2026-05-02T12:29:41.496Z</time></trkpt><trkpt lat="46.171521332434914" lon="11.440747093479912"><ele>1914.0</ele><time>2026-05-02T12:29:42.496Z</time></trkpt><trkpt lat="46.17154538346167" lon="11.440525932191003"><ele>1913.0</ele><time>2026-05-02T12:29:43.496Z</time></trkpt><trkpt lat="46.17158688569188" lon="11.440299406439982"><ele>1913.0</ele><time>2026-05-02T12:29:44.496Z</time></trkpt><trkpt lat="46.17161562555377" lon="11.44004040921762"><ele>1913.0</ele><time>2026-05-02T12:29:45.496Z</time></trkpt><trkpt lat="46.171609026380686" lon="11.439767769754342"><ele>1913.0</ele><time>2026-05-02T12:29:46.496Z</time></trkpt><trkpt lat="46.17163796706352" lon="11.439537867128967"><ele>1912.0</ele><time>2026-05-02T12:29:47.496Z</time></trkpt><trkpt lat="46.17166060262732" lon="11.439333292480585"><ele>1911.0</ele><time>2026-05-02T12:29:48.496Z</time></trkpt><trkpt lat="46.17164882365139" lon="11.43913205857585"><ele>1910.0</ele><time>2026-05-02T12:29:49.496Z</time></trkpt><trkpt lat="46.17164171424121" lon="11.438922857625323"><ele>1909.0</ele><time>2026-05-02T12:29:50.496Z</time></trkpt><trkpt lat="46.17162437232161" lon="11.438708839523544"><ele>1909.0</ele><time>2026-05-02T12:29:51.496Z</time></trkpt><trkpt lat="46.17156970887556" lon="11.438494049408733"><ele>1909.0</ele><time>2026-05-02T12:29:52.496Z</time></trkpt><trkpt lat="46.17152747874345" lon="11.438276791747764"><ele>1909.0</ele><time>2026-05-02T12:29:53.496Z</time></trkpt><trkpt lat="46.171461283686405" lon="11.438057870474852"><ele>1897.5</ele><time>2026-05-02T12:29:54.496Z</time></trkpt><trkpt lat="46.17139237037751" lon="11.437874197665154"><ele>1886.0</ele><time>2026-05-02T12:29:55.496Z</time></trkpt><trkpt lat="46.17132489963796" lon="11.437694657138827"><ele>1874.5</ele><time>2026-05-02T12:29:56.496Z</time></trkpt><trkpt lat="46.17126918262569" lon="11.437535741598188"><ele>1863.0</ele><time>2026-05-02T12:29:57.496Z</time></trkpt><trkpt lat="46.171215104383656" lon="11.437394645805878"><ele>1863.0</ele><time>2026-05-02T12:29:58.496Z</time></trkpt><trkpt lat="46.17115559327674" lon="11.43723631229129"><ele>1863.0</ele><time>2026-05-02T12:29:59.496Z</time></trkpt><trkpt lat="46.171076368280666" lon="11.437079389790172"><ele>1863.0</ele><time>2026-05-02T12:30:00.496Z</time></trkpt><trkpt lat="46.17098928089052" lon="11.4369182299082"><ele>1863.0</ele><time>2026-05-02T12:30:01.496Z</time></trkpt><trkpt lat="46.17088989378344" lon="11.43677354898341"><ele>1857.0</ele><time>2026-05-02T12:30:02.496Z</time></trkpt><trkpt lat="46.17079955272283" lon="11.436623361792783"><ele>1851.0</ele><time>2026-05-02T12:30:03.496Z</time></trkpt><trkpt lat="46.17067166522153" lon="11.43650125021494"><ele>1845.0</ele><time>2026-05-02T12:30:04.496Z</time></trkpt><trkpt lat="46.1705408004663" lon="11.436363372469783"><ele>1851.5</ele><time>2026-05-02T12:30:05.496Z</time></trkpt><trkpt lat="46.17043456035235" lon="11.436233431938303"><ele>1858.0</ele><time>2026-05-02T12:30:06.496Z</time></trkpt><trkpt lat="46.170349194026045" lon="11.43613891485265"><ele>1864.5</ele><time>2026-05-02T12:30:07.496Z</time></trkpt><trkpt lat="46.17024116786198" lon="11.436026144127547"><ele>1871.0</ele><time>2026-05-02T12:30:08.496Z</time></trkpt><trkpt lat="46.17012101628785" lon="11.435936705615989"><ele>1871.0</ele><time>2026-05-02T12:30:09.496Z</time></trkpt><trkpt lat="46.170037340984216" lon="11.435836149183597"><ele>1871.0</ele><time>2026-05-02T12:30:10.496Z</time></trkpt><trkpt lat="46.16995354249289" lon="11.435728707884875"><ele>1871.0</ele><time>2026-05-02T12:30:11.496Z</time></trkpt><trkpt lat="46.16987523519681" lon="11.435590904543798"><ele>1871.0</ele><time>2026-05-02T12:30:12.496Z</time></trkpt><trkpt lat="46.16977430095955" lon="11.435514405100673"><ele>1868.5</ele><time>2026-05-02T12:30:13.496Z</time></trkpt><trkpt lat="46.16966332027084" lon="11.435459568025452"><ele>1866.0</ele><time>2026-05-02T12:30:14.496Z</time></trkpt><trkpt lat="46.16957083230765" lon="11.435398932221014"><ele>1863.5</ele><time>2026-05-02T12:30:15.496Z</time></trkpt><trkpt lat="46.1694931994722" lon="11.435329927813301"><ele>1861.0</ele><time>2026-05-02T12:30:16.496Z</time></trkpt><trkpt lat="46.16939424008765" lon="11.435185625433425"><ele>1861.0000000000002</ele><time>2026-05-02T12:30:18.496Z</time></trkpt><trkpt lat="46.169339441802514" lon="11.435096943957126"><ele>1861.0</ele><time>2026-05-02T12:30:19.496Z</time></trkpt><trkpt lat="46.16930391269721" lon="11.434992598558996"><ele>1861.0</ele><time>2026-05-02T12:30:20.496Z</time></trkpt><trkpt lat="46.16927192635608" lon="11.434907220546902"><ele>1861.0</ele><time>2026-05-02T12:30:22.496Z</time></trkpt><trkpt lat="46.16919988422604" lon="11.434955667388625"><ele>1861.0000000000002</ele><time>2026-05-02T12:30:23.497Z</time></trkpt><trkpt lat="46.16915600909706" lon="11.435034714011556"><ele>1861.0</ele><time>2026-05-02T12:30:24.497Z</time></trkpt><trkpt lat="46.16925074127218" lon="11.435198347428658"><ele>1861.0</ele><time>2026-05-02T12:30:25.497Z</time></trkpt><trkpt lat="46.169310979164166" lon="11.435310515811501"><ele>1861.0</ele><time>2026-05-02T12:30:26.497Z</time></trkpt><trkpt lat="46.16936790463473" lon="11.435438448475646"><ele>1861.0</ele><time>2026-05-02T12:30:27.497Z</time></trkpt><trkpt lat="46.16942370120459" lon="11.4355510025174"><ele>1861.0</ele><time>2026-05-02T12:30:28.497Z</time></trkpt><trkpt lat="46.16949874908216" lon="11.435653500868584"><ele>1861.0</ele><time>2026-05-02T12:30:29.497Z</time></trkpt><trkpt lat="46.169572829267686" lon="11.435765092085626"><ele>1854.1999999999998</ele><time>2026-05-02T12:30:30.497Z</time></trkpt><trkpt lat="46.16963950235781" lon="11.435876385903711"><ele>1847.3999999999999</ele><time>2026-05-02T12:30:31.497Z</time></trkpt><trkpt lat="46.169682585069985" lon="11.436010605795792"><ele>1840.6</ele><time>2026-05-02T12:30:32.497Z</time></trkpt><trkpt lat="46.169724307531375" lon="11.436152464853157"><ele>1833.8</ele><time>2026-05-02T12:30:33.497Z</time></trkpt><trkpt lat="46.16974189601502" lon="11.436321400569597"><ele>1827.0</ele><time>2026-05-02T12:30:34.497Z</time></trkpt><trkpt lat="46.169819631309736" lon="11.436454578262852"><ele>1831.5</ele><time>2026-05-02T12:30:35.497Z</time></trkpt><trkpt lat="46.16990953948514" lon="11.436600340013909"><ele>1836.0</ele><time>2026-05-02T12:30:36.497Z</time></trkpt><trkpt lat="46.170009867739324" lon="11.436752007035565"><ele>1840.5</ele><time>2026-05-02T12:30:37.497Z</time></trkpt><trkpt lat="46.17007414115712" lon="11.43691123494916"><ele>1845.0</ele><time>2026-05-02T12:30:38.497Z</time></trkpt><trkpt lat="46.17012590073235" lon="11.437096175424143"><ele>1839.5</ele><time>2026-05-02T12:30:39.497Z</time></trkpt><trkpt lat="46.17020049974341" lon="11.437251119695313"><ele>1834.0</ele><time>2026-05-02T12:30:40.497Z</time></trkpt><trkpt lat="46.17028444968261" lon="11.437406549436071"><ele>1828.5</ele><time>2026-05-02T12:30:41.497Z</time></trkpt><trkpt lat="46.17037112802562" lon="11.437549815433526"><ele>1823.0</ele><time>2026-05-02T12:30:42.497Z</time></trkpt><trkpt lat="46.17043869466508" lon="11.437700534874446"><ele>1823.0</ele><time>2026-05-02T12:30:43.497Z</time></trkpt><trkpt lat="46.170489285481345" lon="11.437872406156353"><ele>1823.0</ele><time>2026-05-02T12:30:44.497Z</time></trkpt><trkpt lat="46.17049141899792" lon="11.438040390793027"><ele>1823.0</ele><time>2026-05-02T12:30:45.497Z</time></trkpt><trkpt lat="46.170476881034986" lon="11.438224439628907"><ele>1823.0</ele><time>2026-05-02T12:30:46.497Z</time></trkpt><trkpt lat="46.17044057133493" lon="11.43842592665795"><ele>1821.6666666666665</ele><time>2026-05-02T12:30:47.497Z</time></trkpt><trkpt lat="46.17035827833602" lon="11.438613996967069"><ele>1820.3333333333335</ele><time>2026-05-02T12:30:48.497Z</time></trkpt><trkpt lat="46.17028912058177" lon="11.438799289680526"><ele>1819.0</ele><time>2026-05-02T12:30:49.497Z</time></trkpt><trkpt lat="46.170203750282425" lon="11.438981752820599"><ele>1819.0000000000002</ele><time>2026-05-02T12:30:50.497Z</time></trkpt><trkpt lat="46.170149493582386" lon="11.439133653139415"><ele>1819.0</ele><time>2026-05-02T12:30:51.497Z</time></trkpt><trkpt lat="46.17008885615799" lon="11.439223496607351"><ele>1819.0</ele><time>2026-05-02T12:30:52.497Z</time></trkpt><trkpt lat="46.170036513422744" lon="11.43928678268528"><ele>1819.0</ele><time>2026-05-02T12:30:53.497Z</time></trkpt><trkpt lat="46.16995455759086" lon="11.439282089185083"><ele>1819.0000000000002</ele><time>2026-05-02T12:30:54.497Z</time></trkpt><trkpt lat="46.16989929065225" lon="11.439234179549722"><ele>1819.0</ele><time>2026-05-02T12:30:55.497Z</time></trkpt><trkpt lat="46.169822642404775" lon="11.439147907746323"><ele>1819.0</ele><time>2026-05-02T12:30:56.497Z</time></trkpt><trkpt lat="46.16974182572253" lon="11.438999352370422"><ele>1819.0</ele><time>2026-05-02T12:30:58.497Z</time></trkpt><trkpt lat="46.169781122433655" lon="11.438863750459085"><ele>1819.0</ele><time>2026-05-02T12:30:59.497Z</time></trkpt><trkpt lat="46.16994707234229" lon="11.438805079329178"><ele>1819.0</ele><time>2026-05-02T12:31:00.497Z</time></trkpt><trkpt lat="46.17012506790178" lon="11.438723896148458"><ele>1817.5</ele><time>2026-05-02T12:31:01.497Z</time></trkpt><trkpt lat="46.17014126123382" lon="11.4385807215846"><ele>1816.0</ele><time>2026-05-02T12:31:02.497Z</time></trkpt><trkpt lat="46.17013093047464" lon="11.43840722413334"><ele>1814.5</ele><time>2026-05-02T12:31:03.497Z</time></trkpt><trkpt lat="46.17011467987118" lon="11.438243532415875"><ele>1813.0</ele><time>2026-05-02T12:31:04.497Z</time></trkpt><trkpt lat="46.17001645374027" lon="11.438080356888008"><ele>1816.3333333333335</ele><time>2026-05-02T12:31:05.497Z</time></trkpt><trkpt lat="46.16989397110003" lon="11.437933247704438"><ele>1819.6666666666665</ele><time>2026-05-02T12:31:06.497Z</time></trkpt><trkpt lat="46.1697415420057" lon="11.437810402315424"><ele>1823.0</ele><time>2026-05-02T12:31:07.497Z</time></trkpt><trkpt lat="46.169593531317304" lon="11.43770926606254"><ele>1816.25</ele><time>2026-05-02T12:31:08.497Z</time></trkpt><trkpt lat="46.16947297383612" lon="11.437591873387358"><ele>1809.5</ele><time>2026-05-02T12:31:09.497Z</time></trkpt><trkpt lat="46.16936387561949" lon="11.437552458633359"><ele>1802.75</ele><time>2026-05-02T12:31:10.497Z</time></trkpt><trkpt lat="46.16925286915578" lon="11.437516596971152"><ele>1796.0</ele><time>2026-05-02T12:31:11.497Z</time></trkpt><trkpt lat="46.16915337926554" lon="11.437473957487146"><ele>1796.0</ele><time>2026-05-02T12:31:12.497Z</time></trkpt><trkpt lat="46.16907201604342" lon="11.437436975379384"><ele>1796.0</ele><time>2026-05-02T12:31:13.497Z</time></trkpt><trkpt lat="46.16901464801503" lon="11.437386121871373"><ele>1796.0</ele><time>2026-05-02T12:31:14.497Z</time></trkpt><trkpt lat="46.16895160160295" lon="11.437328379561098"><ele>1796.0</ele><time>2026-05-02T12:31:15.497Z</time></trkpt><trkpt lat="46.1689038992496" lon="11.437062350276031"><ele>1796.0</ele><time>2026-05-02T12:31:16.497Z</time></trkpt><trkpt lat="46.1688656989553" lon="11.436922331428255"><ele>1787.3333333333333</ele><time>2026-05-02T12:31:17.497Z</time></trkpt><trkpt lat="46.168757028319575" lon="11.436764098025112"><ele>1778.6666666666665</ele><time>2026-05-02T12:31:18.497Z</time></trkpt><trkpt lat="46.168650997968264" lon="11.436607276136147"><ele>1770.0</ele><time>2026-05-02T12:31:19.497Z</time></trkpt><trkpt lat="46.16854802222364" lon="11.436426623098491"><ele>1766.0</ele><time>2026-05-02T12:31:20.497Z</time></trkpt><trkpt lat="46.168420470799354" lon="11.43624015006579"><ele>1762.0</ele><time>2026-05-02T12:31:21.497Z</time></trkpt><trkpt lat="46.168287080002784" lon="11.436114120782095"><ele>1758.0</ele><time>2026-05-02T12:31:22.497Z</time></trkpt><trkpt lat="46.16815682865457" lon="11.435966575141256"><ele>1758.0</ele><time>2026-05-02T12:31:23.497Z</time></trkpt><trkpt lat="46.168027822696956" lon="11.435834400964533"><ele>1758.0</ele><time>2026-05-02T12:31:24.497Z</time></trkpt><trkpt lat="46.167900481161766" lon="11.43572645869038"><ele>1758.0</ele><time>2026-05-02T12:31:25.497Z</time></trkpt><trkpt lat="46.16779152147531" lon="11.435617227496397"><ele>1758.0</ele><time>2026-05-02T12:31:26.497Z</time></trkpt><trkpt lat="46.16771700305113" lon="11.435501784674278"><ele>1758.0</ele><time>2026-05-02T12:31:27.497Z</time></trkpt><trkpt lat="46.16764616288696" lon="11.435397713920233"><ele>1758.0</ele><time>2026-05-02T12:31:28.497Z</time></trkpt><trkpt lat="46.167583473286115" lon="11.435351043233895"><ele>1758.0</ele><time>2026-05-02T12:31:30.497Z</time></trkpt><trkpt lat="46.16755712824707" lon="11.435490458803185"><ele>1758.0</ele><time>2026-05-02T12:31:32.497Z</time></trkpt><trkpt lat="46.167599900452906" lon="11.435594682328642"><ele>1758.0</ele><time>2026-05-02T12:31:33.497Z</time></trkpt><trkpt lat="46.16767453435357" lon="11.435655770670907"><ele>1758.0</ele><time>2026-05-02T12:31:34.497Z</time></trkpt><trkpt lat="46.167739751966145" lon="11.43574178258281"><ele>1758.0</ele><time>2026-05-02T12:31:35.497Z</time></trkpt><trkpt lat="46.167794320924614" lon="11.435849798163762"><ele>1758.0000000000002</ele><time>2026-05-02T12:31:36.497Z</time></trkpt><trkpt lat="46.16783248187239" lon="11.436002949274334"><ele>1758.0000000000002</ele><time>2026-05-02T12:31:37.497Z</time></trkpt><trkpt lat="46.16785974684493" lon="11.436144939113847"><ele>1758.0</ele><time>2026-05-02T12:31:38.497Z</time></trkpt><trkpt lat="46.1679056155825" lon="11.4362812650407"><ele>1758.0</ele><time>2026-05-02T12:31:39.497Z</time></trkpt><trkpt lat="46.167969667381364" lon="11.436393657464578"><ele>1756.0</ele><time>2026-05-02T12:31:40.497Z</time></trkpt><trkpt lat="46.16805974205274" lon="11.436459264139415"><ele>1754.0000000000002</ele><time>2026-05-02T12:31:41.497Z</time></trkpt><trkpt lat="46.168128785131685" lon="11.436530822231141"><ele>1752.0000000000002</ele><time>2026-05-02T12:31:42.497Z</time></trkpt><trkpt lat="46.16816146972261" lon="11.436660131988605"><ele>1750.0</ele><time>2026-05-02T12:31:44.497Z</time></trkpt><trkpt lat="46.1680857171292" lon="11.436707198052666"><ele>1748.0</ele><time>2026-05-02T12:31:46.497Z</time></trkpt><trkpt lat="46.16794370096988" lon="11.436587442373998"><ele>1748.0</ele><time>2026-05-02T12:31:48.497Z</time></trkpt><trkpt lat="46.167827195656365" lon="11.436510671278365"><ele>1748.0</ele><time>2026-05-02T12:31:49.497Z</time></trkpt><trkpt lat="46.167722915231685" lon="11.43645576264732"><ele>1748.0</ele><time>2026-05-02T12:31:50.497Z</time></trkpt><trkpt lat="46.1675938983244" lon="11.436308094307329"><ele>1748.0</ele><time>2026-05-02T12:31:51.497Z</time></trkpt><trkpt lat="46.16747389487035" lon="11.436226115226473"><ele>1745.25</ele><time>2026-05-02T12:31:52.497Z</time></trkpt><trkpt lat="46.16736058391119" lon="11.436131537495369"><ele>1742.5</ele><time>2026-05-02T12:31:53.497Z</time></trkpt><trkpt lat="46.16724394016032" lon="11.436050132179448"><ele>1739.75</ele><time>2026-05-02T12:31:54.497Z</time></trkpt><trkpt lat="46.167114793676" lon="11.435988494003736"><ele>1737.0</ele><time>2026-05-02T12:31:55.497Z</time></trkpt><trkpt lat="46.16698155262232" lon="11.435966045250401"><ele>1737.0</ele><time>2026-05-02T12:31:56.497Z</time></trkpt><trkpt lat="46.16687057702577" lon="11.436004473210154"><ele>1736.9999999999998</ele><time>2026-05-02T12:31:57.497Z</time></trkpt><trkpt lat="46.166747081686104" lon="11.436032467734274"><ele>1736.9999999999998</ele><time>2026-05-02T12:31:58.497Z</time></trkpt><trkpt lat="46.16666386898509" lon="11.436068907776948"><ele>1737.0</ele><time>2026-05-02T12:31:59.497Z</time></trkpt><trkpt lat="46.16658290090468" lon="11.436126164161825"><ele>1737.0</ele><time>2026-05-02T12:32:00.497Z</time></trkpt><trkpt lat="46.16650740754584" lon="11.436116224357448"><ele>1734.3999999999999</ele><time>2026-05-02T12:32:01.497Z</time></trkpt><trkpt lat="46.16640465056552" lon="11.436001787164193"><ele>1731.7999999999997</ele><time>2026-05-02T12:32:03.497Z</time></trkpt><trkpt lat="46.16640921610868" lon="11.43582343715033"><ele>1729.2</ele><time>2026-05-02T12:32:04.497Z</time></trkpt><trkpt lat="46.166402588719976" lon="11.435711364165547"><ele>1726.6</ele><time>2026-05-02T12:32:05.497Z</time></trkpt><trkpt lat="46.16634110326907" lon="11.435633740708674"><ele>1724.0</ele><time>2026-05-02T12:32:06.497Z</time></trkpt><trkpt lat="46.166242430598224" lon="11.435611489436745"><ele>1723.9999999999998</ele><time>2026-05-02T12:32:07.497Z</time></trkpt><trkpt lat="46.16616223887345" lon="11.435576851115565"><ele>1724.0</ele><time>2026-05-02T12:32:08.497Z</time></trkpt><trkpt lat="46.166073278669714" lon="11.435543020727561"><ele>1724.0</ele><time>2026-05-02T12:32:09.497Z</time></trkpt><trkpt lat="46.16599875763008" lon="11.43550666054636"><ele>1724.0</ele><time>2026-05-02T12:32:10.497Z</time></trkpt><trkpt lat="46.16592016242959" lon="11.435441384776862"><ele>1723.9999999999998</ele><time>2026-05-02T12:32:11.497Z</time></trkpt><trkpt lat="46.165850898723846" lon="11.435336181449555"><ele>1724.0</ele><time>2026-05-02T12:32:12.497Z</time></trkpt><trkpt lat="46.16578110447718" lon="11.435185761227032"><ele>1725.2</ele><time>2026-05-02T12:32:13.497Z</time></trkpt><trkpt lat="46.16572248886176" lon="11.435068428101014"><ele>1726.4</ele><time>2026-05-02T12:32:14.497Z</time></trkpt><trkpt lat="46.16567551916017" lon="11.434948245389537"><ele>1727.6</ele><time>2026-05-02T12:32:15.497Z</time></trkpt><trkpt lat="46.16562945571031" lon="11.434832755079386"><ele>1728.8</ele><time>2026-05-02T12:32:16.497Z</time></trkpt><trkpt lat="46.16564501177294" lon="11.43470654962876"><ele>1730.0</ele><time>2026-05-02T12:32:17.497Z</time></trkpt><trkpt lat="46.165729923596594" lon="11.434566345476929"><ele>1732.4</ele><time>2026-05-02T12:32:18.497Z</time></trkpt><trkpt lat="46.165737941577206" lon="11.434437248385503"><ele>1734.8</ele><time>2026-05-02T12:32:19.497Z</time></trkpt><trkpt lat="46.16572677579663" lon="11.434313267021416"><ele>1737.1999999999998</ele><time>2026-05-02T12:32:20.497Z</time></trkpt><trkpt lat="46.165663647626396" lon="11.434174741488583"><ele>1739.6</ele><time>2026-05-02T12:32:21.497Z</time></trkpt><trkpt lat="46.16557297613331" lon="11.434038537896944"><ele>1742.0</ele><time>2026-05-02T12:32:22.497Z</time></trkpt><trkpt lat="46.16550735605308" lon="11.433897825954457"><ele>1734.6</ele><time>2026-05-02T12:32:23.497Z</time></trkpt><trkpt lat="46.16546133536844" lon="11.433766635164774"><ele>1727.1999999999998</ele><time>2026-05-02T12:32:24.497Z</time></trkpt><trkpt lat="46.16540218696949" lon="11.433636445197612"><ele>1719.8</ele><time>2026-05-02T12:32:25.497Z</time></trkpt><trkpt lat="46.16534440306845" lon="11.433511145140304"><ele>1712.4</ele><time>2026-05-02T12:32:26.497Z</time></trkpt><trkpt lat="46.16530324534255" lon="11.433396370259961"><ele>1705.0</ele><time>2026-05-02T12:32:27.497Z</time></trkpt><trkpt lat="46.165271739762964" lon="11.43329013462387"><ele>1705.0000000000002</ele><time>2026-05-02T12:32:28.497Z</time></trkpt><trkpt lat="46.16530739316691" lon="11.433182449628857"><ele>1705.0</ele><time>2026-05-02T12:32:29.497Z</time></trkpt><trkpt lat="46.16528594941786" lon="11.433092267666808"><ele>1705.0</ele><time>2026-05-02T12:32:31.497Z</time></trkpt><trkpt lat="46.1652153211348" lon="11.433158088470723"><ele>1705.0</ele><time>2026-05-02T12:32:32.497Z</time></trkpt><trkpt lat="46.165199293801734" lon="11.433261825652876"><ele>1705.0000000000002</ele><time>2026-05-02T12:32:33.497Z</time></trkpt><trkpt lat="46.16521663756802" lon="11.433422113644104"><ele>1705.0</ele><time>2026-05-02T12:32:34.497Z</time></trkpt><trkpt lat="46.16523490099214" lon="11.433588381901485"><ele>1705.0</ele><time>2026-05-02T12:32:35.497Z</time></trkpt><trkpt lat="46.16525250379236" lon="11.43374123202334"><ele>1705.0</ele><time>2026-05-02T12:32:36.497Z</time></trkpt><trkpt lat="46.165265932354934" lon="11.43388740430767"><ele>1705.0</ele><time>2026-05-02T12:32:37.497Z</time></trkpt><trkpt lat="46.165322337621824" lon="11.434037820611803"><ele>1705.0</ele><time>2026-05-02T12:32:38.497Z</time></trkpt><trkpt lat="46.16533819641203" lon="11.434189876282389"><ele>1705.0</ele><time>2026-05-02T12:32:39.497Z</time></trkpt><trkpt lat="46.165357000180315" lon="11.43434796229648"><ele>1702.6</ele><time>2026-05-02T12:32:40.497Z</time></trkpt><trkpt lat="46.16538850844304" lon="11.43449003427218"><ele>1700.2</ele><time>2026-05-02T12:32:41.497Z</time></trkpt><trkpt lat="46.16539197504876" lon="11.434624926442934"><ele>1697.8000000000002</ele><time>2026-05-02T12:32:42.497Z</time></trkpt><trkpt lat="46.16536729763362" lon="11.434746593057111"><ele>1695.4</ele><time>2026-05-02T12:32:43.497Z</time></trkpt><trkpt lat="46.16533327121151" lon="11.434856071564328"><ele>1693.0</ele><time>2026-05-02T12:32:44.497Z</time></trkpt><trkpt lat="46.16530556135171" lon="11.434973625080707"><ele>1693.0</ele><time>2026-05-02T12:32:45.497Z</time></trkpt><trkpt lat="46.165238421440606" lon="11.435083873220329"><ele>1693.0</ele><time>2026-05-02T12:32:46.497Z</time></trkpt><trkpt lat="46.165238334337566" lon="11.435195753116048"><ele>1693.0</ele><time>2026-05-02T12:32:47.497Z</time></trkpt><trkpt lat="46.165191572722655" lon="11.435280540481982"><ele>1693.0</ele><time>2026-05-02T12:32:49.497Z</time></trkpt><trkpt lat="46.16511070081785" lon="11.435241847480492"><ele>1693.0</ele><time>2026-05-02T12:32:51.497Z</time></trkpt><trkpt lat="46.16512252329156" lon="11.434965968052719"><ele>1693.0</ele><time>2026-05-02T12:32:53.497Z</time></trkpt><trkpt lat="46.165156375346754" lon="11.434831338493087"><ele>1693.0</ele><time>2026-05-02T12:32:54.497Z</time></trkpt><trkpt lat="46.16517498928314" lon="11.434683581489278"><ele>1693.0</ele><time>2026-05-02T12:32:55.497Z</time></trkpt><trkpt lat="46.16515213848492" lon="11.434546978733728"><ele>1693.0</ele><time>2026-05-02T12:32:56.497Z</time></trkpt><trkpt lat="46.16512129406702" lon="11.434399853475895"><ele>1693.0</ele><time>2026-05-02T12:32:57.497Z</time></trkpt><trkpt lat="46.16509667843426" lon="11.43423583481003"><ele>1692.25</ele><time>2026-05-02T12:32:58.497Z</time></trkpt><trkpt lat="46.165047076736506" lon="11.434057467147316"><ele>1691.5</ele><time>2026-05-02T12:32:59.497Z</time></trkpt><trkpt lat="46.16495318224497" lon="11.433903801741504"><ele>1690.75</ele><time>2026-05-02T12:33:00.497Z</time></trkpt><trkpt lat="46.16489978100632" lon="11.433725643270293"><ele>1690.0</ele><time>2026-05-02T12:33:01.497Z</time></trkpt><trkpt lat="46.16480288194948" lon="11.433552153701244"><ele>1683.25</ele><time>2026-05-02T12:33:02.497Z</time></trkpt><trkpt lat="46.1646904260522" lon="11.433418784527799"><ele>1676.5</ele><time>2026-05-02T12:33:03.497Z</time></trkpt><trkpt lat="46.16458329278851" lon="11.433297541082451"><ele>1669.75</ele><time>2026-05-02T12:33:04.497Z</time></trkpt><trkpt lat="46.164506416321345" lon="11.433151192302857"><ele>1663.0</ele><time>2026-05-02T12:33:05.497Z</time></trkpt><trkpt lat="46.16439914376685" lon="11.433038079064879"><ele>1668.75</ele><time>2026-05-02T12:33:06.497Z</time></trkpt><trkpt lat="46.16427902165614" lon="11.432939964335407"><ele>1674.5</ele><time>2026-05-02T12:33:07.497Z</time></trkpt><trkpt lat="46.16418965846845" lon="11.432834581457682"><ele>1680.25</ele><time>2026-05-02T12:33:08.497Z</time></trkpt><trkpt lat="46.16412139426423" lon="11.432739027494067"><ele>1686.0</ele><time>2026-05-02T12:33:09.497Z</time></trkpt><trkpt lat="46.164045554465865" lon="11.4326402902984"><ele>1679.4</ele><time>2026-05-02T12:33:10.497Z</time></trkpt><trkpt lat="46.164015784306244" lon="11.432522240701315"><ele>1672.8</ele><time>2026-05-02T12:33:11.497Z</time></trkpt><trkpt lat="46.163987786688104" lon="11.432384445851213"><ele>1666.2</ele><time>2026-05-02T12:33:12.497Z</time></trkpt><trkpt lat="46.16398332758973" lon="11.43226733064072"><ele>1659.6000000000001</ele><time>2026-05-02T12:33:13.497Z</time></trkpt><trkpt lat="46.16391242431959" lon="11.432155042897843"><ele>1653.0</ele><time>2026-05-02T12:33:15.497Z</time></trkpt><trkpt lat="46.16379404287022" lon="11.432321269086522"><ele>1653.0</ele><time>2026-05-02T12:33:17.497Z</time></trkpt><trkpt lat="46.16385944831698" lon="11.432461920213822"><ele>1653.0</ele><time>2026-05-02T12:33:18.497Z</time></trkpt><trkpt lat="46.1638989684052" lon="11.432582151122197"><ele>1653.0</ele><time>2026-05-02T12:33:19.497Z</time></trkpt><trkpt lat="46.163979637392885" lon="11.4327688014157"><ele>1653.0</ele><time>2026-05-02T12:33:20.497Z</time></trkpt><trkpt lat="46.16402123619925" lon="11.432940831189258"><ele>1655.5</ele><time>2026-05-02T12:33:21.497Z</time></trkpt><trkpt lat="46.16405941217834" lon="11.433097517565505"><ele>1658.0</ele><time>2026-05-02T12:33:22.497Z</time></trkpt><trkpt lat="46.1640943840983" lon="11.433249142634516"><ele>1660.5</ele><time>2026-05-02T12:33:23.497Z</time></trkpt><trkpt lat="46.164110042038985" lon="11.433395927813631"><ele>1663.0</ele><time>2026-05-02T12:33:24.497Z</time></trkpt><trkpt lat="46.164092775496414" lon="11.433577972619771"><ele>1663.0</ele><time>2026-05-02T12:33:25.497Z</time></trkpt><trkpt lat="46.16407875342168" lon="11.433727012931438"><ele>1663.0</ele><time>2026-05-02T12:33:26.497Z</time></trkpt><trkpt lat="46.16406722814306" lon="11.43391030467817"><ele>1663.0</ele><time>2026-05-02T12:33:27.497Z</time></trkpt><trkpt lat="46.16410807639435" lon="11.434055627998578"><ele>1663.0</ele><time>2026-05-02T12:33:28.497Z</time></trkpt><trkpt lat="46.164133646540165" lon="11.434190674740535"><ele>1663.0</ele><time>2026-05-02T12:33:29.497Z</time></trkpt><trkpt lat="46.16413035378559" lon="11.43430166874232"><ele>1661.4</ele><time>2026-05-02T12:33:30.497Z</time></trkpt><trkpt lat="46.164084666637024" lon="11.434391688521442"><ele>1659.8000000000002</ele><time>2026-05-02T12:33:31.497Z</time></trkpt><trkpt lat="46.16403565278846" lon="11.43447678484235"><ele>1658.2</ele><time>2026-05-02T12:33:32.497Z</time></trkpt><trkpt lat="46.16393262612367" lon="11.434579968859351"><ele>1656.6</ele><time>2026-05-02T12:33:33.497Z</time></trkpt><trkpt lat="46.1638139867186" lon="11.434644223159854"><ele>1655.0</ele><time>2026-05-02T12:33:34.497Z</time></trkpt><trkpt lat="46.163729180526936" lon="11.434707253724708"><ele>1649.6666666666665</ele><time>2026-05-02T12:33:35.497Z</time></trkpt><trkpt lat="46.16366554441351" lon="11.434785086375364"><ele>1644.3333333333333</ele><time>2026-05-02T12:33:36.497Z</time></trkpt><trkpt lat="46.16364189594549" lon="11.434884734742088"><ele>1639.0</ele><time>2026-05-02T12:33:37.497Z</time></trkpt><trkpt lat="46.16365326778661" lon="11.434995786429655"><ele>1633.6666666666665</ele><time>2026-05-02T12:33:38.497Z</time></trkpt><trkpt lat="46.16371474152062" lon="11.435135048851501"><ele>1628.3333333333333</ele><time>2026-05-02T12:33:39.497Z</time></trkpt><trkpt lat="46.16373717891718" lon="11.435266924586918"><ele>1623.0</ele><time>2026-05-02T12:33:40.497Z</time></trkpt><trkpt lat="46.16373154171284" lon="11.43540616222998"><ele>1626.75</ele><time>2026-05-02T12:33:41.497Z</time></trkpt><trkpt lat="46.163708769929855" lon="11.435546741872955"><ele>1630.5</ele><time>2026-05-02T12:33:42.497Z</time></trkpt><trkpt lat="46.163671680433595" lon="11.435674293594058"><ele>1634.25</ele><time>2026-05-02T12:33:43.497Z</time></trkpt><trkpt lat="46.1635587990163" lon="11.435842533193686"><ele>1638.0</ele><time>2026-05-02T12:33:44.497Z</time></trkpt><trkpt lat="46.16347491602645" lon="11.435989666020314"><ele>1638.0</ele><time>2026-05-02T12:33:45.497Z</time></trkpt><trkpt lat="46.16332202427869" lon="11.436069427276431"><ele>1638.0</ele><time>2026-05-02T12:33:46.497Z</time></trkpt><trkpt lat="46.163160008907454" lon="11.436118796633286"><ele>1638.0</ele><time>2026-05-02T12:33:47.497Z</time></trkpt><trkpt lat="46.16304191819069" lon="11.436202508281617"><ele>1636.75</ele><time>2026-05-02T12:33:48.497Z</time></trkpt><trkpt lat="46.16291338724153" lon="11.436263165333024"><ele>1635.5</ele><time>2026-05-02T12:33:49.497Z</time></trkpt><trkpt lat="46.162786966056984" lon="11.436325679800719"><ele>1634.25</ele><time>2026-05-02T12:33:50.497Z</time></trkpt><trkpt lat="46.16266283229481" lon="11.436386993200934"><ele>1633.0</ele><time>2026-05-02T12:33:51.497Z</time></trkpt><trkpt lat="46.16253230446318" lon="11.436436716650373"><ele>1633.0</ele><time>2026-05-02T12:33:52.497Z</time></trkpt><trkpt lat="46.16242754012987" lon="11.436490674126905"><ele>1633.0</ele><time>2026-05-02T12:33:53.497Z</time></trkpt><trkpt lat="46.16234097047811" lon="11.436571386818663"><ele>1633.0</ele><time>2026-05-02T12:33:54.497Z</time></trkpt><trkpt lat="46.162266543389954" lon="11.43665948362019"><ele>1633.0</ele><time>2026-05-02T12:33:55.497Z</time></trkpt><trkpt lat="46.162167304732634" lon="11.436719615566865"><ele>1633.0</ele><time>2026-05-02T12:33:56.497Z</time></trkpt><trkpt lat="46.16211338357633" lon="11.436825404498132"><ele>1627.8000000000002</ele><time>2026-05-02T12:33:57.497Z</time></trkpt><trkpt lat="46.16204901220843" lon="11.436894028160841"><ele>1622.6</ele><time>2026-05-02T12:33:58.497Z</time></trkpt><trkpt lat="46.16195305352249" lon="11.43695452480011"><ele>1617.4</ele><time>2026-05-02T12:34:00.497Z</time></trkpt><trkpt lat="46.161879753343946" lon="11.436897576272056"><ele>1612.1999999999998</ele><time>2026-05-02T12:34:02.497Z</time></trkpt><trkpt lat="46.161831207649875" lon="11.43676177054946"><ele>1607.0</ele><time>2026-05-02T12:34:04.497Z</time></trkpt><trkpt lat="46.16192888768468" lon="11.436607597359021"><ele>1607.0</ele><time>2026-05-02T12:34:06.497Z</time></trkpt><trkpt lat="46.16204670414699" lon="11.436570267039947"><ele>1607.0</ele><time>2026-05-02T12:34:07.497Z</time></trkpt><trkpt lat="46.162163551542676" lon="11.43651140811644"><ele>1607.0</ele><time>2026-05-02T12:34:08.497Z</time></trkpt><trkpt lat="46.16223167889386" lon="11.436411577194697"><ele>1607.0</ele><time>2026-05-02T12:34:09.497Z</time></trkpt><trkpt lat="46.16228539043829" lon="11.436283218258277"><ele>1607.0</ele><time>2026-05-02T12:34:10.497Z</time></trkpt><trkpt lat="46.162345690652096" lon="11.436158787434028"><ele>1606.3999999999999</ele><time>2026-05-02T12:34:11.497Z</time></trkpt><trkpt lat="46.16239415500797" lon="11.436039447483102"><ele>1605.8</ele><time>2026-05-02T12:34:12.497Z</time></trkpt><trkpt lat="46.162464890509774" lon="11.435943922774454"><ele>1605.2</ele><time>2026-05-02T12:34:13.497Z</time></trkpt><trkpt lat="46.16253183516136" lon="11.435840885337573"><ele>1604.6</ele><time>2026-05-02T12:34:14.497Z</time></trkpt><trkpt lat="46.16260193401581" lon="11.435770644015149"><ele>1604.0</ele><time>2026-05-02T12:34:15.497Z</time></trkpt><trkpt lat="46.16263874330757" lon="11.435676202810086"><ele>1603.9999999999998</ele><time>2026-05-02T12:34:16.497Z</time></trkpt><trkpt lat="46.162639440676884" lon="11.435554219922317"><ele>1604.0</ele><time>2026-05-02T12:34:17.497Z</time></trkpt><trkpt lat="46.16261640780371" lon="11.435432017946288"><ele>1604.0</ele><time>2026-05-02T12:34:18.497Z</time></trkpt><trkpt lat="46.16260860036362" lon="11.435326688875412"><ele>1604.0</ele><time>2026-05-02T12:34:19.497Z</time></trkpt><trkpt lat="46.162651372562735" lon="11.43522547150092"><ele>1603.9999999999998</ele><time>2026-05-02T12:34:20.497Z</time></trkpt><trkpt lat="46.162694485100104" lon="11.435118109396331"><ele>1604.0</ele><time>2026-05-02T12:34:21.497Z</time></trkpt><trkpt lat="46.16273614210947" lon="11.434994127416918"><ele>1602.4999999999998</ele><time>2026-05-02T12:34:22.497Z</time></trkpt><trkpt lat="46.16274422021795" lon="11.434863157676428"><ele>1601.0</ele><time>2026-05-02T12:34:23.497Z</time></trkpt><trkpt lat="46.16273531360312" lon="11.434735919533079"><ele>1599.5</ele><time>2026-05-02T12:34:24.497Z</time></trkpt><trkpt lat="46.16273501720046" lon="11.434609974796482"><ele>1598.0</ele><time>2026-05-02T12:34:25.497Z</time></trkpt><trkpt lat="46.162733449914" lon="11.434481080755136"><ele>1596.4999999999998</ele><time>2026-05-02T12:34:26.497Z</time></trkpt><trkpt lat="46.16272211325" lon="11.43434980261472"><ele>1595.0</ele><time>2026-05-02T12:34:27.497Z</time></trkpt><trkpt lat="46.162685409099936" lon="11.434269646291538"><ele>1594.9999999999998</ele><time>2026-05-02T12:34:28.497Z</time></trkpt><trkpt lat="46.16265719166731" lon="11.434184683185816"><ele>1595.0</ele><time>2026-05-02T12:34:29.497Z</time></trkpt><trkpt lat="46.162580568060804" lon="11.434112481769311"><ele>1595.0</ele><time>2026-05-02T12:34:30.497Z</time></trkpt><trkpt lat="46.16248476552114" lon="11.434078018357901"><ele>1595.0</ele><time>2026-05-02T12:34:31.497Z</time></trkpt><trkpt lat="46.16239560439592" lon="11.434051235350458"><ele>1594.9999999999998</ele><time>2026-05-02T12:34:32.497Z</time></trkpt><trkpt lat="46.16231549341155" lon="11.43403995559267"><ele>1595.0</ele><time>2026-05-02T12:34:33.497Z</time></trkpt><trkpt lat="46.16224056152374" lon="11.434028497751111"><ele>1593.4</ele><time>2026-05-02T12:34:34.497Z</time></trkpt><trkpt lat="46.16216077566909" lon="11.434105003900306"><ele>1591.8</ele><time>2026-05-02T12:34:35.497Z</time></trkpt><trkpt lat="46.16207946193702" lon="11.434122170558938"><ele>1590.1999999999998</ele><time>2026-05-02T12:34:36.497Z</time></trkpt><trkpt lat="46.16198140543848" lon="11.434136403698444"><ele>1588.6</ele><time>2026-05-02T12:34:37.497Z</time></trkpt><trkpt lat="46.16189594874027" lon="11.434151249499326"><ele>1587.0</ele><time>2026-05-02T12:34:38.497Z</time></trkpt><trkpt lat="46.161794042722235" lon="11.434161966049183"><ele>1587.0</ele><time>2026-05-02T12:34:39.497Z</time></trkpt><trkpt lat="46.16170452765192" lon="11.434176557606595"><ele>1587.0</ele><time>2026-05-02T12:34:40.497Z</time></trkpt><trkpt lat="46.16161195177814" lon="11.434219307565114"><ele>1587.0</ele><time>2026-05-02T12:34:41.497Z</time></trkpt><trkpt lat="46.16151566985689" lon="11.434266809612247"><ele>1587.0</ele><time>2026-05-02T12:34:42.497Z</time></trkpt><trkpt lat="46.16142073580942" lon="11.43430959186596"><ele>1587.0</ele><time>2026-05-02T12:34:43.497Z</time></trkpt><trkpt lat="46.161280749885684" lon="11.434334824702907"><ele>1584.75</ele><time>2026-05-02T12:34:44.497Z</time></trkpt><trkpt lat="46.16115839200974" lon="11.434343191362085"><ele>1582.5</ele><time>2026-05-02T12:34:45.497Z</time></trkpt><trkpt lat="46.16104021192434" lon="11.434349371831516"><ele>1580.25</ele><time>2026-05-02T12:34:46.497Z</time></trkpt><trkpt lat="46.16091597743141" lon="11.434350587086339"><ele>1578.0</ele><time>2026-05-02T12:34:47.497Z</time></trkpt><trkpt lat="46.16080943582196" lon="11.434378189815309"><ele>1575.6666666666665</ele><time>2026-05-02T12:34:48.497Z</time></trkpt><trkpt lat="46.16069329693512" lon="11.434333916472601"><ele>1573.3333333333333</ele><time>2026-05-02T12:34:49.497Z</time></trkpt><trkpt lat="46.160542301048146" lon="11.434216916171282"><ele>1571.0</ele><time>2026-05-02T12:34:50.497Z</time></trkpt><trkpt lat="46.1603680135416" lon="11.434204746094979"><ele>1571.0</ele><time>2026-05-02T12:34:51.497Z</time></trkpt><trkpt lat="46.16023175311285" lon="11.43423647185813"><ele>1571.0</ele><time>2026-05-02T12:34:52.497Z</time></trkpt><trkpt lat="46.16011187469728" lon="11.434242150456585"><ele>1571.0</ele><time>2026-05-02T12:34:53.497Z</time></trkpt><trkpt lat="46.159985736445925" lon="11.434240013973568"><ele>1571.0</ele><time>2026-05-02T12:34:54.497Z</time></trkpt><trkpt lat="46.15986822374164" lon="11.434241192000423"><ele>1567.1999999999998</ele><time>2026-05-02T12:34:55.497Z</time></trkpt><trkpt lat="46.15976098778611" lon="11.434236576298566"><ele>1563.3999999999999</ele><time>2026-05-02T12:34:56.497Z</time></trkpt><trkpt lat="46.15966763755289" lon="11.434222943844574"><ele>1559.6</ele><time>2026-05-02T12:34:57.497Z</time></trkpt><trkpt lat="46.15957026888763" lon="11.43419721448154"><ele>1555.8</ele><time>2026-05-02T12:34:58.497Z</time></trkpt><trkpt lat="46.15949024436" lon="11.434171219117061"><ele>1552.0</ele><time>2026-05-02T12:34:59.497Z</time></trkpt><trkpt lat="46.1594049292424" lon="11.434148561070126"><ele>1552.0</ele><time>2026-05-02T12:35:00.497Z</time></trkpt><trkpt lat="46.15930161354003" lon="11.434094813106935"><ele>1552.0</ele><time>2026-05-02T12:35:01.497Z</time></trkpt><trkpt lat="46.159184828094496" lon="11.434017215848748"><ele>1552.0</ele><time>2026-05-02T12:35:02.497Z</time></trkpt><trkpt lat="46.15902053073089" lon="11.433924963662127"><ele>1552.0</ele><time>2026-05-02T12:35:03.497Z</time></trkpt><trkpt lat="46.15888836234359" lon="11.433897723844835"><ele>1555.6</ele><time>2026-05-02T12:35:04.497Z</time></trkpt><trkpt lat="46.15876639155701" lon="11.433882799047224"><ele>1559.1999999999998</ele><time>2026-05-02T12:35:05.497Z</time></trkpt><trkpt lat="46.15866219322147" lon="11.433837033403126"><ele>1562.8</ele><time>2026-05-02T12:35:06.497Z</time></trkpt><trkpt lat="46.15856519292735" lon="11.43381082642214"><ele>1566.4</ele><time>2026-05-02T12:35:07.497Z</time></trkpt><trkpt lat="46.15848231883372" lon="11.433788430425466"><ele>1570.0</ele><time>2026-05-02T12:35:08.497Z</time></trkpt><trkpt lat="46.15842510308623" lon="11.433912655000658"><ele>1560.5</ele><time>2026-05-02T12:35:10.497Z</time></trkpt><trkpt lat="46.15853838518678" lon="11.434116527361475"><ele>1551.0</ele><time>2026-05-02T12:35:11.497Z</time></trkpt><trkpt lat="46.15862369016252" lon="11.43414599770559"><ele>1541.5</ele><time>2026-05-02T12:35:12.497Z</time></trkpt><trkpt lat="46.15871897514778" lon="11.434168973631772"><ele>1532.0</ele><time>2026-05-02T12:35:13.497Z</time></trkpt><trkpt lat="46.158828301617056" lon="11.434221277808927"><ele>1532.0</ele><time>2026-05-02T12:35:14.497Z</time></trkpt><trkpt lat="46.15891526049524" lon="11.434326351731407"><ele>1532.0</ele><time>2026-05-02T12:35:15.497Z</time></trkpt><trkpt lat="46.1589994830487" lon="11.434446565231793"><ele>1532.0</ele><time>2026-05-02T12:35:16.497Z</time></trkpt><trkpt lat="46.15905291086526" lon="11.434665774976809"><ele>1532.0</ele><time>2026-05-02T12:35:17.497Z</time></trkpt><trkpt lat="46.1591451334808" lon="11.434804380130135"><ele>1532.0</ele><time>2026-05-02T12:35:18.497Z</time></trkpt><trkpt lat="46.15924314393586" lon="11.43492629977259"><ele>1532.0</ele><time>2026-05-02T12:35:19.497Z</time></trkpt><trkpt lat="46.15935520963006" lon="11.43501025234095"><ele>1532.0</ele><time>2026-05-02T12:35:20.497Z</time></trkpt><trkpt lat="46.15946413075755" lon="11.435047854428028"><ele>1532.0</ele><time>2026-05-02T12:35:21.497Z</time></trkpt><trkpt lat="46.159590881282526" lon="11.435080337523374"><ele>1532.0</ele><time>2026-05-02T12:35:22.497Z</time></trkpt><trkpt lat="46.159709359669115" lon="11.435099682013384"><ele>1532.0</ele><time>2026-05-02T12:35:23.497Z</time></trkpt><trkpt lat="46.15978501934003" lon="11.435085612423531"><ele>1532.0</ele><time>2026-05-02T12:35:24.497Z</time></trkpt><trkpt lat="46.15983510655707" lon="11.435161811259038"><ele>1532.0</ele><time>2026-05-02T12:35:25.497Z</time></trkpt><trkpt lat="46.159867896047636" lon="11.43524133470385"><ele>1532.0</ele><time>2026-05-02T12:35:26.497Z</time></trkpt><trkpt lat="46.15980572457098" lon="11.43547393211564"><ele>1532.5</ele><time>2026-05-02T12:35:28.497Z</time></trkpt><trkpt lat="46.159746662444086" lon="11.435576893747337"><ele>1533.0</ele><time>2026-05-02T12:35:29.497Z</time></trkpt><trkpt lat="46.15968941652743" lon="11.435653494477954"><ele>1533.5</ele><time>2026-05-02T12:35:30.497Z</time></trkpt><trkpt lat="46.15958173157847" lon="11.435758083473345"><ele>1534.0</ele><time>2026-05-02T12:35:31.497Z</time></trkpt><trkpt lat="46.15942981254259" lon="11.435853701395116"><ele>1534.0</ele><time>2026-05-02T12:35:32.497Z</time></trkpt><trkpt lat="46.15932061302148" lon="11.435969608214803"><ele>1534.0</ele><time>2026-05-02T12:35:33.497Z</time></trkpt><trkpt lat="46.159221414905986" lon="11.436074304027677"><ele>1534.0</ele><time>2026-05-02T12:35:34.497Z</time></trkpt><trkpt lat="46.15912164748824" lon="11.436122655681956"><ele>1534.0</ele><time>2026-05-02T12:35:35.497Z</time></trkpt><trkpt lat="46.15900279970952" lon="11.436133964272663"><ele>1527.75</ele><time>2026-05-02T12:35:36.497Z</time></trkpt><trkpt lat="46.1588784147661" lon="11.436121439041893"><ele>1521.5</ele><time>2026-05-02T12:35:37.497Z</time></trkpt><trkpt lat="46.158755173001445" lon="11.436083356269574"><ele>1515.25</ele><time>2026-05-02T12:35:38.497Z</time></trkpt><trkpt lat="46.15863137240874" lon="11.43601562996684"><ele>1509.0</ele><time>2026-05-02T12:35:39.497Z</time></trkpt><trkpt lat="46.15851982841478" lon="11.435978888577578"><ele>1509.0</ele><time>2026-05-02T12:35:40.497Z</time></trkpt><trkpt lat="46.15838632820419" lon="11.43598777084443"><ele>1509.0</ele><time>2026-05-02T12:35:41.497Z</time></trkpt><trkpt lat="46.1582684270731" lon="11.435996443059134"><ele>1509.0</ele><time>2026-05-02T12:35:42.497Z</time></trkpt><trkpt lat="46.15814427938085" lon="11.436034945817328"><ele>1509.0</ele><time>2026-05-02T12:35:43.497Z</time></trkpt><trkpt lat="46.15801169599269" lon="11.436084598190524"><ele>1507.5</ele><time>2026-05-02T12:35:44.497Z</time></trkpt><trkpt lat="46.15789078505433" lon="11.43615661805689"><ele>1506.0</ele><time>2026-05-02T12:35:45.497Z</time></trkpt><trkpt lat="46.15778344471317" lon="11.436222068162904"><ele>1504.5</ele><time>2026-05-02T12:35:46.497Z</time></trkpt><trkpt lat="46.15767731794273" lon="11.436272214956663"><ele>1503.0</ele><time>2026-05-02T12:35:47.497Z</time></trkpt><trkpt lat="46.15758352229499" lon="11.436311959474246"><ele>1500.25</ele><time>2026-05-02T12:35:48.497Z</time></trkpt><trkpt lat="46.157483558866026" lon="11.43641100574049"><ele>1497.5</ele><time>2026-05-02T12:35:49.497Z</time></trkpt><trkpt lat="46.15737166102298" lon="11.436531283431929"><ele>1494.75</ele><time>2026-05-02T12:35:50.497Z</time></trkpt><trkpt lat="46.15725764405458" lon="11.436651152592988"><ele>1492.0</ele><time>2026-05-02T12:35:51.497Z</time></trkpt><trkpt lat="46.157128843151284" lon="11.436727295860772"><ele>1492.0</ele><time>2026-05-02T12:35:52.497Z</time></trkpt><trkpt lat="46.15700606506597" lon="11.436786721315578"><ele>1492.0</ele><time>2026-05-02T12:35:53.497Z</time></trkpt><trkpt lat="46.15687682748533" lon="11.436858373809633"><ele>1492.0</ele><time>2026-05-02T12:35:54.497Z</time></trkpt><trkpt lat="46.15676728297293" lon="11.436962177608976"><ele>1492.0</ele><time>2026-05-02T12:35:55.497Z</time></trkpt><trkpt lat="46.15668904758883" lon="11.437077244840681"><ele>1495.0</ele><time>2026-05-02T12:35:56.497Z</time></trkpt><trkpt lat="46.15662622524728" lon="11.437189837439368"><ele>1498.0</ele><time>2026-05-02T12:35:57.497Z</time></trkpt><trkpt lat="46.15657863800787" lon="11.437321053739304"><ele>1501.0</ele><time>2026-05-02T12:35:58.497Z</time></trkpt><trkpt lat="46.156509001710226" lon="11.437419148660485"><ele>1504.0</ele><time>2026-05-02T12:35:59.497Z</time></trkpt><trkpt lat="46.15643044370395" lon="11.437482227929573"><ele>1507.0</ele><time>2026-05-02T12:36:00.497Z</time></trkpt><trkpt lat="46.15632673282756" lon="11.437473148406667"><ele>1503.8</ele><time>2026-05-02T12:36:01.497Z</time></trkpt><trkpt lat="46.156237355190825" lon="11.437545221227674"><ele>1500.6</ele><time>2026-05-02T12:36:02.497Z</time></trkpt><trkpt lat="46.156173437998085" lon="11.437644016008159"><ele>1497.3999999999999</ele><time>2026-05-02T12:36:03.497Z</time></trkpt><trkpt lat="46.156122326195764" lon="11.43777678584287"><ele>1494.1999999999998</ele><time>2026-05-02T12:36:04.497Z</time></trkpt><trkpt lat="46.15611146215447" lon="11.437971558896228"><ele>1491.0</ele><time>2026-05-02T12:36:05.497Z</time></trkpt><trkpt lat="46.156069515325285" lon="11.4381630929604"><ele>1491.0</ele><time>2026-05-02T12:36:06.497Z</time></trkpt><trkpt lat="46.15601095448556" lon="11.438321959589455"><ele>1491.0</ele><time>2026-05-02T12:36:07.497Z</time></trkpt><trkpt lat="46.1559238729828" lon="11.438448616134606"><ele>1491.0</ele><time>2026-05-02T12:36:08.497Z</time></trkpt><trkpt lat="46.15582504188602" lon="11.43855336566771"><ele>1491.0</ele><time>2026-05-02T12:36:09.497Z</time></trkpt><trkpt lat="46.155691950708075" lon="11.438689344948278"><ele>1486.75</ele><time>2026-05-02T12:36:10.497Z</time></trkpt><trkpt lat="46.15557553812788" lon="11.438813426975878"><ele>1482.5</ele><time>2026-05-02T12:36:11.497Z</time></trkpt><trkpt lat="46.15543727263714" lon="11.438913357541024"><ele>1478.25</ele><time>2026-05-02T12:36:12.497Z</time></trkpt><trkpt lat="46.15531093270971" lon="11.439007874770084"><ele>1474.0</ele><time>2026-05-02T12:36:13.497Z</time></trkpt><trkpt lat="46.15520233293122" lon="11.439113730525325"><ele>1474.0</ele><time>2026-05-02T12:36:14.497Z</time></trkpt><trkpt lat="46.15512027346762" lon="11.439216323410173"><ele>1474.0</ele><time>2026-05-02T12:36:15.497Z</time></trkpt><trkpt lat="46.15502021235755" lon="11.439290533508562"><ele>1474.0</ele><time>2026-05-02T12:36:16.497Z</time></trkpt><trkpt lat="46.15491296112418" lon="11.439344476793194"><ele>1474.0</ele><time>2026-05-02T12:36:17.497Z</time></trkpt><trkpt lat="46.15480238505671" lon="11.439389129544612"><ele>1474.0</ele><time>2026-05-02T12:36:18.497Z</time></trkpt><trkpt lat="46.154726218669474" lon="11.43949885156476"><ele>1468.5</ele><time>2026-05-02T12:36:19.497Z</time></trkpt><trkpt lat="46.15466809109428" lon="11.439622031526646"><ele>1463.0</ele><time>2026-05-02T12:36:20.497Z</time></trkpt><trkpt lat="46.1546046648346" lon="11.43974559753759"><ele>1457.5</ele><time>2026-05-02T12:36:21.497Z</time></trkpt><trkpt lat="46.15453551568653" lon="11.439898615596933"><ele>1452.0</ele><time>2026-05-02T12:36:22.497Z</time></trkpt><trkpt lat="46.15448550938401" lon="11.44008089804514"><ele>1452.0</ele><time>2026-05-02T12:36:23.497Z</time></trkpt><trkpt lat="46.154427349762905" lon="11.44026602564655"><ele>1452.0</ele><time>2026-05-02T12:36:24.497Z</time></trkpt><trkpt lat="46.15435361246763" lon="11.440430431781271"><ele>1452.0</ele><time>2026-05-02T12:36:25.497Z</time></trkpt><trkpt lat="46.15427083406196" lon="11.440571837477268"><ele>1452.0</ele><time>2026-05-02T12:36:26.497Z</time></trkpt><trkpt lat="46.154182304196894" lon="11.440694166946628"><ele>1457.0</ele><time>2026-05-02T12:36:27.497Z</time></trkpt><trkpt lat="46.1540776387613" lon="11.440778838625802"><ele>1462.0</ele><time>2026-05-02T12:36:28.497Z</time></trkpt><trkpt lat="46.15396640104912" lon="11.44084358112451"><ele>1467.0</ele><time>2026-05-02T12:36:29.497Z</time></trkpt><trkpt lat="46.153872237636094" lon="11.440942742580392"><ele>1472.0</ele><time>2026-05-02T12:36:30.497Z</time></trkpt><trkpt lat="46.15377791914594" lon="11.441059133797161"><ele>1465.0</ele><time>2026-05-02T12:36:31.497Z</time></trkpt><trkpt lat="46.15369799910328" lon="11.441205210123561"><ele>1458.0</ele><time>2026-05-02T12:36:32.497Z</time></trkpt><trkpt lat="46.15362382335316" lon="11.441358020781328"><ele>1451.0</ele><time>2026-05-02T12:36:33.497Z</time></trkpt><trkpt lat="46.15354563728717" lon="11.441509250459212"><ele>1444.0</ele><time>2026-05-02T12:36:34.497Z</time></trkpt><trkpt lat="46.15345561404182" lon="11.44164105129144"><ele>1444.0</ele><time>2026-05-02T12:36:35.497Z</time></trkpt><trkpt lat="46.15336694293222" lon="11.441752708768965"><ele>1444.0</ele><time>2026-05-02T12:36:36.497Z</time></trkpt><trkpt lat="46.153269004391895" lon="11.441860169508402"><ele>1444.0</ele><time>2026-05-02T12:36:37.497Z</time></trkpt><trkpt lat="46.15318176407422" lon="11.44197530240226"><ele>1444.0</ele><time>2026-05-02T12:36:38.497Z</time></trkpt><trkpt lat="46.1531048852181" lon="11.442097887247169"><ele>1439.4</ele><time>2026-05-02T12:36:39.497Z</time></trkpt><trkpt lat="46.153025441312124" lon="11.44222544641732"><ele>1434.8000000000002</ele><time>2026-05-02T12:36:40.497Z</time></trkpt><trkpt lat="46.1529799267884" lon="11.442389986783649"><ele>1430.1999999999998</ele><time>2026-05-02T12:36:41.497Z</time></trkpt><trkpt lat="46.152920654473256" lon="11.442523710145569"><ele>1425.6</ele><time>2026-05-02T12:36:42.497Z</time></trkpt><trkpt lat="46.152862862771826" lon="11.442634808901586"><ele>1421.0</ele><time>2026-05-02T12:36:43.497Z</time></trkpt><trkpt lat="46.152781260750224" lon="11.44269278138962"><ele>1421.0</ele><time>2026-05-02T12:36:44.497Z</time></trkpt><trkpt lat="46.152681511591084" lon="11.442732393580332"><ele>1421.0</ele><time>2026-05-02T12:36:45.497Z</time></trkpt><trkpt lat="46.15257574071869" lon="11.442788899898847"><ele>1421.0</ele><time>2026-05-02T12:36:46.497Z</time></trkpt><trkpt lat="46.15247805316865" lon="11.442892473945614"><ele>1421.0</ele><time>2026-05-02T12:36:47.497Z</time></trkpt><trkpt lat="46.15242452245288" lon="11.443070567393203"><ele>1418.0</ele><time>2026-05-02T12:36:48.497Z</time></trkpt><trkpt lat="46.15239186039169" lon="11.443269863492574"><ele>1415.0</ele><time>2026-05-02T12:36:49.497Z</time></trkpt><trkpt lat="46.15235683437237" lon="11.443466469761013"><ele>1412.0</ele><time>2026-05-02T12:36:50.497Z</time></trkpt><trkpt lat="46.15230394808495" lon="11.443637256251254"><ele>1409.0</ele><time>2026-05-02T12:36:51.497Z</time></trkpt><trkpt lat="46.1522431279023" lon="11.443835468204364"><ele>1409.0</ele><time>2026-05-02T12:36:52.497Z</time></trkpt><trkpt lat="46.15216576613231" lon="11.444044066441148"><ele>1409.0</ele><time>2026-05-02T12:36:53.497Z</time></trkpt><trkpt lat="46.152087731160435" lon="11.444244184262724"><ele>1409.0</ele><time>2026-05-02T12:36:54.497Z</time></trkpt><trkpt lat="46.1520159142809" lon="11.444454093402168"><ele>1411.6666666666667</ele><time>2026-05-02T12:36:55.497Z</time></trkpt><trkpt lat="46.15194864642405" lon="11.444664271573977"><ele>1414.3333333333333</ele><time>2026-05-02T12:36:56.497Z</time></trkpt><trkpt lat="46.15188191006319" lon="11.444861374272042"><ele>1417.0</ele><time>2026-05-02T12:36:57.497Z</time></trkpt><trkpt lat="46.151800806543754" lon="11.445050773068"><ele>1417.0</ele><time>2026-05-02T12:36:58.497Z</time></trkpt><trkpt lat="46.15171505680949" lon="11.44522598778016"><ele>1417.0</ele><time>2026-05-02T12:36:59.497Z</time></trkpt><trkpt lat="46.15161975235871" lon="11.445406542921637"><ele>1417.0</ele><time>2026-05-02T12:37:00.497Z</time></trkpt><trkpt lat="46.15154717725672" lon="11.44559014806751"><ele>1409.75</ele><time>2026-05-02T12:37:01.497Z</time></trkpt><trkpt lat="46.151495637987544" lon="11.445780085102113"><ele>1402.5</ele><time>2026-05-02T12:37:02.497Z</time></trkpt><trkpt lat="46.15144004754755" lon="11.445941916001399"><ele>1395.25</ele><time>2026-05-02T12:37:03.497Z</time></trkpt><trkpt lat="46.15135918455891" lon="11.446074795922229"><ele>1388.0</ele><time>2026-05-02T12:37:04.497Z</time></trkpt><trkpt lat="46.151282246614585" lon="11.446185474390472"><ele>1388.0</ele><time>2026-05-02T12:37:05.497Z</time></trkpt><trkpt lat="46.15119808782769" lon="11.446279352626728"><ele>1388.0</ele><time>2026-05-02T12:37:06.497Z</time></trkpt><trkpt lat="46.1511061705694" lon="11.446342650388468"><ele>1388.0</ele><time>2026-05-02T12:37:07.497Z</time></trkpt><trkpt lat="46.1509961400421" lon="11.44641379058114"><ele>1388.0</ele><time>2026-05-02T12:37:08.497Z</time></trkpt><trkpt lat="46.15089713186457" lon="11.44650795180159"><ele>1388.0</ele><time>2026-05-02T12:37:09.497Z</time></trkpt><trkpt lat="46.15080670390372" lon="11.44660712678154"><ele>1387.25</ele><time>2026-05-02T12:37:10.497Z</time></trkpt><trkpt lat="46.15075769924556" lon="11.446751710115803"><ele>1386.5</ele><time>2026-05-02T12:37:11.497Z</time></trkpt><trkpt lat="46.15068248388982" lon="11.446898405920379"><ele>1385.75</ele><time>2026-05-02T12:37:12.497Z</time></trkpt><trkpt lat="46.15060777710305" lon="11.447033161126091"><ele>1385.0</ele><time>2026-05-02T12:37:13.497Z</time></trkpt><trkpt lat="46.150538591221654" lon="11.447167600494192"><ele>1384.2</ele><time>2026-05-02T12:37:14.497Z</time></trkpt><trkpt lat="46.15050680367103" lon="11.44732308571795"><ele>1383.4</ele><time>2026-05-02T12:37:15.497Z</time></trkpt><trkpt lat="46.15047654776108" lon="11.447474753621064"><ele>1382.6</ele><time>2026-05-02T12:37:16.497Z</time></trkpt><trkpt lat="46.15045251025695" lon="11.44762848069598"><ele>1381.8</ele><time>2026-05-02T12:37:17.497Z</time></trkpt><trkpt lat="46.150422139657245" lon="11.447786634482107"><ele>1381.0</ele><time>2026-05-02T12:37:18.497Z</time></trkpt><trkpt lat="46.15038355921142" lon="11.447977524805472"><ele>1380.75</ele><time>2026-05-02T12:37:19.497Z</time></trkpt><trkpt lat="46.1503525746003" lon="11.448206187967145"><ele>1380.5</ele><time>2026-05-02T12:37:20.497Z</time></trkpt><trkpt lat="46.15032231902743" lon="11.448394812845649"><ele>1380.25</ele><time>2026-05-02T12:37:21.497Z</time></trkpt><trkpt lat="46.150265090179595" lon="11.448566879067503"><ele>1380.0</ele><time>2026-05-02T12:37:22.497Z</time></trkpt><trkpt lat="46.150221438611226" lon="11.448701630121759"><ele>1379.6</ele><time>2026-05-02T12:37:23.497Z</time></trkpt><trkpt lat="46.15015545134536" lon="11.448837399633206"><ele>1379.2</ele><time>2026-05-02T12:37:24.497Z</time></trkpt><trkpt lat="46.150092207765056" lon="11.448962669563311"><ele>1378.8000000000002</ele><time>2026-05-02T12:37:25.497Z</time></trkpt><trkpt lat="46.150048973901114" lon="11.449063819499402"><ele>1378.4</ele><time>2026-05-02T12:37:26.497Z</time></trkpt><trkpt lat="46.150038122227926" lon="11.449192516237353"><ele>1378.0</ele><time>2026-05-02T12:37:27.497Z</time></trkpt><trkpt lat="46.15003416504973" lon="11.44935800209463"><ele>1378.0</ele><time>2026-05-02T12:37:28.497Z</time></trkpt><trkpt lat="46.150044186418256" lon="11.449548818068555"><ele>1378.0</ele><time>2026-05-02T12:37:29.497Z</time></trkpt><trkpt lat="46.150044452855845" lon="11.449756282752926"><ele>1378.0</ele><time>2026-05-02T12:37:30.497Z</time></trkpt><trkpt lat="46.15002372505306" lon="11.449978347726063"><ele>1378.0</ele><time>2026-05-02T12:37:31.497Z</time></trkpt><trkpt lat="46.14998860294626" lon="11.450216273757144"><ele>1377.5</ele><time>2026-05-02T12:37:32.497Z</time></trkpt><trkpt lat="46.14994733620734" lon="11.45044052046299"><ele>1377.0</ele><time>2026-05-02T12:37:33.497Z</time></trkpt><trkpt lat="46.149896544509765" lon="11.45064266567999"><ele>1376.5</ele><time>2026-05-02T12:37:34.497Z</time></trkpt><trkpt lat="46.149844970786184" lon="11.450825233304775"><ele>1376.0</ele><time>2026-05-02T12:37:35.497Z</time></trkpt><trkpt lat="46.149791062631955" lon="11.450994050139668"><ele>1374.5</ele><time>2026-05-02T12:37:36.497Z</time></trkpt><trkpt lat="46.149712165094414" lon="11.451140987599075"><ele>1373.0</ele><time>2026-05-02T12:37:37.497Z</time></trkpt><trkpt lat="46.14962210156319" lon="11.451284187883465"><ele>1371.5</ele><time>2026-05-02T12:37:38.497Z</time></trkpt><trkpt lat="46.14955578485874" lon="11.451445562120076"><ele>1370.0</ele><time>2026-05-02T12:37:39.497Z</time></trkpt><trkpt lat="46.14950713906396" lon="11.451612610900586"><ele>1367.0</ele><time>2026-05-02T12:37:40.497Z</time></trkpt><trkpt lat="46.14947845484866" lon="11.451825092127208"><ele>1364.0</ele><time>2026-05-02T12:37:41.497Z</time></trkpt><trkpt lat="46.149459638868755" lon="11.452068743295756"><ele>1361.0</ele><time>2026-05-02T12:37:42.497Z</time></trkpt><trkpt lat="46.14946187914742" lon="11.452319657419617"><ele>1360.5</ele><time>2026-05-02T12:37:43.497Z</time></trkpt><trkpt lat="46.149447658250956" lon="11.45252267376554"><ele>1360.0</ele><time>2026-05-02T12:37:44.497Z</time></trkpt><trkpt lat="46.149451635250244" lon="11.452720582880307"><ele>1359.5</ele><time>2026-05-02T12:37:45.497Z</time></trkpt><trkpt lat="46.14947232082855" lon="11.452944491768264"><ele>1359.0</ele><time>2026-05-02T12:37:46.497Z</time></trkpt><trkpt lat="46.14952354203832" lon="11.453175577717067"><ele>1358.5</ele><time>2026-05-02T12:37:47.497Z</time></trkpt><trkpt lat="46.1495534255772" lon="11.453377150754365"><ele>1358.0</ele><time>2026-05-02T12:37:48.497Z</time></trkpt><trkpt lat="46.14957355532731" lon="11.453570332289814"><ele>1357.5</ele><time>2026-05-02T12:37:49.497Z</time></trkpt><trkpt lat="46.14954306343806" lon="11.45379176290409"><ele>1357.0</ele><time>2026-05-02T12:37:50.497Z</time></trkpt><trkpt lat="46.14949738538001" lon="11.454058738938649"><ele>1357.0</ele><time>2026-05-02T12:37:51.497Z</time></trkpt><trkpt lat="46.14943829170551" lon="11.454353991497156"><ele>1357.0</ele><time>2026-05-02T12:37:52.497Z</time></trkpt><trkpt lat="46.149389432719786" lon="11.454618057846057"><ele>1357.0</ele><time>2026-05-02T12:37:53.497Z</time></trkpt><trkpt lat="46.14932355091909" lon="11.45484550590963"><ele>1356.75</ele><time>2026-05-02T12:37:54.497Z</time></trkpt><trkpt lat="46.14926379651837" lon="11.455038896004101"><ele>1356.5</ele><time>2026-05-02T12:37:55.497Z</time></trkpt><trkpt lat="46.14920500863631" lon="11.455206856429962"><ele>1356.25</ele><time>2026-05-02T12:37:56.497Z</time></trkpt><trkpt lat="46.14915289961619" lon="11.455365672066446"><ele>1356.0</ele><time>2026-05-02T12:37:57.497Z</time></trkpt><trkpt lat="46.14913092644414" lon="11.455561518592194"><ele>1357.25</ele><time>2026-05-02T12:37:58.497Z</time></trkpt><trkpt lat="46.1491119147291" lon="11.45577418497854"><ele>1358.5</ele><time>2026-05-02T12:37:59.497Z</time></trkpt><trkpt lat="46.14909003758902" lon="11.455961079990463"><ele>1359.75</ele><time>2026-05-02T12:38:00.497Z</time></trkpt><trkpt lat="46.1490220964882" lon="11.456126199618701"><ele>1361.0</ele><time>2026-05-02T12:38:01.497Z</time></trkpt><trkpt lat="46.14895201465146" lon="11.45627982361488"><ele>1353.75</ele><time>2026-05-02T12:38:02.497Z</time></trkpt><trkpt lat="46.148910875792815" lon="11.456455547549798"><ele>1346.5</ele><time>2026-05-02T12:38:03.497Z</time></trkpt><trkpt lat="46.14890603591625" lon="11.456661431911355"><ele>1339.25</ele><time>2026-05-02T12:38:04.497Z</time></trkpt><trkpt lat="46.14890112081148" lon="11.456867033916103"><ele>1332.0</ele><time>2026-05-02T12:38:05.497Z</time></trkpt><trkpt lat="46.14888955116137" lon="11.457046306386932"><ele>1333.6</ele><time>2026-05-02T12:38:06.497Z</time></trkpt><trkpt lat="46.14887906005175" lon="11.457197412526721"><ele>1335.1999999999998</ele><time>2026-05-02T12:38:07.497Z</time></trkpt><trkpt lat="46.148862118465935" lon="11.457306546459224"><ele>1336.8</ele><time>2026-05-02T12:38:08.497Z</time></trkpt><trkpt lat="46.14880828007888" lon="11.457421583054009"><ele>1338.4</ele><time>2026-05-02T12:38:09.497Z</time></trkpt><trkpt lat="46.14874557051352" lon="11.4575351003256"><ele>1340.0</ele><time>2026-05-02T12:38:10.497Z</time></trkpt><trkpt lat="46.148605230788284" lon="11.457645940756962"><ele>1340.0</ele><time>2026-05-02T12:38:11.497Z</time></trkpt><trkpt lat="46.14841165062258" lon="11.45774849142876"><ele>1340.0</ele><time>2026-05-02T12:38:12.497Z</time></trkpt><trkpt lat="46.14822332937974" lon="11.457856963628869"><ele>1340.0</ele><time>2026-05-02T12:38:13.497Z</time></trkpt><trkpt lat="46.14808879657524" lon="11.457978956502798"><ele>1337.5</ele><time>2026-05-02T12:38:14.497Z</time></trkpt><trkpt lat="46.14797522004174" lon="11.458081845645857"><ele>1335.0</ele><time>2026-05-02T12:38:15.497Z</time></trkpt><trkpt lat="46.14786442297065" lon="11.458183701237225"><ele>1332.5</ele><time>2026-05-02T12:38:16.497Z</time></trkpt><trkpt lat="46.14781517490417" lon="11.458334337460649"><ele>1330.0</ele><time>2026-05-02T12:38:17.497Z</time></trkpt><trkpt lat="46.147795969227275" lon="11.458502326359286"><ele>1330.0</ele><time>2026-05-02T12:38:18.497Z</time></trkpt><trkpt lat="46.14773752405476" lon="11.458652246250024"><ele>1330.0</ele><time>2026-05-02T12:38:19.497Z</time></trkpt><trkpt lat="46.14767721987364" lon="11.458786929179947"><ele>1330.0</ele><time>2026-05-02T12:38:20.497Z</time></trkpt><trkpt lat="46.14762586594861" lon="11.458922388056083"><ele>1330.0</ele><time>2026-05-02T12:38:21.497Z</time></trkpt><trkpt lat="46.14757843670791" lon="11.459060457899623"><ele>1330.0</ele><time>2026-05-02T12:38:22.497Z</time></trkpt><trkpt lat="46.147541851565435" lon="11.459197228929668"><ele>1329.5</ele><time>2026-05-02T12:38:23.497Z</time></trkpt><trkpt lat="46.1475313906282" lon="11.459319330822783"><ele>1329.0</ele><time>2026-05-02T12:38:24.497Z</time></trkpt><trkpt lat="46.14750356310299" lon="11.459427641324442"><ele>1328.5</ele><time>2026-05-02T12:38:25.497Z</time></trkpt><trkpt lat="46.14750059868431" lon="11.459539671087503"><ele>1328.0</ele><time>2026-05-02T12:38:26.497Z</time></trkpt><trkpt lat="46.14751950624809" lon="11.459655333486973"><ele>1327.5</ele><time>2026-05-02T12:38:27.497Z</time></trkpt><trkpt lat="46.14753271200571" lon="11.459779443257066"><ele>1327.0</ele><time>2026-05-02T12:38:28.497Z</time></trkpt><trkpt lat="46.14753770863473" lon="11.459922842349897"><ele>1328.6</ele><time>2026-05-02T12:38:29.497Z</time></trkpt><trkpt lat="46.14750866180088" lon="11.460061090893417"><ele>1330.1999999999998</ele><time>2026-05-02T12:38:30.497Z</time></trkpt><trkpt lat="46.1474772164371" lon="11.460186888646621"><ele>1331.8</ele><time>2026-05-02T12:38:31.497Z</time></trkpt><trkpt lat="46.14743236717886" lon="11.46029697837379"><ele>1333.4</ele><time>2026-05-02T12:38:32.497Z</time></trkpt><trkpt lat="46.14735365741406" lon="11.460408665945588"><ele>1335.0</ele><time>2026-05-02T12:38:33.497Z</time></trkpt><trkpt lat="46.147230799439335" lon="11.460533521113499"><ele>1329.5</ele><time>2026-05-02T12:38:34.497Z</time></trkpt><trkpt lat="46.14714182787472" lon="11.460698357558075"><ele>1324.0</ele><time>2026-05-02T12:38:35.497Z</time></trkpt><trkpt lat="46.14704585392997" lon="11.460859284174528"><ele>1318.5</ele><time>2026-05-02T12:38:36.497Z</time></trkpt><trkpt lat="46.14693891488669" lon="11.46102324374135"><ele>1313.0</ele><time>2026-05-02T12:38:37.497Z</time></trkpt><trkpt lat="46.14683242005867" lon="11.461165976189772"><ele>1318.0</ele><time>2026-05-02T12:38:38.497Z</time></trkpt><trkpt lat="46.14673129266482" lon="11.461335744352597"><ele>1323.0</ele><time>2026-05-02T12:38:39.497Z</time></trkpt><trkpt lat="46.14665473587961" lon="11.461500841401218"><ele>1328.0</ele><time>2026-05-02T12:38:40.497Z</time></trkpt><trkpt lat="46.14659268907057" lon="11.461678087476084"><ele>1333.0</ele><time>2026-05-02T12:38:41.497Z</time></trkpt><trkpt lat="46.146544843057185" lon="11.461867524785482"><ele>1330.25</ele><time>2026-05-02T12:38:42.497Z</time></trkpt><trkpt lat="46.14647386239778" lon="11.462029138944768"><ele>1327.5</ele><time>2026-05-02T12:38:43.497Z</time></trkpt><trkpt lat="46.14638495619889" lon="11.462148315430715"><ele>1324.75</ele><time>2026-05-02T12:38:44.497Z</time></trkpt><trkpt lat="46.146267426975434" lon="11.4622525934875"><ele>1322.0</ele><time>2026-05-02T12:38:45.497Z</time></trkpt><trkpt lat="46.14612741131442" lon="11.462331908142612"><ele>1322.0</ele><time>2026-05-02T12:38:46.497Z</time></trkpt><trkpt lat="46.1459789287932" lon="11.462378616259256"><ele>1322.0</ele><time>2026-05-02T12:38:47.498Z</time></trkpt><trkpt lat="46.14586379557323" lon="11.46241236519246"><ele>1322.0</ele><time>2026-05-02T12:38:48.498Z</time></trkpt><trkpt lat="46.14578693291702" lon="11.462501557661925"><ele>1322.0</ele><time>2026-05-02T12:38:49.498Z</time></trkpt><trkpt lat="46.145734875136974" lon="11.462630131301601"><ele>1321.0</ele><time>2026-05-02T12:38:50.498Z</time></trkpt><trkpt lat="46.14569508992859" lon="11.462780477288817"><ele>1320.0</ele><time>2026-05-02T12:38:51.498Z</time></trkpt><trkpt lat="46.14564213615053" lon="11.462927049294251"><ele>1319.0</ele><time>2026-05-02T12:38:52.498Z</time></trkpt><trkpt lat="46.14555386904308" lon="11.46307230025563"><ele>1318.0</ele><time>2026-05-02T12:38:53.498Z</time></trkpt><trkpt lat="46.145447232463674" lon="11.463194700911561"><ele>1318.0</ele><time>2026-05-02T12:38:54.498Z</time></trkpt><trkpt lat="46.14535167160629" lon="11.463289271802958"><ele>1318.0</ele><time>2026-05-02T12:38:55.498Z</time></trkpt><trkpt lat="46.145247794475054" lon="11.463329739369028"><ele>1318.0</ele><time>2026-05-02T12:38:56.498Z</time></trkpt><trkpt lat="46.14509347772401" lon="11.463318958102503"><ele>1318.0</ele><time>2026-05-02T12:38:57.498Z</time></trkpt><trkpt lat="46.14496635154188" lon="11.463354847374621"><ele>1315.0</ele><time>2026-05-02T12:38:58.498Z</time></trkpt><trkpt lat="46.144853351810674" lon="11.46346779851158"><ele>1312.0</ele><time>2026-05-02T12:38:59.498Z</time></trkpt><trkpt lat="46.14474195402292" lon="11.46359764905595"><ele>1309.0</ele><time>2026-05-02T12:39:00.498Z</time></trkpt><trkpt lat="46.14463188844282" lon="11.463734134773285"><ele>1306.0</ele><time>2026-05-02T12:39:01.498Z</time></trkpt><trkpt lat="46.144533717111706" lon="11.46390596736972"><ele>1306.0</ele><time>2026-05-02T12:39:02.498Z</time></trkpt><trkpt lat="46.144444351330925" lon="11.46408182127365"><ele>1306.0</ele><time>2026-05-02T12:39:03.498Z</time></trkpt><trkpt lat="46.14439533094094" lon="11.464260954453747"><ele>1306.0</ele><time>2026-05-02T12:39:04.498Z</time></trkpt><trkpt lat="46.14435003358997" lon="11.464445164829682"><ele>1306.0</ele><time>2026-05-02T12:39:05.498Z</time></trkpt><trkpt lat="46.14428710595952" lon="11.464632391495893"><ele>1311.3333333333333</ele><time>2026-05-02T12:39:06.498Z</time></trkpt><trkpt lat="46.14419805260124" lon="11.464810829615624"><ele>1316.6666666666667</ele><time>2026-05-02T12:39:07.498Z</time></trkpt><trkpt lat="46.1440666633003" lon="11.464956072169716"><ele>1322.0</ele><time>2026-05-02T12:39:08.498Z</time></trkpt><trkpt lat="46.14395312540156" lon="11.46511419482792"><ele>1317.0</ele><time>2026-05-02T12:39:09.498Z</time></trkpt><trkpt lat="46.143853905562025" lon="11.465280976546348"><ele>1312.0</ele><time>2026-05-02T12:39:10.498Z</time></trkpt><trkpt lat="46.14375938152961" lon="11.46543792837988"><ele>1307.0</ele><time>2026-05-02T12:39:11.498Z</time></trkpt><trkpt lat="46.143679771277455" lon="11.465599767252646"><ele>1302.0</ele><time>2026-05-02T12:39:12.498Z</time></trkpt><trkpt lat="46.143621186018585" lon="11.465792109271536"><ele>1302.0</ele><time>2026-05-02T12:39:13.498Z</time></trkpt><trkpt lat="46.14357483579713" lon="11.465971475081474"><ele>1302.0</ele><time>2026-05-02T12:39:14.498Z</time></trkpt><trkpt lat="46.143511833941346" lon="11.466133062383706"><ele>1302.0</ele><time>2026-05-02T12:39:15.498Z</time></trkpt><trkpt lat="46.143435144295125" lon="11.466249320317637"><ele>1302.0</ele><time>2026-05-02T12:39:16.498Z</time></trkpt><trkpt lat="46.143359965789635" lon="11.466333588007226"><ele>1299.5</ele><time>2026-05-02T12:39:17.498Z</time></trkpt><trkpt lat="46.143290880093325" lon="11.46638589491601"><ele>1297.0</ele><time>2026-05-02T12:39:18.498Z</time></trkpt><trkpt lat="46.143192386168785" lon="11.466357877875783"><ele>1294.5</ele><time>2026-05-02T12:39:19.498Z</time></trkpt><trkpt lat="46.142995096309534" lon="11.466267766891784"><ele>1292.0</ele><time>2026-05-02T12:39:20.498Z</time></trkpt><trkpt lat="46.1428728991227" lon="11.466281329855658"><ele>1292.0</ele><time>2026-05-02T12:39:21.498Z</time></trkpt><trkpt lat="46.14277039450469" lon="11.46633418072742"><ele>1292.0</ele><time>2026-05-02T12:39:22.498Z</time></trkpt><trkpt lat="46.14267634041597" lon="11.466417246795599"><ele>1292.0</ele><time>2026-05-02T12:39:23.498Z</time></trkpt><trkpt lat="46.14258048685061" lon="11.466536597512588"><ele>1292.0</ele><time>2026-05-02T12:39:24.498Z</time></trkpt><trkpt lat="46.14248630602307" lon="11.466697740853625"><ele>1292.0</ele><time>2026-05-02T12:39:25.498Z</time></trkpt><trkpt lat="46.142405133512014" lon="11.46688674903908"><ele>1292.0</ele><time>2026-05-02T12:39:26.498Z</time></trkpt><trkpt lat="46.14231891669713" lon="11.46704154430742"><ele>1292.0</ele><time>2026-05-02T12:39:27.498Z</time></trkpt><trkpt lat="46.14223392333164" lon="11.467178216665424"><ele>1292.0</ele><time>2026-05-02T12:39:28.498Z</time></trkpt><trkpt lat="46.14212927624244" lon="11.467281133658688"><ele>1289.0</ele><time>2026-05-02T12:39:29.498Z</time></trkpt><trkpt lat="46.14203335854622" lon="11.467388191835628"><ele>1286.0</ele><time>2026-05-02T12:39:30.498Z</time></trkpt><trkpt lat="46.14194447862133" lon="11.467499314694157"><ele>1283.0</ele><time>2026-05-02T12:39:31.498Z</time></trkpt><trkpt lat="46.14187582045342" lon="11.46763597955059"><ele>1280.0</ele><time>2026-05-02T12:39:32.498Z</time></trkpt><trkpt lat="46.14186404371954" lon="11.467824997935525"><ele>1284.75</ele><time>2026-05-02T12:39:33.498Z</time></trkpt><trkpt lat="46.14183468740347" lon="11.468021085771989"><ele>1289.5</ele><time>2026-05-02T12:39:34.498Z</time></trkpt><trkpt lat="46.14176451541484" lon="11.468186675813747"><ele>1294.25</ele><time>2026-05-02T12:39:35.498Z</time></trkpt><trkpt lat="46.14168205454034" lon="11.468312807522757"><ele>1299.0</ele><time>2026-05-02T12:39:36.498Z</time></trkpt><trkpt lat="46.141558190446716" lon="11.468403711727785"><ele>1294.0</ele><time>2026-05-02T12:39:37.498Z</time></trkpt><trkpt lat="46.14145078048399" lon="11.468479497634412"><ele>1289.0</ele><time>2026-05-02T12:39:38.498Z</time></trkpt><trkpt lat="46.14133654073288" lon="11.468546891464275"><ele>1284.0</ele><time>2026-05-02T12:39:39.498Z</time></trkpt><trkpt lat="46.14122750269588" lon="11.468588246360378"><ele>1279.0</ele><time>2026-05-02T12:39:40.498Z</time></trkpt><trkpt lat="46.14104042844276" lon="11.468578852111332"><ele>1279.0</ele><time>2026-05-02T12:39:41.498Z</time></trkpt><trkpt lat="46.1407888413451" lon="11.468405174379596"><ele>1279.0</ele><time>2026-05-02T12:39:42.498Z</time></trkpt><trkpt lat="46.140669573909804" lon="11.468417627657878"><ele>1279.0</ele><time>2026-05-02T12:39:43.498Z</time></trkpt><trkpt lat="46.140544838158924" lon="11.468474274431145"><ele>1275.6666666666665</ele><time>2026-05-02T12:39:44.498Z</time></trkpt><trkpt lat="46.14037978023853" lon="11.468587625741192"><ele>1272.3333333333333</ele><time>2026-05-02T12:39:45.498Z</time></trkpt><trkpt lat="46.14023548110757" lon="11.46869248002333"><ele>1269.0</ele><time>2026-05-02T12:39:46.498Z</time></trkpt><trkpt lat="46.1401276693985" lon="11.468780541111963"><ele>1269.0</ele><time>2026-05-02T12:39:47.498Z</time></trkpt><trkpt lat="46.14003744076992" lon="11.468898226276949"><ele>1269.0</ele><time>2026-05-02T12:39:48.498Z</time></trkpt><trkpt lat="46.139935316748776" lon="11.469068451764626"><ele>1269.0</ele><time>2026-05-02T12:39:49.498Z</time></trkpt><trkpt lat="46.13986625431862" lon="11.469299001145039"><ele>1265.5</ele><time>2026-05-02T12:39:50.498Z</time></trkpt><trkpt lat="46.139777319710106" lon="11.469483051509151"><ele>1262.0</ele><time>2026-05-02T12:39:51.498Z</time></trkpt><trkpt lat="46.139693393164436" lon="11.469659418036333"><ele>1258.5</ele><time>2026-05-02T12:39:52.498Z</time></trkpt><trkpt lat="46.13961318555257" lon="11.469821039876894"><ele>1255.0</ele><time>2026-05-02T12:39:53.498Z</time></trkpt><trkpt lat="46.1395744040808" lon="11.470014861439951"><ele>1255.0</ele><time>2026-05-02T12:39:54.498Z</time></trkpt><trkpt lat="46.1395244672249" lon="11.470210754065054"><ele>1255.0</ele><time>2026-05-02T12:39:55.498Z</time></trkpt><trkpt lat="46.13947580540083" lon="11.470407936498484"><ele>1255.0</ele><time>2026-05-02T12:39:56.498Z</time></trkpt><trkpt lat="46.13941657954428" lon="11.470607892965972"><ele>1255.0</ele><time>2026-05-02T12:39:57.498Z</time></trkpt><trkpt lat="46.139355062821" lon="11.470815749447683"><ele>1254.75</ele><time>2026-05-02T12:39:58.498Z</time></trkpt><trkpt lat="46.13930392563338" lon="11.471034984602136"><ele>1254.5</ele><time>2026-05-02T12:39:59.498Z</time></trkpt><trkpt lat="46.13925584402576" lon="11.471231017238397"><ele>1254.25</ele><time>2026-05-02T12:40:00.498Z</time></trkpt><trkpt lat="46.13922238568348" lon="11.471396821008122"><ele>1254.0</ele><time>2026-05-02T12:40:01.498Z</time></trkpt><trkpt lat="46.13922105090968" lon="11.471541217179167"><ele>1253.6000000000001</ele><time>2026-05-02T12:40:02.498Z</time></trkpt><trkpt lat="46.13928058890532" lon="11.471733883002093"><ele>1253.2</ele><time>2026-05-02T12:40:04.498Z</time></trkpt><trkpt lat="46.13932459677938" lon="11.47183550274267"><ele>1252.8000000000002</ele><time>2026-05-02T12:40:05.498Z</time></trkpt><trkpt lat="46.139316504606434" lon="11.471931607029079"><ele>1252.4</ele><time>2026-05-02T12:40:06.498Z</time></trkpt><trkpt lat="46.13927918445018" lon="11.472005857646401"><ele>1252.0</ele><time>2026-05-02T12:40:07.498Z</time></trkpt><trkpt lat="46.13919220980536" lon="11.472078710165858"><ele>1240.5</ele><time>2026-05-02T12:40:09.498Z</time></trkpt><trkpt lat="46.13897711108688" lon="11.471791809373782"><ele>1229.0</ele><time>2026-05-02T12:40:11.498Z</time></trkpt><trkpt lat="46.13887376961771" lon="11.471539031898251"><ele>1229.0</ele><time>2026-05-02T12:40:12.498Z</time></trkpt><trkpt lat="46.13875579269031" lon="11.471350961188913"><ele>1229.0</ele><time>2026-05-02T12:40:13.498Z</time></trkpt><trkpt lat="46.138655257736936" lon="11.471207101089101"><ele>1229.0</ele><time>2026-05-02T12:40:14.498Z</time></trkpt><trkpt lat="46.13857689354596" lon="11.471066687311096"><ele>1229.0</ele><time>2026-05-02T12:40:15.498Z</time></trkpt><trkpt lat="46.138518768870924" lon="11.470976812757538"><ele>1229.8</ele><time>2026-05-02T12:40:16.498Z</time></trkpt><trkpt lat="46.13844390994941" lon="11.470945355337594"><ele>1230.6000000000001</ele><time>2026-05-02T12:40:17.498Z</time></trkpt><trkpt lat="46.13836462538153" lon="11.47092917076187"><ele>1231.4</ele><time>2026-05-02T12:40:18.498Z</time></trkpt><trkpt lat="46.13827000071215" lon="11.471002741931997"><ele>1232.2</ele><time>2026-05-02T12:40:19.498Z</time></trkpt><trkpt lat="46.13821978988936" lon="11.471104658361316"><ele>1233.0</ele><time>2026-05-02T12:40:20.498Z</time></trkpt><trkpt lat="46.138146286324755" lon="11.471269515565151"><ele>1227.3333333333333</ele><time>2026-05-02T12:40:21.498Z</time></trkpt><trkpt lat="46.13806841059564" lon="11.4714635360511"><ele>1221.6666666666665</ele><time>2026-05-02T12:40:22.498Z</time></trkpt><trkpt lat="46.13799027992871" lon="11.471661757717538"><ele>1216.0</ele><time>2026-05-02T12:40:23.498Z</time></trkpt><trkpt lat="46.13791075644333" lon="11.471841226316478"><ele>1216.0</ele><time>2026-05-02T12:40:24.498Z</time></trkpt><trkpt lat="46.13782974103859" lon="11.472037261953318"><ele>1216.0</ele><time>2026-05-02T12:40:25.498Z</time></trkpt><trkpt lat="46.13775840744143" lon="11.472255007082879"><ele>1216.0</ele><time>2026-05-02T12:40:26.498Z</time></trkpt><trkpt lat="46.137685665258694" lon="11.472477745062218"><ele>1215.3333333333333</ele><time>2026-05-02T12:40:27.498Z</time></trkpt><trkpt lat="46.13763086751118" lon="11.47270205956595"><ele>1214.6666666666667</ele><time>2026-05-02T12:40:28.498Z</time></trkpt><trkpt lat="46.13758697818841" lon="11.472925930402118"><ele>1214.0</ele><time>2026-05-02T12:40:29.498Z</time></trkpt><trkpt lat="46.137519136508296" lon="11.473131964372195"><ele>1213.3333333333335</ele><time>2026-05-02T12:40:30.498Z</time></trkpt><trkpt lat="46.13742892567785" lon="11.473314646665814"><ele>1212.6666666666667</ele><time>2026-05-02T12:40:31.498Z</time></trkpt><trkpt lat="46.13732765295183" lon="11.473480180122943"><ele>1212.0</ele><time>2026-05-02T12:40:32.498Z</time></trkpt><trkpt lat="46.13721134868922" lon="11.47363713552833"><ele>1208.0</ele><time>2026-05-02T12:40:33.498Z</time></trkpt><trkpt lat="46.137109127405076" lon="11.47380285741425"><ele>1204.0</ele><time>2026-05-02T12:40:34.498Z</time></trkpt><trkpt lat="46.13700591459409" lon="11.473969550323178"><ele>1200.0</ele><time>2026-05-02T12:40:35.498Z</time></trkpt><trkpt lat="46.136901905310154" lon="11.474132311668273"><ele>1200.0</ele><time>2026-05-02T12:40:36.498Z</time></trkpt><trkpt lat="46.13678791533944" lon="11.474275857977537"><ele>1200.0</ele><time>2026-05-02T12:40:37.498Z</time></trkpt><trkpt lat="46.136661605557414" lon="11.474392573957205"><ele>1200.0</ele><time>2026-05-02T12:40:38.498Z</time></trkpt><trkpt lat="46.13652482260902" lon="11.474494645624338"><ele>1195.3333333333333</ele><time>2026-05-02T12:40:39.498Z</time></trkpt><trkpt lat="46.13634344492587" lon="11.474583408748066"><ele>1190.6666666666665</ele><time>2026-05-02T12:40:40.498Z</time></trkpt><trkpt lat="46.13615378578967" lon="11.474716269397087"><ele>1186.0</ele><time>2026-05-02T12:40:41.498Z</time></trkpt><trkpt lat="46.13601338070339" lon="11.474912272839052"><ele>1186.0</ele><time>2026-05-02T12:40:42.498Z</time></trkpt><trkpt lat="46.13588019844279" lon="11.475080323438897"><ele>1186.0</ele><time>2026-05-02T12:40:43.498Z</time></trkpt><trkpt lat="46.1357490160866" lon="11.47522000981638"><ele>1186.0</ele><time>2026-05-02T12:40:44.498Z</time></trkpt><trkpt lat="46.13560493596143" lon="11.475340596661814"><ele>1182.6666666666665</ele><time>2026-05-02T12:40:45.498Z</time></trkpt><trkpt lat="46.13544959289608" lon="11.475439573443083"><ele>1179.3333333333333</ele><time>2026-05-02T12:40:46.498Z</time></trkpt><trkpt lat="46.13530591316876" lon="11.475523156381009"><ele>1176.0</ele><time>2026-05-02T12:40:47.498Z</time></trkpt><trkpt lat="46.135145249698525" lon="11.475549934294975"><ele>1176.0</ele><time>2026-05-02T12:40:48.498Z</time></trkpt><trkpt lat="46.134998093061576" lon="11.47558214945772"><ele>1176.0</ele><time>2026-05-02T12:40:49.498Z</time></trkpt><trkpt lat="46.134860028729" lon="11.475653155765583"><ele>1176.0</ele><time>2026-05-02T12:40:50.498Z</time></trkpt><trkpt lat="46.13472190079174" lon="11.475751567590358"><ele>1176.0</ele><time>2026-05-02T12:40:51.498Z</time></trkpt><trkpt lat="46.13457347517889" lon="11.47589051882551"><ele>1170.0</ele><time>2026-05-02T12:40:52.498Z</time></trkpt><trkpt lat="46.13440771615239" lon="11.476117073171343"><ele>1164.0</ele><time>2026-05-02T12:40:53.498Z</time></trkpt><trkpt lat="46.13424313518756" lon="11.476370583723677"><ele>1164.0</ele><time>2026-05-02T12:40:54.498Z</time></trkpt><trkpt lat="46.13407051045134" lon="11.47664720676865"><ele>1164.0</ele><time>2026-05-02T12:40:55.498Z</time></trkpt><trkpt lat="46.13391173439406" lon="11.476926973713917"><ele>1159.5</ele><time>2026-05-02T12:40:56.498Z</time></trkpt><trkpt lat="46.13375580174539" lon="11.477179733036156"><ele>1155.0</ele><time>2026-05-02T12:40:57.498Z</time></trkpt><trkpt lat="46.13360825947539" lon="11.47740624799337"><ele>1155.0</ele><time>2026-05-02T12:40:58.498Z</time></trkpt><trkpt lat="46.13347295579228" lon="11.477615848989355"><ele>1155.0</ele><time>2026-05-02T12:40:59.498Z</time></trkpt><trkpt lat="46.133350221339015" lon="11.477812576856344"><ele>1155.0</ele><time>2026-05-02T12:41:00.498Z</time></trkpt><trkpt lat="46.133224218077444" lon="11.477982305541394"><ele>1152.3333333333333</ele><time>2026-05-02T12:41:01.498Z</time></trkpt><trkpt lat="46.133090159140245" lon="11.478149180454755"><ele>1149.6666666666665</ele><time>2026-05-02T12:41:02.498Z</time></trkpt><trkpt lat="46.13289617113491" lon="11.478261474749734"><ele>1147.0</ele><time>2026-05-02T12:41:03.498Z</time></trkpt><trkpt lat="46.13271736787005" lon="11.478356386378573"><ele>1147.0</ele><time>2026-05-02T12:41:04.498Z</time></trkpt><trkpt lat="46.13252637504275" lon="11.47842586936247"><ele>1147.0</ele><time>2026-05-02T12:41:05.498Z</time></trkpt><trkpt lat="46.132374273718085" lon="11.478509711194095"><ele>1147.0</ele><time>2026-05-02T12:41:06.498Z</time></trkpt><trkpt lat="46.13222118863515" lon="11.478564625352536"><ele>1145.3333333333333</ele><time>2026-05-02T12:41:07.498Z</time></trkpt><trkpt lat="46.132054768088715" lon="11.478583318186152"><ele>1143.6666666666667</ele><time>2026-05-02T12:41:08.498Z</time></trkpt><trkpt lat="46.13188139809883" lon="11.478579633239523"><ele>1142.0</ele><time>2026-05-02T12:41:09.498Z</time></trkpt><trkpt lat="46.13164342681036" lon="11.478500228562584"><ele>1141.0</ele><time>2026-05-02T12:41:10.498Z</time></trkpt><trkpt lat="46.1314196238489" lon="11.478422137409126"><ele>1140.0</ele><time>2026-05-02T12:41:11.498Z</time></trkpt><trkpt lat="46.13120383643414" lon="11.478359133410624"><ele>1140.0</ele><time>2026-05-02T12:41:12.498Z</time></trkpt><trkpt lat="46.13102316188497" lon="11.478324182453369"><ele>1140.0</ele><time>2026-05-02T12:41:13.498Z</time></trkpt><trkpt lat="46.1308536280545" lon="11.478291051716273"><ele>1140.0</ele><time>2026-05-02T12:41:14.498Z</time></trkpt><trkpt lat="46.13068931155584" lon="11.47826151506834"><ele>1136.5</ele><time>2026-05-02T12:41:15.498Z</time></trkpt><trkpt lat="46.13053591256241" lon="11.47823917519121"><ele>1133.0</ele><time>2026-05-02T12:41:16.498Z</time></trkpt><trkpt lat="46.13039880230873" lon="11.478273814159735"><ele>1129.5</ele><time>2026-05-02T12:41:17.498Z</time></trkpt><trkpt lat="46.130266592724965" lon="11.478316717808159"><ele>1126.0</ele><time>2026-05-02T12:41:18.498Z</time></trkpt><trkpt lat="46.130103106101785" lon="11.47833894222728"><ele>1126.0</ele><time>2026-05-02T12:41:19.498Z</time></trkpt><trkpt lat="46.12995144587842" lon="11.478383394172791"><ele>1126.0</ele><time>2026-05-02T12:41:20.498Z</time></trkpt><trkpt lat="46.12981045462659" lon="11.478418424685561"><ele>1126.0</ele><time>2026-05-02T12:41:21.498Z</time></trkpt><trkpt lat="46.12966492359501" lon="11.478463718484726"><ele>1126.0</ele><time>2026-05-02T12:41:22.498Z</time></trkpt><trkpt lat="46.12950117297487" lon="11.478539630125278"><ele>1123.0</ele><time>2026-05-02T12:41:23.498Z</time></trkpt><trkpt lat="46.129314595293934" lon="11.47868654454647"><ele>1120.0</ele><time>2026-05-02T12:41:24.498Z</time></trkpt><trkpt lat="46.129123976960365" lon="11.478873011969666"><ele>1117.0</ele><time>2026-05-02T12:41:25.498Z</time></trkpt><trkpt lat="46.128953812073476" lon="11.479039334139644"><ele>1112.3333333333333</ele><time>2026-05-02T12:41:26.498Z</time></trkpt><trkpt lat="46.12879004841702" lon="11.479197395193976"><ele>1107.6666666666667</ele><time>2026-05-02T12:41:27.498Z</time></trkpt><trkpt lat="46.1286366458129" lon="11.479335790364479"><ele>1103.0</ele><time>2026-05-02T12:41:28.498Z</time></trkpt><trkpt lat="46.12848871229021" lon="11.479469795650369"><ele>1103.0</ele><time>2026-05-02T12:41:29.498Z</time></trkpt><trkpt lat="46.12836881214004" lon="11.479576850944614"><ele>1103.0</ele><time>2026-05-02T12:41:30.498Z</time></trkpt><trkpt lat="46.12824447483228" lon="11.479653206461819"><ele>1103.0</ele><time>2026-05-02T12:41:31.498Z</time></trkpt><trkpt lat="46.128115039683294" lon="11.479723093306458"><ele>1103.0</ele><time>2026-05-02T12:41:32.498Z</time></trkpt><trkpt lat="46.127975873301544" lon="11.47976336616902"><ele>1101.25</ele><time>2026-05-02T12:41:33.498Z</time></trkpt><trkpt lat="46.127831187692955" lon="11.47977468179597"><ele>1099.5</ele><time>2026-05-02T12:41:34.498Z</time></trkpt><trkpt lat="46.12768350706623" lon="11.47978393191847"><ele>1097.75</ele><time>2026-05-02T12:41:35.498Z</time></trkpt><trkpt lat="46.12754027871554" lon="11.479829878688024"><ele>1096.0</ele><time>2026-05-02T12:41:36.498Z</time></trkpt><trkpt lat="46.1274046543686" lon="11.479940232403806"><ele>1089.6666666666665</ele><time>2026-05-02T12:41:37.498Z</time></trkpt><trkpt lat="46.127244768909684" lon="11.480065087560897"><ele>1083.3333333333333</ele><time>2026-05-02T12:41:38.498Z</time></trkpt><trkpt lat="46.12709161666586" lon="11.480249633901224"><ele>1077.0</ele><time>2026-05-02T12:41:39.498Z</time></trkpt><trkpt lat="46.126935957696425" lon="11.480405743277482"><ele>1079.0</ele><time>2026-05-02T12:41:40.498Z</time></trkpt><trkpt lat="46.126784297471524" lon="11.480538304980872"><ele>1081.0</ele><time>2026-05-02T12:41:41.498Z</time></trkpt><trkpt lat="46.12665199797481" lon="11.480666559313534"><ele>1083.0</ele><time>2026-05-02T12:41:42.498Z</time></trkpt><trkpt lat="46.126531335621756" lon="11.480786245315311"><ele>1078.75</ele><time>2026-05-02T12:41:43.498Z</time></trkpt><trkpt lat="46.12639952654535" lon="11.48088760861744"><ele>1074.5</ele><time>2026-05-02T12:41:44.498Z</time></trkpt><trkpt lat="46.12628707385769" lon="11.480939090056326"><ele>1070.25</ele><time>2026-05-02T12:41:45.498Z</time></trkpt><trkpt lat="46.126181312992586" lon="11.481003132335267"><ele>1066.0</ele><time>2026-05-02T12:41:46.498Z</time></trkpt><trkpt lat="46.12608051001304" lon="11.480991987135617"><ele>1066.0</ele><time>2026-05-02T12:41:47.498Z</time></trkpt><trkpt lat="46.12597108270768" lon="11.480945271930024"><ele>1066.0</ele><time>2026-05-02T12:41:48.498Z</time></trkpt><trkpt lat="46.12584808102995" lon="11.480783320440624"><ele>1066.0</ele><time>2026-05-02T12:41:49.498Z</time></trkpt><trkpt lat="46.12573250158585" lon="11.480624282741214"><ele>1066.0</ele><time>2026-05-02T12:41:50.498Z</time></trkpt><trkpt lat="46.1256491692775" lon="11.480440461167293"><ele>1070.3333333333333</ele><time>2026-05-02T12:41:51.498Z</time></trkpt><trkpt lat="46.125670566812076" lon="11.48030548395389"><ele>1074.6666666666665</ele><time>2026-05-02T12:41:53.498Z</time></trkpt><trkpt lat="46.12564735216553" lon="11.480218641330707"><ele>1079.0</ele><time>2026-05-02T12:41:57.498Z</time></trkpt><trkpt lat="46.12559013579894" lon="11.480178816360306"><ele>1083.3333333333333</ele><time>2026-05-02T12:42:49.498Z</time></trkpt><trkpt lat="46.12551482498143" lon="11.480205554512068"><ele>1087.6666666666667</ele><time>2026-05-02T12:42:50.498Z</time></trkpt><trkpt lat="46.125434885923056" lon="11.480242847301527"><ele>1092.0</ele><time>2026-05-02T12:42:51.498Z</time></trkpt><trkpt lat="46.12536043920204" lon="11.480293638931014"><ele>1092.0</ele><time>2026-05-02T12:42:52.498Z</time></trkpt><trkpt lat="46.12529974811701" lon="11.480363669013546"><ele>1092.0</ele><time>2026-05-02T12:42:53.498Z</time></trkpt><trkpt lat="46.125222833795796" lon="11.480460569179826"><ele>1092.0</ele><time>2026-05-02T12:42:54.498Z</time></trkpt><trkpt lat="46.12514855655721" lon="11.480537198183265"><ele>1092.0</ele><time>2026-05-02T12:42:55.498Z</time></trkpt><trkpt lat="46.12508146282308" lon="11.48061016792199"><ele>1092.0</ele><time>2026-05-02T12:42:56.498Z</time></trkpt><trkpt lat="46.12502333439192" lon="11.480674430067975"><ele>1092.0</ele><time>2026-05-02T12:42:57.498Z</time></trkpt><trkpt lat="46.124969922277884" lon="11.480732263261423"><ele>1091.8</ele><time>2026-05-02T12:42:58.498Z</time></trkpt><trkpt lat="46.12492284896272" lon="11.48080145106281"><ele>1091.6</ele><time>2026-05-02T12:42:59.499Z</time></trkpt><trkpt lat="46.124870360324294" lon="11.480882045050118"><ele>1091.3999999999999</ele><time>2026-05-02T12:43:00.499Z</time></trkpt><trkpt lat="46.12480677057684" lon="11.480972738113847"><ele>1091.2</ele><time>2026-05-02T12:43:01.499Z</time></trkpt><trkpt lat="46.12471244208282" lon="11.481072623554423"><ele>1091.0</ele><time>2026-05-02T12:43:02.499Z</time></trkpt><trkpt lat="46.12461683924266" lon="11.481190890090344"><ele>1083.5</ele><time>2026-05-02T12:43:03.499Z</time></trkpt><trkpt lat="46.12451865077139" lon="11.481296064150472"><ele>1076.0</ele><time>2026-05-02T12:43:04.499Z</time></trkpt><trkpt lat="46.12443151177959" lon="11.481412878325852"><ele>1068.5</ele><time>2026-05-02T12:43:05.499Z</time></trkpt><trkpt lat="46.124336153592026" lon="11.481512881769948"><ele>1061.0</ele><time>2026-05-02T12:43:06.499Z</time></trkpt><trkpt lat="46.124249559286525" lon="11.481605472706924"><ele>1061.0</ele><time>2026-05-02T12:43:07.499Z</time></trkpt><trkpt lat="46.12418388435297" lon="11.481701811017013"><ele>1061.0</ele><time>2026-05-02T12:43:08.499Z</time></trkpt><trkpt lat="46.124068713260336" lon="11.481754578881247"><ele>1061.0</ele><time>2026-05-02T12:43:09.499Z</time></trkpt><trkpt lat="46.12395715920793" lon="11.481780222950555"><ele>1061.0</ele><time>2026-05-02T12:43:10.499Z</time></trkpt><trkpt lat="46.123638863779256" lon="11.481512794073721"><ele>1059.0</ele><time>2026-05-02T12:43:11.499Z</time></trkpt><trkpt lat="46.12345249049156" lon="11.481523724809191"><ele>1057.0</ele><time>2026-05-02T12:43:12.499Z</time></trkpt><trkpt lat="46.12328739646628" lon="11.481549951817161"><ele>1055.0</ele><time>2026-05-02T12:43:13.499Z</time></trkpt><trkpt lat="46.12311616194706" lon="11.481567059912802"><ele>1059.0</ele><time>2026-05-02T12:43:14.499Z</time></trkpt><trkpt lat="46.12293706363224" lon="11.481590532660801"><ele>1063.0</ele><time>2026-05-02T12:43:15.499Z</time></trkpt><trkpt lat="46.122755963975216" lon="11.481622798933078"><ele>1067.0</ele><time>2026-05-02T12:43:16.499Z</time></trkpt><trkpt lat="46.12259415185237" lon="11.481658966556617"><ele>1067.0</ele><time>2026-05-02T12:43:17.499Z</time></trkpt><trkpt lat="46.12243629537593" lon="11.481739242940204"><ele>1067.0</ele><time>2026-05-02T12:43:18.499Z</time></trkpt><trkpt lat="46.12226678035187" lon="11.481823558436526"><ele>1067.0</ele><time>2026-05-02T12:43:19.499Z</time></trkpt><trkpt lat="46.122120392929055" lon="11.481911528702621"><ele>1069.75</ele><time>2026-05-02T12:43:20.499Z</time></trkpt><trkpt lat="46.1219888782202" lon="11.481999091597535"><ele>1072.5</ele><time>2026-05-02T12:43:21.499Z</time></trkpt><trkpt lat="46.121897156679395" lon="11.482073260758614"><ele>1075.25</ele><time>2026-05-02T12:43:22.499Z</time></trkpt><trkpt lat="46.12178196645163" lon="11.482119153801634"><ele>1078.0</ele><time>2026-05-02T12:43:23.499Z</time></trkpt><trkpt lat="46.121679879227095" lon="11.482191823769224"><ele>1075.75</ele><time>2026-05-02T12:43:24.499Z</time></trkpt><trkpt lat="46.121622436172935" lon="11.482149179368578"><ele>1073.5</ele><time>2026-05-02T12:43:25.499Z</time></trkpt><trkpt lat="46.1214414406089" lon="11.482029879071069"><ele>1071.25</ele><time>2026-05-02T12:43:26.499Z</time></trkpt><trkpt lat="46.12133561092633" lon="11.482160072242891"><ele>1069.0</ele><time>2026-05-02T12:43:27.499Z</time></trkpt><trkpt lat="46.12120319691909" lon="11.482279501732437"><ele>1069.0</ele><time>2026-05-02T12:43:28.499Z</time></trkpt><trkpt lat="46.12106174299971" lon="11.482390481915203"><ele>1069.0</ele><time>2026-05-02T12:43:29.499Z</time></trkpt><trkpt lat="46.12092759444244" lon="11.482529303518538"><ele>1069.0</ele><time>2026-05-02T12:43:30.499Z</time></trkpt><trkpt lat="46.12074251044702" lon="11.482814435818478"><ele>1073.3333333333333</ele><time>2026-05-02T12:43:31.499Z</time></trkpt><trkpt lat="46.12065290624487" lon="11.48299761674205"><ele>1077.6666666666667</ele><time>2026-05-02T12:43:32.499Z</time></trkpt><trkpt lat="46.12057467108542" lon="11.483198825302107"><ele>1082.0</ele><time>2026-05-02T12:43:33.499Z</time></trkpt><trkpt lat="46.120471050780296" lon="11.483360313363205"><ele>1082.0</ele><time>2026-05-02T12:43:34.499Z</time></trkpt><trkpt lat="46.120375104768335" lon="11.483518766322685"><ele>1082.0</ele><time>2026-05-02T12:43:35.499Z</time></trkpt><trkpt lat="46.12029605078342" lon="11.483705404205205"><ele>1082.0</ele><time>2026-05-02T12:43:36.499Z</time></trkpt><trkpt lat="46.12021232648552" lon="11.483862069776368"><ele>1082.0</ele><time>2026-05-02T12:43:37.499Z</time></trkpt><trkpt lat="46.12010264791915" lon="11.483976190724455"><ele>1089.25</ele><time>2026-05-02T12:43:38.499Z</time></trkpt><trkpt lat="46.12000288074844" lon="11.484138564342292"><ele>1096.5</ele><time>2026-05-02T12:43:39.499Z</time></trkpt><trkpt lat="46.11990615405254" lon="11.484287313689665"><ele>1103.75</ele><time>2026-05-02T12:43:40.499Z</time></trkpt><trkpt lat="46.1198471698377" lon="11.484453835453603"><ele>1111.0</ele><time>2026-05-02T12:43:41.499Z</time></trkpt><trkpt lat="46.11971300364488" lon="11.484586060596753"><ele>1096.0</ele><time>2026-05-02T12:43:42.499Z</time></trkpt><trkpt lat="46.11959848214197" lon="11.484726658439634"><ele>1081.0</ele><time>2026-05-02T12:43:43.499Z</time></trkpt><trkpt lat="46.11947829799725" lon="11.484841285123306"><ele>1066.0</ele><time>2026-05-02T12:43:44.499Z</time></trkpt><trkpt lat="46.1193541178375" lon="11.484965166849621"><ele>1051.0</ele><time>2026-05-02T12:43:45.499Z</time></trkpt><trkpt lat="46.11924527055306" lon="11.485121974697972"><ele>1051.0</ele><time>2026-05-02T12:43:46.499Z</time></trkpt><trkpt lat="46.1191522420063" lon="11.485297149517455"><ele>1051.0</ele><time>2026-05-02T12:43:47.499Z</time></trkpt><trkpt lat="46.11904037904977" lon="11.485510797425434"><ele>1051.0</ele><time>2026-05-02T12:43:48.499Z</time></trkpt><trkpt lat="46.11894058640482" lon="11.485694989064685"><ele>1051.3333333333333</ele><time>2026-05-02T12:43:49.499Z</time></trkpt><trkpt lat="46.118836328716675" lon="11.485902209134657"><ele>1051.6666666666667</ele><time>2026-05-02T12:43:50.499Z</time></trkpt><trkpt lat="46.11871407582175" lon="11.48607722529656"><ele>1052.0</ele><time>2026-05-02T12:43:51.499Z</time></trkpt><trkpt lat="46.118628169137125" lon="11.4862801830115"><ele>1052.0</ele><time>2026-05-02T12:43:52.499Z</time></trkpt><trkpt lat="46.11852624525297" lon="11.486503812065981"><ele>1052.0</ele><time>2026-05-02T12:43:53.499Z</time></trkpt><trkpt lat="46.118422072143076" lon="11.486733964535697"><ele>1052.0</ele><time>2026-05-02T12:43:54.499Z</time></trkpt><trkpt lat="46.11832719664688" lon="11.487029388946027"><ele>1042.6666666666667</ele><time>2026-05-02T12:43:55.499Z</time></trkpt><trkpt lat="46.11825893970766" lon="11.487303312120915"><ele>1033.3333333333333</ele><time>2026-05-02T12:43:56.499Z</time></trkpt><trkpt lat="46.11823358473343" lon="11.487593325813435"><ele>1024.0</ele><time>2026-05-02T12:43:57.499Z</time></trkpt><trkpt lat="46.118181380257816" lon="11.487821230131344"><ele>1032.6666666666665</ele><time>2026-05-02T12:43:58.499Z</time></trkpt><trkpt lat="46.11812999742922" lon="11.488051561578432"><ele>1041.3333333333333</ele><time>2026-05-02T12:43:59.499Z</time></trkpt><trkpt lat="46.11805715792103" lon="11.488262538964554"><ele>1050.0</ele><time>2026-05-02T12:44:00.499Z</time></trkpt><trkpt lat="46.117973932212" lon="11.488423047887379"><ele>1050.0</ele><time>2026-05-02T12:44:01.499Z</time></trkpt><trkpt lat="46.117913337518175" lon="11.48857760997468"><ele>1050.0</ele><time>2026-05-02T12:44:02.499Z</time></trkpt><trkpt lat="46.11787025163024" lon="11.488727502003512"><ele>1050.0</ele><time>2026-05-02T12:44:03.499Z</time></trkpt><trkpt lat="46.11778303266743" lon="11.488823709435195"><ele>1050.0</ele><time>2026-05-02T12:44:04.499Z</time></trkpt><trkpt lat="46.11771262243828" lon="11.488933284565217"><ele>1050.0</ele><time>2026-05-02T12:44:05.499Z</time></trkpt><trkpt lat="46.117612959536565" lon="11.489044341351548"><ele>1047.0</ele><time>2026-05-02T12:44:06.499Z</time></trkpt><trkpt lat="46.11748054089396" lon="11.489156332404821"><ele>1044.0</ele><time>2026-05-02T12:44:07.499Z</time></trkpt><trkpt lat="46.11732611500867" lon="11.489271120127219"><ele>1041.0</ele><time>2026-05-02T12:44:08.499Z</time></trkpt><trkpt lat="46.11719891644683" lon="11.489446741725402"><ele>1029.6666666666667</ele><time>2026-05-02T12:44:09.499Z</time></trkpt><trkpt lat="46.11706813696298" lon="11.489617979567992"><ele>1018.3333333333334</ele><time>2026-05-02T12:44:10.499Z</time></trkpt><trkpt lat="46.11697646076065" lon="11.489792430467377"><ele>1007.0</ele><time>2026-05-02T12:44:11.499Z</time></trkpt><trkpt lat="46.116844546171045" lon="11.48992737116943"><ele>1007.0</ele><time>2026-05-02T12:44:12.499Z</time></trkpt><trkpt lat="46.11670611880952" lon="11.490075803020666"><ele>1007.0</ele><time>2026-05-02T12:44:13.499Z</time></trkpt><trkpt lat="46.116583044822725" lon="11.490224375880606"><ele>1007.0</ele><time>2026-05-02T12:44:14.499Z</time></trkpt><trkpt lat="46.11647099423143" lon="11.49038861187186"><ele>1000.25</ele><time>2026-05-02T12:44:15.499Z</time></trkpt><trkpt lat="46.11639260092194" lon="11.490517271353532"><ele>993.5</ele><time>2026-05-02T12:44:16.499Z</time></trkpt><trkpt lat="46.11630747352848" lon="11.490646836853541"><ele>986.75</ele><time>2026-05-02T12:44:17.499Z</time></trkpt><trkpt lat="46.11624640740267" lon="11.490772490138554"><ele>980.0</ele><time>2026-05-02T12:44:18.499Z</time></trkpt><trkpt lat="46.11616148534519" lon="11.490860859241186"><ele>980.0</ele><time>2026-05-02T12:44:19.499Z</time></trkpt><trkpt lat="46.116100938344744" lon="11.490955191257594"><ele>980.0</ele><time>2026-05-02T12:44:20.499Z</time></trkpt><trkpt lat="46.11604149697338" lon="11.491051349774498"><ele>980.0</ele><time>2026-05-02T12:44:21.499Z</time></trkpt><trkpt lat="46.11593627966013" lon="11.491131738317195"><ele>980.0</ele><time>2026-05-02T12:44:22.499Z</time></trkpt><trkpt lat="46.115864087126944" lon="11.491193312375074"><ele>980.0</ele><time>2026-05-02T12:44:23.499Z</time></trkpt><trkpt lat="46.11571805893423" lon="11.49100459861017"><ele>989.0</ele><time>2026-05-02T12:44:24.499Z</time></trkpt><trkpt lat="46.11551659494365" lon="11.490794159356016"><ele>998.0</ele><time>2026-05-02T12:44:25.499Z</time></trkpt><trkpt lat="46.11530217607399" lon="11.490539726886414"><ele>998.0</ele><time>2026-05-02T12:44:26.499Z</time></trkpt><trkpt lat="46.11518612423545" lon="11.490496057141591"><ele>998.0</ele><time>2026-05-02T12:44:27.499Z</time></trkpt><trkpt lat="46.11506684816278" lon="11.490387651969382"><ele>998.0</ele><time>2026-05-02T12:44:28.499Z</time></trkpt><trkpt lat="46.11494764324033" lon="11.49029144840087"><ele>998.0</ele><time>2026-05-02T12:44:29.499Z</time></trkpt><trkpt lat="46.11485311417142" lon="11.490192527691507"><ele>998.0</ele><time>2026-05-02T12:44:30.499Z</time></trkpt><trkpt lat="46.114780180992845" lon="11.490337651196448"><ele>998.0</ele><time>2026-05-02T12:44:31.499Z</time></trkpt><trkpt lat="46.11474537449462" lon="11.490641507263803"><ele>998.0</ele><time>2026-05-02T12:44:32.499Z</time></trkpt><trkpt lat="46.11496412136515" lon="11.490760579976278"><ele>998.0</ele><time>2026-05-02T12:44:33.499Z</time></trkpt><trkpt lat="46.11509375621553" lon="11.490853633898332"><ele>998.0</ele><time>2026-05-02T12:44:34.499Z</time></trkpt><trkpt lat="46.115233335380665" lon="11.490999854748981"><ele>998.0</ele><time>2026-05-02T12:44:35.499Z</time></trkpt><trkpt lat="46.11532152244348" lon="11.49115268897061"><ele>1001.5</ele><time>2026-05-02T12:44:36.499Z</time></trkpt><trkpt lat="46.1154008042069" lon="11.49130529061338"><ele>1005.0</ele><time>2026-05-02T12:44:37.499Z</time></trkpt><trkpt lat="46.115473018342" lon="11.491465742675882"><ele>1008.5</ele><time>2026-05-02T12:44:38.499Z</time></trkpt><trkpt lat="46.11553961961439" lon="11.491613322952029"><ele>1012.0</ele><time>2026-05-02T12:44:39.499Z</time></trkpt><trkpt lat="46.115584604732334" lon="11.491722322526156"><ele>1012.0</ele><time>2026-05-02T12:44:40.499Z</time></trkpt><trkpt lat="46.11562948661931" lon="11.49185756434687"><ele>1012.0</ele><time>2026-05-02T12:44:41.499Z</time></trkpt><trkpt lat="46.11562910243738" lon="11.492020718196695"><ele>1012.0</ele><time>2026-05-02T12:44:42.499Z</time></trkpt><trkpt lat="46.115642452253894" lon="11.492229533888377"><ele>1012.0</ele><time>2026-05-02T12:44:43.499Z</time></trkpt><trkpt lat="46.11559406716416" lon="11.49240818239208"><ele>1006.25</ele><time>2026-05-02T12:44:44.499Z</time></trkpt><trkpt lat="46.11548139136718" lon="11.49251574059852"><ele>1000.5</ele><time>2026-05-02T12:44:45.499Z</time></trkpt><trkpt lat="46.11542133356028" lon="11.49261341099127"><ele>994.75</ele><time>2026-05-02T12:44:46.499Z</time></trkpt><trkpt lat="46.11529681227852" lon="11.49269585861367"><ele>989.0</ele><time>2026-05-02T12:44:47.499Z</time></trkpt><trkpt lat="46.115110094156336" lon="11.492787049563479"><ele>987.3333333333334</ele><time>2026-05-02T12:44:48.499Z</time></trkpt><trkpt lat="46.114926074091905" lon="11.492925540707546"><ele>985.6666666666667</ele><time>2026-05-02T12:44:49.499Z</time></trkpt><trkpt lat="46.114749812719104" lon="11.493081945620451"><ele>984.0</ele><time>2026-05-02T12:44:50.499Z</time></trkpt><trkpt lat="46.11460389212253" lon="11.493217567126976"><ele>984.0</ele><time>2026-05-02T12:44:51.499Z</time></trkpt><trkpt lat="46.114468540326776" lon="11.493336195410185"><ele>984.0</ele><time>2026-05-02T12:44:52.499Z</time></trkpt><trkpt lat="46.11431659045564" lon="11.493479286551219"><ele>984.0</ele><time>2026-05-02T12:44:53.499Z</time></trkpt><trkpt lat="46.11420045854909" lon="11.49365177647611"><ele>986.0</ele><time>2026-05-02T12:44:54.499Z</time></trkpt><trkpt lat="46.11408962403043" lon="11.493843741150844"><ele>988.0</ele><time>2026-05-02T12:44:55.499Z</time></trkpt><trkpt lat="46.11395440112884" lon="11.493978035717333"><ele>990.0</ele><time>2026-05-02T12:44:56.499Z</time></trkpt><trkpt lat="46.11382911788043" lon="11.494118269301497"><ele>990.0</ele><time>2026-05-02T12:44:57.499Z</time></trkpt><trkpt lat="46.11371082225262" lon="11.494273591154931"><ele>990.0</ele><time>2026-05-02T12:44:58.499Z</time></trkpt><trkpt lat="46.11361374798534" lon="11.494424138550785"><ele>990.0</ele><time>2026-05-02T12:44:59.499Z</time></trkpt><trkpt lat="46.113533084461245" lon="11.49454822986256"><ele>990.0</ele><time>2026-05-02T12:45:00.499Z</time></trkpt><trkpt lat="46.11345067600516" lon="11.494638922430147"><ele>994.25</ele><time>2026-05-02T12:45:01.499Z</time></trkpt><trkpt lat="46.11333115656184" lon="11.49473629039444"><ele>998.5</ele><time>2026-05-02T12:45:02.499Z</time></trkpt><trkpt lat="46.113232654642175" lon="11.494843947443226"><ele>1002.75</ele><time>2026-05-02T12:45:03.499Z</time></trkpt><trkpt lat="46.11324406466016" lon="11.495059993185688"><ele>1007.0</ele><time>2026-05-02T12:45:04.499Z</time></trkpt><trkpt lat="46.11316660341409" lon="11.495206254079763"><ele>1007.0</ele><time>2026-05-02T12:45:05.5Z</time></trkpt><trkpt lat="46.11309780755626" lon="11.495349005241176"><ele>1007.0</ele><time>2026-05-02T12:45:06.5Z</time></trkpt><trkpt lat="46.11304210391814" lon="11.495511239355709"><ele>1007.0</ele><time>2026-05-02T12:45:07.5Z</time></trkpt><trkpt lat="46.11299495200029" lon="11.495678011517388"><ele>1007.0</ele><time>2026-05-02T12:45:08.5Z</time></trkpt><trkpt lat="46.11297976544446" lon="11.49584149143681"><ele>997.5</ele><time>2026-05-02T12:45:09.5Z</time></trkpt><trkpt lat="46.1129455619324" lon="11.496012122510326"><ele>988.0</ele><time>2026-05-02T12:45:10.5Z</time></trkpt><trkpt lat="46.1128618269232" lon="11.496157290960697"><ele>978.5</ele><time>2026-05-02T12:45:11.5Z</time></trkpt><trkpt lat="46.11275406197529" lon="11.496291329759481"><ele>969.0</ele><time>2026-05-02T12:45:12.5Z</time></trkpt><trkpt lat="46.11261328989267" lon="11.496419153399012"><ele>969.0</ele><time>2026-05-02T12:45:13.5Z</time></trkpt><trkpt lat="46.11247374939305" lon="11.496554283055955"><ele>969.0</ele><time>2026-05-02T12:45:14.5Z</time></trkpt><trkpt lat="46.11237274780885" lon="11.496682283747758"><ele>969.0</ele><time>2026-05-02T12:45:15.5Z</time></trkpt><trkpt lat="46.11225095284982" lon="11.496817266613427"><ele>969.0</ele><time>2026-05-02T12:45:16.5Z</time></trkpt><trkpt lat="46.112153554087094" lon="11.496954248941089"><ele>969.0</ele><time>2026-05-02T12:45:17.5Z</time></trkpt><trkpt lat="46.11203459364358" lon="11.497046747778539"><ele>969.0</ele><time>2026-05-02T12:45:18.5Z</time></trkpt><trkpt lat="46.11181679417031" lon="11.497023881487143"><ele>965.6666666666667</ele><time>2026-05-02T12:45:19.5Z</time></trkpt><trkpt lat="46.11167127730987" lon="11.497168078522492"><ele>962.3333333333334</ele><time>2026-05-02T12:45:20.5Z</time></trkpt><trkpt lat="46.111519820743304" lon="11.497242580875957"><ele>959.0</ele><time>2026-05-02T12:45:21.5Z</time></trkpt><trkpt lat="46.111413010747405" lon="11.497373019206023"><ele>959.0</ele><time>2026-05-02T12:45:22.5Z</time></trkpt><trkpt lat="46.111293393210985" lon="11.497509263914381"><ele>959.0</ele><time>2026-05-02T12:45:23.5Z</time></trkpt><trkpt lat="46.11117248456951" lon="11.497617648982068"><ele>959.0</ele><time>2026-05-02T12:45:24.5Z</time></trkpt><trkpt lat="46.111071676824544" lon="11.497749092037285"><ele>959.0</ele><time>2026-05-02T12:45:25.5Z</time></trkpt><trkpt lat="46.11094388237173" lon="11.497815741494477"><ele>959.0</ele><time>2026-05-02T12:45:26.5Z</time></trkpt><trkpt lat="46.110806227853985" lon="11.497839694754916"><ele>959.0</ele><time>2026-05-02T12:45:27.5Z</time></trkpt><trkpt lat="46.110662738626885" lon="11.49786304042909"><ele>959.0</ele><time>2026-05-02T12:45:28.5Z</time></trkpt><trkpt lat="46.110543857384506" lon="11.49799712908289"><ele>959.0</ele><time>2026-05-02T12:45:29.5Z</time></trkpt><trkpt lat="46.11042368516126" lon="11.498135812750169"><ele>956.3333333333334</ele><time>2026-05-02T12:45:30.5Z</time></trkpt><trkpt lat="46.11030165150499" lon="11.49826524281681"><ele>953.6666666666667</ele><time>2026-05-02T12:45:31.5Z</time></trkpt><trkpt lat="46.11019227021516" lon="11.498416317339927"><ele>951.0</ele><time>2026-05-02T12:45:32.5Z</time></trkpt><trkpt lat="46.110058069922154" lon="11.498527039571771"><ele>947.6666666666667</ele><time>2026-05-02T12:45:33.5Z</time></trkpt><trkpt lat="46.109891762279624" lon="11.498683911425982"><ele>944.3333333333334</ele><time>2026-05-02T12:45:34.5Z</time></trkpt><trkpt lat="46.10974880094987" lon="11.498809769090665"><ele>941.0</ele><time>2026-05-02T12:45:35.5Z</time></trkpt><trkpt lat="46.109622032219335" lon="11.498941686520382"><ele>941.0</ele><time>2026-05-02T12:45:36.5Z</time></trkpt><trkpt lat="46.10949180972815" lon="11.499058715225612"><ele>941.0</ele><time>2026-05-02T12:45:37.5Z</time></trkpt><trkpt lat="46.109365731140656" lon="11.499172330526553"><ele>941.0</ele><time>2026-05-02T12:45:38.5Z</time></trkpt><trkpt lat="46.109237922248205" lon="11.499267685388602"><ele>941.0</ele><time>2026-05-02T12:45:39.5Z</time></trkpt><trkpt lat="46.10910843888861" lon="11.499354411241471"><ele>945.5</ele><time>2026-05-02T12:45:40.5Z</time></trkpt><trkpt lat="46.10899195624753" lon="11.499424089985952"><ele>950.0</ele><time>2026-05-02T12:45:41.5Z</time></trkpt><trkpt lat="46.10886120663272" lon="11.499503489494888"><ele>954.5</ele><time>2026-05-02T12:45:42.5Z</time></trkpt><trkpt lat="46.108728846226185" lon="11.4995763408237"><ele>959.0</ele><time>2026-05-02T12:45:43.5Z</time></trkpt><trkpt lat="46.10856005163712" lon="11.49958920160623"><ele>950.3333333333334</ele><time>2026-05-02T12:45:44.5Z</time></trkpt><trkpt lat="46.10836080469792" lon="11.499610623749378"><ele>941.6666666666667</ele><time>2026-05-02T12:45:45.5Z</time></trkpt><trkpt lat="46.10821059946828" lon="11.4996791210924"><ele>933.0</ele><time>2026-05-02T12:45:46.5Z</time></trkpt><trkpt lat="46.10806970884076" lon="11.49976269119554"><ele>933.0</ele><time>2026-05-02T12:45:47.5Z</time></trkpt><trkpt lat="46.10792069674563" lon="11.499829211174454"><ele>933.0</ele><time>2026-05-02T12:45:48.5Z</time></trkpt><trkpt lat="46.10779742517419" lon="11.499946476105901"><ele>933.0</ele><time>2026-05-02T12:45:49.5Z</time></trkpt><trkpt lat="46.10766358130722" lon="11.50001371057248"><ele>933.0</ele><time>2026-05-02T12:45:50.5Z</time></trkpt><trkpt lat="46.107527834319605" lon="11.500081662130874"><ele>938.0</ele><time>2026-05-02T12:45:51.5Z</time></trkpt><trkpt lat="46.10737028421616" lon="11.500139966508744"><ele>943.0</ele><time>2026-05-02T12:45:52.5Z</time></trkpt><trkpt lat="46.107201398361326" lon="11.500166992510628"><ele>948.0</ele><time>2026-05-02T12:45:53.5Z</time></trkpt><trkpt lat="46.10706214942688" lon="11.500231994500504"><ele>948.0</ele><time>2026-05-02T12:45:54.5Z</time></trkpt><trkpt lat="46.10692414359741" lon="11.500257839283762"><ele>948.0</ele><time>2026-05-02T12:45:55.5Z</time></trkpt><trkpt lat="46.10676855783814" lon="11.500273164921806"><ele>948.0</ele><time>2026-05-02T12:45:56.5Z</time></trkpt><trkpt lat="46.10662057833788" lon="11.500317320004969"><ele>948.0</ele><time>2026-05-02T12:45:57.5Z</time></trkpt><trkpt lat="46.10645228612038" lon="11.500314720627324"><ele>951.0</ele><time>2026-05-02T12:45:58.5Z</time></trkpt><trkpt lat="46.10630323532491" lon="11.50032892414674"><ele>954.0</ele><time>2026-05-02T12:45:59.5Z</time></trkpt><trkpt lat="46.10616593663232" lon="11.500421962979557"><ele>957.0</ele><time>2026-05-02T12:46:00.5Z</time></trkpt><trkpt lat="46.10602302379156" lon="11.500523738102459"><ele>945.0</ele><time>2026-05-02T12:46:01.5Z</time></trkpt><trkpt lat="46.105868939447575" lon="11.500602390034334"><ele>933.0</ele><time>2026-05-02T12:46:02.5Z</time></trkpt><trkpt lat="46.10571133809606" lon="11.500684622644975"><ele>921.0</ele><time>2026-05-02T12:46:03.5Z</time></trkpt><trkpt lat="46.10553902118438" lon="11.50072604269896"><ele>921.0</ele><time>2026-05-02T12:46:04.5Z</time></trkpt><trkpt lat="46.10537873827688" lon="11.500780862166232"><ele>921.0</ele><time>2026-05-02T12:46:05.5Z</time></trkpt><trkpt lat="46.10524254635225" lon="11.500803788887682"><ele>921.0</ele><time>2026-05-02T12:46:06.5Z</time></trkpt><trkpt lat="46.10511386636528" lon="11.500841810727259"><ele>921.0</ele><time>2026-05-02T12:46:07.5Z</time></trkpt><trkpt lat="46.10498697039236" lon="11.500893359688934"><ele>921.5</ele><time>2026-05-02T12:46:08.5Z</time></trkpt><trkpt lat="46.10487265421855" lon="11.50092524130467"><ele>922.0</ele><time>2026-05-02T12:46:09.5Z</time></trkpt><trkpt lat="46.104751775661185" lon="11.500960484151582"><ele>922.5</ele><time>2026-05-02T12:46:10.5Z</time></trkpt><trkpt lat="46.10460792682531" lon="11.50096069612527"><ele>923.0</ele><time>2026-05-02T12:46:11.5Z</time></trkpt><trkpt lat="46.10446260821158" lon="11.500952135209374"><ele>923.0</ele><time>2026-05-02T12:46:12.5Z</time></trkpt><trkpt lat="46.10430043898845" lon="11.500915615873943"><ele>923.0</ele><time>2026-05-02T12:46:13.5Z</time></trkpt><trkpt lat="46.104144352945475" lon="11.500910671571612"><ele>923.0</ele><time>2026-05-02T12:46:14.5Z</time></trkpt><trkpt lat="46.104003709452726" lon="11.500931211728938"><ele>923.5</ele><time>2026-05-02T12:46:15.5Z</time></trkpt><trkpt lat="46.103865324384095" lon="11.500959219039284"><ele>924.0</ele><time>2026-05-02T12:46:16.5Z</time></trkpt><trkpt lat="46.10372635334446" lon="11.500995142737139"><ele>924.5</ele><time>2026-05-02T12:46:17.5Z</time></trkpt><trkpt lat="46.10357964340284" lon="11.50103287260376"><ele>925.0</ele><time>2026-05-02T12:46:18.5Z</time></trkpt><trkpt lat="46.10342758786874" lon="11.501067102004036"><ele>925.0</ele><time>2026-05-02T12:46:19.5Z</time></trkpt><trkpt lat="46.10327686995824" lon="11.501082580543851"><ele>925.0</ele><time>2026-05-02T12:46:20.5Z</time></trkpt><trkpt lat="46.10313482375323" lon="11.501095420448358"><ele>925.0</ele><time>2026-05-02T12:46:21.5Z</time></trkpt><trkpt lat="46.102996607451686" lon="11.501115825354507"><ele>925.0</ele><time>2026-05-02T12:46:22.5Z</time></trkpt><trkpt lat="46.10285656449029" lon="11.501148636773726"><ele>926.5</ele><time>2026-05-02T12:46:23.5Z</time></trkpt><trkpt lat="46.1027238032043" lon="11.501197418361699"><ele>928.0</ele><time>2026-05-02T12:46:24.5Z</time></trkpt><trkpt lat="46.10259123311939" lon="11.50123514300598"><ele>929.5</ele><time>2026-05-02T12:46:25.5Z</time></trkpt><trkpt lat="46.102460448441036" lon="11.501266744276451"><ele>931.0</ele><time>2026-05-02T12:46:26.5Z</time></trkpt><trkpt lat="46.10232462759477" lon="11.501281849735836"><ele>930.6666666666666</ele><time>2026-05-02T12:46:27.5Z</time></trkpt><trkpt lat="46.102174119995034" lon="11.501271967427192"><ele>930.3333333333333</ele><time>2026-05-02T12:46:28.5Z</time></trkpt><trkpt lat="46.10201807321805" lon="11.501256781152541"><ele>930.0</ele><time>2026-05-02T12:46:29.5Z</time></trkpt><trkpt lat="46.101851958521934" lon="11.501214457079405"><ele>930.0</ele><time>2026-05-02T12:46:30.5Z</time></trkpt><trkpt lat="46.10167322735981" lon="11.501147783991058"><ele>930.0</ele><time>2026-05-02T12:46:31.5Z</time></trkpt><trkpt lat="46.10148548729039" lon="11.50110852255932"><ele>930.0</ele><time>2026-05-02T12:46:32.5Z</time></trkpt><trkpt lat="46.10130601910031" lon="11.501104272980827"><ele>928.0</ele><time>2026-05-02T12:46:33.5Z</time></trkpt><trkpt lat="46.101141724956335" lon="11.501114666321984"><ele>926.0</ele><time>2026-05-02T12:46:34.5Z</time></trkpt><trkpt lat="46.100985934183484" lon="11.501116733215275"><ele>924.0</ele><time>2026-05-02T12:46:35.5Z</time></trkpt><trkpt lat="46.100833406237356" lon="11.501115078624142"><ele>921.0</ele><time>2026-05-02T12:46:36.5Z</time></trkpt><trkpt lat="46.10069351130193" lon="11.501118672836869"><ele>918.0</ele><time>2026-05-02T12:46:37.5Z</time></trkpt><trkpt lat="46.100553751867515" lon="11.501140796035894"><ele>915.0</ele><time>2026-05-02T12:46:38.5Z</time></trkpt><trkpt lat="46.10042087460621" lon="11.501143421780586"><ele>912.0</ele><time>2026-05-02T12:46:39.5Z</time></trkpt><trkpt lat="46.100293220488894" lon="11.501138659139967"><ele>912.0</ele><time>2026-05-02T12:46:40.5Z</time></trkpt><trkpt lat="46.10017115140159" lon="11.50112532826712"><ele>912.0</ele><time>2026-05-02T12:46:41.5Z</time></trkpt><trkpt lat="46.100055518986025" lon="11.501110741286528"><ele>912.0</ele><time>2026-05-02T12:46:42.5Z</time></trkpt><trkpt lat="46.099915909864166" lon="11.501049536853154"><ele>912.0</ele><time>2026-05-02T12:46:43.5Z</time></trkpt><trkpt lat="46.09978788584902" lon="11.500976569958375"><ele>909.0</ele><time>2026-05-02T12:46:44.5Z</time></trkpt><trkpt lat="46.09965826287055" lon="11.500891225407294"><ele>906.0</ele><time>2026-05-02T12:46:45.5Z</time></trkpt><trkpt lat="46.099541198760605" lon="11.500798292512401"><ele>903.0</ele><time>2026-05-02T12:46:46.5Z</time></trkpt><trkpt lat="46.099431065773025" lon="11.500716056824592"><ele>900.0</ele><time>2026-05-02T12:46:47.5Z</time></trkpt><trkpt lat="46.09932208567998" lon="11.500648691212088"><ele>900.0</ele><time>2026-05-02T12:46:48.5Z</time></trkpt><trkpt lat="46.099186880831795" lon="11.500662891806133"><ele>900.0</ele><time>2026-05-02T12:46:49.5Z</time></trkpt><trkpt lat="46.099009540502806" lon="11.500720070662263"><ele>900.0</ele><time>2026-05-02T12:46:50.5Z</time></trkpt><trkpt lat="46.09887909767112" lon="11.500748266942612"><ele>900.0</ele><time>2026-05-02T12:46:51.5Z</time></trkpt><trkpt lat="46.09876447881453" lon="11.50076992590914"><ele>899.25</ele><time>2026-05-02T12:46:52.5Z</time></trkpt><trkpt lat="46.098635131494895" lon="11.500776789485235"><ele>898.5</ele><time>2026-05-02T12:46:53.5Z</time></trkpt><trkpt lat="46.09852243765202" lon="11.500778269433376"><ele>897.75</ele><time>2026-05-02T12:46:54.5Z</time></trkpt><trkpt lat="46.0984142574032" lon="11.500737362172101"><ele>897.0</ele><time>2026-05-02T12:46:55.5Z</time></trkpt><trkpt lat="46.098274358970826" lon="11.500710039969622"><ele>895.0</ele><time>2026-05-02T12:46:56.5Z</time></trkpt><trkpt lat="46.09811384070411" lon="11.500642624432862"><ele>893.0</ele><time>2026-05-02T12:46:57.5Z</time></trkpt><trkpt lat="46.09796227524046" lon="11.500597049428865"><ele>891.0</ele><time>2026-05-02T12:46:58.5Z</time></trkpt><trkpt lat="46.09782297567576" lon="11.500559610469237"><ele>891.0</ele><time>2026-05-02T12:46:59.5Z</time></trkpt><trkpt lat="46.09770220264098" lon="11.500540224895612"><ele>891.0</ele><time>2026-05-02T12:47:00.5Z</time></trkpt><trkpt lat="46.097588380402634" lon="11.500577163485513"><ele>891.0</ele><time>2026-05-02T12:47:01.5Z</time></trkpt><trkpt lat="46.097461260789125" lon="11.500630174005316"><ele>891.0</ele><time>2026-05-02T12:47:02.5Z</time></trkpt><trkpt lat="46.097312496261125" lon="11.500696656776292"><ele>888.75</ele><time>2026-05-02T12:47:03.5Z</time></trkpt><trkpt lat="46.09717845225129" lon="11.500751603230519"><ele>886.5</ele><time>2026-05-02T12:47:04.5Z</time></trkpt><trkpt lat="46.09705656366438" lon="11.500805057200681"><ele>884.25</ele><time>2026-05-02T12:47:05.5Z</time></trkpt><trkpt lat="46.096920598804495" lon="11.5008265185963"><ele>882.0</ele><time>2026-05-02T12:47:06.5Z</time></trkpt><trkpt lat="46.09679379677607" lon="11.500856316352532"><ele>882.0</ele><time>2026-05-02T12:47:07.5Z</time></trkpt><trkpt lat="46.09666195725167" lon="11.50085223856007"><ele>882.0</ele><time>2026-05-02T12:47:08.5Z</time></trkpt><trkpt lat="46.096519644753094" lon="11.500836349712017"><ele>882.0</ele><time>2026-05-02T12:47:09.5Z</time></trkpt><trkpt lat="46.09637498200476" lon="11.500743130908186"><ele>882.0</ele><time>2026-05-02T12:47:10.5Z</time></trkpt><trkpt lat="46.096222351783815" lon="11.500676577852259"><ele>880.75</ele><time>2026-05-02T12:47:11.5Z</time></trkpt><trkpt lat="46.09611790161334" lon="11.500627227430217"><ele>879.5</ele><time>2026-05-02T12:47:12.5Z</time></trkpt><trkpt lat="46.09600692844803" lon="11.500567835280929"><ele>878.25</ele><time>2026-05-02T12:47:13.5Z</time></trkpt><trkpt lat="46.09590421149219" lon="11.500511717361524"><ele>877.0</ele><time>2026-05-02T12:47:14.5Z</time></trkpt><trkpt lat="46.09578368926824" lon="11.500412601878905"><ele>867.0</ele><time>2026-05-02T12:47:15.5Z</time></trkpt><trkpt lat="46.095664793430366" lon="11.500352555216812"><ele>857.0</ele><time>2026-05-02T12:47:16.5Z</time></trkpt><trkpt lat="46.095565027935834" lon="11.50020681829634"><ele>847.0</ele><time>2026-05-02T12:47:17.5Z</time></trkpt><trkpt lat="46.095468643808225" lon="11.500066757190075"><ele>837.0</ele><time>2026-05-02T12:47:18.5Z</time></trkpt><trkpt lat="46.095422104463466" lon="11.499920831152082"><ele>837.0</ele><time>2026-05-02T12:47:19.5Z</time></trkpt><trkpt lat="46.095398300190446" lon="11.499719625195727"><ele>837.0</ele><time>2026-05-02T12:47:20.5Z</time></trkpt><trkpt lat="46.09534995139899" lon="11.499574998441235"><ele>837.0</ele><time>2026-05-02T12:47:21.5Z</time></trkpt><trkpt lat="46.0952847061267" lon="11.499486335711197"><ele>837.0</ele><time>2026-05-02T12:47:22.5Z</time></trkpt><trkpt lat="46.095231769517476" lon="11.499364824467255"><ele>837.0</ele><time>2026-05-02T12:47:23.5Z</time></trkpt><trkpt lat="46.09516992201195" lon="11.499263023156397"><ele>841.75</ele><time>2026-05-02T12:47:24.5Z</time></trkpt><trkpt lat="46.0950990167147" lon="11.499053767751588"><ele>846.5</ele><time>2026-05-02T12:47:25.5Z</time></trkpt><trkpt lat="46.09507146790308" lon="11.498861965750725"><ele>851.25</ele><time>2026-05-02T12:47:26.5Z</time></trkpt><trkpt lat="46.09503134370684" lon="11.4987025820571"><ele>856.0</ele><time>2026-05-02T12:47:27.5Z</time></trkpt><trkpt lat="46.0950726010112" lon="11.498506346030258"><ele>859.75</ele><time>2026-05-02T12:47:28.5Z</time></trkpt><trkpt lat="46.095088752462296" lon="11.498314862961525"><ele>863.5</ele><time>2026-05-02T12:47:29.5Z</time></trkpt><trkpt lat="46.09508579086787" lon="11.498135788901518"><ele>867.25</ele><time>2026-05-02T12:47:30.5Z</time></trkpt><trkpt lat="46.09504524871076" lon="11.498003289499175"><ele>871.0</ele><time>2026-05-02T12:47:31.5Z</time></trkpt><trkpt lat="46.09496830738011" lon="11.497923000955595"><ele>868.75</ele><time>2026-05-02T12:47:32.5Z</time></trkpt><trkpt lat="46.09487228457249" lon="11.497950219063886"><ele>866.5</ele><time>2026-05-02T12:47:33.5Z</time></trkpt><trkpt lat="46.094733497953804" lon="11.497985938990917"><ele>864.25</ele><time>2026-05-02T12:47:34.5Z</time></trkpt><trkpt lat="46.094637143835726" lon="11.49799594780774"><ele>862.0</ele><time>2026-05-02T12:47:35.5Z</time></trkpt><trkpt lat="46.09452912823579" lon="11.498120004463793"><ele>862.0</ele><time>2026-05-02T12:47:36.5Z</time></trkpt><trkpt lat="46.094514754994464" lon="11.49835896856853"><ele>862.0</ele><time>2026-05-02T12:47:37.5Z</time></trkpt><trkpt lat="46.09444570256154" lon="11.498503730651628"><ele>862.0</ele><time>2026-05-02T12:47:38.5Z</time></trkpt><trkpt lat="46.0943729433792" lon="11.498608100880881"><ele>862.0</ele><time>2026-05-02T12:47:39.5Z</time></trkpt><trkpt lat="46.094277514576994" lon="11.498699869568613"><ele>856.3333333333333</ele><time>2026-05-02T12:47:40.5Z</time></trkpt><trkpt lat="46.09420295906691" lon="11.498801689841807"><ele>850.6666666666667</ele><time>2026-05-02T12:47:41.5Z</time></trkpt><trkpt lat="46.094113830127505" lon="11.498859587527068"><ele>845.0</ele><time>2026-05-02T12:47:42.5Z</time></trkpt><trkpt lat="46.0938752003562" lon="11.498654656934036"><ele>845.0</ele><time>2026-05-02T12:47:43.5Z</time></trkpt><trkpt lat="46.09375473565927" lon="11.498727876252431"><ele>845.0</ele><time>2026-05-02T12:47:44.5Z</time></trkpt><trkpt lat="46.09364218059395" lon="11.498804475876886"><ele>845.0</ele><time>2026-05-02T12:47:45.5Z</time></trkpt><trkpt lat="46.093528647300005" lon="11.498802676917974"><ele>845.0</ele><time>2026-05-02T12:47:46.5Z</time></trkpt><trkpt lat="46.0934289333998" lon="11.498800900996741"><ele>842.0</ele><time>2026-05-02T12:47:47.5Z</time></trkpt><trkpt lat="46.09333864314365" lon="11.498782112308511"><ele>839.0</ele><time>2026-05-02T12:47:48.5Z</time></trkpt><trkpt lat="46.09324837748196" lon="11.498691758594704"><ele>836.0</ele><time>2026-05-02T12:47:49.5Z</time></trkpt><trkpt lat="46.09314775521307" lon="11.498557569040335"><ele>833.0</ele><time>2026-05-02T12:47:50.5Z</time></trkpt><trkpt lat="46.09309537204532" lon="11.498407516996188"><ele>833.0</ele><time>2026-05-02T12:47:51.5Z</time></trkpt><trkpt lat="46.09312395344418" lon="11.498218945346387"><ele>833.0</ele><time>2026-05-02T12:47:52.5Z</time></trkpt><trkpt lat="46.09306644953927" lon="11.498142426231711"><ele>833.0</ele><time>2026-05-02T12:47:53.5Z</time></trkpt><trkpt lat="46.09297647831993" lon="11.498103313470502"><ele>833.0</ele><time>2026-05-02T12:47:54.5Z</time></trkpt><trkpt lat="46.09289233593047" lon="11.498098964044253"><ele>833.0</ele><time>2026-05-02T12:47:55.5Z</time></trkpt><trkpt lat="46.09276281444593" lon="11.498204137967475"><ele>833.0</ele><time>2026-05-02T12:47:56.5Z</time></trkpt><trkpt lat="46.09265528736355" lon="11.498336187692079"><ele>833.0</ele><time>2026-05-02T12:47:57.5Z</time></trkpt><trkpt lat="46.09253647221679" lon="11.498416147897258"><ele>833.0</ele><time>2026-05-02T12:47:58.5Z</time></trkpt><trkpt lat="46.09240865146756" lon="11.498495517038513"><ele>833.0</ele><time>2026-05-02T12:47:59.5Z</time></trkpt><trkpt lat="46.09230381769349" lon="11.498567226272453"><ele>828.75</ele><time>2026-05-02T12:48:00.5Z</time></trkpt><trkpt lat="46.09220057706375" lon="11.498619711592864"><ele>824.5</ele><time>2026-05-02T12:48:01.5Z</time></trkpt><trkpt lat="46.09210772280922" lon="11.49864399913549"><ele>820.25</ele><time>2026-05-02T12:48:02.5Z</time></trkpt><trkpt lat="46.09197314260089" lon="11.4985867833617"><ele>816.0</ele><time>2026-05-02T12:48:03.5Z</time></trkpt><trkpt lat="46.09185772860128" lon="11.498604900865896"><ele>816.0</ele><time>2026-05-02T12:48:04.5Z</time></trkpt><trkpt lat="46.091747686868175" lon="11.498636550786282"><ele>816.0</ele><time>2026-05-02T12:48:05.5Z</time></trkpt><trkpt lat="46.09164550168011" lon="11.498634344350249"><ele>816.0</ele><time>2026-05-02T12:48:06.5Z</time></trkpt><trkpt lat="46.09154478405738" lon="11.498630972158592"><ele>816.0</ele><time>2026-05-02T12:48:07.5Z</time></trkpt><trkpt lat="46.091436323778474" lon="11.498549647384081"><ele>816.0</ele><time>2026-05-02T12:48:08.5Z</time></trkpt><trkpt lat="46.091317520161894" lon="11.498360847722964"><ele>811.3333333333333</ele><time>2026-05-02T12:48:09.5Z</time></trkpt><trkpt lat="46.09118367250209" lon="11.498155025544332"><ele>806.6666666666666</ele><time>2026-05-02T12:48:10.5Z</time></trkpt><trkpt lat="46.091017035188955" lon="11.497974442898641"><ele>802.0</ele><time>2026-05-02T12:48:11.5Z</time></trkpt><trkpt lat="46.09090356302845" lon="11.49776036282566"><ele>802.0</ele><time>2026-05-02T12:48:12.5Z</time></trkpt><trkpt lat="46.09080347552109" lon="11.497563926437252"><ele>802.0</ele><time>2026-05-02T12:48:13.5Z</time></trkpt><trkpt lat="46.09067988361231" lon="11.497394655188291"><ele>802.0</ele><time>2026-05-02T12:48:14.5Z</time></trkpt><trkpt lat="46.09056644143711" lon="11.497225541613485"><ele>803.75</ele><time>2026-05-02T12:48:15.5Z</time></trkpt><trkpt lat="46.09043957929312" lon="11.497067317942445"><ele>805.5</ele><time>2026-05-02T12:48:16.5Z</time></trkpt><trkpt lat="46.090322092326886" lon="11.496921090894164"><ele>807.25</ele><time>2026-05-02T12:48:17.5Z</time></trkpt><trkpt lat="46.09023587130959" lon="11.49684085062979"><ele>809.0</ele><time>2026-05-02T12:48:18.5Z</time></trkpt><trkpt lat="46.09014337937823" lon="11.496830767134101"><ele>809.0</ele><time>2026-05-02T12:48:19.5Z</time></trkpt><trkpt lat="46.09003136189433" lon="11.496838704649802"><ele>809.0</ele><time>2026-05-02T12:48:20.5Z</time></trkpt><trkpt lat="46.08990151288379" lon="11.496876842589787"><ele>809.0</ele><time>2026-05-02T12:48:21.5Z</time></trkpt><trkpt lat="46.089770546489966" lon="11.496892355563215"><ele>809.0</ele><time>2026-05-02T12:48:22.5Z</time></trkpt><trkpt lat="46.08966177555614" lon="11.496870323972498"><ele>803.5</ele><time>2026-05-02T12:48:23.5Z</time></trkpt><trkpt lat="46.089574163191934" lon="11.496871732188513"><ele>798.0</ele><time>2026-05-02T12:48:24.5Z</time></trkpt><trkpt lat="46.089479296762235" lon="11.496832723750213"><ele>792.5</ele><time>2026-05-02T12:48:25.5Z</time></trkpt><trkpt lat="46.08936805006651" lon="11.496755523949648"><ele>787.0</ele><time>2026-05-02T12:48:26.5Z</time></trkpt><trkpt lat="46.08916263008556" lon="11.496535873560193"><ele>784.6666666666666</ele><time>2026-05-02T12:48:27.5Z</time></trkpt><trkpt lat="46.089022297498744" lon="11.496413880384342"><ele>782.3333333333333</ele><time>2026-05-02T12:48:28.5Z</time></trkpt><trkpt lat="46.088839811684515" lon="11.496225666291336"><ele>780.0</ele><time>2026-05-02T12:48:29.5Z</time></trkpt><trkpt lat="46.08865195762985" lon="11.496070097097043"><ele>780.0</ele><time>2026-05-02T12:48:30.5Z</time></trkpt><trkpt lat="46.088453084798644" lon="11.495960188047897"><ele>780.0</ele><time>2026-05-02T12:48:31.5Z</time></trkpt><trkpt lat="46.08827667693644" lon="11.495828941508636"><ele>780.0</ele><time>2026-05-02T12:48:32.5Z</time></trkpt><trkpt lat="46.08808415783371" lon="11.495708107687447"><ele>770.0</ele><time>2026-05-02T12:48:33.5Z</time></trkpt><trkpt lat="46.087901097014196" lon="11.495612454963307"><ele>760.0</ele><time>2026-05-02T12:48:34.5Z</time></trkpt><trkpt lat="46.08772919261385" lon="11.49553088950735"><ele>750.0</ele><time>2026-05-02T12:48:35.5Z</time></trkpt><trkpt lat="46.087582484324585" lon="11.495457502289508"><ele>745.5</ele><time>2026-05-02T12:48:36.5Z</time></trkpt><trkpt lat="46.08745138729286" lon="11.495394382710563"><ele>741.0</ele><time>2026-05-02T12:48:37.5Z</time></trkpt><trkpt lat="46.08731533778655" lon="11.495338275552594"><ele>736.5</ele><time>2026-05-02T12:48:38.5Z</time></trkpt><trkpt lat="46.08721139689603" lon="11.495213103839713"><ele>732.0</ele><time>2026-05-02T12:48:39.5Z</time></trkpt><trkpt lat="46.08709729744288" lon="11.495134183237878"><ele>732.0</ele><time>2026-05-02T12:48:40.5Z</time></trkpt><trkpt lat="46.0870004741783" lon="11.495026808028046"><ele>732.0</ele><time>2026-05-02T12:48:41.5Z</time></trkpt><trkpt lat="46.08687368459529" lon="11.494895449324696"><ele>732.0</ele><time>2026-05-02T12:48:42.5Z</time></trkpt><trkpt lat="46.086784423260646" lon="11.49470245799117"><ele>732.0</ele><time>2026-05-02T12:48:43.5Z</time></trkpt><trkpt lat="46.086752313129054" lon="11.49440194912468"><ele>724.3333333333334</ele><time>2026-05-02T12:48:44.5Z</time></trkpt><trkpt lat="46.086644134267345" lon="11.494246812766507"><ele>716.6666666666667</ele><time>2026-05-02T12:48:45.5Z</time></trkpt><trkpt lat="46.08655064910118" lon="11.4940599004638"><ele>709.0</ele><time>2026-05-02T12:48:46.5Z</time></trkpt><trkpt lat="46.086443755975175" lon="11.493879238450045"><ele>719.0</ele><time>2026-05-02T12:48:47.5Z</time></trkpt><trkpt lat="46.08634259618794" lon="11.493664272260816"><ele>729.0</ele><time>2026-05-02T12:48:48.5Z</time></trkpt><trkpt lat="46.08626951075458" lon="11.493449714330218"><ele>739.0</ele><time>2026-05-02T12:48:49.5Z</time></trkpt><trkpt lat="46.086143439535846" lon="11.493318645935636"><ele>739.0</ele><time>2026-05-02T12:48:50.5Z</time></trkpt><trkpt lat="46.08600834300702" lon="11.493194054054598"><ele>739.0</ele><time>2026-05-02T12:48:51.5Z</time></trkpt><trkpt lat="46.085851807341335" lon="11.493053334650932"><ele>739.0</ele><time>2026-05-02T12:48:52.5Z</time></trkpt><trkpt lat="46.08570773167739" lon="11.492880676541994"><ele>736.6666666666667</ele><time>2026-05-02T12:48:53.5Z</time></trkpt><trkpt lat="46.085569914147705" lon="11.492713451182556"><ele>734.3333333333334</ele><time>2026-05-02T12:48:54.5Z</time></trkpt><trkpt lat="46.085426967340595" lon="11.492544313322616"><ele>732.0</ele><time>2026-05-02T12:48:55.5Z</time></trkpt><trkpt lat="46.08529654014585" lon="11.492388504921815"><ele>732.0</ele><time>2026-05-02T12:48:56.5Z</time></trkpt><trkpt lat="46.085097693829326" lon="11.492320152292965"><ele>732.0</ele><time>2026-05-02T12:48:57.5Z</time></trkpt><trkpt lat="46.08490647507756" lon="11.49226819593795"><ele>732.0</ele><time>2026-05-02T12:48:58.5Z</time></trkpt><trkpt lat="46.08474379373828" lon="11.492180821495813"><ele>733.25</ele><time>2026-05-02T12:48:59.5Z</time></trkpt><trkpt lat="46.08461053215872" lon="11.492098098194656"><ele>734.5</ele><time>2026-05-02T12:49:00.5Z</time></trkpt><trkpt lat="46.08446741675643" lon="11.492042165713134"><ele>735.75</ele><time>2026-05-02T12:49:01.5Z</time></trkpt><trkpt lat="46.08433634360558" lon="11.491979532584713"><ele>737.0</ele><time>2026-05-02T12:49:02.5Z</time></trkpt><trkpt lat="46.08419757894096" lon="11.491935193729553"><ele>724.25</ele><time>2026-05-02T12:49:03.5Z</time></trkpt><trkpt lat="46.08405750751485" lon="11.491885320742893"><ele>711.5</ele><time>2026-05-02T12:49:04.5Z</time></trkpt><trkpt lat="46.083918466932026" lon="11.491808548798845"><ele>698.75</ele><time>2026-05-02T12:49:05.5Z</time></trkpt><trkpt lat="46.08381311095234" lon="11.491783424813562"><ele>686.0</ele><time>2026-05-02T12:49:06.5Z</time></trkpt><trkpt lat="46.08370413542361" lon="11.491742595524107"><ele>686.0</ele><time>2026-05-02T12:49:07.5Z</time></trkpt><trkpt lat="46.08358458382682" lon="11.491709188104402"><ele>686.0</ele><time>2026-05-02T12:49:08.5Z</time></trkpt><trkpt lat="46.08351981396593" lon="11.491602944039599"><ele>686.0</ele><time>2026-05-02T12:49:09.5Z</time></trkpt><trkpt lat="46.083469698743" lon="11.49144988716195"><ele>686.0</ele><time>2026-05-02T12:49:10.5Z</time></trkpt><trkpt lat="46.0834731285219" lon="11.491322831534713"><ele>686.0</ele><time>2026-05-02T12:49:11.5Z</time></trkpt><trkpt lat="46.08347964736707" lon="11.491087802942948"><ele>694.0</ele><time>2026-05-02T12:49:12.5Z</time></trkpt><trkpt lat="46.08361366921916" lon="11.490782361270732"><ele>702.0</ele><time>2026-05-02T12:49:13.5Z</time></trkpt><trkpt lat="46.08379065457898" lon="11.490510629272645"><ele>708.0</ele><time>2026-05-02T12:49:14.5Z</time></trkpt><trkpt lat="46.08382783932119" lon="11.490314332516759"><ele>714.0</ele><time>2026-05-02T12:49:15.5Z</time></trkpt><trkpt lat="46.08381821596428" lon="11.490119565965857"><ele>720.0</ele><time>2026-05-02T12:49:16.5Z</time></trkpt><trkpt lat="46.08383402480783" lon="11.48993982180112"><ele>726.0</ele><time>2026-05-02T12:49:17.5Z</time></trkpt><trkpt lat="46.08375272240019" lon="11.489862055103911"><ele>726.0</ele><time>2026-05-02T12:49:18.5Z</time></trkpt><trkpt lat="46.083688898757096" lon="11.489777883181281"><ele>726.0</ele><time>2026-05-02T12:49:19.5Z</time></trkpt><trkpt lat="46.08358763448976" lon="11.48978431040717"><ele>726.0</ele><time>2026-05-02T12:49:20.5Z</time></trkpt><trkpt lat="46.08340936357876" lon="11.489912840860807"><ele>726.0</ele><time>2026-05-02T12:49:21.5Z</time></trkpt><trkpt lat="46.08330240791521" lon="11.48996548307908"><ele>720.5999999999999</ele><time>2026-05-02T12:49:22.5Z</time></trkpt><trkpt lat="46.083197373254485" lon="11.490059789270184"><ele>715.2</ele><time>2026-05-02T12:49:23.5Z</time></trkpt><trkpt lat="46.0830872417909" lon="11.490046138697988"><ele>709.8</ele><time>2026-05-02T12:49:24.5Z</time></trkpt><trkpt lat="46.08299314045863" lon="11.490084361003783"><ele>704.4000000000001</ele><time>2026-05-02T12:49:25.5Z</time></trkpt><trkpt lat="46.08290250121901" lon="11.49008527463328"><ele>699.0</ele><time>2026-05-02T12:49:26.5Z</time></trkpt><trkpt lat="46.0827746256245" lon="11.490018468355181"><ele>699.0</ele><time>2026-05-02T12:49:27.5Z</time></trkpt><trkpt lat="46.08263139496526" lon="11.489893522063436"><ele>699.0</ele><time>2026-05-02T12:49:28.5Z</time></trkpt><trkpt lat="46.08251767956069" lon="11.48971257579245"><ele>699.0</ele><time>2026-05-02T12:49:29.5Z</time></trkpt><trkpt lat="46.08243080763202" lon="11.489542965338478"><ele>695.4000000000001</ele><time>2026-05-02T12:49:30.5Z</time></trkpt><trkpt lat="46.08234438818972" lon="11.489469665160033"><ele>691.8</ele><time>2026-05-02T12:49:31.5Z</time></trkpt><trkpt lat="46.082248755128795" lon="11.489395382198818"><ele>688.2</ele><time>2026-05-02T12:49:32.5Z</time></trkpt><trkpt lat="46.082154782590884" lon="11.489334151235381"><ele>684.5999999999999</ele><time>2026-05-02T12:49:33.5Z</time></trkpt><trkpt lat="46.082075246713536" lon="11.489279588722264"><ele>681.0</ele><time>2026-05-02T12:49:34.5Z</time></trkpt><trkpt lat="46.08227333687084" lon="11.488817020021235"><ele>684.0</ele><time>2026-05-02T12:49:35.5Z</time></trkpt><trkpt lat="46.082233664585935" lon="11.488604508871417"><ele>687.0</ele><time>2026-05-02T12:49:36.5Z</time></trkpt><trkpt lat="46.08217029846789" lon="11.488384584188292"><ele>690.0</ele><time>2026-05-02T12:49:37.5Z</time></trkpt><trkpt lat="46.08215766310655" lon="11.488219710639022"><ele>693.0</ele><time>2026-05-02T12:49:38.5Z</time></trkpt><trkpt lat="46.08214943064123" lon="11.488021001389448"><ele>697.5</ele><time>2026-05-02T12:49:39.5Z</time></trkpt><trkpt lat="46.082132934061896" lon="11.487824092542791"><ele>702.0</ele><time>2026-05-02T12:49:40.5Z</time></trkpt><trkpt lat="46.08209685353739" lon="11.487689491640685"><ele>706.5</ele><time>2026-05-02T12:49:41.5Z</time></trkpt><trkpt lat="46.08211661679033" lon="11.487547024660907"><ele>711.0</ele><time>2026-05-02T12:49:42.5Z</time></trkpt><trkpt lat="46.08196415551608" lon="11.487553699559376"><ele>711.0</ele><time>2026-05-02T12:49:43.5Z</time></trkpt><trkpt lat="46.081896056608294" lon="11.487464846037884"><ele>711.0</ele><time>2026-05-02T12:49:44.5Z</time></trkpt><trkpt lat="46.08182172078007" lon="11.487366888715835"><ele>711.0</ele><time>2026-05-02T12:49:45.5Z</time></trkpt><trkpt lat="46.0817534604456" lon="11.48729003089371"><ele>711.0</ele><time>2026-05-02T12:49:46.5Z</time></trkpt><trkpt lat="46.08163095496388" lon="11.487347918342776"><ele>711.0</ele><time>2026-05-02T12:49:47.5Z</time></trkpt><trkpt lat="46.08149732337054" lon="11.487441404226548"><ele>706.0</ele><time>2026-05-02T12:49:48.5Z</time></trkpt><trkpt lat="46.081378781004446" lon="11.487508381111878"><ele>701.0</ele><time>2026-05-02T12:49:49.5Z</time></trkpt><trkpt lat="46.081250382286704" lon="11.48757300880292"><ele>696.0</ele><time>2026-05-02T12:49:50.5Z</time></trkpt><trkpt lat="46.08114778762053" lon="11.487592922893361"><ele>691.0</ele><time>2026-05-02T12:49:51.5Z</time></trkpt><trkpt lat="46.0810636251445" lon="11.487529994637944"><ele>691.0</ele><time>2026-05-02T12:49:52.5Z</time></trkpt><trkpt lat="46.08097509684673" lon="11.487496437736707"><ele>691.0</ele><time>2026-05-02T12:49:53.5Z</time></trkpt><trkpt lat="46.08091498407175" lon="11.487411587044837"><ele>691.0</ele><time>2026-05-02T12:49:54.5Z</time></trkpt><trkpt lat="46.080818261662735" lon="11.487266222689163"><ele>691.0</ele><time>2026-05-02T12:49:55.5Z</time></trkpt><trkpt lat="46.08074251068817" lon="11.486969561302324"><ele>689.75</ele><time>2026-05-02T12:49:56.5Z</time></trkpt><trkpt lat="46.08067280595214" lon="11.486789627789552"><ele>688.5</ele><time>2026-05-02T12:49:57.5Z</time></trkpt><trkpt lat="46.080620036966096" lon="11.486590459287715"><ele>687.25</ele><time>2026-05-02T12:49:58.5Z</time></trkpt><trkpt lat="46.08051014135673" lon="11.486479137893216"><ele>686.0</ele><time>2026-05-02T12:49:59.5Z</time></trkpt><trkpt lat="46.08039562890203" lon="11.486389141621661"><ele>686.0</ele><time>2026-05-02T12:50:00.5Z</time></trkpt><trkpt lat="46.0802818705636" lon="11.486345059082092"><ele>686.0</ele><time>2026-05-02T12:50:01.5Z</time></trkpt><trkpt lat="46.08011073069829" lon="11.486389027181307"><ele>686.0</ele><time>2026-05-02T12:50:02.5Z</time></trkpt><trkpt lat="46.0799641218771" lon="11.48639773328091"><ele>686.0</ele><time>2026-05-02T12:50:03.5Z</time></trkpt><trkpt lat="46.079813011734366" lon="11.486409600270894"><ele>682.75</ele><time>2026-05-02T12:50:04.5Z</time></trkpt><trkpt lat="46.07967678205547" lon="11.486409033319216"><ele>679.5</ele><time>2026-05-02T12:50:05.5Z</time></trkpt><trkpt lat="46.07951919557288" lon="11.486395622037115"><ele>676.25</ele><time>2026-05-02T12:50:06.5Z</time></trkpt><trkpt lat="46.079373849833765" lon="11.486340213666287"><ele>673.0</ele><time>2026-05-02T12:50:07.5Z</time></trkpt><trkpt lat="46.07923025839348" lon="11.486295196474149"><ele>671.5</ele><time>2026-05-02T12:50:08.5Z</time></trkpt><trkpt lat="46.07908519661048" lon="11.486249794624129"><ele>670.0</ele><time>2026-05-02T12:50:09.5Z</time></trkpt><trkpt lat="46.078936613860336" lon="11.486207917706578"><ele>668.5</ele><time>2026-05-02T12:50:10.5Z</time></trkpt><trkpt lat="46.07880702947489" lon="11.486152907414228"><ele>667.0</ele><time>2026-05-02T12:50:11.5Z</time></trkpt><trkpt lat="46.078673902751945" lon="11.48609631104318"><ele>667.0</ele><time>2026-05-02T12:50:12.5Z</time></trkpt><trkpt lat="46.078537806774634" lon="11.486031094551924"><ele>667.0</ele><time>2026-05-02T12:50:13.5Z</time></trkpt><trkpt lat="46.07840269748822" lon="11.48596037450794"><ele>667.0</ele><time>2026-05-02T12:50:14.5Z</time></trkpt><trkpt lat="46.078242810774285" lon="11.485766536081224"><ele>664.0</ele><time>2026-05-02T12:50:15.5Z</time></trkpt><trkpt lat="46.078094676800255" lon="11.485646935089104"><ele>661.0</ele><time>2026-05-02T12:50:16.5Z</time></trkpt><trkpt lat="46.0779528800848" lon="11.485528833377794"><ele>658.0</ele><time>2026-05-02T12:50:17.5Z</time></trkpt><trkpt lat="46.07781263887996" lon="11.485406218809587"><ele>658.0</ele><time>2026-05-02T12:50:18.5Z</time></trkpt><trkpt lat="46.07767764574522" lon="11.485269857503308"><ele>658.0</ele><time>2026-05-02T12:50:19.5Z</time></trkpt><trkpt lat="46.07755978312293" lon="11.48516976567165"><ele>658.0</ele><time>2026-05-02T12:50:20.5Z</time></trkpt><trkpt lat="46.07744093004392" lon="11.485084066022118"><ele>658.0</ele><time>2026-05-02T12:50:21.5Z</time></trkpt><trkpt lat="46.07731553987093" lon="11.484973332620351"><ele>655.0</ele><time>2026-05-02T12:50:22.5Z</time></trkpt><trkpt lat="46.07720041770026" lon="11.484880634415251"><ele>652.0</ele><time>2026-05-02T12:50:23.5Z</time></trkpt><trkpt lat="46.07709408699296" lon="11.484799120764837"><ele>649.0</ele><time>2026-05-02T12:50:24.5Z</time></trkpt><trkpt lat="46.07698785165723" lon="11.484714288187295"><ele>646.0</ele><time>2026-05-02T12:50:25.5Z</time></trkpt><trkpt lat="46.07687307287286" lon="11.48462645602196"><ele>648.25</ele><time>2026-05-02T12:50:26.5Z</time></trkpt><trkpt lat="46.07677739555378" lon="11.484555513412477"><ele>650.5</ele><time>2026-05-02T12:50:27.5Z</time></trkpt><trkpt lat="46.076680865697355" lon="11.484448010859605"><ele>652.75</ele><time>2026-05-02T12:50:28.5Z</time></trkpt><trkpt lat="46.07657972333611" lon="11.484352946098207"><ele>655.0</ele><time>2026-05-02T12:50:29.5Z</time></trkpt><trkpt lat="46.07651120674444" lon="11.484239597321396"><ele>651.25</ele><time>2026-05-02T12:50:30.5Z</time></trkpt><trkpt lat="46.076450513626725" lon="11.484091540883801"><ele>647.5</ele><time>2026-05-02T12:50:31.5Z</time></trkpt><trkpt lat="46.076374402277764" lon="11.48397171268062"><ele>643.75</ele><time>2026-05-02T12:50:32.5Z</time></trkpt><trkpt lat="46.07629369088607" lon="11.483847423367077"><ele>640.0</ele><time>2026-05-02T12:50:33.5Z</time></trkpt><trkpt lat="46.076224286565136" lon="11.483733320919443"><ele>640.0</ele><time>2026-05-02T12:50:34.5Z</time></trkpt><trkpt lat="46.0761565163452" lon="11.483619196603204"><ele>640.0</ele><time>2026-05-02T12:50:35.5Z</time></trkpt><trkpt lat="46.07608963918495" lon="11.48350771843725"><ele>640.0</ele><time>2026-05-02T12:50:36.5Z</time></trkpt><trkpt lat="46.07601448028319" lon="11.48339839062855"><ele>640.0</ele><time>2026-05-02T12:50:37.5Z</time></trkpt><trkpt lat="46.07595394887764" lon="11.483292512492756"><ele>640.0</ele><time>2026-05-02T12:50:38.5Z</time></trkpt><trkpt lat="46.07588642887768" lon="11.483154813858459"><ele>640.0</ele><time>2026-05-02T12:50:39.5Z</time></trkpt><trkpt lat="46.0758052539257" lon="11.482957110156649"><ele>640.0</ele><time>2026-05-02T12:50:40.5Z</time></trkpt><trkpt lat="46.07572469709867" lon="11.482749255518604"><ele>640.0</ele><time>2026-05-02T12:50:41.5Z</time></trkpt><trkpt lat="46.075640538905716" lon="11.482495111108875"><ele>636.0</ele><time>2026-05-02T12:50:42.5Z</time></trkpt><trkpt lat="46.07555937611312" lon="11.482269482651642"><ele>632.0</ele><time>2026-05-02T12:50:43.5Z</time></trkpt><trkpt lat="46.07547598084339" lon="11.482070354114073"><ele>628.0</ele><time>2026-05-02T12:50:44.5Z</time></trkpt><trkpt lat="46.07539900911991" lon="11.481877816721832"><ele>628.0</ele><time>2026-05-02T12:50:45.5Z</time></trkpt><trkpt lat="46.075326607194896" lon="11.4816912495041"><ele>628.0</ele><time>2026-05-02T12:50:46.5Z</time></trkpt><trkpt lat="46.07525510894103" lon="11.481540092912516"><ele>628.0</ele><time>2026-05-02T12:50:47.5Z</time></trkpt><trkpt lat="46.075182314638994" lon="11.481390591707243"><ele>628.0</ele><time>2026-05-02T12:50:48.5Z</time></trkpt><trkpt lat="46.07512283432729" lon="11.481251818138256"><ele>628.0</ele><time>2026-05-02T12:50:49.5Z</time></trkpt><trkpt lat="46.07506022008066" lon="11.481104719456397"><ele>628.0</ele><time>2026-05-02T12:50:50.5Z</time></trkpt><trkpt lat="46.07505756125152" lon="11.480910514604451"><ele>628.0</ele><time>2026-05-02T12:50:51.5Z</time></trkpt><trkpt lat="46.07505187584045" lon="11.480705588897353"><ele>628.0</ele><time>2026-05-02T12:50:52.5Z</time></trkpt><trkpt lat="46.07509717940281" lon="11.480504614491547"><ele>627.0</ele><time>2026-05-02T12:50:53.5Z</time></trkpt><trkpt lat="46.07513916342766" lon="11.48032736185355"><ele>626.0</ele><time>2026-05-02T12:50:54.5Z</time></trkpt><trkpt lat="46.075164261988995" lon="11.480184584623462"><ele>625.0</ele><time>2026-05-02T12:50:55.5Z</time></trkpt><trkpt lat="46.075253031375574" lon="11.480058666460945"><ele>624.0</ele><time>2026-05-02T12:50:56.5Z</time></trkpt><trkpt lat="46.0753636961206" lon="11.479915658772734"><ele>624.0</ele><time>2026-05-02T12:50:57.5Z</time></trkpt><trkpt lat="46.07544271088487" lon="11.479771093998504"><ele>624.0</ele><time>2026-05-02T12:50:58.5Z</time></trkpt><trkpt lat="46.07548769633599" lon="11.47960101360622"><ele>624.0</ele><time>2026-05-02T12:50:59.5Z</time></trkpt><trkpt lat="46.07549319399854" lon="11.479340412615974"><ele>624.0</ele><time>2026-05-02T12:51:00.5Z</time></trkpt><trkpt lat="46.075517695976984" lon="11.479127071183681"><ele>620.75</ele><time>2026-05-02T12:51:01.5Z</time></trkpt><trkpt lat="46.07555941949325" lon="11.478920996176333"><ele>617.5</ele><time>2026-05-02T12:51:02.5Z</time></trkpt><trkpt lat="46.07560890689168" lon="11.478724322521654"><ele>614.25</ele><time>2026-05-02T12:51:03.5Z</time></trkpt><trkpt lat="46.07564798585661" lon="11.478517914968245"><ele>611.0</ele><time>2026-05-02T12:51:04.5Z</time></trkpt><trkpt lat="46.07566527298873" lon="11.478333663395384"><ele>608.6666666666666</ele><time>2026-05-02T12:51:05.5Z</time></trkpt><trkpt lat="46.07568313193245" lon="11.478128121646888"><ele>606.3333333333334</ele><time>2026-05-02T12:51:06.5Z</time></trkpt><trkpt lat="46.075697372453334" lon="11.477911691011569"><ele>604.0</ele><time>2026-05-02T12:51:07.5Z</time></trkpt><trkpt lat="46.075748706834084" lon="11.477690402901402"><ele>610.5</ele><time>2026-05-02T12:51:08.5Z</time></trkpt><trkpt lat="46.07580816808231" lon="11.477490045570157"><ele>617.0</ele><time>2026-05-02T12:51:09.5Z</time></trkpt><trkpt lat="46.075832047443654" lon="11.477283794192724"><ele>623.5</ele><time>2026-05-02T12:51:10.5Z</time></trkpt><trkpt lat="46.07587602191135" lon="11.477074487409212"><ele>630.0</ele><time>2026-05-02T12:51:11.5Z</time></trkpt><trkpt lat="46.07588858364294" lon="11.47687320655427"><ele>630.0</ele><time>2026-05-02T12:51:12.5Z</time></trkpt><trkpt lat="46.0759553548295" lon="11.47670991348275"><ele>630.0</ele><time>2026-05-02T12:51:13.5Z</time></trkpt><trkpt lat="46.07600077871111" lon="11.476546601476928"><ele>630.0</ele><time>2026-05-02T12:51:14.5Z</time></trkpt><trkpt lat="46.07593058303259" lon="11.476336727962435"><ele>630.0</ele><time>2026-05-02T12:51:15.5Z</time></trkpt><trkpt lat="46.07592401018996" lon="11.47616110923291"><ele>629.6666666666666</ele><time>2026-05-02T12:51:16.5Z</time></trkpt><trkpt lat="46.07589407896343" lon="11.475954511857884"><ele>629.3333333333333</ele><time>2026-05-02T12:51:17.5Z</time></trkpt><trkpt lat="46.075856144894125" lon="11.475754266503134"><ele>629.0</ele><time>2026-05-02T12:51:18.5Z</time></trkpt><trkpt lat="46.07580372960391" lon="11.475535219956186"><ele>621.0</ele><time>2026-05-02T12:51:19.5Z</time></trkpt><trkpt lat="46.075740532546305" lon="11.475320721673446"><ele>613.0</ele><time>2026-05-02T12:51:20.5Z</time></trkpt><trkpt lat="46.07567886079783" lon="11.475126072158075"><ele>605.0</ele><time>2026-05-02T12:51:21.5Z</time></trkpt><trkpt lat="46.07560735156049" lon="11.474948398153709"><ele>605.0</ele><time>2026-05-02T12:51:22.5Z</time></trkpt><trkpt lat="46.075526521774655" lon="11.474775223343523"><ele>605.0</ele><time>2026-05-02T12:51:23.501Z</time></trkpt><trkpt lat="46.07546676063733" lon="11.474614430476574"><ele>605.0</ele><time>2026-05-02T12:51:24.501Z</time></trkpt><trkpt lat="46.075418783361634" lon="11.474466063671603"><ele>605.0</ele><time>2026-05-02T12:51:25.501Z</time></trkpt><trkpt lat="46.07537203449607" lon="11.474319120834158"><ele>604.6</ele><time>2026-05-02T12:51:26.501Z</time></trkpt><trkpt lat="46.0753456499306" lon="11.474169350534416"><ele>604.2</ele><time>2026-05-02T12:51:27.501Z</time></trkpt><trkpt lat="46.07533377019283" lon="11.474008994493987"><ele>603.8</ele><time>2026-05-02T12:51:28.501Z</time></trkpt><trkpt lat="46.07534852549484" lon="11.473856081844046"><ele>603.4</ele><time>2026-05-02T12:51:29.501Z</time></trkpt><trkpt lat="46.075395387470394" lon="11.473691632187103"><ele>603.0</ele><time>2026-05-02T12:51:30.501Z</time></trkpt><trkpt lat="46.07542188125083" lon="11.473544121708024"><ele>603.0</ele><time>2026-05-02T12:51:31.501Z</time></trkpt><trkpt lat="46.07549171484109" lon="11.473462325879677"><ele>603.0</ele><time>2026-05-02T12:51:32.501Z</time></trkpt><trkpt lat="46.07556139018971" lon="11.473380609336367"><ele>603.0</ele><time>2026-05-02T12:51:33.501Z</time></trkpt><trkpt lat="46.07557097691428" lon="11.4732095740406"><ele>603.0</ele><time>2026-05-02T12:51:35.501Z</time></trkpt><trkpt lat="46.07551042892748" lon="11.47314682990924"><ele>603.0</ele><time>2026-05-02T12:51:38.501Z</time></trkpt><trkpt lat="46.07541997278344" lon="11.473154125410487"><ele>603.0</ele><time>2026-05-02T12:51:40.501Z</time></trkpt><trkpt lat="46.07532174759572" lon="11.473241502015332"><ele>603.0</ele><time>2026-05-02T12:51:41.501Z</time></trkpt><trkpt lat="46.07520451429188" lon="11.47339333539231"><ele>603.0</ele><time>2026-05-02T12:51:42.501Z</time></trkpt><trkpt lat="46.075103919969926" lon="11.473547359685398"><ele>603.0</ele><time>2026-05-02T12:51:43.501Z</time></trkpt><trkpt lat="46.075041148633915" lon="11.473726180576085"><ele>602.25</ele><time>2026-05-02T12:51:44.501Z</time></trkpt><trkpt lat="46.075013793592845" lon="11.473938437114967"><ele>601.5</ele><time>2026-05-02T12:51:45.501Z</time></trkpt><trkpt lat="46.0750075314468" lon="11.474164133795925"><ele>600.75</ele><time>2026-05-02T12:51:46.501Z</time></trkpt><trkpt lat="46.074997358342635" lon="11.47435101959679"><ele>600.0</ele><time>2026-05-02T12:51:47.501Z</time></trkpt><trkpt lat="46.074988541658776" lon="11.47452016605889"><ele>601.25</ele><time>2026-05-02T12:51:48.501Z</time></trkpt><trkpt lat="46.07498865594155" lon="11.474662991044903"><ele>602.5</ele><time>2026-05-02T12:51:49.501Z</time></trkpt><trkpt lat="46.07497973738765" lon="11.474823920911058"><ele>603.75</ele><time>2026-05-02T12:51:50.501Z</time></trkpt><trkpt lat="46.07497030250348" lon="11.474996667588316"><ele>605.0</ele><time>2026-05-02T12:51:51.501Z</time></trkpt><trkpt lat="46.07496457453782" lon="11.475176212942598"><ele>605.0</ele><time>2026-05-02T12:51:52.501Z</time></trkpt><trkpt lat="46.074951032926904" lon="11.47534033538244"><ele>605.0</ele><time>2026-05-02T12:51:53.501Z</time></trkpt><trkpt lat="46.074933747404636" lon="11.475516744243997"><ele>605.0</ele><time>2026-05-02T12:51:54.501Z</time></trkpt><trkpt lat="46.074926868481604" lon="11.475699943737384"><ele>605.0</ele><time>2026-05-02T12:51:55.501Z</time></trkpt><trkpt lat="46.07489901100596" lon="11.475871107367967"><ele>601.75</ele><time>2026-05-02T12:51:56.501Z</time></trkpt><trkpt lat="46.07489248519659" lon="11.47604534289617"><ele>598.5</ele><time>2026-05-02T12:51:57.501Z</time></trkpt><trkpt lat="46.074889762664434" lon="11.476240191885926"><ele>595.25</ele><time>2026-05-02T12:51:58.501Z</time></trkpt><trkpt lat="46.07488674550893" lon="11.476429781239528"><ele>592.0</ele><time>2026-05-02T12:51:59.501Z</time></trkpt><trkpt lat="46.07487104136678" lon="11.476628371287305"><ele>591.75</ele><time>2026-05-02T12:52:00.501Z</time></trkpt><trkpt lat="46.07486012783096" lon="11.476808276576401"><ele>591.5</ele><time>2026-05-02T12:52:01.501Z</time></trkpt><trkpt lat="46.07485212182493" lon="11.476989564211591"><ele>591.25</ele><time>2026-05-02T12:52:02.501Z</time></trkpt><trkpt lat="46.07482826629265" lon="11.477174032346728"><ele>591.0</ele><time>2026-05-02T12:52:03.501Z</time></trkpt><trkpt lat="46.07481608478039" lon="11.477353970707679"><ele>588.6666666666666</ele><time>2026-05-02T12:52:04.501Z</time></trkpt><trkpt lat="46.074793491700454" lon="11.477570053318756"><ele>586.3333333333333</ele><time>2026-05-02T12:52:05.501Z</time></trkpt><trkpt lat="46.07477552105268" lon="11.477796027724715"><ele>584.0</ele><time>2026-05-02T12:52:06.501Z</time></trkpt><trkpt lat="46.074749889978605" lon="11.478020098688543"><ele>583.3333333333333</ele><time>2026-05-02T12:52:07.501Z</time></trkpt><trkpt lat="46.074731588274076" lon="11.47824074395245"><ele>582.6666666666666</ele><time>2026-05-02T12:52:08.501Z</time></trkpt><trkpt lat="46.07472129945889" lon="11.478456654423539"><ele>582.0</ele><time>2026-05-02T12:52:09.501Z</time></trkpt><trkpt lat="46.07467671724366" lon="11.478672261862059"><ele>582.0</ele><time>2026-05-02T12:52:10.501Z</time></trkpt><trkpt lat="46.07463522261628" lon="11.47888096670311"><ele>582.0</ele><time>2026-05-02T12:52:11.501Z</time></trkpt><trkpt lat="46.07459051561999" lon="11.479071867116618"><ele>582.0</ele><time>2026-05-02T12:52:12.501Z</time></trkpt><trkpt lat="46.07451418106867" lon="11.479273192462276"><ele>582.0</ele><time>2026-05-02T12:52:13.501Z</time></trkpt><trkpt lat="46.074447122007385" lon="11.47946260344813"><ele>582.0</ele><time>2026-05-02T12:52:14.501Z</time></trkpt><trkpt lat="46.07437608352829" lon="11.479655010740467"><ele>582.0</ele><time>2026-05-02T12:52:15.501Z</time></trkpt><trkpt lat="46.07430717860193" lon="11.479867016355282"><ele>584.0</ele><time>2026-05-02T12:52:16.501Z</time></trkpt><trkpt lat="46.0742373508686" lon="11.4800651584164"><ele>586.0</ele><time>2026-05-02T12:52:17.501Z</time></trkpt><trkpt lat="46.07416394113259" lon="11.48026892963537"><ele>588.0</ele><time>2026-05-02T12:52:18.501Z</time></trkpt><trkpt lat="46.07408300624794" lon="11.480475516902144"><ele>582.0</ele><time>2026-05-02T12:52:19.501Z</time></trkpt><trkpt lat="46.074002336165115" lon="11.480677879354841"><ele>576.0</ele><time>2026-05-02T12:52:20.501Z</time></trkpt><trkpt lat="46.07392648396008" lon="11.480876725140407"><ele>570.0</ele><time>2026-05-02T12:52:21.501Z</time></trkpt><trkpt lat="46.07383892064413" lon="11.481067450033112"><ele>570.0</ele><time>2026-05-02T12:52:22.501Z</time></trkpt><trkpt lat="46.073734225078965" lon="11.481254800590486"><ele>570.0</ele><time>2026-05-02T12:52:23.501Z</time></trkpt><trkpt lat="46.07359979896613" lon="11.481430706304046"><ele>570.0</ele><time>2026-05-02T12:52:24.501Z</time></trkpt><trkpt lat="46.073476299484824" lon="11.481583144426176"><ele>566.0</ele><time>2026-05-02T12:52:25.501Z</time></trkpt><trkpt lat="46.07335961809428" lon="11.481733615547103"><ele>562.0</ele><time>2026-05-02T12:52:26.501Z</time></trkpt><trkpt lat="46.073239794973624" lon="11.48187844101661"><ele>558.0</ele><time>2026-05-02T12:52:27.501Z</time></trkpt><trkpt lat="46.0731207233513" lon="11.482026837164353"><ele>562.0</ele><time>2026-05-02T12:52:28.501Z</time></trkpt><trkpt lat="46.07300687739407" lon="11.482167727948827"><ele>566.0</ele><time>2026-05-02T12:52:29.501Z</time></trkpt><trkpt lat="46.07288565885525" lon="11.482310637687194"><ele>570.0</ele><time>2026-05-02T12:52:30.501Z</time></trkpt><trkpt lat="46.07277778656632" lon="11.482467933587332"><ele>570.0</ele><time>2026-05-02T12:52:31.501Z</time></trkpt><trkpt lat="46.07271046378071" lon="11.482617743840411"><ele>570.0</ele><time>2026-05-02T12:52:32.501Z</time></trkpt><trkpt lat="46.072659056353984" lon="11.482777943122114"><ele>570.0</ele><time>2026-05-02T12:52:33.501Z</time></trkpt><trkpt lat="46.07262597372718" lon="11.482949497853841"><ele>570.0</ele><time>2026-05-02T12:52:34.501Z</time></trkpt><trkpt lat="46.07259750811107" lon="11.4831412004095"><ele>570.3333333333334</ele><time>2026-05-02T12:52:35.501Z</time></trkpt><trkpt lat="46.072603375926036" lon="11.483373133450865"><ele>570.6666666666667</ele><time>2026-05-02T12:52:36.501Z</time></trkpt><trkpt lat="46.07264661655607" lon="11.483645634158247"><ele>571.0</ele><time>2026-05-02T12:52:37.501Z</time></trkpt><trkpt lat="46.072696228010535" lon="11.483927222841304"><ele>568.0</ele><time>2026-05-02T12:52:38.501Z</time></trkpt><trkpt lat="46.07273926386482" lon="11.484174700393545"><ele>565.0</ele><time>2026-05-02T12:52:39.501Z</time></trkpt><trkpt lat="46.072778894771645" lon="11.484421073451843"><ele>562.0</ele><time>2026-05-02T12:52:40.501Z</time></trkpt><trkpt lat="46.07282824355389" lon="11.48465970538299"><ele>559.0</ele><time>2026-05-02T12:52:41.501Z</time></trkpt><trkpt lat="46.072862543815866" lon="11.484890099257647"><ele>556.0</ele><time>2026-05-02T12:52:42.501Z</time></trkpt><trkpt lat="46.072885283280904" lon="11.485112351959115"><ele>553.0</ele><time>2026-05-02T12:52:43.501Z</time></trkpt><trkpt lat="46.072924381117005" lon="11.485332392233538"><ele>551.0</ele><time>2026-05-02T12:52:44.501Z</time></trkpt><trkpt lat="46.07296076534536" lon="11.485540459237448"><ele>549.0</ele><time>2026-05-02T12:52:45.501Z</time></trkpt><trkpt lat="46.072995971637745" lon="11.485748710589245"><ele>547.0</ele><time>2026-05-02T12:52:46.501Z</time></trkpt><trkpt lat="46.07302744682285" lon="11.485943943711424"><ele>545.0</ele><time>2026-05-02T12:52:47.501Z</time></trkpt><trkpt lat="46.07304775940323" lon="11.486109864816818"><ele>543.6666666666666</ele><time>2026-05-02T12:52:48.501Z</time></trkpt><trkpt lat="46.0730845368149" lon="11.486265349469173"><ele>542.3333333333333</ele><time>2026-05-02T12:52:49.501Z</time></trkpt><trkpt lat="46.073078953303884" lon="11.486380281071614"><ele>541.0</ele><time>2026-05-02T12:52:50.501Z</time></trkpt><trkpt lat="46.07305760702944" lon="11.486475615407613"><ele>539.6666666666666</ele><time>2026-05-02T12:52:51.501Z</time></trkpt><trkpt lat="46.07300538024919" lon="11.48656003337447"><ele>538.3333333333334</ele><time>2026-05-02T12:52:52.501Z</time></trkpt><trkpt lat="46.07293731422492" lon="11.486605573281647"><ele>537.0</ele><time>2026-05-02T12:52:53.501Z</time></trkpt><trkpt lat="46.072839650745514" lon="11.486627300939949"><ele>537.0</ele><time>2026-05-02T12:52:54.501Z</time></trkpt><trkpt lat="46.072744621112655" lon="11.486569504560846"><ele>537.0</ele><time>2026-05-02T12:52:55.501Z</time></trkpt><trkpt lat="46.07260164752216" lon="11.486281594612164"><ele>537.0</ele><time>2026-05-02T12:52:56.501Z</time></trkpt><trkpt lat="46.07242083035594" lon="11.486023228763004"><ele>533.6666666666666</ele><time>2026-05-02T12:52:57.501Z</time></trkpt><trkpt lat="46.07226707247443" lon="11.485841505898653"><ele>530.3333333333333</ele><time>2026-05-02T12:52:58.501Z</time></trkpt><trkpt lat="46.07213327809398" lon="11.48567864913264"><ele>527.0</ele><time>2026-05-02T12:52:59.501Z</time></trkpt><trkpt lat="46.07198038386737" lon="11.485516632831466"><ele>529.6666666666666</ele><time>2026-05-02T12:53:00.501Z</time></trkpt><trkpt lat="46.071836437451324" lon="11.485345888896298"><ele>532.3333333333334</ele><time>2026-05-02T12:53:01.501Z</time></trkpt><trkpt lat="46.071697996157795" lon="11.48517727946344"><ele>535.0</ele><time>2026-05-02T12:53:02.501Z</time></trkpt><trkpt lat="46.0715764737267" lon="11.484966939507382"><ele>530.3333333333334</ele><time>2026-05-02T12:53:03.501Z</time></trkpt><trkpt lat="46.07141105720453" lon="11.484754615121531"><ele>525.6666666666666</ele><time>2026-05-02T12:53:04.501Z</time></trkpt><trkpt lat="46.07128217660577" lon="11.484538287329102"><ele>521.0</ele><time>2026-05-02T12:53:05.501Z</time></trkpt><trkpt lat="46.07115672598115" lon="11.484343647698365"><ele>521.0</ele><time>2026-05-02T12:53:06.501Z</time></trkpt><trkpt lat="46.07105714928728" lon="11.484135200950648"><ele>521.0</ele><time>2026-05-02T12:53:07.501Z</time></trkpt><trkpt lat="46.07092988510525" lon="11.483955556820662"><ele>521.0</ele><time>2026-05-02T12:53:08.501Z</time></trkpt><trkpt lat="46.070812140019186" lon="11.48377649426462"><ele>519.5</ele><time>2026-05-02T12:53:09.501Z</time></trkpt><trkpt lat="46.0707007062726" lon="11.483611797212351"><ele>518.0</ele><time>2026-05-02T12:53:10.501Z</time></trkpt><trkpt lat="46.070595940538716" lon="11.483450237933246"><ele>516.5</ele><time>2026-05-02T12:53:11.501Z</time></trkpt><trkpt lat="46.070501056012475" lon="11.483315572164075"><ele>515.0</ele><time>2026-05-02T12:53:12.501Z</time></trkpt><trkpt lat="46.07039128647043" lon="11.48322628977983"><ele>515.0</ele><time>2026-05-02T12:53:13.501Z</time></trkpt><trkpt lat="46.07028946177525" lon="11.48311457670803"><ele>515.0</ele><time>2026-05-02T12:53:14.501Z</time></trkpt><trkpt lat="46.07016234679373" lon="11.483016082188051"><ele>515.0</ele><time>2026-05-02T12:53:15.501Z</time></trkpt><trkpt lat="46.070018262166485" lon="11.482953076802627"><ele>515.0</ele><time>2026-05-02T12:53:16.501Z</time></trkpt><trkpt lat="46.069893827659655" lon="11.482880434398536"><ele>514.5</ele><time>2026-05-02T12:53:17.501Z</time></trkpt><trkpt lat="46.069771010820894" lon="11.482808139401511"><ele>514.0</ele><time>2026-05-02T12:53:18.501Z</time></trkpt><trkpt lat="46.069648974274955" lon="11.482746970650648"><ele>513.5</ele><time>2026-05-02T12:53:19.501Z</time></trkpt><trkpt lat="46.06954009486505" lon="11.48269841813358"><ele>513.0</ele><time>2026-05-02T12:53:20.501Z</time></trkpt><trkpt lat="46.06943844918539" lon="11.48265252901928"><ele>513.0</ele><time>2026-05-02T12:53:21.501Z</time></trkpt><trkpt lat="46.06934206998318" lon="11.482612857157594"><ele>513.0</ele><time>2026-05-02T12:53:22.501Z</time></trkpt><trkpt lat="46.069265161552174" lon="11.482587761714198"><ele>513.0</ele><time>2026-05-02T12:53:23.501Z</time></trkpt><trkpt lat="46.06913809151286" lon="11.482522884421355"><ele>513.0</ele><time>2026-05-02T12:53:25.501Z</time></trkpt><trkpt lat="46.06907331525765" lon="11.482545511523309"><ele>513.0</ele><time>2026-05-02T12:53:27.501Z</time></trkpt><trkpt lat="46.06901286886792" lon="11.482581835584671"><ele>513.0</ele><time>2026-05-02T12:53:28.501Z</time></trkpt><trkpt lat="46.06894041444304" lon="11.482560809956102"><ele>511.1428571428572</ele><time>2026-05-02T12:53:30.501Z</time></trkpt><trkpt lat="46.06886694536902" lon="11.482488024248067"><ele>509.28571428571433</ele><time>2026-05-02T12:53:33.501Z</time></trkpt><trkpt lat="46.06880796676557" lon="11.48244658011896"><ele>507.42857142857144</ele><time>2026-05-02T12:53:36.501Z</time></trkpt><trkpt lat="46.068743001230146" lon="11.48243100841056"><ele>505.5714285714286</ele><time>2026-05-02T12:53:39.501Z</time></trkpt><trkpt lat="46.068768510965256" lon="11.48252097122935"><ele>503.7142857142858</ele><time>2026-05-02T12:55:52.501Z</time></trkpt><trkpt lat="46.068748467464275" lon="11.482631568288294"><ele>501.85714285714283</ele><time>2026-05-02T12:56:18.501Z</time></trkpt><trkpt lat="46.0686814598019" lon="11.48257899873446"><ele>500.0</ele><time>2026-05-02T12:56:20.501Z</time></trkpt><trkpt lat="46.06868979987006" lon="11.4826767601017"><ele>499.99999999999994</ele><time>2026-05-02T12:56:24.501Z</time></trkpt><trkpt lat="46.068654866292675" lon="11.482598753342135"><ele>500.0</ele><time>2026-05-02T12:56:27.501Z</time></trkpt><trkpt lat="46.06855109100754" lon="11.482636679734622"><ele>500.0</ele><time>2026-05-02T12:57:20.501Z</time></trkpt><trkpt lat="46.06863728057554" lon="11.482577604892994"><ele>500.0</ele><time>2026-05-02T12:59:44.5Z</time></trkpt><trkpt lat="46.06866696815691" lon="11.482488750166665"><ele>499.99999999999994</ele><time>2026-05-02T12:59:46.5Z</time></trkpt><trkpt lat="46.06870048836471" lon="11.482384837078145"><ele>500.0</ele><time>2026-05-02T13:04:25.5Z</time></trkpt><trkpt lat="46.06867362170844" lon="11.482290690499052"><ele>500.0</ele><time>2026-05-02T13:04:43.905Z</time></trkpt><trkpt lat="46.068767697894984" lon="11.482326952425625"><ele>500.0</ele><time>2026-05-02T13:20:17.476Z</time></trkpt><trkpt lat="46.06873361526419" lon="11.482555809353615"><ele>500.0</ele><time>2026-05-02T13:20:21.503Z</time></trkpt><trkpt lat="46.068721397079116" lon="11.482462362882597"><ele>500.0</ele><time>2026-05-02T13:20:29.503Z</time></trkpt><trkpt lat="46.06873069199923" lon="11.482286961424778"><ele>500.0</ele><time>2026-05-02T13:23:38.502Z</time></trkpt><trkpt lat="46.068663846358994" lon="11.48234673625052"><ele>500.0</ele><time>2026-05-02T13:24:15.502Z</time></trkpt><trkpt lat="46.068599518002706" lon="11.482303705219758"><ele>500.0</ele><time>2026-05-02T13:24:17.502Z</time></trkpt><trkpt lat="46.068598561643434" lon="11.482200367270552"><ele>500.0</ele><time>2026-05-02T13:24:19.502Z</time></trkpt><trkpt lat="46.06854341371054" lon="11.48213812302947"><ele>500.0</ele><time>2026-05-02T13:24:21.502Z</time></trkpt><trkpt lat="46.06845356199074" lon="11.482095182962064"><ele>500.0</ele><time>2026-05-02T13:24:24.502Z</time></trkpt><trkpt lat="46.06839017511907" lon="11.482072145137902"><ele>500.0</ele><time>2026-05-02T13:24:26.502Z</time></trkpt><trkpt lat="46.06831715666043" lon="11.482052005821341"><ele>500.0</ele><time>2026-05-02T13:24:28.502Z</time></trkpt><trkpt lat="46.068220661870036" lon="11.481992548977606"><ele>499.2</ele><time>2026-05-02T13:24:30.502Z</time></trkpt><trkpt lat="46.06812203833203" lon="11.481945976239883"><ele>498.4</ele><time>2026-05-02T13:24:32.502Z</time></trkpt><trkpt lat="46.06801629043282" lon="11.481895531103758"><ele>497.6</ele><time>2026-05-02T13:24:34.502Z</time></trkpt><trkpt lat="46.06791467080289" lon="11.481824729277896"><ele>496.8</ele><time>2026-05-02T13:24:36.502Z</time></trkpt><trkpt lat="46.06784877884535" lon="11.481725989899912"><ele>496.0</ele><time>2026-05-02T13:24:38.503Z</time></trkpt><trkpt lat="46.06774696011198" lon="11.4817360109926"><ele>496.0</ele><time>2026-05-02T13:24:40.503Z</time></trkpt><trkpt lat="46.06767681595451" lon="11.481834214332505"><ele>496.0</ele><time>2026-05-02T13:24:42.503Z</time></trkpt><trkpt lat="46.06762273389328" lon="11.481946725143255"><ele>496.0</ele><time>2026-05-02T13:24:44.503Z</time></trkpt><trkpt lat="46.06752366970523" lon="11.482002324181552"><ele>496.0</ele><time>2026-05-02T13:24:46.503Z</time></trkpt><trkpt lat="46.06741014852796" lon="11.482073612127998"><ele>496.0</ele><time>2026-05-02T13:24:48.503Z</time></trkpt><trkpt lat="46.06734568718076" lon="11.482126299121227"><ele>494.50000000000006</ele><time>2026-05-02T13:24:49.503Z</time></trkpt><trkpt lat="46.067273745231724" lon="11.482199138313929"><ele>493.0</ele><time>2026-05-02T13:24:50.503Z</time></trkpt><trkpt lat="46.067196963860724" lon="11.48224897902409"><ele>491.5</ele><time>2026-05-02T13:24:51.503Z</time></trkpt><trkpt lat="46.06713638353746" lon="11.48233003172207"><ele>490.0</ele><time>2026-05-02T13:24:52.503Z</time></trkpt><trkpt lat="46.06707024345315" lon="11.482394847255271"><ele>488.50000000000006</ele><time>2026-05-02T13:24:53.503Z</time></trkpt><trkpt lat="46.06698596289403" lon="11.482447468273518"><ele>487.0</ele><time>2026-05-02T13:24:54.503Z</time></trkpt><trkpt lat="46.066885201651694" lon="11.482541960088334"><ele>487.0</ele><time>2026-05-02T13:24:55.503Z</time></trkpt><trkpt lat="46.06679147944638" lon="11.482655549672385"><ele>487.0</ele><time>2026-05-02T13:24:56.503Z</time></trkpt><trkpt lat="46.06669704185789" lon="11.482746741979977"><ele>487.0</ele><time>2026-05-02T13:24:57.503Z</time></trkpt><trkpt lat="46.06660440722259" lon="11.482824846972008"><ele>487.0</ele><time>2026-05-02T13:24:58.503Z</time></trkpt><trkpt lat="46.06650653622695" lon="11.482907916144686"><ele>484.5</ele><time>2026-05-02T13:24:59.503Z</time></trkpt><trkpt lat="46.06641553193648" lon="11.482992256063147"><ele>482.0</ele><time>2026-05-02T13:25:00.503Z</time></trkpt><trkpt lat="46.06630300427996" lon="11.483094983479276"><ele>479.5</ele><time>2026-05-02T13:25:01.503Z</time></trkpt><trkpt lat="46.066203350974426" lon="11.483216275801789"><ele>477.0</ele><time>2026-05-02T13:25:02.503Z</time></trkpt><trkpt lat="46.06609866008645" lon="11.48331902504195"><ele>477.0</ele><time>2026-05-02T13:25:03.503Z</time></trkpt><trkpt lat="46.065991710740924" lon="11.483429472462579"><ele>477.0</ele><time>2026-05-02T13:25:04.503Z</time></trkpt><trkpt lat="46.065875755138244" lon="11.483555724019135"><ele>477.0</ele><time>2026-05-02T13:25:05.503Z</time></trkpt><trkpt lat="46.06575516866959" lon="11.483676229178293"><ele>477.0</ele><time>2026-05-02T13:25:06.503Z</time></trkpt><trkpt lat="46.06564243341853" lon="11.483797521973532"><ele>474.75</ele><time>2026-05-02T13:25:07.503Z</time></trkpt><trkpt lat="46.06553385445421" lon="11.483918845391347"><ele>472.5</ele><time>2026-05-02T13:25:08.503Z</time></trkpt><trkpt lat="46.06541910699946" lon="11.484036573230284"><ele>470.25</ele><time>2026-05-02T13:25:09.503Z</time></trkpt><trkpt lat="46.06530302914741" lon="11.484161107402462"><ele>468.0</ele><time>2026-05-02T13:25:10.503Z</time></trkpt><trkpt lat="46.06518730673056" lon="11.484289521768"><ele>468.0</ele><time>2026-05-02T13:25:11.503Z</time></trkpt><trkpt lat="46.065062449358315" lon="11.48442238896844"><ele>468.0</ele><time>2026-05-02T13:25:12.503Z</time></trkpt><trkpt lat="46.06493638486045" lon="11.4845582105758"><ele>468.0</ele><time>2026-05-02T13:25:13.503Z</time></trkpt><trkpt lat="46.06481360075748" lon="11.48469820945675"><ele>463.66666666666663</ele><time>2026-05-02T13:25:14.503Z</time></trkpt><trkpt lat="46.06468705841996" lon="11.484833091033511"><ele>459.3333333333333</ele><time>2026-05-02T13:25:15.503Z</time></trkpt><trkpt lat="46.06455115382715" lon="11.484958843537164"><ele>455.0</ele><time>2026-05-02T13:25:16.503Z</time></trkpt><trkpt lat="46.064421964461225" lon="11.485092767876447"><ele>455.0</ele><time>2026-05-02T13:25:17.503Z</time></trkpt><trkpt lat="46.06431881659708" lon="11.485237085107569"><ele>455.0</ele><time>2026-05-02T13:25:18.503Z</time></trkpt><trkpt lat="46.06418153953354" lon="11.485385382018046"><ele>455.0</ele><time>2026-05-02T13:25:19.503Z</time></trkpt><trkpt lat="46.06405023069397" lon="11.485567003305"><ele>451.0</ele><time>2026-05-02T13:25:20.503Z</time></trkpt><trkpt lat="46.06391878971628" lon="11.48579212450216"><ele>447.0</ele><time>2026-05-02T13:25:21.503Z</time></trkpt><trkpt lat="46.06377981712778" lon="11.486058080506627"><ele>443.0</ele><time>2026-05-02T13:25:22.503Z</time></trkpt><trkpt lat="46.06363482831343" lon="11.486348726387915"><ele>442.0</ele><time>2026-05-02T13:25:23.503Z</time></trkpt><trkpt lat="46.06349284899203" lon="11.486627077565045"><ele>441.0</ele><time>2026-05-02T13:25:24.503Z</time></trkpt><trkpt lat="46.06335606844481" lon="11.48688292986183"><ele>437.33333333333337</ele><time>2026-05-02T13:25:25.503Z</time></trkpt><trkpt lat="46.06322295769895" lon="11.487132907209142"><ele>433.6666666666667</ele><time>2026-05-02T13:25:26.503Z</time></trkpt><trkpt lat="46.06309457926984" lon="11.487374369534656"><ele>430.0</ele><time>2026-05-02T13:25:27.503Z</time></trkpt><trkpt lat="46.062967504355285" lon="11.48760412877187"><ele>430.0</ele><time>2026-05-02T13:25:28.503Z</time></trkpt><trkpt lat="46.06285057924327" lon="11.48783291929674"><ele>430.0</ele><time>2026-05-02T13:25:29.503Z</time></trkpt><trkpt lat="46.0627381317555" lon="11.488061985087239"><ele>430.0</ele><time>2026-05-02T13:25:30.503Z</time></trkpt><trkpt lat="46.06261938217741" lon="11.488285374341466"><ele>430.0</ele><time>2026-05-02T13:25:31.503Z</time></trkpt><trkpt lat="46.06250069988484" lon="11.488515029867822"><ele>430.0</ele><time>2026-05-02T13:25:32.503Z</time></trkpt><trkpt lat="46.06238118767731" lon="11.488743411715776"><ele>430.0</ele><time>2026-05-02T13:25:33.503Z</time></trkpt><trkpt lat="46.062262517293284" lon="11.488973148122474"><ele>427.33333333333337</ele><time>2026-05-02T13:25:34.503Z</time></trkpt><trkpt lat="46.06214883402629" lon="11.489196776319268"><ele>424.66666666666663</ele><time>2026-05-02T13:25:35.503Z</time></trkpt><trkpt lat="46.0620389385668" lon="11.489414543428001"><ele>422.0</ele><time>2026-05-02T13:25:36.503Z</time></trkpt><trkpt lat="46.061934910115" lon="11.489603029729555"><ele>421.0</ele><time>2026-05-02T13:25:37.503Z</time></trkpt><trkpt lat="46.06181744914725" lon="11.489769043945717"><ele>420.0</ele><time>2026-05-02T13:25:38.503Z</time></trkpt><trkpt lat="46.06169000663585" lon="11.489913026728768"><ele>419.0</ele><time>2026-05-02T13:25:39.503Z</time></trkpt><trkpt lat="46.061539315318484" lon="11.490027131178453"><ele>416.0</ele><time>2026-05-02T13:25:40.503Z</time></trkpt><trkpt lat="46.06137386154596" lon="11.49011324492106"><ele>413.0</ele><time>2026-05-02T13:25:41.503Z</time></trkpt><trkpt lat="46.06117853703041" lon="11.490179708892363"><ele>410.0</ele><time>2026-05-02T13:25:42.503Z</time></trkpt><trkpt lat="46.060954935757856" lon="11.490222499488826"><ele>408.3333333333333</ele><time>2026-05-02T13:25:43.503Z</time></trkpt><trkpt lat="46.06072768766881" lon="11.490253615089376"><ele>406.66666666666663</ele><time>2026-05-02T13:25:44.503Z</time></trkpt><trkpt lat="46.06050876789165" lon="11.49029254198984"><ele>405.0</ele><time>2026-05-02T13:25:45.503Z</time></trkpt><trkpt lat="46.060297491032074" lon="11.490333058507002"><ele>405.0</ele><time>2026-05-02T13:25:46.503Z</time></trkpt><trkpt lat="46.06009480377811" lon="11.49036892174715"><ele>405.0</ele><time>2026-05-02T13:25:47.503Z</time></trkpt><trkpt lat="46.05989324852584" lon="11.490402278371267"><ele>405.0</ele><time>2026-05-02T13:25:48.503Z</time></trkpt><trkpt lat="46.05969923606228" lon="11.490437230042772"><ele>402.33333333333337</ele><time>2026-05-02T13:25:49.503Z</time></trkpt><trkpt lat="46.05950887168785" lon="11.490475179891147"><ele>399.6666666666667</ele><time>2026-05-02T13:25:50.503Z</time></trkpt><trkpt lat="46.05932495374596" lon="11.49050661479886"><ele>397.0</ele><time>2026-05-02T13:25:51.503Z</time></trkpt><trkpt lat="46.059148625140836" lon="11.490531195940363"><ele>395.33333333333337</ele><time>2026-05-02T13:25:52.503Z</time></trkpt><trkpt lat="46.05898520465009" lon="11.490566350262421"><ele>393.66666666666663</ele><time>2026-05-02T13:25:53.503Z</time></trkpt><trkpt lat="46.058827820364726" lon="11.490603531560335"><ele>392.0</ele><time>2026-05-02T13:25:54.503Z</time></trkpt><trkpt lat="46.05866832098317" lon="11.490670501584404"><ele>392.0</ele><time>2026-05-02T13:25:55.503Z</time></trkpt><trkpt lat="46.0584976755361" lon="11.490786386582057"><ele>392.0</ele><time>2026-05-02T13:25:56.503Z</time></trkpt><trkpt lat="46.058318013391656" lon="11.490936381566165"><ele>392.0</ele><time>2026-05-02T13:25:57.503Z</time></trkpt><trkpt lat="46.05813852494831" lon="11.491133610053067"><ele>387.0</ele><time>2026-05-02T13:25:58.503Z</time></trkpt><trkpt lat="46.05793329341733" lon="11.491325676976226"><ele>382.0</ele><time>2026-05-02T13:25:59.503Z</time></trkpt><trkpt lat="46.057743505464664" lon="11.491518597141214"><ele>382.0</ele><time>2026-05-02T13:26:00.503Z</time></trkpt><trkpt lat="46.05756387696945" lon="11.491702924612"><ele>382.0</ele><time>2026-05-02T13:26:01.503Z</time></trkpt><trkpt lat="46.057402287319874" lon="11.491896493874025"><ele>382.0</ele><time>2026-05-02T13:26:02.503Z</time></trkpt><trkpt lat="46.057225520355246" lon="11.492054213683756"><ele>380.66666666666663</ele><time>2026-05-02T13:26:03.503Z</time></trkpt><trkpt lat="46.05705739472587" lon="11.49221851818527"><ele>379.3333333333333</ele><time>2026-05-02T13:26:04.503Z</time></trkpt><trkpt lat="46.05688591177918" lon="11.492395382571898"><ele>378.0</ele><time>2026-05-02T13:26:05.503Z</time></trkpt><trkpt lat="46.056708791579446" lon="11.492575482531358"><ele>376.3333333333333</ele><time>2026-05-02T13:26:06.503Z</time></trkpt><trkpt lat="46.056543256205984" lon="11.492744765431663"><ele>374.66666666666663</ele><time>2026-05-02T13:26:07.503Z</time></trkpt><trkpt lat="46.05637001883377" lon="11.492890446640791"><ele>373.0</ele><time>2026-05-02T13:26:08.503Z</time></trkpt><trkpt lat="46.05618890868856" lon="11.493022842470896"><ele>372.0</ele><time>2026-05-02T13:26:09.503Z</time></trkpt><trkpt lat="46.05598207826553" lon="11.493095180308691"><ele>371.0</ele><time>2026-05-02T13:26:10.503Z</time></trkpt><trkpt lat="46.05577063070676" lon="11.493183824985545"><ele>370.0</ele><time>2026-05-02T13:26:11.503Z</time></trkpt><trkpt lat="46.05555622848035" lon="11.493286566107315"><ele>369.0</ele><time>2026-05-02T13:26:12.503Z</time></trkpt><trkpt lat="46.05533812308" lon="11.493372341910788"><ele>368.0</ele><time>2026-05-02T13:26:13.503Z</time></trkpt><trkpt lat="46.05513072282971" lon="11.493460135386169"><ele>367.0</ele><time>2026-05-02T13:26:14.503Z</time></trkpt><trkpt lat="46.05493750313869" lon="11.49353438974001"><ele>365.3333333333333</ele><time>2026-05-02T13:26:15.503Z</time></trkpt><trkpt lat="46.054779829945694" lon="11.493608875782218"><ele>363.6666666666667</ele><time>2026-05-02T13:26:16.503Z</time></trkpt><trkpt lat="46.05463842457946" lon="11.493661312634032"><ele>362.0</ele><time>2026-05-02T13:26:17.503Z</time></trkpt><trkpt lat="46.05449237823387" lon="11.49371496196082"><ele>361.5</ele><time>2026-05-02T13:26:18.503Z</time></trkpt><trkpt lat="46.05434831489104" lon="11.49375828134306"><ele>361.0</ele><time>2026-05-02T13:26:19.503Z</time></trkpt><trkpt lat="46.05420455856686" lon="11.49378394808348"><ele>360.5</ele><time>2026-05-02T13:26:20.503Z</time></trkpt><trkpt lat="46.054053914633286" lon="11.493799749166891"><ele>360.0</ele><time>2026-05-02T13:26:21.503Z</time></trkpt><trkpt lat="46.053918620477575" lon="11.493837480141922"><ele>359.5</ele><time>2026-05-02T13:26:22.503Z</time></trkpt><trkpt lat="46.053768264835355" lon="11.493846258557777"><ele>359.0</ele><time>2026-05-02T13:26:23.503Z</time></trkpt><trkpt lat="46.05363231728742" lon="11.493865824819567"><ele>358.5</ele><time>2026-05-02T13:26:24.503Z</time></trkpt><trkpt lat="46.053504818771266" lon="11.493882673357264"><ele>358.0</ele><time>2026-05-02T13:26:25.503Z</time></trkpt><trkpt lat="46.05340159108482" lon="11.493896309200121"><ele>358.0</ele><time>2026-05-02T13:26:26.503Z</time></trkpt><trkpt lat="46.053297913511415" lon="11.49390668954536"><ele>358.0</ele><time>2026-05-02T13:26:27.503Z</time></trkpt><trkpt lat="46.05320979347087" lon="11.493912512113644"><ele>358.0</ele><time>2026-05-02T13:26:28.503Z</time></trkpt><trkpt lat="46.0531292654035" lon="11.493922803627582"><ele>358.0</ele><time>2026-05-02T13:26:29.503Z</time></trkpt><trkpt lat="46.05301882554321" lon="11.493945481040416"><ele>358.0</ele><time>2026-05-02T13:26:31.503Z</time></trkpt><trkpt lat="46.05292450299606" lon="11.493957811457872"><ele>357.8571428571429</ele><time>2026-05-02T13:26:33.503Z</time></trkpt><trkpt lat="46.05285970127482" lon="11.493969944381844"><ele>357.7142857142857</ele><time>2026-05-02T13:26:35.503Z</time></trkpt><trkpt lat="46.052792106304395" lon="11.493983818273943"><ele>357.57142857142856</ele><time>2026-05-02T13:26:38.503Z</time></trkpt><trkpt lat="46.052720822707165" lon="11.494000760020448"><ele>357.42857142857144</ele><time>2026-05-02T13:26:40.503Z</time></trkpt><trkpt lat="46.05263923322795" lon="11.494012647819225"><ele>357.2857142857143</ele><time>2026-05-02T13:26:42.503Z</time></trkpt><trkpt lat="46.05255427752141" lon="11.494063538455364"><ele>357.14285714285717</ele><time>2026-05-02T13:26:44.503Z</time></trkpt><trkpt lat="46.05250562124672" lon="11.494126872745959"><ele>357.0</ele><time>2026-05-02T13:26:45.503Z</time></trkpt><trkpt lat="46.05243416083371" lon="11.494223225045824"><ele>356.25</ele><time>2026-05-02T13:26:47.503Z</time></trkpt><trkpt lat="46.05236249057101" lon="11.494243394726656"><ele>355.5</ele><time>2026-05-02T13:26:49.503Z</time></trkpt><trkpt lat="46.05224736665697" lon="11.494244722106247"><ele>354.75</ele><time>2026-05-02T13:26:51.503Z</time></trkpt><trkpt lat="46.05212398552342" lon="11.494212136817795"><ele>354.0</ele><time>2026-05-02T13:26:53.503Z</time></trkpt><trkpt lat="46.05199149738408" lon="11.494137878816076"><ele>354.0</ele><time>2026-05-02T13:26:55.503Z</time></trkpt><trkpt lat="46.051907332159665" lon="11.494082836703132"><ele>354.0</ele><time>2026-05-02T13:26:56.503Z</time></trkpt><trkpt lat="46.05179613836571" lon="11.494002809340317"><ele>354.0</ele><time>2026-05-02T13:26:57.503Z</time></trkpt><trkpt lat="46.05170619375319" lon="11.493902627707245"><ele>354.0</ele><time>2026-05-02T13:26:58.503Z</time></trkpt><trkpt lat="46.05158866171992" lon="11.493791133019716"><ele>353.6</ele><time>2026-05-02T13:26:59.503Z</time></trkpt><trkpt lat="46.0514544785509" lon="11.493721792873124"><ele>353.2</ele><time>2026-05-02T13:27:00.503Z</time></trkpt><trkpt lat="46.05135153277633" lon="11.493696257703274"><ele>352.8</ele><time>2026-05-02T13:27:01.503Z</time></trkpt><trkpt lat="46.05128011220288" lon="11.493681889795074"><ele>352.40000000000003</ele><time>2026-05-02T13:27:02.503Z</time></trkpt><trkpt lat="46.05121085525512" lon="11.493636472189454"><ele>352.0</ele><time>2026-05-02T13:27:03.503Z</time></trkpt><trkpt lat="46.05112798596889" lon="11.49361872022751"><ele>352.0</ele><time>2026-05-02T13:27:05.503Z</time></trkpt><trkpt lat="46.0512592069991" lon="11.493444380962325"><ele>352.0</ele><time>2026-05-02T13:27:06.503Z</time></trkpt><trkpt lat="46.051279657522095" lon="11.49334207213897"><ele>352.0</ele><time>2026-05-02T13:27:07.503Z</time></trkpt><trkpt lat="46.05127621510079" lon="11.493238342414266"><ele>352.0</ele><time>2026-05-02T13:27:09.503Z</time></trkpt><trkpt lat="46.05126574973573" lon="11.493129823271392"><ele>352.0</ele><time>2026-05-02T13:27:10.503Z</time></trkpt><trkpt lat="46.05124589568052" lon="11.492957170901393"><ele>351.75</ele><time>2026-05-02T13:27:11.503Z</time></trkpt><trkpt lat="46.0512161742083" lon="11.492747732028402"><ele>351.5</ele><time>2026-05-02T13:27:12.503Z</time></trkpt><trkpt lat="46.05118953779272" lon="11.492558796431325"><ele>351.25</ele><time>2026-05-02T13:27:13.503Z</time></trkpt><trkpt lat="46.05116824329805" lon="11.492352233475646"><ele>351.0</ele><time>2026-05-02T13:27:14.503Z</time></trkpt><trkpt lat="46.05117554206075" lon="11.49203333939003"><ele>350.6666666666667</ele><time>2026-05-02T13:27:15.503Z</time></trkpt><trkpt lat="46.051177721369434" lon="11.49171328629852"><ele>350.33333333333337</ele><time>2026-05-02T13:27:16.503Z</time></trkpt><trkpt lat="46.051182424569554" lon="11.491397009452516"><ele>350.0</ele><time>2026-05-02T13:27:17.503Z</time></trkpt><trkpt lat="46.051230100554314" lon="11.491054443184803"><ele>351.0</ele><time>2026-05-02T13:27:18.503Z</time></trkpt><trkpt lat="46.05125654076563" lon="11.490583216201188"><ele>352.0</ele><time>2026-05-02T13:27:19.503Z</time></trkpt><trkpt lat="46.05127700571459" lon="11.490192395317663"><ele>352.5</ele><time>2026-05-02T13:27:20.503Z</time></trkpt><trkpt lat="46.05130703444078" lon="11.489805359742538"><ele>353.0</ele><time>2026-05-02T13:27:21.503Z</time></trkpt><trkpt lat="46.051328106230685" lon="11.489448067039039"><ele>353.0</ele><time>2026-05-02T13:27:22.503Z</time></trkpt><trkpt lat="46.05134593004838" lon="11.489070115300153"><ele>353.0</ele><time>2026-05-02T13:27:23.503Z</time></trkpt><trkpt lat="46.05135439330032" lon="11.488669264579892"><ele>353.0</ele><time>2026-05-02T13:27:24.503Z</time></trkpt><trkpt lat="46.05135640341965" lon="11.488296388630358"><ele>353.0</ele><time>2026-05-02T13:27:25.503Z</time></trkpt><trkpt lat="46.051350394262705" lon="11.487929701358262"><ele>352.5</ele><time>2026-05-02T13:27:26.503Z</time></trkpt><trkpt lat="46.05132891612435" lon="11.487540542086032"><ele>352.0</ele><time>2026-05-02T13:27:27.503Z</time></trkpt><trkpt lat="46.051304804998935" lon="11.487154320186221"><ele>353.0</ele><time>2026-05-02T13:27:28.503Z</time></trkpt><trkpt lat="46.05127614897716" lon="11.486799751666727"><ele>354.0</ele><time>2026-05-02T13:27:29.503Z</time></trkpt><trkpt lat="46.05125087567593" lon="11.486439386782546"><ele>355.5</ele><time>2026-05-02T13:27:30.503Z</time></trkpt><trkpt lat="46.05122762257696" lon="11.486066328959687"><ele>357.0</ele><time>2026-05-02T13:27:31.503Z</time></trkpt><trkpt lat="46.05119756155093" lon="11.485668569801298"><ele>358.5</ele><time>2026-05-02T13:27:32.503Z</time></trkpt><trkpt lat="46.05116463038233" lon="11.485268320107322"><ele>360.0</ele><time>2026-05-02T13:27:33.503Z</time></trkpt><trkpt lat="46.05113166015585" lon="11.484898734953592"><ele>360.0</ele><time>2026-05-02T13:27:34.503Z</time></trkpt><trkpt lat="46.05110579050161" lon="11.484547464379894"><ele>360.0</ele><time>2026-05-02T13:27:35.503Z</time></trkpt><trkpt lat="46.05108115738851" lon="11.484190848797551"><ele>360.0</ele><time>2026-05-02T13:27:36.503Z</time></trkpt><trkpt lat="46.05104530354207" lon="11.483807181262529"><ele>360.0</ele><time>2026-05-02T13:27:37.503Z</time></trkpt><trkpt lat="46.05101495017348" lon="11.483444368904895"><ele>359.5</ele><time>2026-05-02T13:27:38.503Z</time></trkpt><trkpt lat="46.05098675603354" lon="11.483096950454877"><ele>359.0</ele><time>2026-05-02T13:27:39.503Z</time></trkpt><trkpt lat="46.0509628923142" lon="11.4827335692063"><ele>360.5</ele><time>2026-05-02T13:27:40.503Z</time></trkpt><trkpt lat="46.05093681250801" lon="11.482378555258997"><ele>362.0</ele><time>2026-05-02T13:27:41.503Z</time></trkpt><trkpt lat="46.05090212051134" lon="11.48202739720977"><ele>362.5</ele><time>2026-05-02T13:27:42.503Z</time></trkpt><trkpt lat="46.05085436136212" lon="11.481678237364562"><ele>363.0</ele><time>2026-05-02T13:27:43.503Z</time></trkpt><trkpt lat="46.05080341984701" lon="11.481325623928946"><ele>363.0</ele><time>2026-05-02T13:27:44.503Z</time></trkpt><trkpt lat="46.05074448030049" lon="11.480974344200773"><ele>363.0</ele><time>2026-05-02T13:27:45.503Z</time></trkpt><trkpt lat="46.05068227658281" lon="11.480618932790662"><ele>363.0</ele><time>2026-05-02T13:27:46.503Z</time></trkpt><trkpt lat="46.05060342578147" lon="11.480259252336"><ele>363.0</ele><time>2026-05-02T13:27:47.503Z</time></trkpt><trkpt lat="46.050524826528694" lon="11.479895927493457"><ele>364.0</ele><time>2026-05-02T13:27:48.503Z</time></trkpt><trkpt lat="46.05043529154091" lon="11.479552235811227"><ele>365.0</ele><time>2026-05-02T13:27:49.503Z</time></trkpt><trkpt lat="46.05034390557298" lon="11.47921108540559"><ele>365.0</ele><time>2026-05-02T13:27:50.503Z</time></trkpt><trkpt lat="46.05023891929644" lon="11.478875217195807"><ele>365.0</ele><time>2026-05-02T13:27:51.503Z</time></trkpt><trkpt lat="46.0501306558701" lon="11.478536039623814"><ele>366.0</ele><time>2026-05-02T13:27:52.503Z</time></trkpt><trkpt lat="46.049998626104774" lon="11.478200419141777"><ele>367.0</ele><time>2026-05-02T13:27:53.503Z</time></trkpt><trkpt lat="46.049860120174756" lon="11.477847848409882"><ele>370.5</ele><time>2026-05-02T13:27:54.503Z</time></trkpt><trkpt lat="46.04970757118385" lon="11.477489080694202"><ele>374.0</ele><time>2026-05-02T13:27:55.503Z</time></trkpt><trkpt lat="46.04955463456296" lon="11.47711878756404"><ele>374.0</ele><time>2026-05-02T13:27:56.503Z</time></trkpt><trkpt lat="46.04940007279876" lon="11.476732977900875"><ele>374.0</ele><time>2026-05-02T13:27:57.503Z</time></trkpt><trkpt lat="46.04924178967973" lon="11.476336923750408"><ele>379.0</ele><time>2026-05-02T13:27:58.503Z</time></trkpt><trkpt lat="46.04908834338044" lon="11.4759315736676"><ele>384.0</ele><time>2026-05-02T13:27:59.503Z</time></trkpt><trkpt lat="46.04892437188064" lon="11.475519900002674"><ele>383.5</ele><time>2026-05-02T13:28:00.503Z</time></trkpt><trkpt lat="46.04876522261685" lon="11.475099345215035"><ele>383.0</ele><time>2026-05-02T13:28:01.503Z</time></trkpt><trkpt lat="46.04860600721403" lon="11.474676604611481"><ele>382.5</ele><time>2026-05-02T13:28:02.503Z</time></trkpt><trkpt lat="46.04844593133656" lon="11.474264688473985"><ele>382.0</ele><time>2026-05-02T13:28:03.503Z</time></trkpt><trkpt lat="46.04828756516031" lon="11.47387773495461"><ele>388.0</ele><time>2026-05-02T13:28:04.503Z</time></trkpt><trkpt lat="46.04814766984351" lon="11.473526721495842"><ele>394.0</ele><time>2026-05-02T13:28:05.503Z</time></trkpt><trkpt lat="46.048015878031066" lon="11.473202187866333"><ele>393.0</ele><time>2026-05-02T13:28:06.503Z</time></trkpt><trkpt lat="46.04789761290319" lon="11.472885224974158"><ele>392.0</ele><time>2026-05-02T13:28:07.503Z</time></trkpt><trkpt lat="46.047762929089586" lon="11.472572090927068"><ele>392.0</ele><time>2026-05-02T13:28:08.503Z</time></trkpt><trkpt lat="46.04763936891836" lon="11.472246977404488"><ele>392.0</ele><time>2026-05-02T13:28:09.503Z</time></trkpt><trkpt lat="46.047511698225826" lon="11.47191935214184"><ele>396.0</ele><time>2026-05-02T13:28:10.503Z</time></trkpt><trkpt lat="46.047377791274634" lon="11.471579394836615"><ele>400.0</ele><time>2026-05-02T13:28:11.503Z</time></trkpt><trkpt lat="46.04724120141692" lon="11.471231317098903"><ele>400.0</ele><time>2026-05-02T13:28:12.503Z</time></trkpt><trkpt lat="46.04710065991048" lon="11.47086968639832"><ele>400.0</ele><time>2026-05-02T13:28:13.503Z</time></trkpt><trkpt lat="46.04695558994001" lon="11.470514967046666"><ele>400.0</ele><time>2026-05-02T13:28:14.503Z</time></trkpt><trkpt lat="46.04681595017792" lon="11.470178460148947"><ele>400.0</ele><time>2026-05-02T13:28:15.503Z</time></trkpt><trkpt lat="46.04668562346206" lon="11.469863814007745"><ele>404.5</ele><time>2026-05-02T13:28:16.503Z</time></trkpt><trkpt lat="46.04656334139514" lon="11.469552025202386"><ele>409.0</ele><time>2026-05-02T13:28:17.503Z</time></trkpt><trkpt lat="46.0464408889594" lon="11.469244041458555"><ele>409.0</ele><time>2026-05-02T13:28:18.503Z</time></trkpt><trkpt lat="46.04632303251252" lon="11.468936819362582"><ele>409.0</ele><time>2026-05-02T13:28:19.503Z</time></trkpt><trkpt lat="46.04620084753364" lon="11.468621435630814"><ele>408.0</ele><time>2026-05-02T13:28:20.503Z</time></trkpt><trkpt lat="46.046067877567246" lon="11.46830278619482"><ele>407.0</ele><time>2026-05-02T13:28:21.503Z</time></trkpt><trkpt lat="46.04593435730719" lon="11.467978999794575"><ele>406.0</ele><time>2026-05-02T13:28:22.503Z</time></trkpt><trkpt lat="46.04580273311138" lon="11.467661244315961"><ele>405.0</ele><time>2026-05-02T13:28:23.503Z</time></trkpt><trkpt lat="46.04568443698108" lon="11.467357211052947"><ele>407.0</ele><time>2026-05-02T13:28:24.503Z</time></trkpt><trkpt lat="46.045567505763344" lon="11.467052876666806"><ele>409.0</ele><time>2026-05-02T13:28:25.503Z</time></trkpt><trkpt lat="46.04546348699954" lon="11.466726442147406"><ele>409.0</ele><time>2026-05-02T13:28:26.503Z</time></trkpt><trkpt lat="46.04536877056293" lon="11.46636524878667"><ele>409.0</ele><time>2026-05-02T13:28:27.503Z</time></trkpt><trkpt lat="46.04528459269231" lon="11.466006711848415"><ele>409.0</ele><time>2026-05-02T13:28:28.503Z</time></trkpt><trkpt lat="46.045215451935796" lon="11.465635708086523"><ele>409.0</ele><time>2026-05-02T13:28:29.503Z</time></trkpt><trkpt lat="46.04516220333766" lon="11.46525297936598"><ele>409.0</ele><time>2026-05-02T13:28:30.503Z</time></trkpt><trkpt lat="46.04512081857824" lon="11.464860335288979"><ele>409.0</ele><time>2026-05-02T13:28:31.503Z</time></trkpt><trkpt lat="46.045091990481055" lon="11.46446981362783"><ele>408.5</ele><time>2026-05-02T13:28:32.503Z</time></trkpt><trkpt lat="46.04507978802236" lon="11.46408577712675"><ele>408.0</ele><time>2026-05-02T13:28:33.503Z</time></trkpt><trkpt lat="46.045076149083506" lon="11.463708612110288"><ele>409.5</ele><time>2026-05-02T13:28:34.503Z</time></trkpt><trkpt lat="46.04508465840916" lon="11.463337866293609"><ele>411.0</ele><time>2026-05-02T13:28:35.503Z</time></trkpt><trkpt lat="46.045102142459434" lon="11.462987385853532"><ele>413.5</ele><time>2026-05-02T13:28:36.503Z</time></trkpt><trkpt lat="46.04512756122183" lon="11.462645116800141"><ele>416.0</ele><time>2026-05-02T13:28:37.503Z</time></trkpt><trkpt lat="46.04515838416343" lon="11.462286735417521"><ele>417.0</ele><time>2026-05-02T13:28:38.519Z</time></trkpt><trkpt lat="46.04518838297227" lon="11.461922536355411"><ele>418.0</ele><time>2026-05-02T13:28:39.519Z</time></trkpt><trkpt lat="46.045229144145125" lon="11.461551694838418"><ele>419.0</ele><time>2026-05-02T13:28:40.513Z</time></trkpt><trkpt lat="46.04526410065414" lon="11.461178816793467"><ele>420.0</ele><time>2026-05-02T13:28:41.519Z</time></trkpt><trkpt lat="46.04530112957121" lon="11.460809008058575"><ele>423.0</ele><time>2026-05-02T13:28:42.517Z</time></trkpt><trkpt lat="46.04545047510978" lon="11.459019435580316"><ele>434.5</ele><time>2026-05-02T13:28:47.503Z</time></trkpt><trkpt lat="46.045498601121636" lon="11.458606081279605"><ele>446.0</ele><time>2026-05-02T13:28:48.503Z</time></trkpt><trkpt lat="46.04567697441485" lon="11.458159456618553"><ele>457.0</ele><time>2026-05-02T13:28:49.503Z</time></trkpt><trkpt lat="46.045716713268945" lon="11.457737205646476"><ele>468.0</ele><time>2026-05-02T13:28:50.503Z</time></trkpt><trkpt lat="46.04576053496691" lon="11.457369241018013"><ele>478.0</ele><time>2026-05-02T13:28:51.503Z</time></trkpt><trkpt lat="46.04578777032991" lon="11.457012607713361"><ele>488.0</ele><time>2026-05-02T13:28:52.503Z</time></trkpt><trkpt lat="46.04579887699361" lon="11.456632430285872"><ele>463.5</ele><time>2026-05-02T13:28:53.503Z</time></trkpt><trkpt lat="46.04581594936207" lon="11.456275991288885"><ele>439.0</ele><time>2026-05-02T13:28:54.503Z</time></trkpt><trkpt lat="46.045830111718125" lon="11.455912509702143"><ele>439.0</ele><time>2026-05-02T13:28:55.503Z</time></trkpt><trkpt lat="46.04584570259994" lon="11.455550535206992"><ele>439.0</ele><time>2026-05-02T13:28:56.503Z</time></trkpt><trkpt lat="46.04586603419504" lon="11.455184940265932"><ele>453.0</ele><time>2026-05-02T13:28:57.519Z</time></trkpt><trkpt lat="46.0458848825085" lon="11.454824997026957"><ele>467.0</ele><time>2026-05-02T13:28:58.518Z</time></trkpt><trkpt lat="46.045916662400984" lon="11.454476750788087"><ele>468.0</ele><time>2026-05-02T13:28:59.515Z</time></trkpt><trkpt lat="46.045953640236625" lon="11.454126787262876"><ele>469.0</ele><time>2026-05-02T13:29:00.518Z</time></trkpt><trkpt lat="46.04659390168932" lon="11.450949738245145"><ele>422.0</ele><time>2026-05-02T13:29:11.961Z</time></trkpt><trkpt lat="46.04663513139453" lon="11.449596667672926"><ele>422.0</ele><time>2026-05-02T13:29:12.503Z</time></trkpt><trkpt lat="46.046693670621885" lon="11.449222288343856"><ele>422.0</ele><time>2026-05-02T13:29:13.503Z</time></trkpt><trkpt lat="46.046763461106075" lon="11.448884941582016"><ele>423.0</ele><time>2026-05-02T13:29:14.503Z</time></trkpt><trkpt lat="46.046817677678895" lon="11.448517095919346"><ele>424.0</ele><time>2026-05-02T13:29:15.503Z</time></trkpt><trkpt lat="46.04688458109359" lon="11.44816571440389"><ele>426.0</ele><time>2026-05-02T13:29:16.503Z</time></trkpt><trkpt lat="46.04688485551356" lon="11.447813114630698"><ele>428.0</ele><time>2026-05-02T13:29:17.503Z</time></trkpt><trkpt lat="46.046871456059236" lon="11.447503957685457"><ele>428.0</ele><time>2026-05-02T13:29:18.503Z</time></trkpt><trkpt lat="46.04687859104833" lon="11.44715875618963"><ele>428.0</ele><time>2026-05-02T13:29:19.503Z</time></trkpt><trkpt lat="46.04687446588938" lon="11.446813634094452"><ele>427.0</ele><time>2026-05-02T13:29:20.503Z</time></trkpt><trkpt lat="46.04686669285192" lon="11.4464683018864"><ele>426.0</ele><time>2026-05-02T13:29:21.503Z</time></trkpt><trkpt lat="46.046847756709866" lon="11.446099606716146"><ele>426.0</ele><time>2026-05-02T13:29:22.503Z</time></trkpt><trkpt lat="46.046816571691615" lon="11.445721473356649"><ele>426.0</ele><time>2026-05-02T13:29:23.503Z</time></trkpt><trkpt lat="46.04678590016096" lon="11.445315336910808"><ele>426.0</ele><time>2026-05-02T13:29:24.503Z</time></trkpt><trkpt lat="46.04674451245328" lon="11.444906202914437"><ele>426.0</ele><time>2026-05-02T13:29:25.503Z</time></trkpt><trkpt lat="46.04669523818536" lon="11.444501031826508"><ele>426.0</ele><time>2026-05-02T13:29:26.503Z</time></trkpt><trkpt lat="46.04665012395241" lon="11.444090338421066"><ele>426.0</ele><time>2026-05-02T13:29:27.503Z</time></trkpt><trkpt lat="46.046609451506725" lon="11.443679923512699"><ele>431.5</ele><time>2026-05-02T13:29:28.503Z</time></trkpt><trkpt lat="46.04657167595524" lon="11.443284954543353"><ele>437.0</ele><time>2026-05-02T13:29:29.503Z</time></trkpt><trkpt lat="46.04653454448585" lon="11.44290902734965"><ele>437.0</ele><time>2026-05-02T13:29:30.503Z</time></trkpt><trkpt lat="46.04649719150266" lon="11.44252345557259"><ele>437.0</ele><time>2026-05-02T13:29:31.503Z</time></trkpt><trkpt lat="46.04645689181609" lon="11.442140359065371"><ele>434.5</ele><time>2026-05-02T13:29:32.503Z</time></trkpt><trkpt lat="46.04642134116346" lon="11.441765673961036"><ele>432.0</ele><time>2026-05-02T13:29:33.503Z</time></trkpt><trkpt lat="46.0463824952219" lon="11.441380001602232"><ele>429.0</ele><time>2026-05-02T13:29:34.503Z</time></trkpt><trkpt lat="46.04634091911117" lon="11.440994059463783"><ele>426.0</ele><time>2026-05-02T13:29:35.503Z</time></trkpt><trkpt lat="46.04630391410553" lon="11.440609573428862"><ele>425.0</ele><time>2026-05-02T13:29:36.503Z</time></trkpt><trkpt lat="46.04626604009242" lon="11.440235371376383"><ele>424.0</ele><time>2026-05-02T13:29:37.503Z</time></trkpt><trkpt lat="46.04622907317959" lon="11.43986514033913"><ele>421.0</ele><time>2026-05-02T13:29:38.503Z</time></trkpt><trkpt lat="46.04620613416192" lon="11.439475683606174"><ele>418.0</ele><time>2026-05-02T13:29:39.503Z</time></trkpt><trkpt lat="46.04615637042692" lon="11.439082815678715"><ele>415.5</ele><time>2026-05-02T13:29:40.503Z</time></trkpt><trkpt lat="46.04611892179697" lon="11.43865817663957"><ele>413.0</ele><time>2026-05-02T13:29:41.503Z</time></trkpt><trkpt lat="46.04607563711908" lon="11.438243572735534"><ele>410.5</ele><time>2026-05-02T13:29:42.503Z</time></trkpt><trkpt lat="46.046041848587805" lon="11.437845274413116"><ele>408.0</ele><time>2026-05-02T13:29:43.503Z</time></trkpt><trkpt lat="46.04601544225872" lon="11.437456059315647"><ele>405.0</ele><time>2026-05-02T13:29:44.503Z</time></trkpt><trkpt lat="46.04598669850457" lon="11.437073973709799"><ele>402.0</ele><time>2026-05-02T13:29:45.503Z</time></trkpt><trkpt lat="46.0459767941176" lon="11.43667301099013"><ele>401.5</ele><time>2026-05-02T13:29:46.503Z</time></trkpt><trkpt lat="46.0459750582159" lon="11.436270925304477"><ele>401.0</ele><time>2026-05-02T13:29:47.503Z</time></trkpt><trkpt lat="46.04598010357956" lon="11.435873510134176"><ele>401.0</ele><time>2026-05-02T13:29:48.503Z</time></trkpt><trkpt lat="46.04600007346076" lon="11.435496584232745"><ele>401.0</ele><time>2026-05-02T13:29:49.503Z</time></trkpt><trkpt lat="46.04603304577312" lon="11.4351180418876"><ele>400.0</ele><time>2026-05-02T13:29:50.503Z</time></trkpt><trkpt lat="46.04606925110971" lon="11.434732504020053"><ele>399.0</ele><time>2026-05-02T13:29:51.503Z</time></trkpt><trkpt lat="46.046113686810244" lon="11.434328753418658"><ele>397.5</ele><time>2026-05-02T13:29:52.503Z</time></trkpt><trkpt lat="46.046171278380605" lon="11.433907381802959"><ele>396.0</ele><time>2026-05-02T13:29:53.503Z</time></trkpt><trkpt lat="46.04622822093187" lon="11.433468620588524"><ele>396.0</ele><time>2026-05-02T13:29:54.503Z</time></trkpt><trkpt lat="46.046284045913595" lon="11.433023052611468"><ele>396.0</ele><time>2026-05-02T13:29:55.503Z</time></trkpt><trkpt lat="46.046341349573744" lon="11.432587123302323"><ele>396.5</ele><time>2026-05-02T13:29:56.503Z</time></trkpt><trkpt lat="46.046394710635724" lon="11.432177184918881"><ele>397.0</ele><time>2026-05-02T13:29:57.503Z</time></trkpt><trkpt lat="46.04644093925293" lon="11.431799198478537"><ele>397.0</ele><time>2026-05-02T13:29:58.503Z</time></trkpt><trkpt lat="46.04649283148716" lon="11.431451118817906"><ele>397.0</ele><time>2026-05-02T13:29:59.503Z</time></trkpt><trkpt lat="46.04653668885528" lon="11.431121779265712"><ele>394.5</ele><time>2026-05-02T13:30:00.503Z</time></trkpt><trkpt lat="46.046577683625806" lon="11.430792177042122"><ele>392.0</ele><time>2026-05-02T13:30:01.503Z</time></trkpt><trkpt lat="46.04661236080924" lon="11.430464365824296"><ele>392.5</ele><time>2026-05-02T13:30:02.503Z</time></trkpt><trkpt lat="46.04663069601259" lon="11.430144896181597"><ele>393.0</ele><time>2026-05-02T13:30:03.503Z</time></trkpt><trkpt lat="46.04665045681899" lon="11.429794132677817"><ele>394.0</ele><time>2026-05-02T13:30:04.503Z</time></trkpt><trkpt lat="46.046657064972116" lon="11.429439889071675"><ele>395.0</ele><time>2026-05-02T13:30:05.503Z</time></trkpt><trkpt lat="46.04664772759272" lon="11.429092928256306"><ele>394.5</ele><time>2026-05-02T13:30:06.503Z</time></trkpt><trkpt lat="46.04663609299338" lon="11.428754114137385"><ele>394.0</ele><time>2026-05-02T13:30:07.503Z</time></trkpt><trkpt lat="46.04661397285577" lon="11.428410138527136"><ele>394.0</ele><time>2026-05-02T13:30:08.503Z</time></trkpt><trkpt lat="46.04657680019107" lon="11.428058682235342"><ele>394.0</ele><time>2026-05-02T13:30:09.503Z</time></trkpt><trkpt lat="46.0465292565072" lon="11.427691831838086"><ele>394.5</ele><time>2026-05-02T13:30:10.503Z</time></trkpt><trkpt lat="46.04646508704835" lon="11.427330587686473"><ele>395.0</ele><time>2026-05-02T13:30:11.503Z</time></trkpt><trkpt lat="46.04638720421856" lon="11.426977632666272"><ele>395.0</ele><time>2026-05-02T13:30:12.503Z</time></trkpt><trkpt lat="46.046301548514435" lon="11.426637583022657"><ele>395.0</ele><time>2026-05-02T13:30:13.503Z</time></trkpt><trkpt lat="46.04621130420368" lon="11.42632107384716"><ele>396.5</ele><time>2026-05-02T13:30:14.503Z</time></trkpt><trkpt lat="46.04611199600016" lon="11.426008458157979"><ele>398.0</ele><time>2026-05-02T13:30:15.503Z</time></trkpt><trkpt lat="46.04599498654985" lon="11.425691711695762"><ele>398.0</ele><time>2026-05-02T13:30:16.503Z</time></trkpt><trkpt lat="46.045853879427256" lon="11.425368860813204"><ele>398.0</ele><time>2026-05-02T13:30:17.503Z</time></trkpt><trkpt lat="46.04569272916954" lon="11.42503863341621"><ele>397.5</ele><time>2026-05-02T13:30:18.503Z</time></trkpt><trkpt lat="46.04552774642467" lon="11.424694715769705"><ele>397.0</ele><time>2026-05-02T13:30:19.503Z</time></trkpt><trkpt lat="46.04535370438913" lon="11.424335450132766"><ele>398.5</ele><time>2026-05-02T13:30:20.503Z</time></trkpt><trkpt lat="46.045177325607575" lon="11.423967959528083"><ele>400.0</ele><time>2026-05-02T13:30:21.503Z</time></trkpt><trkpt lat="46.04499835004874" lon="11.423629423440733"><ele>399.5</ele><time>2026-05-02T13:30:22.503Z</time></trkpt><trkpt lat="46.04480712455008" lon="11.423285189821414"><ele>399.0</ele><time>2026-05-02T13:30:23.503Z</time></trkpt><trkpt lat="46.04462574183247" lon="11.422968472669075"><ele>400.5</ele><time>2026-05-02T13:30:24.503Z</time></trkpt><trkpt lat="46.04445470199171" lon="11.422651622156621"><ele>402.0</ele><time>2026-05-02T13:30:25.503Z</time></trkpt><trkpt lat="46.04428398336323" lon="11.42232223443446"><ele>401.5</ele><time>2026-05-02T13:30:26.503Z</time></trkpt><trkpt lat="46.044111161699234" lon="11.421985707576145"><ele>401.0</ele><time>2026-05-02T13:30:27.503Z</time></trkpt><trkpt lat="46.04393445132488" lon="11.421648034324932"><ele>401.0</ele><time>2026-05-02T13:30:28.503Z</time></trkpt><trkpt lat="46.04376299206374" lon="11.421318560014777"><ele>401.0</ele><time>2026-05-02T13:30:29.503Z</time></trkpt><trkpt lat="46.043599993682044" lon="11.420960190264168"><ele>402.0</ele><time>2026-05-02T13:30:30.503Z</time></trkpt><trkpt lat="46.04342590310677" lon="11.420608442776805"><ele>403.0</ele><time>2026-05-02T13:30:31.503Z</time></trkpt><trkpt lat="46.04324554757776" lon="11.420260754186847"><ele>403.5</ele><time>2026-05-02T13:30:32.503Z</time></trkpt><trkpt lat="46.04307006069646" lon="11.419933851944705"><ele>404.0</ele><time>2026-05-02T13:30:33.503Z</time></trkpt><trkpt lat="46.04290165361432" lon="11.419620114286442"><ele>405.5</ele><time>2026-05-02T13:30:34.503Z</time></trkpt><trkpt lat="46.0427388186705" lon="11.419318043305426"><ele>407.0</ele><time>2026-05-02T13:30:35.503Z</time></trkpt><trkpt lat="46.04257842818481" lon="11.4190123186426"><ele>408.5</ele><time>2026-05-02T13:30:36.503Z</time></trkpt><trkpt lat="46.0424302448851" lon="11.418718725789319"><ele>410.0</ele><time>2026-05-02T13:30:37.503Z</time></trkpt><trkpt lat="46.04228554469152" lon="11.418455749965865"><ele>410.0</ele><time>2026-05-02T13:30:38.503Z</time></trkpt><trkpt lat="46.042141371736356" lon="11.41817957337866"><ele>410.0</ele><time>2026-05-02T13:30:39.503Z</time></trkpt><trkpt lat="46.04199761124185" lon="11.417898629052024"><ele>410.0</ele><time>2026-05-02T13:30:40.503Z</time></trkpt><trkpt lat="46.041852726879966" lon="11.417640063046063"><ele>410.0</ele><time>2026-05-02T13:30:41.503Z</time></trkpt><trkpt lat="46.04171017415048" lon="11.417372912344176"><ele>411.0</ele><time>2026-05-02T13:30:42.503Z</time></trkpt><trkpt lat="46.04158045738477" lon="11.417093538652825"><ele>412.0</ele><time>2026-05-02T13:30:43.503Z</time></trkpt><trkpt lat="46.04146285650197" lon="11.41679670370141"><ele>412.0</ele><time>2026-05-02T13:30:44.503Z</time></trkpt><trkpt lat="46.04135201555547" lon="11.416489257298544"><ele>412.0</ele><time>2026-05-02T13:30:45.503Z</time></trkpt><trkpt lat="46.04124773825999" lon="11.416153982409357"><ele>411.5</ele><time>2026-05-02T13:30:46.503Z</time></trkpt><trkpt lat="46.04114338453696" lon="11.415813524146072"><ele>411.0</ele><time>2026-05-02T13:30:47.503Z</time></trkpt><trkpt lat="46.041027396524775" lon="11.41548928589495"><ele>412.0</ele><time>2026-05-02T13:30:48.503Z</time></trkpt><trkpt lat="46.04091428410771" lon="11.415152965625595"><ele>413.0</ele><time>2026-05-02T13:30:49.503Z</time></trkpt><trkpt lat="46.04079957178165" lon="11.414818479569888"><ele>414.0</ele><time>2026-05-02T13:30:50.503Z</time></trkpt><trkpt lat="46.040685270878654" lon="11.414486436700885"><ele>415.0</ele><time>2026-05-02T13:30:51.503Z</time></trkpt><trkpt lat="46.040576299900025" lon="11.414147960619092"><ele>414.0</ele><time>2026-05-02T13:30:52.503Z</time></trkpt><trkpt lat="46.04046757017502" lon="11.413810066344741"><ele>413.0</ele><time>2026-05-02T13:30:53.503Z</time></trkpt><trkpt lat="46.04035657934267" lon="11.413473728390784"><ele>413.0</ele><time>2026-05-02T13:30:54.503Z</time></trkpt><trkpt lat="46.04024894860271" lon="11.413137681266031"><ele>413.0</ele><time>2026-05-02T13:30:55.503Z</time></trkpt><trkpt lat="46.04014902969824" lon="11.412794658633395"><ele>413.0</ele><time>2026-05-02T13:30:56.503Z</time></trkpt><trkpt lat="46.04006712965722" lon="11.412446850330689"><ele>413.0</ele><time>2026-05-02T13:30:57.503Z</time></trkpt><trkpt lat="46.0399951406443" lon="11.412099436662977"><ele>418.0</ele><time>2026-05-02T13:30:58.503Z</time></trkpt><trkpt lat="46.03992715836999" lon="11.411746568839604"><ele>423.0</ele><time>2026-05-02T13:30:59.504Z</time></trkpt><trkpt lat="46.03986690506151" lon="11.41137449254914"><ele>419.5</ele><time>2026-05-02T13:31:00.504Z</time></trkpt><trkpt lat="46.03982293020658" lon="11.410986968801868"><ele>416.0</ele><time>2026-05-02T13:31:01.504Z</time></trkpt><trkpt lat="46.03978041951088" lon="11.410594766046204"><ele>415.5</ele><time>2026-05-02T13:31:02.504Z</time></trkpt><trkpt lat="46.039747466331185" lon="11.410197772053792"><ele>415.0</ele><time>2026-05-02T13:31:03.504Z</time></trkpt><trkpt lat="46.039722070966164" lon="11.409799452584265"><ele>414.0</ele><time>2026-05-02T13:31:04.504Z</time></trkpt><trkpt lat="46.0396995806508" lon="11.409406201439582"><ele>413.0</ele><time>2026-05-02T13:31:05.504Z</time></trkpt><trkpt lat="46.03967232381493" lon="11.409023488138205"><ele>412.5</ele><time>2026-05-02T13:31:06.504Z</time></trkpt><trkpt lat="46.039645231294024" lon="11.408645013443206"><ele>412.0</ele><time>2026-05-02T13:31:07.504Z</time></trkpt><trkpt lat="46.03961917065819" lon="11.408247071485853"><ele>413.5</ele><time>2026-05-02T13:31:08.504Z</time></trkpt><trkpt lat="46.03959212293147" lon="11.407821437779551"><ele>415.0</ele><time>2026-05-02T13:31:09.504Z</time></trkpt><trkpt lat="46.03955945510281" lon="11.407380737731557"><ele>414.0</ele><time>2026-05-02T13:31:10.504Z</time></trkpt><trkpt lat="46.03952805881177" lon="11.406939471470409"><ele>413.0</ele><time>2026-05-02T13:31:11.504Z</time></trkpt><trkpt lat="46.03950251446188" lon="11.40650091183899"><ele>413.0</ele><time>2026-05-02T13:31:12.504Z</time></trkpt><trkpt lat="46.03947575459081" lon="11.406064081674277"><ele>413.0</ele><time>2026-05-02T13:31:13.504Z</time></trkpt><trkpt lat="46.03944837047489" lon="11.405619916018516"><ele>414.5</ele><time>2026-05-02T13:31:14.504Z</time></trkpt><trkpt lat="46.039417711465745" lon="11.40518672206368"><ele>416.0</ele><time>2026-05-02T13:31:15.504Z</time></trkpt><trkpt lat="46.03938098909083" lon="11.404776853277614"><ele>416.5</ele><time>2026-05-02T13:31:16.504Z</time></trkpt><trkpt lat="46.039330625965135" lon="11.404388300293606"><ele>417.0</ele><time>2026-05-02T13:31:17.504Z</time></trkpt><trkpt lat="46.03926948696284" lon="11.403988543727579"><ele>416.0</ele><time>2026-05-02T13:31:18.504Z</time></trkpt><trkpt lat="46.03919668317925" lon="11.40360114688274"><ele>415.0</ele><time>2026-05-02T13:31:19.504Z</time></trkpt><trkpt lat="46.039111823055144" lon="11.403226238844754"><ele>415.0</ele><time>2026-05-02T13:31:20.504Z</time></trkpt><trkpt lat="46.0390122191517" lon="11.402853157856397"><ele>415.0</ele><time>2026-05-02T13:31:21.504Z</time></trkpt><trkpt lat="46.03890600154841" lon="11.40248933290707"><ele>417.0</ele><time>2026-05-02T13:31:22.504Z</time></trkpt><trkpt lat="46.03878719861804" lon="11.402143087173625"><ele>419.0</ele><time>2026-05-02T13:31:23.504Z</time></trkpt><trkpt lat="46.03864323122673" lon="11.401811940190479"><ele>419.0</ele><time>2026-05-02T13:31:24.504Z</time></trkpt><trkpt lat="46.03848483186509" lon="11.401497704937713"><ele>419.0</ele><time>2026-05-02T13:31:25.504Z</time></trkpt><trkpt lat="46.03832971105731" lon="11.401177822281351"><ele>418.0</ele><time>2026-05-02T13:31:26.504Z</time></trkpt><trkpt lat="46.03816115608537" lon="11.400865669102792"><ele>417.0</ele><time>2026-05-02T13:31:27.504Z</time></trkpt><trkpt lat="46.03797005593252" lon="11.400566438890532"><ele>419.0</ele><time>2026-05-02T13:31:28.504Z</time></trkpt><trkpt lat="46.03777592783073" lon="11.400261169448324"><ele>421.0</ele><time>2026-05-02T13:31:29.504Z</time></trkpt><trkpt lat="46.03758086453582" lon="11.399949736582423"><ele>419.5</ele><time>2026-05-02T13:31:30.504Z</time></trkpt><trkpt lat="46.037386735210134" lon="11.39964684089433"><ele>418.0</ele><time>2026-05-02T13:31:31.504Z</time></trkpt><trkpt lat="46.03720036294119" lon="11.399357309967645"><ele>418.0</ele><time>2026-05-02T13:31:32.504Z</time></trkpt><trkpt lat="46.03702381706651" lon="11.399078982539807"><ele>418.0</ele><time>2026-05-02T13:31:33.504Z</time></trkpt><trkpt lat="46.03684753029091" lon="11.398798188573574"><ele>418.0</ele><time>2026-05-02T13:31:34.504Z</time></trkpt><trkpt lat="46.03667063280586" lon="11.398508960475084"><ele>418.0</ele><time>2026-05-02T13:31:35.504Z</time></trkpt><trkpt lat="46.03649063196008" lon="11.398226601606195"><ele>417.0</ele><time>2026-05-02T13:31:36.504Z</time></trkpt><trkpt lat="46.03631908494833" lon="11.397925048962362"><ele>416.0</ele><time>2026-05-02T13:31:37.504Z</time></trkpt><trkpt lat="46.03614302842314" lon="11.39762770468318"><ele>416.0</ele><time>2026-05-02T13:31:38.504Z</time></trkpt><trkpt lat="46.03595748810105" lon="11.397326618904641"><ele>416.0</ele><time>2026-05-02T13:31:39.504Z</time></trkpt><trkpt lat="46.03577030568575" lon="11.397024700547783"><ele>415.0</ele><time>2026-05-02T13:31:40.504Z</time></trkpt><trkpt lat="46.03557569867671" lon="11.396717535239153"><ele>414.0</ele><time>2026-05-02T13:31:41.504Z</time></trkpt><trkpt lat="46.03537067979378" lon="11.396406444425123"><ele>415.0</ele><time>2026-05-02T13:31:42.504Z</time></trkpt><trkpt lat="46.0351523951366" lon="11.396098988138371"><ele>416.0</ele><time>2026-05-02T13:31:43.504Z</time></trkpt><trkpt lat="46.034923140879954" lon="11.395778435418032"><ele>416.5</ele><time>2026-05-02T13:31:44.504Z</time></trkpt><trkpt lat="46.03468624101202" lon="11.395453840208917"><ele>417.0</ele><time>2026-05-02T13:31:45.504Z</time></trkpt><trkpt lat="46.03446359734053" lon="11.395146502418337"><ele>417.0</ele><time>2026-05-02T13:31:46.504Z</time></trkpt><trkpt lat="46.03424147683812" lon="11.394853835438244"><ele>417.0</ele><time>2026-05-02T13:31:47.504Z</time></trkpt><trkpt lat="46.034025949782894" lon="11.394559179831296"><ele>418.5</ele><time>2026-05-02T13:31:48.504Z</time></trkpt><trkpt lat="46.033813659758415" lon="11.39426363793912"><ele>420.0</ele><time>2026-05-02T13:31:49.504Z</time></trkpt><trkpt lat="46.033607990394735" lon="11.39395210511695"><ele>421.0</ele><time>2026-05-02T13:31:50.504Z</time></trkpt><trkpt lat="46.033394485310055" lon="11.393659959309135"><ele>422.0</ele><time>2026-05-02T13:31:51.504Z</time></trkpt><trkpt lat="46.033172943538524" lon="11.393379019188497"><ele>422.0</ele><time>2026-05-02T13:31:52.504Z</time></trkpt><trkpt lat="46.03296227185278" lon="11.393126476515482"><ele>422.0</ele><time>2026-05-02T13:31:53.504Z</time></trkpt><trkpt lat="46.03275677932396" lon="11.39289185421099"><ele>422.0</ele><time>2026-05-02T13:31:54.504Z</time></trkpt><trkpt lat="46.03255077615196" lon="11.39264587436702"><ele>422.0</ele><time>2026-05-02T13:31:55.504Z</time></trkpt><trkpt lat="46.03234353595093" lon="11.392399779506905"><ele>421.0</ele><time>2026-05-02T13:31:56.504Z</time></trkpt><trkpt lat="46.032132926083705" lon="11.392158674164392"><ele>420.0</ele><time>2026-05-02T13:31:57.504Z</time></trkpt><trkpt lat="46.0319269166259" lon="11.391918280410806"><ele>420.0</ele><time>2026-05-02T13:31:58.504Z</time></trkpt><trkpt lat="46.031713518733234" lon="11.391683300269108"><ele>420.0</ele><time>2026-05-02T13:31:59.504Z</time></trkpt><trkpt lat="46.03149719367847" lon="11.39146087321011"><ele>421.0</ele><time>2026-05-02T13:32:00.504Z</time></trkpt><trkpt lat="46.03127533079015" lon="11.39122397253797"><ele>422.0</ele><time>2026-05-02T13:32:01.504Z</time></trkpt><trkpt lat="46.03104766260984" lon="11.390988049935556"><ele>422.0</ele><time>2026-05-02T13:32:02.504Z</time></trkpt><trkpt lat="46.03082081423094" lon="11.390738873448084"><ele>422.0</ele><time>2026-05-02T13:32:03.504Z</time></trkpt><trkpt lat="46.030596367176095" lon="11.390500127597292"><ele>422.0</ele><time>2026-05-02T13:32:04.504Z</time></trkpt><trkpt lat="46.03038393401358" lon="11.390261881914238"><ele>422.0</ele><time>2026-05-02T13:32:05.504Z</time></trkpt><trkpt lat="46.03016941084368" lon="11.390033596654137"><ele>422.0</ele><time>2026-05-02T13:32:06.504Z</time></trkpt><trkpt lat="46.02998648671392" lon="11.389789297049285"><ele>422.0</ele><time>2026-05-02T13:32:07.504Z</time></trkpt><trkpt lat="46.029822547281555" lon="11.389528305331496"><ele>423.5</ele><time>2026-05-02T13:32:08.504Z</time></trkpt><trkpt lat="46.02967416869712" lon="11.389259693894784"><ele>425.0</ele><time>2026-05-02T13:32:09.504Z</time></trkpt><trkpt lat="46.029535216652924" lon="11.388964660538862"><ele>424.5</ele><time>2026-05-02T13:32:10.504Z</time></trkpt><trkpt lat="46.029413541416915" lon="11.38864122497524"><ele>424.0</ele><time>2026-05-02T13:32:11.504Z</time></trkpt><trkpt lat="46.029310672913766" lon="11.388284090883989"><ele>422.5</ele><time>2026-05-02T13:32:12.504Z</time></trkpt><trkpt lat="46.02923138585111" lon="11.387903362489553"><ele>421.0</ele><time>2026-05-02T13:32:13.504Z</time></trkpt><trkpt lat="46.029179345377045" lon="11.38754314578388"><ele>421.0</ele><time>2026-05-02T13:32:14.504Z</time></trkpt><trkpt lat="46.02916078867806" lon="11.387195611076876"><ele>421.0</ele><time>2026-05-02T13:32:15.504Z</time></trkpt><trkpt lat="46.02918431957404" lon="11.386848428397062"><ele>421.5</ele><time>2026-05-02T13:32:16.504Z</time></trkpt><trkpt lat="46.02917491395096" lon="11.386499220717745"><ele>422.0</ele><time>2026-05-02T13:32:17.504Z</time></trkpt><trkpt lat="46.02924936484941" lon="11.386118630296332"><ele>422.0</ele><time>2026-05-02T13:32:18.504Z</time></trkpt><trkpt lat="46.02928993251669" lon="11.385753367702595"><ele>422.0</ele><time>2026-05-02T13:32:19.504Z</time></trkpt><trkpt lat="46.029327958760284" lon="11.385386262475174"><ele>422.5</ele><time>2026-05-02T13:32:20.504Z</time></trkpt><trkpt lat="46.02935297726253" lon="11.384997657292795"><ele>423.0</ele><time>2026-05-02T13:32:21.504Z</time></trkpt><trkpt lat="46.029374812503654" lon="11.384576876159878"><ele>423.0</ele><time>2026-05-02T13:32:22.504Z</time></trkpt><trkpt lat="46.02936543498277" lon="11.384146585215566"><ele>423.0</ele><time>2026-05-02T13:32:23.504Z</time></trkpt><trkpt lat="46.0293478942285" lon="11.383717444301013"><ele>423.0</ele><time>2026-05-02T13:32:24.504Z</time></trkpt><trkpt lat="46.029301764913875" lon="11.38332010777853"><ele>423.0</ele><time>2026-05-02T13:32:25.504Z</time></trkpt><trkpt lat="46.029274125035705" lon="11.382938709174951"><ele>424.0</ele><time>2026-05-02T13:32:26.504Z</time></trkpt><trkpt lat="46.029243830938064" lon="11.382555559253722"><ele>425.0</ele><time>2026-05-02T13:32:27.504Z</time></trkpt><trkpt lat="46.02922060376625" lon="11.382179456366663"><ele>426.0</ele><time>2026-05-02T13:32:28.504Z</time></trkpt><trkpt lat="46.02919507896308" lon="11.381798060020952"><ele>427.0</ele><time>2026-05-02T13:32:29.504Z</time></trkpt><trkpt lat="46.02916967999193" lon="11.381422612008636"><ele>427.0</ele><time>2026-05-02T13:32:30.504Z</time></trkpt><trkpt lat="46.02914272674366" lon="11.381051808403843"><ele>427.0</ele><time>2026-05-02T13:32:31.504Z</time></trkpt><trkpt lat="46.02911508454261" lon="11.380695324959612"><ele>424.5</ele><time>2026-05-02T13:32:32.504Z</time></trkpt><trkpt lat="46.029088807865094" lon="11.380346752283234"><ele>422.0</ele><time>2026-05-02T13:32:33.504Z</time></trkpt><trkpt lat="46.029093061688386" lon="11.380004892919047"><ele>421.5</ele><time>2026-05-02T13:32:34.504Z</time></trkpt><trkpt lat="46.02905958394701" lon="11.379624745031919"><ele>421.0</ele><time>2026-05-02T13:32:35.504Z</time></trkpt><trkpt lat="46.02902593722625" lon="11.379233025845027"><ele>422.0</ele><time>2026-05-02T13:32:36.504Z</time></trkpt><trkpt lat="46.02898980167704" lon="11.378837793524081"><ele>423.0</ele><time>2026-05-02T13:32:37.504Z</time></trkpt><trkpt lat="46.02894917175666" lon="11.378479619810008"><ele>423.0</ele><time>2026-05-02T13:32:38.504Z</time></trkpt><trkpt lat="46.02890511857775" lon="11.378139696628345"><ele>423.0</ele><time>2026-05-02T13:32:39.504Z</time></trkpt><trkpt lat="46.028840816780054" lon="11.37780652532129"><ele>424.0</ele><time>2026-05-02T13:32:40.504Z</time></trkpt><trkpt lat="46.02876884965825" lon="11.377470143514408"><ele>425.0</ele><time>2026-05-02T13:32:41.504Z</time></trkpt><trkpt lat="46.028686397216816" lon="11.37715792275584"><ele>425.0</ele><time>2026-05-02T13:32:42.504Z</time></trkpt><trkpt lat="46.02858976128178" lon="11.37687898587545"><ele>425.0</ele><time>2026-05-02T13:32:43.504Z</time></trkpt><trkpt lat="46.02848591430054" lon="11.376579386284252"><ele>425.0</ele><time>2026-05-02T13:32:44.504Z</time></trkpt><trkpt lat="46.02836345488217" lon="11.376286743823615"><ele>426.0</ele><time>2026-05-02T13:32:45.504Z</time></trkpt><trkpt lat="46.02822115115023" lon="11.37600935742506"><ele>427.0</ele><time>2026-05-02T13:32:46.504Z</time></trkpt><trkpt lat="46.028069850240364" lon="11.375720361272908"><ele>427.5</ele><time>2026-05-02T13:32:47.504Z</time></trkpt><trkpt lat="46.027904790677404" lon="11.375428166858052"><ele>428.0</ele><time>2026-05-02T13:32:48.504Z</time></trkpt><trkpt lat="46.02771964952596" lon="11.375133887378395"><ele>428.0</ele><time>2026-05-02T13:32:49.504Z</time></trkpt><trkpt lat="46.027530387252476" lon="11.374855525878122"><ele>428.0</ele><time>2026-05-02T13:32:50.504Z</time></trkpt><trkpt lat="46.02734210552995" lon="11.374611235497209"><ele>427.5</ele><time>2026-05-02T13:32:51.504Z</time></trkpt><trkpt lat="46.02713271874039" lon="11.374371183057496"><ele>427.0</ele><time>2026-05-02T13:32:52.504Z</time></trkpt><trkpt lat="46.02690774890783" lon="11.374147401734254"><ele>427.0</ele><time>2026-05-02T13:32:53.504Z</time></trkpt><trkpt lat="46.02667106203028" lon="11.373922788340971"><ele>427.0</ele><time>2026-05-02T13:32:54.504Z</time></trkpt><trkpt lat="46.026417263127485" lon="11.373715451461143"><ele>430.0</ele><time>2026-05-02T13:32:55.504Z</time></trkpt><trkpt lat="46.026157726354114" lon="11.373483763833795"><ele>433.0</ele><time>2026-05-02T13:32:56.504Z</time></trkpt><trkpt lat="46.02589382934934" lon="11.373249093728976"><ele>432.0</ele><time>2026-05-02T13:32:57.504Z</time></trkpt><trkpt lat="46.025636363960956" lon="11.373027690421988"><ele>431.0</ele><time>2026-05-02T13:32:58.504Z</time></trkpt><trkpt lat="46.02539801563368" lon="11.372829358165605"><ele>434.0</ele><time>2026-05-02T13:32:59.504Z</time></trkpt><trkpt lat="46.02517576126127" lon="11.372639613268754"><ele>437.0</ele><time>2026-05-02T13:33:00.504Z</time></trkpt><trkpt lat="46.02496208694695" lon="11.372459120621077"><ele>437.0</ele><time>2026-05-02T13:33:01.504Z</time></trkpt><trkpt lat="46.02474362356696" lon="11.372281647611528"><ele>437.0</ele><time>2026-05-02T13:33:02.504Z</time></trkpt><trkpt lat="46.02452921818633" lon="11.372093140193547"><ele>439.5</ele><time>2026-05-02T13:33:03.504Z</time></trkpt><trkpt lat="46.024314643699604" lon="11.371910196680428"><ele>442.0</ele><time>2026-05-02T13:33:04.504Z</time></trkpt><trkpt lat="46.024092790909506" lon="11.37172550626854"><ele>442.0</ele><time>2026-05-02T13:33:05.504Z</time></trkpt><trkpt lat="46.023871409633344" lon="11.371548707424719"><ele>442.0</ele><time>2026-05-02T13:33:06.504Z</time></trkpt><trkpt lat="46.02365080463322" lon="11.371363938817131"><ele>444.0</ele><time>2026-05-02T13:33:07.504Z</time></trkpt><trkpt lat="46.02343294421206" lon="11.371177436390047"><ele>446.0</ele><time>2026-05-02T13:33:08.504Z</time></trkpt><trkpt lat="46.02321073134173" lon="11.370990346315534"><ele>446.0</ele><time>2026-05-02T13:33:09.504Z</time></trkpt><trkpt lat="46.02298755852338" lon="11.370799538066573"><ele>446.0</ele><time>2026-05-02T13:33:10.504Z</time></trkpt><trkpt lat="46.022776905225626" lon="11.370607518047294"><ele>447.0</ele><time>2026-05-02T13:33:11.504Z</time></trkpt><trkpt lat="46.02257492407151" lon="11.37040536989079"><ele>448.0</ele><time>2026-05-02T13:33:12.504Z</time></trkpt><trkpt lat="46.022380366472895" lon="11.37019565241318"><ele>448.0</ele><time>2026-05-02T13:33:13.504Z</time></trkpt><trkpt lat="46.022192567926346" lon="11.369974268519499"><ele>448.0</ele><time>2026-05-02T13:33:14.504Z</time></trkpt><trkpt lat="46.0220302374589" lon="11.369691937513933"><ele>448.5</ele><time>2026-05-02T13:33:15.504Z</time></trkpt><trkpt lat="46.02186625487279" lon="11.369416696872737"><ele>449.0</ele><time>2026-05-02T13:33:16.504Z</time></trkpt><trkpt lat="46.0217094872059" lon="11.369117993184654"><ele>446.5</ele><time>2026-05-02T13:33:17.504Z</time></trkpt><trkpt lat="46.02156390312965" lon="11.368812746258738"><ele>444.0</ele><time>2026-05-02T13:33:18.504Z</time></trkpt><trkpt lat="46.021427472861156" lon="11.368504690301483"><ele>444.0</ele><time>2026-05-02T13:33:19.504Z</time></trkpt><trkpt lat="46.02129549203446" lon="11.368163338893357"><ele>444.0</ele><time>2026-05-02T13:33:20.504Z</time></trkpt><trkpt lat="46.02117933090188" lon="11.367826014650108"><ele>446.5</ele><time>2026-05-02T13:33:21.504Z</time></trkpt><trkpt lat="46.021083545894584" lon="11.367475979709342"><ele>449.0</ele><time>2026-05-02T13:33:22.504Z</time></trkpt><trkpt lat="46.02097828642345" lon="11.367132048074662"><ele>451.0</ele><time>2026-05-02T13:33:23.504Z</time></trkpt><trkpt lat="46.020880565681644" lon="11.366774786533723"><ele>453.0</ele><time>2026-05-02T13:33:24.504Z</time></trkpt><trkpt lat="46.020779365884316" lon="11.36642785201113"><ele>450.0</ele><time>2026-05-02T13:33:25.504Z</time></trkpt><trkpt lat="46.02067034595992" lon="11.366081536112521"><ele>447.0</ele><time>2026-05-02T13:33:26.504Z</time></trkpt><trkpt lat="46.02056976646159" lon="11.365722461810321"><ele>449.0</ele><time>2026-05-02T13:33:27.504Z</time></trkpt><trkpt lat="46.0204663436275" lon="11.365359172872868"><ele>451.0</ele><time>2026-05-02T13:33:28.504Z</time></trkpt><trkpt lat="46.02036094658011" lon="11.364994681581546"><ele>452.0</ele><time>2026-05-02T13:33:29.504Z</time></trkpt><trkpt lat="46.02026131768415" lon="11.364655909820558"><ele>453.0</ele><time>2026-05-02T13:33:30.504Z</time></trkpt><trkpt lat="46.020161297940184" lon="11.364326431764006"><ele>453.0</ele><time>2026-05-02T13:33:31.504Z</time></trkpt><trkpt lat="46.02005658101529" lon="11.363989312964115"><ele>453.0</ele><time>2026-05-02T13:33:32.504Z</time></trkpt><trkpt lat="46.01995916798024" lon="11.363642053725476"><ele>450.0</ele><time>2026-05-02T13:33:33.504Z</time></trkpt><trkpt lat="46.019861151328215" lon="11.36327505052884"><ele>447.0</ele><time>2026-05-02T13:33:34.504Z</time></trkpt><trkpt lat="46.019772103638836" lon="11.362894294333532"><ele>447.0</ele><time>2026-05-02T13:33:35.504Z</time></trkpt><trkpt lat="46.01969461667692" lon="11.362506526283031"><ele>447.0</ele><time>2026-05-02T13:33:36.504Z</time></trkpt><trkpt lat="46.019625270167346" lon="11.362118439856681"><ele>448.0</ele><time>2026-05-02T13:33:37.504Z</time></trkpt><trkpt lat="46.01956163401178" lon="11.361733815279845"><ele>449.0</ele><time>2026-05-02T13:33:38.504Z</time></trkpt><trkpt lat="46.01950369161282" lon="11.361346962209094"><ele>451.0</ele><time>2026-05-02T13:33:39.504Z</time></trkpt><trkpt lat="46.019451586850366" lon="11.360961233897935"><ele>453.0</ele><time>2026-05-02T13:33:40.504Z</time></trkpt><trkpt lat="46.01940497778502" lon="11.360572275989062"><ele>454.5</ele><time>2026-05-02T13:33:41.504Z</time></trkpt><trkpt lat="46.019364526762374" lon="11.360179926960065"><ele>456.0</ele><time>2026-05-02T13:33:42.504Z</time></trkpt><trkpt lat="46.01932908728963" lon="11.359788220968062"><ele>455.0</ele><time>2026-05-02T13:33:43.504Z</time></trkpt><trkpt lat="46.01928729862327" lon="11.359403283377224"><ele>454.0</ele><time>2026-05-02T13:33:44.504Z</time></trkpt><trkpt lat="46.01924590014252" lon="11.359028281973956"><ele>454.0</ele><time>2026-05-02T13:33:45.504Z</time></trkpt><trkpt lat="46.01920555332636" lon="11.358638987155569"><ele>454.0</ele><time>2026-05-02T13:33:46.504Z</time></trkpt><trkpt lat="46.019163436803495" lon="11.358248818139035"><ele>447.0</ele><time>2026-05-02T13:33:47.504Z</time></trkpt><trkpt lat="46.01911924980875" lon="11.357857332357352"><ele>440.0</ele><time>2026-05-02T13:33:48.504Z</time></trkpt><trkpt lat="46.01907746787708" lon="11.35745478131646"><ele>440.5</ele><time>2026-05-02T13:33:49.504Z</time></trkpt><trkpt lat="46.019035128439775" lon="11.35703450443555"><ele>441.0</ele><time>2026-05-02T13:33:50.504Z</time></trkpt><trkpt lat="46.01899249911763" lon="11.356604449155771"><ele>443.0</ele><time>2026-05-02T13:33:51.504Z</time></trkpt><trkpt lat="46.01894844333477" lon="11.356168285665108"><ele>445.0</ele><time>2026-05-02T13:33:52.504Z</time></trkpt><trkpt lat="46.01890399199595" lon="11.355761301714582"><ele>445.5</ele><time>2026-05-02T13:33:53.504Z</time></trkpt><trkpt lat="46.018864676428144" lon="11.355371153073644"><ele>446.0</ele><time>2026-05-02T13:33:54.504Z</time></trkpt><trkpt lat="46.01882020474552" lon="11.354991816546923"><ele>446.5</ele><time>2026-05-02T13:33:55.504Z</time></trkpt><trkpt lat="46.018774052969476" lon="11.354609866985637"><ele>447.0</ele><time>2026-05-02T13:33:56.504Z</time></trkpt><trkpt lat="46.01872248418261" lon="11.354230465444981"><ele>447.0</ele><time>2026-05-02T13:33:57.504Z</time></trkpt><trkpt lat="46.0186729997741" lon="11.353859126860048"><ele>447.0</ele><time>2026-05-02T13:33:58.504Z</time></trkpt><trkpt lat="46.01862151628109" lon="11.353497781123101"><ele>447.0</ele><time>2026-05-02T13:33:59.504Z</time></trkpt><trkpt lat="46.01857113753105" lon="11.353136347176502"><ele>447.0</ele><time>2026-05-02T13:34:00.504Z</time></trkpt><trkpt lat="46.01851850237239" lon="11.352774915588713"><ele>447.0</ele><time>2026-05-02T13:34:01.504Z</time></trkpt><trkpt lat="46.018462872261544" lon="11.352418584177665"><ele>447.0</ele><time>2026-05-02T13:34:02.504Z</time></trkpt><trkpt lat="46.01841375258298" lon="11.352054087985143"><ele>447.5</ele><time>2026-05-02T13:34:03.504Z</time></trkpt><trkpt lat="46.01836443637941" lon="11.35169241557261"><ele>448.0</ele><time>2026-05-02T13:34:04.504Z</time></trkpt><trkpt lat="46.01831524907349" lon="11.351323372153736"><ele>443.5</ele><time>2026-05-02T13:34:05.504Z</time></trkpt><trkpt lat="46.01826750896066" lon="11.3509560197375"><ele>439.0</ele><time>2026-05-02T13:34:06.504Z</time></trkpt><trkpt lat="46.0182232040138" lon="11.350594806261606"><ele>440.0</ele><time>2026-05-02T13:34:07.504Z</time></trkpt><trkpt lat="46.01817996201037" lon="11.350226322673471"><ele>441.0</ele><time>2026-05-02T13:34:08.504Z</time></trkpt><trkpt lat="46.01813369259099" lon="11.349861689866085"><ele>440.5</ele><time>2026-05-02T13:34:09.504Z</time></trkpt><trkpt lat="46.01808426558152" lon="11.349492728618634"><ele>440.0</ele><time>2026-05-02T13:34:10.504Z</time></trkpt><trkpt lat="46.018036720983375" lon="11.34912443234546"><ele>439.5</ele><time>2026-05-02T13:34:11.504Z</time></trkpt><trkpt lat="46.017986783233624" lon="11.348759243001638"><ele>439.0</ele><time>2026-05-02T13:34:12.504Z</time></trkpt><trkpt lat="46.01793785722097" lon="11.348415621062491"><ele>439.0</ele><time>2026-05-02T13:34:13.504Z</time></trkpt><trkpt lat="46.01789535871412" lon="11.348083056736632"><ele>439.0</ele><time>2026-05-02T13:34:14.504Z</time></trkpt><trkpt lat="46.01786650785748" lon="11.347772323122678"><ele>438.5</ele><time>2026-05-02T13:34:15.504Z</time></trkpt><trkpt lat="46.017822952714695" lon="11.34745284035389"><ele>438.0</ele><time>2026-05-02T13:34:16.504Z</time></trkpt><trkpt lat="46.01778526336028" lon="11.347129546836356"><ele>438.0</ele><time>2026-05-02T13:34:17.504Z</time></trkpt><trkpt lat="46.01774674394324" lon="11.346803738974545"><ele>438.0</ele><time>2026-05-02T13:34:18.504Z</time></trkpt><trkpt lat="46.01770505573691" lon="11.346478092556886"><ele>437.33333333333337</ele><time>2026-05-02T13:34:19.504Z</time></trkpt><trkpt lat="46.017665365696956" lon="11.346164297452185"><ele>436.6666666666667</ele><time>2026-05-02T13:34:20.504Z</time></trkpt><trkpt lat="46.01762575704816" lon="11.345860797255984"><ele>436.0</ele><time>2026-05-02T13:34:21.504Z</time></trkpt><trkpt lat="46.01758443154477" lon="11.345561772977282"><ele>435.33333333333337</ele><time>2026-05-02T13:34:22.504Z</time></trkpt><trkpt lat="46.017547048651394" lon="11.34526260716789"><ele>434.66666666666663</ele><time>2026-05-02T13:34:23.504Z</time></trkpt><trkpt lat="46.01750959801322" lon="11.344959405528973"><ele>434.0</ele><time>2026-05-02T13:34:24.504Z</time></trkpt><trkpt lat="46.017475299111425" lon="11.344661879553847"><ele>432.3333333333333</ele><time>2026-05-02T13:34:25.504Z</time></trkpt><trkpt lat="46.01743882635692" lon="11.344360848357585"><ele>430.66666666666663</ele><time>2026-05-02T13:34:26.504Z</time></trkpt><trkpt lat="46.017398154549376" lon="11.34407955473156"><ele>429.0</ele><time>2026-05-02T13:34:27.504Z</time></trkpt><trkpt lat="46.01736252063807" lon="11.343805101570906"><ele>429.0</ele><time>2026-05-02T13:34:28.504Z</time></trkpt><trkpt lat="46.01733030485766" lon="11.343536524686904"><ele>429.0</ele><time>2026-05-02T13:34:29.504Z</time></trkpt><trkpt lat="46.017295439414546" lon="11.343267902593858"><ele>429.0</ele><time>2026-05-02T13:34:30.504Z</time></trkpt><trkpt lat="46.01725455200704" lon="11.343006265967631"><ele>430.0</ele><time>2026-05-02T13:34:31.504Z</time></trkpt><trkpt lat="46.01721355800055" lon="11.342743811770742"><ele>431.0</ele><time>2026-05-02T13:34:32.504Z</time></trkpt><trkpt lat="46.017175978096354" lon="11.342473306510064"><ele>432.0</ele><time>2026-05-02T13:34:33.504Z</time></trkpt><trkpt lat="46.01714271851089" lon="11.342198038874756"><ele>432.66666666666663</ele><time>2026-05-02T13:34:34.504Z</time></trkpt><trkpt lat="46.01710579755266" lon="11.341929500183827"><ele>433.3333333333333</ele><time>2026-05-02T13:34:35.504Z</time></trkpt><trkpt lat="46.01706893970314" lon="11.341659243312927"><ele>434.0</ele><time>2026-05-02T13:34:36.504Z</time></trkpt><trkpt lat="46.01703720634452" lon="11.341379776524953"><ele>436.3333333333333</ele><time>2026-05-02T13:34:37.504Z</time></trkpt><trkpt lat="46.016998108422804" lon="11.341098255048307"><ele>438.66666666666663</ele><time>2026-05-02T13:34:38.504Z</time></trkpt><trkpt lat="46.016953471500145" lon="11.340799332059277"><ele>441.0</ele><time>2026-05-02T13:34:39.504Z</time></trkpt><trkpt lat="46.0169054086497" lon="11.34049095002597"><ele>443.0</ele><time>2026-05-02T13:34:40.504Z</time></trkpt><trkpt lat="46.01685136858801" lon="11.34016794927113"><ele>445.0</ele><time>2026-05-02T13:34:41.504Z</time></trkpt><trkpt lat="46.016788300782295" lon="11.339834907189962"><ele>446.0</ele><time>2026-05-02T13:34:42.504Z</time></trkpt><trkpt lat="46.016712647432" lon="11.339496504190178"><ele>447.0</ele><time>2026-05-02T13:34:43.504Z</time></trkpt><trkpt lat="46.016626855220366" lon="11.33917093454333"><ele>447.5</ele><time>2026-05-02T13:34:44.504Z</time></trkpt><trkpt lat="46.016542295829446" lon="11.338863109212083"><ele>448.0</ele><time>2026-05-02T13:34:45.504Z</time></trkpt><trkpt lat="46.016457735315704" lon="11.338569477501487"><ele>448.0</ele><time>2026-05-02T13:34:46.504Z</time></trkpt><trkpt lat="46.01636971425788" lon="11.338287995851138"><ele>448.0</ele><time>2026-05-02T13:34:47.504Z</time></trkpt><trkpt lat="46.01628477855891" lon="11.33800853764808"><ele>448.0</ele><time>2026-05-02T13:34:48.504Z</time></trkpt><trkpt lat="46.0162010403232" lon="11.33773708609253"><ele>447.0</ele><time>2026-05-02T13:34:49.504Z</time></trkpt><trkpt lat="46.01611017353829" lon="11.337467217739139"><ele>446.0</ele><time>2026-05-02T13:34:50.504Z</time></trkpt><trkpt lat="46.016011757637614" lon="11.337215205648933"><ele>445.0</ele><time>2026-05-02T13:34:51.504Z</time></trkpt><trkpt lat="46.015910356475715" lon="11.336967029774598"><ele>440.0</ele><time>2026-05-02T13:34:52.504Z</time></trkpt><trkpt lat="46.01580883536403" lon="11.33671525587321"><ele>435.0</ele><time>2026-05-02T13:34:53.504Z</time></trkpt><trkpt lat="46.01570635445827" lon="11.336473715082413"><ele>430.0</ele><time>2026-05-02T13:34:54.504Z</time></trkpt><trkpt lat="46.01559603677545" lon="11.336212062919786"><ele>430.0</ele><time>2026-05-02T13:34:55.504Z</time></trkpt><trkpt lat="46.01548013555324" lon="11.335934164534402"><ele>430.0</ele><time>2026-05-02T13:34:56.504Z</time></trkpt><trkpt lat="46.01537370429972" lon="11.33565857797007"><ele>430.0</ele><time>2026-05-02T13:34:57.504Z</time></trkpt><trkpt lat="46.01525613385208" lon="11.33536934955311"><ele>431.0</ele><time>2026-05-02T13:34:58.504Z</time></trkpt><trkpt lat="46.015137833602054" lon="11.33507526157589"><ele>432.0</ele><time>2026-05-02T13:34:59.504Z</time></trkpt><trkpt lat="46.01502510895593" lon="11.334780704450415"><ele>431.0</ele><time>2026-05-02T13:35:00.504Z</time></trkpt><trkpt lat="46.01491537804841" lon="11.334493296851669"><ele>430.0</ele><time>2026-05-02T13:35:01.504Z</time></trkpt><trkpt lat="46.01480557088681" lon="11.33421557467486"><ele>430.0</ele><time>2026-05-02T13:35:02.504Z</time></trkpt><trkpt lat="46.014695013592586" lon="11.333939351580732"><ele>430.0</ele><time>2026-05-02T13:35:03.504Z</time></trkpt><trkpt lat="46.01458015546596" lon="11.33365297906071"><ele>430.0</ele><time>2026-05-02T13:35:04.504Z</time></trkpt><trkpt lat="46.014460358910156" lon="11.333354725051787"><ele>430.0</ele><time>2026-05-02T13:35:05.504Z</time></trkpt><trkpt lat="46.0143321388874" lon="11.333037635629031"><ele>430.0</ele><time>2026-05-02T13:35:06.504Z</time></trkpt><trkpt lat="46.01419598098841" lon="11.33269573318054"><ele>430.0</ele><time>2026-05-02T13:35:07.504Z</time></trkpt><trkpt lat="46.01405461705891" lon="11.332336348779908"><ele>428.5</ele><time>2026-05-02T13:35:08.504Z</time></trkpt><trkpt lat="46.01391765377615" lon="11.331982096394261"><ele>427.0</ele><time>2026-05-02T13:35:09.504Z</time></trkpt><trkpt lat="46.013784787780736" lon="11.331627447400637"><ele>427.5</ele><time>2026-05-02T13:35:10.504Z</time></trkpt><trkpt lat="46.013647124923445" lon="11.331276961306905"><ele>428.0</ele><time>2026-05-02T13:35:11.505Z</time></trkpt><trkpt lat="46.013499259581245" lon="11.330912011831801"><ele>428.0</ele><time>2026-05-02T13:35:12.505Z</time></trkpt><trkpt lat="46.01337007474859" lon="11.330560557685976"><ele>428.0</ele><time>2026-05-02T13:35:13.505Z</time></trkpt><trkpt lat="46.01325006772394" lon="11.330235392528206"><ele>428.0</ele><time>2026-05-02T13:35:14.505Z</time></trkpt><trkpt lat="46.01313296263756" lon="11.329929035944044"><ele>428.0</ele><time>2026-05-02T13:35:15.505Z</time></trkpt><trkpt lat="46.01301706352109" lon="11.329626994363712"><ele>429.5</ele><time>2026-05-02T13:35:16.505Z</time></trkpt><trkpt lat="46.012890424772024" lon="11.329320920536432"><ele>431.0</ele><time>2026-05-02T13:35:17.505Z</time></trkpt><trkpt lat="46.012758026837446" lon="11.32902247117901"><ele>431.5</ele><time>2026-05-02T13:35:18.505Z</time></trkpt><trkpt lat="46.01260554680616" lon="11.32873028132016"><ele>432.0</ele><time>2026-05-02T13:35:19.505Z</time></trkpt><trkpt lat="46.0124440917715" lon="11.328423450975485"><ele>432.5</ele><time>2026-05-02T13:35:20.505Z</time></trkpt><trkpt lat="46.012261456216045" lon="11.328131191004278"><ele>433.0</ele><time>2026-05-02T13:35:21.505Z</time></trkpt><trkpt lat="46.01206203859499" lon="11.327840222432298"><ele>433.0</ele><time>2026-05-02T13:35:22.505Z</time></trkpt><trkpt lat="46.011858513752784" lon="11.327547597225367"><ele>433.0</ele><time>2026-05-02T13:35:23.505Z</time></trkpt><trkpt lat="46.01165730449176" lon="11.32723135271047"><ele>433.0</ele><time>2026-05-02T13:35:24.505Z</time></trkpt><trkpt lat="46.01143099256231" lon="11.32697392273617"><ele>433.0</ele><time>2026-05-02T13:35:25.505Z</time></trkpt><trkpt lat="46.01119318928052" lon="11.326755079836179"><ele>433.0</ele><time>2026-05-02T13:35:26.505Z</time></trkpt><trkpt lat="46.01096348146593" lon="11.326527676293408"><ele>433.0</ele><time>2026-05-02T13:35:27.505Z</time></trkpt><trkpt lat="46.01072222440878" lon="11.32632799300138"><ele>435.0</ele><time>2026-05-02T13:35:28.505Z</time></trkpt><trkpt lat="46.01048228282957" lon="11.326137356028743"><ele>437.0</ele><time>2026-05-02T13:35:29.505Z</time></trkpt><trkpt lat="46.010237049023885" lon="11.325967695738585"><ele>437.0</ele><time>2026-05-02T13:35:30.505Z</time></trkpt><trkpt lat="46.00999703744698" lon="11.325777595185533"><ele>437.0</ele><time>2026-05-02T13:35:31.505Z</time></trkpt><trkpt lat="46.00978069709104" lon="11.325598968868631"><ele>436.3333333333333</ele><time>2026-05-02T13:35:32.505Z</time></trkpt><trkpt lat="46.009570473453834" lon="11.325418260124797"><ele>435.66666666666663</ele><time>2026-05-02T13:35:33.505Z</time></trkpt><trkpt lat="46.009400791411494" lon="11.325263589606328"><ele>435.0</ele><time>2026-05-02T13:35:34.505Z</time></trkpt><trkpt lat="46.009224148960094" lon="11.325102959103019"><ele>435.33333333333337</ele><time>2026-05-02T13:35:35.505Z</time></trkpt><trkpt lat="46.009057586653235" lon="11.324927908920843"><ele>435.6666666666667</ele><time>2026-05-02T13:35:36.505Z</time></trkpt><trkpt lat="46.00890431899976" lon="11.32472273328401"><ele>436.0</ele><time>2026-05-02T13:35:37.505Z</time></trkpt><trkpt lat="46.008742572850196" lon="11.324527035814471"><ele>436.0</ele><time>2026-05-02T13:35:38.505Z</time></trkpt><trkpt lat="46.008580569288405" lon="11.324349402631874"><ele>436.0</ele><time>2026-05-02T13:35:39.505Z</time></trkpt><trkpt lat="46.008442933331544" lon="11.324160307225508"><ele>436.0</ele><time>2026-05-02T13:35:40.505Z</time></trkpt><trkpt lat="46.008300750514714" lon="11.323956724357814"><ele>436.0</ele><time>2026-05-02T13:35:41.505Z</time></trkpt><trkpt lat="46.008153926409406" lon="11.323706693756327"><ele>436.0</ele><time>2026-05-02T13:35:42.505Z</time></trkpt><trkpt lat="46.00800729069168" lon="11.32346331028791"><ele>436.0</ele><time>2026-05-02T13:35:43.505Z</time></trkpt><trkpt lat="46.00785846734546" lon="11.323206738467373"><ele>436.0</ele><time>2026-05-02T13:35:44.505Z</time></trkpt><trkpt lat="46.00771717357451" lon="11.322953407585029"><ele>436.33333333333337</ele><time>2026-05-02T13:35:45.505Z</time></trkpt><trkpt lat="46.00758552840143" lon="11.322690364505313"><ele>436.66666666666663</ele><time>2026-05-02T13:35:46.505Z</time></trkpt><trkpt lat="46.00746686619562" lon="11.32243443885229"><ele>437.0</ele><time>2026-05-02T13:35:47.505Z</time></trkpt><trkpt lat="46.00735044936804" lon="11.322177658479841"><ele>438.0</ele><time>2026-05-02T13:35:48.505Z</time></trkpt><trkpt lat="46.00723833382713" lon="11.321920909525458"><ele>439.0</ele><time>2026-05-02T13:35:49.505Z</time></trkpt><trkpt lat="46.00712366097136" lon="11.321658304284878"><ele>440.0</ele><time>2026-05-02T13:35:50.505Z</time></trkpt><trkpt lat="46.00699868878693" lon="11.32137189072971"><ele>442.0</ele><time>2026-05-02T13:35:51.505Z</time></trkpt><trkpt lat="46.00686924277232" lon="11.321075154532013"><ele>444.0</ele><time>2026-05-02T13:35:52.505Z</time></trkpt><trkpt lat="46.00673415320991" lon="11.320765859666622"><ele>442.0</ele><time>2026-05-02T13:35:53.505Z</time></trkpt><trkpt lat="46.00660149355929" lon="11.320463197486017"><ele>440.0</ele><time>2026-05-02T13:35:54.505Z</time></trkpt><trkpt lat="46.00644947440862" lon="11.320116092368561"><ele>440.0</ele><time>2026-05-02T13:35:55.505Z</time></trkpt><trkpt lat="46.00630436435602" lon="11.31978464307254"><ele>440.0</ele><time>2026-05-02T13:35:56.505Z</time></trkpt><trkpt lat="46.00615968918529" lon="11.319454366086132"><ele>440.5</ele><time>2026-05-02T13:35:57.505Z</time></trkpt><trkpt lat="46.00600452689422" lon="11.319138446482743"><ele>441.0</ele><time>2026-05-02T13:35:58.505Z</time></trkpt><trkpt lat="46.005863270144445" lon="11.318815526862787"><ele>439.5</ele><time>2026-05-02T13:35:59.505Z</time></trkpt><trkpt lat="46.005723132823015" lon="11.318487035714377"><ele>438.0</ele><time>2026-05-02T13:36:00.505Z</time></trkpt><trkpt lat="46.005587221270936" lon="11.318153401828695"><ele>439.5</ele><time>2026-05-02T13:36:01.505Z</time></trkpt><trkpt lat="46.005466866498736" lon="11.317814023213185"><ele>441.0</ele><time>2026-05-02T13:36:02.505Z</time></trkpt><trkpt lat="46.005336735065534" lon="11.317473629984507"><ele>441.0</ele><time>2026-05-02T13:36:03.505Z</time></trkpt><trkpt lat="46.00520006589308" lon="11.31714187425202"><ele>441.0</ele><time>2026-05-02T13:36:04.505Z</time></trkpt><trkpt lat="46.00509917378395" lon="11.316787258642702"><ele>439.0</ele><time>2026-05-02T13:36:05.505Z</time></trkpt><trkpt lat="46.00497784246341" lon="11.316476707394315"><ele>437.0</ele><time>2026-05-02T13:36:06.505Z</time></trkpt><trkpt lat="46.00488125478877" lon="11.31616958286625"><ele>437.0</ele><time>2026-05-02T13:36:07.505Z</time></trkpt><trkpt lat="46.00479544672179" lon="11.315865773985179"><ele>437.0</ele><time>2026-05-02T13:36:08.505Z</time></trkpt><trkpt lat="46.00471017172346" lon="11.31556144831414"><ele>437.66666666666663</ele><time>2026-05-02T13:36:09.505Z</time></trkpt><trkpt lat="46.00463017839677" lon="11.31526088460904"><ele>438.33333333333337</ele><time>2026-05-02T13:36:10.505Z</time></trkpt><trkpt lat="46.0045504901624" lon="11.31496268981582"><ele>439.0</ele><time>2026-05-02T13:36:11.505Z</time></trkpt><trkpt lat="46.00447859844642" lon="11.314658593404017"><ele>440.0</ele><time>2026-05-02T13:36:12.505Z</time></trkpt><trkpt lat="46.00441766128745" lon="11.314342870535015"><ele>441.0</ele><time>2026-05-02T13:36:13.505Z</time></trkpt><trkpt lat="46.004352167229705" lon="11.314036858523451"><ele>441.5</ele><time>2026-05-02T13:36:14.505Z</time></trkpt><trkpt lat="46.004288742476405" lon="11.31372089864599"><ele>442.0</ele><time>2026-05-02T13:36:15.505Z</time></trkpt><trkpt lat="46.00422973514202" lon="11.313392612401492"><ele>443.5</ele><time>2026-05-02T13:36:16.505Z</time></trkpt><trkpt lat="46.004181821546204" lon="11.31304784321552"><ele>445.0</ele><time>2026-05-02T13:36:17.505Z</time></trkpt><trkpt lat="46.00412208756166" lon="11.312684860326636"><ele>442.5</ele><time>2026-05-02T13:36:18.505Z</time></trkpt><trkpt lat="46.00407369952394" lon="11.312303894520973"><ele>440.0</ele><time>2026-05-02T13:36:19.505Z</time></trkpt><trkpt lat="46.004026860354635" lon="11.311906349826561"><ele>440.0</ele><time>2026-05-02T13:36:20.505Z</time></trkpt><trkpt lat="46.00397985519951" lon="11.311495593275678"><ele>440.0</ele><time>2026-05-02T13:36:21.505Z</time></trkpt><trkpt lat="46.00394663878433" lon="11.311090532354571"><ele>440.5</ele><time>2026-05-02T13:36:22.505Z</time></trkpt><trkpt lat="46.003914154893586" lon="11.310684815673852"><ele>441.0</ele><time>2026-05-02T13:36:23.505Z</time></trkpt><trkpt lat="46.003891584049306" lon="11.31027278905661"><ele>441.0</ele><time>2026-05-02T13:36:24.505Z</time></trkpt><trkpt lat="46.00387531792167" lon="11.309861440400116"><ele>441.0</ele><time>2026-05-02T13:36:25.505Z</time></trkpt><trkpt lat="46.00386672868756" lon="11.3094838524442"><ele>441.0</ele><time>2026-05-02T13:36:26.505Z</time></trkpt><trkpt lat="46.003874457276986" lon="11.309127206081817"><ele>441.0</ele><time>2026-05-02T13:36:27.505Z</time></trkpt><trkpt lat="46.00387040359206" lon="11.308778424441083"><ele>440.0</ele><time>2026-05-02T13:36:28.505Z</time></trkpt><trkpt lat="46.003869753366374" lon="11.308422271926752"><ele>439.0</ele><time>2026-05-02T13:36:29.505Z</time></trkpt><trkpt lat="46.00387501515689" lon="11.30806454528444"><ele>438.0</ele><time>2026-05-02T13:36:30.505Z</time></trkpt><trkpt lat="46.00388887449746" lon="11.307710915235102"><ele>437.0</ele><time>2026-05-02T13:36:31.505Z</time></trkpt><trkpt lat="46.00390099667314" lon="11.307359028512991"><ele>437.5</ele><time>2026-05-02T13:36:32.505Z</time></trkpt><trkpt lat="46.00391692714319" lon="11.307014082325896"><ele>438.0</ele><time>2026-05-02T13:36:33.505Z</time></trkpt><trkpt lat="46.00392475191827" lon="11.306670943720809"><ele>438.5</ele><time>2026-05-02T13:36:34.505Z</time></trkpt><trkpt lat="46.00393586579956" lon="11.306323136568889"><ele>439.0</ele><time>2026-05-02T13:36:35.505Z</time></trkpt><trkpt lat="46.00395230566633" lon="11.305980710826656"><ele>439.0</ele><time>2026-05-02T13:36:36.505Z</time></trkpt><trkpt lat="46.003954694770925" lon="11.305642279787566"><ele>439.0</ele><time>2026-05-02T13:36:37.505Z</time></trkpt><trkpt lat="46.00396990035832" lon="11.305306676368193"><ele>438.5</ele><time>2026-05-02T13:36:38.505Z</time></trkpt><trkpt lat="46.0039784645649" lon="11.304970727683836"><ele>438.0</ele><time>2026-05-02T13:36:39.505Z</time></trkpt><trkpt lat="46.00398638465938" lon="11.30462902016567"><ele>438.0</ele><time>2026-05-02T13:36:40.505Z</time></trkpt><trkpt lat="46.00399216801131" lon="11.304296630887709"><ele>438.0</ele><time>2026-05-02T13:36:41.505Z</time></trkpt><trkpt lat="46.00400539156743" lon="11.303947810635947"><ele>437.5</ele><time>2026-05-02T13:36:42.505Z</time></trkpt><trkpt lat="46.00401333502544" lon="11.303589266958904"><ele>437.0</ele><time>2026-05-02T13:36:43.505Z</time></trkpt><trkpt lat="46.004024157185945" lon="11.303236493288685"><ele>437.0</ele><time>2026-05-02T13:36:44.505Z</time></trkpt><trkpt lat="46.00403512217811" lon="11.302879168531083"><ele>437.0</ele><time>2026-05-02T13:36:45.505Z</time></trkpt><trkpt lat="46.00404683672571" lon="11.302519823439669"><ele>437.5</ele><time>2026-05-02T13:36:46.505Z</time></trkpt><trkpt lat="46.0040479231555" lon="11.302166607661247"><ele>438.0</ele><time>2026-05-02T13:36:47.505Z</time></trkpt><trkpt lat="46.00404204939268" lon="11.301821066513515"><ele>438.0</ele><time>2026-05-02T13:36:48.505Z</time></trkpt><trkpt lat="46.00404173767051" lon="11.301469020600507"><ele>438.0</ele><time>2026-05-02T13:36:49.505Z</time></trkpt><trkpt lat="46.00402459323035" lon="11.301118530908239"><ele>438.0</ele><time>2026-05-02T13:36:50.505Z</time></trkpt><trkpt lat="46.004010111634834" lon="11.300762562910515"><ele>438.0</ele><time>2026-05-02T13:36:51.505Z</time></trkpt><trkpt lat="46.00398591323834" lon="11.300398571030934"><ele>437.5</ele><time>2026-05-02T13:36:52.505Z</time></trkpt><trkpt lat="46.00396039085944" lon="11.300022500650106"><ele>437.0</ele><time>2026-05-02T13:36:53.505Z</time></trkpt><trkpt lat="46.00391919558863" lon="11.299635299382505"><ele>437.0</ele><time>2026-05-02T13:36:54.505Z</time></trkpt><trkpt lat="46.00386507210772" lon="11.299248531836515"><ele>437.0</ele><time>2026-05-02T13:36:55.505Z</time></trkpt><trkpt lat="46.00380101708348" lon="11.298880530204586"><ele>436.5</ele><time>2026-05-02T13:36:56.505Z</time></trkpt><trkpt lat="46.003736000321986" lon="11.298527635228417"><ele>436.0</ele><time>2026-05-02T13:36:57.505Z</time></trkpt><trkpt lat="46.00366291689743" lon="11.298210178974134"><ele>437.5</ele><time>2026-05-02T13:36:58.505Z</time></trkpt><trkpt lat="46.003581932716386" lon="11.29787497604449"><ele>439.0</ele><time>2026-05-02T13:36:59.505Z</time></trkpt><trkpt lat="46.0035162209135" lon="11.297546657295802"><ele>438.5</ele><time>2026-05-02T13:37:00.505Z</time></trkpt><trkpt lat="46.00344362905538" lon="11.297214610139715"><ele>438.0</ele><time>2026-05-02T13:37:01.505Z</time></trkpt><trkpt lat="46.00337322903443" lon="11.296875357829514"><ele>439.0</ele><time>2026-05-02T13:37:02.505Z</time></trkpt><trkpt lat="46.003306020828134" lon="11.296541555032015"><ele>440.0</ele><time>2026-05-02T13:37:03.505Z</time></trkpt><trkpt lat="46.00324006122179" lon="11.296204184749605"><ele>440.5</ele><time>2026-05-02T13:37:04.505Z</time></trkpt><trkpt lat="46.00317548253342" lon="11.295863761041035"><ele>441.0</ele><time>2026-05-02T13:37:05.505Z</time></trkpt><trkpt lat="46.00311124201773" lon="11.295521990081763"><ele>441.5</ele><time>2026-05-02T13:37:06.505Z</time></trkpt><trkpt lat="46.00305497969905" lon="11.295175496461896"><ele>442.0</ele><time>2026-05-02T13:37:07.505Z</time></trkpt><trkpt lat="46.00300770718391" lon="11.2948306836768"><ele>441.0</ele><time>2026-05-02T13:37:08.505Z</time></trkpt><trkpt lat="46.00296712025717" lon="11.294491429104497"><ele>440.0</ele><time>2026-05-02T13:37:09.505Z</time></trkpt><trkpt lat="46.00293427676731" lon="11.29417014140597"><ele>440.0</ele><time>2026-05-02T13:37:10.505Z</time></trkpt><trkpt lat="46.00290221337451" lon="11.293856579741103"><ele>440.0</ele><time>2026-05-02T13:37:11.505Z</time></trkpt><trkpt lat="46.00287771465497" lon="11.29352807300239"><ele>440.0</ele><time>2026-05-02T13:37:12.505Z</time></trkpt><trkpt lat="46.002850998164895" lon="11.293200606976082"><ele>440.0</ele><time>2026-05-02T13:37:13.505Z</time></trkpt><trkpt lat="46.00283225797737" lon="11.2928726717939"><ele>440.0</ele><time>2026-05-02T13:37:14.505Z</time></trkpt><trkpt lat="46.002816436510194" lon="11.292547432940765"><ele>440.0</ele><time>2026-05-02T13:37:15.505Z</time></trkpt><trkpt lat="46.00280223896666" lon="11.292222968625618"><ele>440.5</ele><time>2026-05-02T13:37:16.505Z</time></trkpt><trkpt lat="46.002787419475354" lon="11.291889471554148"><ele>441.0</ele><time>2026-05-02T13:37:17.505Z</time></trkpt><trkpt lat="46.0027747116049" lon="11.291557554121741"><ele>442.0</ele><time>2026-05-02T13:37:18.505Z</time></trkpt><trkpt lat="46.002755522283266" lon="11.29122582102489"><ele>443.0</ele><time>2026-05-02T13:37:19.505Z</time></trkpt><trkpt lat="46.00273766993559" lon="11.290902970272553"><ele>443.0</ele><time>2026-05-02T13:37:20.505Z</time></trkpt><trkpt lat="46.00271748715538" lon="11.290607423305811"><ele>443.0</ele><time>2026-05-02T13:37:21.505Z</time></trkpt><trkpt lat="46.002701577048136" lon="11.290324362304846"><ele>443.0</ele><time>2026-05-02T13:37:22.505Z</time></trkpt><trkpt lat="46.00268083834004" lon="11.290059970814013"><ele>443.0</ele><time>2026-05-02T13:37:23.505Z</time></trkpt><trkpt lat="46.00266341015465" lon="11.289807690498844"><ele>443.0</ele><time>2026-05-02T13:37:24.505Z</time></trkpt><trkpt lat="46.00265102698082" lon="11.289563425966191"><ele>443.0</ele><time>2026-05-02T13:37:25.505Z</time></trkpt><trkpt lat="46.00264133305361" lon="11.28931706361927"><ele>443.0</ele><time>2026-05-02T13:37:26.505Z</time></trkpt><trkpt lat="46.00262763630929" lon="11.289069115300238"><ele>443.0</ele><time>2026-05-02T13:37:27.505Z</time></trkpt><trkpt lat="46.0026094262796" lon="11.28882199171134"><ele>443.0</ele><time>2026-05-02T13:37:28.505Z</time></trkpt><trkpt lat="46.00259175871814" lon="11.28856338101644"><ele>444.0</ele><time>2026-05-02T13:37:29.505Z</time></trkpt><trkpt lat="46.00258364326689" lon="11.28832473318464"><ele>445.0</ele><time>2026-05-02T13:37:30.505Z</time></trkpt><trkpt lat="46.00256985432031" lon="11.288100961218978"><ele>446.0</ele><time>2026-05-02T13:37:31.505Z</time></trkpt><trkpt lat="46.00256201145895" lon="11.287892706968439"><ele>446.25</ele><time>2026-05-02T13:37:32.505Z</time></trkpt><trkpt lat="46.002554946606686" lon="11.287687130215854"><ele>446.5</ele><time>2026-05-02T13:37:33.505Z</time></trkpt><trkpt lat="46.002546746511676" lon="11.287498731698708"><ele>446.75</ele><time>2026-05-02T13:37:34.505Z</time></trkpt><trkpt lat="46.0025388474157" lon="11.287308450591631"><ele>447.0</ele><time>2026-05-02T13:37:35.505Z</time></trkpt><trkpt lat="46.00252897457728" lon="11.28711675806244"><ele>447.0</ele><time>2026-05-02T13:37:36.505Z</time></trkpt><trkpt lat="46.00252292558805" lon="11.286928020807474"><ele>447.00000000000006</ele><time>2026-05-02T13:37:37.505Z</time></trkpt><trkpt lat="46.00251824212422" lon="11.286745915599598"><ele>447.00000000000006</ele><time>2026-05-02T13:37:38.505Z</time></trkpt><trkpt lat="46.00251322123933" lon="11.286599070121882"><ele>447.0</ele><time>2026-05-02T13:37:39.505Z</time></trkpt><trkpt lat="46.002516195703095" lon="11.286472653054721"><ele>447.0</ele><time>2026-05-02T13:37:40.505Z</time></trkpt><trkpt lat="46.002540550480695" lon="11.286365695978294"><ele>447.0</ele><time>2026-05-02T13:37:41.505Z</time></trkpt><trkpt lat="46.002604089164855" lon="11.286278820028587"><ele>447.0</ele><time>2026-05-02T13:37:42.505Z</time></trkpt><trkpt lat="46.002678943000525" lon="11.286243037844155"><ele>447.0</ele><time>2026-05-02T13:37:43.505Z</time></trkpt><trkpt lat="46.00276448968013" lon="11.286266821990154"><ele>447.0</ele><time>2026-05-02T13:37:44.505Z</time></trkpt><trkpt lat="46.002831767252225" lon="11.286346606794886"><ele>447.0</ele><time>2026-05-02T13:37:45.505Z</time></trkpt><trkpt lat="46.00284802884162" lon="11.286478056426443"><ele>447.0</ele><time>2026-05-02T13:37:46.505Z</time></trkpt><trkpt lat="46.002851666984824" lon="11.286602560158927"><ele>447.0</ele><time>2026-05-02T13:37:47.505Z</time></trkpt><trkpt lat="46.00285540683265" lon="11.286735787341597"><ele>447.00000000000006</ele><time>2026-05-02T13:37:48.505Z</time></trkpt><trkpt lat="46.00285731429895" lon="11.28684027596949"><ele>447.00000000000006</ele><time>2026-05-02T13:37:49.505Z</time></trkpt><trkpt lat="46.00278483502808" lon="11.28697627660661"><ele>447.0</ele><time>2026-05-02T13:37:51.505Z</time></trkpt><trkpt lat="46.002685435717275" lon="11.287008500502003"><ele>447.0</ele><time>2026-05-02T13:37:53.505Z</time></trkpt><trkpt lat="46.002569649636186" lon="11.286934697245945"><ele>447.25</ele><time>2026-05-02T13:37:55.505Z</time></trkpt><trkpt lat="46.00248402339915" lon="11.28680244118531"><ele>447.5</ele><time>2026-05-02T13:37:56.505Z</time></trkpt><trkpt lat="46.00239346144465" lon="11.28663268823511"><ele>447.75</ele><time>2026-05-02T13:37:57.505Z</time></trkpt><trkpt lat="46.00231516482177" lon="11.286499367040669"><ele>448.0</ele><time>2026-05-02T13:37:58.505Z</time></trkpt><trkpt lat="46.00224658261868" lon="11.286368887762714"><ele>448.00000000000006</ele><time>2026-05-02T13:37:59.505Z</time></trkpt><trkpt lat="46.00220366235086" lon="11.286236752255526"><ele>448.0</ele><time>2026-05-02T13:38:00.505Z</time></trkpt><trkpt lat="46.00214206729577" lon="11.286125895715163"><ele>448.0</ele><time>2026-05-02T13:38:01.505Z</time></trkpt><trkpt lat="46.00209229845385" lon="11.286032688342917"><ele>448.0</ele><time>2026-05-02T13:38:02.505Z</time></trkpt><trkpt lat="46.00205190684856" lon="11.28594550115562"><ele>448.00000000000006</ele><time>2026-05-02T13:38:03.505Z</time></trkpt><trkpt lat="46.00201638428041" lon="11.28585959501078"><ele>448.0</ele><time>2026-05-02T13:38:04.505Z</time></trkpt><trkpt lat="46.00197240804562" lon="11.285770396891154"><ele>448.0</ele><time>2026-05-02T13:38:05.505Z</time></trkpt><trkpt lat="46.00192472172419" lon="11.28567114496429"><ele>447.99999999999994</ele><time>2026-05-02T13:38:06.505Z</time></trkpt><trkpt lat="46.00188196605383" lon="11.285562186427075"><ele>447.99999999999994</ele><time>2026-05-02T13:38:07.505Z</time></trkpt><trkpt lat="46.001829262023875" lon="11.28544095509677"><ele>448.0</ele><time>2026-05-02T13:38:08.505Z</time></trkpt><trkpt lat="46.00175853830522" lon="11.2852956805575"><ele>448.0</ele><time>2026-05-02T13:38:09.505Z</time></trkpt><trkpt lat="46.00167760675536" lon="11.285095021138348"><ele>448.33333333333337</ele><time>2026-05-02T13:38:10.505Z</time></trkpt><trkpt lat="46.00156189068629" lon="11.284894199834591"><ele>448.66666666666663</ele><time>2026-05-02T13:38:11.505Z</time></trkpt><trkpt lat="46.001433609271686" lon="11.284741299862528"><ele>449.0</ele><time>2026-05-02T13:38:12.505Z</time></trkpt><trkpt lat="46.00133361098161" lon="11.284594170427125"><ele>449.5</ele><time>2026-05-02T13:38:13.505Z</time></trkpt><trkpt lat="46.00122681645028" lon="11.284470686332025"><ele>450.0</ele><time>2026-05-02T13:38:14.505Z</time></trkpt><trkpt lat="46.001112716569025" lon="11.284377156279938"><ele>450.5</ele><time>2026-05-02T13:38:15.505Z</time></trkpt><trkpt lat="46.00099785678342" lon="11.284258224369589"><ele>451.0</ele><time>2026-05-02T13:38:16.505Z</time></trkpt><trkpt lat="46.00087231686074" lon="11.284130392061934"><ele>451.0</ele><time>2026-05-02T13:38:17.505Z</time></trkpt><trkpt lat="46.00073702279152" lon="11.283985042461433"><ele>451.0</ele><time>2026-05-02T13:38:18.505Z</time></trkpt><trkpt lat="46.00060716298161" lon="11.283848877041917"><ele>451.0</ele><time>2026-05-02T13:38:19.505Z</time></trkpt><trkpt lat="46.000485114266326" lon="11.283712715280304"><ele>451.0</ele><time>2026-05-02T13:38:20.505Z</time></trkpt><trkpt lat="46.00036435788599" lon="11.28355110265901"><ele>451.0</ele><time>2026-05-02T13:38:21.505Z</time></trkpt><trkpt lat="46.000272159884794" lon="11.283352194523456"><ele>451.0</ele><time>2026-05-02T13:38:22.505Z</time></trkpt><trkpt lat="46.00018171211467" lon="11.283168438163168"><ele>451.0</ele><time>2026-05-02T13:38:23.505Z</time></trkpt><trkpt lat="46.00007253067627" lon="11.282972794239296"><ele>451.0</ele><time>2026-05-02T13:38:24.505Z</time></trkpt><trkpt lat="45.9999889690533" lon="11.282771760355253"><ele>451.0</ele><time>2026-05-02T13:38:25.505Z</time></trkpt><trkpt lat="45.99989873487294" lon="11.282588592577287"><ele>451.0</ele><time>2026-05-02T13:38:26.505Z</time></trkpt><trkpt lat="45.9998042823804" lon="11.282405793307046"><ele>451.0</ele><time>2026-05-02T13:38:27.505Z</time></trkpt><trkpt lat="45.9997341589039" lon="11.282220650790357"><ele>451.0</ele><time>2026-05-02T13:38:28.505Z</time></trkpt><trkpt lat="45.99965408443475" lon="11.282049657299858"><ele>451.0</ele><time>2026-05-02T13:38:29.505Z</time></trkpt><trkpt lat="45.99956650619103" lon="11.281883240974949"><ele>451.75</ele><time>2026-05-02T13:38:30.505Z</time></trkpt><trkpt lat="45.999505810997746" lon="11.281759489055522"><ele>452.5</ele><time>2026-05-02T13:38:31.505Z</time></trkpt><trkpt lat="45.99944366674867" lon="11.281635187817932"><ele>453.25</ele><time>2026-05-02T13:38:32.505Z</time></trkpt><trkpt lat="45.999369513193734" lon="11.281461966811138"><ele>454.0</ele><time>2026-05-02T13:38:33.505Z</time></trkpt><trkpt lat="45.99927258989226" lon="11.281272335827149"><ele>454.6666666666667</ele><time>2026-05-02T13:38:34.505Z</time></trkpt><trkpt lat="45.99916283334441" lon="11.281060387016083"><ele>455.33333333333337</ele><time>2026-05-02T13:38:35.505Z</time></trkpt><trkpt lat="45.99904623932249" lon="11.28082371474351"><ele>456.0</ele><time>2026-05-02T13:38:36.505Z</time></trkpt><trkpt lat="45.99889401073899" lon="11.280588969115112"><ele>456.0</ele><time>2026-05-02T13:38:37.505Z</time></trkpt><trkpt lat="45.9987340336587" lon="11.280345181881769"><ele>456.0</ele><time>2026-05-02T13:38:38.505Z</time></trkpt><trkpt lat="45.99854742736139" lon="11.280102080352956"><ele>456.0</ele><time>2026-05-02T13:38:39.505Z</time></trkpt><trkpt lat="45.998367602452056" lon="11.27982433617885"><ele>456.0</ele><time>2026-05-02T13:38:40.505Z</time></trkpt><trkpt lat="45.99817292451064" lon="11.27955282386573"><ele>457.5</ele><time>2026-05-02T13:38:41.505Z</time></trkpt><trkpt lat="45.99797021712038" lon="11.279267942482214"><ele>459.0</ele><time>2026-05-02T13:38:42.505Z</time></trkpt><trkpt lat="45.99778173200205" lon="11.279002957516333"><ele>459.0</ele><time>2026-05-02T13:38:43.505Z</time></trkpt><trkpt lat="45.99761170301539" lon="11.278763919726039"><ele>459.0</ele><time>2026-05-02T13:38:44.505Z</time></trkpt><trkpt lat="45.99745031325765" lon="11.278535207812737"><ele>460.66666666666663</ele><time>2026-05-02T13:38:45.505Z</time></trkpt><trkpt lat="45.99730362933714" lon="11.278314820990078"><ele>462.3333333333333</ele><time>2026-05-02T13:38:46.505Z</time></trkpt><trkpt lat="45.99717450086067" lon="11.278098992936046"><ele>464.0</ele><time>2026-05-02T13:38:47.505Z</time></trkpt><trkpt lat="45.99705810180076" lon="11.277870240791177"><ele>464.0</ele><time>2026-05-02T13:38:48.505Z</time></trkpt><trkpt lat="45.99694513205576" lon="11.277616856053271"><ele>464.0</ele><time>2026-05-02T13:38:49.505Z</time></trkpt><trkpt lat="45.99684357796918" lon="11.27736196825378"><ele>464.0</ele><time>2026-05-02T13:38:50.505Z</time></trkpt><trkpt lat="45.9967404966477" lon="11.27708866595669"><ele>464.0</ele><time>2026-05-02T13:38:51.505Z</time></trkpt><trkpt lat="45.99663641150458" lon="11.276815700731081"><ele>464.0</ele><time>2026-05-02T13:38:52.505Z</time></trkpt><trkpt lat="45.996527436427364" lon="11.276532546368806"><ele>464.0</ele><time>2026-05-02T13:38:53.505Z</time></trkpt><trkpt lat="45.99641899230386" lon="11.276250771641406"><ele>464.3333333333333</ele><time>2026-05-02T13:38:54.505Z</time></trkpt><trkpt lat="45.996311685732216" lon="11.275972085223966"><ele>464.66666666666663</ele><time>2026-05-02T13:38:55.505Z</time></trkpt><trkpt lat="45.99620603565067" lon="11.275699421291117"><ele>465.0</ele><time>2026-05-02T13:38:56.505Z</time></trkpt><trkpt lat="45.99610394547115" lon="11.275430551189388"><ele>465.0</ele><time>2026-05-02T13:38:57.505Z</time></trkpt><trkpt lat="45.996007693751224" lon="11.275167460317993"><ele>465.0</ele><time>2026-05-02T13:38:58.505Z</time></trkpt><trkpt lat="45.99592460187447" lon="11.274927509360788"><ele>465.0</ele><time>2026-05-02T13:38:59.505Z</time></trkpt><trkpt lat="45.99584565276105" lon="11.274688081566225"><ele>465.66666666666663</ele><time>2026-05-02T13:39:00.505Z</time></trkpt><trkpt lat="45.995772972832725" lon="11.274462164131728"><ele>466.3333333333333</ele><time>2026-05-02T13:39:01.505Z</time></trkpt><trkpt lat="45.995703248905144" lon="11.27424543514985"><ele>467.0</ele><time>2026-05-02T13:39:02.505Z</time></trkpt><trkpt lat="45.99562024827605" lon="11.274042580664828"><ele>466.75</ele><time>2026-05-02T13:39:03.505Z</time></trkpt><trkpt lat="45.99557256666982" lon="11.27383922406985"><ele>466.5</ele><time>2026-05-02T13:39:04.505Z</time></trkpt><trkpt lat="45.99551299621877" lon="11.273654055630013"><ele>466.25</ele><time>2026-05-02T13:39:05.505Z</time></trkpt><trkpt lat="45.995454820816356" lon="11.27347764138619"><ele>466.0</ele><time>2026-05-02T13:39:06.505Z</time></trkpt><trkpt lat="45.995395951794144" lon="11.273298625814919"><ele>466.0</ele><time>2026-05-02T13:39:07.505Z</time></trkpt><trkpt lat="45.995341452715735" lon="11.273126092331859"><ele>466.0</ele><time>2026-05-02T13:39:08.505Z</time></trkpt><trkpt lat="45.99529133518758" lon="11.272960682998344"><ele>466.0</ele><time>2026-05-02T13:39:09.505Z</time></trkpt><trkpt lat="45.995246005798535" lon="11.272805986230914"><ele>466.0</ele><time>2026-05-02T13:39:10.505Z</time></trkpt><trkpt lat="45.995187322831384" lon="11.272638392393487"><ele>466.0</ele><time>2026-05-02T13:39:11.505Z</time></trkpt><trkpt lat="45.99516993689645" lon="11.272450679712339"><ele>466.0</ele><time>2026-05-02T13:39:12.505Z</time></trkpt><trkpt lat="45.99514570240464" lon="11.272263576606498"><ele>466.0</ele><time>2026-05-02T13:39:13.505Z</time></trkpt><trkpt lat="45.99513268069374" lon="11.272068659515337"><ele>466.0</ele><time>2026-05-02T13:39:14.505Z</time></trkpt><trkpt lat="45.995133496184515" lon="11.27186607681089"><ele>466.33333333333337</ele><time>2026-05-02T13:39:15.505Z</time></trkpt><trkpt lat="45.99514691986588" lon="11.271661523712252"><ele>466.66666666666663</ele><time>2026-05-02T13:39:16.505Z</time></trkpt><trkpt lat="45.99516132800442" lon="11.271436599305893"><ele>467.0</ele><time>2026-05-02T13:39:17.505Z</time></trkpt><trkpt lat="45.995198895859446" lon="11.271218108195852"><ele>468.0</ele><time>2026-05-02T13:39:18.505Z</time></trkpt><trkpt lat="45.99526200271661" lon="11.27099844638197"><ele>469.0</ele><time>2026-05-02T13:39:19.505Z</time></trkpt><trkpt lat="45.9953149879419" lon="11.270776851751457"><ele>470.0</ele><time>2026-05-02T13:39:20.505Z</time></trkpt><trkpt lat="45.99540108885092" lon="11.270521515538844"><ele>470.3333333333333</ele><time>2026-05-02T13:39:21.505Z</time></trkpt><trkpt lat="45.99550413907107" lon="11.270255423466708"><ele>470.66666666666663</ele><time>2026-05-02T13:39:22.505Z</time></trkpt><trkpt lat="45.995592925915446" lon="11.26999219093734"><ele>471.0</ele><time>2026-05-02T13:39:23.505Z</time></trkpt><trkpt lat="45.995673660829326" lon="11.269745222957065"><ele>471.0</ele><time>2026-05-02T13:39:24.505Z</time></trkpt><trkpt lat="45.995748068401426" lon="11.2695149104905"><ele>471.0</ele><time>2026-05-02T13:39:25.505Z</time></trkpt><trkpt lat="45.99582494605921" lon="11.269272294414277"><ele>471.0</ele><time>2026-05-02T13:39:26.505Z</time></trkpt><trkpt lat="45.99590480718918" lon="11.269038782575924"><ele>470.66666666666663</ele><time>2026-05-02T13:39:27.505Z</time></trkpt><trkpt lat="45.995984823883205" lon="11.268812392775994"><ele>470.3333333333333</ele><time>2026-05-02T13:39:28.505Z</time></trkpt><trkpt lat="45.9960606029749" lon="11.268594961516257"><ele>470.0</ele><time>2026-05-02T13:39:29.505Z</time></trkpt><trkpt lat="45.99612829442906" lon="11.268383235101956"><ele>470.0</ele><time>2026-05-02T13:39:30.506Z</time></trkpt><trkpt lat="45.99620770336281" lon="11.26819697380067"><ele>470.0</ele><time>2026-05-02T13:39:31.506Z</time></trkpt><trkpt lat="45.99627408443239" lon="11.268004251433394"><ele>470.0</ele><time>2026-05-02T13:39:32.506Z</time></trkpt><trkpt lat="45.996339923410964" lon="11.267811318253063"><ele>470.0</ele><time>2026-05-02T13:39:33.506Z</time></trkpt><trkpt lat="45.99640424261307" lon="11.267622838546508"><ele>470.0</ele><time>2026-05-02T13:39:34.506Z</time></trkpt><trkpt lat="45.996450924882176" lon="11.267434386147077"><ele>470.0</ele><time>2026-05-02T13:39:35.506Z</time></trkpt><trkpt lat="45.99652345379821" lon="11.267273504498231"><ele>470.0</ele><time>2026-05-02T13:39:36.506Z</time></trkpt><trkpt lat="45.99658200043638" lon="11.267101940637797"><ele>470.0</ele><time>2026-05-02T13:39:37.506Z</time></trkpt><trkpt lat="45.99663478327019" lon="11.26694726665609"><ele>470.0</ele><time>2026-05-02T13:39:38.506Z</time></trkpt><trkpt lat="45.99668743912849" lon="11.266794046860653"><ele>470.0</ele><time>2026-05-02T13:39:39.506Z</time></trkpt><trkpt lat="45.9967369091521" lon="11.266650026198448"><ele>470.0</ele><time>2026-05-02T13:39:40.506Z</time></trkpt><trkpt lat="45.99678987727174" lon="11.266495821605108"><ele>469.0</ele><time>2026-05-02T13:39:41.506Z</time></trkpt><trkpt lat="45.99683484909306" lon="11.266324755018099"><ele>468.0</ele><time>2026-05-02T13:39:42.506Z</time></trkpt><trkpt lat="45.99689310330675" lon="11.266162699850899"><ele>467.0</ele><time>2026-05-02T13:39:43.506Z</time></trkpt><trkpt lat="45.99695454410784" lon="11.265987140388818"><ele>466.0</ele><time>2026-05-02T13:39:44.506Z</time></trkpt><trkpt lat="45.99700750112666" lon="11.265794222657002"><ele>466.33333333333337</ele><time>2026-05-02T13:39:45.506Z</time></trkpt><trkpt lat="45.99705801164551" lon="11.265591267765208"><ele>466.66666666666663</ele><time>2026-05-02T13:39:46.506Z</time></trkpt><trkpt lat="45.99710405279585" lon="11.265379415459485"><ele>467.0</ele><time>2026-05-02T13:39:47.506Z</time></trkpt><trkpt lat="45.99712698768655" lon="11.265166524342403"><ele>467.0</ele><time>2026-05-02T13:39:48.506Z</time></trkpt><trkpt lat="45.997148979946445" lon="11.264956323972811"><ele>467.0</ele><time>2026-05-02T13:39:49.506Z</time></trkpt><trkpt lat="45.99716392550078" lon="11.264729095782675"><ele>467.0</ele><time>2026-05-02T13:39:50.506Z</time></trkpt><trkpt lat="45.997172761054685" lon="11.264496823406796"><ele>466.3333333333333</ele><time>2026-05-02T13:39:51.506Z</time></trkpt><trkpt lat="45.99716173229158" lon="11.264260177775824"><ele>465.66666666666663</ele><time>2026-05-02T13:39:52.506Z</time></trkpt><trkpt lat="45.99715415190586" lon="11.26401953646559"><ele>465.0</ele><time>2026-05-02T13:39:53.506Z</time></trkpt><trkpt lat="45.99714809202319" lon="11.263783644036714"><ele>464.66666666666663</ele><time>2026-05-02T13:39:54.506Z</time></trkpt><trkpt lat="45.99714480596234" lon="11.263544204411655"><ele>464.3333333333333</ele><time>2026-05-02T13:39:55.506Z</time></trkpt><trkpt lat="45.997139954223165" lon="11.263308652934429"><ele>464.0</ele><time>2026-05-02T13:39:56.506Z</time></trkpt><trkpt lat="45.99713844505294" lon="11.26306876711592"><ele>463.66666666666663</ele><time>2026-05-02T13:39:57.506Z</time></trkpt><trkpt lat="45.9971312460949" lon="11.262832649670576"><ele>463.33333333333337</ele><time>2026-05-02T13:39:58.506Z</time></trkpt><trkpt lat="45.997124093322576" lon="11.262590461064015"><ele>463.0</ele><time>2026-05-02T13:39:59.506Z</time></trkpt><trkpt lat="45.99712026438424" lon="11.262337905121639"><ele>463.33333333333337</ele><time>2026-05-02T13:40:00.506Z</time></trkpt><trkpt lat="45.99711479847662" lon="11.262070808939848"><ele>463.66666666666663</ele><time>2026-05-02T13:40:01.506Z</time></trkpt><trkpt lat="45.99709844515023" lon="11.261812499792478"><ele>464.0</ele><time>2026-05-02T13:40:02.506Z</time></trkpt><trkpt lat="45.99706445200973" lon="11.261571515280082"><ele>464.0</ele><time>2026-05-02T13:40:03.506Z</time></trkpt><trkpt lat="45.997012256341314" lon="11.261327924514262"><ele>464.0</ele><time>2026-05-02T13:40:04.506Z</time></trkpt><trkpt lat="45.99695455889087" lon="11.261079177704355"><ele>464.0</ele><time>2026-05-02T13:40:05.506Z</time></trkpt><trkpt lat="45.996887213401145" lon="11.260826369558313"><ele>463.66666666666663</ele><time>2026-05-02T13:40:06.506Z</time></trkpt><trkpt lat="45.996817744307485" lon="11.260573759211713"><ele>463.33333333333337</ele><time>2026-05-02T13:40:07.506Z</time></trkpt><trkpt lat="45.996753292770165" lon="11.260319176963137"><ele>463.0</ele><time>2026-05-02T13:40:08.506Z</time></trkpt><trkpt lat="45.996693913298515" lon="11.260075114284218"><ele>463.33333333333337</ele><time>2026-05-02T13:40:09.506Z</time></trkpt><trkpt lat="45.996633812855976" lon="11.259848777306381"><ele>463.66666666666663</ele><time>2026-05-02T13:40:10.506Z</time></trkpt><trkpt lat="45.996568814065746" lon="11.259616671079298"><ele>464.0</ele><time>2026-05-02T13:40:11.506Z</time></trkpt><trkpt lat="45.99650503764077" lon="11.259382053053722"><ele>464.0</ele><time>2026-05-02T13:40:12.506Z</time></trkpt><trkpt lat="45.99645190567039" lon="11.259144981677032"><ele>464.0</ele><time>2026-05-02T13:40:13.506Z</time></trkpt><trkpt lat="45.99639782254533" lon="11.258923703387689"><ele>464.0</ele><time>2026-05-02T13:40:14.506Z</time></trkpt><trkpt lat="45.99633606750592" lon="11.258707686106117"><ele>464.0</ele><time>2026-05-02T13:40:15.506Z</time></trkpt><trkpt lat="45.99627799954725" lon="11.258496674362073"><ele>464.0</ele><time>2026-05-02T13:40:16.506Z</time></trkpt><trkpt lat="45.99622896820598" lon="11.258294786174803"><ele>464.0</ele><time>2026-05-02T13:40:17.506Z</time></trkpt><trkpt lat="45.99617962112172" lon="11.258096892289824"><ele>463.75</ele><time>2026-05-02T13:40:18.506Z</time></trkpt><trkpt lat="45.99612838104751" lon="11.257907410661362"><ele>463.5</ele><time>2026-05-02T13:40:19.506Z</time></trkpt><trkpt lat="45.99608066384441" lon="11.257719943861872"><ele>463.25</ele><time>2026-05-02T13:40:20.506Z</time></trkpt><trkpt lat="45.9960378305683" lon="11.257550081014122"><ele>463.0</ele><time>2026-05-02T13:40:21.506Z</time></trkpt><trkpt lat="45.99599104835441" lon="11.257401185503255"><ele>462.25</ele><time>2026-05-02T13:40:22.506Z</time></trkpt><trkpt lat="45.99595078993601" lon="11.257230096741079"><ele>461.5</ele><time>2026-05-02T13:40:23.506Z</time></trkpt><trkpt lat="45.995914544372" lon="11.257062222049992"><ele>460.75</ele><time>2026-05-02T13:40:24.506Z</time></trkpt><trkpt lat="45.99589006403763" lon="11.25690237648812"><ele>460.0</ele><time>2026-05-02T13:40:25.506Z</time></trkpt><trkpt lat="45.99587226136004" lon="11.256766176876864"><ele>460.00000000000006</ele><time>2026-05-02T13:40:26.506Z</time></trkpt><trkpt lat="45.9958629888659" lon="11.256643637351793"><ele>460.0</ele><time>2026-05-02T13:40:27.506Z</time></trkpt><trkpt lat="45.99587849620295" lon="11.256520406418208"><ele>460.0</ele><time>2026-05-02T13:40:28.506Z</time></trkpt><trkpt lat="45.99590923910204" lon="11.25641677107121"><ele>460.0</ele><time>2026-05-02T13:40:29.506Z</time></trkpt><trkpt lat="45.995977281445626" lon="11.256327552370479"><ele>460.00000000000006</ele><time>2026-05-02T13:40:30.506Z</time></trkpt><trkpt lat="45.99603104888083" lon="11.256232639484406"><ele>460.0</ele><time>2026-05-02T13:40:31.506Z</time></trkpt><trkpt lat="45.99604942351553" lon="11.256126541548777"><ele>459.8</ele><time>2026-05-02T13:40:32.506Z</time></trkpt><trkpt lat="45.996059193773974" lon="11.256004399275268"><ele>459.6</ele><time>2026-05-02T13:40:33.506Z</time></trkpt><trkpt lat="45.996000705603294" lon="11.255879938759817"><ele>459.4</ele><time>2026-05-02T13:40:34.506Z</time></trkpt><trkpt lat="45.9959953799443" lon="11.25571469353444"><ele>459.2</ele><time>2026-05-02T13:40:35.506Z</time></trkpt><trkpt lat="45.996012276763906" lon="11.255528678490972"><ele>459.0</ele><time>2026-05-02T13:40:36.506Z</time></trkpt><trkpt lat="45.996057836164184" lon="11.25533514145748"><ele>458.66666666666663</ele><time>2026-05-02T13:40:37.506Z</time></trkpt><trkpt lat="45.99613109862128" lon="11.255125473246133"><ele>458.3333333333333</ele><time>2026-05-02T13:40:38.506Z</time></trkpt><trkpt lat="45.99622332531408" lon="11.254882750800443"><ele>458.0</ele><time>2026-05-02T13:40:39.506Z</time></trkpt><trkpt lat="45.996313992006" lon="11.254654467882204"><ele>458.66666666666663</ele><time>2026-05-02T13:40:40.506Z</time></trkpt><trkpt lat="45.996400851630376" lon="11.254442033444267"><ele>459.33333333333337</ele><time>2026-05-02T13:40:41.506Z</time></trkpt><trkpt lat="45.99648362015398" lon="11.254236489264194"><ele>460.0</ele><time>2026-05-02T13:40:42.506Z</time></trkpt><trkpt lat="45.996566932821075" lon="11.254008604472189"><ele>458.0</ele><time>2026-05-02T13:40:43.506Z</time></trkpt><trkpt lat="45.99667371963625" lon="11.253756223080822"><ele>456.0</ele><time>2026-05-02T13:40:44.506Z</time></trkpt><trkpt lat="45.99678495778844" lon="11.25346584399121"><ele>454.0</ele><time>2026-05-02T13:40:45.506Z</time></trkpt><trkpt lat="45.99690854846245" lon="11.253152423939808"><ele>454.6666666666667</ele><time>2026-05-02T13:40:46.506Z</time></trkpt><trkpt lat="45.99701773448198" lon="11.252855757624229"><ele>455.33333333333337</ele><time>2026-05-02T13:40:47.506Z</time></trkpt><trkpt lat="45.99712278076229" lon="11.252590783136132"><ele>456.0</ele><time>2026-05-02T13:40:48.506Z</time></trkpt><trkpt lat="45.997230312892384" lon="11.252313345508636"><ele>456.0</ele><time>2026-05-02T13:40:49.506Z</time></trkpt><trkpt lat="45.99734641766867" lon="11.252017813739114"><ele>456.0</ele><time>2026-05-02T13:40:50.506Z</time></trkpt><trkpt lat="45.99746574537362" lon="11.251710205559146"><ele>454.5</ele><time>2026-05-02T13:40:51.506Z</time></trkpt><trkpt lat="45.99758961251955" lon="11.251389430504974"><ele>453.0</ele><time>2026-05-02T13:40:52.506Z</time></trkpt><trkpt lat="45.99771754516171" lon="11.25104721773967"><ele>453.0</ele><time>2026-05-02T13:40:53.506Z</time></trkpt><trkpt lat="45.997833547101365" lon="11.250731147133953"><ele>453.0</ele><time>2026-05-02T13:40:54.506Z</time></trkpt><trkpt lat="45.9979465292335" lon="11.250443123136034"><ele>453.0</ele><time>2026-05-02T13:40:55.506Z</time></trkpt><trkpt lat="45.99804847642679" lon="11.250167561051665"><ele>453.0</ele><time>2026-05-02T13:40:56.506Z</time></trkpt><trkpt lat="45.99816222135355" lon="11.249894301303204"><ele>453.0</ele><time>2026-05-02T13:40:57.506Z</time></trkpt><trkpt lat="45.99826685298805" lon="11.249619721173003"><ele>452.66666666666663</ele><time>2026-05-02T13:40:58.506Z</time></trkpt><trkpt lat="45.99837596992915" lon="11.249337155594256"><ele>452.3333333333333</ele><time>2026-05-02T13:40:59.506Z</time></trkpt><trkpt lat="45.99847448314906" lon="11.249063200481933"><ele>452.0</ele><time>2026-05-02T13:41:00.506Z</time></trkpt><trkpt lat="45.998567388030985" lon="11.24880849761772"><ele>452.0</ele><time>2026-05-02T13:41:01.506Z</time></trkpt><trkpt lat="45.998659545867525" lon="11.248564671283177"><ele>452.0</ele><time>2026-05-02T13:41:02.506Z</time></trkpt><trkpt lat="45.998757961263635" lon="11.248354267698518"><ele>452.0</ele><time>2026-05-02T13:41:03.506Z</time></trkpt><trkpt lat="45.99885621686474" lon="11.248118967355323"><ele>452.0</ele><time>2026-05-02T13:41:04.506Z</time></trkpt><trkpt lat="45.998983482300666" lon="11.24791101000216"><ele>452.0</ele><time>2026-05-02T13:41:05.506Z</time></trkpt><trkpt lat="45.999114675268345" lon="11.247722159821336"><ele>452.0</ele><time>2026-05-02T13:41:06.506Z</time></trkpt><trkpt lat="45.999259337842446" lon="11.247533435242113"><ele>452.3333333333333</ele><time>2026-05-02T13:41:07.506Z</time></trkpt><trkpt lat="45.99938301786949" lon="11.247364572061917"><ele>452.66666666666663</ele><time>2026-05-02T13:41:08.506Z</time></trkpt><trkpt lat="45.99952509217401" lon="11.247202136701011"><ele>453.0</ele><time>2026-05-02T13:41:09.506Z</time></trkpt><trkpt lat="45.99964329299052" lon="11.24699923765281"><ele>453.0</ele><time>2026-05-02T13:41:10.506Z</time></trkpt><trkpt lat="45.99983545117649" lon="11.246958309780082"><ele>453.0</ele><time>2026-05-02T13:41:11.506Z</time></trkpt><trkpt lat="45.99999481900068" lon="11.246847661237842"><ele>453.0</ele><time>2026-05-02T13:41:12.506Z</time></trkpt><trkpt lat="46.00014228572371" lon="11.246742224168209"><ele>453.0</ele><time>2026-05-02T13:41:13.506Z</time></trkpt><trkpt lat="46.000269833473375" lon="11.24664853390939"><ele>453.0</ele><time>2026-05-02T13:41:14.506Z</time></trkpt><trkpt lat="46.00038121659821" lon="11.246576084230018"><ele>453.0</ele><time>2026-05-02T13:41:15.506Z</time></trkpt><trkpt lat="46.00049246026552" lon="11.246531497486847"><ele>453.0</ele><time>2026-05-02T13:41:16.506Z</time></trkpt><trkpt lat="46.00060005566088" lon="11.246534215601772"><ele>453.0</ele><time>2026-05-02T13:41:17.506Z</time></trkpt><trkpt lat="46.00069588576388" lon="11.246490644079566"><ele>453.0</ele><time>2026-05-02T13:41:18.506Z</time></trkpt><trkpt lat="46.00078699865842" lon="11.246413529118184"><ele>453.0</ele><time>2026-05-02T13:41:19.506Z</time></trkpt><trkpt lat="46.00083598239257" lon="11.246261376694923"><ele>453.0</ele><time>2026-05-02T13:41:20.506Z</time></trkpt><trkpt lat="46.000951965842" lon="11.246160724124927"><ele>453.33333333333337</ele><time>2026-05-02T13:41:21.506Z</time></trkpt><trkpt lat="46.001097560471656" lon="11.246075443136094"><ele>453.6666666666667</ele><time>2026-05-02T13:41:22.506Z</time></trkpt><trkpt lat="46.001248523127266" lon="11.24597296213726"><ele>454.0</ele><time>2026-05-02T13:41:23.506Z</time></trkpt><trkpt lat="46.00140354287169" lon="11.245857583308847"><ele>454.0</ele><time>2026-05-02T13:41:24.506Z</time></trkpt><trkpt lat="46.00155770316414" lon="11.245746383927816"><ele>454.0</ele><time>2026-05-02T13:41:25.506Z</time></trkpt><trkpt lat="46.00170637070421" lon="11.24564705430475"><ele>454.0</ele><time>2026-05-02T13:41:26.506Z</time></trkpt><trkpt lat="46.0018482053421" lon="11.245554717612663"><ele>454.33333333333337</ele><time>2026-05-02T13:41:27.506Z</time></trkpt><trkpt lat="46.00199796449511" lon="11.245447296088576"><ele>454.66666666666663</ele><time>2026-05-02T13:41:28.506Z</time></trkpt><trkpt lat="46.00214847660916" lon="11.245344629374262"><ele>455.0</ele><time>2026-05-02T13:41:29.506Z</time></trkpt><trkpt lat="46.002291104878566" lon="11.245251678327422"><ele>455.0</ele><time>2026-05-02T13:41:30.506Z</time></trkpt><trkpt lat="46.00242160775481" lon="11.245168860711702"><ele>455.0</ele><time>2026-05-02T13:41:31.506Z</time></trkpt><trkpt lat="46.00254848725535" lon="11.245083179089695"><ele>455.0</ele><time>2026-05-02T13:41:32.506Z</time></trkpt><trkpt lat="46.0026757123854" lon="11.244989832603272"><ele>455.0</ele><time>2026-05-02T13:41:33.506Z</time></trkpt><trkpt lat="46.00280719100797" lon="11.24489301439836"><ele>456.66666666666663</ele><time>2026-05-02T13:41:34.506Z</time></trkpt><trkpt lat="46.00294272976759" lon="11.244789353774998"><ele>458.33333333333337</ele><time>2026-05-02T13:41:35.506Z</time></trkpt><trkpt lat="46.00308660942033" lon="11.244681550513434"><ele>460.0</ele><time>2026-05-02T13:41:36.506Z</time></trkpt><trkpt lat="46.003218569865545" lon="11.244565947283633"><ele>460.0</ele><time>2026-05-02T13:41:37.506Z</time></trkpt><trkpt lat="46.00331467452947" lon="11.244440383863767"><ele>460.0</ele><time>2026-05-02T13:41:38.506Z</time></trkpt><trkpt lat="46.003408452708534" lon="11.244328417606031"><ele>460.0</ele><time>2026-05-02T13:41:39.506Z</time></trkpt><trkpt lat="46.00349483035779" lon="11.244227950563483"><ele>460.0</ele><time>2026-05-02T13:41:40.506Z</time></trkpt><trkpt lat="46.00354954306687" lon="11.24412583363153"><ele>460.0</ele><time>2026-05-02T13:41:41.506Z</time></trkpt><trkpt lat="46.00360886644108" lon="11.24403867893778"><ele>460.0</ele><time>2026-05-02T13:41:42.506Z</time></trkpt><trkpt lat="46.003685150436006" lon="11.243941580380703"><ele>460.0</ele><time>2026-05-02T13:41:43.506Z</time></trkpt><trkpt lat="46.00374229102794" lon="11.243840086431284"><ele>460.0</ele><time>2026-05-02T13:41:44.506Z</time></trkpt><trkpt lat="46.00382671159582" lon="11.243729573746425"><ele>460.0</ele><time>2026-05-02T13:41:45.506Z</time></trkpt><trkpt lat="46.00390546424101" lon="11.243606815801215"><ele>460.0</ele><time>2026-05-02T13:41:46.506Z</time></trkpt><trkpt lat="46.00399932224751" lon="11.243479854357453"><ele>460.0</ele><time>2026-05-02T13:41:47.506Z</time></trkpt><trkpt lat="46.00410425022776" lon="11.243351517118205"><ele>460.0</ele><time>2026-05-02T13:41:48.506Z</time></trkpt><trkpt lat="46.00420722648456" lon="11.243212602883185"><ele>460.0</ele><time>2026-05-02T13:41:49.506Z</time></trkpt><trkpt lat="46.00430639866466" lon="11.243087178767583"><ele>460.4</ele><time>2026-05-02T13:41:50.506Z</time></trkpt><trkpt lat="46.00439823814574" lon="11.24297062884237"><ele>460.8</ele><time>2026-05-02T13:41:51.506Z</time></trkpt><trkpt lat="46.00446976605171" lon="11.24287391436671"><ele>461.20000000000005</ele><time>2026-05-02T13:41:52.506Z</time></trkpt><trkpt lat="46.0045287435774" lon="11.242802290905324"><ele>461.6</ele><time>2026-05-02T13:41:53.506Z</time></trkpt><trkpt lat="46.00460779270415" lon="11.242673723139617"><ele>462.0</ele><time>2026-05-02T13:41:55.506Z</time></trkpt><trkpt lat="46.0047129719076" lon="11.24254963155807"><ele>462.0</ele><time>2026-05-02T13:41:57.506Z</time></trkpt><trkpt lat="46.00477520359281" lon="11.242459596523648"><ele>462.0</ele><time>2026-05-02T13:41:58.506Z</time></trkpt><trkpt lat="46.00482826131721" lon="11.24238817832872"><ele>462.0</ele><time>2026-05-02T13:41:59.506Z</time></trkpt><trkpt lat="46.004876183701604" lon="11.242321059556108"><ele>462.0</ele><time>2026-05-02T13:42:00.506Z</time></trkpt><trkpt lat="46.00493698780752" lon="11.242263885989333"><ele>462.0</ele><time>2026-05-02T13:42:01.506Z</time></trkpt><trkpt lat="46.00500482640409" lon="11.242228881959251"><ele>462.0</ele><time>2026-05-02T13:42:02.506Z</time></trkpt><trkpt lat="46.00511337773313" lon="11.242190776446913"><ele>462.20000000000005</ele><time>2026-05-02T13:42:04.506Z</time></trkpt><trkpt lat="46.005160562014986" lon="11.242036793187362"><ele>462.40000000000003</ele><time>2026-05-02T13:42:06.506Z</time></trkpt><trkpt lat="46.00514660716486" lon="11.241921669383498"><ele>462.59999999999997</ele><time>2026-05-02T13:42:07.506Z</time></trkpt><trkpt lat="46.00513468405872" lon="11.241786984202145"><ele>462.79999999999995</ele><time>2026-05-02T13:42:08.506Z</time></trkpt><trkpt lat="46.00516029814056" lon="11.24167150574522"><ele>463.0</ele><time>2026-05-02T13:42:09.506Z</time></trkpt><trkpt lat="46.00521718276833" lon="11.24154440413772"><ele>465.0</ele><time>2026-05-02T13:42:10.506Z</time></trkpt><trkpt lat="46.005309194361736" lon="11.241399114538881"><ele>467.0</ele><time>2026-05-02T13:42:11.506Z</time></trkpt><trkpt lat="46.00542646290582" lon="11.241245526601551"><ele>469.0</ele><time>2026-05-02T13:42:12.506Z</time></trkpt><trkpt lat="46.00550875628721" lon="11.24109283108063"><ele>471.0</ele><time>2026-05-02T13:42:13.506Z</time></trkpt><trkpt lat="46.005571148085494" lon="11.24089848456689"><ele>471.0</ele><time>2026-05-02T13:42:14.506Z</time></trkpt><trkpt lat="46.00559079815767" lon="11.240681304919896"><ele>471.0</ele><time>2026-05-02T13:42:15.506Z</time></trkpt><trkpt lat="46.00558372229941" lon="11.240417621893775"><ele>471.0</ele><time>2026-05-02T13:42:16.506Z</time></trkpt><trkpt lat="46.00562509249368" lon="11.240167029967877"><ele>475.66666666666663</ele><time>2026-05-02T13:42:17.506Z</time></trkpt><trkpt lat="46.005720468934584" lon="11.239926769255707"><ele>480.3333333333333</ele><time>2026-05-02T13:42:18.506Z</time></trkpt><trkpt lat="46.00583962200017" lon="11.239666774177946"><ele>485.0</ele><time>2026-05-02T13:42:19.506Z</time></trkpt><trkpt lat="46.00595988980932" lon="11.239431639859621"><ele>485.66666666666663</ele><time>2026-05-02T13:42:20.506Z</time></trkpt><trkpt lat="46.00607681091341" lon="11.239251679681825"><ele>486.33333333333337</ele><time>2026-05-02T13:42:21.506Z</time></trkpt><trkpt lat="46.00620749786589" lon="11.23907694918484"><ele>487.0</ele><time>2026-05-02T13:42:22.506Z</time></trkpt><trkpt lat="46.006325829744036" lon="11.238908751923836"><ele>490.0</ele><time>2026-05-02T13:42:23.506Z</time></trkpt><trkpt lat="46.006429421669004" lon="11.238786337956041"><ele>493.00000000000006</ele><time>2026-05-02T13:42:24.506Z</time></trkpt><trkpt lat="46.00652451139966" lon="11.238712868408308"><ele>496.00000000000006</ele><time>2026-05-02T13:42:25.506Z</time></trkpt><trkpt lat="46.00660125907338" lon="11.238644717647214"><ele>499.0</ele><time>2026-05-02T13:42:26.506Z</time></trkpt><trkpt lat="46.006633049522684" lon="11.238517884596728"><ele>502.0</ele><time>2026-05-02T13:42:27.506Z</time></trkpt><trkpt lat="46.006576817189455" lon="11.238398187710208"><ele>502.0</ele><time>2026-05-02T13:42:28.506Z</time></trkpt><trkpt lat="46.00644949807022" lon="11.238343610998722"><ele>502.0</ele><time>2026-05-02T13:42:29.506Z</time></trkpt><trkpt lat="46.00635243441425" lon="11.238359276389543"><ele>502.0</ele><time>2026-05-02T13:42:30.506Z</time></trkpt><trkpt lat="46.00624935499871" lon="11.238523427677768"><ele>502.0</ele><time>2026-05-02T13:42:31.506Z</time></trkpt><trkpt lat="46.006121503971684" lon="11.238701661466553"><ele>502.0</ele><time>2026-05-02T13:42:32.506Z</time></trkpt><trkpt lat="46.00598226228931" lon="11.238839766164164"><ele>502.0</ele><time>2026-05-02T13:42:33.506Z</time></trkpt><trkpt lat="46.005844681402564" lon="11.23901268406746"><ele>502.0</ele><time>2026-05-02T13:42:34.506Z</time></trkpt><trkpt lat="46.00572806512039" lon="11.239121169769719"><ele>502.5</ele><time>2026-05-02T13:42:35.506Z</time></trkpt><trkpt lat="46.00562478660111" lon="11.239196115306193"><ele>503.0</ele><time>2026-05-02T13:42:36.506Z</time></trkpt><trkpt lat="46.00552479770656" lon="11.2392597648143"><ele>503.5</ele><time>2026-05-02T13:42:37.506Z</time></trkpt><trkpt lat="46.005411807844396" lon="11.239117188645803"><ele>504.0</ele><time>2026-05-02T13:42:39.506Z</time></trkpt><trkpt lat="46.00535135301962" lon="11.238920473781143"><ele>504.0</ele><time>2026-05-02T13:42:40.506Z</time></trkpt><trkpt lat="46.005349070971334" lon="11.23879331385402"><ele>504.0</ele><time>2026-05-02T13:42:41.506Z</time></trkpt><trkpt lat="46.00540489978209" lon="11.238732289360545"><ele>504.0</ele><time>2026-05-02T13:42:42.506Z</time></trkpt><trkpt lat="46.00555304159305" lon="11.238561937349077"><ele>504.0</ele><time>2026-05-02T13:42:43.506Z</time></trkpt><trkpt lat="46.005686390162225" lon="11.238390299991895"><ele>504.0</ele><time>2026-05-02T13:42:44.506Z</time></trkpt><trkpt lat="46.0058232571249" lon="11.238206806185653"><ele>504.0</ele><time>2026-05-02T13:42:45.506Z</time></trkpt><trkpt lat="46.005946856134216" lon="11.238051520489924"><ele>504.0</ele><time>2026-05-02T13:42:46.506Z</time></trkpt><trkpt lat="46.006051583997305" lon="11.237914444827823"><ele>505.75</ele><time>2026-05-02T13:42:47.506Z</time></trkpt><trkpt lat="46.00615920820098" lon="11.23779405373349"><ele>507.5</ele><time>2026-05-02T13:42:48.506Z</time></trkpt><trkpt lat="46.00626050233084" lon="11.237663026760385"><ele>509.25</ele><time>2026-05-02T13:42:49.506Z</time></trkpt><trkpt lat="46.006346749860015" lon="11.23754785147338"><ele>511.0</ele><time>2026-05-02T13:42:50.506Z</time></trkpt><trkpt lat="46.00642674700174" lon="11.237446143811843"><ele>511.0</ele><time>2026-05-02T13:42:51.506Z</time></trkpt><trkpt lat="46.00650028534747" lon="11.237348333122597"><ele>511.0</ele><time>2026-05-02T13:42:52.506Z</time></trkpt><trkpt lat="46.00657772238815" lon="11.237245670737142"><ele>511.0</ele><time>2026-05-02T13:42:53.506Z</time></trkpt><trkpt lat="46.00665768752885" lon="11.237140463819683"><ele>511.0</ele><time>2026-05-02T13:42:54.506Z</time></trkpt><trkpt lat="46.006742835210545" lon="11.237047491195762"><ele>511.0</ele><time>2026-05-02T13:42:55.506Z</time></trkpt><trkpt lat="46.00683209592002" lon="11.236958680453764"><ele>513.6</ele><time>2026-05-02T13:42:56.506Z</time></trkpt><trkpt lat="46.006921710680324" lon="11.236881431974496"><ele>516.2</ele><time>2026-05-02T13:42:57.506Z</time></trkpt><trkpt lat="46.00700904695527" lon="11.236803327618643"><ele>518.8</ele><time>2026-05-02T13:42:58.506Z</time></trkpt><trkpt lat="46.00710053645656" lon="11.23673959299136"><ele>521.4</ele><time>2026-05-02T13:42:59.506Z</time></trkpt><trkpt lat="46.00716655349178" lon="11.236691724101473"><ele>524.0</ele><time>2026-05-02T13:43:00.506Z</time></trkpt><trkpt lat="46.00723601482335" lon="11.23663266341847"><ele>524.0</ele><time>2026-05-02T13:43:01.506Z</time></trkpt><trkpt lat="46.007294366098584" lon="11.236586943441838"><ele>524.0</ele><time>2026-05-02T13:43:02.506Z</time></trkpt><trkpt lat="46.007345662445154" lon="11.236526381830664"><ele>524.0</ele><time>2026-05-02T13:43:03.506Z</time></trkpt><trkpt lat="46.00735785980312" lon="11.236401915612412"><ele>524.0</ele><time>2026-05-02T13:43:04.506Z</time></trkpt><trkpt lat="46.007275712918464" lon="11.236266592030361"><ele>524.0</ele><time>2026-05-02T13:43:06.506Z</time></trkpt><trkpt lat="46.00718895952075" lon="11.23626652380886"><ele>524.0</ele><time>2026-05-02T13:43:07.506Z</time></trkpt><trkpt lat="46.00706508398718" lon="11.236278437663158"><ele>528.0</ele><time>2026-05-02T13:43:08.506Z</time></trkpt><trkpt lat="46.00689260284032" lon="11.236376852259246"><ele>532.0</ele><time>2026-05-02T13:43:09.506Z</time></trkpt><trkpt lat="46.00671600759207" lon="11.236391286191658"><ele>536.0</ele><time>2026-05-02T13:43:10.506Z</time></trkpt><trkpt lat="46.00657232250825" lon="11.236441011621666"><ele>537.8</ele><time>2026-05-02T13:43:11.506Z</time></trkpt><trkpt lat="46.006442708538735" lon="11.236438467271034"><ele>539.6</ele><time>2026-05-02T13:43:12.506Z</time></trkpt><trkpt lat="46.006335965615776" lon="11.236381341713695"><ele>541.4</ele><time>2026-05-02T13:43:13.506Z</time></trkpt><trkpt lat="46.00626498627876" lon="11.236288063035689"><ele>543.2</ele><time>2026-05-02T13:43:14.506Z</time></trkpt><trkpt lat="46.00623814745728" lon="11.236146222101828"><ele>545.0</ele><time>2026-05-02T13:43:15.506Z</time></trkpt><trkpt lat="46.00625868887238" lon="11.236012007344677"><ele>545.0</ele><time>2026-05-02T13:43:16.506Z</time></trkpt><trkpt lat="46.006290941886455" lon="11.235915010257095"><ele>545.0</ele><time>2026-05-02T13:43:17.506Z</time></trkpt><trkpt lat="46.00639704695043" lon="11.23577898944352"><ele>545.0</ele><time>2026-05-02T13:43:18.506Z</time></trkpt><trkpt lat="46.00651568125178" lon="11.235749489972944"><ele>545.0</ele><time>2026-05-02T13:43:19.506Z</time></trkpt><trkpt lat="46.00677044533389" lon="11.235606960576504"><ele>549.5</ele><time>2026-05-02T13:43:20.506Z</time></trkpt><trkpt lat="46.00700611211847" lon="11.23547293273381"><ele>554.0</ele><time>2026-05-02T13:43:21.506Z</time></trkpt><trkpt lat="46.00721896209897" lon="11.235347262754342"><ele>554.0</ele><time>2026-05-02T13:43:22.506Z</time></trkpt><trkpt lat="46.00742888548577" lon="11.23523519870486"><ele>554.0</ele><time>2026-05-02T13:43:23.506Z</time></trkpt><trkpt lat="46.007665738375096" lon="11.23511323723229"><ele>552.5</ele><time>2026-05-02T13:43:24.506Z</time></trkpt><trkpt lat="46.007903119779705" lon="11.234972485850767"><ele>551.0</ele><time>2026-05-02T13:43:25.506Z</time></trkpt><trkpt lat="46.00811012536788" lon="11.234856179419939"><ele>557.6666666666666</ele><time>2026-05-02T13:43:26.506Z</time></trkpt><trkpt lat="46.008286831233505" lon="11.234762690329477"><ele>564.3333333333334</ele><time>2026-05-02T13:43:27.506Z</time></trkpt><trkpt lat="46.00844401928537" lon="11.23467103433201"><ele>571.0</ele><time>2026-05-02T13:43:28.506Z</time></trkpt><trkpt lat="46.00855442926155" lon="11.23461838967594"><ele>571.0</ele><time>2026-05-02T13:43:29.506Z</time></trkpt><trkpt lat="46.008634699679185" lon="11.234571959453817"><ele>571.0</ele><time>2026-05-02T13:43:30.506Z</time></trkpt><trkpt lat="46.00867269023824" lon="11.23447540017851"><ele>571.0</ele><time>2026-05-02T13:43:31.506Z</time></trkpt><trkpt lat="46.00867105434618" lon="11.234355261939074"><ele>571.0</ele><time>2026-05-02T13:43:32.506Z</time></trkpt><trkpt lat="46.00861877675905" lon="11.234260727889662"><ele>571.0</ele><time>2026-05-02T13:43:33.506Z</time></trkpt><trkpt lat="46.008458911865446" lon="11.23421763602306"><ele>572.6666666666667</ele><time>2026-05-02T13:43:34.506Z</time></trkpt><trkpt lat="46.008319412666694" lon="11.234280486689228"><ele>574.3333333333334</ele><time>2026-05-02T13:43:35.506Z</time></trkpt><trkpt lat="46.00816359451759" lon="11.23433415189486"><ele>576.0</ele><time>2026-05-02T13:43:36.506Z</time></trkpt><trkpt lat="46.00801740982552" lon="11.234374666459697"><ele>576.0</ele><time>2026-05-02T13:43:37.506Z</time></trkpt><trkpt lat="46.007841362944305" lon="11.234322285768888"><ele>576.0</ele><time>2026-05-02T13:43:38.506Z</time></trkpt><trkpt lat="46.00758822363064" lon="11.234261461166197"><ele>576.0</ele><time>2026-05-02T13:43:39.506Z</time></trkpt><trkpt lat="46.007255767650435" lon="11.23418437288707"><ele>576.0</ele><time>2026-05-02T13:43:40.506Z</time></trkpt><trkpt lat="46.00698923781891" lon="11.234140244860354"><ele>576.0</ele><time>2026-05-02T13:43:41.506Z</time></trkpt><trkpt lat="46.00673996566717" lon="11.234063984858045"><ele>578.0</ele><time>2026-05-02T13:43:42.506Z</time></trkpt><trkpt lat="46.006513497664216" lon="11.23401143367677"><ele>580.0</ele><time>2026-05-02T13:43:43.506Z</time></trkpt><trkpt lat="46.00633324311283" lon="11.233964173828403"><ele>582.0</ele><time>2026-05-02T13:43:44.506Z</time></trkpt><trkpt lat="46.00615841186748" lon="11.23395306348456"><ele>582.0</ele><time>2026-05-02T13:43:45.506Z</time></trkpt><trkpt lat="46.005972938803325" lon="11.233965229177977"><ele>582.0</ele><time>2026-05-02T13:43:46.506Z</time></trkpt><trkpt lat="46.00583890720332" lon="11.234092219051302"><ele>582.0</ele><time>2026-05-02T13:43:47.506Z</time></trkpt><trkpt lat="46.00566888335223" lon="11.234148372513348"><ele>584.0</ele><time>2026-05-02T13:43:48.506Z</time></trkpt><trkpt lat="46.00553596948947" lon="11.234192441151842"><ele>586.0</ele><time>2026-05-02T13:43:49.506Z</time></trkpt><trkpt lat="46.005436113134586" lon="11.234242094842866"><ele>588.0</ele><time>2026-05-02T13:43:50.506Z</time></trkpt><trkpt lat="46.00534597578805" lon="11.234276881443401"><ele>590.0</ele><time>2026-05-02T13:43:51.506Z</time></trkpt><trkpt lat="46.005241082350494" lon="11.234320821000544"><ele>592.0</ele><time>2026-05-02T13:43:52.506Z</time></trkpt><trkpt lat="46.00513461132835" lon="11.234378899543985"><ele>592.0</ele><time>2026-05-02T13:43:53.506Z</time></trkpt><trkpt lat="46.00503780302515" lon="11.23442383459756"><ele>592.0</ele><time>2026-05-02T13:43:54.506Z</time></trkpt><trkpt lat="46.0049358562495" lon="11.234411360712606"><ele>592.0</ele><time>2026-05-02T13:43:55.506Z</time></trkpt><trkpt lat="46.00482915724401" lon="11.234380343740844"><ele>592.0</ele><time>2026-05-02T13:43:56.506Z</time></trkpt><trkpt lat="46.004761196412915" lon="11.23433583477129"><ele>592.0</ele><time>2026-05-02T13:43:57.506Z</time></trkpt><trkpt lat="46.004688192046615" lon="11.234279163255987"><ele>593.25</ele><time>2026-05-02T13:43:58.506Z</time></trkpt><trkpt lat="46.004595756636334" lon="11.23417840894648"><ele>594.5</ele><time>2026-05-02T13:43:59.506Z</time></trkpt><trkpt lat="46.00449297861881" lon="11.23404628708125"><ele>595.75</ele><time>2026-05-02T13:44:00.506Z</time></trkpt><trkpt lat="46.00437685553769" lon="11.233891594471395"><ele>597.0</ele><time>2026-05-02T13:44:01.506Z</time></trkpt><trkpt lat="46.004260931589386" lon="11.233737167056404"><ele>598.5</ele><time>2026-05-02T13:44:02.506Z</time></trkpt><trkpt lat="46.00416379207348" lon="11.23361025246258"><ele>600.0</ele><time>2026-05-02T13:44:03.506Z</time></trkpt><trkpt lat="46.00406795351074" lon="11.233498026336955"><ele>601.5</ele><time>2026-05-02T13:44:04.506Z</time></trkpt><trkpt lat="46.00392174687321" lon="11.233370460212658"><ele>603.0</ele><time>2026-05-02T13:44:05.506Z</time></trkpt><trkpt lat="46.003752301623045" lon="11.233242896834247"><ele>606.6666666666666</ele><time>2026-05-02T13:44:06.506Z</time></trkpt><trkpt lat="46.003568579931276" lon="11.233108196985027"><ele>610.3333333333333</ele><time>2026-05-02T13:44:07.506Z</time></trkpt><trkpt lat="46.00336685758937" lon="11.23296050572953"><ele>614.0</ele><time>2026-05-02T13:44:08.506Z</time></trkpt><trkpt lat="46.00318841948392" lon="11.232830809133306"><ele>614.0</ele><time>2026-05-02T13:44:09.506Z</time></trkpt><trkpt lat="46.003039384516065" lon="11.232722866096982"><ele>614.0</ele><time>2026-05-02T13:44:10.506Z</time></trkpt><trkpt lat="46.00291407370713" lon="11.23262352741195"><ele>614.0</ele><time>2026-05-02T13:44:11.506Z</time></trkpt><trkpt lat="46.002799428088956" lon="11.232504819732593"><ele>614.0</ele><time>2026-05-02T13:44:12.506Z</time></trkpt><trkpt lat="46.002707132910416" lon="11.23237073489587"><ele>614.0</ele><time>2026-05-02T13:44:13.506Z</time></trkpt><trkpt lat="46.00262309938336" lon="11.232182903983036"><ele>614.0</ele><time>2026-05-02T13:44:14.506Z</time></trkpt><trkpt lat="46.00252658965758" lon="11.231954112313877"><ele>617.0</ele><time>2026-05-02T13:44:15.506Z</time></trkpt><trkpt lat="46.002420938355215" lon="11.231705775045494"><ele>620.0</ele><time>2026-05-02T13:44:16.506Z</time></trkpt><trkpt lat="46.0022926286574" lon="11.231408454781148"><ele>623.0</ele><time>2026-05-02T13:44:17.506Z</time></trkpt><trkpt lat="46.0021456371217" lon="11.231094344711273"><ele>625.0</ele><time>2026-05-02T13:44:18.506Z</time></trkpt><trkpt lat="46.002015688924345" lon="11.230764929423358"><ele>627.0</ele><time>2026-05-02T13:44:19.506Z</time></trkpt><trkpt lat="46.001894304571714" lon="11.230482772122466"><ele>629.3333333333334</ele><time>2026-05-02T13:44:20.506Z</time></trkpt><trkpt lat="46.0017968496136" lon="11.230245743622524"><ele>631.6666666666667</ele><time>2026-05-02T13:44:21.506Z</time></trkpt><trkpt lat="46.00174425318113" lon="11.230037993735131"><ele>634.0</ele><time>2026-05-02T13:44:22.506Z</time></trkpt><trkpt lat="46.00173794010574" lon="11.229862452673096"><ele>637.0</ele><time>2026-05-02T13:44:23.506Z</time></trkpt><trkpt lat="46.00176083932481" lon="11.22966299917651"><ele>640.0</ele><time>2026-05-02T13:44:24.506Z</time></trkpt><trkpt lat="46.001827690162486" lon="11.229479799783977"><ele>643.0</ele><time>2026-05-02T13:44:25.506Z</time></trkpt><trkpt lat="46.00194085564653" lon="11.229260989995925"><ele>643.0</ele><time>2026-05-02T13:44:26.506Z</time></trkpt><trkpt lat="46.00205873084567" lon="11.229015539773822"><ele>643.0</ele><time>2026-05-02T13:44:27.506Z</time></trkpt><trkpt lat="46.002152948674706" lon="11.228784126100958"><ele>643.0</ele><time>2026-05-02T13:44:28.506Z</time></trkpt><trkpt lat="46.00220679178718" lon="11.228545895619682"><ele>646.0</ele><time>2026-05-02T13:44:29.506Z</time></trkpt><trkpt lat="46.00219890906226" lon="11.22831175159411"><ele>649.0</ele><time>2026-05-02T13:44:30.506Z</time></trkpt><trkpt lat="46.002158503482995" lon="11.228061660288631"><ele>652.0</ele><time>2026-05-02T13:44:31.506Z</time></trkpt><trkpt lat="46.00208936469228" lon="11.227801154972273"><ele>655.3333333333334</ele><time>2026-05-02T13:44:32.506Z</time></trkpt><trkpt lat="46.00196892801764" lon="11.227524842558498"><ele>658.6666666666666</ele><time>2026-05-02T13:44:33.506Z</time></trkpt><trkpt lat="46.001900225453575" lon="11.227222921624842"><ele>662.0</ele><time>2026-05-02T13:44:34.506Z</time></trkpt><trkpt lat="46.00181569541785" lon="11.22691135792641"><ele>660.5</ele><time>2026-05-02T13:44:35.506Z</time></trkpt><trkpt lat="46.001719075774076" lon="11.22658111144754"><ele>659.0</ele><time>2026-05-02T13:44:36.506Z</time></trkpt><trkpt lat="46.00163612880785" lon="11.226279403122534"><ele>659.0</ele><time>2026-05-02T13:44:37.506Z</time></trkpt><trkpt lat="46.00155940532937" lon="11.226013450835469"><ele>659.0</ele><time>2026-05-02T13:44:38.506Z</time></trkpt><trkpt lat="46.001491376644374" lon="11.225785304415336"><ele>659.0</ele><time>2026-05-02T13:44:39.506Z</time></trkpt><trkpt lat="46.00143039314472" lon="11.22556511579509"><ele>659.6666666666666</ele><time>2026-05-02T13:44:40.506Z</time></trkpt><trkpt lat="46.00137607525324" lon="11.225342669618955"><ele>660.3333333333334</ele><time>2026-05-02T13:44:41.506Z</time></trkpt><trkpt lat="46.0013173645103" lon="11.22509259075084"><ele>661.0</ele><time>2026-05-02T13:44:42.506Z</time></trkpt><trkpt lat="46.001307417833736" lon="11.224818015493438"><ele>662.3333333333334</ele><time>2026-05-02T13:44:43.506Z</time></trkpt><trkpt lat="46.00130217403244" lon="11.224507341524118"><ele>663.6666666666666</ele><time>2026-05-02T13:44:44.506Z</time></trkpt><trkpt lat="46.001298248077994" lon="11.224188566878993"><ele>665.0</ele><time>2026-05-02T13:44:45.506Z</time></trkpt><trkpt lat="46.00129306494007" lon="11.223914826823309"><ele>665.3333333333333</ele><time>2026-05-02T13:44:46.506Z</time></trkpt><trkpt lat="46.00128324862665" lon="11.223636280793146"><ele>665.6666666666666</ele><time>2026-05-02T13:44:47.506Z</time></trkpt><trkpt lat="46.00125117581962" lon="11.223440181316711"><ele>666.0</ele><time>2026-05-02T13:44:48.506Z</time></trkpt><trkpt lat="46.001219489084505" lon="11.223205090730469"><ele>667.3333333333334</ele><time>2026-05-02T13:44:49.506Z</time></trkpt><trkpt lat="46.00117513215131" lon="11.222956585783848"><ele>668.6666666666667</ele><time>2026-05-02T13:44:50.506Z</time></trkpt><trkpt lat="46.001088451840154" lon="11.222677579127753"><ele>670.0</ele><time>2026-05-02T13:44:51.506Z</time></trkpt><trkpt lat="46.00102057473249" lon="11.222360397111531"><ele>670.3333333333334</ele><time>2026-05-02T13:44:52.506Z</time></trkpt><trkpt lat="46.00096434513795" lon="11.222050187345236"><ele>670.6666666666666</ele><time>2026-05-02T13:44:53.506Z</time></trkpt><trkpt lat="46.00090723388062" lon="11.221769696106856"><ele>671.0</ele><time>2026-05-02T13:44:54.506Z</time></trkpt><trkpt lat="46.00087829579818" lon="11.221492351953938"><ele>668.0</ele><time>2026-05-02T13:44:55.506Z</time></trkpt><trkpt lat="46.00082302559138" lon="11.221208533756338"><ele>665.0</ele><time>2026-05-02T13:44:56.506Z</time></trkpt><trkpt lat="46.000769219402386" lon="11.220931161015363"><ele>662.0</ele><time>2026-05-02T13:44:57.506Z</time></trkpt><trkpt lat="46.00071360024306" lon="11.22064130929096"><ele>660.0</ele><time>2026-05-02T13:44:58.506Z</time></trkpt><trkpt lat="46.000655475287736" lon="11.220344197223087"><ele>658.0</ele><time>2026-05-02T13:44:59.506Z</time></trkpt><trkpt lat="46.000597030989034" lon="11.22004082977654"><ele>656.0</ele><time>2026-05-02T13:45:00.506Z</time></trkpt><trkpt lat="46.00054920800002" lon="11.219792653202092"><ele>655.0</ele><time>2026-05-02T13:45:01.506Z</time></trkpt><trkpt lat="46.000500659025384" lon="11.219540707810197"><ele>654.0</ele><time>2026-05-02T13:45:02.506Z</time></trkpt><trkpt lat="46.000452124856174" lon="11.219278888291266"><ele>653.0</ele><time>2026-05-02T13:45:03.506Z</time></trkpt><trkpt lat="46.0004009079136" lon="11.218993345578681"><ele>652.6666666666666</ele><time>2026-05-02T13:45:04.506Z</time></trkpt><trkpt lat="46.00036204934895" lon="11.218708985826211"><ele>652.3333333333334</ele><time>2026-05-02T13:45:05.506Z</time></trkpt><trkpt lat="46.00033897059998" lon="11.218435731090624"><ele>652.0</ele><time>2026-05-02T13:45:06.506Z</time></trkpt><trkpt lat="46.00033032582083" lon="11.218135414694528"><ele>651.3333333333334</ele><time>2026-05-02T13:45:07.506Z</time></trkpt><trkpt lat="46.00033629689751" lon="11.217814363825001"><ele>650.6666666666666</ele><time>2026-05-02T13:45:08.506Z</time></trkpt><trkpt lat="46.00035775598401" lon="11.217495647806778"><ele>650.0</ele><time>2026-05-02T13:45:09.506Z</time></trkpt><trkpt lat="46.000385624940094" lon="11.217141619452237"><ele>650.0</ele><time>2026-05-02T13:45:10.506Z</time></trkpt><trkpt lat="46.00044189991798" lon="11.21682074280617"><ele>650.0</ele><time>2026-05-02T13:45:11.506Z</time></trkpt><trkpt lat="46.00047677157115" lon="11.216496931365233"><ele>648.5</ele><time>2026-05-02T13:45:12.506Z</time></trkpt><trkpt lat="46.000504305895234" lon="11.216148546264908"><ele>647.0</ele><time>2026-05-02T13:45:13.506Z</time></trkpt><trkpt lat="46.000559594195714" lon="11.215761503850144"><ele>644.5</ele><time>2026-05-02T13:45:14.506Z</time></trkpt><trkpt lat="46.00062060707755" lon="11.215349706523876"><ele>642.0</ele><time>2026-05-02T13:45:15.506Z</time></trkpt><trkpt lat="46.000676709636416" lon="11.214948171476072"><ele>643.0</ele><time>2026-05-02T13:45:16.506Z</time></trkpt><trkpt lat="46.000719426041066" lon="11.214585505402908"><ele>644.0</ele><time>2026-05-02T13:45:17.506Z</time></trkpt><trkpt lat="46.00077667748202" lon="11.214249577913517"><ele>644.0</ele><time>2026-05-02T13:45:18.506Z</time></trkpt><trkpt lat="46.000818316666646" lon="11.213931076521046"><ele>644.0</ele><time>2026-05-02T13:45:19.506Z</time></trkpt><trkpt lat="46.0008569999483" lon="11.21363518520159"><ele>644.0</ele><time>2026-05-02T13:45:20.506Z</time></trkpt><trkpt lat="46.00089081792148" lon="11.21336066069379"><ele>648.0</ele><time>2026-05-02T13:45:21.506Z</time></trkpt><trkpt lat="46.00092097936351" lon="11.213100116806526"><ele>652.0</ele><time>2026-05-02T13:45:22.506Z</time></trkpt><trkpt lat="46.00094378280771" lon="11.212854527290602"><ele>656.0</ele><time>2026-05-02T13:45:23.506Z</time></trkpt><trkpt lat="46.000961116212586" lon="11.212619935607451"><ele>656.0</ele><time>2026-05-02T13:45:24.506Z</time></trkpt><trkpt lat="46.00096779580131" lon="11.212397610603418"><ele>656.0</ele><time>2026-05-02T13:45:25.506Z</time></trkpt><trkpt lat="46.00096097963598" lon="11.212158229939106"><ele>656.0</ele><time>2026-05-02T13:45:26.506Z</time></trkpt><trkpt lat="46.000956381759245" lon="11.211902961664098"><ele>656.3333333333333</ele><time>2026-05-02T13:45:27.506Z</time></trkpt><trkpt lat="46.000929886557195" lon="11.211634666598682"><ele>656.6666666666666</ele><time>2026-05-02T13:45:28.506Z</time></trkpt><trkpt lat="46.00091794836888" lon="11.211370900822558"><ele>657.0</ele><time>2026-05-02T13:45:29.506Z</time></trkpt><trkpt lat="46.00088920852769" lon="11.211098204138136"><ele>657.5</ele><time>2026-05-02T13:45:30.506Z</time></trkpt><trkpt lat="46.00085575205655" lon="11.210788691677372"><ele>658.0</ele><time>2026-05-02T13:45:31.506Z</time></trkpt><trkpt lat="46.00081940666185" lon="11.21045318228167"><ele>657.5</ele><time>2026-05-02T13:45:32.506Z</time></trkpt><trkpt lat="46.00078139700702" lon="11.210098533311939"><ele>657.0</ele><time>2026-05-02T13:45:33.506Z</time></trkpt><trkpt lat="46.00072657090736" lon="11.209718470482036"><ele>657.0</ele><time>2026-05-02T13:45:34.506Z</time></trkpt><trkpt lat="46.00068284192598" lon="11.2093164152513"><ele>657.0</ele><time>2026-05-02T13:45:35.506Z</time></trkpt><trkpt lat="46.00064252333475" lon="11.20888859882153"><ele>658.0</ele><time>2026-05-02T13:45:36.506Z</time></trkpt><trkpt lat="46.00059911993486" lon="11.208439386918437"><ele>659.0</ele><time>2026-05-02T13:45:37.506Z</time></trkpt><trkpt lat="46.00055260887772" lon="11.20797910438739"><ele>661.5</ele><time>2026-05-02T13:45:38.506Z</time></trkpt><trkpt lat="46.00050699757312" lon="11.207527120781467"><ele>664.0</ele><time>2026-05-02T13:45:39.506Z</time></trkpt><trkpt lat="46.00045927824277" lon="11.207072247053622"><ele>665.5</ele><time>2026-05-02T13:45:40.506Z</time></trkpt><trkpt lat="46.00041180201364" lon="11.206610523265523"><ele>667.0</ele><time>2026-05-02T13:45:41.507Z</time></trkpt><trkpt lat="46.0003536582297" lon="11.206136462110777"><ele>668.5</ele><time>2026-05-02T13:45:42.507Z</time></trkpt><trkpt lat="46.000309005714584" lon="11.205725894572044"><ele>670.0</ele><time>2026-05-02T13:45:43.507Z</time></trkpt><trkpt lat="46.00026408231609" lon="11.205353432196183"><ele>670.0</ele><time>2026-05-02T13:45:44.507Z</time></trkpt><trkpt lat="46.00022766030397" lon="11.205021547562275"><ele>670.0</ele><time>2026-05-02T13:45:45.507Z</time></trkpt><trkpt lat="46.00019800599614" lon="11.204731832034192"><ele>670.0</ele><time>2026-05-02T13:45:46.507Z</time></trkpt><trkpt lat="46.00017139594971" lon="11.20447156611316"><ele>671.0</ele><time>2026-05-02T13:45:47.507Z</time></trkpt><trkpt lat="46.0001309399241" lon="11.204288435165322"><ele>672.0</ele><time>2026-05-02T13:45:48.507Z</time></trkpt><trkpt lat="46.00011464979839" lon="11.20411347080937"><ele>673.0</ele><time>2026-05-02T13:45:49.507Z</time></trkpt><trkpt lat="46.000125528697374" lon="11.20394783266395"><ele>674.0</ele><time>2026-05-02T13:45:50.507Z</time></trkpt><trkpt lat="46.00014215412512" lon="11.203798876505447"><ele>675.25</ele><time>2026-05-02T13:45:51.507Z</time></trkpt><trkpt lat="46.00018008868576" lon="11.203638762705998"><ele>676.5</ele><time>2026-05-02T13:45:52.507Z</time></trkpt><trkpt lat="46.000196107137874" lon="11.203470861135814"><ele>677.75</ele><time>2026-05-02T13:45:53.507Z</time></trkpt><trkpt lat="46.00019572802396" lon="11.203323237156253"><ele>679.0</ele><time>2026-05-02T13:45:54.507Z</time></trkpt><trkpt lat="46.000220789037606" lon="11.20315282895077"><ele>680.0</ele><time>2026-05-02T13:45:55.507Z</time></trkpt><trkpt lat="46.000274012554144" lon="11.202959077735796"><ele>681.0</ele><time>2026-05-02T13:45:56.507Z</time></trkpt><trkpt lat="46.00035749299596" lon="11.202737648493521"><ele>682.0</ele><time>2026-05-02T13:45:57.507Z</time></trkpt><trkpt lat="46.000480156527054" lon="11.202504944639136"><ele>682.3333333333334</ele><time>2026-05-02T13:45:58.507Z</time></trkpt><trkpt lat="46.00060776301145" lon="11.202254799948458"><ele>682.6666666666666</ele><time>2026-05-02T13:45:59.507Z</time></trkpt><trkpt lat="46.00073053011431" lon="11.201992906732384"><ele>683.0</ele><time>2026-05-02T13:46:00.507Z</time></trkpt><trkpt lat="46.00082149547332" lon="11.201783317910403"><ele>684.0</ele><time>2026-05-02T13:46:01.507Z</time></trkpt><trkpt lat="46.00090539816057" lon="11.201614081680797"><ele>685.0</ele><time>2026-05-02T13:46:02.507Z</time></trkpt><trkpt lat="46.00097597704198" lon="11.20147274834509"><ele>686.0</ele><time>2026-05-02T13:46:03.507Z</time></trkpt><trkpt lat="46.00104464702168" lon="11.20133681777101"><ele>687.0</ele><time>2026-05-02T13:46:04.507Z</time></trkpt><trkpt lat="46.001114634715435" lon="11.20122010757711"><ele>687.25</ele><time>2026-05-02T13:46:05.507Z</time></trkpt><trkpt lat="46.001189644546955" lon="11.201082644747135"><ele>687.5</ele><time>2026-05-02T13:46:06.507Z</time></trkpt><trkpt lat="46.001283957845345" lon="11.20094111489594"><ele>687.75</ele><time>2026-05-02T13:46:07.507Z</time></trkpt><trkpt lat="46.001389856309515" lon="11.200807278976798"><ele>688.0</ele><time>2026-05-02T13:46:08.507Z</time></trkpt><trkpt lat="46.00150729351946" lon="11.200695984175201"><ele>688.5</ele><time>2026-05-02T13:46:09.507Z</time></trkpt><trkpt lat="46.00163272700702" lon="11.200594301075887"><ele>689.0</ele><time>2026-05-02T13:46:10.507Z</time></trkpt><trkpt lat="46.00174522359674" lon="11.200492876607727"><ele>689.5</ele><time>2026-05-02T13:46:11.507Z</time></trkpt><trkpt lat="46.00184129862781" lon="11.200406774195455"><ele>690.0</ele><time>2026-05-02T13:46:12.507Z</time></trkpt><trkpt lat="46.00193216578802" lon="11.20033368518683"><ele>691.5</ele><time>2026-05-02T13:46:13.507Z</time></trkpt><trkpt lat="46.00202520370579" lon="11.200258120711394"><ele>693.0</ele><time>2026-05-02T13:46:14.507Z</time></trkpt><trkpt lat="46.00212098103305" lon="11.200197083218745"><ele>694.5</ele><time>2026-05-02T13:46:15.507Z</time></trkpt><trkpt lat="46.00222155100647" lon="11.200121119529141"><ele>696.0</ele><time>2026-05-02T13:46:16.507Z</time></trkpt><trkpt lat="46.00233034361127" lon="11.200009845979247"><ele>696.0</ele><time>2026-05-02T13:46:17.507Z</time></trkpt><trkpt lat="46.002434703249705" lon="11.19987432830982"><ele>696.0</ele><time>2026-05-02T13:46:18.507Z</time></trkpt><trkpt lat="46.00252907103612" lon="11.19972628001886"><ele>696.0</ele><time>2026-05-02T13:46:19.507Z</time></trkpt><trkpt lat="46.00260780361782" lon="11.199593705179769"><ele>696.0</ele><time>2026-05-02T13:46:20.507Z</time></trkpt><trkpt lat="46.00267642155241" lon="11.199469388259818"><ele>697.75</ele><time>2026-05-02T13:46:21.507Z</time></trkpt><trkpt lat="46.00272875988639" lon="11.199346385452593"><ele>699.5</ele><time>2026-05-02T13:46:22.507Z</time></trkpt><trkpt lat="46.00276884614613" lon="11.1991911070067"><ele>701.25</ele><time>2026-05-02T13:46:23.507Z</time></trkpt><trkpt lat="46.002793703366585" lon="11.199015250336544"><ele>703.0</ele><time>2026-05-02T13:46:24.507Z</time></trkpt><trkpt lat="46.00281531537265" lon="11.198842150035379"><ele>703.5</ele><time>2026-05-02T13:46:25.507Z</time></trkpt><trkpt lat="46.00284305763945" lon="11.198676283124382"><ele>704.0</ele><time>2026-05-02T13:46:26.507Z</time></trkpt><trkpt lat="46.002870489907636" lon="11.198484278515116"><ele>704.5</ele><time>2026-05-02T13:46:27.507Z</time></trkpt><trkpt lat="46.002899531527476" lon="11.198307608697537"><ele>705.0</ele><time>2026-05-02T13:46:28.507Z</time></trkpt><trkpt lat="46.00294806572691" lon="11.198087274178246"><ele>705.0</ele><time>2026-05-02T13:46:29.507Z</time></trkpt><trkpt lat="46.00301750477789" lon="11.197845504143357"><ele>705.0</ele><time>2026-05-02T13:46:30.507Z</time></trkpt><trkpt lat="46.00313499207695" lon="11.197601914960112"><ele>705.0</ele><time>2026-05-02T13:46:31.507Z</time></trkpt><trkpt lat="46.00329292965583" lon="11.197342462559552"><ele>707.0</ele><time>2026-05-02T13:46:32.507Z</time></trkpt><trkpt lat="46.003446945012826" lon="11.197037402581458"><ele>709.0</ele><time>2026-05-02T13:46:33.507Z</time></trkpt><trkpt lat="46.00359421773199" lon="11.19675275152661"><ele>707.0</ele><time>2026-05-02T13:46:34.507Z</time></trkpt><trkpt lat="46.00373394958989" lon="11.196486076252487"><ele>705.0</ele><time>2026-05-02T13:46:35.507Z</time></trkpt><trkpt lat="46.003896097338156" lon="11.196217252321551"><ele>705.0</ele><time>2026-05-02T13:46:36.507Z</time></trkpt><trkpt lat="46.00408537000836" lon="11.195933059164814"><ele>705.0</ele><time>2026-05-02T13:46:37.507Z</time></trkpt><trkpt lat="46.004243255717164" lon="11.19567385978283"><ele>707.0</ele><time>2026-05-02T13:46:38.507Z</time></trkpt><trkpt lat="46.004379177583786" lon="11.19544245524426"><ele>709.0</ele><time>2026-05-02T13:46:39.507Z</time></trkpt><trkpt lat="46.00451292955456" lon="11.195220556661596"><ele>711.0</ele><time>2026-05-02T13:46:40.507Z</time></trkpt><trkpt lat="46.004653176558435" lon="11.19501321850279"><ele>709.6666666666666</ele><time>2026-05-02T13:46:41.507Z</time></trkpt><trkpt lat="46.00479102659891" lon="11.194794674468538"><ele>708.3333333333333</ele><time>2026-05-02T13:46:42.507Z</time></trkpt><trkpt lat="46.004929729254435" lon="11.19457183901202"><ele>707.0</ele><time>2026-05-02T13:46:43.507Z</time></trkpt><trkpt lat="46.005073685372054" lon="11.19432627956312"><ele>708.3333333333333</ele><time>2026-05-02T13:46:44.507Z</time></trkpt><trkpt lat="46.00521434220788" lon="11.194100046056615"><ele>709.6666666666666</ele><time>2026-05-02T13:46:45.507Z</time></trkpt><trkpt lat="46.0053517721632" lon="11.193896622497522"><ele>711.0</ele><time>2026-05-02T13:46:46.507Z</time></trkpt><trkpt lat="46.005464897384535" lon="11.19368828051708"><ele>711.0</ele><time>2026-05-02T13:46:47.507Z</time></trkpt><trkpt lat="46.00556577680792" lon="11.193544517659044"><ele>711.0</ele><time>2026-05-02T13:46:48.507Z</time></trkpt><trkpt lat="46.0056523051061" lon="11.193351469203051"><ele>711.0</ele><time>2026-05-02T13:46:49.507Z</time></trkpt><trkpt lat="46.00568373691771" lon="11.193122830360572"><ele>712.6666666666666</ele><time>2026-05-02T13:46:50.507Z</time></trkpt><trkpt lat="46.00573225041147" lon="11.192891065773926"><ele>714.3333333333333</ele><time>2026-05-02T13:46:51.507Z</time></trkpt><trkpt lat="46.00578562617893" lon="11.192667138139598"><ele>716.0</ele><time>2026-05-02T13:46:52.507Z</time></trkpt><trkpt lat="46.005831175491416" lon="11.192458370926916"><ele>714.6666666666666</ele><time>2026-05-02T13:46:53.507Z</time></trkpt><trkpt lat="46.005866958563004" lon="11.192243183029573"><ele>713.3333333333334</ele><time>2026-05-02T13:46:54.507Z</time></trkpt><trkpt lat="46.005884402866435" lon="11.191997904275729"><ele>712.0</ele><time>2026-05-02T13:46:55.507Z</time></trkpt><trkpt lat="46.00590690885831" lon="11.191748867978975"><ele>711.0</ele><time>2026-05-02T13:46:56.507Z</time></trkpt><trkpt lat="46.00592938089968" lon="11.191498861200275"><ele>710.0</ele><time>2026-05-02T13:46:57.507Z</time></trkpt><trkpt lat="46.005937234487405" lon="11.191244602676955"><ele>709.0</ele><time>2026-05-02T13:46:58.507Z</time></trkpt><trkpt lat="46.00594835053833" lon="11.190984396800301"><ele>709.0</ele><time>2026-05-02T13:46:59.507Z</time></trkpt><trkpt lat="46.005953801568054" lon="11.190732718557257"><ele>709.0</ele><time>2026-05-02T13:47:00.507Z</time></trkpt><trkpt lat="46.00594456401358" lon="11.190485339603834"><ele>709.0</ele><time>2026-05-02T13:47:01.507Z</time></trkpt><trkpt lat="46.00592519018492" lon="11.190280480687068"><ele>708.5</ele><time>2026-05-02T13:47:02.507Z</time></trkpt><trkpt lat="46.0059139779911" lon="11.190062159797193"><ele>708.0</ele><time>2026-05-02T13:47:03.507Z</time></trkpt><trkpt lat="46.005924221343435" lon="11.189851969361092"><ele>707.5</ele><time>2026-05-02T13:47:04.507Z</time></trkpt><trkpt lat="46.005924567226344" lon="11.189656597463783"><ele>707.0</ele><time>2026-05-02T13:47:05.507Z</time></trkpt><trkpt lat="46.00593528349698" lon="11.189468749919426"><ele>707.25</ele><time>2026-05-02T13:47:06.507Z</time></trkpt><trkpt lat="46.005926979182675" lon="11.189272337431328"><ele>707.5</ele><time>2026-05-02T13:47:07.507Z</time></trkpt><trkpt lat="46.00591019760983" lon="11.189064986055122"><ele>707.75</ele><time>2026-05-02T13:47:08.507Z</time></trkpt><trkpt lat="46.00587807003573" lon="11.188856217715538"><ele>708.0</ele><time>2026-05-02T13:47:09.507Z</time></trkpt><trkpt lat="46.00582826998333" lon="11.188623096268993"><ele>702.3333333333334</ele><time>2026-05-02T13:47:10.507Z</time></trkpt><trkpt lat="46.0057343439473" lon="11.18839423697862"><ele>696.6666666666667</ele><time>2026-05-02T13:47:11.507Z</time></trkpt><trkpt lat="46.00568005888223" lon="11.188174830289189"><ele>691.0</ele><time>2026-05-02T13:47:12.507Z</time></trkpt><trkpt lat="46.00563507566684" lon="11.187972767775832"><ele>691.0</ele><time>2026-05-02T13:47:13.507Z</time></trkpt><trkpt lat="46.00559322363289" lon="11.187778761841784"><ele>691.0</ele><time>2026-05-02T13:47:14.507Z</time></trkpt><trkpt lat="46.00553501284994" lon="11.18758882539849"><ele>691.0</ele><time>2026-05-02T13:47:15.507Z</time></trkpt><trkpt lat="46.00547583566104" lon="11.187390215196391"><ele>691.0</ele><time>2026-05-02T13:47:16.507Z</time></trkpt><trkpt lat="46.00540961208442" lon="11.187212732149561"><ele>691.0</ele><time>2026-05-02T13:47:17.507Z</time></trkpt><trkpt lat="46.00536367806298" lon="11.186984952217527"><ele>691.0</ele><time>2026-05-02T13:47:18.507Z</time></trkpt><trkpt lat="46.00532109486272" lon="11.186714878311259"><ele>691.0</ele><time>2026-05-02T13:47:19.507Z</time></trkpt><trkpt lat="46.005310384792125" lon="11.186417036722457"><ele>691.0</ele><time>2026-05-02T13:47:20.507Z</time></trkpt><trkpt lat="46.00527767193686" lon="11.18614596925511"><ele>691.0</ele><time>2026-05-02T13:47:21.507Z</time></trkpt><trkpt lat="46.005283502904526" lon="11.185882922949524"><ele>691.0</ele><time>2026-05-02T13:47:22.507Z</time></trkpt><trkpt lat="46.00528618113021" lon="11.18565177572269"><ele>691.3333333333334</ele><time>2026-05-02T13:47:23.507Z</time></trkpt><trkpt lat="46.00526511070563" lon="11.185423379619472"><ele>691.6666666666666</ele><time>2026-05-02T13:47:24.507Z</time></trkpt><trkpt lat="46.005290017930896" lon="11.185213288771436"><ele>692.0</ele><time>2026-05-02T13:47:25.507Z</time></trkpt><trkpt lat="46.0053137741439" lon="11.185000669729442"><ele>692.5</ele><time>2026-05-02T13:47:26.507Z</time></trkpt><trkpt lat="46.00528248800497" lon="11.184800142346951"><ele>693.0</ele><time>2026-05-02T13:47:27.507Z</time></trkpt><trkpt lat="46.005210292783715" lon="11.18461849492856"><ele>693.5</ele><time>2026-05-02T13:47:28.507Z</time></trkpt><trkpt lat="46.005144775990956" lon="11.184446558621806"><ele>694.0</ele><time>2026-05-02T13:47:29.507Z</time></trkpt><trkpt lat="46.0050790243777" lon="11.18427288115848"><ele>694.0</ele><time>2026-05-02T13:47:30.507Z</time></trkpt><trkpt lat="46.004996367679595" lon="11.18412481868551"><ele>694.0</ele><time>2026-05-02T13:47:31.507Z</time></trkpt><trkpt lat="46.00494838453784" lon="11.183933013284912"><ele>694.0</ele><time>2026-05-02T13:47:32.507Z</time></trkpt><trkpt lat="46.00492448321769" lon="11.183756669973754"><ele>694.0</ele><time>2026-05-02T13:47:33.507Z</time></trkpt><trkpt lat="46.00495256474162" lon="11.18355259433547"><ele>689.75</ele><time>2026-05-02T13:47:34.507Z</time></trkpt><trkpt lat="46.0049479858982" lon="11.18337107016554"><ele>685.5</ele><time>2026-05-02T13:47:35.507Z</time></trkpt><trkpt lat="46.004946336295745" lon="11.183180918545087"><ele>681.25</ele><time>2026-05-02T13:47:36.507Z</time></trkpt><trkpt lat="46.00494391042577" lon="11.18297931072692"><ele>677.0</ele><time>2026-05-02T13:47:37.507Z</time></trkpt><trkpt lat="46.00494423536204" lon="11.182778373051882"><ele>676.75</ele><time>2026-05-02T13:47:38.507Z</time></trkpt><trkpt lat="46.00495184656676" lon="11.182570924971165"><ele>676.5</ele><time>2026-05-02T13:47:39.507Z</time></trkpt><trkpt lat="46.004967882353036" lon="11.182370549844517"><ele>676.25</ele><time>2026-05-02T13:47:40.507Z</time></trkpt><trkpt lat="46.004974801261746" lon="11.182183351183918"><ele>676.0</ele><time>2026-05-02T13:47:41.507Z</time></trkpt><trkpt lat="46.005014777430894" lon="11.181999457265892"><ele>677.0</ele><time>2026-05-02T13:47:42.507Z</time></trkpt><trkpt lat="46.005051000975755" lon="11.181815672891682"><ele>678.0</ele><time>2026-05-02T13:47:43.507Z</time></trkpt><trkpt lat="46.0050666371756" lon="11.181631908399465"><ele>679.0</ele><time>2026-05-02T13:47:44.507Z</time></trkpt><trkpt lat="46.005104664983826" lon="11.181472069158033"><ele>680.0</ele><time>2026-05-02T13:47:45.507Z</time></trkpt><trkpt lat="46.00512984340643" lon="11.181291397797526"><ele>680.0</ele><time>2026-05-02T13:47:46.507Z</time></trkpt><trkpt lat="46.00512428405748" lon="11.18108995917798"><ele>680.0</ele><time>2026-05-02T13:47:47.507Z</time></trkpt><trkpt lat="46.005122202018555" lon="11.180869248853103"><ele>680.0</ele><time>2026-05-02T13:47:48.507Z</time></trkpt><trkpt lat="46.00508281777239" lon="11.180660778312465"><ele>680.0</ele><time>2026-05-02T13:47:49.507Z</time></trkpt><trkpt lat="46.00505946384513" lon="11.180467948370508"><ele>678.25</ele><time>2026-05-02T13:47:50.507Z</time></trkpt><trkpt lat="46.00504418206185" lon="11.180292786325728"><ele>676.5</ele><time>2026-05-02T13:47:51.507Z</time></trkpt><trkpt lat="46.00504985577518" lon="11.180115018071609"><ele>674.75</ele><time>2026-05-02T13:47:52.507Z</time></trkpt><trkpt lat="46.00507906102815" lon="11.179925565728107"><ele>673.0</ele><time>2026-05-02T13:47:53.507Z</time></trkpt><trkpt lat="46.005114744505704" lon="11.179733310320136"><ele>671.25</ele><time>2026-05-02T13:47:54.507Z</time></trkpt><trkpt lat="46.00515282467043" lon="11.179539975500871"><ele>669.5</ele><time>2026-05-02T13:47:55.507Z</time></trkpt><trkpt lat="46.005196360062214" lon="11.17932369236083"><ele>667.75</ele><time>2026-05-02T13:47:56.507Z</time></trkpt><trkpt lat="46.00523014274789" lon="11.179117594032784"><ele>666.0</ele><time>2026-05-02T13:47:57.507Z</time></trkpt><trkpt lat="46.00525865994482" lon="11.178920770350043"><ele>664.3333333333334</ele><time>2026-05-02T13:47:58.507Z</time></trkpt><trkpt lat="46.00527393032465" lon="11.178705750066204"><ele>662.6666666666667</ele><time>2026-05-02T13:47:59.507Z</time></trkpt><trkpt lat="46.00532362806569" lon="11.178464706240778"><ele>661.0</ele><time>2026-05-02T13:48:00.507Z</time></trkpt><trkpt lat="46.00537077936914" lon="11.178201270563818"><ele>657.0</ele><time>2026-05-02T13:48:01.507Z</time></trkpt><trkpt lat="46.00545100250717" lon="11.177909185065493"><ele>653.0</ele><time>2026-05-02T13:48:02.507Z</time></trkpt><trkpt lat="46.00553748208777" lon="11.177558806629934"><ele>650.5</ele><time>2026-05-02T13:48:03.507Z</time></trkpt><trkpt lat="46.005603747453684" lon="11.177214439495998"><ele>648.0</ele><time>2026-05-02T13:48:04.507Z</time></trkpt><trkpt lat="46.00565749942233" lon="11.176925099639256"><ele>648.0</ele><time>2026-05-02T13:48:05.507Z</time></trkpt><trkpt lat="46.00568604064809" lon="11.176681334327768"><ele>648.0</ele><time>2026-05-02T13:48:06.507Z</time></trkpt><trkpt lat="46.005722498451256" lon="11.176456359350334"><ele>648.0</ele><time>2026-05-02T13:48:07.507Z</time></trkpt><trkpt lat="46.00574293662513" lon="11.176257652316592"><ele>647.3333333333334</ele><time>2026-05-02T13:48:08.507Z</time></trkpt><trkpt lat="46.00578454570713" lon="11.176030194490975"><ele>646.6666666666667</ele><time>2026-05-02T13:48:09.507Z</time></trkpt><trkpt lat="46.00578398073158" lon="11.175743795859772"><ele>646.0</ele><time>2026-05-02T13:48:10.507Z</time></trkpt><trkpt lat="46.00577499755276" lon="11.175404994749849"><ele>645.0</ele><time>2026-05-02T13:48:11.507Z</time></trkpt><trkpt lat="46.00576769290204" lon="11.175055860583663"><ele>644.0</ele><time>2026-05-02T13:48:12.507Z</time></trkpt><trkpt lat="46.005754009463146" lon="11.174762389598591"><ele>643.0</ele><time>2026-05-02T13:48:13.507Z</time></trkpt><trkpt lat="46.005783788431295" lon="11.174503893236112"><ele>641.0</ele><time>2026-05-02T13:48:14.507Z</time></trkpt><trkpt lat="46.00581877154579" lon="11.174255791247804"><ele>639.0</ele><time>2026-05-02T13:48:15.507Z</time></trkpt><trkpt lat="46.00587302157484" lon="11.174004057615921"><ele>637.0</ele><time>2026-05-02T13:48:16.507Z</time></trkpt><trkpt lat="46.0059448268228" lon="11.173731822760901"><ele>643.0</ele><time>2026-05-02T13:48:17.507Z</time></trkpt><trkpt lat="46.00602023291713" lon="11.173438418640375"><ele>649.0</ele><time>2026-05-02T13:48:18.507Z</time></trkpt><trkpt lat="46.00609233409549" lon="11.17315475503767"><ele>655.0</ele><time>2026-05-02T13:48:19.507Z</time></trkpt><trkpt lat="46.00616372014522" lon="11.172876327221577"><ele>655.0</ele><time>2026-05-02T13:48:20.507Z</time></trkpt><trkpt lat="46.006217499097126" lon="11.172627159670753"><ele>655.0</ele><time>2026-05-02T13:48:21.507Z</time></trkpt><trkpt lat="46.00627641929228" lon="11.172412952698831"><ele>655.0</ele><time>2026-05-02T13:48:22.507Z</time></trkpt><trkpt lat="46.00634349050041" lon="11.17224119679613"><ele>653.0</ele><time>2026-05-02T13:48:23.507Z</time></trkpt><trkpt lat="46.00639084999085" lon="11.172060112274446"><ele>651.0</ele><time>2026-05-02T13:48:24.507Z</time></trkpt><trkpt lat="46.006436107675285" lon="11.171902075679153"><ele>649.0</ele><time>2026-05-02T13:48:25.507Z</time></trkpt><trkpt lat="46.00648432306499" lon="11.171699978708107"><ele>647.0</ele><time>2026-05-02T13:48:26.507Z</time></trkpt><trkpt lat="46.00651386278766" lon="11.171485784777554"><ele>644.3333333333333</ele><time>2026-05-02T13:48:27.507Z</time></trkpt><trkpt lat="46.00652952417376" lon="11.171232179650431"><ele>641.6666666666666</ele><time>2026-05-02T13:48:28.507Z</time></trkpt><trkpt lat="46.00654919922276" lon="11.170970374656932"><ele>639.0</ele><time>2026-05-02T13:48:29.507Z</time></trkpt><trkpt lat="46.00656602820598" lon="11.170670807379656"><ele>636.5</ele><time>2026-05-02T13:48:30.507Z</time></trkpt><trkpt lat="46.00658692381293" lon="11.170298851449642"><ele>634.0</ele><time>2026-05-02T13:48:31.507Z</time></trkpt><trkpt lat="46.00660826650259" lon="11.169948139008362"><ele>630.0</ele><time>2026-05-02T13:48:32.507Z</time></trkpt><trkpt lat="46.00662576550663" lon="11.169608151098686"><ele>626.0</ele><time>2026-05-02T13:48:33.507Z</time></trkpt><trkpt lat="46.00663412999824" lon="11.169257352685666"><ele>632.5</ele><time>2026-05-02T13:48:34.507Z</time></trkpt><trkpt lat="46.00666684920112" lon="11.16890944129076"><ele>639.0</ele><time>2026-05-02T13:48:35.507Z</time></trkpt><trkpt lat="46.0067285396007" lon="11.168567100877972"><ele>639.0</ele><time>2026-05-02T13:48:36.507Z</time></trkpt><trkpt lat="46.00677575633067" lon="11.168237911792005"><ele>639.0</ele><time>2026-05-02T13:48:37.507Z</time></trkpt><trkpt lat="46.00680664821676" lon="11.167949440814175"><ele>639.0</ele><time>2026-05-02T13:48:38.507Z</time></trkpt><trkpt lat="46.00685468136609" lon="11.167699257227929"><ele>637.3333333333334</ele><time>2026-05-02T13:48:39.507Z</time></trkpt><trkpt lat="46.00689241258409" lon="11.167448843264994"><ele>635.6666666666667</ele><time>2026-05-02T13:48:40.507Z</time></trkpt><trkpt lat="46.00692610859168" lon="11.167173646541379"><ele>634.0</ele><time>2026-05-02T13:48:41.507Z</time></trkpt><trkpt lat="46.00688755411977" lon="11.166990709195257"><ele>633.0</ele><time>2026-05-02T13:48:42.507Z</time></trkpt><trkpt lat="46.00682158535508" lon="11.16678286133471"><ele>632.0</ele><time>2026-05-02T13:48:43.507Z</time></trkpt><trkpt lat="46.00673968709357" lon="11.166551899441753"><ele>631.0</ele><time>2026-05-02T13:48:44.507Z</time></trkpt><trkpt lat="46.00660279035765" lon="11.166348728349309"><ele>624.6666666666667</ele><time>2026-05-02T13:48:45.507Z</time></trkpt><trkpt lat="46.00644589440853" lon="11.166161131244564"><ele>618.3333333333334</ele><time>2026-05-02T13:48:46.507Z</time></trkpt><trkpt lat="46.00633706416321" lon="11.165926421245116"><ele>612.0</ele><time>2026-05-02T13:48:47.507Z</time></trkpt><trkpt lat="46.00629089814036" lon="11.165749382498138"><ele>610.6666666666666</ele><time>2026-05-02T13:48:48.507Z</time></trkpt><trkpt lat="46.0062786666169" lon="11.165590149058085"><ele>609.3333333333333</ele><time>2026-05-02T13:48:49.507Z</time></trkpt><trkpt lat="46.00629798797277" lon="11.165358876797615"><ele>608.0</ele><time>2026-05-02T13:48:50.507Z</time></trkpt><trkpt lat="46.00631046849238" lon="11.165079699842487"><ele>606.0</ele><time>2026-05-02T13:48:51.507Z</time></trkpt><trkpt lat="46.00632685605161" lon="11.164719505493304"><ele>604.0</ele><time>2026-05-02T13:48:52.507Z</time></trkpt><trkpt lat="46.00632881689861" lon="11.164408180614842"><ele>604.0</ele><time>2026-05-02T13:48:53.507Z</time></trkpt><trkpt lat="46.006351059376875" lon="11.164115870055856"><ele>604.0</ele><time>2026-05-02T13:48:54.507Z</time></trkpt><trkpt lat="46.00637261402265" lon="11.163834010848902"><ele>604.0</ele><time>2026-05-02T13:48:55.507Z</time></trkpt><trkpt lat="46.0063709699041" lon="11.163572558100736"><ele>601.6666666666667</ele><time>2026-05-02T13:48:56.507Z</time></trkpt><trkpt lat="46.00639661000776" lon="11.163306302580125"><ele>599.3333333333334</ele><time>2026-05-02T13:48:57.507Z</time></trkpt><trkpt lat="46.006406588838026" lon="11.163051269384422"><ele>597.0</ele><time>2026-05-02T13:48:58.507Z</time></trkpt><trkpt lat="46.00641127948383" lon="11.162799251197445"><ele>593.6666666666666</ele><time>2026-05-02T13:48:59.507Z</time></trkpt><trkpt lat="46.00641407885388" lon="11.162552547985136"><ele>590.3333333333333</ele><time>2026-05-02T13:49:00.507Z</time></trkpt><trkpt lat="46.00641712443217" lon="11.162304392674042"><ele>587.0</ele><time>2026-05-02T13:49:01.507Z</time></trkpt><trkpt lat="46.00643215494774" lon="11.16205285041943"><ele>585.3333333333333</ele><time>2026-05-02T13:49:02.507Z</time></trkpt><trkpt lat="46.00647482174087" lon="11.161844832606747"><ele>583.6666666666666</ele><time>2026-05-02T13:49:03.507Z</time></trkpt><trkpt lat="46.00652585151484" lon="11.161643769522358"><ele>582.0</ele><time>2026-05-02T13:49:04.507Z</time></trkpt><trkpt lat="46.00659816289961" lon="11.161434896336154"><ele>585.6666666666666</ele><time>2026-05-02T13:49:05.507Z</time></trkpt><trkpt lat="46.00669411723762" lon="11.161229127959695"><ele>589.3333333333333</ele><time>2026-05-02T13:49:06.507Z</time></trkpt><trkpt lat="46.00680476548321" lon="11.161039910273034"><ele>593.0</ele><time>2026-05-02T13:49:07.507Z</time></trkpt><trkpt lat="46.006934391925896" lon="11.16082378671849"><ele>585.3333333333333</ele><time>2026-05-02T13:49:08.507Z</time></trkpt><trkpt lat="46.00706723036473" lon="11.160579076485904"><ele>577.6666666666666</ele><time>2026-05-02T13:49:09.507Z</time></trkpt><trkpt lat="46.00717992580719" lon="11.160387341542558"><ele>570.0</ele><time>2026-05-02T13:49:10.507Z</time></trkpt><trkpt lat="46.00728155296608" lon="11.160216165641875"><ele>570.0</ele><time>2026-05-02T13:49:11.507Z</time></trkpt><trkpt lat="46.007387365732164" lon="11.160077811399763"><ele>570.0</ele><time>2026-05-02T13:49:12.507Z</time></trkpt><trkpt lat="46.00747958083122" lon="11.15992279046683"><ele>570.0</ele><time>2026-05-02T13:49:13.507Z</time></trkpt><trkpt lat="46.00759349753402" lon="11.15981036029848"><ele>570.0</ele><time>2026-05-02T13:49:14.507Z</time></trkpt><trkpt lat="46.00761902529518" lon="11.159643183801787"><ele>571.6666666666666</ele><time>2026-05-02T13:49:15.507Z</time></trkpt><trkpt lat="46.00756919698642" lon="11.159356132349323"><ele>573.3333333333333</ele><time>2026-05-02T13:49:16.507Z</time></trkpt><trkpt lat="46.00755374282167" lon="11.15908315327581"><ele>575.0</ele><time>2026-05-02T13:49:17.507Z</time></trkpt><trkpt lat="46.007564068105914" lon="11.158853354882785"><ele>575.0</ele><time>2026-05-02T13:49:18.507Z</time></trkpt><trkpt lat="46.007578548187595" lon="11.158601185716318"><ele>575.0</ele><time>2026-05-02T13:49:19.507Z</time></trkpt><trkpt lat="46.00755305547148" lon="11.158319317518497"><ele>575.0</ele><time>2026-05-02T13:49:20.507Z</time></trkpt><trkpt lat="46.00755679084241" lon="11.158110993925344"><ele>571.3333333333333</ele><time>2026-05-02T13:49:21.507Z</time></trkpt><trkpt lat="46.00760229142155" lon="11.157918530263991"><ele>567.6666666666666</ele><time>2026-05-02T13:49:22.507Z</time></trkpt><trkpt lat="46.00764112134145" lon="11.157746683291942"><ele>564.0</ele><time>2026-05-02T13:49:23.507Z</time></trkpt><trkpt lat="46.00771523454233" lon="11.157498424990784"><ele>561.6666666666666</ele><time>2026-05-02T13:49:24.507Z</time></trkpt><trkpt lat="46.00777502741131" lon="11.157300954643627"><ele>559.3333333333333</ele><time>2026-05-02T13:49:25.507Z</time></trkpt><trkpt lat="46.007825725022585" lon="11.15709587892063"><ele>557.0</ele><time>2026-05-02T13:49:26.507Z</time></trkpt><trkpt lat="46.00789330688269" lon="11.156889731601732"><ele>557.0</ele><time>2026-05-02T13:49:27.507Z</time></trkpt><trkpt lat="46.00795761551527" lon="11.15669480899139"><ele>557.0</ele><time>2026-05-02T13:49:28.507Z</time></trkpt><trkpt lat="46.00801329510842" lon="11.156488713306201"><ele>557.0</ele><time>2026-05-02T13:49:29.507Z</time></trkpt><trkpt lat="46.008069845296475" lon="11.156314494948015"><ele>557.0</ele><time>2026-05-02T13:49:30.507Z</time></trkpt><trkpt lat="46.008114859496565" lon="11.156128531380658"><ele>557.25</ele><time>2026-05-02T13:49:31.507Z</time></trkpt><trkpt lat="46.00816275617552" lon="11.15595152057759"><ele>557.5</ele><time>2026-05-02T13:49:32.507Z</time></trkpt><trkpt lat="46.00821938555799" lon="11.155778611668703"><ele>557.75</ele><time>2026-05-02T13:49:33.507Z</time></trkpt><trkpt lat="46.00827237847399" lon="11.155625908632581"><ele>558.0</ele><time>2026-05-02T13:49:34.507Z</time></trkpt><trkpt lat="46.008331627626" lon="11.155517506966783"><ele>558.0</ele><time>2026-05-02T13:49:35.507Z</time></trkpt><trkpt lat="46.00843394439618" lon="11.155474470360746"><ele>558.0</ele><time>2026-05-02T13:49:36.507Z</time></trkpt><trkpt lat="46.00853430886928" lon="11.155439276182621"><ele>558.0</ele><time>2026-05-02T13:49:37.507Z</time></trkpt><trkpt lat="46.0086297409287" lon="11.15545851781986"><ele>558.0</ele><time>2026-05-02T13:49:38.507Z</time></trkpt><trkpt lat="46.00878726875541" lon="11.15554333117588"><ele>558.0</ele><time>2026-05-02T13:49:39.507Z</time></trkpt><trkpt lat="46.0088625310882" lon="11.155688942046618"><ele>558.0</ele><time>2026-05-02T13:49:40.507Z</time></trkpt><trkpt lat="46.008978625116356" lon="11.155845678074245"><ele>558.0</ele><time>2026-05-02T13:49:41.507Z</time></trkpt><trkpt lat="46.00910456033422" lon="11.155938902235116"><ele>558.0</ele><time>2026-05-02T13:49:42.507Z</time></trkpt><trkpt lat="46.0092164859478" lon="11.156010990661684"><ele>558.5</ele><time>2026-05-02T13:49:43.507Z</time></trkpt><trkpt lat="46.009501130054076" lon="11.15600220319333"><ele>559.0</ele><time>2026-05-02T13:49:45.507Z</time></trkpt><trkpt lat="46.00973957376798" lon="11.15610224275588"><ele>559.0</ele><time>2026-05-02T13:49:47.507Z</time></trkpt><trkpt lat="46.009856037491176" lon="11.156200988796106"><ele>559.0</ele><time>2026-05-02T13:49:48.507Z</time></trkpt><trkpt lat="46.00995814905928" lon="11.15623982073997"><ele>559.0</ele><time>2026-05-02T13:49:49.507Z</time></trkpt><trkpt lat="46.01006435361375" lon="11.156579534005191"><ele>561.25</ele><time>2026-05-02T13:49:50.507Z</time></trkpt><trkpt lat="46.01017765019993" lon="11.156757306579939"><ele>563.5</ele><time>2026-05-02T13:49:51.507Z</time></trkpt><trkpt lat="46.010274767091204" lon="11.1569112502514"><ele>565.75</ele><time>2026-05-02T13:49:52.507Z</time></trkpt><trkpt lat="46.010343694982396" lon="11.15705158308261"><ele>568.0</ele><time>2026-05-02T13:49:53.508Z</time></trkpt><trkpt lat="46.01037049985406" lon="11.157181828496759"><ele>568.0</ele><time>2026-05-02T13:49:54.508Z</time></trkpt><trkpt lat="46.01050408771722" lon="11.15723868484856"><ele>568.0</ele><time>2026-05-02T13:49:55.508Z</time></trkpt><trkpt lat="46.010756659162666" lon="11.157193342665995"><ele>568.0</ele><time>2026-05-02T13:49:57.508Z</time></trkpt><trkpt lat="46.01084210376301" lon="11.157134755940364"><ele>562.6666666666667</ele><time>2026-05-02T13:49:58.508Z</time></trkpt><trkpt lat="46.010956507212065" lon="11.156943153673508"><ele>557.3333333333334</ele><time>2026-05-02T13:49:59.508Z</time></trkpt><trkpt lat="46.0110060461353" lon="11.156720813076419"><ele>552.0</ele><time>2026-05-02T13:50:00.508Z</time></trkpt><trkpt lat="46.01102893403232" lon="11.156494973107797"><ele>550.3333333333334</ele><time>2026-05-02T13:50:01.508Z</time></trkpt><trkpt lat="46.0109978844924" lon="11.156281159124308"><ele>548.6666666666667</ele><time>2026-05-02T13:50:02.508Z</time></trkpt><trkpt lat="46.010947343018586" lon="11.15600428510416"><ele>547.0</ele><time>2026-05-02T13:50:03.508Z</time></trkpt><trkpt lat="46.01080294325776" lon="11.15562565187404"><ele>538.3333333333334</ele><time>2026-05-02T13:50:04.508Z</time></trkpt><trkpt lat="46.01072006418985" lon="11.1553402568098"><ele>529.6666666666666</ele><time>2026-05-02T13:50:05.508Z</time></trkpt><trkpt lat="46.01063750079346" lon="11.155082121988208"><ele>521.0</ele><time>2026-05-02T13:50:06.508Z</time></trkpt><trkpt lat="46.01054328149739" lon="11.154845516568082"><ele>521.0</ele><time>2026-05-02T13:50:07.508Z</time></trkpt><trkpt lat="46.01044773185859" lon="11.154604771354153"><ele>521.0</ele><time>2026-05-02T13:50:08.508Z</time></trkpt><trkpt lat="46.01033873998083" lon="11.154355264662687"><ele>521.0</ele><time>2026-05-02T13:50:09.508Z</time></trkpt><trkpt lat="46.01023565012378" lon="11.154114882775557"><ele>522.6666666666666</ele><time>2026-05-02T13:50:10.508Z</time></trkpt><trkpt lat="46.01013139815086" lon="11.153873522887917"><ele>524.3333333333334</ele><time>2026-05-02T13:50:11.508Z</time></trkpt><trkpt lat="46.010033987799034" lon="11.153647086600014"><ele>526.0</ele><time>2026-05-02T13:50:12.508Z</time></trkpt><trkpt lat="46.00994731548644" lon="11.153413414775521"><ele>514.6666666666667</ele><time>2026-05-02T13:50:13.508Z</time></trkpt><trkpt lat="46.00988736927051" lon="11.153181730530953"><ele>503.33333333333337</ele><time>2026-05-02T13:50:14.508Z</time></trkpt><trkpt lat="46.009831665779465" lon="11.152927423077433"><ele>492.0</ele><time>2026-05-02T13:50:15.508Z</time></trkpt><trkpt lat="46.00977141948684" lon="11.152654429424082"><ele>492.0</ele><time>2026-05-02T13:50:16.508Z</time></trkpt><trkpt lat="46.00971094570781" lon="11.152383871056182"><ele>492.0</ele><time>2026-05-02T13:50:17.508Z</time></trkpt><trkpt lat="46.00965015062426" lon="11.152113697845921"><ele>492.0</ele><time>2026-05-02T13:50:18.508Z</time></trkpt><trkpt lat="46.00959697785063" lon="11.151877397961826"><ele>493.0</ele><time>2026-05-02T13:50:19.508Z</time></trkpt><trkpt lat="46.009526748857674" lon="11.151658357174318"><ele>494.0</ele><time>2026-05-02T13:50:20.508Z</time></trkpt><trkpt lat="46.00945205903564" lon="11.151447303478683"><ele>495.0</ele><time>2026-05-02T13:50:21.508Z</time></trkpt><trkpt lat="46.00939313267318" lon="11.151232944959222"><ele>496.25</ele><time>2026-05-02T13:50:22.508Z</time></trkpt><trkpt lat="46.009321899040295" lon="11.151034502514111"><ele>497.5</ele><time>2026-05-02T13:50:23.508Z</time></trkpt><trkpt lat="46.00923605755259" lon="11.150897932796461"><ele>498.75</ele><time>2026-05-02T13:50:24.508Z</time></trkpt><trkpt lat="46.00918519061809" lon="11.150753123354647"><ele>500.0</ele><time>2026-05-02T13:50:25.508Z</time></trkpt><trkpt lat="46.00915345879385" lon="11.150606260712069"><ele>497.0</ele><time>2026-05-02T13:50:26.508Z</time></trkpt><trkpt lat="46.00912539970316" lon="11.150471642493796"><ele>494.0</ele><time>2026-05-02T13:50:27.508Z</time></trkpt><trkpt lat="46.009169651524836" lon="11.150237481544107"><ele>491.0</ele><time>2026-05-02T13:50:29.508Z</time></trkpt><trkpt lat="46.009316249179825" lon="11.150149546110924"><ele>488.0</ele><time>2026-05-02T13:50:30.508Z</time></trkpt><trkpt lat="46.00941675554793" lon="11.149968217527688"><ele>481.5</ele><time>2026-05-02T13:50:31.508Z</time></trkpt><trkpt lat="46.009507029603895" lon="11.149800096580135"><ele>475.0</ele><time>2026-05-02T13:50:32.508Z</time></trkpt><trkpt lat="46.00958818717487" lon="11.149650802915657"><ele>468.5</ele><time>2026-05-02T13:50:33.508Z</time></trkpt><trkpt lat="46.0096701665093" lon="11.149506727745306"><ele>462.0</ele><time>2026-05-02T13:50:34.508Z</time></trkpt><trkpt lat="46.00976009053738" lon="11.149395056596356"><ele>462.0</ele><time>2026-05-02T13:50:35.508Z</time></trkpt><trkpt lat="46.00985987850483" lon="11.14932333641271"><ele>462.0</ele><time>2026-05-02T13:50:36.508Z</time></trkpt><trkpt lat="46.00999788749002" lon="11.14928386071157"><ele>462.0</ele><time>2026-05-02T13:50:37.508Z</time></trkpt><trkpt lat="46.01018299514791" lon="11.149335885823104"><ele>462.0</ele><time>2026-05-02T13:50:38.508Z</time></trkpt><trkpt lat="46.01031275386219" lon="11.149406417499334"><ele>470.0</ele><time>2026-05-02T13:50:39.508Z</time></trkpt><trkpt lat="46.010436940879195" lon="11.149519504672178"><ele>478.0</ele><time>2026-05-02T13:50:40.508Z</time></trkpt><trkpt lat="46.010617948311214" lon="11.149656361795648"><ele>486.0</ele><time>2026-05-02T13:50:41.508Z</time></trkpt><trkpt lat="46.010781813285696" lon="11.149764399520548"><ele>483.75</ele><time>2026-05-02T13:50:42.508Z</time></trkpt><trkpt lat="46.01091765972924" lon="11.149810915628663"><ele>481.5</ele><time>2026-05-02T13:50:43.508Z</time></trkpt><trkpt lat="46.01103969099924" lon="11.149813927227838"><ele>479.25</ele><time>2026-05-02T13:50:44.508Z</time></trkpt><trkpt lat="46.01115265938095" lon="11.14981503695222"><ele>477.0</ele><time>2026-05-02T13:50:45.508Z</time></trkpt><trkpt lat="46.011266708116025" lon="11.149767560068526"><ele>477.0</ele><time>2026-05-02T13:50:46.508Z</time></trkpt><trkpt lat="46.011374785840424" lon="11.149723548768245"><ele>477.0</ele><time>2026-05-02T13:50:47.508Z</time></trkpt><trkpt lat="46.011495933459855" lon="11.14957450180205"><ele>477.0</ele><time>2026-05-02T13:50:48.508Z</time></trkpt><trkpt lat="46.0115811833042" lon="11.149430838300976"><ele>477.0</ele><time>2026-05-02T13:50:49.508Z</time></trkpt><trkpt lat="46.011668274762684" lon="11.149267343436993"><ele>478.25</ele><time>2026-05-02T13:50:50.508Z</time></trkpt><trkpt lat="46.0117616674474" lon="11.149127561546686"><ele>479.5</ele><time>2026-05-02T13:50:51.508Z</time></trkpt><trkpt lat="46.01183539705508" lon="11.148943253242992"><ele>480.75</ele><time>2026-05-02T13:50:52.508Z</time></trkpt><trkpt lat="46.011932213440296" lon="11.148801229774875"><ele>482.0</ele><time>2026-05-02T13:50:53.508Z</time></trkpt><trkpt lat="46.01202166240903" lon="11.148646638881392"><ele>478.75</ele><time>2026-05-02T13:50:54.508Z</time></trkpt><trkpt lat="46.012100363875334" lon="11.148492816330672"><ele>475.5</ele><time>2026-05-02T13:50:55.508Z</time></trkpt><trkpt lat="46.01216795811826" lon="11.148327495130303"><ele>472.25</ele><time>2026-05-02T13:50:56.508Z</time></trkpt><trkpt lat="46.012216473291744" lon="11.148150972147757"><ele>469.0</ele><time>2026-05-02T13:50:57.508Z</time></trkpt><trkpt lat="46.01223190341195" lon="11.147940850483039"><ele>467.0</ele><time>2026-05-02T13:50:58.508Z</time></trkpt><trkpt lat="46.01228271977085" lon="11.147750520361223"><ele>465.0</ele><time>2026-05-02T13:50:59.508Z</time></trkpt><trkpt lat="46.01233257378702" lon="11.147553200632633"><ele>463.0</ele><time>2026-05-02T13:51:00.508Z</time></trkpt><trkpt lat="46.012377600091455" lon="11.147363479417061"><ele>461.0</ele><time>2026-05-02T13:51:01.508Z</time></trkpt><trkpt lat="46.012434508189116" lon="11.14718958064749"><ele>460.25</ele><time>2026-05-02T13:51:02.508Z</time></trkpt><trkpt lat="46.01247929374513" lon="11.14703012801893"><ele>459.5</ele><time>2026-05-02T13:51:03.508Z</time></trkpt><trkpt lat="46.01256548283598" lon="11.146918372887493"><ele>458.75</ele><time>2026-05-02T13:51:04.508Z</time></trkpt><trkpt lat="46.01266827697701" lon="11.146813419399846"><ele>458.0</ele><time>2026-05-02T13:51:05.508Z</time></trkpt><trkpt lat="46.01280232638431" lon="11.146738710298367"><ele>458.0</ele><time>2026-05-02T13:51:06.508Z</time></trkpt><trkpt lat="46.01295063413114" lon="11.146683722657324"><ele>458.0</ele><time>2026-05-02T13:51:07.508Z</time></trkpt><trkpt lat="46.01308626859055" lon="11.146621373037227"><ele>458.0</ele><time>2026-05-02T13:51:08.508Z</time></trkpt><trkpt lat="46.013246158875475" lon="11.146570901377997"><ele>451.3333333333333</ele><time>2026-05-02T13:51:09.508Z</time></trkpt><trkpt lat="46.01341225121562" lon="11.14650094957018"><ele>444.66666666666663</ele><time>2026-05-02T13:51:10.508Z</time></trkpt><trkpt lat="46.01357486816759" lon="11.146437645784767"><ele>438.0</ele><time>2026-05-02T13:51:11.508Z</time></trkpt><trkpt lat="46.01373460481614" lon="11.146374340978511"><ele>438.0</ele><time>2026-05-02T13:51:12.508Z</time></trkpt><trkpt lat="46.013917666759724" lon="11.1462876361193"><ele>438.0</ele><time>2026-05-02T13:51:13.508Z</time></trkpt><trkpt lat="46.01409087348135" lon="11.146208053236116"><ele>438.0</ele><time>2026-05-02T13:51:14.508Z</time></trkpt><trkpt lat="46.014256258782595" lon="11.146136873746075"><ele>439.0</ele><time>2026-05-02T13:51:15.508Z</time></trkpt><trkpt lat="46.01440157687732" lon="11.146067690475444"><ele>440.0</ele><time>2026-05-02T13:51:16.508Z</time></trkpt><trkpt lat="46.014557683920955" lon="11.145985946254577"><ele>441.0</ele><time>2026-05-02T13:51:17.508Z</time></trkpt><trkpt lat="46.01470848617921" lon="11.145926725699049"><ele>441.0</ele><time>2026-05-02T13:51:18.508Z</time></trkpt><trkpt lat="46.014860158970755" lon="11.145888317035423"><ele>441.0</ele><time>2026-05-02T13:51:19.508Z</time></trkpt><trkpt lat="46.01500321429351" lon="11.145824489473997"><ele>441.0</ele><time>2026-05-02T13:51:20.508Z</time></trkpt><trkpt lat="46.01513430635582" lon="11.145744889699023"><ele>441.0</ele><time>2026-05-02T13:51:21.508Z</time></trkpt><trkpt lat="46.01529653628231" lon="11.145651477227"><ele>436.0</ele><time>2026-05-02T13:51:22.508Z</time></trkpt><trkpt lat="46.015441881036786" lon="11.14551241091753"><ele>431.0</ele><time>2026-05-02T13:51:23.508Z</time></trkpt><trkpt lat="46.015575295530255" lon="11.145377171333289"><ele>426.0</ele><time>2026-05-02T13:51:24.508Z</time></trkpt><trkpt lat="46.015700779008455" lon="11.14529039970559"><ele>428.5</ele><time>2026-05-02T13:51:25.508Z</time></trkpt><trkpt lat="46.015831066306085" lon="11.145237900403558"><ele>431.0</ele><time>2026-05-02T13:51:26.508Z</time></trkpt><trkpt lat="46.01593866122211" lon="11.145200278482722"><ele>433.5</ele><time>2026-05-02T13:51:27.508Z</time></trkpt><trkpt lat="46.01603340906655" lon="11.145200050109397"><ele>436.0</ele><time>2026-05-02T13:51:28.508Z</time></trkpt><trkpt lat="46.01615589525293" lon="11.145285050655861"><ele>436.0</ele><time>2026-05-02T13:51:29.508Z</time></trkpt><trkpt lat="46.016315184194596" lon="11.145417458123903"><ele>436.0</ele><time>2026-05-02T13:51:30.508Z</time></trkpt><trkpt lat="46.0164781506306" lon="11.14549159370331"><ele>436.0</ele><time>2026-05-02T13:51:31.508Z</time></trkpt><trkpt lat="46.01655414118228" lon="11.14555960133305"><ele>436.0</ele><time>2026-05-02T13:51:32.508Z</time></trkpt><trkpt lat="46.016679579677536" lon="11.145504161845215"><ele>434.6666666666667</ele><time>2026-05-02T13:51:33.508Z</time></trkpt><trkpt lat="46.0168179745185" lon="11.14543053199776"><ele>433.33333333333337</ele><time>2026-05-02T13:51:34.508Z</time></trkpt><trkpt lat="46.01692583427598" lon="11.145295621969169"><ele>432.0</ele><time>2026-05-02T13:51:35.508Z</time></trkpt><trkpt lat="46.01703624683839" lon="11.145118849807288"><ele>432.0</ele><time>2026-05-02T13:51:36.508Z</time></trkpt><trkpt lat="46.017130634968254" lon="11.145013687021397"><ele>432.00000000000006</ele><time>2026-05-02T13:51:37.508Z</time></trkpt><trkpt lat="46.01722808768521" lon="11.144931780411298"><ele>432.00000000000006</ele><time>2026-05-02T13:51:38.508Z</time></trkpt><trkpt lat="46.0173252777445" lon="11.144862904310767"><ele>432.0</ele><time>2026-05-02T13:51:39.508Z</time></trkpt><trkpt lat="46.01741378157574" lon="11.144787271013453"><ele>432.0</ele><time>2026-05-02T13:51:40.508Z</time></trkpt><trkpt lat="46.01752850800262" lon="11.144835507073577"><ele>431.75</ele><time>2026-05-02T13:51:41.508Z</time></trkpt><trkpt lat="46.017675492193234" lon="11.144922277692935"><ele>431.5</ele><time>2026-05-02T13:51:42.508Z</time></trkpt><trkpt lat="46.01779936373573" lon="11.144971102300465"><ele>431.25</ele><time>2026-05-02T13:51:43.508Z</time></trkpt><trkpt lat="46.01795024760522" lon="11.14501435623757"><ele>431.0</ele><time>2026-05-02T13:51:44.508Z</time></trkpt><trkpt lat="46.01807568312976" lon="11.145062654290685"><ele>431.0</ele><time>2026-05-02T13:51:45.508Z</time></trkpt><trkpt lat="46.01819774233601" lon="11.14511563226859"><ele>431.0</ele><time>2026-05-02T13:51:46.508Z</time></trkpt><trkpt lat="46.018306692999815" lon="11.145179781260198"><ele>431.0</ele><time>2026-05-02T13:51:47.508Z</time></trkpt><trkpt lat="46.01839637947643" lon="11.145206502246275"><ele>431.0</ele><time>2026-05-02T13:51:48.508Z</time></trkpt><trkpt lat="46.01847698731691" lon="11.145240488988565"><ele>431.0</ele><time>2026-05-02T13:51:49.508Z</time></trkpt><trkpt lat="46.01855991309324" lon="11.145241512534948"><ele>429.8333333333333</ele><time>2026-05-02T13:51:50.508Z</time></trkpt><trkpt lat="46.018649610855206" lon="11.145253941261897"><ele>428.66666666666663</ele><time>2026-05-02T13:51:51.508Z</time></trkpt><trkpt lat="46.018730275322184" lon="11.145221954486725"><ele>427.5</ele><time>2026-05-02T13:51:52.508Z</time></trkpt><trkpt lat="46.018807202980526" lon="11.145212975136449"><ele>426.33333333333337</ele><time>2026-05-02T13:51:53.508Z</time></trkpt><trkpt lat="46.018884641320795" lon="11.145203936159222"><ele>425.1666666666667</ele><time>2026-05-02T13:51:54.508Z</time></trkpt><trkpt lat="46.01897803661655" lon="11.145193034602297"><ele>424.0</ele><time>2026-05-02T13:51:55.508Z</time></trkpt><trkpt lat="46.019071949229684" lon="11.145182072678095"><ele>422.75</ele><time>2026-05-02T13:51:56.508Z</time></trkpt><trkpt lat="46.01918258649153" lon="11.1451733867347"><ele>421.5</ele><time>2026-05-02T13:51:57.508Z</time></trkpt><trkpt lat="46.019313850590315" lon="11.145163939713788"><ele>420.25</ele><time>2026-05-02T13:51:58.508Z</time></trkpt><trkpt lat="46.019420810433104" lon="11.14521016079905"><ele>419.0</ele><time>2026-05-02T13:51:59.508Z</time></trkpt><trkpt lat="46.01952296408907" lon="11.145254841341803"><ele>419.0</ele><time>2026-05-02T13:52:00.508Z</time></trkpt><trkpt lat="46.019627871703925" lon="11.145319712512268"><ele>419.0</ele><time>2026-05-02T13:52:01.508Z</time></trkpt><trkpt lat="46.01973573622618" lon="11.145356523499022"><ele>419.0</ele><time>2026-05-02T13:52:02.508Z</time></trkpt><trkpt lat="46.01981422312325" lon="11.145358998747433"><ele>419.0</ele><time>2026-05-02T13:52:03.508Z</time></trkpt><trkpt lat="46.01993997876221" lon="11.145413777775476"><ele>419.0</ele><time>2026-05-02T13:52:04.508Z</time></trkpt><trkpt lat="46.02005438646965" lon="11.145465342529771"><ele>417.0</ele><time>2026-05-02T13:52:05.508Z</time></trkpt><trkpt lat="46.02017253235233" lon="11.145505078129819"><ele>415.0</ele><time>2026-05-02T13:52:06.508Z</time></trkpt><trkpt lat="46.020284673393505" lon="11.145493050255054"><ele>413.0</ele><time>2026-05-02T13:52:07.508Z</time></trkpt><trkpt lat="46.02040561839321" lon="11.145502989685875"><ele>411.0</ele><time>2026-05-02T13:52:08.508Z</time></trkpt><trkpt lat="46.020530630478525" lon="11.145500741444769"><ele>411.0</ele><time>2026-05-02T13:52:09.508Z</time></trkpt><trkpt lat="46.02063924293528" lon="11.145459282251977"><ele>411.0</ele><time>2026-05-02T13:52:10.508Z</time></trkpt><trkpt lat="46.02073637709912" lon="11.145412353203564"><ele>411.0</ele><time>2026-05-02T13:52:11.508Z</time></trkpt><trkpt lat="46.02084244905476" lon="11.145362345141669"><ele>411.0</ele><time>2026-05-02T13:52:12.508Z</time></trkpt><trkpt lat="46.020950190484356" lon="11.145289897978099"><ele>411.0</ele><time>2026-05-02T13:52:13.508Z</time></trkpt><trkpt lat="46.02104044669114" lon="11.145248085971353"><ele>411.5</ele><time>2026-05-02T13:52:14.508Z</time></trkpt><trkpt lat="46.0211181671536" lon="11.145230897660605"><ele>412.0</ele><time>2026-05-02T13:52:15.508Z</time></trkpt><trkpt lat="46.02120628639921" lon="11.145177602083903"><ele>412.5</ele><time>2026-05-02T13:52:16.508Z</time></trkpt><trkpt lat="46.021287853578116" lon="11.14512624705218"><ele>413.0</ele><time>2026-05-02T13:52:17.508Z</time></trkpt><trkpt lat="46.02136982206242" lon="11.145089994449263"><ele>413.5</ele><time>2026-05-02T13:52:18.508Z</time></trkpt><trkpt lat="46.02145170060589" lon="11.145061122975052"><ele>414.0</ele><time>2026-05-02T13:52:19.508Z</time></trkpt><trkpt lat="46.02157839530318" lon="11.145014950279537"><ele>413.6</ele><time>2026-05-02T13:52:21.508Z</time></trkpt><trkpt lat="46.02165735744838" lon="11.144999585817166"><ele>413.2</ele><time>2026-05-02T13:52:22.508Z</time></trkpt><trkpt lat="46.0217608825436" lon="11.144992953243454"><ele>412.8</ele><time>2026-05-02T13:52:24.508Z</time></trkpt><trkpt lat="46.02183956035917" lon="11.145013942501445"><ele>412.40000000000003</ele><time>2026-05-02T13:52:26.508Z</time></trkpt><trkpt lat="46.021808010972784" lon="11.144792975515047"><ele>412.0</ele><time>2026-05-02T13:52:30.508Z</time></trkpt><trkpt lat="46.021743190797125" lon="11.144716144364182"><ele>407.0</ele><time>2026-05-02T13:52:31.508Z</time></trkpt><trkpt lat="46.02166134028208" lon="11.144680964294807"><ele>402.0</ele><time>2026-05-02T13:52:32.508Z</time></trkpt><trkpt lat="46.02156180685453" lon="11.14467205291753"><ele>397.0</ele><time>2026-05-02T13:52:33.508Z</time></trkpt><trkpt lat="46.0214125073865" lon="11.144715028065937"><ele>392.0</ele><time>2026-05-02T13:52:34.508Z</time></trkpt><trkpt lat="46.021235468106646" lon="11.14476341929159"><ele>392.0</ele><time>2026-05-02T13:52:35.508Z</time></trkpt><trkpt lat="46.02107685793978" lon="11.144803655972597"><ele>392.0</ele><time>2026-05-02T13:52:36.508Z</time></trkpt><trkpt lat="46.02092154154874" lon="11.144811479585945"><ele>392.0</ele><time>2026-05-02T13:52:37.508Z</time></trkpt><trkpt lat="46.0207669628577" lon="11.144847909282372"><ele>388.0</ele><time>2026-05-02T13:52:38.508Z</time></trkpt><trkpt lat="46.02061872671432" lon="11.144883799066443"><ele>384.0</ele><time>2026-05-02T13:52:39.508Z</time></trkpt><trkpt lat="46.02047369399134" lon="11.144883481965085"><ele>380.0</ele><time>2026-05-02T13:52:40.508Z</time></trkpt><trkpt lat="46.02031228460887" lon="11.144845334166083"><ele>380.0</ele><time>2026-05-02T13:52:41.508Z</time></trkpt><trkpt lat="46.02014759584769" lon="11.14482311718694"><ele>380.0</ele><time>2026-05-02T13:52:42.508Z</time></trkpt><trkpt lat="46.01999486199508" lon="11.144793068556599"><ele>380.0</ele><time>2026-05-02T13:52:43.508Z</time></trkpt><trkpt lat="46.01984942678918" lon="11.144712547275088"><ele>379.33333333333337</ele><time>2026-05-02T13:52:44.508Z</time></trkpt><trkpt lat="46.01969708521319" lon="11.14467022755392"><ele>378.6666666666667</ele><time>2026-05-02T13:52:45.508Z</time></trkpt><trkpt lat="46.019527714115576" lon="11.144626543163465"><ele>378.0</ele><time>2026-05-02T13:52:46.508Z</time></trkpt><trkpt lat="46.01933530077747" lon="11.144588181907745"><ele>380.66666666666663</ele><time>2026-05-02T13:52:47.508Z</time></trkpt><trkpt lat="46.01911900361955" lon="11.144594464727646"><ele>383.3333333333333</ele><time>2026-05-02T13:52:48.508Z</time></trkpt><trkpt lat="46.0189171575503" lon="11.14461791401629"><ele>386.0</ele><time>2026-05-02T13:52:49.508Z</time></trkpt><trkpt lat="46.0187499370549" lon="11.144645220455809"><ele>386.0</ele><time>2026-05-02T13:52:50.508Z</time></trkpt><trkpt lat="46.018591239048156" lon="11.144660197623177"><ele>386.0</ele><time>2026-05-02T13:52:51.508Z</time></trkpt><trkpt lat="46.01843436512617" lon="11.144653849329703"><ele>386.0</ele><time>2026-05-02T13:52:52.508Z</time></trkpt><trkpt lat="46.01829267136183" lon="11.144637815183335"><ele>389.5</ele><time>2026-05-02T13:52:53.508Z</time></trkpt><trkpt lat="46.018151607498524" lon="11.14461897801383"><ele>393.0</ele><time>2026-05-02T13:52:54.508Z</time></trkpt><trkpt lat="46.01803020546584" lon="11.14456543900995"><ele>396.5</ele><time>2026-05-02T13:52:55.508Z</time></trkpt><trkpt lat="46.01790029293417" lon="11.144509038145635"><ele>400.0</ele><time>2026-05-02T13:52:56.508Z</time></trkpt><trkpt lat="46.01776215199234" lon="11.144439789763275"><ele>400.0</ele><time>2026-05-02T13:52:57.508Z</time></trkpt><trkpt lat="46.017635810733445" lon="11.144402237821646"><ele>400.0</ele><time>2026-05-02T13:52:58.508Z</time></trkpt><trkpt lat="46.01752337857697" lon="11.144316891817247"><ele>400.0</ele><time>2026-05-02T13:52:59.508Z</time></trkpt><trkpt lat="46.017414617934634" lon="11.1442307378959"><ele>400.0</ele><time>2026-05-02T13:53:00.508Z</time></trkpt><trkpt lat="46.01727322042697" lon="11.144113205332607"><ele>396.0</ele><time>2026-05-02T13:53:01.508Z</time></trkpt><trkpt lat="46.0171607309025" lon="11.144021788525077"><ele>392.0</ele><time>2026-05-02T13:53:02.508Z</time></trkpt><trkpt lat="46.01703801471635" lon="11.143916847430908"><ele>388.0</ele><time>2026-05-02T13:53:03.508Z</time></trkpt><trkpt lat="46.01690658352483" lon="11.14379159618379"><ele>384.0</ele><time>2026-05-02T13:53:04.508Z</time></trkpt><trkpt lat="46.016759184471624" lon="11.143682731500844"><ele>385.66666666666663</ele><time>2026-05-02T13:53:05.508Z</time></trkpt><trkpt lat="46.01662591603933" lon="11.143545409195251"><ele>387.3333333333333</ele><time>2026-05-02T13:53:06.508Z</time></trkpt><trkpt lat="46.01648133813886" lon="11.143418693699072"><ele>389.0</ele><time>2026-05-02T13:53:07.508Z</time></trkpt><trkpt lat="46.0163567925097" lon="11.14328189275082"><ele>381.0</ele><time>2026-05-02T13:53:08.508Z</time></trkpt><trkpt lat="46.016232811356346" lon="11.143147217881834"><ele>373.0</ele><time>2026-05-02T13:53:09.508Z</time></trkpt><trkpt lat="46.01609664841777" lon="11.143003715541939"><ele>365.0</ele><time>2026-05-02T13:53:10.508Z</time></trkpt><trkpt lat="46.015973694546176" lon="11.142874951826645"><ele>365.0</ele><time>2026-05-02T13:53:11.508Z</time></trkpt><trkpt lat="46.015843311680655" lon="11.142739756907977"><ele>365.0</ele><time>2026-05-02T13:53:12.508Z</time></trkpt><trkpt lat="46.01570549785377" lon="11.142577429885277"><ele>365.0</ele><time>2026-05-02T13:53:13.508Z</time></trkpt><trkpt lat="46.01557936149019" lon="11.142483623950476"><ele>359.6666666666667</ele><time>2026-05-02T13:53:14.508Z</time></trkpt><trkpt lat="46.01543504901231" lon="11.142368542900222"><ele>354.3333333333333</ele><time>2026-05-02T13:53:15.508Z</time></trkpt><trkpt lat="46.01530551075532" lon="11.142263353236237"><ele>349.0</ele><time>2026-05-02T13:53:16.508Z</time></trkpt><trkpt lat="46.01516951942219" lon="11.142147932803024"><ele>349.0</ele><time>2026-05-02T13:53:17.508Z</time></trkpt><trkpt lat="46.01505757923262" lon="11.141997263870618"><ele>349.0</ele><time>2026-05-02T13:53:18.508Z</time></trkpt><trkpt lat="46.01494335713608" lon="11.141832451719177"><ele>349.0</ele><time>2026-05-02T13:53:19.508Z</time></trkpt><trkpt lat="46.01483882384074" lon="11.141680231849648"><ele>347.3333333333333</ele><time>2026-05-02T13:53:20.508Z</time></trkpt><trkpt lat="46.01473295572927" lon="11.141526063064871"><ele>345.6666666666667</ele><time>2026-05-02T13:53:21.508Z</time></trkpt><trkpt lat="46.014612615578905" lon="11.141351034333356"><ele>344.0</ele><time>2026-05-02T13:53:22.508Z</time></trkpt><trkpt lat="46.0144996324613" lon="11.14119014150368"><ele>344.0</ele><time>2026-05-02T13:53:23.508Z</time></trkpt><trkpt lat="46.01437571458514" lon="11.141013677111353"><ele>344.0</ele><time>2026-05-02T13:53:24.508Z</time></trkpt><trkpt lat="46.01424706364107" lon="11.140825939914622"><ele>344.0</ele><time>2026-05-02T13:53:25.508Z</time></trkpt><trkpt lat="46.014124033161835" lon="11.140629288092736"><ele>344.33333333333337</ele><time>2026-05-02T13:53:26.508Z</time></trkpt><trkpt lat="46.014005934855746" lon="11.140426626184903"><ele>344.6666666666667</ele><time>2026-05-02T13:53:27.508Z</time></trkpt><trkpt lat="46.01388259149665" lon="11.140205276790244"><ele>345.0</ele><time>2026-05-02T13:53:28.508Z</time></trkpt><trkpt lat="46.01376215188291" lon="11.140024481212782"><ele>337.0</ele><time>2026-05-02T13:53:29.508Z</time></trkpt><trkpt lat="46.01366228222888" lon="11.139841762745986"><ele>329.0</ele><time>2026-05-02T13:53:30.508Z</time></trkpt><trkpt lat="46.013540650063796" lon="11.139698378804466"><ele>321.0</ele><time>2026-05-02T13:53:31.508Z</time></trkpt><trkpt lat="46.013413714932355" lon="11.139604694144865"><ele>323.0</ele><time>2026-05-02T13:53:32.508Z</time></trkpt><trkpt lat="46.01326377995855" lon="11.139490712322544"><ele>325.0</ele><time>2026-05-02T13:53:33.508Z</time></trkpt><trkpt lat="46.01308745271008" lon="11.139418968414576"><ele>327.0</ele><time>2026-05-02T13:53:34.508Z</time></trkpt><trkpt lat="46.01286101801462" lon="11.139433190008235"><ele>327.0</ele><time>2026-05-02T13:53:35.508Z</time></trkpt><trkpt lat="46.01265111953838" lon="11.139387478398834"><ele>327.0</ele><time>2026-05-02T13:53:36.508Z</time></trkpt><trkpt lat="46.01245846801774" lon="11.13932901488489"><ele>327.0</ele><time>2026-05-02T13:53:37.508Z</time></trkpt><trkpt lat="46.01227855606055" lon="11.139267163162527"><ele>326.0</ele><time>2026-05-02T13:53:38.508Z</time></trkpt><trkpt lat="46.01209659480362" lon="11.13920558058752"><ele>325.0</ele><time>2026-05-02T13:53:39.508Z</time></trkpt><trkpt lat="46.011918371561016" lon="11.139163873578172"><ele>324.0</ele><time>2026-05-02T13:53:40.508Z</time></trkpt><trkpt lat="46.011762927294974" lon="11.139103412500623"><ele>318.25</ele><time>2026-05-02T13:53:41.508Z</time></trkpt><trkpt lat="46.01164809765307" lon="11.139030129427494"><ele>312.5</ele><time>2026-05-02T13:53:42.508Z</time></trkpt><trkpt lat="46.0115332515674" lon="11.138974011776458"><ele>306.75</ele><time>2026-05-02T13:53:43.508Z</time></trkpt><trkpt lat="46.01143808679132" lon="11.138893419988559"><ele>301.0</ele><time>2026-05-02T13:53:44.508Z</time></trkpt><trkpt lat="46.011336854556276" lon="11.138822970361822"><ele>301.0</ele><time>2026-05-02T13:53:45.508Z</time></trkpt><trkpt lat="46.011249486257675" lon="11.138772724214034"><ele>301.0</ele><time>2026-05-02T13:53:46.508Z</time></trkpt><trkpt lat="46.01115683904001" lon="11.138737921864122"><ele>301.0</ele><time>2026-05-02T13:53:47.508Z</time></trkpt><trkpt lat="46.0110075752741" lon="11.138788075011687"><ele>301.0</ele><time>2026-05-02T13:53:48.508Z</time></trkpt><trkpt lat="46.01087716576531" lon="11.138885250916845"><ele>301.0</ele><time>2026-05-02T13:53:49.508Z</time></trkpt><trkpt lat="46.01072136791864" lon="11.138998148255643"><ele>301.0</ele><time>2026-05-02T13:53:50.508Z</time></trkpt><trkpt lat="46.010614140014575" lon="11.13905786252365"><ele>301.0</ele><time>2026-05-02T13:53:51.508Z</time></trkpt><trkpt lat="46.01049038104983" lon="11.139083613656275"><ele>301.0</ele><time>2026-05-02T13:53:52.508Z</time></trkpt><trkpt lat="46.01036694710138" lon="11.13906823670819"><ele>301.0</ele><time>2026-05-02T13:53:53.508Z</time></trkpt><trkpt lat="46.01022693513532" lon="11.13902124658543"><ele>301.0</ele><time>2026-05-02T13:53:54.508Z</time></trkpt><trkpt lat="46.010074315642946" lon="11.138950056178444"><ele>301.0</ele><time>2026-05-02T13:53:55.508Z</time></trkpt><trkpt lat="46.00993663357393" lon="11.138866693924438"><ele>301.25</ele><time>2026-05-02T13:53:56.508Z</time></trkpt><trkpt lat="46.00980282502443" lon="11.138785791397463"><ele>301.5</ele><time>2026-05-02T13:53:57.508Z</time></trkpt><trkpt lat="46.00967640667304" lon="11.138734589929326"><ele>301.75</ele><time>2026-05-02T13:53:58.508Z</time></trkpt><trkpt lat="46.00957643322477" lon="11.138651730990754"><ele>302.0</ele><time>2026-05-02T13:53:59.508Z</time></trkpt><trkpt lat="46.009488452278084" lon="11.138609251747166"><ele>302.0</ele><time>2026-05-02T13:54:00.508Z</time></trkpt><trkpt lat="46.0093856596086" lon="11.138601598279875"><ele>302.0</ele><time>2026-05-02T13:54:01.508Z</time></trkpt><trkpt lat="46.009285987737954" lon="11.138791088337495"><ele>302.0</ele><time>2026-05-02T13:54:02.508Z</time></trkpt><trkpt lat="46.00919089265083" lon="11.138865962603463"><ele>302.0</ele><time>2026-05-02T13:54:03.508Z</time></trkpt><trkpt lat="46.0090950874345" lon="11.138944918747214"><ele>300.2</ele><time>2026-05-02T13:54:04.508Z</time></trkpt><trkpt lat="46.009009035777694" lon="11.139026212006891"><ele>298.4</ele><time>2026-05-02T13:54:05.508Z</time></trkpt><trkpt lat="46.008918519900696" lon="11.139127995503149"><ele>296.6</ele><time>2026-05-02T13:54:06.508Z</time></trkpt><trkpt lat="46.00882055273106" lon="11.139205446801343"><ele>294.8</ele><time>2026-05-02T13:54:07.508Z</time></trkpt><trkpt lat="46.0087225273237" lon="11.139261508803768"><ele>293.0</ele><time>2026-05-02T13:54:08.508Z</time></trkpt><trkpt lat="46.00863778514039" lon="11.139234171363938"><ele>293.0</ele><time>2026-05-02T13:54:09.508Z</time></trkpt><trkpt lat="46.00856197784592" lon="11.13922246932225"><ele>293.0</ele><time>2026-05-02T13:54:10.508Z</time></trkpt><trkpt lat="46.00847780512" lon="11.13919038491787"><ele>293.0</ele><time>2026-05-02T13:54:11.508Z</time></trkpt><trkpt lat="46.00838318468904" lon="11.139137755592383"><ele>293.0</ele><time>2026-05-02T13:54:12.508Z</time></trkpt><trkpt lat="46.00831913269511" lon="11.139000466003521"><ele>293.0</ele><time>2026-05-02T13:54:13.508Z</time></trkpt><trkpt lat="46.00824983104987" lon="11.13885929193192"><ele>292.25</ele><time>2026-05-02T13:54:14.508Z</time></trkpt><trkpt lat="46.0081863567484" lon="11.138695905296464"><ele>291.5</ele><time>2026-05-02T13:54:15.508Z</time></trkpt><trkpt lat="46.00813337667011" lon="11.138493756272098"><ele>290.75</ele><time>2026-05-02T13:54:16.508Z</time></trkpt><trkpt lat="46.00807760500969" lon="11.138295916328943"><ele>290.0</ele><time>2026-05-02T13:54:17.508Z</time></trkpt><trkpt lat="46.0080156938516" lon="11.138114584136243"><ele>286.25</ele><time>2026-05-02T13:54:18.508Z</time></trkpt><trkpt lat="46.007961520408884" lon="11.137948701181614"><ele>282.5</ele><time>2026-05-02T13:54:19.508Z</time></trkpt><trkpt lat="46.007927436593" lon="11.137784925706056"><ele>278.75</ele><time>2026-05-02T13:54:20.508Z</time></trkpt><trkpt lat="46.00791116444465" lon="11.137615271458152"><ele>275.0</ele><time>2026-05-02T13:54:21.508Z</time></trkpt><trkpt lat="46.007877557669104" lon="11.13743230721172"><ele>273.1666666666667</ele><time>2026-05-02T13:54:22.508Z</time></trkpt><trkpt lat="46.00784033964484" lon="11.137300176299803"><ele>271.33333333333337</ele><time>2026-05-02T13:54:23.508Z</time></trkpt><trkpt lat="46.00781265809967" lon="11.137188246504095"><ele>269.5</ele><time>2026-05-02T13:54:24.508Z</time></trkpt><trkpt lat="46.00777451768094" lon="11.137080705048694"><ele>267.6666666666667</ele><time>2026-05-02T13:54:25.508Z</time></trkpt><trkpt lat="46.00776545382178" lon="11.13698759537858"><ele>265.8333333333333</ele><time>2026-05-02T13:54:26.508Z</time></trkpt><trkpt lat="46.00771477654011" lon="11.136900412148016"><ele>264.0</ele><time>2026-05-02T13:54:27.508Z</time></trkpt><trkpt lat="46.00763988352856" lon="11.136827452623804"><ele>260.6666666666667</ele><time>2026-05-02T13:54:28.508Z</time></trkpt><trkpt lat="46.00749218076907" lon="11.136893759867814"><ele>257.33333333333337</ele><time>2026-05-02T13:54:29.508Z</time></trkpt><trkpt lat="46.00722918510102" lon="11.136928192325787"><ele>254.0</ele><time>2026-05-02T13:54:30.508Z</time></trkpt><trkpt lat="46.007096926799235" lon="11.136872140535054"><ele>254.0</ele><time>2026-05-02T13:54:31.508Z</time></trkpt><trkpt lat="46.0069495765836" lon="11.136878502087958"><ele>254.0</ele><time>2026-05-02T13:54:32.508Z</time></trkpt><trkpt lat="46.00682478150663" lon="11.136906856089064"><ele>254.0</ele><time>2026-05-02T13:54:33.508Z</time></trkpt><trkpt lat="46.00669382680924" lon="11.136903557148488"><ele>254.0</ele><time>2026-05-02T13:54:34.508Z</time></trkpt><trkpt lat="46.00658468363221" lon="11.136847604082217"><ele>253.39999999999998</ele><time>2026-05-02T13:54:35.508Z</time></trkpt><trkpt lat="46.00647037434007" lon="11.13681451742393"><ele>252.79999999999998</ele><time>2026-05-02T13:54:36.508Z</time></trkpt><trkpt lat="46.00635948254813" lon="11.13677271183883"><ele>252.20000000000002</ele><time>2026-05-02T13:54:37.508Z</time></trkpt><trkpt lat="46.006257928528385" lon="11.136722719576772"><ele>251.60000000000002</ele><time>2026-05-02T13:54:38.508Z</time></trkpt><trkpt lat="46.00616933654008" lon="11.13668818418377"><ele>251.0</ele><time>2026-05-02T13:54:39.508Z</time></trkpt><trkpt lat="46.0061398657431" lon="11.136583293352988"><ele>249.75</ele><time>2026-05-02T13:54:40.508Z</time></trkpt><trkpt lat="46.006183594907164" lon="11.136507243610142"><ele>248.5</ele><time>2026-05-02T13:54:41.508Z</time></trkpt><trkpt lat="46.0062091322819" lon="11.13634525142645"><ele>247.25</ele><time>2026-05-02T13:54:42.508Z</time></trkpt><trkpt lat="46.00616907187834" lon="11.136091135323788"><ele>246.0</ele><time>2026-05-02T13:54:43.508Z</time></trkpt><trkpt lat="46.00614005409951" lon="11.135902541040322"><ele>243.66666666666669</ele><time>2026-05-02T13:54:44.508Z</time></trkpt><trkpt lat="46.006105948420874" lon="11.13568087911331"><ele>241.33333333333334</ele><time>2026-05-02T13:54:45.508Z</time></trkpt><trkpt lat="46.006070934490836" lon="11.135453314361069"><ele>239.0</ele><time>2026-05-02T13:54:46.508Z</time></trkpt><trkpt lat="46.00603610597241" lon="11.135226737369424"><ele>239.0</ele><time>2026-05-02T13:54:47.508Z</time></trkpt><trkpt lat="46.006004105294316" lon="11.135016741563659"><ele>239.0</ele><time>2026-05-02T13:54:48.508Z</time></trkpt><trkpt lat="46.005973993366474" lon="11.134819139954798"><ele>239.0</ele><time>2026-05-02T13:54:49.508Z</time></trkpt><trkpt lat="46.00593782814898" lon="11.134609829312456"><ele>239.0</ele><time>2026-05-02T13:54:50.508Z</time></trkpt><trkpt lat="46.00589388107268" lon="11.134422515492862"><ele>237.75</ele><time>2026-05-02T13:54:51.508Z</time></trkpt><trkpt lat="46.00584166956754" lon="11.134275404973389"><ele>236.5</ele><time>2026-05-02T13:54:52.508Z</time></trkpt><trkpt lat="46.005752875686674" lon="11.13412603804279"><ele>235.25</ele><time>2026-05-02T13:54:53.508Z</time></trkpt><trkpt lat="46.005679609890585" lon="11.133991606915146"><ele>234.0</ele><time>2026-05-02T13:54:54.508Z</time></trkpt><trkpt lat="46.00558769702071" lon="11.133896358117024"><ele>232.39999999999998</ele><time>2026-05-02T13:54:55.508Z</time></trkpt><trkpt lat="46.00546619134602" lon="11.133883173415617"><ele>230.79999999999998</ele><time>2026-05-02T13:54:56.508Z</time></trkpt><trkpt lat="46.0053457327108" lon="11.133835229614936"><ele>229.20000000000002</ele><time>2026-05-02T13:54:57.508Z</time></trkpt><trkpt lat="46.00528199926116" lon="11.133733545444567"><ele>227.60000000000002</ele><time>2026-05-02T13:54:58.508Z</time></trkpt><trkpt lat="46.00523998132449" lon="11.13359196270952"><ele>226.0</ele><time>2026-05-02T13:55:00.508Z</time></trkpt><trkpt lat="46.005250520001645" lon="11.133474158321855"><ele>226.0</ele><time>2026-05-02T13:55:01.508Z</time></trkpt><trkpt lat="46.00538038077582" lon="11.133279227678637"><ele>226.0</ele><time>2026-05-02T13:55:03.508Z</time></trkpt><trkpt lat="46.00546177855539" lon="11.133143859324537"><ele>226.0</ele><time>2026-05-02T13:55:04.508Z</time></trkpt><trkpt lat="46.005531633621146" lon="11.133027215130436"><ele>226.0</ele><time>2026-05-02T13:55:05.508Z</time></trkpt><trkpt lat="46.005619736708546" lon="11.132899431616972"><ele>225.4</ele><time>2026-05-02T13:55:06.508Z</time></trkpt><trkpt lat="46.00569945959272" lon="11.132780972639829"><ele>224.8</ele><time>2026-05-02T13:55:07.508Z</time></trkpt><trkpt lat="46.00578657916114" lon="11.132677089124957"><ele>224.20000000000002</ele><time>2026-05-02T13:55:08.508Z</time></trkpt><trkpt lat="46.00585296958324" lon="11.132556878953386"><ele>223.60000000000002</ele><time>2026-05-02T13:55:09.508Z</time></trkpt><trkpt lat="46.005908126615616" lon="11.132457354681181"><ele>223.0</ele><time>2026-05-02T13:55:10.508Z</time></trkpt><trkpt lat="46.00594428473362" lon="11.132333085148298"><ele>222.4</ele><time>2026-05-02T13:55:11.508Z</time></trkpt><trkpt lat="46.00596703015606" lon="11.132209585491314"><ele>221.8</ele><time>2026-05-02T13:55:12.508Z</time></trkpt><trkpt lat="46.00599257785749" lon="11.132062672904889"><ele>221.2</ele><time>2026-05-02T13:55:13.508Z</time></trkpt><trkpt lat="46.00603383236022" lon="11.131902473261912"><ele>220.6</ele><time>2026-05-02T13:55:14.508Z</time></trkpt><trkpt lat="46.00604361904575" lon="11.131760967018222"><ele>220.0</ele><time>2026-05-02T13:55:15.508Z</time></trkpt><trkpt lat="46.00606906532327" lon="11.131611883449823"><ele>219.2</ele><time>2026-05-02T13:55:16.508Z</time></trkpt><trkpt lat="46.00609160235492" lon="11.131464488191904"><ele>218.4</ele><time>2026-05-02T13:55:17.508Z</time></trkpt><trkpt lat="46.006104126849166" lon="11.131336208644761"><ele>217.60000000000002</ele><time>2026-05-02T13:55:18.508Z</time></trkpt><trkpt lat="46.00611566012751" lon="11.131194832213717"><ele>216.8</ele><time>2026-05-02T13:55:19.508Z</time></trkpt><trkpt lat="46.00615576607466" lon="11.131051476686519"><ele>216.0</ele><time>2026-05-02T13:55:20.508Z</time></trkpt><trkpt lat="46.00615029433625" lon="11.130921948588801"><ele>216.0</ele><time>2026-05-02T13:55:21.508Z</time></trkpt><trkpt lat="46.006134806755654" lon="11.130786074226545"><ele>216.00000000000003</ele><time>2026-05-02T13:55:22.508Z</time></trkpt><trkpt lat="46.00612279861435" lon="11.130637948633723"><ele>216.00000000000003</ele><time>2026-05-02T13:55:23.508Z</time></trkpt><trkpt lat="46.00605153305352" lon="11.130516757406353"><ele>216.0</ele><time>2026-05-02T13:55:24.508Z</time></trkpt><trkpt lat="46.00602596993226" lon="11.130394676570846"><ele>216.0</ele><time>2026-05-02T13:55:25.508Z</time></trkpt><trkpt lat="46.005987990693605" lon="11.130277239397008"><ele>214.60000000000002</ele><time>2026-05-02T13:55:26.508Z</time></trkpt><trkpt lat="46.005953742462026" lon="11.130148042867342"><ele>213.20000000000002</ele><time>2026-05-02T13:55:27.508Z</time></trkpt><trkpt lat="46.00592393495773" lon="11.130033071653171"><ele>211.8</ele><time>2026-05-02T13:55:28.508Z</time></trkpt><trkpt lat="46.005892683904754" lon="11.129947364873843"><ele>210.39999999999998</ele><time>2026-05-02T13:55:29.508Z</time></trkpt><trkpt lat="46.00583471067152" lon="11.129758962044585"><ele>209.0</ele><time>2026-05-02T13:55:31.508Z</time></trkpt><trkpt lat="46.00580874427668" lon="11.129663031047277"><ele>208.33333333333334</ele><time>2026-05-02T13:55:32.508Z</time></trkpt><trkpt lat="46.00577424211169" lon="11.129538719664476"><ele>207.66666666666669</ele><time>2026-05-02T13:55:33.508Z</time></trkpt><trkpt lat="46.005747530716754" lon="11.129446043654907"><ele>207.0</ele><time>2026-05-02T13:55:34.508Z</time></trkpt><trkpt lat="46.005724153609265" lon="11.129351917764675"><ele>206.33333333333331</ele><time>2026-05-02T13:55:35.508Z</time></trkpt><trkpt lat="46.00570449527255" lon="11.12925746357546"><ele>205.66666666666666</ele><time>2026-05-02T13:55:36.508Z</time></trkpt><trkpt lat="46.00570734341805" lon="11.129160530429578"><ele>205.0</ele><time>2026-05-02T13:55:37.508Z</time></trkpt><trkpt lat="46.00572817808016" lon="11.1290106565892"><ele>204.49999999999997</ele><time>2026-05-02T13:55:38.508Z</time></trkpt><trkpt lat="46.005732281831996" lon="11.12888224135849"><ele>204.0</ele><time>2026-05-02T13:55:39.508Z</time></trkpt><trkpt lat="46.00575458225371" lon="11.128772550432501"><ele>203.5</ele><time>2026-05-02T13:55:40.508Z</time></trkpt><trkpt lat="46.00580397905487" lon="11.12868524796052"><ele>203.0</ele><time>2026-05-02T13:55:41.508Z</time></trkpt><trkpt lat="46.005883923255475" lon="11.128573271296831"><ele>202.49999999999997</ele><time>2026-05-02T13:55:42.508Z</time></trkpt><trkpt lat="46.00592380219602" lon="11.128460775550542"><ele>202.0</ele><time>2026-05-02T13:55:43.508Z</time></trkpt><trkpt lat="46.00596064844237" lon="11.128335268330806"><ele>202.0</ele><time>2026-05-02T13:55:44.508Z</time></trkpt><trkpt lat="46.006198870569136" lon="11.128324991400785"><ele>202.0</ele><time>2026-05-02T13:55:47.508Z</time></trkpt><trkpt lat="46.00643306418566" lon="11.128248784598034"><ele>202.0</ele><time>2026-05-02T13:55:48.508Z</time></trkpt><trkpt lat="46.006512723190035" lon="11.128261572265712"><ele>202.0</ele><time>2026-05-02T13:55:49.508Z</time></trkpt><trkpt lat="46.00666143556681" lon="11.128310851245146"><ele>202.0</ele><time>2026-05-02T13:55:51.508Z</time></trkpt><trkpt lat="46.00687034186524" lon="11.128090333830077"><ele>201.2</ele><time>2026-05-02T13:55:54.508Z</time></trkpt><trkpt lat="46.006925909787455" lon="11.128016520751613"><ele>200.39999999999998</ele><time>2026-05-02T13:55:55.508Z</time></trkpt><trkpt lat="46.00698783925039" lon="11.127933608581344"><ele>199.60000000000002</ele><time>2026-05-02T13:55:56.508Z</time></trkpt><trkpt lat="46.00704817568804" lon="11.127848106020723"><ele>198.8</ele><time>2026-05-02T13:55:57.508Z</time></trkpt><trkpt lat="46.00698745683741" lon="11.12767538942945"><ele>198.0</ele><time>2026-05-02T13:55:58.508Z</time></trkpt><trkpt lat="46.00705439546627" lon="11.127632371498375"><ele>198.0</ele><time>2026-05-02T13:55:59.508Z</time></trkpt><trkpt lat="46.007165059620114" lon="11.127801812309704"><ele>198.0</ele><time>2026-05-02T13:56:01.508Z</time></trkpt><trkpt lat="46.00734576633269" lon="11.127880150228068"><ele>198.0</ele><time>2026-05-02T13:56:02.508Z</time></trkpt><trkpt lat="46.007432750022176" lon="11.127889835001321"><ele>198.0</ele><time>2026-05-02T13:56:03.508Z</time></trkpt><trkpt lat="46.00752209626122" lon="11.127966408123111"><ele>196.75</ele><time>2026-05-02T13:56:04.508Z</time></trkpt><trkpt lat="46.00764922004852" lon="11.128026439304046"><ele>195.5</ele><time>2026-05-02T13:56:05.508Z</time></trkpt><trkpt lat="46.00776967189313" lon="11.128049687337029"><ele>194.25</ele><time>2026-05-02T13:56:06.508Z</time></trkpt><trkpt lat="46.0078756963632" lon="11.128084145826062"><ele>193.0</ele><time>2026-05-02T13:56:07.508Z</time></trkpt><trkpt lat="46.00797911988354" lon="11.128108412871386"><ele>193.0</ele><time>2026-05-02T13:56:08.508Z</time></trkpt><trkpt lat="46.00807361645262" lon="11.12812697230263"><ele>193.0</ele><time>2026-05-02T13:56:09.508Z</time></trkpt><trkpt lat="46.008152175469014" lon="11.128196506824311"><ele>193.0</ele><time>2026-05-02T13:56:10.508Z</time></trkpt><trkpt lat="46.00822633090072" lon="11.128241406364406"><ele>193.0</ele><time>2026-05-02T13:56:11.509Z</time></trkpt><trkpt lat="46.00828924350632" lon="11.128279498864757"><ele>193.0</ele><time>2026-05-02T13:56:13.509Z</time></trkpt><trkpt lat="46.00825561727636" lon="11.128014277568605"><ele>193.0</ele><time>2026-05-02T13:56:15.509Z</time></trkpt><trkpt lat="46.00826865695432" lon="11.12788935734912"><ele>193.0</ele><time>2026-05-02T13:56:16.509Z</time></trkpt><trkpt lat="46.008307748649784" lon="11.127729932222252"><ele>193.0</ele><time>2026-05-02T13:56:18.509Z</time></trkpt><trkpt lat="46.00832245231581" lon="11.12763150947783"><ele>193.0</ele><time>2026-05-02T13:56:19.509Z</time></trkpt><trkpt lat="46.008354013375914" lon="11.127474837768975"><ele>193.0</ele><time>2026-05-02T13:56:21.509Z</time></trkpt><trkpt lat="46.00836802817167" lon="11.127379581954406"><ele>192.25</ele><time>2026-05-02T13:56:23.509Z</time></trkpt><trkpt lat="46.00858315510291" lon="11.127456780603728"><ele>191.5</ele><time>2026-05-02T13:56:28.509Z</time></trkpt><trkpt lat="46.008672147087715" lon="11.127517177870768"><ele>190.75</ele><time>2026-05-02T13:56:29.509Z</time></trkpt><trkpt lat="46.00875510015552" lon="11.127578782109245"><ele>190.0</ele><time>2026-05-02T13:56:30.509Z</time></trkpt><trkpt lat="46.008836736429735" lon="11.127644648168365"><ele>190.0</ele><time>2026-05-02T13:56:31.509Z</time></trkpt><trkpt lat="46.00891632303279" lon="11.127691367404703"><ele>190.0</ele><time>2026-05-02T13:56:32.509Z</time></trkpt><trkpt lat="46.00896464582213" lon="11.127764616700999"><ele>190.0</ele><time>2026-05-02T13:56:33.509Z</time></trkpt><trkpt lat="46.00906092147464" lon="11.127550688041918"><ele>190.0</ele><time>2026-05-02T13:56:37.509Z</time></trkpt><trkpt lat="46.00904706243265" lon="11.127411902230588"><ele>190.0</ele><time>2026-05-02T13:56:38.509Z</time></trkpt><trkpt lat="46.009070804361016" lon="11.127221998795944"><ele>189.4</ele><time>2026-05-02T13:56:39.509Z</time></trkpt><trkpt lat="46.009107736782944" lon="11.12705632314877"><ele>188.8</ele><time>2026-05-02T13:56:40.509Z</time></trkpt><trkpt lat="46.009124090534954" lon="11.126906062381158"><ele>188.2</ele><time>2026-05-02T13:56:41.509Z</time></trkpt><trkpt lat="46.00913938836216" lon="11.126756010523337"><ele>187.6</ele><time>2026-05-02T13:56:42.509Z</time></trkpt><trkpt lat="46.00916560989781" lon="11.126606047299571"><ele>187.0</ele><time>2026-05-02T13:56:43.509Z</time></trkpt><trkpt lat="46.00919430005447" lon="11.12645077182442"><ele>186.2</ele><time>2026-05-02T13:56:44.509Z</time></trkpt><trkpt lat="46.009219818042325" lon="11.126306658268103"><ele>185.39999999999998</ele><time>2026-05-02T13:56:45.509Z</time></trkpt><trkpt lat="46.00924558509428" lon="11.126171801686782"><ele>184.60000000000002</ele><time>2026-05-02T13:56:46.509Z</time></trkpt><trkpt lat="46.009270438910484" lon="11.126038824454843"><ele>183.8</ele><time>2026-05-02T13:56:47.509Z</time></trkpt><trkpt lat="46.00928712783547" lon="11.125919524535979"><ele>183.0</ele><time>2026-05-02T13:56:48.509Z</time></trkpt><trkpt lat="46.00930350953102" lon="11.125795304714124"><ele>182.8</ele><time>2026-05-02T13:56:49.509Z</time></trkpt><trkpt lat="46.00932958846573" lon="11.12568788949109"><ele>182.60000000000002</ele><time>2026-05-02T13:56:50.509Z</time></trkpt><trkpt lat="46.009349459670915" lon="11.125593488429748"><ele>182.39999999999998</ele><time>2026-05-02T13:56:51.509Z</time></trkpt><trkpt lat="46.00937187521649" lon="11.125441320000576"><ele>182.2</ele><time>2026-05-02T13:56:53.509Z</time></trkpt><trkpt lat="46.00940421083711" lon="11.125288667081863"><ele>182.0</ele><time>2026-05-02T13:56:55.509Z</time></trkpt><trkpt lat="46.00941710784378" lon="11.12512928119002"><ele>182.0</ele><time>2026-05-02T13:56:57.509Z</time></trkpt><trkpt lat="46.009421162426854" lon="11.125024183788867"><ele>182.0</ele><time>2026-05-02T13:56:58.509Z</time></trkpt><trkpt lat="46.00944022632839" lon="11.124911184055357"><ele>182.0</ele><time>2026-05-02T13:56:59.509Z</time></trkpt><trkpt lat="46.00945607331853" lon="11.124822011441815"><ele>182.0</ele><time>2026-05-02T13:57:00.509Z</time></trkpt><trkpt lat="46.00947339256009" lon="11.124712389883788"><ele>182.0</ele><time>2026-05-02T13:57:02.509Z</time></trkpt><trkpt lat="46.009352151064725" lon="11.12454018191412"><ele>182.0</ele><time>2026-05-02T13:57:08.509Z</time></trkpt><trkpt lat="46.00918468374282" lon="11.124468354248812"><ele>182.0</ele><time>2026-05-02T13:57:09.509Z</time></trkpt><trkpt lat="46.00904317115439" lon="11.124401387494007"><ele>182.0</ele><time>2026-05-02T13:57:10.509Z</time></trkpt><trkpt lat="46.00889288699008" lon="11.124347219417563"><ele>181.66666666666666</ele><time>2026-05-02T13:57:11.509Z</time></trkpt><trkpt lat="46.0086957876602" lon="11.124258100656224"><ele>181.33333333333334</ele><time>2026-05-02T13:57:12.509Z</time></trkpt><trkpt lat="46.008477819229725" lon="11.124167200277125"><ele>181.0</ele><time>2026-05-02T13:57:13.509Z</time></trkpt><trkpt lat="46.0082608797605" lon="11.124062374489212"><ele>180.5</ele><time>2026-05-02T13:57:14.509Z</time></trkpt><trkpt lat="46.00802263509156" lon="11.123968007846278"><ele>180.0</ele><time>2026-05-02T13:57:15.509Z</time></trkpt><trkpt lat="46.007793866346844" lon="11.123904187851448"><ele>180.0</ele><time>2026-05-02T13:57:16.509Z</time></trkpt><trkpt lat="46.00758148264797" lon="11.123848290833571"><ele>180.0</ele><time>2026-05-02T13:57:17.509Z</time></trkpt><trkpt lat="46.00738050543916" lon="11.123840433038128"><ele>180.0</ele><time>2026-05-02T13:57:18.509Z</time></trkpt><trkpt lat="46.00716244831145" lon="11.123814898401582"><ele>180.5</ele><time>2026-05-02T13:57:19.509Z</time></trkpt><trkpt lat="46.006923228720126" lon="11.12381317694342"><ele>181.0</ele><time>2026-05-02T13:57:20.509Z</time></trkpt><trkpt lat="46.006671387815906" lon="11.123806371905049"><ele>181.0</ele><time>2026-05-02T13:57:21.509Z</time></trkpt><trkpt lat="46.0063922029552" lon="11.123764617416777"><ele>181.0</ele><time>2026-05-02T13:57:22.509Z</time></trkpt><trkpt lat="46.006138939974456" lon="11.123743353898744"><ele>181.0</ele><time>2026-05-02T13:57:23.509Z</time></trkpt><trkpt lat="46.005902097932996" lon="11.123730259049378"><ele>181.0</ele><time>2026-05-02T13:57:24.509Z</time></trkpt><trkpt lat="46.00566276325113" lon="11.123697565162596"><ele>181.5</ele><time>2026-05-02T13:57:25.509Z</time></trkpt><trkpt lat="46.005428128666075" lon="11.123616750499847"><ele>182.0</ele><time>2026-05-02T13:57:26.509Z</time></trkpt><trkpt lat="46.005182360433075" lon="11.123586943107489"><ele>183.0</ele><time>2026-05-02T13:57:27.509Z</time></trkpt><trkpt lat="46.00493602715462" lon="11.123551723089355"><ele>184.0</ele><time>2026-05-02T13:57:28.509Z</time></trkpt><trkpt lat="46.00470713292712" lon="11.12353091097879"><ele>184.0</ele><time>2026-05-02T13:57:29.509Z</time></trkpt><trkpt lat="46.00446145163391" lon="11.123498262668743"><ele>184.0</ele><time>2026-05-02T13:57:30.509Z</time></trkpt><trkpt lat="46.00420249513186" lon="11.123464928799606"><ele>182.5</ele><time>2026-05-02T13:57:31.509Z</time></trkpt><trkpt lat="46.003963225796305" lon="11.123430373529429"><ele>181.0</ele><time>2026-05-02T13:57:32.509Z</time></trkpt><trkpt lat="46.003732132266656" lon="11.123409029553123"><ele>181.0</ele><time>2026-05-02T13:57:33.509Z</time></trkpt><trkpt lat="46.00348689471286" lon="11.123379569292704"><ele>181.0</ele><time>2026-05-02T13:57:34.509Z</time></trkpt><trkpt lat="46.00324893624716" lon="11.123347226488622"><ele>181.0</ele><time>2026-05-02T13:57:35.509Z</time></trkpt><trkpt lat="46.00300347151452" lon="11.123311578338175"><ele>181.0</ele><time>2026-05-02T13:57:36.509Z</time></trkpt><trkpt lat="46.002757456542604" lon="11.123275321655182"><ele>181.0</ele><time>2026-05-02T13:57:37.509Z</time></trkpt><trkpt lat="46.00252935234586" lon="11.123241271915514"><ele>181.0</ele><time>2026-05-02T13:57:38.509Z</time></trkpt><trkpt lat="46.00227015379062" lon="11.12321270514336"><ele>180.0</ele><time>2026-05-02T13:57:39.509Z</time></trkpt><trkpt lat="46.00200197862947" lon="11.123183137486132"><ele>179.0</ele><time>2026-05-02T13:57:40.509Z</time></trkpt><trkpt lat="46.0017386606696" lon="11.123140699525369"><ele>179.0</ele><time>2026-05-02T13:57:41.509Z</time></trkpt><trkpt lat="46.00147104019452" lon="11.123092777304786"><ele>179.0</ele><time>2026-05-02T13:57:42.509Z</time></trkpt><trkpt lat="46.001212445277076" lon="11.123055910975618"><ele>179.0</ele><time>2026-05-02T13:57:43.509Z</time></trkpt><trkpt lat="46.00097270111685" lon="11.12303632647905"><ele>179.0</ele><time>2026-05-02T13:57:44.509Z</time></trkpt><trkpt lat="46.00075764501357" lon="11.12301148769514"><ele>179.66666666666666</ele><time>2026-05-02T13:57:45.509Z</time></trkpt><trkpt lat="46.00054231974221" lon="11.122968014046302"><ele>180.33333333333334</ele><time>2026-05-02T13:57:46.509Z</time></trkpt><trkpt lat="46.000334076063645" lon="11.122941944950519"><ele>181.0</ele><time>2026-05-02T13:57:47.509Z</time></trkpt><trkpt lat="46.00013669015712" lon="11.122907588284885"><ele>181.0</ele><time>2026-05-02T13:57:48.509Z</time></trkpt><trkpt lat="45.99991946697395" lon="11.122871382625792"><ele>181.0</ele><time>2026-05-02T13:57:49.509Z</time></trkpt><trkpt lat="45.999708703556955" lon="11.122836162784342"><ele>181.0</ele><time>2026-05-02T13:57:50.509Z</time></trkpt><trkpt lat="45.99948937419187" lon="11.122795442253574"><ele>181.0</ele><time>2026-05-02T13:57:51.509Z</time></trkpt><trkpt lat="45.99926846516905" lon="11.122767986154424"><ele>181.0</ele><time>2026-05-02T13:57:52.509Z</time></trkpt><trkpt lat="45.9990397513319" lon="11.122741871090884"><ele>180.5</ele><time>2026-05-02T13:57:53.509Z</time></trkpt><trkpt lat="45.99880661724317" lon="11.122714828132628"><ele>180.0</ele><time>2026-05-02T13:57:54.509Z</time></trkpt><trkpt lat="45.99855863794453" lon="11.122671134709305"><ele>180.5</ele><time>2026-05-02T13:57:55.509Z</time></trkpt><trkpt lat="45.99831486788459" lon="11.122642469948914"><ele>181.0</ele><time>2026-05-02T13:57:56.509Z</time></trkpt><trkpt lat="45.99806854726946" lon="11.122603902498435"><ele>181.0</ele><time>2026-05-02T13:57:57.509Z</time></trkpt><trkpt lat="45.997830237832886" lon="11.122554554149735"><ele>181.0</ele><time>2026-05-02T13:57:58.509Z</time></trkpt><trkpt lat="45.997567060695424" lon="11.122523322620705"><ele>181.5</ele><time>2026-05-02T13:57:59.509Z</time></trkpt><trkpt lat="45.99731466512631" lon="11.122476227793086"><ele>182.0</ele><time>2026-05-02T13:58:00.509Z</time></trkpt><trkpt lat="45.997054349424936" lon="11.122434335736074"><ele>181.5</ele><time>2026-05-02T13:58:01.509Z</time></trkpt><trkpt lat="45.99681277914322" lon="11.122391010962692"><ele>181.0</ele><time>2026-05-02T13:58:02.509Z</time></trkpt><trkpt lat="45.99657616870392" lon="11.122340004716284"><ele>181.0</ele><time>2026-05-02T13:58:03.509Z</time></trkpt><trkpt lat="45.996337820851295" lon="11.122271461391948"><ele>181.0</ele><time>2026-05-02T13:58:04.509Z</time></trkpt><trkpt lat="45.99610923329311" lon="11.12221201850537"><ele>181.0</ele><time>2026-05-02T13:58:05.509Z</time></trkpt><trkpt lat="45.99587799804996" lon="11.122133232770059"><ele>181.0</ele><time>2026-05-02T13:58:06.509Z</time></trkpt><trkpt lat="45.99564836359183" lon="11.122050493077827"><ele>181.0</ele><time>2026-05-02T13:58:07.509Z</time></trkpt><trkpt lat="45.995423236755194" lon="11.121969974980283"><ele>181.0</ele><time>2026-05-02T13:58:08.509Z</time></trkpt><trkpt lat="45.995206247657805" lon="11.121886078094622"><ele>181.0</ele><time>2026-05-02T13:58:09.509Z</time></trkpt><trkpt lat="45.99498871590807" lon="11.121791096471046"><ele>181.0</ele><time>2026-05-02T13:58:10.509Z</time></trkpt><trkpt lat="45.99476083809697" lon="11.121685849136828"><ele>181.0</ele><time>2026-05-02T13:58:11.509Z</time></trkpt><trkpt lat="45.994537733928865" lon="11.121582355678687"><ele>181.0</ele><time>2026-05-02T13:58:12.509Z</time></trkpt><trkpt lat="45.99429895369989" lon="11.121446571172827"><ele>181.5</ele><time>2026-05-02T13:58:13.509Z</time></trkpt><trkpt lat="45.99406042684024" lon="11.121314993464388"><ele>182.0</ele><time>2026-05-02T13:58:14.509Z</time></trkpt><trkpt lat="45.99382685069163" lon="11.121163968717086"><ele>182.0</ele><time>2026-05-02T13:58:15.509Z</time></trkpt><trkpt lat="45.99358142428292" lon="11.121031474892114"><ele>182.0</ele><time>2026-05-02T13:58:16.509Z</time></trkpt><trkpt lat="45.99334061410521" lon="11.120859434816621"><ele>181.5</ele><time>2026-05-02T13:58:17.509Z</time></trkpt><trkpt lat="45.99310898833182" lon="11.12070058160074"><ele>181.0</ele><time>2026-05-02T13:58:18.509Z</time></trkpt><trkpt lat="45.99288293461117" lon="11.120549657473324"><ele>181.0</ele><time>2026-05-02T13:58:19.509Z</time></trkpt><trkpt lat="45.99266606691814" lon="11.120409174953824"><ele>181.0</ele><time>2026-05-02T13:58:20.509Z</time></trkpt><trkpt lat="45.99244845734891" lon="11.120265390131914"><ele>180.5</ele><time>2026-05-02T13:58:21.509Z</time></trkpt><trkpt lat="45.9922260936019" lon="11.120114344966732"><ele>180.0</ele><time>2026-05-02T13:58:22.509Z</time></trkpt><trkpt lat="45.99199906693168" lon="11.119952384429352"><ele>180.0</ele><time>2026-05-02T13:58:23.509Z</time></trkpt><trkpt lat="45.99176648926044" lon="11.119793170138747"><ele>180.0</ele><time>2026-05-02T13:58:24.509Z</time></trkpt><trkpt lat="45.9915315061832" lon="11.119637729576004"><ele>180.0</ele><time>2026-05-02T13:58:25.509Z</time></trkpt><trkpt lat="45.99128592637641" lon="11.119473986687009"><ele>180.0</ele><time>2026-05-02T13:58:26.509Z</time></trkpt><trkpt lat="45.99104077343847" lon="11.119297351099275"><ele>180.0</ele><time>2026-05-02T13:58:27.509Z</time></trkpt><trkpt lat="45.99080886222421" lon="11.119126112007343"><ele>180.0</ele><time>2026-05-02T13:58:28.509Z</time></trkpt><trkpt lat="45.99057166819959" lon="11.118949760100199"><ele>180.5</ele><time>2026-05-02T13:58:29.509Z</time></trkpt><trkpt lat="45.99033507378547" lon="11.118766801753452"><ele>181.0</ele><time>2026-05-02T13:58:30.509Z</time></trkpt><trkpt lat="45.99009998077596" lon="11.118570355957493"><ele>181.0</ele><time>2026-05-02T13:58:31.509Z</time></trkpt><trkpt lat="45.98985622920768" lon="11.118354498111836"><ele>181.0</ele><time>2026-05-02T13:58:32.509Z</time></trkpt><trkpt lat="45.98959892057126" lon="11.118137119305082"><ele>180.5</ele><time>2026-05-02T13:58:33.509Z</time></trkpt><trkpt lat="45.98934477047775" lon="11.117903839915979"><ele>180.0</ele><time>2026-05-02T13:58:34.509Z</time></trkpt><trkpt lat="45.98908701064968" lon="11.117670119294917"><ele>179.5</ele><time>2026-05-02T13:58:35.509Z</time></trkpt><trkpt lat="45.98883114107113" lon="11.11744045400562"><ele>179.0</ele><time>2026-05-02T13:58:36.509Z</time></trkpt><trkpt lat="45.988593236168995" lon="11.117218846750218"><ele>179.0</ele><time>2026-05-02T13:58:37.509Z</time></trkpt><trkpt lat="45.98837557175152" lon="11.116996838264287"><ele>179.0</ele><time>2026-05-02T13:58:38.509Z</time></trkpt><trkpt lat="45.98817413566878" lon="11.116803630139026"><ele>179.5</ele><time>2026-05-02T13:58:39.509Z</time></trkpt><trkpt lat="45.98798180411944" lon="11.116605324376188"><ele>180.0</ele><time>2026-05-02T13:58:40.509Z</time></trkpt><trkpt lat="45.98779672643528" lon="11.116440698987853"><ele>180.66666666666666</ele><time>2026-05-02T13:58:41.509Z</time></trkpt><trkpt lat="45.98761089102059" lon="11.11625396357815"><ele>181.33333333333331</ele><time>2026-05-02T13:58:42.509Z</time></trkpt><trkpt lat="45.98742844724707" lon="11.116075387562045"><ele>182.0</ele><time>2026-05-02T13:58:43.509Z</time></trkpt><trkpt lat="45.98724608945887" lon="11.11590528796914"><ele>181.66666666666666</ele><time>2026-05-02T13:58:44.509Z</time></trkpt><trkpt lat="45.98705941898932" lon="11.115723699746582"><ele>181.33333333333334</ele><time>2026-05-02T13:58:45.509Z</time></trkpt><trkpt lat="45.986874730156494" lon="11.115544703202357"><ele>181.0</ele><time>2026-05-02T13:58:46.509Z</time></trkpt><trkpt lat="45.98669444489562" lon="11.115373324318297"><ele>180.33333333333334</ele><time>2026-05-02T13:58:47.509Z</time></trkpt><trkpt lat="45.986529685976464" lon="11.115218116737168"><ele>179.66666666666666</ele><time>2026-05-02T13:58:48.509Z</time></trkpt><trkpt lat="45.98636699427667" lon="11.11507136039379"><ele>179.0</ele><time>2026-05-02T13:58:49.509Z</time></trkpt><trkpt lat="45.98620775011219" lon="11.114925509659406"><ele>178.33333333333331</ele><time>2026-05-02T13:58:50.509Z</time></trkpt><trkpt lat="45.986033197088844" lon="11.114769696071823"><ele>177.66666666666666</ele><time>2026-05-02T13:58:51.509Z</time></trkpt><trkpt lat="45.98587932585817" lon="11.114646117064408"><ele>177.0</ele><time>2026-05-02T13:58:52.509Z</time></trkpt><trkpt lat="45.98571122418224" lon="11.114520751007262"><ele>178.33333333333334</ele><time>2026-05-02T13:58:53.509Z</time></trkpt><trkpt lat="45.98553582652945" lon="11.11440745272132"><ele>179.66666666666669</ele><time>2026-05-02T13:58:54.509Z</time></trkpt><trkpt lat="45.98535395242356" lon="11.114329952701379"><ele>181.0</ele><time>2026-05-02T13:58:55.509Z</time></trkpt><trkpt lat="45.985169784848914" lon="11.114263651114458"><ele>181.0</ele><time>2026-05-02T13:58:56.509Z</time></trkpt><trkpt lat="45.98497860871646" lon="11.114211404104662"><ele>181.0</ele><time>2026-05-02T13:58:57.509Z</time></trkpt><trkpt lat="45.9847865511987" lon="11.114171250713243"><ele>181.0</ele><time>2026-05-02T13:58:58.509Z</time></trkpt><trkpt lat="45.984580913980636" lon="11.114148580882995"><ele>181.0</ele><time>2026-05-02T13:58:59.509Z</time></trkpt><trkpt lat="45.98436780702891" lon="11.11416360211795"><ele>181.0</ele><time>2026-05-02T13:59:00.509Z</time></trkpt><trkpt lat="45.98415168815033" lon="11.114207421616126"><ele>181.0</ele><time>2026-05-02T13:59:01.509Z</time></trkpt><trkpt lat="45.98394315355167" lon="11.114250307930613"><ele>181.0</ele><time>2026-05-02T13:59:02.509Z</time></trkpt><trkpt lat="45.98373312452331" lon="11.114336399060905"><ele>181.0</ele><time>2026-05-02T13:59:03.509Z</time></trkpt><trkpt lat="45.98352816799438" lon="11.114439193594507"><ele>181.0</ele><time>2026-05-02T13:59:04.509Z</time></trkpt><trkpt lat="45.983334147355365" lon="11.114568478542347"><ele>181.0</ele><time>2026-05-02T13:59:05.509Z</time></trkpt><trkpt lat="45.98313813538354" lon="11.114692955716551"><ele>181.0</ele><time>2026-05-02T13:59:06.509Z</time></trkpt><trkpt lat="45.98294780514755" lon="11.114846708169761"><ele>181.0</ele><time>2026-05-02T13:59:07.509Z</time></trkpt><trkpt lat="45.982756954768305" lon="11.114992774632444"><ele>180.66666666666669</ele><time>2026-05-02T13:59:08.509Z</time></trkpt><trkpt lat="45.98255639516203" lon="11.115139899832723"><ele>180.33333333333334</ele><time>2026-05-02T13:59:09.509Z</time></trkpt><trkpt lat="45.98235603219465" lon="11.115248075777412"><ele>180.0</ele><time>2026-05-02T13:59:10.509Z</time></trkpt><trkpt lat="45.98214719102778" lon="11.115338224762915"><ele>180.0</ele><time>2026-05-02T13:59:11.509Z</time></trkpt><trkpt lat="45.98195073108523" lon="11.115404393674261"><ele>180.0</ele><time>2026-05-02T13:59:12.509Z</time></trkpt><trkpt lat="45.98176025221573" lon="11.11544814946705"><ele>180.0</ele><time>2026-05-02T13:59:13.509Z</time></trkpt><trkpt lat="45.981576764594536" lon="11.11549442840845"><ele>180.33333333333334</ele><time>2026-05-02T13:59:14.509Z</time></trkpt><trkpt lat="45.981396645143455" lon="11.115499957684825"><ele>180.66666666666669</ele><time>2026-05-02T13:59:15.509Z</time></trkpt><trkpt lat="45.98120516587023" lon="11.115463517253499"><ele>181.0</ele><time>2026-05-02T13:59:16.509Z</time></trkpt><trkpt lat="45.981003928118284" lon="11.11544993621554"><ele>181.33333333333334</ele><time>2026-05-02T13:59:17.509Z</time></trkpt><trkpt lat="45.98080706274534" lon="11.115375082814083"><ele>181.66666666666666</ele><time>2026-05-02T13:59:18.509Z</time></trkpt><trkpt lat="45.98060579968282" lon="11.115320366216924"><ele>182.0</ele><time>2026-05-02T13:59:19.509Z</time></trkpt><trkpt lat="45.98040182228037" lon="11.115264534129317"><ele>182.0</ele><time>2026-05-02T13:59:20.509Z</time></trkpt><trkpt lat="45.980202966422006" lon="11.115209819756164"><ele>182.0</ele><time>2026-05-02T13:59:21.509Z</time></trkpt><trkpt lat="45.9800102593072" lon="11.115174987418234"><ele>182.0</ele><time>2026-05-02T13:59:22.509Z</time></trkpt><trkpt lat="45.9798140482779" lon="11.115118666579148"><ele>182.33333333333331</ele><time>2026-05-02T13:59:23.509Z</time></trkpt><trkpt lat="45.97961547434359" lon="11.115063709996349"><ele>182.66666666666666</ele><time>2026-05-02T13:59:24.509Z</time></trkpt><trkpt lat="45.97942421363845" lon="11.115011477473159"><ele>183.0</ele><time>2026-05-02T13:59:25.509Z</time></trkpt><trkpt lat="45.97925466018038" lon="11.114945502712754"><ele>183.33333333333334</ele><time>2026-05-02T13:59:26.509Z</time></trkpt><trkpt lat="45.97905749287375" lon="11.114889931336423"><ele>183.66666666666669</ele><time>2026-05-02T13:59:27.509Z</time></trkpt><trkpt lat="45.978859274437546" lon="11.114833921340528"><ele>184.0</ele><time>2026-05-02T13:59:28.509Z</time></trkpt><trkpt lat="45.97867458503128" lon="11.114780650527118"><ele>184.0</ele><time>2026-05-02T13:59:29.509Z</time></trkpt><trkpt lat="45.978499246031916" lon="11.11472769738443"><ele>184.0</ele><time>2026-05-02T13:59:30.509Z</time></trkpt><trkpt lat="45.9783137854682" lon="11.11466536639431"><ele>184.0</ele><time>2026-05-02T13:59:31.509Z</time></trkpt><trkpt lat="45.97813800191011" lon="11.114626079341798"><ele>183.33333333333334</ele><time>2026-05-02T13:59:32.509Z</time></trkpt><trkpt lat="45.97796688088184" lon="11.114554849052556"><ele>182.66666666666666</ele><time>2026-05-02T13:59:33.509Z</time></trkpt><trkpt lat="45.977797252073145" lon="11.114479671976495"><ele>182.0</ele><time>2026-05-02T13:59:34.509Z</time></trkpt><trkpt lat="45.977624446712454" lon="11.114394065781077"><ele>182.33333333333331</ele><time>2026-05-02T13:59:35.509Z</time></trkpt><trkpt lat="45.97743908997916" lon="11.114292217361323"><ele>182.66666666666666</ele><time>2026-05-02T13:59:36.509Z</time></trkpt><trkpt lat="45.97725968496204" lon="11.114172875979524"><ele>183.0</ele><time>2026-05-02T13:59:37.509Z</time></trkpt><trkpt lat="45.97707553016069" lon="11.114070317460412"><ele>182.66666666666666</ele><time>2026-05-02T13:59:38.509Z</time></trkpt><trkpt lat="45.97689185836278" lon="11.113971272570975"><ele>182.33333333333331</ele><time>2026-05-02T13:59:39.509Z</time></trkpt><trkpt lat="45.976708236514924" lon="11.113878889882923"><ele>182.0</ele><time>2026-05-02T13:59:40.509Z</time></trkpt><trkpt lat="45.976514306528074" lon="11.11379314329799"><ele>182.0</ele><time>2026-05-02T13:59:41.509Z</time></trkpt><trkpt lat="45.9763161067696" lon="11.113718885106076"><ele>182.0</ele><time>2026-05-02T13:59:42.509Z</time></trkpt><trkpt lat="45.97611661657187" lon="11.113658157815046"><ele>182.0</ele><time>2026-05-02T13:59:43.509Z</time></trkpt><trkpt lat="45.975918803851286" lon="11.113612652790122"><ele>182.66666666666666</ele><time>2026-05-02T13:59:44.509Z</time></trkpt><trkpt lat="45.97572723167762" lon="11.113578647714236"><ele>183.33333333333334</ele><time>2026-05-02T13:59:45.509Z</time></trkpt><trkpt lat="45.97554113054257" lon="11.11354866395413"><ele>184.0</ele><time>2026-05-02T13:59:46.509Z</time></trkpt><trkpt lat="45.975339737152964" lon="11.113517901636335"><ele>184.0</ele><time>2026-05-02T13:59:47.509Z</time></trkpt><trkpt lat="45.97511802615693" lon="11.11348472200837"><ele>184.0</ele><time>2026-05-02T13:59:48.509Z</time></trkpt><trkpt lat="45.97488505904181" lon="11.113447678278352"><ele>184.0</ele><time>2026-05-02T13:59:49.509Z</time></trkpt><trkpt lat="45.97463505919159" lon="11.113407507645064"><ele>184.0</ele><time>2026-05-02T13:59:50.509Z</time></trkpt><trkpt lat="45.97439071513581" lon="11.1133697935953"><ele>184.0</ele><time>2026-05-02T13:59:51.509Z</time></trkpt><trkpt lat="45.97415920526304" lon="11.113334080825323"><ele>184.0</ele><time>2026-05-02T13:59:52.509Z</time></trkpt><trkpt lat="45.97394531509882" lon="11.113300547395013"><ele>184.0</ele><time>2026-05-02T13:59:53.509Z</time></trkpt><trkpt lat="45.97374651546382" lon="11.113270067814554"><ele>184.0</ele><time>2026-05-02T13:59:54.509Z</time></trkpt><trkpt lat="45.97356315302518" lon="11.113242544062212"><ele>184.0</ele><time>2026-05-02T13:59:55.509Z</time></trkpt><trkpt lat="45.97339590036872" lon="11.113236650796617"><ele>184.0</ele><time>2026-05-02T13:59:56.509Z</time></trkpt><trkpt lat="45.97323069814496" lon="11.113197562480002"><ele>183.0</ele><time>2026-05-02T13:59:57.509Z</time></trkpt><trkpt lat="45.97306315252209" lon="11.113182353442522"><ele>182.0</ele><time>2026-05-02T13:59:58.509Z</time></trkpt><trkpt lat="45.97289950577103" lon="11.113148079246221"><ele>181.0</ele><time>2026-05-02T13:59:59.509Z</time></trkpt><trkpt lat="45.97273401861393" lon="11.113114234255121"><ele>181.0</ele><time>2026-05-02T14:00:00.509Z</time></trkpt><trkpt lat="45.97256735542981" lon="11.113102373266582"><ele>181.0</ele><time>2026-05-02T14:00:01.509Z</time></trkpt><trkpt lat="45.97239562115641" lon="11.113070553240702"><ele>181.0</ele><time>2026-05-02T14:00:02.509Z</time></trkpt><trkpt lat="45.972218031862184" lon="11.11302812679247"><ele>180.66666666666669</ele><time>2026-05-02T14:00:03.509Z</time></trkpt><trkpt lat="45.97202643262785" lon="11.112967290216451"><ele>180.33333333333334</ele><time>2026-05-02T14:00:04.509Z</time></trkpt><trkpt lat="45.97181530421182" lon="11.112899815936284"><ele>180.0</ele><time>2026-05-02T14:00:05.509Z</time></trkpt><trkpt lat="45.97159572739176" lon="11.112830820848504"><ele>181.0</ele><time>2026-05-02T14:00:06.509Z</time></trkpt><trkpt lat="45.971359406583446" lon="11.11276151944884"><ele>182.0</ele><time>2026-05-02T14:00:07.509Z</time></trkpt><trkpt lat="45.9711108537853" lon="11.11270015328029"><ele>180.5</ele><time>2026-05-02T14:00:08.509Z</time></trkpt><trkpt lat="45.97085303685079" lon="11.112623186187612"><ele>179.0</ele><time>2026-05-02T14:00:09.509Z</time></trkpt><trkpt lat="45.97059029955319" lon="11.11253611055515"><ele>179.0</ele><time>2026-05-02T14:00:10.509Z</time></trkpt><trkpt lat="45.9703335596626" lon="11.112449802637784"><ele>179.0</ele><time>2026-05-02T14:00:11.509Z</time></trkpt><trkpt lat="45.970098331334725" lon="11.112358382978124"><ele>178.5</ele><time>2026-05-02T14:00:12.509Z</time></trkpt><trkpt lat="45.969874448751696" lon="11.112276853939555"><ele>178.0</ele><time>2026-05-02T14:00:13.509Z</time></trkpt><trkpt lat="45.96964504962643" lon="11.112207966339257"><ele>178.0</ele><time>2026-05-02T14:00:14.509Z</time></trkpt><trkpt lat="45.969406446095846" lon="11.112135043647802"><ele>178.0</ele><time>2026-05-02T14:00:15.509Z</time></trkpt><trkpt lat="45.96916774534444" lon="11.112097858300919"><ele>178.0</ele><time>2026-05-02T14:00:16.509Z</time></trkpt><trkpt lat="45.96891758585546" lon="11.112083106065862"><ele>178.0</ele><time>2026-05-02T14:00:17.509Z</time></trkpt><trkpt lat="45.96867570685171" lon="11.11208301012188"><ele>178.0</ele><time>2026-05-02T14:00:18.509Z</time></trkpt><trkpt lat="45.968444914349874" lon="11.112086440369318"><ele>178.0</ele><time>2026-05-02T14:00:19.509Z</time></trkpt><trkpt lat="45.96822180419335" lon="11.112104061291312"><ele>178.0</ele><time>2026-05-02T14:00:20.509Z</time></trkpt><trkpt lat="45.968003142311055" lon="11.112133736826053"><ele>178.0</ele><time>2026-05-02T14:00:21.509Z</time></trkpt><trkpt lat="45.96779319912127" lon="11.112199755921516"><ele>178.0</ele><time>2026-05-02T14:00:22.509Z</time></trkpt><trkpt lat="45.96756467631595" lon="11.112277549776737"><ele>179.0</ele><time>2026-05-02T14:00:23.509Z</time></trkpt><trkpt lat="45.96731750634885" lon="11.112325888681008"><ele>180.0</ele><time>2026-05-02T14:00:24.509Z</time></trkpt><trkpt lat="45.96706922342415" lon="11.112363310884477"><ele>180.0</ele><time>2026-05-02T14:00:25.509Z</time></trkpt><trkpt lat="45.966828327882446" lon="11.112376656549994"><ele>180.0</ele><time>2026-05-02T14:00:26.51Z</time></trkpt><trkpt lat="45.966595425406155" lon="11.112381593434314"><ele>181.5</ele><time>2026-05-02T14:00:27.51Z</time></trkpt><trkpt lat="45.96636333469644" lon="11.112369571593328"><ele>183.0</ele><time>2026-05-02T14:00:28.51Z</time></trkpt><trkpt lat="45.966125316703334" lon="11.112332365142995"><ele>183.0</ele><time>2026-05-02T14:00:29.51Z</time></trkpt><trkpt lat="45.96588560574695" lon="11.112280027338628"><ele>183.0</ele><time>2026-05-02T14:00:30.51Z</time></trkpt><trkpt lat="45.9656613086862" lon="11.112211927931948"><ele>185.33333333333334</ele><time>2026-05-02T14:00:31.51Z</time></trkpt><trkpt lat="45.96545943205858" lon="11.112133659367665"><ele>187.66666666666669</ele><time>2026-05-02T14:00:32.51Z</time></trkpt><trkpt lat="45.96526505038002" lon="11.112062332452435"><ele>190.0</ele><time>2026-05-02T14:00:33.51Z</time></trkpt><trkpt lat="45.965071507177264" lon="11.112008837197697"><ele>193.33333333333334</ele><time>2026-05-02T14:00:34.51Z</time></trkpt><trkpt lat="45.96487795647923" lon="11.11195232710053"><ele>196.66666666666669</ele><time>2026-05-02T14:00:35.51Z</time></trkpt><trkpt lat="45.964683377017074" lon="11.111893348924255"><ele>200.0</ele><time>2026-05-02T14:00:36.51Z</time></trkpt><trkpt lat="45.964487139260804" lon="11.111834985345624"><ele>200.0</ele><time>2026-05-02T14:00:37.51Z</time></trkpt><trkpt lat="45.964299783643185" lon="11.111780703065207"><ele>200.0</ele><time>2026-05-02T14:00:38.51Z</time></trkpt><trkpt lat="45.964118355465615" lon="11.111727770031736"><ele>200.0</ele><time>2026-05-02T14:00:39.51Z</time></trkpt><trkpt lat="45.96394123301731" lon="11.111683084605106"><ele>201.0</ele><time>2026-05-02T14:00:40.51Z</time></trkpt><trkpt lat="45.9637647373262" lon="11.111631520818207"><ele>202.0</ele><time>2026-05-02T14:00:41.51Z</time></trkpt><trkpt lat="45.96359031689013" lon="11.111570520902404"><ele>203.0</ele><time>2026-05-02T14:00:42.51Z</time></trkpt><trkpt lat="45.96342201516414" lon="11.111516272884053"><ele>198.33333333333334</ele><time>2026-05-02T14:00:43.51Z</time></trkpt><trkpt lat="45.963252265156534" lon="11.111447366687292"><ele>193.66666666666669</ele><time>2026-05-02T14:00:44.51Z</time></trkpt><trkpt lat="45.96307837706852" lon="11.1113643483901"><ele>189.0</ele><time>2026-05-02T14:00:45.51Z</time></trkpt><trkpt lat="45.96291372465696" lon="11.111274201780029"><ele>189.0</ele><time>2026-05-02T14:00:46.51Z</time></trkpt><trkpt lat="45.962740222999905" lon="11.11117936853829"><ele>189.0</ele><time>2026-05-02T14:00:47.51Z</time></trkpt><trkpt lat="45.96256692774356" lon="11.111074869456756"><ele>189.0</ele><time>2026-05-02T14:00:48.51Z</time></trkpt><trkpt lat="45.96239846254583" lon="11.110997182109491"><ele>191.0</ele><time>2026-05-02T14:00:49.51Z</time></trkpt><trkpt lat="45.962227022696034" lon="11.110906285553238"><ele>193.0</ele><time>2026-05-02T14:00:50.51Z</time></trkpt><trkpt lat="45.96205442405577" lon="11.110807933781064"><ele>195.0</ele><time>2026-05-02T14:00:51.51Z</time></trkpt><trkpt lat="45.961888082635106" lon="11.110710782537074"><ele>193.0</ele><time>2026-05-02T14:00:52.51Z</time></trkpt><trkpt lat="45.96171756891624" lon="11.110613209096357"><ele>191.0</ele><time>2026-05-02T14:00:53.51Z</time></trkpt><trkpt lat="45.96155242858423" lon="11.110525225433536"><ele>189.0</ele><time>2026-05-02T14:00:54.51Z</time></trkpt><trkpt lat="45.961388602342176" lon="11.110455835214243"><ele>189.0</ele><time>2026-05-02T14:00:55.51Z</time></trkpt><trkpt lat="45.961217459203866" lon="11.110400442522515"><ele>189.0</ele><time>2026-05-02T14:00:56.51Z</time></trkpt><trkpt lat="45.96103879033391" lon="11.110361954832591"><ele>189.0</ele><time>2026-05-02T14:00:57.51Z</time></trkpt><trkpt lat="45.960847470009604" lon="11.110333045380163"><ele>191.33333333333331</ele><time>2026-05-02T14:00:58.51Z</time></trkpt><trkpt lat="45.96066180140006" lon="11.110309584170004"><ele>193.66666666666666</ele><time>2026-05-02T14:00:59.51Z</time></trkpt><trkpt lat="45.96047000653871" lon="11.110290170342925"><ele>196.0</ele><time>2026-05-02T14:01:00.51Z</time></trkpt><trkpt lat="45.960265089216904" lon="11.110281721162417"><ele>196.0</ele><time>2026-05-02T14:01:01.51Z</time></trkpt><trkpt lat="45.96004991654183" lon="11.110275791422634"><ele>196.0</ele><time>2026-05-02T14:01:02.51Z</time></trkpt><trkpt lat="45.959817958030584" lon="11.110249506137118"><ele>196.0</ele><time>2026-05-02T14:01:03.51Z</time></trkpt><trkpt lat="45.95957720167972" lon="11.110237531431268"><ele>195.66666666666666</ele><time>2026-05-02T14:01:04.51Z</time></trkpt><trkpt lat="45.95934867205262" lon="11.110226697821174"><ele>195.33333333333331</ele><time>2026-05-02T14:01:05.51Z</time></trkpt><trkpt lat="45.95912972395101" lon="11.110205981022093"><ele>195.0</ele><time>2026-05-02T14:01:06.51Z</time></trkpt><trkpt lat="45.95891808477933" lon="11.110183105207728"><ele>195.0</ele><time>2026-05-02T14:01:07.51Z</time></trkpt><trkpt lat="45.958720946030624" lon="11.110170009542921"><ele>195.0</ele><time>2026-05-02T14:01:08.51Z</time></trkpt><trkpt lat="45.958518485119676" lon="11.110149233865547"><ele>195.0</ele><time>2026-05-02T14:01:09.51Z</time></trkpt><trkpt lat="45.958316642921886" lon="11.110135464334942"><ele>194.0</ele><time>2026-05-02T14:01:10.51Z</time></trkpt><trkpt lat="45.958122743556515" lon="11.110112041137326"><ele>193.0</ele><time>2026-05-02T14:01:11.51Z</time></trkpt><trkpt lat="45.95793690460389" lon="11.110077871840508"><ele>192.0</ele><time>2026-05-02T14:01:12.51Z</time></trkpt><trkpt lat="45.95774345483172" lon="11.110037991683365"><ele>192.0</ele><time>2026-05-02T14:01:13.51Z</time></trkpt><trkpt lat="45.95754995070861" lon="11.109977658479503"><ele>192.0</ele><time>2026-05-02T14:01:14.51Z</time></trkpt><trkpt lat="45.95733709698646" lon="11.10993122907061"><ele>192.0</ele><time>2026-05-02T14:01:15.51Z</time></trkpt><trkpt lat="45.95713249803712" lon="11.109884304249597"><ele>190.0</ele><time>2026-05-02T14:01:16.51Z</time></trkpt><trkpt lat="45.95692345841329" lon="11.109854050143475"><ele>188.0</ele><time>2026-05-02T14:01:17.51Z</time></trkpt><trkpt lat="45.956711012472006" lon="11.109840189170136"><ele>186.0</ele><time>2026-05-02T14:01:18.51Z</time></trkpt><trkpt lat="45.95648298614489" lon="11.109838594587192"><ele>184.0</ele><time>2026-05-02T14:01:19.51Z</time></trkpt><trkpt lat="45.95625690638426" lon="11.109840388491156"><ele>182.0</ele><time>2026-05-02T14:01:20.51Z</time></trkpt><trkpt lat="45.956032325691616" lon="11.10985371312149"><ele>182.33333333333331</ele><time>2026-05-02T14:01:21.51Z</time></trkpt><trkpt lat="45.95580770380148" lon="11.109863073000714"><ele>182.66666666666666</ele><time>2026-05-02T14:01:22.51Z</time></trkpt><trkpt lat="45.95558674866596" lon="11.109843649949449"><ele>183.0</ele><time>2026-05-02T14:01:23.51Z</time></trkpt><trkpt lat="45.95534748139611" lon="11.109844315966987"><ele>183.0</ele><time>2026-05-02T14:01:24.51Z</time></trkpt><trkpt lat="45.955093418612584" lon="11.109842419051242"><ele>183.0</ele><time>2026-05-02T14:01:25.51Z</time></trkpt><trkpt lat="45.95483074644986" lon="11.109843118119848"><ele>182.5</ele><time>2026-05-02T14:01:26.51Z</time></trkpt><trkpt lat="45.954582990170934" lon="11.10985799006753"><ele>182.0</ele><time>2026-05-02T14:01:27.51Z</time></trkpt><trkpt lat="45.954348143548266" lon="11.109834697000752"><ele>181.66666666666666</ele><time>2026-05-02T14:01:28.51Z</time></trkpt><trkpt lat="45.95414206314374" lon="11.109822580594303"><ele>181.33333333333334</ele><time>2026-05-02T14:01:29.51Z</time></trkpt><trkpt lat="45.95393442756324" lon="11.10980816349321"><ele>181.0</ele><time>2026-05-02T14:01:30.51Z</time></trkpt><trkpt lat="45.953743756966894" lon="11.109786476507303"><ele>181.0</ele><time>2026-05-02T14:01:31.51Z</time></trkpt><trkpt lat="45.95354067743835" lon="11.109758336921548"><ele>181.0</ele><time>2026-05-02T14:01:32.51Z</time></trkpt><trkpt lat="45.95333647103532" lon="11.109698864463864"><ele>181.0</ele><time>2026-05-02T14:01:33.51Z</time></trkpt><trkpt lat="45.95314519726754" lon="11.10959276462048"><ele>182.0</ele><time>2026-05-02T14:01:34.51Z</time></trkpt><trkpt lat="45.95295165295303" lon="11.109501353589787"><ele>183.0</ele><time>2026-05-02T14:01:35.51Z</time></trkpt><trkpt lat="45.95275944127581" lon="11.109350192967584"><ele>184.0</ele><time>2026-05-02T14:01:36.51Z</time></trkpt><trkpt lat="45.95258444505053" lon="11.109175624836814"><ele>186.0</ele><time>2026-05-02T14:01:37.51Z</time></trkpt><trkpt lat="45.95239441940843" lon="11.109009564539642"><ele>188.0</ele><time>2026-05-02T14:01:38.51Z</time></trkpt><trkpt lat="45.95217213717602" lon="11.108826337165375"><ele>188.0</ele><time>2026-05-02T14:01:39.51Z</time></trkpt><trkpt lat="45.951951385669325" lon="11.108634766694184"><ele>188.0</ele><time>2026-05-02T14:01:40.51Z</time></trkpt><trkpt lat="45.95172590540518" lon="11.10844814591767"><ele>187.5</ele><time>2026-05-02T14:01:41.51Z</time></trkpt><trkpt lat="45.951500739160714" lon="11.108243013332558"><ele>187.0</ele><time>2026-05-02T14:01:42.51Z</time></trkpt><trkpt lat="45.95127860173376" lon="11.108034221443488"><ele>187.0</ele><time>2026-05-02T14:01:43.51Z</time></trkpt><trkpt lat="45.9510628462174" lon="11.107841499949117"><ele>187.0</ele><time>2026-05-02T14:01:44.51Z</time></trkpt><trkpt lat="45.95085587450446" lon="11.107659468485819"><ele>186.66666666666669</ele><time>2026-05-02T14:01:45.51Z</time></trkpt><trkpt lat="45.950675464704624" lon="11.107486896760951"><ele>186.33333333333334</ele><time>2026-05-02T14:01:46.51Z</time></trkpt><trkpt lat="45.95049883485131" lon="11.107321432019004"><ele>186.0</ele><time>2026-05-02T14:01:47.51Z</time></trkpt><trkpt lat="45.95032496478516" lon="11.107175402976694"><ele>186.0</ele><time>2026-05-02T14:01:48.51Z</time></trkpt><trkpt lat="45.95017485741316" lon="11.107011740372277"><ele>186.0</ele><time>2026-05-02T14:01:49.51Z</time></trkpt><trkpt lat="45.950069899823085" lon="11.10687381214688"><ele>186.0</ele><time>2026-05-02T14:01:50.51Z</time></trkpt><trkpt lat="45.94997094892853" lon="11.106717217660046"><ele>186.0</ele><time>2026-05-02T14:01:51.51Z</time></trkpt><trkpt lat="45.9498696345544" lon="11.106578513952934"><ele>186.0</ele><time>2026-05-02T14:01:52.51Z</time></trkpt><trkpt lat="45.94976219852204" lon="11.10643800939768"><ele>186.0</ele><time>2026-05-02T14:01:53.51Z</time></trkpt><trkpt lat="45.9496457831773" lon="11.106301117745875"><ele>186.0</ele><time>2026-05-02T14:01:54.51Z</time></trkpt><trkpt lat="45.94952456501224" lon="11.106184302747232"><ele>186.0</ele><time>2026-05-02T14:01:55.51Z</time></trkpt><trkpt lat="45.949406847213474" lon="11.10606795690044"><ele>186.0</ele><time>2026-05-02T14:01:56.51Z</time></trkpt><trkpt lat="45.949281723509856" lon="11.105964984006238"><ele>186.0</ele><time>2026-05-02T14:01:57.51Z</time></trkpt><trkpt lat="45.9491334724379" lon="11.10583158016203"><ele>185.66666666666666</ele><time>2026-05-02T14:01:58.51Z</time></trkpt><trkpt lat="45.948975551300386" lon="11.10570295803336"><ele>185.33333333333331</ele><time>2026-05-02T14:01:59.51Z</time></trkpt><trkpt lat="45.94881769773796" lon="11.105564577111604"><ele>185.0</ele><time>2026-05-02T14:02:00.51Z</time></trkpt><trkpt lat="45.94862900877508" lon="11.105412158883256"><ele>185.0</ele><time>2026-05-02T14:02:01.51Z</time></trkpt><trkpt lat="45.948437859245594" lon="11.105248555332848"><ele>185.0</ele><time>2026-05-02T14:02:02.51Z</time></trkpt><trkpt lat="45.94825303370958" lon="11.105112832786"><ele>185.0</ele><time>2026-05-02T14:02:03.51Z</time></trkpt><trkpt lat="45.948072160757" lon="11.10495722522246"><ele>185.0</ele><time>2026-05-02T14:02:04.51Z</time></trkpt><trkpt lat="45.947887976287895" lon="11.104798295771753"><ele>185.0</ele><time>2026-05-02T14:02:05.51Z</time></trkpt><trkpt lat="45.94768883840774" lon="11.104632954384014"><ele>185.0</ele><time>2026-05-02T14:02:06.51Z</time></trkpt><trkpt lat="45.94748541369037" lon="11.104474709249999"><ele>185.0</ele><time>2026-05-02T14:02:07.51Z</time></trkpt><trkpt lat="45.947271410894515" lon="11.104316729383624"><ele>185.0</ele><time>2026-05-02T14:02:08.51Z</time></trkpt><trkpt lat="45.94705507978884" lon="11.104166764639618"><ele>184.0</ele><time>2026-05-02T14:02:09.51Z</time></trkpt><trkpt lat="45.946833041270416" lon="11.10401849214555"><ele>183.0</ele><time>2026-05-02T14:02:10.51Z</time></trkpt><trkpt lat="45.94661741176263" lon="11.103862257649306"><ele>183.0</ele><time>2026-05-02T14:02:11.51Z</time></trkpt><trkpt lat="45.94640393748544" lon="11.103716678711313"><ele>183.0</ele><time>2026-05-02T14:02:12.51Z</time></trkpt><trkpt lat="45.946207571041974" lon="11.103570167767632"><ele>183.0</ele><time>2026-05-02T14:02:13.51Z</time></trkpt><trkpt lat="45.946020833796425" lon="11.103436160205153"><ele>183.0</ele><time>2026-05-02T14:02:14.51Z</time></trkpt><trkpt lat="45.94583890559895" lon="11.103298091771709"><ele>183.0</ele><time>2026-05-02T14:02:15.51Z</time></trkpt><trkpt lat="45.945653880286386" lon="11.103164170039513"><ele>182.0</ele><time>2026-05-02T14:02:16.51Z</time></trkpt><trkpt lat="45.94546127611592" lon="11.103030023092815"><ele>181.0</ele><time>2026-05-02T14:02:17.51Z</time></trkpt><trkpt lat="45.94527048858087" lon="11.10289433430979"><ele>180.0</ele><time>2026-05-02T14:02:18.51Z</time></trkpt><trkpt lat="45.94507706711706" lon="11.10275982485528"><ele>181.5</ele><time>2026-05-02T14:02:19.51Z</time></trkpt><trkpt lat="45.94487662707262" lon="11.10262145665162"><ele>183.0</ele><time>2026-05-02T14:02:20.51Z</time></trkpt><trkpt lat="45.94466363199896" lon="11.102486265388128"><ele>180.0</ele><time>2026-05-02T14:02:21.51Z</time></trkpt><trkpt lat="45.94444378415063" lon="11.102339910619076"><ele>177.0</ele><time>2026-05-02T14:02:22.51Z</time></trkpt><trkpt lat="45.944224367549175" lon="11.102192065394929"><ele>178.5</ele><time>2026-05-02T14:02:23.51Z</time></trkpt><trkpt lat="45.94400796038069" lon="11.102048860297746"><ele>180.0</ele><time>2026-05-02T14:02:24.51Z</time></trkpt><trkpt lat="45.94380056192086" lon="11.101907411316052"><ele>180.0</ele><time>2026-05-02T14:02:25.51Z</time></trkpt><trkpt lat="45.943596874813586" lon="11.101770665842714"><ele>180.0</ele><time>2026-05-02T14:02:26.51Z</time></trkpt><trkpt lat="45.94340078069006" lon="11.101641841832834"><ele>180.0</ele><time>2026-05-02T14:02:27.51Z</time></trkpt><trkpt lat="45.94320108867252" lon="11.101506949364172"><ele>179.66666666666666</ele><time>2026-05-02T14:02:28.51Z</time></trkpt><trkpt lat="45.94300696678749" lon="11.101378397108482"><ele>179.33333333333331</ele><time>2026-05-02T14:02:29.51Z</time></trkpt><trkpt lat="45.942807346184765" lon="11.101250398170055"><ele>179.0</ele><time>2026-05-02T14:02:30.51Z</time></trkpt><trkpt lat="45.94260979962303" lon="11.10112830768851"><ele>179.33333333333331</ele><time>2026-05-02T14:02:31.51Z</time></trkpt><trkpt lat="45.94241187866249" lon="11.10100366061744"><ele>179.66666666666666</ele><time>2026-05-02T14:02:32.51Z</time></trkpt><trkpt lat="45.94222036667913" lon="11.100887033897157"><ele>180.0</ele><time>2026-05-02T14:02:33.51Z</time></trkpt><trkpt lat="45.9420204682032" lon="11.100757913950307"><ele>179.0</ele><time>2026-05-02T14:02:34.51Z</time></trkpt><trkpt lat="45.9418341285737" lon="11.100618338085056"><ele>178.0</ele><time>2026-05-02T14:02:35.51Z</time></trkpt><trkpt lat="45.94163230009489" lon="11.100495362985951"><ele>177.0</ele><time>2026-05-02T14:02:36.51Z</time></trkpt><trkpt lat="45.94143464165455" lon="11.100361463825081"><ele>177.0</ele><time>2026-05-02T14:02:37.51Z</time></trkpt><trkpt lat="45.94122581266401" lon="11.100235450099285"><ele>177.0</ele><time>2026-05-02T14:02:38.51Z</time></trkpt><trkpt lat="45.941013120674114" lon="11.100091625026307"><ele>178.0</ele><time>2026-05-02T14:02:39.51Z</time></trkpt><trkpt lat="45.94080083696719" lon="11.099951503265322"><ele>179.0</ele><time>2026-05-02T14:02:40.51Z</time></trkpt><trkpt lat="45.94057777496646" lon="11.099761082503745"><ele>179.0</ele><time>2026-05-02T14:02:41.51Z</time></trkpt><trkpt lat="45.9403779444439" lon="11.099592790397471"><ele>179.0</ele><time>2026-05-02T14:02:42.51Z</time></trkpt><trkpt lat="45.94019170344009" lon="11.099422083413268"><ele>179.0</ele><time>2026-05-02T14:02:43.51Z</time></trkpt><trkpt lat="45.94005289557901" lon="11.099226996258142"><ele>179.0</ele><time>2026-05-02T14:02:44.51Z</time></trkpt><trkpt lat="45.93990965002346" lon="11.099029670445361"><ele>179.0</ele><time>2026-05-02T14:02:45.51Z</time></trkpt><trkpt lat="45.93976560713869" lon="11.098813913908312"><ele>179.0</ele><time>2026-05-02T14:02:46.51Z</time></trkpt><trkpt lat="45.939618584613406" lon="11.09856999238516"><ele>179.0</ele><time>2026-05-02T14:02:47.51Z</time></trkpt><trkpt lat="45.93946162519338" lon="11.098344416578652"><ele>179.0</ele><time>2026-05-02T14:02:48.51Z</time></trkpt><trkpt lat="45.93929734884226" lon="11.09811529315389"><ele>180.0</ele><time>2026-05-02T14:02:49.51Z</time></trkpt><trkpt lat="45.93914256481412" lon="11.097872519625296"><ele>181.0</ele><time>2026-05-02T14:02:50.51Z</time></trkpt><trkpt lat="45.938967457216194" lon="11.097666201780703"><ele>181.0</ele><time>2026-05-02T14:02:51.51Z</time></trkpt><trkpt lat="45.938799326251875" lon="11.09746710614358"><ele>181.0</ele><time>2026-05-02T14:02:52.51Z</time></trkpt><trkpt lat="45.93863892310907" lon="11.097277122815216"><ele>181.0</ele><time>2026-05-02T14:02:53.51Z</time></trkpt><trkpt lat="45.938475625825184" lon="11.09710136740806"><ele>181.33333333333334</ele><time>2026-05-02T14:02:54.51Z</time></trkpt><trkpt lat="45.93831330901393" lon="11.09696025384293"><ele>181.66666666666666</ele><time>2026-05-02T14:02:55.51Z</time></trkpt><trkpt lat="45.93815511063818" lon="11.096849732516946"><ele>182.0</ele><time>2026-05-02T14:02:56.51Z</time></trkpt><trkpt lat="45.93802767643882" lon="11.096768026299658"><ele>182.0</ele><time>2026-05-02T14:02:57.51Z</time></trkpt><trkpt lat="45.937913269850796" lon="11.09671227533914"><ele>182.0</ele><time>2026-05-02T14:02:58.51Z</time></trkpt><trkpt lat="45.937794991304756" lon="11.09667226919752"><ele>182.0</ele><time>2026-05-02T14:02:59.51Z</time></trkpt><trkpt lat="45.93767103544781" lon="11.096635782300341"><ele>182.0</ele><time>2026-05-02T14:03:00.51Z</time></trkpt><trkpt lat="45.93755383385763" lon="11.096605641532692"><ele>182.25</ele><time>2026-05-02T14:03:01.51Z</time></trkpt><trkpt lat="45.937423405417064" lon="11.096576337540126"><ele>182.5</ele><time>2026-05-02T14:03:02.51Z</time></trkpt><trkpt lat="45.937291106514465" lon="11.096539426662003"><ele>182.75</ele><time>2026-05-02T14:03:03.51Z</time></trkpt><trkpt lat="45.937151627116606" lon="11.09649034856818"><ele>183.0</ele><time>2026-05-02T14:03:04.51Z</time></trkpt><trkpt lat="45.93700495008959" lon="11.096464166402605"><ele>183.0</ele><time>2026-05-02T14:03:05.51Z</time></trkpt><trkpt lat="45.936864614149" lon="11.096439082990287"><ele>183.0</ele><time>2026-05-02T14:03:06.51Z</time></trkpt><trkpt lat="45.936710022800945" lon="11.09640772691872"><ele>183.0</ele><time>2026-05-02T14:03:07.51Z</time></trkpt><trkpt lat="45.93655733212376" lon="11.096389950424477"><ele>183.66666666666666</ele><time>2026-05-02T14:03:08.51Z</time></trkpt><trkpt lat="45.93640433580141" lon="11.096353877115135"><ele>184.33333333333331</ele><time>2026-05-02T14:03:09.51Z</time></trkpt><trkpt lat="45.93624358540181" lon="11.09631978858343"><ele>185.0</ele><time>2026-05-02T14:03:10.51Z</time></trkpt><trkpt lat="45.93609788066925" lon="11.096288706372004"><ele>185.0</ele><time>2026-05-02T14:03:11.51Z</time></trkpt><trkpt lat="45.93595091939942" lon="11.096245909128154"><ele>185.0</ele><time>2026-05-02T14:03:12.51Z</time></trkpt><trkpt lat="45.935791527296715" lon="11.096220123955911"><ele>185.0</ele><time>2026-05-02T14:03:13.51Z</time></trkpt><trkpt lat="45.93562273501606" lon="11.096190810945478"><ele>186.33333333333331</ele><time>2026-05-02T14:03:14.51Z</time></trkpt><trkpt lat="45.93545792356052" lon="11.096144249578593"><ele>187.66666666666666</ele><time>2026-05-02T14:03:15.51Z</time></trkpt><trkpt lat="45.935301409067996" lon="11.096094924703511"><ele>189.0</ele><time>2026-05-02T14:03:16.51Z</time></trkpt><trkpt lat="45.93515278995219" lon="11.096059361739751"><ele>189.5</ele><time>2026-05-02T14:03:17.51Z</time></trkpt><trkpt lat="45.93498663763685" lon="11.096022492599833"><ele>190.0</ele><time>2026-05-02T14:03:18.51Z</time></trkpt><trkpt lat="45.934839553187345" lon="11.095991648243809"><ele>190.5</ele><time>2026-05-02T14:03:19.51Z</time></trkpt><trkpt lat="45.934713435208444" lon="11.095981418862168"><ele>191.0</ele><time>2026-05-02T14:03:20.51Z</time></trkpt><trkpt lat="45.93457626283342" lon="11.095943537975067"><ele>191.0</ele><time>2026-05-02T14:03:21.51Z</time></trkpt><trkpt lat="45.93444632386889" lon="11.095904038047895"><ele>191.0</ele><time>2026-05-02T14:03:22.51Z</time></trkpt><trkpt lat="45.934306098619395" lon="11.09586713197667"><ele>191.0</ele><time>2026-05-02T14:03:23.51Z</time></trkpt><trkpt lat="45.93419593852477" lon="11.095832007904033"><ele>191.0</ele><time>2026-05-02T14:03:24.51Z</time></trkpt><trkpt lat="45.934057628736106" lon="11.0958265855199"><ele>191.0</ele><time>2026-05-02T14:03:25.51Z</time></trkpt><trkpt lat="45.93392170791095" lon="11.095808961310196"><ele>191.0</ele><time>2026-05-02T14:03:26.51Z</time></trkpt><trkpt lat="45.93378499041302" lon="11.095787754416017"><ele>191.0</ele><time>2026-05-02T14:03:27.51Z</time></trkpt><trkpt lat="45.933647368613634" lon="11.095747504270902"><ele>191.0</ele><time>2026-05-02T14:03:28.51Z</time></trkpt><trkpt lat="45.9335112021002" lon="11.09569212076061"><ele>191.0</ele><time>2026-05-02T14:03:29.51Z</time></trkpt><trkpt lat="45.933378827361246" lon="11.095633880200213"><ele>191.0</ele><time>2026-05-02T14:03:30.51Z</time></trkpt><trkpt lat="45.933270865259935" lon="11.09555774060312"><ele>191.0</ele><time>2026-05-02T14:03:31.51Z</time></trkpt><trkpt lat="45.93315474572606" lon="11.095476543391516"><ele>191.0</ele><time>2026-05-02T14:03:32.51Z</time></trkpt><trkpt lat="45.933044199751805" lon="11.095387360746148"><ele>191.0</ele><time>2026-05-02T14:03:33.51Z</time></trkpt><trkpt lat="45.93294662901547" lon="11.095309293274893"><ele>191.0</ele><time>2026-05-02T14:03:34.51Z</time></trkpt><trkpt lat="45.93284131591895" lon="11.095241512419442"><ele>191.0</ele><time>2026-05-02T14:03:35.51Z</time></trkpt><trkpt lat="45.93273925046773" lon="11.095172934801685"><ele>191.0</ele><time>2026-05-02T14:03:36.51Z</time></trkpt><trkpt lat="45.93264324064971" lon="11.095100666138562"><ele>191.0</ele><time>2026-05-02T14:03:37.51Z</time></trkpt><trkpt lat="45.9325641921927" lon="11.09504160641254"><ele>190.8</ele><time>2026-05-02T14:03:38.51Z</time></trkpt><trkpt lat="45.932491260610874" lon="11.094963478223809"><ele>190.60000000000002</ele><time>2026-05-02T14:03:39.51Z</time></trkpt><trkpt lat="45.93241526022996" lon="11.094891577227855"><ele>190.4</ele><time>2026-05-02T14:03:40.51Z</time></trkpt><trkpt lat="45.93233926564904" lon="11.0948387780871"><ele>190.2</ele><time>2026-05-02T14:03:41.51Z</time></trkpt><trkpt lat="45.93226026109942" lon="11.09479654138008"><ele>190.0</ele><time>2026-05-02T14:03:42.51Z</time></trkpt><trkpt lat="45.93216769574259" lon="11.094744262891583"><ele>190.0</ele><time>2026-05-02T14:03:43.51Z</time></trkpt><trkpt lat="45.93206654791183" lon="11.094666488014521"><ele>190.0</ele><time>2026-05-02T14:03:44.51Z</time></trkpt><trkpt lat="45.931965381536386" lon="11.094575383130824"><ele>190.0</ele><time>2026-05-02T14:03:45.51Z</time></trkpt><trkpt lat="45.93187579019292" lon="11.094526157177183"><ele>190.0</ele><time>2026-05-02T14:03:46.51Z</time></trkpt><trkpt lat="45.93177934949166" lon="11.094449269805038"><ele>190.0</ele><time>2026-05-02T14:03:47.51Z</time></trkpt><trkpt lat="45.931670029712514" lon="11.094379562513703"><ele>190.25</ele><time>2026-05-02T14:03:48.51Z</time></trkpt><trkpt lat="45.93157538076091" lon="11.094309014167944"><ele>190.5</ele><time>2026-05-02T14:03:49.51Z</time></trkpt><trkpt lat="45.931475846018664" lon="11.094208883517043"><ele>190.75</ele><time>2026-05-02T14:03:50.51Z</time></trkpt><trkpt lat="45.93137729465363" lon="11.09413319046462"><ele>191.0</ele><time>2026-05-02T14:03:51.51Z</time></trkpt><trkpt lat="45.93126784145069" lon="11.094067965969133"><ele>191.4</ele><time>2026-05-02T14:03:52.51Z</time></trkpt><trkpt lat="45.93116869097793" lon="11.09397781695508"><ele>191.8</ele><time>2026-05-02T14:03:53.51Z</time></trkpt><trkpt lat="45.93107093527335" lon="11.093903422712204"><ele>192.20000000000002</ele><time>2026-05-02T14:03:54.51Z</time></trkpt><trkpt lat="45.930983454865725" lon="11.093837303093805"><ele>192.60000000000002</ele><time>2026-05-02T14:03:55.51Z</time></trkpt><trkpt lat="45.93087895665223" lon="11.093770772834787"><ele>193.0</ele><time>2026-05-02T14:03:56.51Z</time></trkpt><trkpt lat="45.930771321369896" lon="11.09369743680766"><ele>194.0</ele><time>2026-05-02T14:03:57.51Z</time></trkpt><trkpt lat="45.93068166185248" lon="11.09360482386982"><ele>195.0</ele><time>2026-05-02T14:03:58.51Z</time></trkpt><trkpt lat="45.93058452778252" lon="11.093501466453686"><ele>196.0</ele><time>2026-05-02T14:03:59.51Z</time></trkpt><trkpt lat="45.93049271780126" lon="11.093412503041744"><ele>197.0</ele><time>2026-05-02T14:04:00.51Z</time></trkpt><trkpt lat="45.930382020381145" lon="11.093329746058876"><ele>197.0</ele><time>2026-05-02T14:04:01.51Z</time></trkpt><trkpt lat="45.93025669921561" lon="11.093257238961389"><ele>197.0</ele><time>2026-05-02T14:04:02.51Z</time></trkpt><trkpt lat="45.93013621604505" lon="11.093193921474892"><ele>197.0</ele><time>2026-05-02T14:04:03.51Z</time></trkpt><trkpt lat="45.93002237984295" lon="11.093153771823081"><ele>197.0</ele><time>2026-05-02T14:04:04.51Z</time></trkpt><trkpt lat="45.92992128551226" lon="11.093112981357656"><ele>196.75</ele><time>2026-05-02T14:04:05.51Z</time></trkpt><trkpt lat="45.92981419539794" lon="11.093076987755504"><ele>196.5</ele><time>2026-05-02T14:04:06.51Z</time></trkpt><trkpt lat="45.929697360235906" lon="11.093071210013361"><ele>196.25</ele><time>2026-05-02T14:04:07.51Z</time></trkpt><trkpt lat="45.929570830494605" lon="11.09307032400624"><ele>196.0</ele><time>2026-05-02T14:04:08.51Z</time></trkpt><trkpt lat="45.929437937679594" lon="11.093066810984363"><ele>196.0</ele><time>2026-05-02T14:04:09.51Z</time></trkpt><trkpt lat="45.92930857390565" lon="11.093071608684049"><ele>196.0</ele><time>2026-05-02T14:04:10.51Z</time></trkpt><trkpt lat="45.929189184754506" lon="11.093076808095772"><ele>196.0</ele><time>2026-05-02T14:04:11.51Z</time></trkpt><trkpt lat="45.92907306222161" lon="11.093087547440373"><ele>196.0</ele><time>2026-05-02T14:04:12.51Z</time></trkpt><trkpt lat="45.928958376521514" lon="11.093090346771476"><ele>195.25</ele><time>2026-05-02T14:04:13.51Z</time></trkpt><trkpt lat="45.92884407996682" lon="11.093083620765688"><ele>194.5</ele><time>2026-05-02T14:04:14.51Z</time></trkpt><trkpt lat="45.928716357294526" lon="11.093091410478767"><ele>193.75</ele><time>2026-05-02T14:04:15.51Z</time></trkpt><trkpt lat="45.928575747977675" lon="11.093107751119692"><ele>193.0</ele><time>2026-05-02T14:04:16.51Z</time></trkpt><trkpt lat="45.928420606459326" lon="11.093115776561811"><ele>191.0</ele><time>2026-05-02T14:04:17.51Z</time></trkpt><trkpt lat="45.928256619667614" lon="11.093117467546898"><ele>189.0</ele><time>2026-05-02T14:04:18.51Z</time></trkpt><trkpt lat="45.928101837394046" lon="11.09312368512019"><ele>187.0</ele><time>2026-05-02T14:04:19.51Z</time></trkpt><trkpt lat="45.92794711827979" lon="11.09312961669812"><ele>187.0</ele><time>2026-05-02T14:04:20.51Z</time></trkpt><trkpt lat="45.92778002390018" lon="11.093137430934911"><ele>187.0</ele><time>2026-05-02T14:04:21.51Z</time></trkpt><trkpt lat="45.92762008587271" lon="11.093116868839449"><ele>187.0</ele><time>2026-05-02T14:04:22.51Z</time></trkpt><trkpt lat="45.927478082997865" lon="11.093141409307092"><ele>185.75</ele><time>2026-05-02T14:04:23.51Z</time></trkpt><trkpt lat="45.927340878510485" lon="11.093149131679564"><ele>184.5</ele><time>2026-05-02T14:04:24.51Z</time></trkpt><trkpt lat="45.92719589940501" lon="11.093131094492824"><ele>183.25</ele><time>2026-05-02T14:04:25.51Z</time></trkpt><trkpt lat="45.92703490810264" lon="11.093135501271831"><ele>182.0</ele><time>2026-05-02T14:04:26.51Z</time></trkpt><trkpt lat="45.926858112144124" lon="11.093140340658854"><ele>181.33333333333331</ele><time>2026-05-02T14:04:27.51Z</time></trkpt><trkpt lat="45.92664764403441" lon="11.09314616424725"><ele>180.66666666666666</ele><time>2026-05-02T14:04:28.51Z</time></trkpt><trkpt lat="45.92644133515723" lon="11.093151890817426"><ele>180.0</ele><time>2026-05-02T14:04:29.51Z</time></trkpt><trkpt lat="45.926246587924275" lon="11.093157296472295"><ele>180.0</ele><time>2026-05-02T14:04:30.51Z</time></trkpt><trkpt lat="45.926055490466915" lon="11.093159413205269"><ele>180.0</ele><time>2026-05-02T14:04:31.51Z</time></trkpt><trkpt lat="45.925868880250526" lon="11.093154288335029"><ele>180.0</ele><time>2026-05-02T14:04:32.51Z</time></trkpt><trkpt lat="45.92568454874868" lon="11.093136079849398"><ele>179.33333333333334</ele><time>2026-05-02T14:04:33.51Z</time></trkpt><trkpt lat="45.92549144951743" lon="11.093109783144348"><ele>178.66666666666669</ele><time>2026-05-02T14:04:34.51Z</time></trkpt><trkpt lat="45.92529357969781" lon="11.09307178006347"><ele>178.0</ele><time>2026-05-02T14:04:35.51Z</time></trkpt><trkpt lat="45.925106093460485" lon="11.09302718681185"><ele>178.66666666666669</ele><time>2026-05-02T14:04:36.51Z</time></trkpt><trkpt lat="45.92492209115673" lon="11.092977484250838"><ele>179.33333333333334</ele><time>2026-05-02T14:04:37.51Z</time></trkpt><trkpt lat="45.924729912259664" lon="11.092925408851077"><ele>180.0</ele><time>2026-05-02T14:04:38.51Z</time></trkpt><trkpt lat="45.92453603865446" lon="11.092872743518258"><ele>180.0</ele><time>2026-05-02T14:04:39.51Z</time></trkpt><trkpt lat="45.9243514424975" lon="11.092820910301828"><ele>180.0</ele><time>2026-05-02T14:04:40.51Z</time></trkpt><trkpt lat="45.9241657398963" lon="11.092768766374604"><ele>180.0</ele><time>2026-05-02T14:04:41.51Z</time></trkpt><trkpt lat="45.92398771458803" lon="11.092735786801896"><ele>181.33333333333334</ele><time>2026-05-02T14:04:42.51Z</time></trkpt><trkpt lat="45.923829003570944" lon="11.092691025261372"><ele>182.66666666666669</ele><time>2026-05-02T14:04:43.51Z</time></trkpt><trkpt lat="45.92367474916185" lon="11.092631387627323"><ele>184.0</ele><time>2026-05-02T14:04:44.51Z</time></trkpt><trkpt lat="45.92351638296081" lon="11.09258204506715"><ele>185.66666666666669</ele><time>2026-05-02T14:04:45.51Z</time></trkpt><trkpt lat="45.92335557386845" lon="11.09252225290661"><ele>187.33333333333334</ele><time>2026-05-02T14:04:46.51Z</time></trkpt><trkpt lat="45.92319467402278" lon="11.092453756108814"><ele>189.0</ele><time>2026-05-02T14:04:47.51Z</time></trkpt><trkpt lat="45.923034696808315" lon="11.092376795107342"><ele>185.66666666666666</ele><time>2026-05-02T14:04:48.51Z</time></trkpt><trkpt lat="45.92288021467502" lon="11.092291890215744"><ele>182.33333333333331</ele><time>2026-05-02T14:04:49.51Z</time></trkpt><trkpt lat="45.92273750849803" lon="11.092200221844022"><ele>179.0</ele><time>2026-05-02T14:04:50.51Z</time></trkpt><trkpt lat="45.92259974105854" lon="11.092102412940793"><ele>181.0</ele><time>2026-05-02T14:04:51.51Z</time></trkpt><trkpt lat="45.92244613665075" lon="11.09198539914894"><ele>183.0</ele><time>2026-05-02T14:04:52.51Z</time></trkpt><trkpt lat="45.92227994001084" lon="11.091866753517479"><ele>185.0</ele><time>2026-05-02T14:04:53.51Z</time></trkpt><trkpt lat="45.922126402079925" lon="11.091711889681035"><ele>183.66666666666666</ele><time>2026-05-02T14:04:54.51Z</time></trkpt><trkpt lat="45.921984850103705" lon="11.09156319035172"><ele>182.33333333333334</ele><time>2026-05-02T14:04:55.51Z</time></trkpt><trkpt lat="45.92184712600895" lon="11.091402927775187"><ele>181.0</ele><time>2026-05-02T14:04:56.51Z</time></trkpt><trkpt lat="45.921709973264754" lon="11.091234328468929"><ele>181.0</ele><time>2026-05-02T14:04:57.51Z</time></trkpt><trkpt lat="45.92157558489643" lon="11.09106604108097"><ele>181.0</ele><time>2026-05-02T14:04:58.51Z</time></trkpt><trkpt lat="45.921444635511804" lon="11.090880497566838"><ele>181.0</ele><time>2026-05-02T14:04:59.51Z</time></trkpt><trkpt lat="45.92132573510731" lon="11.090693571544653"><ele>179.0</ele><time>2026-05-02T14:05:00.51Z</time></trkpt><trkpt lat="45.92119828230131" lon="11.090529277881437"><ele>177.0</ele><time>2026-05-02T14:05:01.51Z</time></trkpt><trkpt lat="45.92109705140975" lon="11.090334861871085"><ele>175.0</ele><time>2026-05-02T14:05:02.51Z</time></trkpt><trkpt lat="45.92099157426172" lon="11.090143692880675"><ele>175.66666666666669</ele><time>2026-05-02T14:05:03.51Z</time></trkpt><trkpt lat="45.920894183555106" lon="11.089950984353626"><ele>176.33333333333334</ele><time>2026-05-02T14:05:04.51Z</time></trkpt><trkpt lat="45.92079106028302" lon="11.089740812250064"><ele>177.0</ele><time>2026-05-02T14:05:05.51Z</time></trkpt><trkpt lat="45.920678629139786" lon="11.08954236336858"><ele>177.0</ele><time>2026-05-02T14:05:06.51Z</time></trkpt><trkpt lat="45.92058182984277" lon="11.089335782158171"><ele>177.0</ele><time>2026-05-02T14:05:07.51Z</time></trkpt><trkpt lat="45.92048365516512" lon="11.089140511028832"><ele>177.0</ele><time>2026-05-02T14:05:08.51Z</time></trkpt><trkpt lat="45.92038768700841" lon="11.088942893110685"><ele>176.33333333333334</ele><time>2026-05-02T14:05:09.51Z</time></trkpt><trkpt lat="45.92030714964318" lon="11.088730365420853"><ele>175.66666666666669</ele><time>2026-05-02T14:05:10.51Z</time></trkpt><trkpt lat="45.92021963227221" lon="11.088510367705794"><ele>175.0</ele><time>2026-05-02T14:05:11.51Z</time></trkpt><trkpt lat="45.920140865283145" lon="11.08827985612003"><ele>175.66666666666669</ele><time>2026-05-02T14:05:12.51Z</time></trkpt><trkpt lat="45.92004877650651" lon="11.088048787903237"><ele>176.33333333333334</ele><time>2026-05-02T14:05:13.51Z</time></trkpt><trkpt lat="45.919971931746836" lon="11.087818975180392"><ele>177.0</ele><time>2026-05-02T14:05:14.51Z</time></trkpt><trkpt lat="45.919896735118634" lon="11.087592215004182"><ele>176.33333333333334</ele><time>2026-05-02T14:05:15.51Z</time></trkpt><trkpt lat="45.919824109510365" lon="11.087371305002227"><ele>175.66666666666669</ele><time>2026-05-02T14:05:16.51Z</time></trkpt><trkpt lat="45.91976455608574" lon="11.087137745547496"><ele>175.0</ele><time>2026-05-02T14:05:17.51Z</time></trkpt><trkpt lat="45.919709727725476" lon="11.086890880578975"><ele>175.0</ele><time>2026-05-02T14:05:18.51Z</time></trkpt><trkpt lat="45.919659602980936" lon="11.086641307184898"><ele>175.0</ele><time>2026-05-02T14:05:19.51Z</time></trkpt><trkpt lat="45.91960948840827" lon="11.086386600897486"><ele>175.0</ele><time>2026-05-02T14:05:20.51Z</time></trkpt><trkpt lat="45.91956300560288" lon="11.086138917706037"><ele>175.0</ele><time>2026-05-02T14:05:21.51Z</time></trkpt><trkpt lat="45.9195319456817" lon="11.085856657603147"><ele>175.0</ele><time>2026-05-02T14:05:22.51Z</time></trkpt><trkpt lat="45.91951397505092" lon="11.085575797787403"><ele>175.0</ele><time>2026-05-02T14:05:23.51Z</time></trkpt><trkpt lat="45.91948019615864" lon="11.085302049756326"><ele>175.33333333333334</ele><time>2026-05-02T14:05:24.51Z</time></trkpt><trkpt lat="45.91943016942195" lon="11.085018143174999"><ele>175.66666666666666</ele><time>2026-05-02T14:05:25.51Z</time></trkpt><trkpt lat="45.91938664608247" lon="11.084745221311314"><ele>176.0</ele><time>2026-05-02T14:05:26.51Z</time></trkpt><trkpt lat="45.91937221607267" lon="11.084461973617305"><ele>176.0</ele><time>2026-05-02T14:05:27.51Z</time></trkpt><trkpt lat="45.919301241466684" lon="11.084193341058057"><ele>176.0</ele><time>2026-05-02T14:05:28.51Z</time></trkpt><trkpt lat="45.91926316684343" lon="11.083935223914825"><ele>176.0</ele><time>2026-05-02T14:05:29.51Z</time></trkpt><trkpt lat="45.91920994245284" lon="11.083679738724642"><ele>176.0</ele><time>2026-05-02T14:05:30.51Z</time></trkpt><trkpt lat="45.91916931998222" lon="11.08344357136572"><ele>176.0</ele><time>2026-05-02T14:05:31.51Z</time></trkpt><trkpt lat="45.91912904035753" lon="11.08323016233583"><ele>176.0</ele><time>2026-05-02T14:05:32.51Z</time></trkpt><trkpt lat="45.91906345318843" lon="11.08300976130827"><ele>175.66666666666666</ele><time>2026-05-02T14:05:33.51Z</time></trkpt><trkpt lat="45.91899885901884" lon="11.082802083271721"><ele>175.33333333333334</ele><time>2026-05-02T14:05:34.51Z</time></trkpt><trkpt lat="45.91892131970958" lon="11.08257770970631"><ele>175.0</ele><time>2026-05-02T14:05:35.51Z</time></trkpt><trkpt lat="45.91886370931529" lon="11.082357741170691"><ele>175.0</ele><time>2026-05-02T14:05:36.51Z</time></trkpt><trkpt lat="45.91878310736631" lon="11.082128606629436"><ele>175.0</ele><time>2026-05-02T14:05:37.51Z</time></trkpt><trkpt lat="45.91869550189932" lon="11.081866323979284"><ele>175.0</ele><time>2026-05-02T14:05:38.51Z</time></trkpt><trkpt lat="45.91862853814362" lon="11.081579972777611"><ele>175.66666666666669</ele><time>2026-05-02T14:05:39.51Z</time></trkpt><trkpt lat="45.91853878153185" lon="11.081294566747854"><ele>176.33333333333334</ele><time>2026-05-02T14:05:40.51Z</time></trkpt><trkpt lat="45.91844455715186" lon="11.081005951345281"><ele>177.0</ele><time>2026-05-02T14:05:41.51Z</time></trkpt><trkpt lat="45.91836974474595" lon="11.0807384389132"><ele>177.33333333333334</ele><time>2026-05-02T14:05:42.51Z</time></trkpt><trkpt lat="45.91829751986338" lon="11.080477420964923"><ele>177.66666666666669</ele><time>2026-05-02T14:05:43.51Z</time></trkpt><trkpt lat="45.918202700835884" lon="11.08024243388683"><ele>178.0</ele><time>2026-05-02T14:05:44.51Z</time></trkpt><trkpt lat="45.91813902152893" lon="11.080001705493036"><ele>178.0</ele><time>2026-05-02T14:05:45.51Z</time></trkpt><trkpt lat="45.91808521724679" lon="11.079767061340203"><ele>178.0</ele><time>2026-05-02T14:05:46.51Z</time></trkpt><trkpt lat="45.9180364891368" lon="11.079545236261449"><ele>178.0</ele><time>2026-05-02T14:05:47.51Z</time></trkpt><trkpt lat="45.9180035230344" lon="11.079333454955577"><ele>177.33333333333334</ele><time>2026-05-02T14:05:48.51Z</time></trkpt><trkpt lat="45.91798555096711" lon="11.079089712204429"><ele>176.66666666666666</ele><time>2026-05-02T14:05:49.51Z</time></trkpt><trkpt lat="45.91801423935136" lon="11.078824306728931"><ele>176.0</ele><time>2026-05-02T14:05:50.51Z</time></trkpt><trkpt lat="45.91800931152563" lon="11.078583889357175"><ele>176.0</ele><time>2026-05-02T14:05:51.51Z</time></trkpt><trkpt lat="45.918006330564076" lon="11.07834690427686"><ele>176.0</ele><time>2026-05-02T14:05:52.51Z</time></trkpt><trkpt lat="45.91801440765082" lon="11.07810089179326"><ele>176.0</ele><time>2026-05-02T14:05:53.51Z</time></trkpt><trkpt lat="45.91800725534479" lon="11.077820982891346"><ele>176.0</ele><time>2026-05-02T14:05:54.51Z</time></trkpt><trkpt lat="45.91804177075495" lon="11.077522278298005"><ele>176.0</ele><time>2026-05-02T14:05:55.51Z</time></trkpt><trkpt lat="45.918043812679855" lon="11.077207642476203"><ele>176.0</ele><time>2026-05-02T14:05:56.51Z</time></trkpt><trkpt lat="45.918056994404196" lon="11.076914324754497"><ele>176.0</ele><time>2026-05-02T14:05:57.51Z</time></trkpt><trkpt lat="45.91805775132888" lon="11.076632483519312"><ele>176.0</ele><time>2026-05-02T14:05:58.51Z</time></trkpt><trkpt lat="45.91806310747763" lon="11.076364438368318"><ele>176.0</ele><time>2026-05-02T14:05:59.51Z</time></trkpt><trkpt lat="45.918054969176325" lon="11.076120427526948"><ele>175.66666666666666</ele><time>2026-05-02T14:06:00.51Z</time></trkpt><trkpt lat="45.918034858429955" lon="11.075877044837693"><ele>175.33333333333334</ele><time>2026-05-02T14:06:01.51Z</time></trkpt><trkpt lat="45.918035188786696" lon="11.075648066463268"><ele>175.0</ele><time>2026-05-02T14:06:02.51Z</time></trkpt><trkpt lat="45.91801100103195" lon="11.075417543346273"><ele>175.0</ele><time>2026-05-02T14:06:03.51Z</time></trkpt><trkpt lat="45.91799187027278" lon="11.075187739293908"><ele>175.0</ele><time>2026-05-02T14:06:04.51Z</time></trkpt><trkpt lat="45.917925430958086" lon="11.074964177917172"><ele>175.0</ele><time>2026-05-02T14:06:05.51Z</time></trkpt><trkpt lat="45.917847827528796" lon="11.07475539122304"><ele>174.33333333333334</ele><time>2026-05-02T14:06:06.51Z</time></trkpt><trkpt lat="45.917786447578294" lon="11.074554309588175"><ele>173.66666666666666</ele><time>2026-05-02T14:06:07.51Z</time></trkpt><trkpt lat="45.9177166871438" lon="11.074357358199535"><ele>173.0</ele><time>2026-05-02T14:06:08.51Z</time></trkpt><trkpt lat="45.91763480784607" lon="11.07417538306645"><ele>173.5</ele><time>2026-05-02T14:06:09.51Z</time></trkpt><trkpt lat="45.91753915368735" lon="11.074019363870942"><ele>174.0</ele><time>2026-05-02T14:06:10.51Z</time></trkpt><trkpt lat="45.91746298226584" lon="11.073871807298367"><ele>174.5</ele><time>2026-05-02T14:06:11.51Z</time></trkpt><trkpt lat="45.91738455175253" lon="11.073713355651316"><ele>175.0</ele><time>2026-05-02T14:06:12.51Z</time></trkpt><trkpt lat="45.917325742817425" lon="11.073553978855475"><ele>175.0</ele><time>2026-05-02T14:06:13.51Z</time></trkpt><trkpt lat="45.91727860752169" lon="11.073371831838845"><ele>175.0</ele><time>2026-05-02T14:06:14.51Z</time></trkpt><trkpt lat="45.91721847713167" lon="11.073182666584573"><ele>175.0</ele><time>2026-05-02T14:06:15.51Z</time></trkpt><trkpt lat="45.91718505616455" lon="11.072981950075997"><ele>175.0</ele><time>2026-05-02T14:06:16.51Z</time></trkpt><trkpt lat="45.91717322624729" lon="11.072787192820293"><ele>174.75</ele><time>2026-05-02T14:06:17.51Z</time></trkpt><trkpt lat="45.917185082349164" lon="11.072593151402872"><ele>174.5</ele><time>2026-05-02T14:06:18.51Z</time></trkpt><trkpt lat="45.917180762825495" lon="11.072404914118714"><ele>174.25</ele><time>2026-05-02T14:06:19.51Z</time></trkpt><trkpt lat="45.91719073669154" lon="11.072213234254704"><ele>174.0</ele><time>2026-05-02T14:06:20.51Z</time></trkpt><trkpt lat="45.91720099319813" lon="11.072016502619883"><ele>174.0</ele><time>2026-05-02T14:06:21.51Z</time></trkpt><trkpt lat="45.91721134599508" lon="11.071822280380232"><ele>174.0</ele><time>2026-05-02T14:06:22.51Z</time></trkpt><trkpt lat="45.91721482804859" lon="11.071633960522933"><ele>174.0</ele><time>2026-05-02T14:06:23.51Z</time></trkpt><trkpt lat="45.917221466233855" lon="11.071436174945953"><ele>174.0</ele><time>2026-05-02T14:06:24.51Z</time></trkpt><trkpt lat="45.91724015011062" lon="11.071254180336412"><ele>174.0</ele><time>2026-05-02T14:06:25.51Z</time></trkpt><trkpt lat="45.91726177813884" lon="11.071077813268428"><ele>174.0</ele><time>2026-05-02T14:06:26.51Z</time></trkpt><trkpt lat="45.917293559635446" lon="11.070910086333061"><ele>174.0</ele><time>2026-05-02T14:06:27.51Z</time></trkpt><trkpt lat="45.91733206874536" lon="11.070727823115801"><ele>174.0</ele><time>2026-05-02T14:06:28.51Z</time></trkpt><trkpt lat="45.91737225679888" lon="11.070549667831267"><ele>174.0</ele><time>2026-05-02T14:06:29.51Z</time></trkpt><trkpt lat="45.917412787751914" lon="11.070372589865407"><ele>174.0</ele><time>2026-05-02T14:06:30.51Z</time></trkpt><trkpt lat="45.917431329420964" lon="11.070203085653876"><ele>174.0</ele><time>2026-05-02T14:06:31.51Z</time></trkpt><trkpt lat="45.91745036095921" lon="11.070049248055573"><ele>174.0</ele><time>2026-05-02T14:06:32.51Z</time></trkpt><trkpt lat="45.91748979176855" lon="11.069898835736913"><ele>174.28571428571428</ele><time>2026-05-02T14:06:33.51Z</time></trkpt><trkpt lat="45.917497749596045" lon="11.069780177097028"><ele>174.57142857142858</ele><time>2026-05-02T14:06:34.51Z</time></trkpt><trkpt lat="45.917501439256604" lon="11.069664668265455"><ele>174.85714285714286</ele><time>2026-05-02T14:06:35.51Z</time></trkpt><trkpt lat="45.91751856942196" lon="11.069554414672647"><ele>175.14285714285714</ele><time>2026-05-02T14:06:36.51Z</time></trkpt><trkpt lat="45.917538258163724" lon="11.069467631153518"><ele>175.42857142857142</ele><time>2026-05-02T14:06:37.51Z</time></trkpt><trkpt lat="45.91754327359773" lon="11.06937515765885"><ele>175.71428571428572</ele><time>2026-05-02T14:06:38.51Z</time></trkpt><trkpt lat="45.91754082850036" lon="11.069271236789081"><ele>176.0</ele><time>2026-05-02T14:06:39.51Z</time></trkpt><trkpt lat="45.91748761202949" lon="11.069177962928478"><ele>176.0</ele><time>2026-05-02T14:06:40.51Z</time></trkpt><trkpt lat="45.9173988350954" lon="11.069109588797566"><ele>176.0</ele><time>2026-05-02T14:06:41.51Z</time></trkpt><trkpt lat="45.91732913437804" lon="11.069057102167644"><ele>176.0</ele><time>2026-05-02T14:06:42.51Z</time></trkpt><trkpt lat="45.91725254507731" lon="11.06900645488604"><ele>176.0</ele><time>2026-05-02T14:06:43.51Z</time></trkpt><trkpt lat="45.91716028608423" lon="11.068888723389685"><ele>176.0</ele><time>2026-05-02T14:06:45.51Z</time></trkpt><trkpt lat="45.91712140178668" lon="11.068780434480278"><ele>176.20000000000002</ele><time>2026-05-02T14:06:46.51Z</time></trkpt><trkpt lat="45.91706431836018" lon="11.068677850061004"><ele>176.4</ele><time>2026-05-02T14:06:47.51Z</time></trkpt><trkpt lat="45.91701121569907" lon="11.06855859834951"><ele>176.6</ele><time>2026-05-02T14:06:48.51Z</time></trkpt><trkpt lat="45.91696485341237" lon="11.068428629594353"><ele>176.8</ele><time>2026-05-02T14:06:49.51Z</time></trkpt><trkpt lat="45.91693920852845" lon="11.068253770002448"><ele>177.0</ele><time>2026-05-02T14:06:50.51Z</time></trkpt><trkpt lat="45.9169515645648" lon="11.068093783090424"><ele>177.2</ele><time>2026-05-02T14:06:51.51Z</time></trkpt><trkpt lat="45.91693952519128" lon="11.067928269312052"><ele>177.39999999999998</ele><time>2026-05-02T14:06:52.51Z</time></trkpt><trkpt lat="45.91693069328745" lon="11.067791185945195"><ele>177.60000000000002</ele><time>2026-05-02T14:06:53.51Z</time></trkpt><trkpt lat="45.91692110529374" lon="11.06764229557079"><ele>177.8</ele><time>2026-05-02T14:06:54.51Z</time></trkpt><trkpt lat="45.91691209627466" lon="11.067502101721015"><ele>178.0</ele><time>2026-05-02T14:06:55.51Z</time></trkpt><trkpt lat="45.91690388864847" lon="11.067375138909187"><ele>178.66666666666669</ele><time>2026-05-02T14:06:56.51Z</time></trkpt><trkpt lat="45.916896096464114" lon="11.067275843854391"><ele>179.33333333333334</ele><time>2026-05-02T14:06:57.51Z</time></trkpt><trkpt lat="45.91687266703942" lon="11.067104443269626"><ele>180.0</ele><time>2026-05-02T14:06:59.51Z</time></trkpt><trkpt lat="45.91686187653917" lon="11.067011276680079"><ele>180.66666666666666</ele><time>2026-05-02T14:07:00.51Z</time></trkpt><trkpt lat="45.916855718901935" lon="11.066891818315602"><ele>181.33333333333331</ele><time>2026-05-02T14:07:01.51Z</time></trkpt><trkpt lat="45.91684706039981" lon="11.066782548916725"><ele>182.0</ele><time>2026-05-02T14:07:02.51Z</time></trkpt><trkpt lat="45.916841092891595" lon="11.066686030461048"><ele>182.33333333333331</ele><time>2026-05-02T14:07:03.51Z</time></trkpt><trkpt lat="45.91683404406822" lon="11.066577300121244"><ele>182.66666666666666</ele><time>2026-05-02T14:07:04.51Z</time></trkpt><trkpt lat="45.91681825221392" lon="11.066451401007042"><ele>183.0</ele><time>2026-05-02T14:07:05.51Z</time></trkpt><trkpt lat="45.91679461969822" lon="11.066319227755725"><ele>183.33333333333334</ele><time>2026-05-02T14:07:06.51Z</time></trkpt><trkpt lat="45.916763669417996" lon="11.066197239628664"><ele>183.66666666666669</ele><time>2026-05-02T14:07:07.51Z</time></trkpt><trkpt lat="45.91675557238603" lon="11.06607538854053"><ele>184.0</ele><time>2026-05-02T14:07:08.51Z</time></trkpt><trkpt lat="45.916723436439" lon="11.065940359149442"><ele>184.83333333333334</ele><time>2026-05-02T14:07:09.51Z</time></trkpt><trkpt lat="45.916696680577544" lon="11.065831570035142"><ele>185.66666666666669</ele><time>2026-05-02T14:07:10.51Z</time></trkpt><trkpt lat="45.91665718842455" lon="11.065685946020427"><ele>186.5</ele><time>2026-05-02T14:07:11.51Z</time></trkpt><trkpt lat="45.916644403874216" lon="11.065563389289053"><ele>187.33333333333334</ele><time>2026-05-02T14:07:12.51Z</time></trkpt><trkpt lat="45.91660691261779" lon="11.065457332427547"><ele>188.16666666666666</ele><time>2026-05-02T14:07:13.51Z</time></trkpt><trkpt lat="45.9165971303809" lon="11.065366126033268"><ele>189.0</ele><time>2026-05-02T14:07:14.51Z</time></trkpt><trkpt lat="45.91658537301809" lon="11.06523336861636"><ele>189.25</ele><time>2026-05-02T14:07:16.51Z</time></trkpt><trkpt lat="45.916354240160615" lon="11.065356244301256"><ele>189.5</ele><time>2026-05-02T14:07:19.51Z</time></trkpt><trkpt lat="45.916292958256406" lon="11.065451108447727"><ele>189.75</ele><time>2026-05-02T14:07:21.51Z</time></trkpt><trkpt lat="45.916324676111444" lon="11.065536128900158"><ele>190.0</ele><time>2026-05-02T14:07:22.51Z</time></trkpt><trkpt lat="45.916271235255884" lon="11.065659335135107"><ele>189.83333333333334</ele><time>2026-05-02T14:07:24.51Z</time></trkpt><trkpt lat="45.91626198605749" lon="11.065787425042354"><ele>189.66666666666669</ele><time>2026-05-02T14:07:26.51Z</time></trkpt><trkpt lat="45.916236590953304" lon="11.065902270051607"><ele>189.5</ele><time>2026-05-02T14:07:27.51Z</time></trkpt><trkpt lat="45.91620148442491" lon="11.066044077012103"><ele>189.33333333333334</ele><time>2026-05-02T14:07:29.51Z</time></trkpt><trkpt lat="45.91617990197243" lon="11.066131256035774"><ele>189.16666666666666</ele><time>2026-05-02T14:07:30.51Z</time></trkpt><trkpt lat="45.91616219887687" lon="11.066277605627766"><ele>189.0</ele><time>2026-05-02T14:07:32.51Z</time></trkpt><trkpt lat="45.91615134300269" lon="11.066372670884745"><ele>189.0</ele><time>2026-05-02T14:07:33.51Z</time></trkpt><trkpt lat="45.91611328006529" lon="11.066470398751704"><ele>189.0</ele><time>2026-05-02T14:07:34.51Z</time></trkpt><trkpt lat="45.91609680175387" lon="11.06656572613617"><ele>189.0</ele><time>2026-05-02T14:07:35.51Z</time></trkpt><trkpt lat="45.91605000070477" lon="11.066661419759757"><ele>189.0</ele><time>2026-05-02T14:07:37.51Z</time></trkpt><trkpt lat="45.915994812388654" lon="11.066754950794063"><ele>189.0</ele><time>2026-05-02T14:07:38.51Z</time></trkpt><trkpt lat="45.91597410006423" lon="11.066868433989766"><ele>189.0</ele><time>2026-05-02T14:07:39.51Z</time></trkpt><trkpt lat="45.91594913728932" lon="11.066962183851942"><ele>188.5</ele><time>2026-05-02T14:07:40.51Z</time></trkpt><trkpt lat="45.91592590330657" lon="11.067068732295054"><ele>188.0</ele><time>2026-05-02T14:07:42.51Z</time></trkpt><trkpt lat="45.915842499014424" lon="11.066836035956221"><ele>187.5</ele><time>2026-05-02T14:07:46.51Z</time></trkpt><trkpt lat="45.91578806314557" lon="11.066686074324634"><ele>187.0</ele><time>2026-05-02T14:07:47.51Z</time></trkpt><trkpt lat="45.91575883135921" lon="11.066546368804156"><ele>189.16666666666669</ele><time>2026-05-02T14:07:48.51Z</time></trkpt><trkpt lat="45.915733949574715" lon="11.06645239758083"><ele>191.33333333333334</ele><time>2026-05-02T14:07:49.51Z</time></trkpt><trkpt lat="45.91568689869998" lon="11.066379647058127"><ele>193.5</ele><time>2026-05-02T14:07:50.51Z</time></trkpt><trkpt lat="45.915628745280394" lon="11.066332013892566"><ele>195.66666666666669</ele><time>2026-05-02T14:07:51.51Z</time></trkpt><trkpt lat="45.91552635866321" lon="11.06627471335283"><ele>197.83333333333334</ele><time>2026-05-02T14:07:52.51Z</time></trkpt><trkpt lat="45.91546961311067" lon="11.066196998272604"><ele>200.0</ele><time>2026-05-02T14:07:53.51Z</time></trkpt><trkpt lat="45.9154025008758" lon="11.066124757648195"><ele>200.00000000000003</ele><time>2026-05-02T14:07:54.51Z</time></trkpt><trkpt lat="45.915336731057025" lon="11.066120190497331"><ele>200.0</ele><time>2026-05-02T14:07:55.51Z</time></trkpt><trkpt lat="45.91524015774429" lon="11.066192203686809"><ele>200.0</ele><time>2026-05-02T14:07:56.51Z</time></trkpt><trkpt lat="45.91514637529649" lon="11.066230648356015"><ele>200.0</ele><time>2026-05-02T14:07:57.51Z</time></trkpt><trkpt lat="45.915053962877295" lon="11.0662767433048"><ele>200.00000000000003</ele><time>2026-05-02T14:07:58.51Z</time></trkpt><trkpt lat="45.91498079401638" lon="11.066310302242636"><ele>200.0</ele><time>2026-05-02T14:07:59.51Z</time></trkpt><trkpt lat="45.91489240673612" lon="11.066338504614267"><ele>201.5</ele><time>2026-05-02T14:08:00.51Z</time></trkpt><trkpt lat="45.91482527652047" lon="11.066440307132783"><ele>203.0</ele><time>2026-05-02T14:08:01.51Z</time></trkpt><trkpt lat="45.91475916511382" lon="11.06657105106677"><ele>204.5</ele><time>2026-05-02T14:08:02.51Z</time></trkpt><trkpt lat="45.914668410116356" lon="11.066709683827375"><ele>206.0</ele><time>2026-05-02T14:08:03.51Z</time></trkpt><trkpt lat="45.91458873506345" lon="11.066860320610367"><ele>207.20000000000002</ele><time>2026-05-02T14:08:04.51Z</time></trkpt><trkpt lat="45.914502392278706" lon="11.066997544162"><ele>208.4</ele><time>2026-05-02T14:08:05.51Z</time></trkpt><trkpt lat="45.9144333703904" lon="11.067098238432042"><ele>209.6</ele><time>2026-05-02T14:08:06.51Z</time></trkpt><trkpt lat="45.914366634684306" lon="11.06715912881139"><ele>210.8</ele><time>2026-05-02T14:08:07.51Z</time></trkpt><trkpt lat="45.91427721297525" lon="11.067160896592013"><ele>212.0</ele><time>2026-05-02T14:08:08.51Z</time></trkpt><trkpt lat="45.914176700221105" lon="11.067099953010997"><ele>212.39999999999998</ele><time>2026-05-02T14:08:10.51Z</time></trkpt><trkpt lat="45.91408356516026" lon="11.067030688542804"><ele>212.79999999999998</ele><time>2026-05-02T14:08:11.51Z</time></trkpt><trkpt lat="45.91397318714116" lon="11.06696254684101"><ele>213.2</ele><time>2026-05-02T14:08:12.51Z</time></trkpt><trkpt lat="45.91389665763826" lon="11.066932814896493"><ele>213.6</ele><time>2026-05-02T14:08:13.51Z</time></trkpt><trkpt lat="45.913821539420276" lon="11.066875853451814"><ele>214.0</ele><time>2026-05-02T14:08:14.51Z</time></trkpt><trkpt lat="45.91385865517797" lon="11.066648208643628"><ele>213.6</ele><time>2026-05-02T14:08:15.51Z</time></trkpt><trkpt lat="45.91384507830189" lon="11.066492346400384"><ele>213.2</ele><time>2026-05-02T14:08:16.51Z</time></trkpt><trkpt lat="45.913828444812914" lon="11.06636583950025"><ele>212.79999999999998</ele><time>2026-05-02T14:08:17.51Z</time></trkpt><trkpt lat="45.91380428569159" lon="11.066251457492235"><ele>212.39999999999998</ele><time>2026-05-02T14:08:18.51Z</time></trkpt><trkpt lat="45.913734231032166" lon="11.06615314305441"><ele>212.0</ele><time>2026-05-02T14:08:19.51Z</time></trkpt><trkpt lat="45.913662190365265" lon="11.066048986830937"><ele>212.0</ele><time>2026-05-02T14:08:20.51Z</time></trkpt><trkpt lat="45.913599323261124" lon="11.06593842876181"><ele>212.0</ele><time>2026-05-02T14:08:21.51Z</time></trkpt><trkpt lat="45.9135717943708" lon="11.065819243880489"><ele>212.0</ele><time>2026-05-02T14:08:22.51Z</time></trkpt><trkpt lat="45.913557005169906" lon="11.065721738143885"><ele>212.0</ele><time>2026-05-02T14:08:23.51Z</time></trkpt><trkpt lat="45.91357715764178" lon="11.065581178995618"><ele>212.0</ele><time>2026-05-02T14:08:25.51Z</time></trkpt><trkpt lat="45.91368636013125" lon="11.065481645393568"><ele>212.8</ele><time>2026-05-02T14:08:27.51Z</time></trkpt><trkpt lat="45.913757148416224" lon="11.065387847920409"><ele>213.6</ele><time>2026-05-02T14:08:28.51Z</time></trkpt><trkpt lat="45.91385961505535" lon="11.065254693102636"><ele>214.40000000000003</ele><time>2026-05-02T14:08:29.51Z</time></trkpt><trkpt lat="45.913922383395146" lon="11.065151637000334"><ele>215.20000000000002</ele><time>2026-05-02T14:08:30.51Z</time></trkpt><trkpt lat="45.9139898522566" lon="11.065028877239405"><ele>216.0</ele><time>2026-05-02T14:08:31.51Z</time></trkpt><trkpt lat="45.91405578931866" lon="11.06492699829386"><ele>216.16666666666666</ele><time>2026-05-02T14:08:32.51Z</time></trkpt><trkpt lat="45.91411769752833" lon="11.064837723736108"><ele>216.33333333333331</ele><time>2026-05-02T14:08:33.51Z</time></trkpt><trkpt lat="45.914150502604556" lon="11.064739734060712"><ele>216.5</ele><time>2026-05-02T14:08:34.51Z</time></trkpt><trkpt lat="45.914145506715435" lon="11.064644816501438"><ele>216.66666666666666</ele><time>2026-05-02T14:08:35.51Z</time></trkpt><trkpt lat="45.91414961292709" lon="11.064552288438122"><ele>216.83333333333331</ele><time>2026-05-02T14:08:36.51Z</time></trkpt><trkpt lat="45.914120623684106" lon="11.064433016602182"><ele>217.0</ele><time>2026-05-02T14:08:37.51Z</time></trkpt><trkpt lat="45.91409482592711" lon="11.0643009845466"><ele>217.0</ele><time>2026-05-02T14:08:38.51Z</time></trkpt><trkpt lat="45.91404463787892" lon="11.064177894653842"><ele>217.0</ele><time>2026-05-02T14:08:39.51Z</time></trkpt><trkpt lat="45.913973400251834" lon="11.064040838948191"><ele>217.0</ele><time>2026-05-02T14:08:40.51Z</time></trkpt><trkpt lat="45.91388420924673" lon="11.063994949355868"><ele>217.0</ele><time>2026-05-02T14:08:41.51Z</time></trkpt><trkpt lat="45.91374761117143" lon="11.06395745685627"><ele>218.39999999999998</ele><time>2026-05-02T14:08:42.51Z</time></trkpt><trkpt lat="45.913684736256386" lon="11.063920457219963"><ele>219.79999999999998</ele><time>2026-05-02T14:08:43.51Z</time></trkpt><trkpt lat="45.913644165932055" lon="11.063841417863873"><ele>221.2</ele><time>2026-05-02T14:08:45.51Z</time></trkpt><trkpt lat="45.91363999161499" lon="11.063729306849641"><ele>222.6</ele><time>2026-05-02T14:08:48.511Z</time></trkpt><trkpt lat="45.91344019595216" lon="11.063748209966871"><ele>224.0</ele><time>2026-05-02T14:08:50.511Z</time></trkpt><trkpt lat="45.913350323215035" lon="11.063743970105739"><ele>225.0</ele><time>2026-05-02T14:08:51.511Z</time></trkpt><trkpt lat="45.91328152686784" lon="11.06374097082812"><ele>226.0</ele><time>2026-05-02T14:08:52.511Z</time></trkpt><trkpt lat="45.91320784227127" lon="11.063737101293876"><ele>227.0</ele><time>2026-05-02T14:08:53.511Z</time></trkpt><trkpt lat="45.91313219135236" lon="11.06372469912193"><ele>228.0</ele><time>2026-05-02T14:08:54.511Z</time></trkpt><trkpt lat="45.913057317850964" lon="11.063703441845764"><ele>229.0</ele><time>2026-05-02T14:08:55.511Z</time></trkpt><trkpt lat="45.91298883306551" lon="11.063678760257956"><ele>230.0</ele><time>2026-05-02T14:08:56.511Z</time></trkpt><trkpt lat="45.912924005040516" lon="11.063663714041517"><ele>231.0</ele><time>2026-05-02T14:08:57.511Z</time></trkpt><trkpt lat="45.912854268974826" lon="11.063648955689981"><ele>231.0</ele><time>2026-05-02T14:08:58.511Z</time></trkpt><trkpt lat="45.9127710844362" lon="11.06365044894245"><ele>231.00000000000003</ele><time>2026-05-02T14:08:59.511Z</time></trkpt><trkpt lat="45.912685927093094" lon="11.063659777692097"><ele>231.00000000000003</ele><time>2026-05-02T14:09:00.511Z</time></trkpt><trkpt lat="45.912568022981986" lon="11.06366524749164"><ele>231.0</ele><time>2026-05-02T14:09:01.511Z</time></trkpt><trkpt lat="45.91244578591554" lon="11.063673817906828"><ele>231.0</ele><time>2026-05-02T14:09:02.511Z</time></trkpt><trkpt lat="45.912342162296326" lon="11.06368804369631"><ele>232.60000000000002</ele><time>2026-05-02T14:09:03.511Z</time></trkpt><trkpt lat="45.912230004908565" lon="11.063712985050033"><ele>234.20000000000002</ele><time>2026-05-02T14:09:04.511Z</time></trkpt><trkpt lat="45.91212638500881" lon="11.063713578286563"><ele>235.79999999999998</ele><time>2026-05-02T14:09:05.511Z</time></trkpt><trkpt lat="45.91204491472022" lon="11.063689390734941"><ele>237.39999999999998</ele><time>2026-05-02T14:09:06.511Z</time></trkpt><trkpt lat="45.912002891439855" lon="11.06359502369254"><ele>239.0</ele><time>2026-05-02T14:09:07.511Z</time></trkpt><trkpt lat="45.91196565690095" lon="11.063441441110633"><ele>240.75</ele><time>2026-05-02T14:09:08.511Z</time></trkpt><trkpt lat="45.91197693891913" lon="11.063267882031647"><ele>242.5</ele><time>2026-05-02T14:09:09.511Z</time></trkpt><trkpt lat="45.91190214796135" lon="11.063127642179433"><ele>244.25</ele><time>2026-05-02T14:09:10.511Z</time></trkpt><trkpt lat="45.9118124741577" lon="11.062989682635155"><ele>246.0</ele><time>2026-05-02T14:09:11.511Z</time></trkpt><trkpt lat="45.91166792021773" lon="11.06284278752785"><ele>247.0</ele><time>2026-05-02T14:09:12.511Z</time></trkpt><trkpt lat="45.911546329342684" lon="11.062723990708665"><ele>248.0</ele><time>2026-05-02T14:09:13.511Z</time></trkpt><trkpt lat="45.91144379685217" lon="11.062600056003111"><ele>249.0</ele><time>2026-05-02T14:09:14.511Z</time></trkpt><trkpt lat="45.91134678061747" lon="11.062480655078616"><ele>250.0</ele><time>2026-05-02T14:09:15.511Z</time></trkpt><trkpt lat="45.91124947164924" lon="11.062347343107282"><ele>250.0</ele><time>2026-05-02T14:09:16.511Z</time></trkpt><trkpt lat="45.91114762697683" lon="11.062246579713861"><ele>250.0</ele><time>2026-05-02T14:09:17.511Z</time></trkpt><trkpt lat="45.91103120873836" lon="11.06214412039455"><ele>250.0</ele><time>2026-05-02T14:09:18.511Z</time></trkpt><trkpt lat="45.910892851731965" lon="11.062055471974254"><ele>250.0</ele><time>2026-05-02T14:09:19.511Z</time></trkpt><trkpt lat="45.91072216107207" lon="11.061944449480402"><ele>250.0</ele><time>2026-05-02T14:09:20.511Z</time></trkpt><trkpt lat="45.91055273302935" lon="11.061826232814877"><ele>250.0</ele><time>2026-05-02T14:09:21.511Z</time></trkpt><trkpt lat="45.91039581492156" lon="11.06171660035302"><ele>250.0</ele><time>2026-05-02T14:09:22.511Z</time></trkpt><trkpt lat="45.91024914540395" lon="11.061612106024418"><ele>249.75</ele><time>2026-05-02T14:09:23.511Z</time></trkpt><trkpt lat="45.910107812080625" lon="11.061511413451584"><ele>249.5</ele><time>2026-05-02T14:09:24.511Z</time></trkpt><trkpt lat="45.90998689144402" lon="11.061425263792277"><ele>249.25</ele><time>2026-05-02T14:09:25.511Z</time></trkpt><trkpt lat="45.90989351137929" lon="11.061364830348442"><ele>249.0</ele><time>2026-05-02T14:09:26.511Z</time></trkpt><trkpt lat="45.90978496922511" lon="11.061313505255912"><ele>250.33333333333331</ele><time>2026-05-02T14:09:27.511Z</time></trkpt><trkpt lat="45.90963013942424" lon="11.061332779600484"><ele>251.66666666666666</ele><time>2026-05-02T14:09:28.511Z</time></trkpt><trkpt lat="45.9094776989509" lon="11.061367652516077"><ele>253.0</ele><time>2026-05-02T14:09:29.511Z</time></trkpt><trkpt lat="45.90933453593394" lon="11.061430212599143"><ele>253.75</ele><time>2026-05-02T14:09:30.511Z</time></trkpt><trkpt lat="45.909218858863504" lon="11.061407738211233"><ele>254.5</ele><time>2026-05-02T14:09:31.511Z</time></trkpt><trkpt lat="45.90910053198848" lon="11.061386467238888"><ele>255.25</ele><time>2026-05-02T14:09:32.511Z</time></trkpt><trkpt lat="45.90898054267383" lon="11.061377182043941"><ele>256.0</ele><time>2026-05-02T14:09:33.511Z</time></trkpt><trkpt lat="45.90883364547647" lon="11.061507916448837"><ele>256.3333333333333</ele><time>2026-05-02T14:09:34.511Z</time></trkpt><trkpt lat="45.908675998613745" lon="11.061618135050304"><ele>256.6666666666667</ele><time>2026-05-02T14:09:35.511Z</time></trkpt><trkpt lat="45.90852058393704" lon="11.061768062169499"><ele>257.0</ele><time>2026-05-02T14:09:36.511Z</time></trkpt><trkpt lat="45.9083550533226" lon="11.061875350513047"><ele>259.0</ele><time>2026-05-02T14:09:37.511Z</time></trkpt><trkpt lat="45.908212399490424" lon="11.06198137817246"><ele>261.0</ele><time>2026-05-02T14:09:38.511Z</time></trkpt><trkpt lat="45.908085253455674" lon="11.062075879471807"><ele>263.0</ele><time>2026-05-02T14:09:39.511Z</time></trkpt><trkpt lat="45.907976981229226" lon="11.062188346737383"><ele>265.0</ele><time>2026-05-02T14:09:40.511Z</time></trkpt><trkpt lat="45.90786548554601" lon="11.06229480066947"><ele>265.0</ele><time>2026-05-02T14:09:41.511Z</time></trkpt><trkpt lat="45.907772108334974" lon="11.062415142749817"><ele>265.0</ele><time>2026-05-02T14:09:42.511Z</time></trkpt><trkpt lat="45.907693747059795" lon="11.06254646656178"><ele>265.0</ele><time>2026-05-02T14:09:43.511Z</time></trkpt><trkpt lat="45.90761372183401" lon="11.062699955329055"><ele>265.0</ele><time>2026-05-02T14:09:44.511Z</time></trkpt><trkpt lat="45.907552008201925" lon="11.0628699074973"><ele>267.2</ele><time>2026-05-02T14:09:45.511Z</time></trkpt><trkpt lat="45.907486444433765" lon="11.063017961725809"><ele>269.4</ele><time>2026-05-02T14:09:46.511Z</time></trkpt><trkpt lat="45.907412961083566" lon="11.063115242617608"><ele>271.6</ele><time>2026-05-02T14:09:47.511Z</time></trkpt><trkpt lat="45.907328256568846" lon="11.063154319173186"><ele>273.8</ele><time>2026-05-02T14:09:48.511Z</time></trkpt><trkpt lat="45.907241601097816" lon="11.06315355864881"><ele>276.0</ele><time>2026-05-02T14:09:49.511Z</time></trkpt><trkpt lat="45.90710534791047" lon="11.063138068124276"><ele>276.0</ele><time>2026-05-02T14:09:50.511Z</time></trkpt><trkpt lat="45.906935391501506" lon="11.063128058665024"><ele>276.0</ele><time>2026-05-02T14:09:51.511Z</time></trkpt><trkpt lat="45.90675880103708" lon="11.06309073021857"><ele>276.0</ele><time>2026-05-02T14:09:52.511Z</time></trkpt><trkpt lat="45.90659289381239" lon="11.063044451375147"><ele>278.25</ele><time>2026-05-02T14:09:53.511Z</time></trkpt><trkpt lat="45.90645174601401" lon="11.063025425318035"><ele>280.5</ele><time>2026-05-02T14:09:54.511Z</time></trkpt><trkpt lat="45.90632704249724" lon="11.063008882274463"><ele>282.75</ele><time>2026-05-02T14:09:55.511Z</time></trkpt><trkpt lat="45.90619679890784" lon="11.063024200298637"><ele>285.0</ele><time>2026-05-02T14:09:56.511Z</time></trkpt><trkpt lat="45.90607842291871" lon="11.063069125289424"><ele>285.0</ele><time>2026-05-02T14:09:57.511Z</time></trkpt><trkpt lat="45.90594555038131" lon="11.063121057428607"><ele>285.0</ele><time>2026-05-02T14:09:58.511Z</time></trkpt><trkpt lat="45.90581426061532" lon="11.063177453566837"><ele>285.0</ele><time>2026-05-02T14:09:59.511Z</time></trkpt><trkpt lat="45.90570460575468" lon="11.063244875899661"><ele>285.0</ele><time>2026-05-02T14:10:00.511Z</time></trkpt><trkpt lat="45.90558554541922" lon="11.063287579927714"><ele>287.0</ele><time>2026-05-02T14:10:01.511Z</time></trkpt><trkpt lat="45.90548087404788" lon="11.063330901032753"><ele>289.0</ele><time>2026-05-02T14:10:02.511Z</time></trkpt><trkpt lat="45.905376616560126" lon="11.063388878190459"><ele>291.0</ele><time>2026-05-02T14:10:03.511Z</time></trkpt><trkpt lat="45.905265925313074" lon="11.063456867029883"><ele>293.0</ele><time>2026-05-02T14:10:04.511Z</time></trkpt><trkpt lat="45.905166017961946" lon="11.063525704322803"><ele>296.2</ele><time>2026-05-02T14:10:05.511Z</time></trkpt><trkpt lat="45.90506500452957" lon="11.063597488190771"><ele>299.4</ele><time>2026-05-02T14:10:06.511Z</time></trkpt><trkpt lat="45.905008140692715" lon="11.063703806179804"><ele>302.59999999999997</ele><time>2026-05-02T14:10:07.511Z</time></trkpt><trkpt lat="45.904933085036916" lon="11.063776516240127"><ele>305.8</ele><time>2026-05-02T14:10:08.511Z</time></trkpt><trkpt lat="45.904838967387896" lon="11.063785359395023"><ele>309.0</ele><time>2026-05-02T14:10:09.511Z</time></trkpt><trkpt lat="45.904759212324485" lon="11.063773427261603"><ele>309.0</ele><time>2026-05-02T14:10:10.511Z</time></trkpt><trkpt lat="45.90467946487946" lon="11.063746414168879"><ele>309.0</ele><time>2026-05-02T14:10:11.511Z</time></trkpt><trkpt lat="45.90454449377955" lon="11.063743691595441"><ele>309.0</ele><time>2026-05-02T14:10:12.511Z</time></trkpt><trkpt lat="45.90443237646055" lon="11.063786303881214"><ele>309.0</ele><time>2026-05-02T14:10:13.511Z</time></trkpt><trkpt lat="45.90432846209294" lon="11.063807894122345"><ele>309.0</ele><time>2026-05-02T14:10:14.511Z</time></trkpt><trkpt lat="45.90422601093007" lon="11.06381516212036"><ele>311.79999999999995</ele><time>2026-05-02T14:10:15.511Z</time></trkpt><trkpt lat="45.904121162559235" lon="11.063831601115501"><ele>314.59999999999997</ele><time>2026-05-02T14:10:16.511Z</time></trkpt><trkpt lat="45.904016588702746" lon="11.063872875215575"><ele>317.4</ele><time>2026-05-02T14:10:17.511Z</time></trkpt><trkpt lat="45.90390649887686" lon="11.063931085087114"><ele>320.2</ele><time>2026-05-02T14:10:18.511Z</time></trkpt><trkpt lat="45.90379888520688" lon="11.06396761313231"><ele>323.0</ele><time>2026-05-02T14:10:19.511Z</time></trkpt><trkpt lat="45.90369886858426" lon="11.063983611907158"><ele>323.0</ele><time>2026-05-02T14:10:20.511Z</time></trkpt><trkpt lat="45.903602726262754" lon="11.063978404262228"><ele>323.0</ele><time>2026-05-02T14:10:21.511Z</time></trkpt><trkpt lat="45.90350282047896" lon="11.06393394274554"><ele>323.0</ele><time>2026-05-02T14:10:22.511Z</time></trkpt><trkpt lat="45.90339250563835" lon="11.063861080642742"><ele>323.0</ele><time>2026-05-02T14:10:23.511Z</time></trkpt><trkpt lat="45.90326878317545" lon="11.063856622929466"><ele>323.0</ele><time>2026-05-02T14:10:24.511Z</time></trkpt><trkpt lat="45.90318017627841" lon="11.063897461798147"><ele>323.79999999999995</ele><time>2026-05-02T14:10:25.511Z</time></trkpt><trkpt lat="45.903064145864164" lon="11.064005827602916"><ele>324.6</ele><time>2026-05-02T14:10:27.511Z</time></trkpt><trkpt lat="45.90303588929234" lon="11.064096719104704"><ele>325.4</ele><time>2026-05-02T14:10:28.511Z</time></trkpt><trkpt lat="45.90292498374634" lon="11.064159381268004"><ele>326.20000000000005</ele><time>2026-05-02T14:10:30.511Z</time></trkpt><trkpt lat="45.90285047782522" lon="11.064196859831934"><ele>327.0</ele><time>2026-05-02T14:10:31.511Z</time></trkpt><trkpt lat="45.902768112362494" lon="11.064234542648583"><ele>327.0</ele><time>2026-05-02T14:10:32.511Z</time></trkpt><trkpt lat="45.90268826483758" lon="11.064253574706772"><ele>327.0</ele><time>2026-05-02T14:10:33.511Z</time></trkpt><trkpt lat="45.90259882448466" lon="11.064259650053355"><ele>327.0</ele><time>2026-05-02T14:10:34.511Z</time></trkpt><trkpt lat="45.902482954780375" lon="11.064211266067776"><ele>327.0</ele><time>2026-05-02T14:10:35.511Z</time></trkpt><trkpt lat="45.902389511582975" lon="11.064202655117997"><ele>327.0</ele><time>2026-05-02T14:10:36.511Z</time></trkpt><trkpt lat="45.902309875701135" lon="11.06422901883322"><ele>332.0</ele><time>2026-05-02T14:10:37.511Z</time></trkpt><trkpt lat="45.902243418959415" lon="11.064321176552951"><ele>337.0</ele><time>2026-05-02T14:10:38.511Z</time></trkpt><trkpt lat="45.90217728189497" lon="11.064470403152663"><ele>342.0</ele><time>2026-05-02T14:10:39.511Z</time></trkpt><trkpt lat="45.902107656079714" lon="11.064626466089415"><ele>347.0</ele><time>2026-05-02T14:10:40.511Z</time></trkpt><trkpt lat="45.90201673906942" lon="11.064725595904678"><ele>347.0</ele><time>2026-05-02T14:10:41.511Z</time></trkpt><trkpt lat="45.901935794660226" lon="11.06480471561786"><ele>347.0</ele><time>2026-05-02T14:10:42.511Z</time></trkpt><trkpt lat="45.901856995326995" lon="11.06489243091797"><ele>347.0</ele><time>2026-05-02T14:10:43.511Z</time></trkpt><trkpt lat="45.90176737419105" lon="11.064958664359786"><ele>347.0</ele><time>2026-05-02T14:10:44.511Z</time></trkpt><trkpt lat="45.90169004417896" lon="11.065065590460526"><ele>347.0</ele><time>2026-05-02T14:10:45.511Z</time></trkpt><trkpt lat="45.901587253292924" lon="11.065133102184705"><ele>349.0</ele><time>2026-05-02T14:10:46.511Z</time></trkpt><trkpt lat="45.90148695091171" lon="11.065197951224905"><ele>351.0</ele><time>2026-05-02T14:10:47.511Z</time></trkpt><trkpt lat="45.901366804848074" lon="11.065244252620566"><ele>353.0</ele><time>2026-05-02T14:10:48.511Z</time></trkpt><trkpt lat="45.90125467777048" lon="11.065266711125949"><ele>355.0</ele><time>2026-05-02T14:10:49.511Z</time></trkpt><trkpt lat="45.90113911127583" lon="11.065267809684256"><ele>355.0</ele><time>2026-05-02T14:10:50.511Z</time></trkpt><trkpt lat="45.900995995469444" lon="11.065265728915941"><ele>355.0</ele><time>2026-05-02T14:10:51.511Z</time></trkpt><trkpt lat="45.900858301883666" lon="11.065287131336868"><ele>355.0</ele><time>2026-05-02T14:10:52.511Z</time></trkpt><trkpt lat="45.9007465955213" lon="11.065263056767932"><ele>355.0</ele><time>2026-05-02T14:10:53.511Z</time></trkpt><trkpt lat="45.90064566891097" lon="11.065261953387186"><ele>358.6</ele><time>2026-05-02T14:10:54.511Z</time></trkpt><trkpt lat="45.90057466357631" lon="11.065260998853141"><ele>362.2</ele><time>2026-05-02T14:10:55.511Z</time></trkpt><trkpt lat="45.90046816298316" lon="11.065259567167002"><ele>365.79999999999995</ele><time>2026-05-02T14:10:56.511Z</time></trkpt><trkpt lat="45.900362482047235" lon="11.065258146511436"><ele>369.4</ele><time>2026-05-02T14:10:57.511Z</time></trkpt><trkpt lat="45.900251066565644" lon="11.065279908110856"><ele>373.0</ele><time>2026-05-02T14:10:58.511Z</time></trkpt><trkpt lat="45.90012951293023" lon="11.065266009947388"><ele>375.25</ele><time>2026-05-02T14:10:59.511Z</time></trkpt><trkpt lat="45.90000358921249" lon="11.065280316140589"><ele>377.5</ele><time>2026-05-02T14:11:00.511Z</time></trkpt><trkpt lat="45.89986433623778" lon="11.065325956610444"><ele>379.75</ele><time>2026-05-02T14:11:01.511Z</time></trkpt><trkpt lat="45.899739358135555" lon="11.06535962328209"><ele>382.0</ele><time>2026-05-02T14:11:02.511Z</time></trkpt><trkpt lat="45.8996262758509" lon="11.065399957392604"><ele>382.0</ele><time>2026-05-02T14:11:03.511Z</time></trkpt><trkpt lat="45.89953113034421" lon="11.065457914999053"><ele>382.0</ele><time>2026-05-02T14:11:04.511Z</time></trkpt><trkpt lat="45.899418381925855" lon="11.065488013295989"><ele>382.0</ele><time>2026-05-02T14:11:05.511Z</time></trkpt><trkpt lat="45.899299928571374" lon="11.065532079031716"><ele>382.0</ele><time>2026-05-02T14:11:06.511Z</time></trkpt><trkpt lat="45.8991794983576" lon="11.06560006625259"><ele>383.0</ele><time>2026-05-02T14:11:07.511Z</time></trkpt><trkpt lat="45.899086428673144" lon="11.065696147805955"><ele>384.0</ele><time>2026-05-02T14:11:08.511Z</time></trkpt><trkpt lat="45.89901693588164" lon="11.065783597444081"><ele>385.0</ele><time>2026-05-02T14:11:09.511Z</time></trkpt><trkpt lat="45.89894894274515" lon="11.06586564491413"><ele>386.0</ele><time>2026-05-02T14:11:10.511Z</time></trkpt><trkpt lat="45.89889975966459" lon="11.065973369465011"><ele>387.0</ele><time>2026-05-02T14:11:11.511Z</time></trkpt><trkpt lat="45.89893375054864" lon="11.066170022479772"><ele>387.0</ele><time>2026-05-02T14:11:12.511Z</time></trkpt><trkpt lat="45.898987740793245" lon="11.066319420189048"><ele>387.0</ele><time>2026-05-02T14:11:13.511Z</time></trkpt><trkpt lat="45.89911802305259" lon="11.066454745605784"><ele>387.0</ele><time>2026-05-02T14:11:14.511Z</time></trkpt><trkpt lat="45.899235519163554" lon="11.0665615603544"><ele>387.0</ele><time>2026-05-02T14:11:15.511Z</time></trkpt><trkpt lat="45.89932051004731" lon="11.066680262065107"><ele>386.6</ele><time>2026-05-02T14:11:16.511Z</time></trkpt><trkpt lat="45.899366968895286" lon="11.06677824737841"><ele>386.20000000000005</ele><time>2026-05-02T14:11:17.511Z</time></trkpt><trkpt lat="45.89941668894429" lon="11.066872548111085"><ele>385.8</ele><time>2026-05-02T14:11:18.511Z</time></trkpt><trkpt lat="45.899420394098435" lon="11.066974429537185"><ele>385.4</ele><time>2026-05-02T14:11:20.511Z</time></trkpt><trkpt lat="45.89927376404072" lon="11.066885768646003"><ele>385.0</ele><time>2026-05-02T14:11:22.511Z</time></trkpt><trkpt lat="45.89919028546667" lon="11.066837556435942"><ele>388.0</ele><time>2026-05-02T14:11:23.511Z</time></trkpt><trkpt lat="45.89908262405313" lon="11.06680809155436"><ele>391.0</ele><time>2026-05-02T14:11:24.511Z</time></trkpt><trkpt lat="45.89894814062712" lon="11.06677282349322"><ele>394.0</ele><time>2026-05-02T14:11:25.511Z</time></trkpt><trkpt lat="45.898846301018196" lon="11.066746116092972"><ele>397.0</ele><time>2026-05-02T14:11:26.511Z</time></trkpt><trkpt lat="45.8987467373311" lon="11.066719857973517"><ele>397.0</ele><time>2026-05-02T14:11:27.511Z</time></trkpt><trkpt lat="45.89863731047545" lon="11.066696357130017"><ele>397.0</ele><time>2026-05-02T14:11:28.511Z</time></trkpt><trkpt lat="45.89852116400008" lon="11.066684955874527"><ele>397.0</ele><time>2026-05-02T14:11:29.511Z</time></trkpt><trkpt lat="45.89840068349544" lon="11.066686628535884"><ele>397.0</ele><time>2026-05-02T14:11:30.511Z</time></trkpt><trkpt lat="45.898289399398195" lon="11.066735620164277"><ele>398.50000000000006</ele><time>2026-05-02T14:11:31.511Z</time></trkpt><trkpt lat="45.898184846355655" lon="11.066794368478417"><ele>400.0</ele><time>2026-05-02T14:11:32.511Z</time></trkpt><trkpt lat="45.89809845566463" lon="11.066863426283316"><ele>401.5</ele><time>2026-05-02T14:11:33.511Z</time></trkpt><trkpt lat="45.89801533581724" lon="11.066870846393527"><ele>403.0</ele><time>2026-05-02T14:11:34.511Z</time></trkpt><trkpt lat="45.89794948167128" lon="11.066845639909227"><ele>404.50000000000006</ele><time>2026-05-02T14:11:35.511Z</time></trkpt><trkpt lat="45.89786842280266" lon="11.066804340794018"><ele>406.0</ele><time>2026-05-02T14:11:36.511Z</time></trkpt><trkpt lat="45.89775069491098" lon="11.066829144321654"><ele>406.0</ele><time>2026-05-02T14:11:37.511Z</time></trkpt><trkpt lat="45.89765513022315" lon="11.06681594828805"><ele>406.0</ele><time>2026-05-02T14:11:38.511Z</time></trkpt><trkpt lat="45.89756286460453" lon="11.066838272609544"><ele>406.0</ele><time>2026-05-02T14:11:39.511Z</time></trkpt><trkpt lat="45.89746471790058" lon="11.066845242455445"><ele>406.0</ele><time>2026-05-02T14:11:40.511Z</time></trkpt><trkpt lat="45.89735822339571" lon="11.066853431396394"><ele>406.0</ele><time>2026-05-02T14:11:41.511Z</time></trkpt><trkpt lat="45.89724384761531" lon="11.066864997399229"><ele>409.20000000000005</ele><time>2026-05-02T14:11:42.511Z</time></trkpt><trkpt lat="45.89714267932688" lon="11.066891746989876"><ele>412.40000000000003</ele><time>2026-05-02T14:11:43.511Z</time></trkpt><trkpt lat="45.897040051047" lon="11.066934619618555"><ele>415.6</ele><time>2026-05-02T14:11:44.511Z</time></trkpt><trkpt lat="45.89693987289708" lon="11.066976869977717"><ele>418.8</ele><time>2026-05-02T14:11:45.511Z</time></trkpt><trkpt lat="45.896849503120045" lon="11.06697659230438"><ele>422.0</ele><time>2026-05-02T14:11:46.511Z</time></trkpt><trkpt lat="45.896757950535765" lon="11.067001054924164"><ele>424.3333333333333</ele><time>2026-05-02T14:11:47.511Z</time></trkpt><trkpt lat="45.89666974015282" lon="11.066996165083552"><ele>426.66666666666663</ele><time>2026-05-02T14:11:48.511Z</time></trkpt><trkpt lat="45.89658799534635" lon="11.067021701178305"><ele>429.0</ele><time>2026-05-02T14:11:49.511Z</time></trkpt><trkpt lat="45.896511981507636" lon="11.067014721783002"><ele>431.33333333333337</ele><time>2026-05-02T14:11:50.511Z</time></trkpt><trkpt lat="45.89643114229399" lon="11.067015540197977"><ele>433.6666666666667</ele><time>2026-05-02T14:11:51.511Z</time></trkpt><trkpt lat="45.896354564057745" lon="11.067012285361985"><ele>436.0</ele><time>2026-05-02T14:11:52.511Z</time></trkpt><trkpt lat="45.89627488016992" lon="11.06702002660648"><ele>436.00000000000006</ele><time>2026-05-02T14:11:53.511Z</time></trkpt><trkpt lat="45.89620021544312" lon="11.0670349589109"><ele>436.0</ele><time>2026-05-02T14:11:54.511Z</time></trkpt><trkpt lat="45.896093405418945" lon="11.067067158256558"><ele>436.0</ele><time>2026-05-02T14:11:56.511Z</time></trkpt><trkpt lat="45.896014390886755" lon="11.067111984190552"><ele>436.0</ele><time>2026-05-02T14:11:58.511Z</time></trkpt><trkpt lat="45.89594574679579" lon="11.067130194187888"><ele>436.00000000000006</ele><time>2026-05-02T14:11:59.511Z</time></trkpt><trkpt lat="45.8958702893379" lon="11.067162375239302"><ele>436.0</ele><time>2026-05-02T14:12:00.511Z</time></trkpt><trkpt lat="45.89579125867499" lon="11.067196696963755"><ele>437.20000000000005</ele><time>2026-05-02T14:12:01.511Z</time></trkpt><trkpt lat="45.895698193256294" lon="11.067215815407325"><ele>438.40000000000003</ele><time>2026-05-02T14:12:02.511Z</time></trkpt><trkpt lat="45.89558990319261" lon="11.067253581080127"><ele>439.6</ele><time>2026-05-02T14:12:04.511Z</time></trkpt><trkpt lat="45.89547843776516" lon="11.067292035925261"><ele>440.8</ele><time>2026-05-02T14:12:07.511Z</time></trkpt><trkpt lat="45.89540643287453" lon="11.067327250951617"><ele>442.0</ele><time>2026-05-02T14:12:08.511Z</time></trkpt><trkpt lat="45.89532910832997" lon="11.067352683661136"><ele>442.00000000000006</ele><time>2026-05-02T14:12:09.511Z</time></trkpt><trkpt lat="45.895257429847064" lon="11.067342210685757"><ele>442.0</ele><time>2026-05-02T14:12:10.511Z</time></trkpt><trkpt lat="45.89519118128443" lon="11.06734625318493"><ele>442.0</ele><time>2026-05-02T14:12:11.511Z</time></trkpt><trkpt lat="45.89511348834828" lon="11.06733981442244"><ele>442.0</ele><time>2026-05-02T14:12:12.511Z</time></trkpt><trkpt lat="45.895027108469286" lon="11.067309030015739"><ele>442.00000000000006</ele><time>2026-05-02T14:12:13.511Z</time></trkpt><trkpt lat="45.89494406005134" lon="11.067282460719714"><ele>442.0</ele><time>2026-05-02T14:12:14.511Z</time></trkpt><trkpt lat="45.894855929093296" lon="11.067254421363499"><ele>442.6</ele><time>2026-05-02T14:12:15.511Z</time></trkpt><trkpt lat="45.89476209872788" lon="11.067227722265349"><ele>443.20000000000005</ele><time>2026-05-02T14:12:16.511Z</time></trkpt><trkpt lat="45.89469468158308" lon="11.06720506039733"><ele>443.8</ele><time>2026-05-02T14:12:17.511Z</time></trkpt><trkpt lat="45.894618697785134" lon="11.067173131322424"><ele>444.4</ele><time>2026-05-02T14:12:18.511Z</time></trkpt><trkpt lat="45.89445392668873" lon="11.067076849989595"><ele>445.0</ele><time>2026-05-02T14:12:20.511Z</time></trkpt><trkpt lat="45.894320952411185" lon="11.06701927741784"><ele>445.0</ele><time>2026-05-02T14:12:21.511Z</time></trkpt><trkpt lat="45.89418528850143" lon="11.067008576883469"><ele>445.0</ele><time>2026-05-02T14:12:22.511Z</time></trkpt><trkpt lat="45.89404697423855" lon="11.066955673753013"><ele>445.0</ele><time>2026-05-02T14:12:23.511Z</time></trkpt><trkpt lat="45.89391519905572" lon="11.066943063451859"><ele>445.0</ele><time>2026-05-02T14:12:24.511Z</time></trkpt><trkpt lat="45.89379900012173" lon="11.066896999238955"><ele>445.0</ele><time>2026-05-02T14:12:25.511Z</time></trkpt><trkpt lat="45.893675569585525" lon="11.066830543867557"><ele>445.0</ele><time>2026-05-02T14:12:26.511Z</time></trkpt><trkpt lat="45.89356490492181" lon="11.066794362564169"><ele>445.0</ele><time>2026-05-02T14:12:27.511Z</time></trkpt><trkpt lat="45.89345159713144" lon="11.066741677309604"><ele>445.0</ele><time>2026-05-02T14:12:28.511Z</time></trkpt><trkpt lat="45.89332194197006" lon="11.066690826868259"><ele>446.0</ele><time>2026-05-02T14:12:29.511Z</time></trkpt><trkpt lat="45.893215253598136" lon="11.066651305362551"><ele>447.0</ele><time>2026-05-02T14:12:30.511Z</time></trkpt><trkpt lat="45.89311037652563" lon="11.066613312842426"><ele>448.0</ele><time>2026-05-02T14:12:31.511Z</time></trkpt><trkpt lat="45.89300287706383" lon="11.06658270737886"><ele>449.0</ele><time>2026-05-02T14:12:32.511Z</time></trkpt><trkpt lat="45.89290738924961" lon="11.066559343909635"><ele>450.0</ele><time>2026-05-02T14:12:33.511Z</time></trkpt><trkpt lat="45.89279465288251" lon="11.066535397078146"><ele>450.1666666666667</ele><time>2026-05-02T14:12:34.511Z</time></trkpt><trkpt lat="45.89268723672424" lon="11.066547678035066"><ele>450.33333333333337</ele><time>2026-05-02T14:12:35.511Z</time></trkpt><trkpt lat="45.89258422787157" lon="11.066506672550528"><ele>450.5</ele><time>2026-05-02T14:12:36.511Z</time></trkpt><trkpt lat="45.892524836972385" lon="11.066471819977268"><ele>450.6666666666667</ele><time>2026-05-02T14:12:37.511Z</time></trkpt><trkpt lat="45.89249789235872" lon="11.066381194484922"><ele>450.83333333333337</ele><time>2026-05-02T14:12:38.511Z</time></trkpt><trkpt lat="45.892517275641886" lon="11.066265135894662"><ele>451.0</ele><time>2026-05-02T14:12:39.511Z</time></trkpt><trkpt lat="45.89245946388726" lon="11.066107421815595"><ele>452.6</ele><time>2026-05-02T14:12:40.511Z</time></trkpt><trkpt lat="45.89239640803604" lon="11.06604291403536"><ele>454.20000000000005</ele><time>2026-05-02T14:12:41.511Z</time></trkpt><trkpt lat="45.89233295420039" lon="11.066062868058873"><ele>455.79999999999995</ele><time>2026-05-02T14:12:42.511Z</time></trkpt><trkpt lat="45.892256789014546" lon="11.066196631819194"><ele>457.4</ele><time>2026-05-02T14:12:43.511Z</time></trkpt><trkpt lat="45.892232587012174" lon="11.066331678321193"><ele>459.0</ele><time>2026-05-02T14:12:44.511Z</time></trkpt><trkpt lat="45.89219961349413" lon="11.066458748639578"><ele>459.0</ele><time>2026-05-02T14:12:45.511Z</time></trkpt><trkpt lat="45.89214659416041" lon="11.066559195571024"><ele>459.0</ele><time>2026-05-02T14:12:46.511Z</time></trkpt><trkpt lat="45.892090565129365" lon="11.066607183051383"><ele>459.0</ele><time>2026-05-02T14:12:47.511Z</time></trkpt><trkpt lat="45.8920331711305" lon="11.066666241675932"><ele>459.0</ele><time>2026-05-02T14:12:49.511Z</time></trkpt><trkpt lat="45.891968061949804" lon="11.066641290204462"><ele>459.0</ele><time>2026-05-02T14:12:52.511Z</time></trkpt><trkpt lat="45.891901152112695" lon="11.066644805084845"><ele>459.0</ele><time>2026-05-02T14:12:54.511Z</time></trkpt><trkpt lat="45.891845358356015" lon="11.066578890562347"><ele>459.0</ele><time>2026-05-02T14:12:56.511Z</time></trkpt><trkpt lat="45.89177910616559" lon="11.066483759123708"><ele>460.4</ele><time>2026-05-02T14:12:58.511Z</time></trkpt><trkpt lat="45.89165256988756" lon="11.066395591850002"><ele>461.79999999999995</ele><time>2026-05-02T14:13:00.511Z</time></trkpt><trkpt lat="45.89159473164885" lon="11.066323248591747"><ele>463.20000000000005</ele><time>2026-05-02T14:13:01.511Z</time></trkpt><trkpt lat="45.89155242361606" lon="11.06625366831231"><ele>464.6</ele><time>2026-05-02T14:13:02.511Z</time></trkpt><trkpt lat="45.8914985080854" lon="11.066148501118095"><ele>466.0</ele><time>2026-05-02T14:13:03.511Z</time></trkpt><trkpt lat="45.891444879066" lon="11.066031708399807"><ele>467.6666666666667</ele><time>2026-05-02T14:13:04.511Z</time></trkpt><trkpt lat="45.89132392251476" lon="11.06568074745733"><ele>469.33333333333337</ele><time>2026-05-02T14:13:07.511Z</time></trkpt><trkpt lat="45.89129646188376" lon="11.065554307062438"><ele>471.0</ele><time>2026-05-02T14:13:08.511Z</time></trkpt><trkpt lat="45.89130291114813" lon="11.065418866628432"><ele>471.0</ele><time>2026-05-02T14:13:09.511Z</time></trkpt><trkpt lat="45.891296980349104" lon="11.065320491747128"><ele>471.0</ele><time>2026-05-02T14:13:10.511Z</time></trkpt><trkpt lat="45.891261113716716" lon="11.065234299237837"><ele>471.0</ele><time>2026-05-02T14:13:11.511Z</time></trkpt><trkpt lat="45.89119994876017" lon="11.065146217559969"><ele>471.0</ele><time>2026-05-02T14:13:12.511Z</time></trkpt><trkpt lat="45.891081100805536" lon="11.065115508741096"><ele>471.0</ele><time>2026-05-02T14:13:13.511Z</time></trkpt><trkpt lat="45.89096657163924" lon="11.06506456754453"><ele>469.0</ele><time>2026-05-02T14:13:14.511Z</time></trkpt><trkpt lat="45.890868109309515" lon="11.065016190273623"><ele>467.0</ele><time>2026-05-02T14:13:15.511Z</time></trkpt><trkpt lat="45.89073373771541" lon="11.06496324378769"><ele>465.0</ele><time>2026-05-02T14:13:16.511Z</time></trkpt><trkpt lat="45.89060590957925" lon="11.064959857761092"><ele>463.0</ele><time>2026-05-02T14:13:17.511Z</time></trkpt><trkpt lat="45.890493505420686" lon="11.064951158509146"><ele>463.0</ele><time>2026-05-02T14:13:18.511Z</time></trkpt><trkpt lat="45.89038895059636" lon="11.064948568182134"><ele>463.0</ele><time>2026-05-02T14:13:19.511Z</time></trkpt><trkpt lat="45.890266833765295" lon="11.064954283527321"><ele>463.0</ele><time>2026-05-02T14:13:20.511Z</time></trkpt><trkpt lat="45.89015302454622" lon="11.064955456635408"><ele>463.0</ele><time>2026-05-02T14:13:21.511Z</time></trkpt><trkpt lat="45.890021543471626" lon="11.06492678172426"><ele>460.0</ele><time>2026-05-02T14:13:22.511Z</time></trkpt><trkpt lat="45.88990140781671" lon="11.064856911521218"><ele>457.0</ele><time>2026-05-02T14:13:23.511Z</time></trkpt><trkpt lat="45.889763646065624" lon="11.064820823872907"><ele>454.0</ele><time>2026-05-02T14:13:24.511Z</time></trkpt><trkpt lat="45.889633018706036" lon="11.064815982546921"><ele>451.0</ele><time>2026-05-02T14:13:25.511Z</time></trkpt><trkpt lat="45.889516314748114" lon="11.064848423764687"><ele>451.0</ele><time>2026-05-02T14:13:26.511Z</time></trkpt><trkpt lat="45.88939558408377" lon="11.06485827729889"><ele>451.0</ele><time>2026-05-02T14:13:27.511Z</time></trkpt><trkpt lat="45.88927572528906" lon="11.064858968340284"><ele>451.0</ele><time>2026-05-02T14:13:28.511Z</time></trkpt><trkpt lat="45.88917394282178" lon="11.0648754672709"><ele>451.0</ele><time>2026-05-02T14:13:29.511Z</time></trkpt><trkpt lat="45.88908761185806" lon="11.064974135844794"><ele>449.25</ele><time>2026-05-02T14:13:30.511Z</time></trkpt><trkpt lat="45.88898772991779" lon="11.065085597101941"><ele>447.5</ele><time>2026-05-02T14:13:31.511Z</time></trkpt><trkpt lat="45.888898999694256" lon="11.06521950032362"><ele>445.75</ele><time>2026-05-02T14:13:32.511Z</time></trkpt><trkpt lat="45.888797606701544" lon="11.065335654091573"><ele>444.0</ele><time>2026-05-02T14:13:33.511Z</time></trkpt><trkpt lat="45.888694250021636" lon="11.065422127173742"><ele>444.0</ele><time>2026-05-02T14:13:34.511Z</time></trkpt><trkpt lat="45.888593059712946" lon="11.06549706888389"><ele>444.0</ele><time>2026-05-02T14:13:35.511Z</time></trkpt><trkpt lat="45.88847787358128" lon="11.065535358685086"><ele>444.0</ele><time>2026-05-02T14:13:36.511Z</time></trkpt><trkpt lat="45.88837652130548" lon="11.065522370631493"><ele>444.0</ele><time>2026-05-02T14:13:37.511Z</time></trkpt><trkpt lat="45.88826292635615" lon="11.065544606955795"><ele>444.0</ele><time>2026-05-02T14:13:38.511Z</time></trkpt><trkpt lat="45.888158154411215" lon="11.065579785282349"><ele>445.5</ele><time>2026-05-02T14:13:39.511Z</time></trkpt><trkpt lat="45.8880496259298" lon="11.065610714585265"><ele>447.0</ele><time>2026-05-02T14:13:40.511Z</time></trkpt><trkpt lat="45.88793555699898" lon="11.065623330851407"><ele>448.5</ele><time>2026-05-02T14:13:41.511Z</time></trkpt><trkpt lat="45.88782961888503" lon="11.065765102639268"><ele>450.0</ele><time>2026-05-02T14:13:42.511Z</time></trkpt><trkpt lat="45.88773680959018" lon="11.065869941217347"><ele>450.0</ele><time>2026-05-02T14:13:43.511Z</time></trkpt><trkpt lat="45.887638722296096" lon="11.065945874735037"><ele>450.0</ele><time>2026-05-02T14:13:44.511Z</time></trkpt><trkpt lat="45.88753387775072" lon="11.066032896275443"><ele>450.0</ele><time>2026-05-02T14:13:45.511Z</time></trkpt><trkpt lat="45.88743479782603" lon="11.066098160367046"><ele>450.0</ele><time>2026-05-02T14:13:46.511Z</time></trkpt><trkpt lat="45.88733051308385" lon="11.06617485137636"><ele>445.2</ele><time>2026-05-02T14:13:47.511Z</time></trkpt><trkpt lat="45.887238571219974" lon="11.066237293074563"><ele>440.4</ele><time>2026-05-02T14:13:48.511Z</time></trkpt><trkpt lat="45.88713873178973" lon="11.066284696119192"><ele>435.6</ele><time>2026-05-02T14:13:49.511Z</time></trkpt><trkpt lat="45.88703785552803" lon="11.066329982725845"><ele>430.8</ele><time>2026-05-02T14:13:50.511Z</time></trkpt><trkpt lat="45.886941928773204" lon="11.066382586042446"><ele>426.0</ele><time>2026-05-02T14:13:51.511Z</time></trkpt><trkpt lat="45.88683148649945" lon="11.066397438342815"><ele>427.0</ele><time>2026-05-02T14:13:52.511Z</time></trkpt><trkpt lat="45.886737092647316" lon="11.066463682953923"><ele>428.0</ele><time>2026-05-02T14:13:53.511Z</time></trkpt><trkpt lat="45.886658376558486" lon="11.066571145152976"><ele>429.0</ele><time>2026-05-02T14:13:54.511Z</time></trkpt><trkpt lat="45.886591778509285" lon="11.066659487544854"><ele>430.0</ele><time>2026-05-02T14:13:55.511Z</time></trkpt><trkpt lat="45.88655528620078" lon="11.066758894676026"><ele>431.0</ele><time>2026-05-02T14:13:56.511Z</time></trkpt><trkpt lat="45.88651318936135" lon="11.06683850243188"><ele>431.0</ele><time>2026-05-02T14:13:59.511Z</time></trkpt><trkpt lat="45.8864001305841" lon="11.067023251990673"><ele>431.0</ele><time>2026-05-02T14:14:04.511Z</time></trkpt><trkpt lat="45.88632881789123" lon="11.067108608844716"><ele>431.0</ele><time>2026-05-02T14:14:05.511Z</time></trkpt><trkpt lat="45.886267687919734" lon="11.067187276323308"><ele>431.0</ele><time>2026-05-02T14:14:06.511Z</time></trkpt><trkpt lat="45.8862030862626" lon="11.067269814534795"><ele>431.0</ele><time>2026-05-02T14:14:07.511Z</time></trkpt><trkpt lat="45.88614272268085" lon="11.067370777751565"><ele>427.8</ele><time>2026-05-02T14:14:08.511Z</time></trkpt><trkpt lat="45.88608179709632" lon="11.067476911930799"><ele>424.6</ele><time>2026-05-02T14:14:09.511Z</time></trkpt><trkpt lat="45.886021082184456" lon="11.06759069178162"><ele>421.4</ele><time>2026-05-02T14:14:10.511Z</time></trkpt><trkpt lat="45.88595716880855" lon="11.067714284872505"><ele>418.2</ele><time>2026-05-02T14:14:11.511Z</time></trkpt><trkpt lat="45.88590069228142" lon="11.067822403443246"><ele>415.0</ele><time>2026-05-02T14:14:12.511Z</time></trkpt><trkpt lat="45.88583781917086" lon="11.067943861359867"><ele>415.0</ele><time>2026-05-02T14:14:13.511Z</time></trkpt><trkpt lat="45.88576082542663" lon="11.068070643207625"><ele>415.0</ele><time>2026-05-02T14:14:14.511Z</time></trkpt><trkpt lat="45.885684317479566" lon="11.068206424651072"><ele>415.0</ele><time>2026-05-02T14:14:15.511Z</time></trkpt><trkpt lat="45.88559134439915" lon="11.068324818258297"><ele>415.0</ele><time>2026-05-02T14:14:16.511Z</time></trkpt><trkpt lat="45.88551028867822" lon="11.068478288420255"><ele>421.75</ele><time>2026-05-02T14:14:17.511Z</time></trkpt><trkpt lat="45.88542174191097" lon="11.068602866980422"><ele>428.5</ele><time>2026-05-02T14:14:18.511Z</time></trkpt><trkpt lat="45.88534258599907" lon="11.068711296641334"><ele>435.25</ele><time>2026-05-02T14:14:19.511Z</time></trkpt><trkpt lat="45.88525865569965" lon="11.068832222515178"><ele>442.0</ele><time>2026-05-02T14:14:20.511Z</time></trkpt><trkpt lat="45.8851794281292" lon="11.06897456178973"><ele>437.25</ele><time>2026-05-02T14:14:21.511Z</time></trkpt><trkpt lat="45.885076481782136" lon="11.06907566131247"><ele>432.5</ele><time>2026-05-02T14:14:22.511Z</time></trkpt><trkpt lat="45.884986945542884" lon="11.06920821418727"><ele>427.75</ele><time>2026-05-02T14:14:23.511Z</time></trkpt><trkpt lat="45.884885626970366" lon="11.069305775610395"><ele>423.0</ele><time>2026-05-02T14:14:24.511Z</time></trkpt><trkpt lat="45.88479986827752" lon="11.06942602511137"><ele>423.0</ele><time>2026-05-02T14:14:25.511Z</time></trkpt><trkpt lat="45.8847304775505" lon="11.069557389975902"><ele>423.0</ele><time>2026-05-02T14:14:26.511Z</time></trkpt><trkpt lat="45.88468357479374" lon="11.069701800838295"><ele>423.0</ele><time>2026-05-02T14:14:27.511Z</time></trkpt><trkpt lat="45.884622813132346" lon="11.069808340924022"><ele>423.0</ele><time>2026-05-02T14:14:28.511Z</time></trkpt><trkpt lat="45.88457395604979" lon="11.069898098587394"><ele>423.0</ele><time>2026-05-02T14:14:29.511Z</time></trkpt><trkpt lat="45.88453289250458" lon="11.06996872453878"><ele>421.5</ele><time>2026-05-02T14:14:30.511Z</time></trkpt><trkpt lat="45.88443936864833" lon="11.069998857851278"><ele>420.0</ele><time>2026-05-02T14:14:32.511Z</time></trkpt><trkpt lat="45.884345968811544" lon="11.07014353347612"><ele>418.5</ele><time>2026-05-02T14:14:34.511Z</time></trkpt><trkpt lat="45.88428732516157" lon="11.070208893847216"><ele>417.0</ele><time>2026-05-02T14:14:35.511Z</time></trkpt><trkpt lat="45.88422171414195" lon="11.070245608086504"><ele>415.5</ele><time>2026-05-02T14:14:36.511Z</time></trkpt><trkpt lat="45.884157592536916" lon="11.070268618565107"><ele>414.0</ele><time>2026-05-02T14:14:37.511Z</time></trkpt><trkpt lat="45.884092065565355" lon="11.070286237847627"><ele>414.0</ele><time>2026-05-02T14:14:38.511Z</time></trkpt><trkpt lat="45.88402837902435" lon="11.070301870537376"><ele>414.0</ele><time>2026-05-02T14:14:39.511Z</time></trkpt><trkpt lat="45.88392508637679" lon="11.070313682431758"><ele>414.0</ele><time>2026-05-02T14:14:41.511Z</time></trkpt><trkpt lat="45.88385044358789" lon="11.070288120336324"><ele>414.0</ele><time>2026-05-02T14:14:43.511Z</time></trkpt><trkpt lat="45.88384206097417" lon="11.070125358171477"><ele>414.0</ele><time>2026-05-02T14:14:46.511Z</time></trkpt><trkpt lat="45.88380741649939" lon="11.070042101472517"><ele>414.0</ele><time>2026-05-02T14:14:47.511Z</time></trkpt><trkpt lat="45.88378124976697" lon="11.069944189312329"><ele>411.6</ele><time>2026-05-02T14:14:48.511Z</time></trkpt><trkpt lat="45.883728681708284" lon="11.069859173617372"><ele>409.2</ele><time>2026-05-02T14:14:49.511Z</time></trkpt><trkpt lat="45.883646828581355" lon="11.069774792888065"><ele>406.8</ele><time>2026-05-02T14:14:50.511Z</time></trkpt><trkpt lat="45.88358849411665" lon="11.069694032353434"><ele>404.40000000000003</ele><time>2026-05-02T14:14:51.511Z</time></trkpt><trkpt lat="45.88353067595045" lon="11.069602378671856"><ele>402.0</ele><time>2026-05-02T14:14:52.511Z</time></trkpt><trkpt lat="45.883489180582046" lon="11.069440859103336"><ele>402.0</ele><time>2026-05-02T14:14:54.511Z</time></trkpt><trkpt lat="45.88347632897446" lon="11.06935012371059"><ele>402.0</ele><time>2026-05-02T14:14:55.511Z</time></trkpt><trkpt lat="45.883545484501894" lon="11.06928041248238"><ele>402.0</ele><time>2026-05-02T14:14:56.511Z</time></trkpt><trkpt lat="45.88369113781962" lon="11.069219081854513"><ele>402.0</ele><time>2026-05-02T14:14:58.511Z</time></trkpt><trkpt lat="45.88377067750611" lon="11.06927309197079"><ele>402.0</ele><time>2026-05-02T14:14:59.511Z</time></trkpt><trkpt lat="45.88384831494091" lon="11.069317452076833"><ele>402.0</ele><time>2026-05-02T14:15:00.511Z</time></trkpt><trkpt lat="45.883932200181675" lon="11.069354607965616"><ele>402.0</ele><time>2026-05-02T14:15:01.511Z</time></trkpt><trkpt lat="45.884011617840514" lon="11.069378111296714"><ele>402.0</ele><time>2026-05-02T14:15:02.511Z</time></trkpt><trkpt lat="45.88409853313189" lon="11.069394991402957"><ele>402.0</ele><time>2026-05-02T14:15:03.511Z</time></trkpt><trkpt lat="45.88417752608276" lon="11.069286970655966"><ele>402.0</ele><time>2026-05-02T14:15:04.511Z</time></trkpt><trkpt lat="45.88423423757931" lon="11.069221373020888"><ele>402.0</ele><time>2026-05-02T14:15:05.511Z</time></trkpt><trkpt lat="45.88426107106442" lon="11.069138543686446"><ele>400.40000000000003</ele><time>2026-05-02T14:15:06.511Z</time></trkpt><trkpt lat="45.884367130783986" lon="11.069132669922412"><ele>398.8</ele><time>2026-05-02T14:15:07.511Z</time></trkpt><trkpt lat="45.88425495466445" lon="11.068986132347584"><ele>397.2</ele><time>2026-05-02T14:15:08.511Z</time></trkpt><trkpt lat="45.884185467950786" lon="11.068959988227139"><ele>395.6</ele><time>2026-05-02T14:15:09.511Z</time></trkpt><trkpt lat="45.884100197910094" lon="11.0689549732841"><ele>394.0</ele><time>2026-05-02T14:15:10.511Z</time></trkpt><trkpt lat="45.88402463265272" lon="11.068930371654039"><ele>394.00000000000006</ele><time>2026-05-02T14:15:11.511Z</time></trkpt><trkpt lat="45.88394387794764" lon="11.068897537261995"><ele>394.0</ele><time>2026-05-02T14:15:12.511Z</time></trkpt><trkpt lat="45.88386902752153" lon="11.06887091740194"><ele>394.0</ele><time>2026-05-02T14:15:13.511Z</time></trkpt><trkpt lat="45.88380328762155" lon="11.068839262795972"><ele>394.0</ele><time>2026-05-02T14:15:14.511Z</time></trkpt><trkpt lat="45.88374611515082" lon="11.068794353781579"><ele>394.00000000000006</ele><time>2026-05-02T14:15:15.511Z</time></trkpt><trkpt lat="45.88367064217327" lon="11.068682491017121"><ele>394.0</ele><time>2026-05-02T14:15:17.511Z</time></trkpt><trkpt lat="45.8836577253377" lon="11.068587184601517"><ele>394.0</ele><time>2026-05-02T14:15:18.511Z</time></trkpt><trkpt lat="45.883709340736594" lon="11.068374830320652"><ele>394.0</ele><time>2026-05-02T14:15:20.511Z</time></trkpt><trkpt lat="45.883702909723546" lon="11.068238638214845"><ele>394.0</ele><time>2026-05-02T14:15:21.511Z</time></trkpt><trkpt lat="45.88370990508385" lon="11.068114077313217"><ele>394.0</ele><time>2026-05-02T14:15:22.511Z</time></trkpt><trkpt lat="45.88373145850795" lon="11.068006876918426"><ele>394.0</ele><time>2026-05-02T14:15:23.511Z</time></trkpt><trkpt lat="45.88374333243077" lon="11.067882034122265"><ele>392.6</ele><time>2026-05-02T14:15:24.511Z</time></trkpt><trkpt lat="45.88376914273326" lon="11.067767220559752"><ele>391.2</ele><time>2026-05-02T14:15:25.511Z</time></trkpt><trkpt lat="45.883762792553" lon="11.067631644118817"><ele>389.8</ele><time>2026-05-02T14:15:26.511Z</time></trkpt><trkpt lat="45.88379004794611" lon="11.067501085388207"><ele>388.40000000000003</ele><time>2026-05-02T14:15:27.511Z</time></trkpt><trkpt lat="45.88382626463192" lon="11.067385858321332"><ele>387.0</ele><time>2026-05-02T14:15:28.511Z</time></trkpt><trkpt lat="45.883862356460845" lon="11.067264771920145"><ele>385.3333333333333</ele><time>2026-05-02T14:15:29.511Z</time></trkpt><trkpt lat="45.88389022161812" lon="11.067150377938653"><ele>383.6666666666667</ele><time>2026-05-02T14:15:30.511Z</time></trkpt><trkpt lat="45.883901948851104" lon="11.067024583633986"><ele>382.0</ele><time>2026-05-02T14:15:31.511Z</time></trkpt><trkpt lat="45.88390222607584" lon="11.066893801414864"><ele>380.33333333333337</ele><time>2026-05-02T14:15:32.511Z</time></trkpt><trkpt lat="45.883837297231345" lon="11.066787866096153"><ele>378.6666666666667</ele><time>2026-05-02T14:15:33.511Z</time></trkpt><trkpt lat="45.883770604280016" lon="11.066708275612179"><ele>377.0</ele><time>2026-05-02T14:15:34.511Z</time></trkpt><trkpt lat="45.88370263284829" lon="11.06664106567771"><ele>376.1666666666667</ele><time>2026-05-02T14:15:35.511Z</time></trkpt><trkpt lat="45.883649833956184" lon="11.066567266364071"><ele>375.33333333333337</ele><time>2026-05-02T14:15:36.511Z</time></trkpt><trkpt lat="45.88362199834766" lon="11.06647871940952"><ele>374.5</ele><time>2026-05-02T14:15:37.511Z</time></trkpt><trkpt lat="45.8836228665711" lon="11.066381758429909"><ele>373.6666666666667</ele><time>2026-05-02T14:15:38.511Z</time></trkpt><trkpt lat="45.883678482199436" lon="11.066278626280774"><ele>372.8333333333333</ele><time>2026-05-02T14:15:39.511Z</time></trkpt><trkpt lat="45.88375520207209" lon="11.066230108851146"><ele>372.0</ele><time>2026-05-02T14:15:40.511Z</time></trkpt><trkpt lat="45.883844715050735" lon="11.06617898233455"><ele>372.0</ele><time>2026-05-02T14:15:41.511Z</time></trkpt><trkpt lat="45.88411474663184" lon="11.066179089604217"><ele>372.0</ele><time>2026-05-02T14:15:44.511Z</time></trkpt><trkpt lat="45.884308448415844" lon="11.066011038192448"><ele>372.1666666666667</ele><time>2026-05-02T14:15:48.511Z</time></trkpt><trkpt lat="45.88433379376681" lon="11.065918025533287"><ele>372.3333333333333</ele><time>2026-05-02T14:15:49.511Z</time></trkpt><trkpt lat="45.88431093883853" lon="11.065831108726496"><ele>372.5</ele><time>2026-05-02T14:15:50.511Z</time></trkpt><trkpt lat="45.884315119346056" lon="11.065680883610497"><ele>372.66666666666663</ele><time>2026-05-02T14:15:53.511Z</time></trkpt><trkpt lat="45.88431387856108" lon="11.065561413255553"><ele>372.8333333333333</ele><time>2026-05-02T14:15:54.511Z</time></trkpt><trkpt lat="45.88431231330365" lon="11.065378716674989"><ele>373.0</ele><time>2026-05-02T14:15:55.511Z</time></trkpt><trkpt lat="45.88431063523758" lon="11.065198518635254"><ele>371.0</ele><time>2026-05-02T14:15:56.511Z</time></trkpt><trkpt lat="45.88430857903213" lon="11.065002518674417"><ele>369.0</ele><time>2026-05-02T14:15:57.511Z</time></trkpt><trkpt lat="45.88430868724454" lon="11.064819925883668"><ele>367.0</ele><time>2026-05-02T14:15:58.511Z</time></trkpt><trkpt lat="45.88430776934305" lon="11.064627899552628"><ele>365.0</ele><time>2026-05-02T14:15:59.511Z</time></trkpt><trkpt lat="45.884287242320404" lon="11.064432112231568"><ele>360.75</ele><time>2026-05-02T14:16:00.511Z</time></trkpt><trkpt lat="45.88422919209251" lon="11.064250176686416"><ele>356.5</ele><time>2026-05-02T14:16:01.511Z</time></trkpt><trkpt lat="45.88419294807872" lon="11.064074178283226"><ele>352.25</ele><time>2026-05-02T14:16:02.511Z</time></trkpt><trkpt lat="45.88415443882634" lon="11.0639165826382"><ele>348.0</ele><time>2026-05-02T14:16:03.511Z</time></trkpt><trkpt lat="45.88411697131682" lon="11.06377776272028"><ele>345.79999999999995</ele><time>2026-05-02T14:16:04.511Z</time></trkpt><trkpt lat="45.884119023320345" lon="11.06365601256896"><ele>343.6</ele><time>2026-05-02T14:16:05.511Z</time></trkpt><trkpt lat="45.88409833618946" lon="11.063547953337906"><ele>341.4</ele><time>2026-05-02T14:16:06.511Z</time></trkpt><trkpt lat="45.884125466221654" lon="11.063403088344403"><ele>339.20000000000005</ele><time>2026-05-02T14:16:08.511Z</time></trkpt><trkpt lat="45.88422431636193" lon="11.063358651025625"><ele>337.0</ele><time>2026-05-02T14:16:10.511Z</time></trkpt><trkpt lat="45.88437061918523" lon="11.063532099982899"><ele>337.0</ele><time>2026-05-02T14:16:11.511Z</time></trkpt><trkpt lat="45.884515411813005" lon="11.06367080131321"><ele>337.0</ele><time>2026-05-02T14:16:12.511Z</time></trkpt><trkpt lat="45.88462982333405" lon="11.063778555717633"><ele>337.0</ele><time>2026-05-02T14:16:13.511Z</time></trkpt><trkpt lat="45.88472968748913" lon="11.063836086321963"><ele>337.0</ele><time>2026-05-02T14:16:14.511Z</time></trkpt><trkpt lat="45.88484973189922" lon="11.063836948353774"><ele>337.0</ele><time>2026-05-02T14:16:15.511Z</time></trkpt><trkpt lat="45.88494681898057" lon="11.063783369736946"><ele>337.0</ele><time>2026-05-02T14:16:16.511Z</time></trkpt><trkpt lat="45.88502571095698" lon="11.063675858872926"><ele>337.0</ele><time>2026-05-02T14:16:17.511Z</time></trkpt><trkpt lat="45.88507860020304" lon="11.063492018165924"><ele>337.0</ele><time>2026-05-02T14:16:18.511Z</time></trkpt><trkpt lat="45.88513752792611" lon="11.063296577626108"><ele>336.75</ele><time>2026-05-02T14:16:19.511Z</time></trkpt><trkpt lat="45.88517127819769" lon="11.063102837997148"><ele>336.5</ele><time>2026-05-02T14:16:20.511Z</time></trkpt><trkpt lat="45.885207643193354" lon="11.062926358320986"><ele>336.25</ele><time>2026-05-02T14:16:21.511Z</time></trkpt><trkpt lat="45.88524957232561" lon="11.06280316632902"><ele>336.0</ele><time>2026-05-02T14:16:22.511Z</time></trkpt><trkpt lat="45.885310653821385" lon="11.062689154902854"><ele>336.0</ele><time>2026-05-02T14:16:23.511Z</time></trkpt><trkpt lat="45.88534287283111" lon="11.062582675734829"><ele>336.0</ele><time>2026-05-02T14:16:25.511Z</time></trkpt><trkpt lat="45.88530739158105" lon="11.062506017478421"><ele>336.0</ele><time>2026-05-02T14:16:26.511Z</time></trkpt><trkpt lat="45.8851825048006" lon="11.062440964442995"><ele>336.0</ele><time>2026-05-02T14:16:28.511Z</time></trkpt><trkpt lat="45.88509918182157" lon="11.062520709313757"><ele>336.0</ele><time>2026-05-02T14:16:29.511Z</time></trkpt><trkpt lat="45.885065986746234" lon="11.062721358993278"><ele>332.2</ele><time>2026-05-02T14:16:30.511Z</time></trkpt><trkpt lat="45.885034168778716" lon="11.062904388130596"><ele>328.40000000000003</ele><time>2026-05-02T14:16:31.511Z</time></trkpt><trkpt lat="45.884993519859385" lon="11.063064092685295"><ele>324.6</ele><time>2026-05-02T14:16:32.511Z</time></trkpt><trkpt lat="45.884931075852094" lon="11.063153761794375"><ele>320.8</ele><time>2026-05-02T14:16:33.511Z</time></trkpt><trkpt lat="45.88481990816412" lon="11.063158618366773"><ele>317.0</ele><time>2026-05-02T14:16:35.511Z</time></trkpt><trkpt lat="45.884740608969054" lon="11.06309198454218"><ele>317.0</ele><time>2026-05-02T14:16:36.511Z</time></trkpt><trkpt lat="45.884682709396735" lon="11.062945270770927"><ele>317.0</ele><time>2026-05-02T14:16:37.511Z</time></trkpt><trkpt lat="45.88460644102767" lon="11.062786731170428"><ele>317.0</ele><time>2026-05-02T14:16:38.511Z</time></trkpt><trkpt lat="45.884494249959694" lon="11.062574711499304"><ele>317.0</ele><time>2026-05-02T14:16:39.511Z</time></trkpt><trkpt lat="45.88439464833245" lon="11.06244665971214"><ele>312.0</ele><time>2026-05-02T14:16:40.511Z</time></trkpt><trkpt lat="45.88433597093199" lon="11.062328015050854"><ele>307.0</ele><time>2026-05-02T14:16:41.511Z</time></trkpt><trkpt lat="45.88427991439559" lon="11.062229411209266"><ele>302.0</ele><time>2026-05-02T14:16:42.511Z</time></trkpt><trkpt lat="45.88420105372696" lon="11.062189532637479"><ele>297.0</ele><time>2026-05-02T14:16:43.511Z</time></trkpt><trkpt lat="45.88408175121032" lon="11.062231628988366"><ele>292.0</ele><time>2026-05-02T14:16:44.511Z</time></trkpt><trkpt lat="45.883940343457816" lon="11.06238510331821"><ele>296.25</ele><time>2026-05-02T14:16:45.511Z</time></trkpt><trkpt lat="45.88383442890511" lon="11.062493844562088"><ele>300.5</ele><time>2026-05-02T14:16:46.511Z</time></trkpt><trkpt lat="45.88369144078425" lon="11.062574897043232"><ele>304.75</ele><time>2026-05-02T14:16:47.511Z</time></trkpt><trkpt lat="45.88357965872679" lon="11.062648885187723"><ele>309.0</ele><time>2026-05-02T14:16:48.511Z</time></trkpt><trkpt lat="45.88347720949378" lon="11.062727607322673"><ele>304.25</ele><time>2026-05-02T14:16:49.511Z</time></trkpt><trkpt lat="45.8833845738213" lon="11.062805368440115"><ele>299.5</ele><time>2026-05-02T14:16:50.511Z</time></trkpt><trkpt lat="45.88332402159593" lon="11.062952279491668"><ele>294.75</ele><time>2026-05-02T14:16:51.511Z</time></trkpt><trkpt lat="45.88324419676021" lon="11.063114831616604"><ele>290.0</ele><time>2026-05-02T14:16:52.511Z</time></trkpt><trkpt lat="45.883169810021755" lon="11.063246296487934"><ele>294.4</ele><time>2026-05-02T14:16:53.511Z</time></trkpt><trkpt lat="45.88309199190248" lon="11.063310343070247"><ele>298.8</ele><time>2026-05-02T14:16:54.511Z</time></trkpt><trkpt lat="45.88300849776073" lon="11.063369174969798"><ele>303.2</ele><time>2026-05-02T14:16:55.511Z</time></trkpt><trkpt lat="45.88289561534311" lon="11.063330106169458"><ele>307.6</ele><time>2026-05-02T14:16:56.511Z</time></trkpt><trkpt lat="45.88275450439631" lon="11.063340256065617"><ele>312.0</ele><time>2026-05-02T14:16:57.511Z</time></trkpt><trkpt lat="45.8826685766651" lon="11.063395779586704"><ele>312.0</ele><time>2026-05-02T14:16:58.511Z</time></trkpt><trkpt lat="45.882600846234816" lon="11.063483500982471"><ele>312.0</ele><time>2026-05-02T14:16:59.511Z</time></trkpt><trkpt lat="45.88254064496884" lon="11.063598702043492"><ele>312.0</ele><time>2026-05-02T14:17:00.511Z</time></trkpt><trkpt lat="45.882484168154825" lon="11.063703800201168"><ele>312.0</ele><time>2026-05-02T14:17:01.511Z</time></trkpt><trkpt lat="45.882399267376904" lon="11.06374913963958"><ele>312.0</ele><time>2026-05-02T14:17:03.511Z</time></trkpt><trkpt lat="45.8823498720545" lon="11.063671728326444"><ele>312.0</ele><time>2026-05-02T14:17:05.511Z</time></trkpt><trkpt lat="45.88236213523604" lon="11.063463759736576"><ele>307.5</ele><time>2026-05-02T14:17:06.511Z</time></trkpt><trkpt lat="45.882510490041824" lon="11.063373354341875"><ele>303.0</ele><time>2026-05-02T14:17:07.511Z</time></trkpt><trkpt lat="45.882609801515365" lon="11.063224115128959"><ele>298.5</ele><time>2026-05-02T14:17:08.511Z</time></trkpt><trkpt lat="45.882683364546494" lon="11.063107147720352"><ele>294.0</ele><time>2026-05-02T14:17:09.511Z</time></trkpt><trkpt lat="45.88278317219054" lon="11.06302384228378"><ele>293.2</ele><time>2026-05-02T14:17:10.511Z</time></trkpt><trkpt lat="45.88287634153455" lon="11.062956575671569"><ele>292.4</ele><time>2026-05-02T14:17:11.511Z</time></trkpt><trkpt lat="45.882973423805986" lon="11.06291672735989"><ele>291.6</ele><time>2026-05-02T14:17:12.511Z</time></trkpt><trkpt lat="45.88309360065412" lon="11.06285857700249"><ele>290.8</ele><time>2026-05-02T14:17:13.511Z</time></trkpt><trkpt lat="45.8831765396779" lon="11.062753821517717"><ele>290.0</ele><time>2026-05-02T14:17:15.511Z</time></trkpt><trkpt lat="45.88307798129395" lon="11.06258008073825"><ele>290.0</ele><time>2026-05-02T14:17:17.511Z</time></trkpt><trkpt lat="45.88293361870952" lon="11.062566927259196"><ele>290.0</ele><time>2026-05-02T14:17:18.511Z</time></trkpt><trkpt lat="45.88284095221716" lon="11.062751088227895"><ele>290.0</ele><time>2026-05-02T14:17:19.511Z</time></trkpt><trkpt lat="45.8827684613471" lon="11.062785258080119"><ele>290.0</ele><time>2026-05-02T14:17:20.511Z</time></trkpt><trkpt lat="45.88265135652179" lon="11.062787481171673"><ele>286.25</ele><time>2026-05-02T14:17:21.511Z</time></trkpt><trkpt lat="45.882544029226885" lon="11.062804249799708"><ele>282.5</ele><time>2026-05-02T14:17:22.511Z</time></trkpt><trkpt lat="45.88242746977854" lon="11.062801129828754"><ele>278.75</ele><time>2026-05-02T14:17:23.511Z</time></trkpt><trkpt lat="45.882305956400565" lon="11.062784897096218"><ele>275.0</ele><time>2026-05-02T14:17:24.511Z</time></trkpt><trkpt lat="45.88218793851027" lon="11.062762979549667"><ele>275.0</ele><time>2026-05-02T14:17:25.511Z</time></trkpt><trkpt lat="45.88208532258396" lon="11.062755228776352"><ele>275.0</ele><time>2026-05-02T14:17:26.511Z</time></trkpt><trkpt lat="45.881987656286846" lon="11.062747885800544"><ele>275.0</ele><time>2026-05-02T14:17:27.511Z</time></trkpt><trkpt lat="45.881924066195026" lon="11.062732382274739"><ele>275.0</ele><time>2026-05-02T14:17:28.511Z</time></trkpt><trkpt lat="45.8818473774574" lon="11.062693015866726"><ele>275.0</ele><time>2026-05-02T14:17:33.511Z</time></trkpt><trkpt lat="45.881758081627424" lon="11.062652800151215"><ele>275.0</ele><time>2026-05-02T14:17:34.511Z</time></trkpt><trkpt lat="45.881671397784714" lon="11.062649488806471"><ele>273.5</ele><time>2026-05-02T14:17:35.511Z</time></trkpt><trkpt lat="45.88155097590649" lon="11.062653771743456"><ele>272.0</ele><time>2026-05-02T14:17:36.511Z</time></trkpt><trkpt lat="45.881439341636955" lon="11.062624684657655"><ele>270.5</ele><time>2026-05-02T14:17:37.511Z</time></trkpt><trkpt lat="45.881318894738136" lon="11.062586343299257"><ele>269.0</ele><time>2026-05-02T14:17:38.511Z</time></trkpt><trkpt lat="45.881204996105474" lon="11.06257558730862"><ele>269.0</ele><time>2026-05-02T14:17:39.511Z</time></trkpt><trkpt lat="45.881090755543305" lon="11.062589962500102"><ele>269.0</ele><time>2026-05-02T14:17:40.511Z</time></trkpt><trkpt lat="45.88098506049721" lon="11.062635609013695"><ele>269.0</ele><time>2026-05-02T14:17:41.511Z</time></trkpt><trkpt lat="45.880874945924404" lon="11.062676113737695"><ele>269.0</ele><time>2026-05-02T14:17:42.511Z</time></trkpt><trkpt lat="45.88076096086122" lon="11.062746087023283"><ele>265.33333333333337</ele><time>2026-05-02T14:17:43.511Z</time></trkpt><trkpt lat="45.8806280780818" lon="11.062919729495501"><ele>261.6666666666667</ele><time>2026-05-02T14:17:44.511Z</time></trkpt><trkpt lat="45.88049402525994" lon="11.063082630920393"><ele>258.0</ele><time>2026-05-02T14:17:45.511Z</time></trkpt><trkpt lat="45.88036685888187" lon="11.063227858651485"><ele>264.3333333333333</ele><time>2026-05-02T14:17:46.511Z</time></trkpt><trkpt lat="45.880232137206114" lon="11.063337821164367"><ele>270.66666666666663</ele><time>2026-05-02T14:17:47.511Z</time></trkpt><trkpt lat="45.880081334411905" lon="11.063388656387504"><ele>277.0</ele><time>2026-05-02T14:17:48.511Z</time></trkpt><trkpt lat="45.87991644228481" lon="11.063451439720835"><ele>277.0</ele><time>2026-05-02T14:17:49.511Z</time></trkpt><trkpt lat="45.87977446866037" lon="11.063483697020958"><ele>277.0</ele><time>2026-05-02T14:17:50.511Z</time></trkpt><trkpt lat="45.879626306650145" lon="11.06353124302247"><ele>277.0</ele><time>2026-05-02T14:17:51.511Z</time></trkpt><trkpt lat="45.87950370990879" lon="11.063596594819519"><ele>277.0</ele><time>2026-05-02T14:17:52.511Z</time></trkpt><trkpt lat="45.87942169098841" lon="11.063657560890254"><ele>277.0</ele><time>2026-05-02T14:17:53.511Z</time></trkpt><trkpt lat="45.87933961226568" lon="11.063715002613604"><ele>277.0</ele><time>2026-05-02T14:17:54.511Z</time></trkpt><trkpt lat="45.87925944104822" lon="11.063640873346591"><ele>277.0</ele><time>2026-05-02T14:17:55.511Z</time></trkpt><trkpt lat="45.87917548789395" lon="11.06360394809767"><ele>277.0</ele><time>2026-05-02T14:17:56.511Z</time></trkpt><trkpt lat="45.87903497822" lon="11.063542147490464"><ele>277.0</ele><time>2026-05-02T14:17:57.511Z</time></trkpt><trkpt lat="45.87888406113516" lon="11.063499521128412"><ele>277.5</ele><time>2026-05-02T14:17:58.511Z</time></trkpt><trkpt lat="45.878759517282916" lon="11.063418684714636"><ele>278.0</ele><time>2026-05-02T14:17:59.511Z</time></trkpt><trkpt lat="45.87862501568657" lon="11.063380770802759"><ele>278.5</ele><time>2026-05-02T14:18:00.511Z</time></trkpt><trkpt lat="45.878494558622634" lon="11.06341499884131"><ele>279.0</ele><time>2026-05-02T14:18:01.511Z</time></trkpt><trkpt lat="45.878385810216116" lon="11.063507118253726"><ele>279.0</ele><time>2026-05-02T14:18:02.511Z</time></trkpt><trkpt lat="45.87825491900548" lon="11.06359227174089"><ele>279.0</ele><time>2026-05-02T14:18:03.511Z</time></trkpt><trkpt lat="45.878108546323844" lon="11.063614668106556"><ele>279.0</ele><time>2026-05-02T14:18:04.511Z</time></trkpt><trkpt lat="45.877956078124946" lon="11.063587866943736"><ele>279.0</ele><time>2026-05-02T14:18:05.511Z</time></trkpt><trkpt lat="45.87783295529975" lon="11.063624602549508"><ele>279.0</ele><time>2026-05-02T14:18:06.511Z</time></trkpt><trkpt lat="45.877751600656154" lon="11.063737437559707"><ele>279.0</ele><time>2026-05-02T14:18:07.511Z</time></trkpt><trkpt lat="45.87767270325553" lon="11.06390780889085"><ele>279.0</ele><time>2026-05-02T14:18:08.511Z</time></trkpt><trkpt lat="45.87756740681691" lon="11.06403539593578"><ele>279.0</ele><time>2026-05-02T14:18:09.511Z</time></trkpt><trkpt lat="45.87745075969935" lon="11.064159140124081"><ele>281.2</ele><time>2026-05-02T14:18:10.511Z</time></trkpt><trkpt lat="45.877363537733906" lon="11.064269667812887"><ele>283.4</ele><time>2026-05-02T14:18:11.511Z</time></trkpt><trkpt lat="45.87734787048249" lon="11.064361972400265"><ele>285.6</ele><time>2026-05-02T14:18:12.511Z</time></trkpt><trkpt lat="45.87735629778906" lon="11.064462142692824"><ele>287.8</ele><time>2026-05-02T14:18:13.511Z</time></trkpt><trkpt lat="45.877415896860064" lon="11.064552054506613"><ele>290.0</ele><time>2026-05-02T14:18:14.511Z</time></trkpt><trkpt lat="45.87748824399755" lon="11.064680799115173"><ele>290.0</ele><time>2026-05-02T14:18:15.511Z</time></trkpt><trkpt lat="45.87751639365078" lon="11.064833732362047"><ele>290.0</ele><time>2026-05-02T14:18:16.511Z</time></trkpt><trkpt lat="45.87752363414262" lon="11.06494944021711"><ele>290.0</ele><time>2026-05-02T14:18:17.511Z</time></trkpt><trkpt lat="45.877487689891964" lon="11.065031542495415"><ele>290.0</ele><time>2026-05-02T14:18:18.511Z</time></trkpt><trkpt lat="45.87741711278317" lon="11.065140975891733"><ele>290.0</ele><time>2026-05-02T14:18:19.511Z</time></trkpt><trkpt lat="45.87734151582123" lon="11.06528003037032"><ele>295.75</ele><time>2026-05-02T14:18:20.511Z</time></trkpt><trkpt lat="45.877244383106024" lon="11.065381380606027"><ele>301.5</ele><time>2026-05-02T14:18:21.511Z</time></trkpt><trkpt lat="45.87710064351195" lon="11.065392662682452"><ele>307.25</ele><time>2026-05-02T14:18:22.511Z</time></trkpt><trkpt lat="45.876943036610406" lon="11.06551925320801"><ele>313.0</ele><time>2026-05-02T14:18:23.511Z</time></trkpt><trkpt lat="45.87678088598403" lon="11.06565028200733"><ele>314.0</ele><time>2026-05-02T14:18:24.511Z</time></trkpt><trkpt lat="45.8766627370892" lon="11.065827936240238"><ele>315.0</ele><time>2026-05-02T14:18:25.511Z</time></trkpt><trkpt lat="45.87656316434822" lon="11.066000132782902"><ele>316.0</ele><time>2026-05-02T14:18:26.511Z</time></trkpt><trkpt lat="45.87645446740733" lon="11.066122117905499"><ele>316.0</ele><time>2026-05-02T14:18:27.511Z</time></trkpt><trkpt lat="45.87638611766611" lon="11.066185618976707"><ele>316.0</ele><time>2026-05-02T14:18:28.511Z</time></trkpt><trkpt lat="45.87630354697601" lon="11.066188625073615"><ele>316.0</ele><time>2026-05-02T14:18:29.511Z</time></trkpt><trkpt lat="45.876232780181645" lon="11.0660326634422"><ele>316.0</ele><time>2026-05-02T14:18:30.511Z</time></trkpt><trkpt lat="45.87612867536648" lon="11.065931030877975"><ele>316.0</ele><time>2026-05-02T14:18:31.511Z</time></trkpt><trkpt lat="45.87600309664819" lon="11.06588791935118"><ele>313.3333333333333</ele><time>2026-05-02T14:18:32.511Z</time></trkpt><trkpt lat="45.87587020406019" lon="11.06588071323486"><ele>310.6666666666667</ele><time>2026-05-02T14:18:33.511Z</time></trkpt><trkpt lat="45.875718520874926" lon="11.06592663378957"><ele>308.0</ele><time>2026-05-02T14:18:34.511Z</time></trkpt><trkpt lat="45.87555126330281" lon="11.065998947164198"><ele>308.0</ele><time>2026-05-02T14:18:35.511Z</time></trkpt><trkpt lat="45.87540214230802" lon="11.066098500977645"><ele>308.0</ele><time>2026-05-02T14:18:36.511Z</time></trkpt><trkpt lat="45.87527856235882" lon="11.066233948846715"><ele>308.0</ele><time>2026-05-02T14:18:37.511Z</time></trkpt><trkpt lat="45.875172647423064" lon="11.066389380904663"><ele>305.6666666666667</ele><time>2026-05-02T14:18:38.511Z</time></trkpt><trkpt lat="45.87507099584875" lon="11.06655321175286"><ele>303.3333333333333</ele><time>2026-05-02T14:18:39.511Z</time></trkpt><trkpt lat="45.87491816051804" lon="11.066658967218448"><ele>301.0</ele><time>2026-05-02T14:18:40.511Z</time></trkpt><trkpt lat="45.87474931063332" lon="11.066718572968039"><ele>306.0</ele><time>2026-05-02T14:18:41.511Z</time></trkpt><trkpt lat="45.874545802879716" lon="11.066788214234114"><ele>311.0</ele><time>2026-05-02T14:18:42.511Z</time></trkpt><trkpt lat="45.87435567531118" lon="11.066857235341793"><ele>316.0</ele><time>2026-05-02T14:18:43.511Z</time></trkpt><trkpt lat="45.87421879598164" lon="11.066908572301683"><ele>316.0</ele><time>2026-05-02T14:18:44.511Z</time></trkpt><trkpt lat="45.8741048183824" lon="11.066986158055808"><ele>316.0</ele><time>2026-05-02T14:18:45.511Z</time></trkpt><trkpt lat="45.87400443054147" lon="11.06705763411525"><ele>316.0</ele><time>2026-05-02T14:18:46.511Z</time></trkpt><trkpt lat="45.87390239659642" lon="11.067197581275881"><ele>316.0</ele><time>2026-05-02T14:18:47.511Z</time></trkpt><trkpt lat="45.87380086695282" lon="11.067288695308648"><ele>316.0</ele><time>2026-05-02T14:18:48.511Z</time></trkpt><trkpt lat="45.87372555985717" lon="11.067362561285883"><ele>316.0</ele><time>2026-05-02T14:18:49.511Z</time></trkpt><trkpt lat="45.87367751772553" lon="11.067446886041337"><ele>316.0</ele><time>2026-05-02T14:18:50.511Z</time></trkpt><trkpt lat="45.87367507757481" lon="11.06757490280271"><ele>316.0</ele><time>2026-05-02T14:18:51.511Z</time></trkpt><trkpt lat="45.873758726023794" lon="11.067673858853757"><ele>316.0</ele><time>2026-05-02T14:18:52.511Z</time></trkpt><trkpt lat="45.87383234513141" lon="11.067799935925684"><ele>322.66666666666663</ele><time>2026-05-02T14:18:54.511Z</time></trkpt><trkpt lat="45.87385209954406" lon="11.06789093235607"><ele>329.3333333333333</ele><time>2026-05-02T14:18:55.511Z</time></trkpt><trkpt lat="45.87381341403322" lon="11.068008941605866"><ele>336.0</ele><time>2026-05-02T14:18:56.511Z</time></trkpt><trkpt lat="45.87374152708042" lon="11.06804152453668"><ele>342.6666666666667</ele><time>2026-05-02T14:18:57.511Z</time></trkpt><trkpt lat="45.873616596878655" lon="11.068113743733193"><ele>349.33333333333337</ele><time>2026-05-02T14:18:59.511Z</time></trkpt><trkpt lat="45.87354188990359" lon="11.068129368655802"><ele>356.0</ele><time>2026-05-02T14:19:00.511Z</time></trkpt><trkpt lat="45.87345470685975" lon="11.068135661440168"><ele>357.0</ele><time>2026-05-02T14:19:01.511Z</time></trkpt><trkpt lat="45.87335551858993" lon="11.06815535870592"><ele>358.0</ele><time>2026-05-02T14:19:02.511Z</time></trkpt><trkpt lat="45.873271655929535" lon="11.068196517097752"><ele>359.0</ele><time>2026-05-02T14:19:03.511Z</time></trkpt><trkpt lat="45.8731957069341" lon="11.068333433985249"><ele>360.0</ele><time>2026-05-02T14:19:04.511Z</time></trkpt><trkpt lat="45.87309529833046" lon="11.068475951334074"><ele>360.0</ele><time>2026-05-02T14:19:05.511Z</time></trkpt><trkpt lat="45.872976393404606" lon="11.068653739156705"><ele>360.0</ele><time>2026-05-02T14:19:06.511Z</time></trkpt><trkpt lat="45.872907951748005" lon="11.06884197985489"><ele>360.0</ele><time>2026-05-02T14:19:07.511Z</time></trkpt><trkpt lat="45.87284374414198" lon="11.068961572979838"><ele>360.0</ele><time>2026-05-02T14:19:08.511Z</time></trkpt><trkpt lat="45.87275611403631" lon="11.069034988316611"><ele>360.0</ele><time>2026-05-02T14:19:09.511Z</time></trkpt><trkpt lat="45.872644597879976" lon="11.069059089389482"><ele>360.0</ele><time>2026-05-02T14:19:10.511Z</time></trkpt><trkpt lat="45.87253282519212" lon="11.06901779508865"><ele>360.0</ele><time>2026-05-02T14:19:11.511Z</time></trkpt><trkpt lat="45.87240586392256" lon="11.069046911511487"><ele>360.0</ele><time>2026-05-02T14:19:12.511Z</time></trkpt><trkpt lat="45.87231847748848" lon="11.069112504965796"><ele>360.6666666666667</ele><time>2026-05-02T14:19:13.511Z</time></trkpt><trkpt lat="45.87223024052353" lon="11.069338013840513"><ele>361.33333333333337</ele><time>2026-05-02T14:19:14.511Z</time></trkpt><trkpt lat="45.872129095857794" lon="11.069511484762952"><ele>362.0</ele><time>2026-05-02T14:19:15.511Z</time></trkpt><trkpt lat="45.87203104799911" lon="11.069626117193211"><ele>362.0</ele><time>2026-05-02T14:19:16.511Z</time></trkpt><trkpt lat="45.87193276940354" lon="11.069673270590805"><ele>362.0</ele><time>2026-05-02T14:19:17.511Z</time></trkpt><trkpt lat="45.87176339386209" lon="11.06973579295288"><ele>362.0</ele><time>2026-05-02T14:19:18.511Z</time></trkpt><trkpt lat="45.871550235015256" lon="11.069820993579361"><ele>357.25</ele><time>2026-05-02T14:19:19.511Z</time></trkpt><trkpt lat="45.871383089254415" lon="11.06989015225791"><ele>352.5</ele><time>2026-05-02T14:19:20.511Z</time></trkpt><trkpt lat="45.87126418514982" lon="11.069931943064576"><ele>347.75</ele><time>2026-05-02T14:19:21.511Z</time></trkpt><trkpt lat="45.871170261605855" lon="11.069929099533793"><ele>343.0</ele><time>2026-05-02T14:19:22.511Z</time></trkpt><trkpt lat="45.87107525223821" lon="11.069875018093995"><ele>343.0</ele><time>2026-05-02T14:19:23.511Z</time></trkpt><trkpt lat="45.87095885196276" lon="11.06978667717854"><ele>343.0</ele><time>2026-05-02T14:19:24.511Z</time></trkpt><trkpt lat="45.87080007125192" lon="11.069737151739906"><ele>343.0</ele><time>2026-05-02T14:19:25.511Z</time></trkpt><trkpt lat="45.870652025676165" lon="11.069757123737014"><ele>343.0</ele><time>2026-05-02T14:19:26.511Z</time></trkpt><trkpt lat="45.87048767502195" lon="11.069844985447792"><ele>341.66666666666663</ele><time>2026-05-02T14:19:27.511Z</time></trkpt><trkpt lat="45.87031879014471" lon="11.069832051836885"><ele>340.3333333333333</ele><time>2026-05-02T14:19:28.511Z</time></trkpt><trkpt lat="45.870123167458964" lon="11.069833702577675"><ele>339.0</ele><time>2026-05-02T14:19:29.511Z</time></trkpt><trkpt lat="45.86994395829638" lon="11.069868256564686"><ele>337.5</ele><time>2026-05-02T14:19:30.511Z</time></trkpt><trkpt lat="45.86980390859403" lon="11.069914630665718"><ele>336.0</ele><time>2026-05-02T14:19:31.511Z</time></trkpt><trkpt lat="45.869693030979285" lon="11.070010423464243"><ele>334.5</ele><time>2026-05-02T14:19:32.511Z</time></trkpt><trkpt lat="45.86960296377688" lon="11.070138421826499"><ele>333.0</ele><time>2026-05-02T14:19:33.511Z</time></trkpt><trkpt lat="45.86949925028452" lon="11.070266380391262"><ele>343.2</ele><time>2026-05-02T14:19:34.511Z</time></trkpt><trkpt lat="45.86938215785215" lon="11.070349832751258"><ele>353.4</ele><time>2026-05-02T14:19:35.511Z</time></trkpt><trkpt lat="45.869284749441626" lon="11.070383561480716"><ele>363.59999999999997</ele><time>2026-05-02T14:19:36.511Z</time></trkpt><trkpt lat="45.86919845953738" lon="11.070409962324474"><ele>373.79999999999995</ele><time>2026-05-02T14:19:37.511Z</time></trkpt><trkpt lat="45.869097817815614" lon="11.070304019197511"><ele>384.0</ele><time>2026-05-02T14:19:39.511Z</time></trkpt><trkpt lat="45.86905381750131" lon="11.070209486798037"><ele>370.6666666666667</ele><time>2026-05-02T14:19:40.511Z</time></trkpt><trkpt lat="45.86890426929575" lon="11.069937174776957"><ele>357.33333333333337</ele><time>2026-05-02T14:19:41.511Z</time></trkpt><trkpt lat="45.86879760540853" lon="11.069749327470223"><ele>344.0</ele><time>2026-05-02T14:19:42.511Z</time></trkpt><trkpt lat="45.86870674132832" lon="11.069623080996172"><ele>344.0</ele><time>2026-05-02T14:19:43.511Z</time></trkpt><trkpt lat="45.86859717454429" lon="11.069543843405652"><ele>344.0</ele><time>2026-05-02T14:19:44.511Z</time></trkpt><trkpt lat="45.868479272805295" lon="11.069504560990934"><ele>344.0</ele><time>2026-05-02T14:19:45.511Z</time></trkpt><trkpt lat="45.8683606418644" lon="11.069462552480141"><ele>344.0</ele><time>2026-05-02T14:19:46.511Z</time></trkpt><trkpt lat="45.868255192079125" lon="11.069425512124825"><ele>348.4</ele><time>2026-05-02T14:19:47.511Z</time></trkpt><trkpt lat="45.8681504285506" lon="11.069381950881818"><ele>352.79999999999995</ele><time>2026-05-02T14:19:48.511Z</time></trkpt><trkpt lat="45.86806596212009" lon="11.069348203194018"><ele>357.20000000000005</ele><time>2026-05-02T14:19:49.511Z</time></trkpt><trkpt lat="45.86799593526447" lon="11.069321042952199"><ele>361.6</ele><time>2026-05-02T14:19:50.511Z</time></trkpt><trkpt lat="45.86792040222801" lon="11.069336874629462"><ele>366.0</ele><time>2026-05-02T14:19:51.511Z</time></trkpt><trkpt lat="45.86785402314692" lon="11.069472393715943"><ele>366.0</ele><time>2026-05-02T14:19:52.511Z</time></trkpt><trkpt lat="45.867859645992745" lon="11.069648290149907"><ele>366.0</ele><time>2026-05-02T14:19:53.511Z</time></trkpt><trkpt lat="45.867860988948266" lon="11.069804874953974"><ele>366.0</ele><time>2026-05-02T14:19:54.511Z</time></trkpt><trkpt lat="45.867823786048376" lon="11.069929043306578"><ele>366.0</ele><time>2026-05-02T14:19:55.511Z</time></trkpt><trkpt lat="45.86774339196385" lon="11.069990044541534"><ele>366.0</ele><time>2026-05-02T14:19:56.511Z</time></trkpt><trkpt lat="45.86764063549449" lon="11.070029247396123"><ele>372.33333333333337</ele><time>2026-05-02T14:19:57.511Z</time></trkpt><trkpt lat="45.86745473081692" lon="11.070121669064337"><ele>378.6666666666667</ele><time>2026-05-02T14:19:58.511Z</time></trkpt><trkpt lat="45.86730398962995" lon="11.070177037438212"><ele>385.0</ele><time>2026-05-02T14:19:59.511Z</time></trkpt><trkpt lat="45.867178082104545" lon="11.070196245162137"><ele>385.0</ele><time>2026-05-02T14:20:00.511Z</time></trkpt><trkpt lat="45.86701330815755" lon="11.070184796193738"><ele>385.0</ele><time>2026-05-02T14:20:01.511Z</time></trkpt><trkpt lat="45.866904247286996" lon="11.070223825679324"><ele>385.0</ele><time>2026-05-02T14:20:02.511Z</time></trkpt><trkpt lat="45.86680999363446" lon="11.070316984612994"><ele>385.0</ele><time>2026-05-02T14:20:03.511Z</time></trkpt><trkpt lat="45.86672988419193" lon="11.070456182882046"><ele>378.25</ele><time>2026-05-02T14:20:04.511Z</time></trkpt><trkpt lat="45.86662007855948" lon="11.070520703796543"><ele>371.5</ele><time>2026-05-02T14:20:05.511Z</time></trkpt><trkpt lat="45.8664950352265" lon="11.0705121887086"><ele>364.75</ele><time>2026-05-02T14:20:06.511Z</time></trkpt><trkpt lat="45.86636284370824" lon="11.070496874339836"><ele>358.0</ele><time>2026-05-02T14:20:07.511Z</time></trkpt><trkpt lat="45.86622800216933" lon="11.07048409879982"><ele>358.0</ele><time>2026-05-02T14:20:08.511Z</time></trkpt><trkpt lat="45.86611082625413" lon="11.07048838676187"><ele>358.0</ele><time>2026-05-02T14:20:09.511Z</time></trkpt><trkpt lat="45.866009701149316" lon="11.070535941430665"><ele>358.0</ele><time>2026-05-02T14:20:10.511Z</time></trkpt><trkpt lat="45.86593625061466" lon="11.07067737740194"><ele>358.0</ele><time>2026-05-02T14:20:11.511Z</time></trkpt><trkpt lat="45.86584317967537" lon="11.07078944665355"><ele>366.0</ele><time>2026-05-02T14:20:12.511Z</time></trkpt><trkpt lat="45.865714323147074" lon="11.070832349772957"><ele>374.0</ele><time>2026-05-02T14:20:13.511Z</time></trkpt><trkpt lat="45.86561088958988" lon="11.07079139379853"><ele>382.0</ele><time>2026-05-02T14:20:14.511Z</time></trkpt><trkpt lat="45.865484667861494" lon="11.070803401451087"><ele>390.0</ele><time>2026-05-02T14:20:15.511Z</time></trkpt><trkpt lat="45.865377841663" lon="11.070847603723077"><ele>390.0</ele><time>2026-05-02T14:20:16.511Z</time></trkpt><trkpt lat="45.86528196539321" lon="11.070885628239376"><ele>390.0</ele><time>2026-05-02T14:20:17.511Z</time></trkpt><trkpt lat="45.86517550368667" lon="11.070928265290906"><ele>390.0</ele><time>2026-05-02T14:20:18.511Z</time></trkpt><trkpt lat="45.865100629808225" lon="11.071005724156505"><ele>390.0</ele><time>2026-05-02T14:20:19.511Z</time></trkpt><trkpt lat="45.86510408064056" lon="11.07119554633663"><ele>390.0</ele><time>2026-05-02T14:20:20.511Z</time></trkpt><trkpt lat="45.865051485503585" lon="11.071317105034035"><ele>383.75</ele><time>2026-05-02T14:20:21.511Z</time></trkpt><trkpt lat="45.864982757148" lon="11.071415798379984"><ele>377.5</ele><time>2026-05-02T14:20:22.511Z</time></trkpt><trkpt lat="45.86487050486865" lon="11.071422862598093"><ele>371.25</ele><time>2026-05-02T14:20:23.511Z</time></trkpt><trkpt lat="45.86475444340549" lon="11.071372514109639"><ele>365.0</ele><time>2026-05-02T14:20:24.511Z</time></trkpt><trkpt lat="45.864607685752" lon="11.071335324528528"><ele>365.0</ele><time>2026-05-02T14:20:25.511Z</time></trkpt><trkpt lat="45.86441675762815" lon="11.071292376669897"><ele>365.0</ele><time>2026-05-02T14:20:26.511Z</time></trkpt><trkpt lat="45.86421336631837" lon="11.07133645259757"><ele>365.0</ele><time>2026-05-02T14:20:27.511Z</time></trkpt><trkpt lat="45.86399111018415" lon="11.071360963426372"><ele>361.0</ele><time>2026-05-02T14:20:28.511Z</time></trkpt><trkpt lat="45.863808516067095" lon="11.071362557055954"><ele>357.0</ele><time>2026-05-02T14:20:29.511Z</time></trkpt><trkpt lat="45.86363299749797" lon="11.07135984255881"><ele>353.0</ele><time>2026-05-02T14:20:30.511Z</time></trkpt><trkpt lat="45.863483736351" lon="11.071332231695893"><ele>355.33333333333337</ele><time>2026-05-02T14:20:31.511Z</time></trkpt><trkpt lat="45.86335081149539" lon="11.071250924946265"><ele>357.6666666666667</ele><time>2026-05-02T14:20:32.511Z</time></trkpt><trkpt lat="45.863189941436964" lon="11.071178263534769"><ele>360.0</ele><time>2026-05-02T14:20:33.511Z</time></trkpt><trkpt lat="45.86300449383309" lon="11.07115449769753"><ele>360.0</ele><time>2026-05-02T14:20:34.511Z</time></trkpt><trkpt lat="45.86283379646046" lon="11.071150786890335"><ele>360.0</ele><time>2026-05-02T14:20:35.511Z</time></trkpt><trkpt lat="45.862689972483295" lon="11.071147297264375"><ele>360.0</ele><time>2026-05-02T14:20:36.511Z</time></trkpt><trkpt lat="45.86254812945089" lon="11.071141269302327"><ele>360.0</ele><time>2026-05-02T14:20:37.511Z</time></trkpt><trkpt lat="45.86245505017658" lon="11.071137328435489"><ele>360.0</ele><time>2026-05-02T14:20:38.511Z</time></trkpt><trkpt lat="45.86233718483052" lon="11.071158007743783"><ele>360.0</ele><time>2026-05-02T14:20:39.511Z</time></trkpt><trkpt lat="45.862238941953876" lon="11.07124922374991"><ele>360.0</ele><time>2026-05-02T14:20:40.511Z</time></trkpt><trkpt lat="45.862168264574706" lon="11.071371954831198"><ele>360.0</ele><time>2026-05-02T14:20:41.511Z</time></trkpt><trkpt lat="45.86208130085734" lon="11.071436212514689"><ele>360.0</ele><time>2026-05-02T14:20:42.511Z</time></trkpt><trkpt lat="45.861970917686456" lon="11.07150088223186"><ele>360.0</ele><time>2026-05-02T14:20:43.511Z</time></trkpt><trkpt lat="45.86187411521054" lon="11.07152410442229"><ele>360.0</ele><time>2026-05-02T14:20:44.511Z</time></trkpt><trkpt lat="45.86175827617983" lon="11.071564884513057"><ele>360.0</ele><time>2026-05-02T14:20:45.511Z</time></trkpt><trkpt lat="45.86165288731603" lon="11.07166599631596"><ele>364.4</ele><time>2026-05-02T14:20:46.511Z</time></trkpt><trkpt lat="45.861593853190556" lon="11.071779406094338"><ele>368.8</ele><time>2026-05-02T14:20:47.511Z</time></trkpt><trkpt lat="45.861582916675104" lon="11.071946356613342"><ele>373.20000000000005</ele><time>2026-05-02T14:20:48.511Z</time></trkpt><trkpt lat="45.861537906332494" lon="11.072074509673461"><ele>377.6</ele><time>2026-05-02T14:20:49.511Z</time></trkpt><trkpt lat="45.86150258202239" lon="11.072218744423102"><ele>382.0</ele><time>2026-05-02T14:20:50.511Z</time></trkpt><trkpt lat="45.861441057598796" lon="11.072299877339026"><ele>382.0</ele><time>2026-05-02T14:20:51.511Z</time></trkpt><trkpt lat="45.8613616131332" lon="11.072363671849915"><ele>382.0</ele><time>2026-05-02T14:20:52.511Z</time></trkpt><trkpt lat="45.8612450669505" lon="11.072440179802674"><ele>382.0</ele><time>2026-05-02T14:20:53.511Z</time></trkpt><trkpt lat="45.8610471770254" lon="11.072422856089336"><ele>382.0</ele><time>2026-05-02T14:20:54.511Z</time></trkpt><trkpt lat="45.86086750848861" lon="11.072423190423248"><ele>385.25</ele><time>2026-05-02T14:20:55.511Z</time></trkpt><trkpt lat="45.86069023984855" lon="11.072455061824098"><ele>388.5</ele><time>2026-05-02T14:20:56.511Z</time></trkpt><trkpt lat="45.860552413963276" lon="11.072453786048124"><ele>391.75</ele><time>2026-05-02T14:20:57.511Z</time></trkpt><trkpt lat="45.86044032699655" lon="11.072479444446452"><ele>395.0</ele><time>2026-05-02T14:20:58.511Z</time></trkpt><trkpt lat="45.86035667312208" lon="11.07253653818549"><ele>395.0</ele><time>2026-05-02T14:20:59.511Z</time></trkpt><trkpt lat="45.86030892448004" lon="11.072630767897358"><ele>395.0</ele><time>2026-05-02T14:21:00.511Z</time></trkpt><trkpt lat="45.86031142164185" lon="11.072859109709299"><ele>395.0</ele><time>2026-05-02T14:21:01.511Z</time></trkpt><trkpt lat="45.86030012569698" lon="11.073063721594146"><ele>395.0</ele><time>2026-05-02T14:21:02.511Z</time></trkpt><trkpt lat="45.860319664354144" lon="11.073264697436555"><ele>401.2</ele><time>2026-05-02T14:21:03.511Z</time></trkpt><trkpt lat="45.86023608700016" lon="11.073418213782977"><ele>407.4</ele><time>2026-05-02T14:21:04.511Z</time></trkpt><trkpt lat="45.86021220299317" lon="11.073526605984345"><ele>413.6</ele><time>2026-05-02T14:21:05.511Z</time></trkpt><trkpt lat="45.860206933056745" lon="11.073677231254583"><ele>419.8</ele><time>2026-05-02T14:21:06.511Z</time></trkpt><trkpt lat="45.860230633008406" lon="11.073803509433022"><ele>426.0</ele><time>2026-05-02T14:21:07.511Z</time></trkpt><trkpt lat="45.86025468726701" lon="11.073974386243004"><ele>429.75</ele><time>2026-05-02T14:21:08.511Z</time></trkpt><trkpt lat="45.860264476150824" lon="11.074163291179904"><ele>433.5</ele><time>2026-05-02T14:21:09.511Z</time></trkpt><trkpt lat="45.860289599002485" lon="11.074382521353602"><ele>437.25</ele><time>2026-05-02T14:21:10.511Z</time></trkpt><trkpt lat="45.86031463264042" lon="11.074580874974112"><ele>441.0</ele><time>2026-05-02T14:21:11.511Z</time></trkpt><trkpt lat="45.86033629184272" lon="11.074759959529775"><ele>441.0</ele><time>2026-05-02T14:21:12.511Z</time></trkpt><trkpt lat="45.86032549655299" lon="11.074932200536791"><ele>441.0</ele><time>2026-05-02T14:21:13.511Z</time></trkpt><trkpt lat="45.860319500082625" lon="11.075108603258899"><ele>441.0</ele><time>2026-05-02T14:21:14.511Z</time></trkpt><trkpt lat="45.86032082210902" lon="11.075241728206043"><ele>441.0</ele><time>2026-05-02T14:21:15.511Z</time></trkpt><trkpt lat="45.86033052568248" lon="11.075403141151659"><ele>441.0</ele><time>2026-05-02T14:21:16.511Z</time></trkpt><trkpt lat="45.86035655058903" lon="11.07558098999672"><ele>439.5</ele><time>2026-05-02T14:21:17.511Z</time></trkpt><trkpt lat="45.86041115505042" lon="11.07573648922927"><ele>438.0</ele><time>2026-05-02T14:21:18.511Z</time></trkpt><trkpt lat="45.86043706865691" lon="11.075907920681612"><ele>436.5</ele><time>2026-05-02T14:21:19.511Z</time></trkpt><trkpt lat="45.860522000586485" lon="11.076050603227598"><ele>435.0</ele><time>2026-05-02T14:21:20.511Z</time></trkpt><trkpt lat="45.86053340959259" lon="11.076226823329751"><ele>434.8</ele><time>2026-05-02T14:21:21.511Z</time></trkpt><trkpt lat="45.86054430023841" lon="11.076379419062212"><ele>434.6</ele><time>2026-05-02T14:21:22.511Z</time></trkpt><trkpt lat="45.860522950295" lon="11.076508406174622"><ele>434.4</ele><time>2026-05-02T14:21:23.511Z</time></trkpt><trkpt lat="45.860517122610034" lon="11.076603610692471"><ele>434.2</ele><time>2026-05-02T14:21:24.511Z</time></trkpt><trkpt lat="45.860408002257785" lon="11.076632381900284"><ele>434.0</ele><time>2026-05-02T14:21:25.511Z</time></trkpt><trkpt lat="45.86030751402363" lon="11.076646883088694"><ele>434.0</ele><time>2026-05-02T14:21:26.511Z</time></trkpt><trkpt lat="45.86022715934855" lon="11.07668964703279"><ele>434.0</ele><time>2026-05-02T14:21:27.511Z</time></trkpt><trkpt lat="45.86015017467984" lon="11.076586541514153"><ele>434.0</ele><time>2026-05-02T14:21:28.511Z</time></trkpt><trkpt lat="45.859997910483834" lon="11.076391904050606"><ele>434.0</ele><time>2026-05-02T14:21:29.511Z</time></trkpt><trkpt lat="45.85983883048958" lon="11.076332776164445"><ele>423.0</ele><time>2026-05-02T14:21:30.511Z</time></trkpt><trkpt lat="45.85965737785618" lon="11.07630441343593"><ele>412.0</ele><time>2026-05-02T14:21:31.511Z</time></trkpt><trkpt lat="45.8594522250788" lon="11.076257387105155"><ele>401.0</ele><time>2026-05-02T14:21:32.511Z</time></trkpt><trkpt lat="45.85928799156785" lon="11.07618763131432"><ele>402.0</ele><time>2026-05-02T14:21:33.511Z</time></trkpt><trkpt lat="45.85914762596895" lon="11.076110356800791"><ele>403.0</ele><time>2026-05-02T14:21:34.511Z</time></trkpt><trkpt lat="45.85902153069109" lon="11.076044074599748"><ele>404.0</ele><time>2026-05-02T14:21:35.511Z</time></trkpt><trkpt lat="45.858943132366406" lon="11.076019863224628"><ele>405.0</ele><time>2026-05-02T14:21:36.511Z</time></trkpt><trkpt lat="45.85882761890967" lon="11.07605593849365"><ele>405.0</ele><time>2026-05-02T14:21:37.511Z</time></trkpt><trkpt lat="45.8587352728114" lon="11.076016632804293"><ele>405.0</ele><time>2026-05-02T14:21:38.511Z</time></trkpt><trkpt lat="45.858645423796204" lon="11.07595262233692"><ele>405.0</ele><time>2026-05-02T14:21:39.511Z</time></trkpt><trkpt lat="45.85859297042345" lon="11.075726424773881"><ele>405.0</ele><time>2026-05-02T14:21:40.511Z</time></trkpt><trkpt lat="45.858479901844845" lon="11.075498966473283"><ele>406.25</ele><time>2026-05-02T14:21:41.511Z</time></trkpt><trkpt lat="45.85832847774148" lon="11.075381339063266"><ele>407.5</ele><time>2026-05-02T14:21:42.511Z</time></trkpt><trkpt lat="45.858230572976495" lon="11.07524170032156"><ele>408.75</ele><time>2026-05-02T14:21:43.511Z</time></trkpt><trkpt lat="45.85814596235875" lon="11.075096628309518"><ele>410.0</ele><time>2026-05-02T14:21:44.511Z</time></trkpt><trkpt lat="45.858061450105915" lon="11.074998066404822"><ele>410.0</ele><time>2026-05-02T14:21:45.511Z</time></trkpt><trkpt lat="45.857935947227425" lon="11.074942319599103"><ele>410.0</ele><time>2026-05-02T14:21:46.511Z</time></trkpt><trkpt lat="45.85778967110804" lon="11.074954131903256"><ele>410.0</ele><time>2026-05-02T14:21:47.511Z</time></trkpt><trkpt lat="45.857674459223084" lon="11.074898301396814"><ele>410.0</ele><time>2026-05-02T14:21:48.511Z</time></trkpt><trkpt lat="45.8576317761382" lon="11.074740067573389"><ele>418.0</ele><time>2026-05-02T14:21:49.511Z</time></trkpt><trkpt lat="45.85756402573717" lon="11.074598496944084"><ele>426.0</ele><time>2026-05-02T14:21:50.511Z</time></trkpt><trkpt lat="45.85740306402624" lon="11.074310244085195"><ele>434.0</ele><time>2026-05-02T14:21:51.511Z</time></trkpt><trkpt lat="45.85731567351547" lon="11.074147502413158"><ele>431.4</ele><time>2026-05-02T14:21:52.511Z</time></trkpt><trkpt lat="45.85725375352201" lon="11.074011744605544"><ele>428.79999999999995</ele><time>2026-05-02T14:21:53.511Z</time></trkpt><trkpt lat="45.85721182829813" lon="11.073862692587692"><ele>426.20000000000005</ele><time>2026-05-02T14:21:54.511Z</time></trkpt><trkpt lat="45.85723477688309" lon="11.073770942849903"><ele>423.6</ele><time>2026-05-02T14:21:55.511Z</time></trkpt><trkpt lat="45.85727982317796" lon="11.07363824426849"><ele>421.0</ele><time>2026-05-02T14:21:56.511Z</time></trkpt><trkpt lat="45.85732167921383" lon="11.073446400518687"><ele>416.25</ele><time>2026-05-02T14:21:57.511Z</time></trkpt><trkpt lat="45.85732222001032" lon="11.073249856560237"><ele>411.5</ele><time>2026-05-02T14:21:58.511Z</time></trkpt><trkpt lat="45.857272236859465" lon="11.073089307373072"><ele>406.75</ele><time>2026-05-02T14:21:59.511Z</time></trkpt><trkpt lat="45.857208162861816" lon="11.072972221790566"><ele>402.0</ele><time>2026-05-02T14:22:00.511Z</time></trkpt><trkpt lat="45.85710710582514" lon="11.072883510275151"><ele>402.0</ele><time>2026-05-02T14:22:01.511Z</time></trkpt><trkpt lat="45.85696458641568" lon="11.072843270233294"><ele>402.0</ele><time>2026-05-02T14:22:02.511Z</time></trkpt><trkpt lat="45.85685901944946" lon="11.072762750977619"><ele>402.0</ele><time>2026-05-02T14:22:03.511Z</time></trkpt><trkpt lat="45.85668925413124" lon="11.07277465936549"><ele>402.0</ele><time>2026-05-02T14:22:04.511Z</time></trkpt><trkpt lat="45.85653231005121" lon="11.072777656021763"><ele>412.0</ele><time>2026-05-02T14:22:05.511Z</time></trkpt><trkpt lat="45.856363060693425" lon="11.072867581538517"><ele>422.0</ele><time>2026-05-02T14:22:06.511Z</time></trkpt><trkpt lat="45.85618464755781" lon="11.073001750528942"><ele>432.0</ele><time>2026-05-02T14:22:07.511Z</time></trkpt><trkpt lat="45.85597243217887" lon="11.0730656458375"><ele>429.66666666666663</ele><time>2026-05-02T14:22:08.511Z</time></trkpt><trkpt lat="45.85575604327027" lon="11.073205182542116"><ele>427.3333333333333</ele><time>2026-05-02T14:22:09.511Z</time></trkpt><trkpt lat="45.85557663024462" lon="11.073296003539458"><ele>425.0</ele><time>2026-05-02T14:22:10.511Z</time></trkpt><trkpt lat="45.85540738813798" lon="11.073415020213575"><ele>436.66666666666663</ele><time>2026-05-02T14:22:11.511Z</time></trkpt><trkpt lat="45.85525539022631" lon="11.073500437933557"><ele>448.33333333333337</ele><time>2026-05-02T14:22:12.511Z</time></trkpt><trkpt lat="45.85511140029872" lon="11.073567935480858"><ele>460.0</ele><time>2026-05-02T14:22:13.511Z</time></trkpt><trkpt lat="45.85495384082911" lon="11.073548727208658"><ele>460.0</ele><time>2026-05-02T14:22:14.511Z</time></trkpt><trkpt lat="45.85474835257244" lon="11.073542320842437"><ele>460.0</ele><time>2026-05-02T14:22:15.511Z</time></trkpt><trkpt lat="45.85455107713163" lon="11.073541321850822"><ele>460.0</ele><time>2026-05-02T14:22:16.511Z</time></trkpt><trkpt lat="45.854386253045234" lon="11.07351304913566"><ele>463.0</ele><time>2026-05-02T14:22:17.511Z</time></trkpt><trkpt lat="45.85423955905808" lon="11.073416084259359"><ele>466.0</ele><time>2026-05-02T14:22:18.511Z</time></trkpt><trkpt lat="45.854103061397836" lon="11.073369399883168"><ele>469.0</ele><time>2026-05-02T14:22:19.511Z</time></trkpt><trkpt lat="45.85395931572761" lon="11.073342441860179"><ele>472.0</ele><time>2026-05-02T14:22:20.511Z</time></trkpt><trkpt lat="45.85380199182784" lon="11.073348252951575"><ele>472.0</ele><time>2026-05-02T14:22:21.511Z</time></trkpt><trkpt lat="45.853654942050504" lon="11.073372486659895"><ele>472.0</ele><time>2026-05-02T14:22:22.511Z</time></trkpt><trkpt lat="45.853540310056914" lon="11.073459508346964"><ele>472.0</ele><time>2026-05-02T14:22:23.511Z</time></trkpt><trkpt lat="45.85345905926495" lon="11.073692431956871"><ele>470.0</ele><time>2026-05-02T14:22:24.511Z</time></trkpt><trkpt lat="45.85332464205072" lon="11.073822081679454"><ele>468.0</ele><time>2026-05-02T14:22:25.511Z</time></trkpt><trkpt lat="45.85318069044614" lon="11.073888667424258"><ele>466.0</ele><time>2026-05-02T14:22:26.511Z</time></trkpt><trkpt lat="45.85301225608338" lon="11.073953462749694"><ele>466.0</ele><time>2026-05-02T14:22:27.511Z</time></trkpt><trkpt lat="45.852900420741406" lon="11.073987219482062"><ele>466.0</ele><time>2026-05-02T14:22:28.511Z</time></trkpt><trkpt lat="45.85281810239043" lon="11.073989681262532"><ele>466.0</ele><time>2026-05-02T14:22:29.511Z</time></trkpt><trkpt lat="45.85274696328729" lon="11.073902025824806"><ele>466.0</ele><time>2026-05-02T14:22:31.511Z</time></trkpt><trkpt lat="45.85271836827302" lon="11.073732957104507"><ele>466.0</ele><time>2026-05-02T14:22:32.511Z</time></trkpt><trkpt lat="45.85261606546662" lon="11.073606487126815"><ele>461.75</ele><time>2026-05-02T14:22:33.511Z</time></trkpt><trkpt lat="45.85247465026556" lon="11.073536467583239"><ele>457.5</ele><time>2026-05-02T14:22:34.511Z</time></trkpt><trkpt lat="45.852350505942084" lon="11.073471272619884"><ele>453.25</ele><time>2026-05-02T14:22:35.511Z</time></trkpt><trkpt lat="45.85224688709135" lon="11.073388215659586"><ele>449.0</ele><time>2026-05-02T14:22:36.511Z</time></trkpt><trkpt lat="45.85219480467525" lon="11.073223989895778"><ele>449.0</ele><time>2026-05-02T14:22:37.511Z</time></trkpt><trkpt lat="45.85210152358546" lon="11.07309076741425"><ele>449.0</ele><time>2026-05-02T14:22:38.511Z</time></trkpt><trkpt lat="45.851963914478695" lon="11.072957400625045"><ele>449.0</ele><time>2026-05-02T14:22:39.511Z</time></trkpt><trkpt lat="45.85183494608462" lon="11.072843539796724"><ele>449.0</ele><time>2026-05-02T14:22:40.511Z</time></trkpt><trkpt lat="45.851717907922165" lon="11.072770451847207"><ele>457.75</ele><time>2026-05-02T14:22:41.511Z</time></trkpt><trkpt lat="45.8516251991329" lon="11.072739609620163"><ele>466.5</ele><time>2026-05-02T14:22:42.511Z</time></trkpt><trkpt lat="45.851510147890046" lon="11.072755254584266"><ele>475.25</ele><time>2026-05-02T14:22:43.511Z</time></trkpt><trkpt lat="45.851377028059495" lon="11.072799047934135"><ele>484.0</ele><time>2026-05-02T14:22:44.511Z</time></trkpt><trkpt lat="45.85123046855615" lon="11.072878512647192"><ele>484.0</ele><time>2026-05-02T14:22:45.511Z</time></trkpt><trkpt lat="45.85107482795005" lon="11.072957757247897"><ele>484.0</ele><time>2026-05-02T14:22:46.511Z</time></trkpt><trkpt lat="45.85090868920739" lon="11.07304572610134"><ele>484.0</ele><time>2026-05-02T14:22:47.511Z</time></trkpt><trkpt lat="45.85074888685699" lon="11.073175135560005"><ele>485.5</ele><time>2026-05-02T14:22:48.511Z</time></trkpt><trkpt lat="45.85060306794395" lon="11.073254210572953"><ele>487.0</ele><time>2026-05-02T14:22:49.511Z</time></trkpt><trkpt lat="45.85047576679812" lon="11.073260847792389"><ele>488.5</ele><time>2026-05-02T14:22:50.511Z</time></trkpt><trkpt lat="45.85035610239864" lon="11.073241934393305"><ele>490.0</ele><time>2026-05-02T14:22:51.511Z</time></trkpt><trkpt lat="45.85023898890611" lon="11.073151404611773"><ele>499.33333333333337</ele><time>2026-05-02T14:22:52.511Z</time></trkpt><trkpt lat="45.85008391009009" lon="11.07303505623064"><ele>508.66666666666663</ele><time>2026-05-02T14:22:53.511Z</time></trkpt><trkpt lat="45.849945187459284" lon="11.072933696715333"><ele>518.0</ele><time>2026-05-02T14:22:54.511Z</time></trkpt><trkpt lat="45.84983899552207" lon="11.072843134344328"><ele>518.0</ele><time>2026-05-02T14:22:55.511Z</time></trkpt><trkpt lat="45.84975682786078" lon="11.072748603842427"><ele>518.0</ele><time>2026-05-02T14:22:56.511Z</time></trkpt><trkpt lat="45.84971677764649" lon="11.072616057772224"><ele>518.0</ele><time>2026-05-02T14:22:57.511Z</time></trkpt><trkpt lat="45.849670096284505" lon="11.07239085334635"><ele>518.0</ele><time>2026-05-02T14:22:58.511Z</time></trkpt><trkpt lat="45.84962364948428" lon="11.07225735789536"><ele>523.0</ele><time>2026-05-02T14:22:59.511Z</time></trkpt><trkpt lat="45.84954455326287" lon="11.07216680860767"><ele>528.0</ele><time>2026-05-02T14:23:00.511Z</time></trkpt><trkpt lat="45.84942937696432" lon="11.072176817637065"><ele>533.0</ele><time>2026-05-02T14:23:01.511Z</time></trkpt><trkpt lat="45.84930665084847" lon="11.07230958256698"><ele>538.0</ele><time>2026-05-02T14:23:02.511Z</time></trkpt><trkpt lat="45.84920347030159" lon="11.07245694862483"><ele>538.0</ele><time>2026-05-02T14:23:03.511Z</time></trkpt><trkpt lat="45.84911364216322" lon="11.072621997595752"><ele>538.0</ele><time>2026-05-02T14:23:04.511Z</time></trkpt><trkpt lat="45.84898115310429" lon="11.072679423411545"><ele>538.0</ele><time>2026-05-02T14:23:05.511Z</time></trkpt><trkpt lat="45.8488317855002" lon="11.07268849845821"><ele>538.0</ele><time>2026-05-02T14:23:06.511Z</time></trkpt><trkpt lat="45.84869618727451" lon="11.072643965614029"><ele>538.0</ele><time>2026-05-02T14:23:07.511Z</time></trkpt><trkpt lat="45.848496905851505" lon="11.072543752584817"><ele>538.0</ele><time>2026-05-02T14:23:08.511Z</time></trkpt><trkpt lat="45.84830283564693" lon="11.072476145591494"><ele>538.0</ele><time>2026-05-02T14:23:09.511Z</time></trkpt><trkpt lat="45.848134177221276" lon="11.072452671286067"><ele>538.25</ele><time>2026-05-02T14:23:10.511Z</time></trkpt><trkpt lat="45.84798568527659" lon="11.072432271176588"><ele>538.5</ele><time>2026-05-02T14:23:11.511Z</time></trkpt><trkpt lat="45.847831233257324" lon="11.07244554797129"><ele>538.75</ele><time>2026-05-02T14:23:12.511Z</time></trkpt><trkpt lat="45.84768793511802" lon="11.072467795789104"><ele>539.0</ele><time>2026-05-02T14:23:13.511Z</time></trkpt><trkpt lat="45.8475551781931" lon="11.072493788103184"><ele>539.0</ele><time>2026-05-02T14:23:14.511Z</time></trkpt><trkpt lat="45.847431368274684" lon="11.072536779922775"><ele>539.0</ele><time>2026-05-02T14:23:15.511Z</time></trkpt><trkpt lat="45.84732861131117" lon="11.072636369361335"><ele>539.0</ele><time>2026-05-02T14:23:16.511Z</time></trkpt><trkpt lat="45.8472561066676" lon="11.072770122944785"><ele>539.0</ele><time>2026-05-02T14:23:17.511Z</time></trkpt><trkpt lat="45.847206311773895" lon="11.072920573546401"><ele>539.0</ele><time>2026-05-02T14:23:18.511Z</time></trkpt><trkpt lat="45.84719134178372" lon="11.073094863147482"><ele>539.0</ele><time>2026-05-02T14:23:19.511Z</time></trkpt><trkpt lat="45.84721060197408" lon="11.07328837422434"><ele>539.0</ele><time>2026-05-02T14:23:20.511Z</time></trkpt><trkpt lat="45.84723955636182" lon="11.073468846747897"><ele>539.0</ele><time>2026-05-02T14:23:21.511Z</time></trkpt><trkpt lat="45.84717451814668" lon="11.073616061951071"><ele>546.0</ele><time>2026-05-02T14:23:22.511Z</time></trkpt><trkpt lat="45.84710243105316" lon="11.073819672943658"><ele>553.0</ele><time>2026-05-02T14:23:23.511Z</time></trkpt><trkpt lat="45.847032282628106" lon="11.074015464905736"><ele>560.0</ele><time>2026-05-02T14:23:24.511Z</time></trkpt><trkpt lat="45.84694391960943" lon="11.074135075121252"><ele>567.0</ele><time>2026-05-02T14:23:25.511Z</time></trkpt><trkpt lat="45.846845211114456" lon="11.074204118014384"><ele>568.3333333333334</ele><time>2026-05-02T14:23:26.511Z</time></trkpt><trkpt lat="45.84671876833813" lon="11.074203268858703"><ele>569.6666666666667</ele><time>2026-05-02T14:23:27.511Z</time></trkpt><trkpt lat="45.84652843444227" lon="11.07423585495051"><ele>571.0</ele><time>2026-05-02T14:23:28.511Z</time></trkpt><trkpt lat="45.84634954889001" lon="11.074270301372911"><ele>571.0</ele><time>2026-05-02T14:23:29.511Z</time></trkpt><trkpt lat="45.84613907683428" lon="11.074310827440387"><ele>571.0</ele><time>2026-05-02T14:23:30.511Z</time></trkpt><trkpt lat="45.84593819921835" lon="11.074349293241971"><ele>571.0</ele><time>2026-05-02T14:23:31.511Z</time></trkpt><trkpt lat="45.845751562533735" lon="11.074394040682186"><ele>567.0</ele><time>2026-05-02T14:23:32.511Z</time></trkpt><trkpt lat="45.84559470102058" lon="11.07433602825624"><ele>563.0</ele><time>2026-05-02T14:23:33.511Z</time></trkpt><trkpt lat="45.845458063892785" lon="11.074284664276133"><ele>559.0</ele><time>2026-05-02T14:23:34.511Z</time></trkpt><trkpt lat="45.845302569169284" lon="11.074226581733901"><ele>559.0</ele><time>2026-05-02T14:23:35.511Z</time></trkpt><trkpt lat="45.845187761660654" lon="11.07419567595309"><ele>559.0</ele><time>2026-05-02T14:23:36.511Z</time></trkpt><trkpt lat="45.84506607941199" lon="11.074170832747384"><ele>559.0</ele><time>2026-05-02T14:23:37.511Z</time></trkpt><trkpt lat="45.84495822403244" lon="11.074148812504184"><ele>559.0</ele><time>2026-05-02T14:23:38.511Z</time></trkpt><trkpt lat="45.84484020586836" lon="11.0741247173752"><ele>561.75</ele><time>2026-05-02T14:23:39.511Z</time></trkpt><trkpt lat="45.84470257964954" lon="11.07425371438271"><ele>564.5</ele><time>2026-05-02T14:23:40.511Z</time></trkpt><trkpt lat="45.844577184343756" lon="11.074312118591333"><ele>567.25</ele><time>2026-05-02T14:23:41.511Z</time></trkpt><trkpt lat="45.84446065971743" lon="11.074384720202879"><ele>570.0</ele><time>2026-05-02T14:23:42.511Z</time></trkpt><trkpt lat="45.84435607401174" lon="11.074519259446935"><ele>563.2</ele><time>2026-05-02T14:23:43.511Z</time></trkpt><trkpt lat="45.84427389304167" lon="11.074594402367456"><ele>556.4</ele><time>2026-05-02T14:23:44.511Z</time></trkpt><trkpt lat="45.844163694909575" lon="11.074672541326224"><ele>549.6</ele><time>2026-05-02T14:23:45.511Z</time></trkpt><trkpt lat="45.844059033756906" lon="11.074734169193974"><ele>542.8</ele><time>2026-05-02T14:23:46.511Z</time></trkpt><trkpt lat="45.843989702557664" lon="11.074810217889016"><ele>536.0</ele><time>2026-05-02T14:23:47.511Z</time></trkpt><trkpt lat="45.84394391225137" lon="11.074919206409877"><ele>545.25</ele><time>2026-05-02T14:23:48.511Z</time></trkpt><trkpt lat="45.84392446844783" lon="11.075063376273022"><ele>554.5</ele><time>2026-05-02T14:23:49.511Z</time></trkpt><trkpt lat="45.84395351406134" lon="11.075257732130776"><ele>563.75</ele><time>2026-05-02T14:23:50.511Z</time></trkpt><trkpt lat="45.8439591309041" lon="11.075418016714105"><ele>573.0</ele><time>2026-05-02T14:23:51.511Z</time></trkpt><trkpt lat="45.84391929055401" lon="11.075585965832488"><ele>573.0</ele><time>2026-05-02T14:23:52.511Z</time></trkpt><trkpt lat="45.84383637829203" lon="11.075767349169784"><ele>573.0</ele><time>2026-05-02T14:23:53.511Z</time></trkpt><trkpt lat="45.84373099889571" lon="11.07592513597224"><ele>573.0</ele><time>2026-05-02T14:23:54.511Z</time></trkpt><trkpt lat="45.843593378251114" lon="11.076051657435698"><ele>568.0</ele><time>2026-05-02T14:23:55.511Z</time></trkpt><trkpt lat="45.843473956993535" lon="11.076176846370101"><ele>563.0</ele><time>2026-05-02T14:23:56.511Z</time></trkpt><trkpt lat="45.84336012438737" lon="11.076282875096913"><ele>558.0</ele><time>2026-05-02T14:23:57.511Z</time></trkpt><trkpt lat="45.84323108646891" lon="11.076390933795086"><ele>553.0</ele><time>2026-05-02T14:23:58.511Z</time></trkpt><trkpt lat="45.84312726561273" lon="11.076532885150666"><ele>562.0</ele><time>2026-05-02T14:23:59.511Z</time></trkpt><trkpt lat="45.84300537146328" lon="11.076644641733218"><ele>571.0</ele><time>2026-05-02T14:24:00.511Z</time></trkpt><trkpt lat="45.84287857283387" lon="11.076736390624907"><ele>580.0</ele><time>2026-05-02T14:24:01.511Z</time></trkpt><trkpt lat="45.84275858526277" lon="11.076825609302244"><ele>589.0</ele><time>2026-05-02T14:24:02.511Z</time></trkpt><trkpt lat="45.84264006649063" lon="11.076913596800116"><ele>584.4</ele><time>2026-05-02T14:24:03.511Z</time></trkpt><trkpt lat="45.84254153806117" lon="11.07698397483025"><ele>579.8</ele><time>2026-05-02T14:24:04.511Z</time></trkpt><trkpt lat="45.842435695512215" lon="11.077029708339548"><ele>575.2</ele><time>2026-05-02T14:24:05.511Z</time></trkpt><trkpt lat="45.84233979447527" lon="11.077017390407448"><ele>570.6</ele><time>2026-05-02T14:24:06.511Z</time></trkpt><trkpt lat="45.84224616521038" lon="11.076979789580617"><ele>566.0</ele><time>2026-05-02T14:24:07.511Z</time></trkpt><trkpt lat="45.84215956756128" lon="11.076939794006346"><ele>566.0</ele><time>2026-05-02T14:24:08.511Z</time></trkpt><trkpt lat="45.84208649291592" lon="11.076815944887054"><ele>566.0</ele><time>2026-05-02T14:24:09.511Z</time></trkpt><trkpt lat="45.84202205693715" lon="11.076576981171364"><ele>566.0</ele><time>2026-05-02T14:24:10.511Z</time></trkpt><trkpt lat="45.841946913492976" lon="11.07641250434314"><ele>566.0</ele><time>2026-05-02T14:24:11.511Z</time></trkpt><trkpt lat="45.841872068014986" lon="11.07625939390656"><ele>558.6</ele><time>2026-05-02T14:24:12.511Z</time></trkpt><trkpt lat="45.84182166972191" lon="11.07614580387512"><ele>551.2</ele><time>2026-05-02T14:24:13.511Z</time></trkpt><trkpt lat="45.841731583305915" lon="11.076061785749065"><ele>543.8</ele><time>2026-05-02T14:24:14.511Z</time></trkpt><trkpt lat="45.84161615754817" lon="11.076061741748708"><ele>536.4</ele><time>2026-05-02T14:24:15.511Z</time></trkpt><trkpt lat="45.84148616219764" lon="11.076081184759552"><ele>529.0</ele><time>2026-05-02T14:24:16.511Z</time></trkpt><trkpt lat="45.84133381412976" lon="11.076111239899635"><ele>529.0</ele><time>2026-05-02T14:24:17.511Z</time></trkpt><trkpt lat="45.84118173572142" lon="11.076128672519213"><ele>529.0</ele><time>2026-05-02T14:24:18.511Z</time></trkpt><trkpt lat="45.841046034680275" lon="11.076106638044568"><ele>529.0</ele><time>2026-05-02T14:24:19.511Z</time></trkpt><trkpt lat="45.84090814376911" lon="11.076111675063679"><ele>529.0</ele><time>2026-05-02T14:24:20.511Z</time></trkpt><trkpt lat="45.84076406841041" lon="11.076138570029027"><ele>529.6666666666667</ele><time>2026-05-02T14:24:21.511Z</time></trkpt><trkpt lat="45.84063129560407" lon="11.076221355395857"><ele>530.3333333333334</ele><time>2026-05-02T14:24:22.511Z</time></trkpt><trkpt lat="45.84050238245995" lon="11.076333891168987"><ele>531.0</ele><time>2026-05-02T14:24:23.511Z</time></trkpt><trkpt lat="45.84035439114993" lon="11.076398922894095"><ele>531.0</ele><time>2026-05-02T14:24:24.511Z</time></trkpt><trkpt lat="45.84019648092823" lon="11.076430721403415"><ele>531.0</ele><time>2026-05-02T14:24:25.511Z</time></trkpt><trkpt lat="45.840013882350355" lon="11.076445358330481"><ele>531.0</ele><time>2026-05-02T14:24:26.511Z</time></trkpt><trkpt lat="45.83986370905921" lon="11.076441913769855"><ele>527.0</ele><time>2026-05-02T14:24:27.511Z</time></trkpt><trkpt lat="45.83971631942262" lon="11.07644888163937"><ele>523.0</ele><time>2026-05-02T14:24:28.511Z</time></trkpt><trkpt lat="45.83958760279484" lon="11.076481242902416"><ele>519.0</ele><time>2026-05-02T14:24:29.511Z</time></trkpt><trkpt lat="45.83947409532007" lon="11.076532516908843"><ele>515.0</ele><time>2026-05-02T14:24:30.511Z</time></trkpt><trkpt lat="45.83936250249489" lon="11.076608115129151"><ele>521.0</ele><time>2026-05-02T14:24:31.511Z</time></trkpt><trkpt lat="45.83926802987173" lon="11.076765004531644"><ele>527.0</ele><time>2026-05-02T14:24:32.511Z</time></trkpt><trkpt lat="45.839177351183146" lon="11.076960459612758"><ele>533.0</ele><time>2026-05-02T14:24:33.511Z</time></trkpt><trkpt lat="45.83908824926616" lon="11.077191260850881"><ele>533.0</ele><time>2026-05-02T14:24:34.511Z</time></trkpt><trkpt lat="45.8389976272472" lon="11.07739893265397"><ele>533.0</ele><time>2026-05-02T14:24:35.511Z</time></trkpt><trkpt lat="45.83890274518268" lon="11.077576014387692"><ele>533.0</ele><time>2026-05-02T14:24:36.511Z</time></trkpt><trkpt lat="45.83881145996109" lon="11.077731672297656"><ele>533.3333333333333</ele><time>2026-05-02T14:24:37.511Z</time></trkpt><trkpt lat="45.83868924962668" lon="11.077840388346871"><ele>533.6666666666666</ele><time>2026-05-02T14:24:38.511Z</time></trkpt><trkpt lat="45.8385539477606" lon="11.077934734668643"><ele>534.0</ele><time>2026-05-02T14:24:39.511Z</time></trkpt><trkpt lat="45.838410591289296" lon="11.078023316002"><ele>534.0</ele><time>2026-05-02T14:24:40.511Z</time></trkpt><trkpt lat="45.83826783745659" lon="11.078098719303771"><ele>534.0</ele><time>2026-05-02T14:24:41.511Z</time></trkpt><trkpt lat="45.83811580281403" lon="11.07814366985395"><ele>534.0</ele><time>2026-05-02T14:24:42.511Z</time></trkpt><trkpt lat="45.837981710071865" lon="11.07815773834272"><ele>534.0</ele><time>2026-05-02T14:24:43.511Z</time></trkpt><trkpt lat="45.83781363729444" lon="11.078111555503112"><ele>534.0</ele><time>2026-05-02T14:24:44.511Z</time></trkpt><trkpt lat="45.83769941629799" lon="11.077989161731244"><ele>534.0</ele><time>2026-05-02T14:24:45.511Z</time></trkpt><trkpt lat="45.83761321868945" lon="11.077947405779868"><ele>534.0</ele><time>2026-05-02T14:24:46.511Z</time></trkpt><trkpt lat="45.83751463014442" lon="11.077933105403703"><ele>534.0</ele><time>2026-05-02T14:24:47.511Z</time></trkpt><trkpt lat="45.837433531888614" lon="11.077995284344848"><ele>534.0</ele><time>2026-05-02T14:24:48.511Z</time></trkpt><trkpt lat="45.83734797610033" lon="11.078111616797285"><ele>532.25</ele><time>2026-05-02T14:24:49.511Z</time></trkpt><trkpt lat="45.83724134644704" lon="11.078173175725322"><ele>530.5</ele><time>2026-05-02T14:24:50.511Z</time></trkpt><trkpt lat="45.837130996878926" lon="11.078184667382551"><ele>528.75</ele><time>2026-05-02T14:24:51.511Z</time></trkpt><trkpt lat="45.83701266255735" lon="11.07811956815839"><ele>527.0</ele><time>2026-05-02T14:24:52.511Z</time></trkpt><trkpt lat="45.83689835367184" lon="11.078065678012287"><ele>527.0</ele><time>2026-05-02T14:24:53.511Z</time></trkpt><trkpt lat="45.836804410394876" lon="11.078018302880794"><ele>527.0</ele><time>2026-05-02T14:24:54.511Z</time></trkpt><trkpt lat="45.83670185933744" lon="11.077868748989276"><ele>527.0</ele><time>2026-05-02T14:24:55.511Z</time></trkpt><trkpt lat="45.836603409022615" lon="11.07768950475513"><ele>527.0</ele><time>2026-05-02T14:24:56.511Z</time></trkpt><trkpt lat="45.8365519703857" lon="11.077412833987179"><ele>533.6666666666666</ele><time>2026-05-02T14:24:57.511Z</time></trkpt><trkpt lat="45.83654488668766" lon="11.07719770496647"><ele>540.3333333333334</ele><time>2026-05-02T14:24:58.511Z</time></trkpt><trkpt lat="45.836602177458076" lon="11.076950695268971"><ele>547.0</ele><time>2026-05-02T14:24:59.511Z</time></trkpt><trkpt lat="45.83661640213232" lon="11.076761483014623"><ele>542.0</ele><time>2026-05-02T14:25:00.511Z</time></trkpt><trkpt lat="45.83660708824491" lon="11.07659004993173"><ele>537.0</ele><time>2026-05-02T14:25:01.511Z</time></trkpt><trkpt lat="45.83659992264331" lon="11.076443543396447"><ele>532.0</ele><time>2026-05-02T14:25:02.511Z</time></trkpt><trkpt lat="45.836558579369054" lon="11.07633864138099"><ele>527.0</ele><time>2026-05-02T14:25:03.511Z</time></trkpt><trkpt lat="45.836479154317786" lon="11.07625057840716"><ele>522.0</ele><time>2026-05-02T14:25:04.511Z</time></trkpt><trkpt lat="45.83634229022144" lon="11.07622106545836"><ele>522.0</ele><time>2026-05-02T14:25:05.511Z</time></trkpt><trkpt lat="45.836181697467666" lon="11.076191195065451"><ele>522.0</ele><time>2026-05-02T14:25:06.511Z</time></trkpt><trkpt lat="45.83601852671484" lon="11.076166658430058"><ele>522.0</ele><time>2026-05-02T14:25:07.511Z</time></trkpt><trkpt lat="45.83583780585287" lon="11.076147335456259"><ele>530.0</ele><time>2026-05-02T14:25:08.511Z</time></trkpt><trkpt lat="45.83561521358801" lon="11.076164919324267"><ele>538.0</ele><time>2026-05-02T14:25:09.511Z</time></trkpt><trkpt lat="45.835362435970325" lon="11.07616878227558"><ele>534.0</ele><time>2026-05-02T14:25:10.511Z</time></trkpt><trkpt lat="45.83510146057131" lon="11.076223768535902"><ele>530.0</ele><time>2026-05-02T14:25:11.511Z</time></trkpt><trkpt lat="45.83485811063566" lon="11.076273860660136"><ele>530.0</ele><time>2026-05-02T14:25:12.511Z</time></trkpt><trkpt lat="45.83467629613335" lon="11.076332502113752"><ele>530.0</ele><time>2026-05-02T14:25:13.511Z</time></trkpt><trkpt lat="45.83450345686667" lon="11.076391115669502"><ele>530.0</ele><time>2026-05-02T14:25:14.511Z</time></trkpt><trkpt lat="45.834342442879425" lon="11.076480899547162"><ele>522.75</ele><time>2026-05-02T14:25:15.511Z</time></trkpt><trkpt lat="45.83418632378756" lon="11.076547457061087"><ele>515.5</ele><time>2026-05-02T14:25:16.511Z</time></trkpt><trkpt lat="45.834037906121054" lon="11.076591141346936"><ele>508.25</ele><time>2026-05-02T14:25:17.511Z</time></trkpt><trkpt lat="45.83391395602454" lon="11.076632220973313"><ele>501.0</ele><time>2026-05-02T14:25:18.511Z</time></trkpt><trkpt lat="45.83378024715889" lon="11.076683712014285"><ele>511.5</ele><time>2026-05-02T14:25:19.511Z</time></trkpt><trkpt lat="45.83365677402859" lon="11.07675886769916"><ele>522.0</ele><time>2026-05-02T14:25:20.511Z</time></trkpt><trkpt lat="45.833529727556645" lon="11.076864853762094"><ele>532.5</ele><time>2026-05-02T14:25:21.511Z</time></trkpt><trkpt lat="45.833389933071146" lon="11.076943470727041"><ele>543.0</ele><time>2026-05-02T14:25:22.511Z</time></trkpt><trkpt lat="45.833257781377185" lon="11.077008082637425"><ele>543.0</ele><time>2026-05-02T14:25:23.511Z</time></trkpt><trkpt lat="45.833119205158326" lon="11.077059897047334"><ele>543.0</ele><time>2026-05-02T14:25:24.511Z</time></trkpt><trkpt lat="45.83297819855845" lon="11.0770213077372"><ele>543.0</ele><time>2026-05-02T14:25:25.511Z</time></trkpt><trkpt lat="45.83281779602349" lon="11.076982268697165"><ele>543.0</ele><time>2026-05-02T14:25:26.511Z</time></trkpt><trkpt lat="45.83268124896421" lon="11.07700673862056"><ele>537.5</ele><time>2026-05-02T14:25:27.511Z</time></trkpt><trkpt lat="45.83254752938322" lon="11.077036133723498"><ele>532.0</ele><time>2026-05-02T14:25:28.511Z</time></trkpt><trkpt lat="45.832405667730434" lon="11.077090017526748"><ele>526.5</ele><time>2026-05-02T14:25:29.511Z</time></trkpt><trkpt lat="45.83227342786781" lon="11.077209768166513"><ele>521.0</ele><time>2026-05-02T14:25:30.511Z</time></trkpt><trkpt lat="45.83214385611761" lon="11.07731526899433"><ele>521.0</ele><time>2026-05-02T14:25:31.511Z</time></trkpt><trkpt lat="45.83201543753472" lon="11.077407769409016"><ele>521.0</ele><time>2026-05-02T14:25:32.511Z</time></trkpt><trkpt lat="45.831905359749555" lon="11.07749330149433"><ele>521.0</ele><time>2026-05-02T14:25:33.511Z</time></trkpt><trkpt lat="45.83179887587436" lon="11.077601324441416"><ele>521.0</ele><time>2026-05-02T14:25:34.511Z</time></trkpt><trkpt lat="45.83171077792844" lon="11.07772700628557"><ele>515.75</ele><time>2026-05-02T14:25:35.511Z</time></trkpt><trkpt lat="45.83163439577866" lon="11.07783548593501"><ele>510.5</ele><time>2026-05-02T14:25:36.511Z</time></trkpt><trkpt lat="45.8315777837312" lon="11.077957912949195"><ele>505.25</ele><time>2026-05-02T14:25:37.511Z</time></trkpt><trkpt lat="45.831531600681274" lon="11.078094163628835"><ele>500.0</ele><time>2026-05-02T14:25:38.511Z</time></trkpt><trkpt lat="45.83157923664972" lon="11.078295666629252"><ele>508.8</ele><time>2026-05-02T14:25:39.511Z</time></trkpt><trkpt lat="45.83159792126568" lon="11.078479935353723"><ele>517.6</ele><time>2026-05-02T14:25:40.511Z</time></trkpt><trkpt lat="45.83159214926965" lon="11.078631619924279"><ele>526.4</ele><time>2026-05-02T14:25:41.511Z</time></trkpt><trkpt lat="45.83161601830322" lon="11.07876507131874"><ele>535.2</ele><time>2026-05-02T14:25:42.511Z</time></trkpt><trkpt lat="45.831573457649085" lon="11.07887204079287"><ele>544.0</ele><time>2026-05-02T14:25:43.511Z</time></trkpt><trkpt lat="45.83152442240084" lon="11.078964560118845"><ele>544.0</ele><time>2026-05-02T14:25:44.511Z</time></trkpt><trkpt lat="45.831435199364556" lon="11.079011286969173"><ele>544.0</ele><time>2026-05-02T14:25:45.511Z</time></trkpt><trkpt lat="45.83133127698434" lon="11.079048830123687"><ele>544.0</ele><time>2026-05-02T14:25:46.511Z</time></trkpt><trkpt lat="45.83124514229384" lon="11.079085518808107"><ele>544.0</ele><time>2026-05-02T14:25:47.511Z</time></trkpt><trkpt lat="45.83116026974996" lon="11.079106344032526"><ele>544.0</ele><time>2026-05-02T14:25:48.511Z</time></trkpt><trkpt lat="45.83108836153287" lon="11.079112041264448"><ele>538.25</ele><time>2026-05-02T14:25:49.511Z</time></trkpt><trkpt lat="45.8310457949506" lon="11.079258799586418"><ele>532.5</ele><time>2026-05-02T14:25:50.511Z</time></trkpt><trkpt lat="45.83101782514353" lon="11.079424486202814"><ele>526.75</ele><time>2026-05-02T14:25:51.511Z</time></trkpt><trkpt lat="45.83097964528216" lon="11.079570527251393"><ele>521.0</ele><time>2026-05-02T14:25:52.511Z</time></trkpt><trkpt lat="45.83095404073785" lon="11.079738094830411"><ele>529.6666666666666</ele><time>2026-05-02T14:25:53.511Z</time></trkpt><trkpt lat="45.83092272960364" lon="11.079942472255418"><ele>538.3333333333334</ele><time>2026-05-02T14:25:54.511Z</time></trkpt><trkpt lat="45.83089629636503" lon="11.08019181499688"><ele>547.0</ele><time>2026-05-02T14:25:55.511Z</time></trkpt><trkpt lat="45.8308316421768" lon="11.080450207014682"><ele>547.0</ele><time>2026-05-02T14:25:56.511Z</time></trkpt><trkpt lat="45.83077389007072" lon="11.080664144541709"><ele>547.0</ele><time>2026-05-02T14:25:57.511Z</time></trkpt><trkpt lat="45.83071381595755" lon="11.080846823289052"><ele>547.0</ele><time>2026-05-02T14:25:58.511Z</time></trkpt><trkpt lat="45.83065651424152" lon="11.081021000152486"><ele>547.0</ele><time>2026-05-02T14:25:59.511Z</time></trkpt><trkpt lat="45.830589617501765" lon="11.081167072152281"><ele>547.0</ele><time>2026-05-02T14:26:00.511Z</time></trkpt><trkpt lat="45.830530241649015" lon="11.081302944927202"><ele>547.0</ele><time>2026-05-02T14:26:01.511Z</time></trkpt><trkpt lat="45.8304679206137" lon="11.081385995662536"><ele>547.0</ele><time>2026-05-02T14:26:02.511Z</time></trkpt><trkpt lat="45.830381161745365" lon="11.081413764878985"><ele>547.0</ele><time>2026-05-02T14:26:03.511Z</time></trkpt><trkpt lat="45.83029447392482" lon="11.081405417618896"><ele>547.0</ele><time>2026-05-02T14:26:04.511Z</time></trkpt><trkpt lat="45.830198050842256" lon="11.08133901688513"><ele>542.0</ele><time>2026-05-02T14:26:05.511Z</time></trkpt><trkpt lat="45.83014873529874" lon="11.081193309759696"><ele>537.0</ele><time>2026-05-02T14:26:06.511Z</time></trkpt><trkpt lat="45.83005793087624" lon="11.080893347214863"><ele>532.0</ele><time>2026-05-02T14:26:07.511Z</time></trkpt><trkpt lat="45.829987709602" lon="11.080610525611226"><ele>532.0</ele><time>2026-05-02T14:26:08.511Z</time></trkpt><trkpt lat="45.8299065143343" lon="11.080347101197184"><ele>532.0</ele><time>2026-05-02T14:26:09.511Z</time></trkpt><trkpt lat="45.8298736913534" lon="11.080117790640092"><ele>532.0</ele><time>2026-05-02T14:26:10.511Z</time></trkpt><trkpt lat="45.82984669050913" lon="11.079906899190036"><ele>523.3333333333334</ele><time>2026-05-02T14:26:11.511Z</time></trkpt><trkpt lat="45.8298043609703" lon="11.079715256230509"><ele>514.6666666666666</ele><time>2026-05-02T14:26:12.511Z</time></trkpt><trkpt lat="45.82973375333786" lon="11.07952476637705"><ele>506.0</ele><time>2026-05-02T14:26:13.511Z</time></trkpt><trkpt lat="45.82961861915845" lon="11.07934829031747"><ele>506.0</ele><time>2026-05-02T14:26:14.511Z</time></trkpt><trkpt lat="45.82950121320532" lon="11.07922479387411"><ele>506.0</ele><time>2026-05-02T14:26:15.511Z</time></trkpt><trkpt lat="45.82940122121544" lon="11.079118881444343"><ele>506.0</ele><time>2026-05-02T14:26:16.511Z</time></trkpt><trkpt lat="45.8293266869782" lon="11.078999975014053"><ele>506.0</ele><time>2026-05-02T14:26:17.511Z</time></trkpt><trkpt lat="45.82927017696824" lon="11.078897217904442"><ele>505.5</ele><time>2026-05-02T14:26:18.511Z</time></trkpt><trkpt lat="45.82922023074937" lon="11.078815507675609"><ele>505.0</ele><time>2026-05-02T14:26:19.511Z</time></trkpt><trkpt lat="45.829080149233164" lon="11.078995331381428"><ele>504.5</ele><time>2026-05-02T14:26:22.511Z</time></trkpt><trkpt lat="45.829046658059646" lon="11.079154274167225"><ele>504.0</ele><time>2026-05-02T14:26:23.511Z</time></trkpt><trkpt lat="45.828980417002406" lon="11.079306713142426"><ele>514.0</ele><time>2026-05-02T14:26:24.511Z</time></trkpt><trkpt lat="45.82886124881637" lon="11.07946074661244"><ele>524.0</ele><time>2026-05-02T14:26:25.511Z</time></trkpt><trkpt lat="45.82874383870792" lon="11.079631144985852"><ele>534.0</ele><time>2026-05-02T14:26:26.511Z</time></trkpt><trkpt lat="45.82865413608888" lon="11.079806731862277"><ele>534.0</ele><time>2026-05-02T14:26:27.511Z</time></trkpt><trkpt lat="45.828546532699455" lon="11.079914432987191"><ele>534.0</ele><time>2026-05-02T14:26:28.511Z</time></trkpt><trkpt lat="45.82842810283725" lon="11.07998882189136"><ele>534.0</ele><time>2026-05-02T14:26:29.511Z</time></trkpt><trkpt lat="45.828296954384975" lon="11.079996444294398"><ele>534.0</ele><time>2026-05-02T14:26:30.511Z</time></trkpt><trkpt lat="45.82819306255562" lon="11.080042091256743"><ele>538.25</ele><time>2026-05-02T14:26:31.511Z</time></trkpt><trkpt lat="45.828124415009924" lon="11.080185935744145"><ele>542.5</ele><time>2026-05-02T14:26:32.511Z</time></trkpt><trkpt lat="45.82804951676269" lon="11.08039861436542"><ele>546.75</ele><time>2026-05-02T14:26:33.511Z</time></trkpt><trkpt lat="45.827957147805606" lon="11.08058330680782"><ele>551.0</ele><time>2026-05-02T14:26:34.511Z</time></trkpt><trkpt lat="45.82786139608168" lon="11.080741237909677"><ele>552.25</ele><time>2026-05-02T14:26:35.511Z</time></trkpt><trkpt lat="45.827759629952936" lon="11.08085822829844"><ele>553.5</ele><time>2026-05-02T14:26:36.511Z</time></trkpt><trkpt lat="45.8276276096916" lon="11.080933786302632"><ele>554.75</ele><time>2026-05-02T14:26:37.511Z</time></trkpt><trkpt lat="45.827510755191895" lon="11.080982595841036"><ele>556.0</ele><time>2026-05-02T14:26:38.511Z</time></trkpt><trkpt lat="45.827410879153476" lon="11.081025764704796"><ele>556.0</ele><time>2026-05-02T14:26:39.511Z</time></trkpt><trkpt lat="45.82731479033433" lon="11.081109801861984"><ele>556.0</ele><time>2026-05-02T14:26:40.511Z</time></trkpt><trkpt lat="45.827248283612306" lon="11.081253721136424"><ele>556.0</ele><time>2026-05-02T14:26:41.511Z</time></trkpt><trkpt lat="45.82718345768202" lon="11.08145446350335"><ele>556.0</ele><time>2026-05-02T14:26:42.511Z</time></trkpt><trkpt lat="45.82707302398995" lon="11.081583795332518"><ele>554.75</ele><time>2026-05-02T14:26:43.511Z</time></trkpt><trkpt lat="45.82694853070241" lon="11.081646226959124"><ele>553.5</ele><time>2026-05-02T14:26:44.511Z</time></trkpt><trkpt lat="45.82684936735782" lon="11.081759050362544"><ele>552.25</ele><time>2026-05-02T14:26:45.511Z</time></trkpt><trkpt lat="45.82676766332731" lon="11.081937227818385"><ele>551.0</ele><time>2026-05-02T14:26:46.511Z</time></trkpt><trkpt lat="45.82669391732131" lon="11.082148729056952"><ele>561.3333333333333</ele><time>2026-05-02T14:26:47.511Z</time></trkpt><trkpt lat="45.82664962670656" lon="11.082468981575081"><ele>571.6666666666666</ele><time>2026-05-02T14:26:48.511Z</time></trkpt><trkpt lat="45.826588062788296" lon="11.082685233348686"><ele>582.0</ele><time>2026-05-02T14:26:49.511Z</time></trkpt><trkpt lat="45.826522197959065" lon="11.082858190847167"><ele>582.0</ele><time>2026-05-02T14:26:50.511Z</time></trkpt><trkpt lat="45.8264523513003" lon="11.082997843421671"><ele>582.0</ele><time>2026-05-02T14:26:51.511Z</time></trkpt><trkpt lat="45.8263809652635" lon="11.083142192944235"><ele>582.0</ele><time>2026-05-02T14:26:52.511Z</time></trkpt><trkpt lat="45.82622076435069" lon="11.083220577726507"><ele>582.0</ele><time>2026-05-02T14:26:53.511Z</time></trkpt><trkpt lat="45.82609724359676" lon="11.083299474520405"><ele>580.25</ele><time>2026-05-02T14:26:54.511Z</time></trkpt><trkpt lat="45.82594660219602" lon="11.083258569836339"><ele>578.5</ele><time>2026-05-02T14:26:55.511Z</time></trkpt><trkpt lat="45.82583044904105" lon="11.08333571797462"><ele>576.75</ele><time>2026-05-02T14:26:56.511Z</time></trkpt><trkpt lat="45.82573879265129" lon="11.083464929056026"><ele>575.0</ele><time>2026-05-02T14:26:57.511Z</time></trkpt><trkpt lat="45.825645976985236" lon="11.083623622257994"><ele>575.0</ele><time>2026-05-02T14:26:58.511Z</time></trkpt><trkpt lat="45.82558317481466" lon="11.083889443653504"><ele>575.0</ele><time>2026-05-02T14:26:59.511Z</time></trkpt><trkpt lat="45.825457888707255" lon="11.084113605578947"><ele>575.0</ele><time>2026-05-02T14:27:00.511Z</time></trkpt><trkpt lat="45.82535721169061" lon="11.084331015243901"><ele>578.6666666666666</ele><time>2026-05-02T14:27:01.511Z</time></trkpt><trkpt lat="45.82526114512934" lon="11.08453126966683"><ele>582.3333333333334</ele><time>2026-05-02T14:27:02.511Z</time></trkpt><trkpt lat="45.825196187313104" lon="11.084737710808795"><ele>586.0</ele><time>2026-05-02T14:27:03.511Z</time></trkpt><trkpt lat="45.82514226229572" lon="11.084931707276048"><ele>586.0</ele><time>2026-05-02T14:27:04.511Z</time></trkpt><trkpt lat="45.825098000315265" lon="11.085130681530735"><ele>586.0</ele><time>2026-05-02T14:27:05.511Z</time></trkpt><trkpt lat="45.825024791246165" lon="11.085314013794825"><ele>586.0</ele><time>2026-05-02T14:27:06.511Z</time></trkpt><trkpt lat="45.824936215893544" lon="11.08547865987022"><ele>586.0</ele><time>2026-05-02T14:27:07.511Z</time></trkpt><trkpt lat="45.824826736534824" lon="11.08561636207873"><ele>586.0</ele><time>2026-05-02T14:27:08.511Z</time></trkpt><trkpt lat="45.824689590120386" lon="11.085682686972923"><ele>586.0</ele><time>2026-05-02T14:27:09.511Z</time></trkpt><trkpt lat="45.824589327428136" lon="11.085761944988533"><ele>586.0</ele><time>2026-05-02T14:27:10.511Z</time></trkpt><trkpt lat="45.824502004647876" lon="11.085869474848446"><ele>586.0</ele><time>2026-05-02T14:27:11.511Z</time></trkpt><trkpt lat="45.82441206881263" lon="11.086016624863982"><ele>582.6666666666667</ele><time>2026-05-02T14:27:12.511Z</time></trkpt><trkpt lat="45.824322290868245" lon="11.086216424994348"><ele>579.3333333333334</ele><time>2026-05-02T14:27:13.511Z</time></trkpt><trkpt lat="45.82420645492187" lon="11.086358607038584"><ele>576.0</ele><time>2026-05-02T14:27:14.511Z</time></trkpt><trkpt lat="45.824112063583286" lon="11.086502976843725"><ele>584.25</ele><time>2026-05-02T14:27:15.511Z</time></trkpt><trkpt lat="45.82404763714131" lon="11.08666414211626"><ele>592.5</ele><time>2026-05-02T14:27:16.511Z</time></trkpt><trkpt lat="45.823983155254716" lon="11.086840743827805"><ele>600.75</ele><time>2026-05-02T14:27:17.511Z</time></trkpt><trkpt lat="45.82391747711609" lon="11.087047447436753"><ele>609.0</ele><time>2026-05-02T14:27:18.511Z</time></trkpt><trkpt lat="45.82384851573032" lon="11.087261136844395"><ele>618.3333333333334</ele><time>2026-05-02T14:27:19.511Z</time></trkpt><trkpt lat="45.8237679540263" lon="11.087484207963767"><ele>627.6666666666667</ele><time>2026-05-02T14:27:20.511Z</time></trkpt><trkpt lat="45.82368424570783" lon="11.087687403885417"><ele>637.0</ele><time>2026-05-02T14:27:21.511Z</time></trkpt><trkpt lat="45.82360062548938" lon="11.087859017391692"><ele>637.0</ele><time>2026-05-02T14:27:22.511Z</time></trkpt><trkpt lat="45.82352241184332" lon="11.088023421766149"><ele>637.0</ele><time>2026-05-02T14:27:23.511Z</time></trkpt><trkpt lat="45.82343329049097" lon="11.088161237800067"><ele>637.0</ele><time>2026-05-02T14:27:24.511Z</time></trkpt><trkpt lat="45.823361063985296" lon="11.088282789795123"><ele>637.0</ele><time>2026-05-02T14:27:25.511Z</time></trkpt><trkpt lat="45.82328516943924" lon="11.088376061195788"><ele>630.4</ele><time>2026-05-02T14:27:26.511Z</time></trkpt><trkpt lat="45.82320316283702" lon="11.088474983730071"><ele>623.8000000000001</ele><time>2026-05-02T14:27:27.511Z</time></trkpt><trkpt lat="45.82312368939966" lon="11.088575997975417"><ele>617.2</ele><time>2026-05-02T14:27:28.511Z</time></trkpt><trkpt lat="45.82305399271026" lon="11.088663274539023"><ele>610.6</ele><time>2026-05-02T14:27:29.511Z</time></trkpt><trkpt lat="45.822985672014106" lon="11.088767606644222"><ele>604.0</ele><time>2026-05-02T14:27:30.511Z</time></trkpt><trkpt lat="45.822939623000984" lon="11.088877327201281"><ele>604.0</ele><time>2026-05-02T14:27:31.511Z</time></trkpt><trkpt lat="45.82292417567375" lon="11.08902300728786"><ele>604.0</ele><time>2026-05-02T14:27:32.511Z</time></trkpt><trkpt lat="45.822989734099075" lon="11.089233916385734"><ele>604.0</ele><time>2026-05-02T14:27:33.511Z</time></trkpt><trkpt lat="45.823050000388" lon="11.089445681007453"><ele>604.0</ele><time>2026-05-02T14:27:34.511Z</time></trkpt><trkpt lat="45.823091364821224" lon="11.089654964170325"><ele>610.25</ele><time>2026-05-02T14:27:35.511Z</time></trkpt><trkpt lat="45.823097955095015" lon="11.089848199901441"><ele>616.5</ele><time>2026-05-02T14:27:36.511Z</time></trkpt><trkpt lat="45.823057407235666" lon="11.090045757701247"><ele>622.75</ele><time>2026-05-02T14:27:37.511Z</time></trkpt><trkpt lat="45.823000267286695" lon="11.090229794345898"><ele>629.0</ele><time>2026-05-02T14:27:38.511Z</time></trkpt><trkpt lat="45.82291350852671" lon="11.090417455515588"><ele>628.3333333333333</ele><time>2026-05-02T14:27:39.511Z</time></trkpt><trkpt lat="45.822802255177606" lon="11.090571368735773"><ele>627.6666666666666</ele><time>2026-05-02T14:27:40.511Z</time></trkpt><trkpt lat="45.822665231521796" lon="11.090686545196737"><ele>627.0</ele><time>2026-05-02T14:27:41.511Z</time></trkpt><trkpt lat="45.82253563925648" lon="11.090783182533228"><ele>627.0</ele><time>2026-05-02T14:27:42.511Z</time></trkpt><trkpt lat="45.82240180765778" lon="11.090867877967089"><ele>627.0</ele><time>2026-05-02T14:27:43.511Z</time></trkpt><trkpt lat="45.82225654372389" lon="11.09093282808794"><ele>627.0</ele><time>2026-05-02T14:27:44.511Z</time></trkpt><trkpt lat="45.82208347214673" lon="11.090972059864638"><ele>627.0</ele><time>2026-05-02T14:27:45.511Z</time></trkpt><trkpt lat="45.821922981187264" lon="11.090990755042096"><ele>627.0</ele><time>2026-05-02T14:27:46.511Z</time></trkpt><trkpt lat="45.821755597673814" lon="11.091020970868595"><ele>627.0</ele><time>2026-05-02T14:27:47.511Z</time></trkpt><trkpt lat="45.821623299908545" lon="11.09102465605176"><ele>624.3333333333334</ele><time>2026-05-02T14:27:48.511Z</time></trkpt><trkpt lat="45.821457280166136" lon="11.090973433228925"><ele>621.6666666666667</ele><time>2026-05-02T14:27:49.511Z</time></trkpt><trkpt lat="45.8212897511433" lon="11.090908737690789"><ele>619.0</ele><time>2026-05-02T14:27:50.511Z</time></trkpt><trkpt lat="45.82109952147918" lon="11.090813488998746"><ele>610.3333333333334</ele><time>2026-05-02T14:27:51.511Z</time></trkpt><trkpt lat="45.8209453376302" lon="11.090734437954536"><ele>601.6666666666666</ele><time>2026-05-02T14:27:52.511Z</time></trkpt><trkpt lat="45.82079946585198" lon="11.090673053640717"><ele>593.0</ele><time>2026-05-02T14:27:53.511Z</time></trkpt><trkpt lat="45.82064051358894" lon="11.090631591031846"><ele>593.0</ele><time>2026-05-02T14:27:54.511Z</time></trkpt><trkpt lat="45.820477621093545" lon="11.090610919885448"><ele>593.0</ele><time>2026-05-02T14:27:55.511Z</time></trkpt><trkpt lat="45.82030332639558" lon="11.090609136441287"><ele>593.0</ele><time>2026-05-02T14:27:56.511Z</time></trkpt><trkpt lat="45.82010018464206" lon="11.090648339625446"><ele>591.0</ele><time>2026-05-02T14:27:57.511Z</time></trkpt><trkpt lat="45.819911101574135" lon="11.09071294698924"><ele>589.0</ele><time>2026-05-02T14:27:58.511Z</time></trkpt><trkpt lat="45.819739001766926" lon="11.090829099110369"><ele>587.0</ele><time>2026-05-02T14:27:59.511Z</time></trkpt><trkpt lat="45.8195593694577" lon="11.09090856726628"><ele>598.3333333333333</ele><time>2026-05-02T14:28:00.511Z</time></trkpt><trkpt lat="45.819392700454536" lon="11.090990056117978"><ele>609.6666666666666</ele><time>2026-05-02T14:28:01.511Z</time></trkpt><trkpt lat="45.819237699035334" lon="11.091060883722193"><ele>621.0</ele><time>2026-05-02T14:28:02.511Z</time></trkpt><trkpt lat="45.81911248133842" lon="11.091143211811973"><ele>621.0</ele><time>2026-05-02T14:28:03.511Z</time></trkpt><trkpt lat="45.818998439032214" lon="11.091261059642068"><ele>621.0</ele><time>2026-05-02T14:28:04.511Z</time></trkpt><trkpt lat="45.81888543087318" lon="11.091374928811"><ele>621.0</ele><time>2026-05-02T14:28:05.511Z</time></trkpt><trkpt lat="45.81877106283506" lon="11.091484922488258"><ele>621.0</ele><time>2026-05-02T14:28:06.511Z</time></trkpt><trkpt lat="45.81865221979351" lon="11.091588316388883"><ele>624.0</ele><time>2026-05-02T14:28:07.511Z</time></trkpt><trkpt lat="45.81856088522953" lon="11.09170967111293"><ele>627.0</ele><time>2026-05-02T14:28:08.511Z</time></trkpt><trkpt lat="45.81848258240796" lon="11.091833719888497"><ele>630.0</ele><time>2026-05-02T14:28:09.511Z</time></trkpt><trkpt lat="45.81840344248014" lon="11.091933916189339"><ele>633.0</ele><time>2026-05-02T14:28:10.511Z</time></trkpt><trkpt lat="45.81832316549294" lon="11.092024722430075"><ele>636.0</ele><time>2026-05-02T14:28:11.511Z</time></trkpt><trkpt lat="45.818229080539005" lon="11.092153969795833"><ele>636.0</ele><time>2026-05-02T14:28:12.511Z</time></trkpt><trkpt lat="45.818184383993696" lon="11.092362880457852"><ele>636.0</ele><time>2026-05-02T14:28:13.511Z</time></trkpt><trkpt lat="45.81809817415192" lon="11.092663281776618"><ele>636.0</ele><time>2026-05-02T14:28:14.511Z</time></trkpt><trkpt lat="45.81797430052179" lon="11.0929150363673"><ele>633.3333333333334</ele><time>2026-05-02T14:28:15.511Z</time></trkpt><trkpt lat="45.817842690828535" lon="11.0931354660247"><ele>630.6666666666667</ele><time>2026-05-02T14:28:16.511Z</time></trkpt><trkpt lat="45.81771983638877" lon="11.093316679269654"><ele>628.0</ele><time>2026-05-02T14:28:17.511Z</time></trkpt><trkpt lat="45.8176092896311" lon="11.093523200038687"><ele>628.0</ele><time>2026-05-02T14:28:18.511Z</time></trkpt><trkpt lat="45.817508345524864" lon="11.093698985976618"><ele>628.0</ele><time>2026-05-02T14:28:19.511Z</time></trkpt><trkpt lat="45.81743894825258" lon="11.093838776234616"><ele>628.0</ele><time>2026-05-02T14:28:20.511Z</time></trkpt><trkpt lat="45.8173628422999" lon="11.093999418541971"><ele>628.0</ele><time>2026-05-02T14:28:21.511Z</time></trkpt><trkpt lat="45.817283403680214" lon="11.094112205415618"><ele>634.25</ele><time>2026-05-02T14:28:22.511Z</time></trkpt><trkpt lat="45.817195380708554" lon="11.094238514650298"><ele>640.5</ele><time>2026-05-02T14:28:23.511Z</time></trkpt><trkpt lat="45.817062311747414" lon="11.09434364853032"><ele>646.75</ele><time>2026-05-02T14:28:24.511Z</time></trkpt><trkpt lat="45.81695681474697" lon="11.0944876048178"><ele>653.0</ele><time>2026-05-02T14:28:25.511Z</time></trkpt><trkpt lat="45.81688850680326" lon="11.094642041327036"><ele>654.0</ele><time>2026-05-02T14:28:26.511Z</time></trkpt><trkpt lat="45.816788699940155" lon="11.094756226803415"><ele>655.0</ele><time>2026-05-02T14:28:27.511Z</time></trkpt><trkpt lat="45.81669811671848" lon="11.094858109939661"><ele>656.0</ele><time>2026-05-02T14:28:28.511Z</time></trkpt><trkpt lat="45.816591121964684" lon="11.094966122579919"><ele>657.0</ele><time>2026-05-02T14:28:29.511Z</time></trkpt><trkpt lat="45.816462943733555" lon="11.095068068727134"><ele>657.0</ele><time>2026-05-02T14:28:30.511Z</time></trkpt><trkpt lat="45.816349105604154" lon="11.09514994544891"><ele>657.0</ele><time>2026-05-02T14:28:31.511Z</time></trkpt><trkpt lat="45.816226255914195" lon="11.095222305986558"><ele>657.0</ele><time>2026-05-02T14:28:32.511Z</time></trkpt><trkpt lat="45.816115499810856" lon="11.095275310311541"><ele>657.0</ele><time>2026-05-02T14:28:33.511Z</time></trkpt><trkpt lat="45.81598949211039" lon="11.095258970427436"><ele>658.2</ele><time>2026-05-02T14:28:34.511Z</time></trkpt><trkpt lat="45.815895554891235" lon="11.095296404300813"><ele>659.4000000000001</ele><time>2026-05-02T14:28:35.511Z</time></trkpt><trkpt lat="45.815822466156504" lon="11.095375732490046"><ele>660.5999999999999</ele><time>2026-05-02T14:28:36.511Z</time></trkpt><trkpt lat="45.81578250260189" lon="11.095474314752234"><ele>661.8</ele><time>2026-05-02T14:28:37.511Z</time></trkpt><trkpt lat="45.815787158660505" lon="11.095650292127617"><ele>663.0</ele><time>2026-05-02T14:28:38.511Z</time></trkpt><trkpt lat="45.815794321266466" lon="11.095865748326473"><ele>663.0</ele><time>2026-05-02T14:28:39.511Z</time></trkpt><trkpt lat="45.81576420007469" lon="11.096015146540653"><ele>663.0</ele><time>2026-05-02T14:28:40.511Z</time></trkpt><trkpt lat="45.815732683817046" lon="11.096152991796075"><ele>663.0</ele><time>2026-05-02T14:28:41.511Z</time></trkpt><trkpt lat="45.8156862964346" lon="11.09628023650769"><ele>663.0</ele><time>2026-05-02T14:28:42.511Z</time></trkpt><trkpt lat="45.81562384301526" lon="11.096390984897248"><ele>663.0</ele><time>2026-05-02T14:28:43.511Z</time></trkpt><trkpt lat="45.81555956118642" lon="11.09648670690101"><ele>663.0</ele><time>2026-05-02T14:28:44.511Z</time></trkpt><trkpt lat="45.81549216536764" lon="11.09656211143258"><ele>663.0</ele><time>2026-05-02T14:28:45.511Z</time></trkpt><trkpt lat="45.815426345323054" lon="11.096599584159828"><ele>663.0</ele><time>2026-05-02T14:28:46.511Z</time></trkpt><trkpt lat="45.81535171690399" lon="11.096523665415193"><ele>663.0</ele><time>2026-05-02T14:28:47.511Z</time></trkpt><trkpt lat="45.815189131274614" lon="11.096109154810884"><ele>665.0</ele><time>2026-05-02T14:28:49.511Z</time></trkpt><trkpt lat="45.81511587774978" lon="11.09586000756922"><ele>667.0</ele><time>2026-05-02T14:28:50.511Z</time></trkpt><trkpt lat="45.815009424911025" lon="11.095612735975783"><ele>669.0</ele><time>2026-05-02T14:28:51.511Z</time></trkpt><trkpt lat="45.81490754291409" lon="11.095400747589434"><ele>659.3333333333334</ele><time>2026-05-02T14:28:52.511Z</time></trkpt><trkpt lat="45.814767866912675" lon="11.095220354577144"><ele>649.6666666666667</ele><time>2026-05-02T14:28:53.511Z</time></trkpt><trkpt lat="45.81465967818771" lon="11.095037096149554"><ele>640.0</ele><time>2026-05-02T14:28:54.511Z</time></trkpt><trkpt lat="45.81456074815391" lon="11.09487563652942"><ele>637.5</ele><time>2026-05-02T14:28:55.511Z</time></trkpt><trkpt lat="45.81445472898702" lon="11.094883124553329"><ele>635.0</ele><time>2026-05-02T14:28:56.511Z</time></trkpt><trkpt lat="45.81433448530139" lon="11.094827801044271"><ele>632.5</ele><time>2026-05-02T14:28:57.511Z</time></trkpt><trkpt lat="45.81420068123575" lon="11.094790511856246"><ele>630.0</ele><time>2026-05-02T14:28:58.511Z</time></trkpt><trkpt lat="45.814052564352465" lon="11.094783323561188"><ele>630.0</ele><time>2026-05-02T14:28:59.511Z</time></trkpt><trkpt lat="45.8138962976831" lon="11.09480730811405"><ele>630.0</ele><time>2026-05-02T14:29:00.511Z</time></trkpt><trkpt lat="45.81371987338114" lon="11.094840399719484"><ele>630.0</ele><time>2026-05-02T14:29:01.511Z</time></trkpt><trkpt lat="45.81354691982898" lon="11.09486231557181"><ele>629.25</ele><time>2026-05-02T14:29:02.511Z</time></trkpt><trkpt lat="45.813377937270445" lon="11.094885730806185"><ele>628.5</ele><time>2026-05-02T14:29:03.511Z</time></trkpt><trkpt lat="45.81324640084608" lon="11.094885129585139"><ele>627.75</ele><time>2026-05-02T14:29:04.511Z</time></trkpt><trkpt lat="45.81312690292328" lon="11.094881796157392"><ele>627.0</ele><time>2026-05-02T14:29:05.511Z</time></trkpt><trkpt lat="45.81300072646534" lon="11.094902052769834"><ele>633.5</ele><time>2026-05-02T14:29:06.511Z</time></trkpt><trkpt lat="45.81287714174462" lon="11.094984544145724"><ele>640.0</ele><time>2026-05-02T14:29:07.511Z</time></trkpt><trkpt lat="45.81275506546733" lon="11.095084856430987"><ele>646.5</ele><time>2026-05-02T14:29:08.511Z</time></trkpt><trkpt lat="45.812651996376786" lon="11.095229834710565"><ele>653.0</ele><time>2026-05-02T14:29:09.511Z</time></trkpt><trkpt lat="45.812546766107424" lon="11.095393161258407"><ele>653.0</ele><time>2026-05-02T14:29:10.511Z</time></trkpt><trkpt lat="45.81242461530429" lon="11.095568128067304"><ele>653.0</ele><time>2026-05-02T14:29:11.511Z</time></trkpt><trkpt lat="45.81226275679368" lon="11.095732158082676"><ele>653.0</ele><time>2026-05-02T14:29:12.511Z</time></trkpt><trkpt lat="45.812079756102186" lon="11.095864805390802"><ele>656.3333333333333</ele><time>2026-05-02T14:29:13.511Z</time></trkpt><trkpt lat="45.81191747968838" lon="11.095976195073005"><ele>659.6666666666666</ele><time>2026-05-02T14:29:14.511Z</time></trkpt><trkpt lat="45.8117735523306" lon="11.096080505925471"><ele>663.0</ele><time>2026-05-02T14:29:15.511Z</time></trkpt><trkpt lat="45.81164446970706" lon="11.09617142287494"><ele>663.0</ele><time>2026-05-02T14:29:16.511Z</time></trkpt><trkpt lat="45.81153971750174" lon="11.09621944427105"><ele>663.0</ele><time>2026-05-02T14:29:17.511Z</time></trkpt><trkpt lat="45.81142672127766" lon="11.096243241940563"><ele>663.0</ele><time>2026-05-02T14:29:18.511Z</time></trkpt><trkpt lat="45.81130225452495" lon="11.096229878062768"><ele>663.0</ele><time>2026-05-02T14:29:19.511Z</time></trkpt><trkpt lat="45.81117567075859" lon="11.096180028444556"><ele>663.0</ele><time>2026-05-02T14:29:20.511Z</time></trkpt><trkpt lat="45.811047963354454" lon="11.096084198022227"><ele>663.0</ele><time>2026-05-02T14:29:21.511Z</time></trkpt><trkpt lat="45.810923243215505" lon="11.095979711129921"><ele>663.0</ele><time>2026-05-02T14:29:22.511Z</time></trkpt><trkpt lat="45.810796601974985" lon="11.09586353728536"><ele>663.0</ele><time>2026-05-02T14:29:23.511Z</time></trkpt><trkpt lat="45.81067835472045" lon="11.095818602060845"><ele>666.5</ele><time>2026-05-02T14:29:24.511Z</time></trkpt><trkpt lat="45.8105463851721" lon="11.09580016724169"><ele>670.0</ele><time>2026-05-02T14:29:25.511Z</time></trkpt><trkpt lat="45.81041208951569" lon="11.095803314577015"><ele>673.5</ele><time>2026-05-02T14:29:26.511Z</time></trkpt><trkpt lat="45.81029211500936" lon="11.095766598592345"><ele>677.0</ele><time>2026-05-02T14:29:27.511Z</time></trkpt><trkpt lat="45.81018323607666" lon="11.095676561244314"><ele>670.5</ele><time>2026-05-02T14:29:28.511Z</time></trkpt><trkpt lat="45.81006606900145" lon="11.095576927016129"><ele>664.0</ele><time>2026-05-02T14:29:29.511Z</time></trkpt><trkpt lat="45.80995408300582" lon="11.095502650977096"><ele>657.5</ele><time>2026-05-02T14:29:30.511Z</time></trkpt><trkpt lat="45.80983689473598" lon="11.095465923138477"><ele>651.0</ele><time>2026-05-02T14:29:31.511Z</time></trkpt><trkpt lat="45.80971641763936" lon="11.0954275822665"><ele>651.0</ele><time>2026-05-02T14:29:32.511Z</time></trkpt><trkpt lat="45.80959964748947" lon="11.095427682870463"><ele>651.0</ele><time>2026-05-02T14:29:33.511Z</time></trkpt><trkpt lat="45.80950666880767" lon="11.095586932077987"><ele>651.0</ele><time>2026-05-02T14:29:34.511Z</time></trkpt><trkpt lat="45.80943818437247" lon="11.09587172063682"><ele>657.6666666666666</ele><time>2026-05-02T14:29:35.511Z</time></trkpt><trkpt lat="45.80933787578361" lon="11.096054139243078"><ele>664.3333333333333</ele><time>2026-05-02T14:29:36.511Z</time></trkpt><trkpt lat="45.80922935930372" lon="11.096223071531083"><ele>671.0</ele><time>2026-05-02T14:29:37.511Z</time></trkpt><trkpt lat="45.80912823963116" lon="11.096388656082704"><ele>671.0</ele><time>2026-05-02T14:29:38.511Z</time></trkpt><trkpt lat="45.809033486814265" lon="11.09654463851198"><ele>671.0</ele><time>2026-05-02T14:29:39.511Z</time></trkpt><trkpt lat="45.80893818493383" lon="11.096674540317181"><ele>671.0</ele><time>2026-05-02T14:29:40.511Z</time></trkpt><trkpt lat="45.80882310858193" lon="11.096800396157278"><ele>671.0</ele><time>2026-05-02T14:29:41.511Z</time></trkpt><trkpt lat="45.80872338250189" lon="11.096931740304871"><ele>670.6666666666666</ele><time>2026-05-02T14:29:42.511Z</time></trkpt><trkpt lat="45.8085549495795" lon="11.096965192431496"><ele>670.3333333333334</ele><time>2026-05-02T14:29:43.511Z</time></trkpt><trkpt lat="45.80838355857151" lon="11.096990451610992"><ele>670.0</ele><time>2026-05-02T14:29:44.511Z</time></trkpt><trkpt lat="45.80821313992123" lon="11.097022376448688"><ele>670.0</ele><time>2026-05-02T14:29:45.511Z</time></trkpt><trkpt lat="45.80805875438161" lon="11.097039626063777"><ele>670.0</ele><time>2026-05-02T14:29:46.511Z</time></trkpt><trkpt lat="45.80792532560388" lon="11.097047737326355"><ele>670.0</ele><time>2026-05-02T14:29:47.511Z</time></trkpt><trkpt lat="45.80778657255272" lon="11.09705616654044"><ele>670.0</ele><time>2026-05-02T14:29:48.511Z</time></trkpt><trkpt lat="45.80766862716851" lon="11.0970977285424"><ele>666.25</ele><time>2026-05-02T14:29:49.511Z</time></trkpt><trkpt lat="45.8075573762208" lon="11.097180914744383"><ele>662.5</ele><time>2026-05-02T14:29:50.511Z</time></trkpt><trkpt lat="45.807431116974584" lon="11.097229161600465"><ele>658.75</ele><time>2026-05-02T14:29:51.511Z</time></trkpt><trkpt lat="45.80732747185009" lon="11.097339174796247"><ele>655.0</ele><time>2026-05-02T14:29:52.511Z</time></trkpt><trkpt lat="45.80724611958879" lon="11.097489970464492"><ele>665.6666666666667</ele><time>2026-05-02T14:29:53.511Z</time></trkpt><trkpt lat="45.807165790412874" lon="11.097660715317735"><ele>676.3333333333334</ele><time>2026-05-02T14:29:54.511Z</time></trkpt><trkpt lat="45.8070606324136" lon="11.09780903557317"><ele>687.0</ele><time>2026-05-02T14:29:55.511Z</time></trkpt><trkpt lat="45.80692444877893" lon="11.097925425619598"><ele>686.75</ele><time>2026-05-02T14:29:56.511Z</time></trkpt><trkpt lat="45.8067970872061" lon="11.098048674671544"><ele>686.5</ele><time>2026-05-02T14:29:57.511Z</time></trkpt><trkpt lat="45.806682474721136" lon="11.098186190809301"><ele>686.25</ele><time>2026-05-02T14:29:58.511Z</time></trkpt><trkpt lat="45.806590749072896" lon="11.09832850600027"><ele>686.0</ele><time>2026-05-02T14:29:59.511Z</time></trkpt><trkpt lat="45.80650019684494" lon="11.0984651789786"><ele>686.0</ele><time>2026-05-02T14:30:00.511Z</time></trkpt><trkpt lat="45.80638428208024" lon="11.098584650218081"><ele>686.0</ele><time>2026-05-02T14:30:01.511Z</time></trkpt><trkpt lat="45.806259984776176" lon="11.098669065799854"><ele>686.0</ele><time>2026-05-02T14:30:02.511Z</time></trkpt><trkpt lat="45.80611074619901" lon="11.098742644463396"><ele>686.0</ele><time>2026-05-02T14:30:03.511Z</time></trkpt><trkpt lat="45.80598663339264" lon="11.098826594528962"><ele>681.0</ele><time>2026-05-02T14:30:04.511Z</time></trkpt><trkpt lat="45.80585314489946" lon="11.0988998584435"><ele>676.0</ele><time>2026-05-02T14:30:05.511Z</time></trkpt><trkpt lat="45.8057355151225" lon="11.098946705335692"><ele>671.0</ele><time>2026-05-02T14:30:06.511Z</time></trkpt><trkpt lat="45.805638024950476" lon="11.098936538090584"><ele>666.0</ele><time>2026-05-02T14:30:07.511Z</time></trkpt><trkpt lat="45.805475250534265" lon="11.098854022742204"><ele>666.0</ele><time>2026-05-02T14:30:08.511Z</time></trkpt><trkpt lat="45.805292436503485" lon="11.098735120344111"><ele>666.0</ele><time>2026-05-02T14:30:09.511Z</time></trkpt><trkpt lat="45.80513772703564" lon="11.09871901569026"><ele>666.0</ele><time>2026-05-02T14:30:10.511Z</time></trkpt><trkpt lat="45.80497146764439" lon="11.098699983207139"><ele>665.0</ele><time>2026-05-02T14:30:11.511Z</time></trkpt><trkpt lat="45.80483400718959" lon="11.098715182934791"><ele>664.0</ele><time>2026-05-02T14:30:12.511Z</time></trkpt><trkpt lat="45.80469485048573" lon="11.098700251382358"><ele>663.0</ele><time>2026-05-02T14:30:13.511Z</time></trkpt><trkpt lat="45.80456590779388" lon="11.098709590023145"><ele>662.0</ele><time>2026-05-02T14:30:14.511Z</time></trkpt><trkpt lat="45.8044588031501" lon="11.098773810171174"><ele>662.0</ele><time>2026-05-02T14:30:15.511Z</time></trkpt><trkpt lat="45.80433155155399" lon="11.098842705667415"><ele>662.0</ele><time>2026-05-02T14:30:16.511Z</time></trkpt><trkpt lat="45.804208774285314" lon="11.098896375842628"><ele>662.0</ele><time>2026-05-02T14:30:17.511Z</time></trkpt><trkpt lat="45.80409386727889" lon="11.098913899009439"><ele>662.0</ele><time>2026-05-02T14:30:18.511Z</time></trkpt><trkpt lat="45.80395936403111" lon="11.098868429703325"><ele>659.0</ele><time>2026-05-02T14:30:19.511Z</time></trkpt><trkpt lat="45.80382144628078" lon="11.09882929744056"><ele>656.0</ele><time>2026-05-02T14:30:20.511Z</time></trkpt><trkpt lat="45.8036551839325" lon="11.09876009045844"><ele>653.0</ele><time>2026-05-02T14:30:21.511Z</time></trkpt><trkpt lat="45.80351286867021" lon="11.09870835036386"><ele>651.0</ele><time>2026-05-02T14:30:22.511Z</time></trkpt><trkpt lat="45.803374104866194" lon="11.09865465086604"><ele>649.0</ele><time>2026-05-02T14:30:23.511Z</time></trkpt><trkpt lat="45.80324510086032" lon="11.09858669386848"><ele>647.0</ele><time>2026-05-02T14:30:24.511Z</time></trkpt><trkpt lat="45.80314457353288" lon="11.098514376141207"><ele>645.0</ele><time>2026-05-02T14:30:25.511Z</time></trkpt><trkpt lat="45.80305134015808" lon="11.098478010085383"><ele>645.0</ele><time>2026-05-02T14:30:26.511Z</time></trkpt><trkpt lat="45.80295411821501" lon="11.09847587608205"><ele>645.0</ele><time>2026-05-02T14:30:27.511Z</time></trkpt><trkpt lat="45.80286042841294" lon="11.098569308741007"><ele>645.0</ele><time>2026-05-02T14:30:28.511Z</time></trkpt><trkpt lat="45.80275535182225" lon="11.098696245749975"><ele>645.0</ele><time>2026-05-02T14:30:29.511Z</time></trkpt><trkpt lat="45.802655205250964" lon="11.098805904078707"><ele>633.6666666666666</ele><time>2026-05-02T14:30:30.511Z</time></trkpt><trkpt lat="45.80253585260709" lon="11.098933575234799"><ele>622.3333333333333</ele><time>2026-05-02T14:30:31.511Z</time></trkpt><trkpt lat="45.80241757148387" lon="11.099045798782956"><ele>611.0</ele><time>2026-05-02T14:30:32.511Z</time></trkpt><trkpt lat="45.8022615768596" lon="11.099119735159888"><ele>618.3333333333333</ele><time>2026-05-02T14:30:33.511Z</time></trkpt><trkpt lat="45.80210039134008" lon="11.099186720372535"><ele>625.6666666666666</ele><time>2026-05-02T14:30:34.511Z</time></trkpt><trkpt lat="45.80195859720624" lon="11.099300175305606"><ele>633.0</ele><time>2026-05-02T14:30:35.511Z</time></trkpt><trkpt lat="45.80182991637002" lon="11.099401353657303"><ele>633.0</ele><time>2026-05-02T14:30:36.511Z</time></trkpt><trkpt lat="45.801688334570656" lon="11.099469852433153"><ele>633.0</ele><time>2026-05-02T14:30:37.511Z</time></trkpt><trkpt lat="45.80155600261484" lon="11.099526846156396"><ele>633.0</ele><time>2026-05-02T14:30:38.511Z</time></trkpt><trkpt lat="45.80143818098172" lon="11.099563036470638"><ele>633.0</ele><time>2026-05-02T14:30:39.511Z</time></trkpt><trkpt lat="45.801348224492834" lon="11.099598106291666"><ele>633.0</ele><time>2026-05-02T14:30:40.511Z</time></trkpt><trkpt lat="45.80126265209381" lon="11.099691474668441"><ele>633.0</ele><time>2026-05-02T14:30:41.511Z</time></trkpt><trkpt lat="45.80117674688411" lon="11.099856890733454"><ele>633.0</ele><time>2026-05-02T14:30:42.511Z</time></trkpt><trkpt lat="45.801076614183955" lon="11.100065741854637"><ele>633.0</ele><time>2026-05-02T14:30:43.511Z</time></trkpt><trkpt lat="45.80097811237711" lon="11.10026527129004"><ele>634.3333333333334</ele><time>2026-05-02T14:30:44.511Z</time></trkpt><trkpt lat="45.8008788246983" lon="11.100474775031916"><ele>635.6666666666667</ele><time>2026-05-02T14:30:45.511Z</time></trkpt><trkpt lat="45.80081790767356" lon="11.100661967927374"><ele>637.0</ele><time>2026-05-02T14:30:46.511Z</time></trkpt><trkpt lat="45.80075435459199" lon="11.10083911654881"><ele>647.0</ele><time>2026-05-02T14:30:47.511Z</time></trkpt><trkpt lat="45.80067506380854" lon="11.100986984020834"><ele>657.0</ele><time>2026-05-02T14:30:48.511Z</time></trkpt><trkpt lat="45.80054617306275" lon="11.101097697843011"><ele>667.0</ele><time>2026-05-02T14:30:49.511Z</time></trkpt><trkpt lat="45.80043976082724" lon="11.101205928666353"><ele>677.0</ele><time>2026-05-02T14:30:50.511Z</time></trkpt><trkpt lat="45.80032992326947" lon="11.101287084463003"><ele>677.0</ele><time>2026-05-02T14:30:51.511Z</time></trkpt><trkpt lat="45.80021478719961" lon="11.101353295864783"><ele>677.0</ele><time>2026-05-02T14:30:52.511Z</time></trkpt><trkpt lat="45.8001021756116" lon="11.101363011386205"><ele>677.0</ele><time>2026-05-02T14:30:53.511Z</time></trkpt><trkpt lat="45.799982639512486" lon="11.101372723617413"><ele>677.0</ele><time>2026-05-02T14:30:54.511Z</time></trkpt><trkpt lat="45.799796532869536" lon="11.101263699623125"><ele>668.75</ele><time>2026-05-02T14:30:55.511Z</time></trkpt><trkpt lat="45.7996296195893" lon="11.101222505260308"><ele>660.5</ele><time>2026-05-02T14:30:56.511Z</time></trkpt><trkpt lat="45.79949128951325" lon="11.101221258096206"><ele>652.25</ele><time>2026-05-02T14:30:57.511Z</time></trkpt><trkpt lat="45.79936080663058" lon="11.101215230557587"><ele>644.0</ele><time>2026-05-02T14:30:58.511Z</time></trkpt><trkpt lat="45.79923123966801" lon="11.101200466776987"><ele>646.0</ele><time>2026-05-02T14:30:59.511Z</time></trkpt><trkpt lat="45.799130020279414" lon="11.101263960580365"><ele>648.0</ele><time>2026-05-02T14:31:00.511Z</time></trkpt><trkpt lat="45.79906751601155" lon="11.101364256842245"><ele>650.0</ele><time>2026-05-02T14:31:01.511Z</time></trkpt><trkpt lat="45.79904876018566" lon="11.101537243177313"><ele>652.0</ele><time>2026-05-02T14:31:02.511Z</time></trkpt><trkpt lat="45.79902414627989" lon="11.101738393441424"><ele>652.0</ele><time>2026-05-02T14:31:03.511Z</time></trkpt><trkpt lat="45.79897137202847" lon="11.101880041260396"><ele>652.0</ele><time>2026-05-02T14:31:04.511Z</time></trkpt><trkpt lat="45.79890140249132" lon="11.102077906463897"><ele>652.0</ele><time>2026-05-02T14:31:05.511Z</time></trkpt><trkpt lat="45.7988332107284" lon="11.102268821734938"><ele>652.0</ele><time>2026-05-02T14:31:06.511Z</time></trkpt><trkpt lat="45.798756137831624" lon="11.102411753328708"><ele>649.5</ele><time>2026-05-02T14:31:07.511Z</time></trkpt><trkpt lat="45.79868730231548" lon="11.102548354248722"><ele>647.0</ele><time>2026-05-02T14:31:08.511Z</time></trkpt><trkpt lat="45.79862106795865" lon="11.102624039528322"><ele>644.5</ele><time>2026-05-02T14:31:09.511Z</time></trkpt><trkpt lat="45.79842453099169" lon="11.102644861701453"><ele>642.0</ele><time>2026-05-02T14:31:10.511Z</time></trkpt><trkpt lat="45.798303704682844" lon="11.102680852193718"><ele>642.0</ele><time>2026-05-02T14:31:11.511Z</time></trkpt><trkpt lat="45.79813636700396" lon="11.102825904631052"><ele>642.0</ele><time>2026-05-02T14:31:12.511Z</time></trkpt><trkpt lat="45.797976473040016" lon="11.102975790538027"><ele>642.0</ele><time>2026-05-02T14:31:13.511Z</time></trkpt><trkpt lat="45.79783364257073" lon="11.103170909733379"><ele>638.6666666666666</ele><time>2026-05-02T14:31:14.511Z</time></trkpt><trkpt lat="45.79769553146054" lon="11.103339171146985"><ele>635.3333333333333</ele><time>2026-05-02T14:31:15.511Z</time></trkpt><trkpt lat="45.797559418222185" lon="11.103478452424293"><ele>632.0</ele><time>2026-05-02T14:31:16.511Z</time></trkpt><trkpt lat="45.79741839283212" lon="11.103595546904057"><ele>632.0</ele><time>2026-05-02T14:31:17.511Z</time></trkpt><trkpt lat="45.79727295367371" lon="11.103688204306025"><ele>632.0</ele><time>2026-05-02T14:31:18.511Z</time></trkpt><trkpt lat="45.79720399577444" lon="11.103822030358591"><ele>632.0</ele><time>2026-05-02T14:31:19.511Z</time></trkpt><trkpt lat="45.797124782100425" lon="11.103964853389297"><ele>632.0</ele><time>2026-05-02T14:31:20.511Z</time></trkpt><trkpt lat="45.79705514049451" lon="11.10413759762409"><ele>636.0</ele><time>2026-05-02T14:31:21.511Z</time></trkpt><trkpt lat="45.79697200513069" lon="11.104305416800566"><ele>640.0</ele><time>2026-05-02T14:31:22.511Z</time></trkpt><trkpt lat="45.79690905192137" lon="11.104508244184187"><ele>644.0</ele><time>2026-05-02T14:31:23.511Z</time></trkpt><trkpt lat="45.79682743821154" lon="11.104685251107263"><ele>648.0</ele><time>2026-05-02T14:31:24.511Z</time></trkpt><trkpt lat="45.79673930167429" lon="11.104859821851196"><ele>641.6666666666666</ele><time>2026-05-02T14:31:25.511Z</time></trkpt><trkpt lat="45.79666373933147" lon="11.105052828353383"><ele>635.3333333333333</ele><time>2026-05-02T14:31:26.511Z</time></trkpt><trkpt lat="45.796572008819474" lon="11.105233138503793"><ele>629.0</ele><time>2026-05-02T14:31:27.511Z</time></trkpt><trkpt lat="45.79648471057539" lon="11.10539640726553"><ele>629.0</ele><time>2026-05-02T14:31:28.511Z</time></trkpt><trkpt lat="45.7963964765648" lon="11.105577867112734"><ele>629.0</ele><time>2026-05-02T14:31:29.511Z</time></trkpt><trkpt lat="45.79629386188757" lon="11.105765130119508"><ele>629.0</ele><time>2026-05-02T14:31:30.511Z</time></trkpt><trkpt lat="45.79620540688987" lon="11.105929472714998"><ele>627.3333333333333</ele><time>2026-05-02T14:31:31.511Z</time></trkpt><trkpt lat="45.79608547370819" lon="11.106092809309292"><ele>625.6666666666666</ele><time>2026-05-02T14:31:32.511Z</time></trkpt><trkpt lat="45.79596745552696" lon="11.106262608616287"><ele>624.0</ele><time>2026-05-02T14:31:33.511Z</time></trkpt><trkpt lat="45.79582985141023" lon="11.106426505883972"><ele>624.0</ele><time>2026-05-02T14:31:34.511Z</time></trkpt><trkpt lat="45.795672595879495" lon="11.106566925252293"><ele>624.0</ele><time>2026-05-02T14:31:35.511Z</time></trkpt><trkpt lat="45.7955190069025" lon="11.10667661642084"><ele>624.0</ele><time>2026-05-02T14:31:36.511Z</time></trkpt><trkpt lat="45.795355501513384" lon="11.106777262013066"><ele>625.3333333333334</ele><time>2026-05-02T14:31:37.511Z</time></trkpt><trkpt lat="45.7951735957238" lon="11.106866347717485"><ele>626.6666666666667</ele><time>2026-05-02T14:31:38.511Z</time></trkpt><trkpt lat="45.794992327175194" lon="11.106962658407667"><ele>628.0</ele><time>2026-05-02T14:31:39.511Z</time></trkpt><trkpt lat="45.79483331829947" lon="11.107048433018495"><ele>628.0</ele><time>2026-05-02T14:31:40.511Z</time></trkpt><trkpt lat="45.79467150309249" lon="11.107166664904257"><ele>628.0</ele><time>2026-05-02T14:31:41.511Z</time></trkpt><trkpt lat="45.7944927481189" lon="11.107255568260102"><ele>628.0</ele><time>2026-05-02T14:31:42.511Z</time></trkpt><trkpt lat="45.794330099773795" lon="11.107302969355505"><ele>629.0</ele><time>2026-05-02T14:31:43.511Z</time></trkpt><trkpt lat="45.794174582153374" lon="11.10738681717579"><ele>630.0</ele><time>2026-05-02T14:31:44.511Z</time></trkpt><trkpt lat="45.79403215059569" lon="11.107459883631252"><ele>631.0</ele><time>2026-05-02T14:31:45.511Z</time></trkpt><trkpt lat="45.79389492712112" lon="11.107526123320627"><ele>633.6666666666667</ele><time>2026-05-02T14:31:46.511Z</time></trkpt><trkpt lat="45.79375055431295" lon="11.10760511821549"><ele>636.3333333333334</ele><time>2026-05-02T14:31:47.511Z</time></trkpt><trkpt lat="45.79360656685025" lon="11.107689037882114"><ele>639.0</ele><time>2026-05-02T14:31:48.511Z</time></trkpt><trkpt lat="45.79346260707657" lon="11.10777659393976"><ele>639.6666666666666</ele><time>2026-05-02T14:31:49.511Z</time></trkpt><trkpt lat="45.79332171561697" lon="11.107849604940132"><ele>640.3333333333333</ele><time>2026-05-02T14:31:50.511Z</time></trkpt><trkpt lat="45.793181172416695" lon="11.107922682238346"><ele>641.0</ele><time>2026-05-02T14:31:51.511Z</time></trkpt><trkpt lat="45.793047108266514" lon="11.108032259775985"><ele>641.0</ele><time>2026-05-02T14:31:52.511Z</time></trkpt><trkpt lat="45.79291439480071" lon="11.108134596956148"><ele>641.0</ele><time>2026-05-02T14:31:53.511Z</time></trkpt><trkpt lat="45.79278406843488" lon="11.108239978182391"><ele>641.0</ele><time>2026-05-02T14:31:54.511Z</time></trkpt><trkpt lat="45.79265112004471" lon="11.108380827309674"><ele>641.5</ele><time>2026-05-02T14:31:55.511Z</time></trkpt><trkpt lat="45.79251482067599" lon="11.108492679009947"><ele>642.0</ele><time>2026-05-02T14:31:56.511Z</time></trkpt><trkpt lat="45.79239456640836" lon="11.108603394184149"><ele>642.5</ele><time>2026-05-02T14:31:57.511Z</time></trkpt><trkpt lat="45.792297356317285" lon="11.1087249985442"><ele>643.0</ele><time>2026-05-02T14:31:58.511Z</time></trkpt><trkpt lat="45.792201266447904" lon="11.108838665602539"><ele>643.0</ele><time>2026-05-02T14:31:59.511Z</time></trkpt><trkpt lat="45.7921596960083" lon="11.108987163682778"><ele>643.0</ele><time>2026-05-02T14:32:00.511Z</time></trkpt><trkpt lat="45.7921183878857" lon="11.109171206737061"><ele>643.0</ele><time>2026-05-02T14:32:01.511Z</time></trkpt><trkpt lat="45.79210048851652" lon="11.109383458926805"><ele>643.0</ele><time>2026-05-02T14:32:02.511Z</time></trkpt><trkpt lat="45.79209508095263" lon="11.109554963493919"><ele>643.6666666666667</ele><time>2026-05-02T14:32:03.511Z</time></trkpt><trkpt lat="45.792091436254374" lon="11.10976600998767"><ele>644.3333333333334</ele><time>2026-05-02T14:32:04.511Z</time></trkpt><trkpt lat="45.79209104686832" lon="11.109981371817938"><ele>645.0</ele><time>2026-05-02T14:32:05.511Z</time></trkpt><trkpt lat="45.79210141112792" lon="11.110204461402986"><ele>646.6666666666666</ele><time>2026-05-02T14:32:06.511Z</time></trkpt><trkpt lat="45.79211466118806" lon="11.110419653744412"><ele>648.3333333333333</ele><time>2026-05-02T14:32:07.511Z</time></trkpt><trkpt lat="45.79214868752848" lon="11.11066408341322"><ele>650.0</ele><time>2026-05-02T14:32:08.511Z</time></trkpt><trkpt lat="45.79219311006524" lon="11.110899714696723"><ele>652.0</ele><time>2026-05-02T14:32:09.511Z</time></trkpt><trkpt lat="45.792240239911365" lon="11.11113669613208"><ele>654.0</ele><time>2026-05-02T14:32:10.511Z</time></trkpt><trkpt lat="45.7922915322125" lon="11.111353300390386"><ele>656.0</ele><time>2026-05-02T14:32:11.511Z</time></trkpt><trkpt lat="45.79233987058902" lon="11.111559402953969"><ele>656.25</ele><time>2026-05-02T14:32:12.511Z</time></trkpt><trkpt lat="45.79237338479999" lon="11.111753403487068"><ele>656.5</ele><time>2026-05-02T14:32:13.511Z</time></trkpt><trkpt lat="45.79240900471931" lon="11.111944452844263"><ele>656.75</ele><time>2026-05-02T14:32:14.511Z</time></trkpt><trkpt lat="45.79243753493231" lon="11.112124287021762"><ele>657.0</ele><time>2026-05-02T14:32:15.511Z</time></trkpt><trkpt lat="45.79245759379558" lon="11.112286062969225"><ele>657.25</ele><time>2026-05-02T14:32:16.511Z</time></trkpt><trkpt lat="45.79251212429228" lon="11.11243442391722"><ele>657.5</ele><time>2026-05-02T14:32:17.511Z</time></trkpt><trkpt lat="45.79255883814688" lon="11.112612268681428"><ele>657.75</ele><time>2026-05-02T14:32:18.511Z</time></trkpt><trkpt lat="45.792592633713255" lon="11.112805553951462"><ele>658.0</ele><time>2026-05-02T14:32:19.511Z</time></trkpt><trkpt lat="45.792615094469255" lon="11.113015252582933"><ele>656.0</ele><time>2026-05-02T14:32:20.511Z</time></trkpt><trkpt lat="45.79263767054794" lon="11.113249324782952"><ele>654.0</ele><time>2026-05-02T14:32:21.511Z</time></trkpt><trkpt lat="45.79265819768745" lon="11.113470947723474"><ele>652.0</ele><time>2026-05-02T14:32:22.511Z</time></trkpt><trkpt lat="45.79268110698524" lon="11.113693623075429"><ele>663.6666666666667</ele><time>2026-05-02T14:32:23.511Z</time></trkpt><trkpt lat="45.79269756432186" lon="11.113911236176166"><ele>675.3333333333334</ele><time>2026-05-02T14:32:24.511Z</time></trkpt><trkpt lat="45.79271522439493" lon="11.114136873141003"><ele>687.0</ele><time>2026-05-02T14:32:25.511Z</time></trkpt><trkpt lat="45.792746365381056" lon="11.114353754661584"><ele>688.0</ele><time>2026-05-02T14:32:26.511Z</time></trkpt><trkpt lat="45.79276984173842" lon="11.114555935277586"><ele>689.0</ele><time>2026-05-02T14:32:27.511Z</time></trkpt><trkpt lat="45.7927803384026" lon="11.11474821820449"><ele>690.0</ele><time>2026-05-02T14:32:28.511Z</time></trkpt><trkpt lat="45.79277418917768" lon="11.114931659669333"><ele>691.0</ele><time>2026-05-02T14:32:29.511Z</time></trkpt><trkpt lat="45.79275767169287" lon="11.115098716598192"><ele>692.0</ele><time>2026-05-02T14:32:30.511Z</time></trkpt><trkpt lat="45.792728774827346" lon="11.115257849761067"><ele>693.0</ele><time>2026-05-02T14:32:31.511Z</time></trkpt><trkpt lat="45.79267686687958" lon="11.115384849953188"><ele>694.0</ele><time>2026-05-02T14:32:32.511Z</time></trkpt><trkpt lat="45.792607562338176" lon="11.11549771771908"><ele>695.0</ele><time>2026-05-02T14:32:33.511Z</time></trkpt><trkpt lat="45.79243798019604" lon="11.115575048803857"><ele>686.0</ele><time>2026-05-02T14:32:34.511Z</time></trkpt><trkpt lat="45.79225409551877" lon="11.115600430998526"><ele>677.0</ele><time>2026-05-02T14:32:35.511Z</time></trkpt><trkpt lat="45.79211892487289" lon="11.115588931920788"><ele>668.0</ele><time>2026-05-02T14:32:36.511Z</time></trkpt><trkpt lat="45.79201667934637" lon="11.115557840324042"><ele>659.0</ele><time>2026-05-02T14:32:37.511Z</time></trkpt><trkpt lat="45.791934326831964" lon="11.115489479702434"><ele>659.0</ele><time>2026-05-02T14:32:38.511Z</time></trkpt><trkpt lat="45.79187265050769" lon="11.11533800327136"><ele>659.0</ele><time>2026-05-02T14:32:39.511Z</time></trkpt><trkpt lat="45.79181633396876" lon="11.115146866434669"><ele>659.0</ele><time>2026-05-02T14:32:40.511Z</time></trkpt><trkpt lat="45.79175009405951" lon="11.114935354847997"><ele>659.0</ele><time>2026-05-02T14:32:41.511Z</time></trkpt><trkpt lat="45.791662279808506" lon="11.114735962614082"><ele>655.3333333333333</ele><time>2026-05-02T14:32:42.511Z</time></trkpt><trkpt lat="45.79152794629003" lon="11.114561027327461"><ele>651.6666666666666</ele><time>2026-05-02T14:32:43.511Z</time></trkpt><trkpt lat="45.7913559017481" lon="11.11437885444163"><ele>648.0</ele><time>2026-05-02T14:32:44.511Z</time></trkpt><trkpt lat="45.791203251012604" lon="11.114208813621818"><ele>644.6666666666666</ele><time>2026-05-02T14:32:45.511Z</time></trkpt><trkpt lat="45.791077166718104" lon="11.114049654365367"><ele>641.3333333333333</ele><time>2026-05-02T14:32:46.511Z</time></trkpt><trkpt lat="45.79096004521381" lon="11.1138793391816"><ele>638.0</ele><time>2026-05-02T14:32:47.511Z</time></trkpt><trkpt lat="45.790850556408884" lon="11.113695114694487"><ele>642.6666666666666</ele><time>2026-05-02T14:32:48.511Z</time></trkpt><trkpt lat="45.790730717910165" lon="11.113515428241111"><ele>647.3333333333334</ele><time>2026-05-02T14:32:49.511Z</time></trkpt><trkpt lat="45.790623841363185" lon="11.113355867573846"><ele>652.0</ele><time>2026-05-02T14:32:50.511Z</time></trkpt><trkpt lat="45.79050946683412" lon="11.113150828625027"><ele>652.0</ele><time>2026-05-02T14:32:51.511Z</time></trkpt><trkpt lat="45.790410113640625" lon="11.112951643997294"><ele>652.0</ele><time>2026-05-02T14:32:52.511Z</time></trkpt><trkpt lat="45.790336823522864" lon="11.112759192859638"><ele>652.0</ele><time>2026-05-02T14:32:53.511Z</time></trkpt><trkpt lat="45.79025826070451" lon="11.112583086810732"><ele>648.5</ele><time>2026-05-02T14:32:54.511Z</time></trkpt><trkpt lat="45.7901621555395" lon="11.11241033971744"><ele>645.0</ele><time>2026-05-02T14:32:55.511Z</time></trkpt><trkpt lat="45.79009512766819" lon="11.112343596328259"><ele>641.5</ele><time>2026-05-02T14:32:56.511Z</time></trkpt><trkpt lat="45.79022546041815" lon="11.11222538546802"><ele>638.0</ele><time>2026-05-02T14:32:57.511Z</time></trkpt><trkpt lat="45.79015161844039" lon="11.112134293277482"><ele>644.0</ele><time>2026-05-02T14:32:58.511Z</time></trkpt><trkpt lat="45.79007985384764" lon="11.112051792378988"><ele>650.0</ele><time>2026-05-02T14:32:59.511Z</time></trkpt><trkpt lat="45.790026156455355" lon="11.11194762814791"><ele>656.0</ele><time>2026-05-02T14:33:00.511Z</time></trkpt><trkpt lat="45.78992681975596" lon="11.111900580565774"><ele>662.0</ele><time>2026-05-02T14:33:01.511Z</time></trkpt><trkpt lat="45.78982999788249" lon="11.111846445609748"><ele>668.0</ele><time>2026-05-02T14:33:02.511Z</time></trkpt><trkpt lat="45.78973029728095" lon="11.111743026399227"><ele>668.0</ele><time>2026-05-02T14:33:03.511Z</time></trkpt><trkpt lat="45.78958524343763" lon="11.111766848146507"><ele>668.0</ele><time>2026-05-02T14:33:04.511Z</time></trkpt><trkpt lat="45.78940745455099" lon="11.111834370559562"><ele>668.0</ele><time>2026-05-02T14:33:05.511Z</time></trkpt><trkpt lat="45.78930070784604" lon="11.111924728529761"><ele>668.25</ele><time>2026-05-02T14:33:06.511Z</time></trkpt><trkpt lat="45.78917711104245" lon="11.111901424504813"><ele>668.5</ele><time>2026-05-02T14:33:07.511Z</time></trkpt><trkpt lat="45.78906027172398" lon="11.11188075487703"><ele>668.75</ele><time>2026-05-02T14:33:08.511Z</time></trkpt><trkpt lat="45.78893081309994" lon="11.11180693466354"><ele>669.0</ele><time>2026-05-02T14:33:09.511Z</time></trkpt><trkpt lat="45.78882573754378" lon="11.1117444108384"><ele>669.0</ele><time>2026-05-02T14:33:10.511Z</time></trkpt><trkpt lat="45.78870588583482" lon="11.111669516314228"><ele>669.0</ele><time>2026-05-02T14:33:11.511Z</time></trkpt><trkpt lat="45.78860387640352" lon="11.111504524262083"><ele>669.0</ele><time>2026-05-02T14:33:12.511Z</time></trkpt><trkpt lat="45.78848751020347" lon="11.111392726740663"><ele>669.0</ele><time>2026-05-02T14:33:13.511Z</time></trkpt><trkpt lat="45.78835991871084" lon="11.111274393420954"><ele>668.5</ele><time>2026-05-02T14:33:14.511Z</time></trkpt><trkpt lat="45.7882491917685" lon="11.111153242190234"><ele>668.0</ele><time>2026-05-02T14:33:15.511Z</time></trkpt><trkpt lat="45.788124515027256" lon="11.111044881444052"><ele>667.5</ele><time>2026-05-02T14:33:16.511Z</time></trkpt><trkpt lat="45.78801304655134" lon="11.110947546628827"><ele>667.0</ele><time>2026-05-02T14:33:17.511Z</time></trkpt><trkpt lat="45.78792831723959" lon="11.110850372563446"><ele>663.75</ele><time>2026-05-02T14:33:18.511Z</time></trkpt><trkpt lat="45.78784046750341" lon="11.110740830423566"><ele>660.5</ele><time>2026-05-02T14:33:19.511Z</time></trkpt><trkpt lat="45.7877464065361" lon="11.110610696860542"><ele>657.25</ele><time>2026-05-02T14:33:20.511Z</time></trkpt><trkpt lat="45.78770141519184" lon="11.110461597456565"><ele>654.0</ele><time>2026-05-02T14:33:21.511Z</time></trkpt><trkpt lat="45.787638091050454" lon="11.110301543934652"><ele>657.0</ele><time>2026-05-02T14:33:22.511Z</time></trkpt><trkpt lat="45.78756888882303" lon="11.1101409776057"><ele>660.0</ele><time>2026-05-02T14:33:23.511Z</time></trkpt><trkpt lat="45.78747900914906" lon="11.10994430460425"><ele>663.0</ele><time>2026-05-02T14:33:24.511Z</time></trkpt><trkpt lat="45.78741940107442" lon="11.109748197582471"><ele>666.0</ele><time>2026-05-02T14:33:25.511Z</time></trkpt><trkpt lat="45.78733605221052" lon="11.109561200522084"><ele>666.0</ele><time>2026-05-02T14:33:26.511Z</time></trkpt><trkpt lat="45.78725937077129" lon="11.109361728000286"><ele>666.0</ele><time>2026-05-02T14:33:27.511Z</time></trkpt><trkpt lat="45.78718271718969" lon="11.109199927575483"><ele>666.0</ele><time>2026-05-02T14:33:28.511Z</time></trkpt><trkpt lat="45.7871016742908" lon="11.109054817287973"><ele>666.0</ele><time>2026-05-02T14:33:29.511Z</time></trkpt><trkpt lat="45.786967070695496" lon="11.109033382213328"><ele>665.75</ele><time>2026-05-02T14:33:30.511Z</time></trkpt><trkpt lat="45.78685256300747" lon="11.10899146850392"><ele>665.5</ele><time>2026-05-02T14:33:31.511Z</time></trkpt><trkpt lat="45.786730337715206" lon="11.108969794039846"><ele>665.25</ele><time>2026-05-02T14:33:32.511Z</time></trkpt><trkpt lat="45.78657740979283" lon="11.109039349579017"><ele>665.0</ele><time>2026-05-02T14:33:33.511Z</time></trkpt><trkpt lat="45.78641767896115" lon="11.109098693589527"><ele>667.6666666666666</ele><time>2026-05-02T14:33:34.511Z</time></trkpt><trkpt lat="45.78624563165248" lon="11.10919830878075"><ele>670.3333333333334</ele><time>2026-05-02T14:33:35.511Z</time></trkpt><trkpt lat="45.786080751890765" lon="11.109299414804713"><ele>673.0</ele><time>2026-05-02T14:33:36.511Z</time></trkpt><trkpt lat="45.78594709557825" lon="11.109437924856818"><ele>673.0</ele><time>2026-05-02T14:33:37.511Z</time></trkpt><trkpt lat="45.78581285873475" lon="11.10952927195084"><ele>673.0</ele><time>2026-05-02T14:33:38.511Z</time></trkpt><trkpt lat="45.78567876426744" lon="11.109584142843698"><ele>673.0</ele><time>2026-05-02T14:33:39.511Z</time></trkpt><trkpt lat="45.785559758543904" lon="11.109658616266858"><ele>673.0</ele><time>2026-05-02T14:33:40.511Z</time></trkpt><trkpt lat="45.7854714030517" lon="11.109786794812495"><ele>679.6666666666667</ele><time>2026-05-02T14:33:41.511Z</time></trkpt><trkpt lat="45.785376326991134" lon="11.109961964362338"><ele>686.3333333333334</ele><time>2026-05-02T14:33:42.511Z</time></trkpt><trkpt lat="45.78529834772564" lon="11.11014149013212"><ele>693.0</ele><time>2026-05-02T14:33:43.511Z</time></trkpt><trkpt lat="45.78520836102055" lon="11.110348978007378"><ele>693.0</ele><time>2026-05-02T14:33:44.511Z</time></trkpt><trkpt lat="45.78519345871877" lon="11.110626939569482"><ele>693.0</ele><time>2026-05-02T14:33:45.511Z</time></trkpt><trkpt lat="45.785160487802074" lon="11.110891658885519"><ele>693.0</ele><time>2026-05-02T14:33:46.511Z</time></trkpt><trkpt lat="45.78510863349307" lon="11.11116929907971"><ele>691.3333333333334</ele><time>2026-05-02T14:33:47.511Z</time></trkpt><trkpt lat="45.7850712154081" lon="11.111435788358873"><ele>689.6666666666667</ele><time>2026-05-02T14:33:48.511Z</time></trkpt><trkpt lat="45.78505213965353" lon="11.111687598200522"><ele>688.0</ele><time>2026-05-02T14:33:49.511Z</time></trkpt><trkpt lat="45.78504475496624" lon="11.111926442299302"><ele>688.0</ele><time>2026-05-02T14:33:50.511Z</time></trkpt><trkpt lat="45.78501720064734" lon="11.112169433848555"><ele>688.0</ele><time>2026-05-02T14:33:51.511Z</time></trkpt><trkpt lat="45.7849803979252" lon="11.112406547703745"><ele>688.0</ele><time>2026-05-02T14:33:52.511Z</time></trkpt><trkpt lat="45.78493078510605" lon="11.112615162404106"><ele>690.6666666666667</ele><time>2026-05-02T14:33:53.511Z</time></trkpt><trkpt lat="45.7847910267786" lon="11.112820695973388"><ele>693.3333333333334</ele><time>2026-05-02T14:33:54.511Z</time></trkpt><trkpt lat="45.78468262846303" lon="11.1130405032182"><ele>696.0</ele><time>2026-05-02T14:33:55.511Z</time></trkpt><trkpt lat="45.78450348602941" lon="11.113249456505955"><ele>694.0</ele><time>2026-05-02T14:33:56.511Z</time></trkpt><trkpt lat="45.78431332591647" lon="11.113405551955447"><ele>692.0</ele><time>2026-05-02T14:33:57.511Z</time></trkpt><trkpt lat="45.78417225078561" lon="11.11355830182228"><ele>690.0</ele><time>2026-05-02T14:33:58.511Z</time></trkpt><trkpt lat="45.78404948691007" lon="11.113658049414903"><ele>690.0</ele><time>2026-05-02T14:33:59.511Z</time></trkpt><trkpt lat="45.78393249513542" lon="11.113775199783746"><ele>690.0</ele><time>2026-05-02T14:34:00.511Z</time></trkpt><trkpt lat="45.78380477148385" lon="11.11389371731756"><ele>690.0</ele><time>2026-05-02T14:34:01.511Z</time></trkpt><trkpt lat="45.78370147135228" lon="11.113973550974741"><ele>690.0</ele><time>2026-05-02T14:34:02.511Z</time></trkpt><trkpt lat="45.7835899939732" lon="11.113998612898747"><ele>690.5</ele><time>2026-05-02T14:34:03.511Z</time></trkpt><trkpt lat="45.783472844762315" lon="11.113972409243548"><ele>691.0</ele><time>2026-05-02T14:34:04.511Z</time></trkpt><trkpt lat="45.783368580890794" lon="11.113923691510672"><ele>691.5</ele><time>2026-05-02T14:34:05.511Z</time></trkpt><trkpt lat="45.78325632837111" lon="11.113857659644685"><ele>692.0</ele><time>2026-05-02T14:34:06.511Z</time></trkpt><trkpt lat="45.78315301508905" lon="11.11373557250716"><ele>692.0</ele><time>2026-05-02T14:34:07.511Z</time></trkpt><trkpt lat="45.783029997128985" lon="11.11367093681445"><ele>692.0</ele><time>2026-05-02T14:34:08.511Z</time></trkpt><trkpt lat="45.78289214786277" lon="11.113705479743544"><ele>692.0</ele><time>2026-05-02T14:34:09.511Z</time></trkpt><trkpt lat="45.78276905275808" lon="11.113785806220921"><ele>692.0</ele><time>2026-05-02T14:34:10.511Z</time></trkpt><trkpt lat="45.78266913334417" lon="11.113866455660887"><ele>690.25</ele><time>2026-05-02T14:34:11.511Z</time></trkpt><trkpt lat="45.78260765642589" lon="11.114053534355566"><ele>688.5</ele><time>2026-05-02T14:34:12.511Z</time></trkpt><trkpt lat="45.78255774969055" lon="11.114221905109305"><ele>686.75</ele><time>2026-05-02T14:34:13.511Z</time></trkpt><trkpt lat="45.78248817994139" lon="11.114395084151468"><ele>685.0</ele><time>2026-05-02T14:34:14.511Z</time></trkpt><trkpt lat="45.78241398442666" lon="11.114569609441626"><ele>689.0</ele><time>2026-05-02T14:34:15.511Z</time></trkpt><trkpt lat="45.78233164707679" lon="11.114728435231678"><ele>693.0</ele><time>2026-05-02T14:34:16.511Z</time></trkpt><trkpt lat="45.78227926191811" lon="11.114861322722298"><ele>697.0</ele><time>2026-05-02T14:34:17.511Z</time></trkpt><trkpt lat="45.782237075915724" lon="11.115006756478968"><ele>701.0</ele><time>2026-05-02T14:34:18.511Z</time></trkpt><trkpt lat="45.782242021045846" lon="11.115150614183767"><ele>704.25</ele><time>2026-05-02T14:34:19.511Z</time></trkpt><trkpt lat="45.78225518627674" lon="11.115338191241596"><ele>707.5</ele><time>2026-05-02T14:34:20.511Z</time></trkpt><trkpt lat="45.782260552805646" lon="11.115531281349861"><ele>710.75</ele><time>2026-05-02T14:34:21.511Z</time></trkpt><trkpt lat="45.78230751581309" lon="11.115765032456137"><ele>714.0</ele><time>2026-05-02T14:34:22.511Z</time></trkpt><trkpt lat="45.782333719832856" lon="11.115957678270242"><ele>715.6</ele><time>2026-05-02T14:34:23.511Z</time></trkpt><trkpt lat="45.78236192982861" lon="11.116148144064386"><ele>717.2</ele><time>2026-05-02T14:34:24.511Z</time></trkpt><trkpt lat="45.7823671351945" lon="11.116313769881735"><ele>718.8000000000001</ele><time>2026-05-02T14:34:25.511Z</time></trkpt><trkpt lat="45.78234812672811" lon="11.116439437796197"><ele>720.4000000000001</ele><time>2026-05-02T14:34:26.511Z</time></trkpt><trkpt lat="45.78233167957918" lon="11.116562719966305"><ele>722.0</ele><time>2026-05-02T14:34:27.511Z</time></trkpt><trkpt lat="45.78233227766236" lon="11.11667815444678"><ele>723.0</ele><time>2026-05-02T14:34:28.511Z</time></trkpt><trkpt lat="45.782369309014555" lon="11.116792463503263"><ele>724.0</ele><time>2026-05-02T14:34:29.511Z</time></trkpt><trkpt lat="45.782448902660846" lon="11.116917256697013"><ele>725.0</ele><time>2026-05-02T14:34:30.511Z</time></trkpt><trkpt lat="45.782517576146354" lon="11.117054304222101"><ele>726.0</ele><time>2026-05-02T14:34:31.511Z</time></trkpt><trkpt lat="45.782577543329076" lon="11.117206215923808"><ele>727.0</ele><time>2026-05-02T14:34:32.511Z</time></trkpt><trkpt lat="45.78263446394626" lon="11.117358471908286"><ele>726.75</ele><time>2026-05-02T14:34:33.511Z</time></trkpt><trkpt lat="45.78267782960221" lon="11.117507850431556"><ele>726.5</ele><time>2026-05-02T14:34:34.511Z</time></trkpt><trkpt lat="45.78273545046785" lon="11.117637025436549"><ele>726.25</ele><time>2026-05-02T14:34:35.511Z</time></trkpt><trkpt lat="45.78275243396798" lon="11.117785483671117"><ele>726.0</ele><time>2026-05-02T14:34:36.511Z</time></trkpt><trkpt lat="45.7827145984157" lon="11.11796857493773"><ele>731.0</ele><time>2026-05-02T14:34:37.511Z</time></trkpt><trkpt lat="45.782725842316" lon="11.118134492947936"><ele>736.0</ele><time>2026-05-02T14:34:38.511Z</time></trkpt><trkpt lat="45.78274313936786" lon="11.11829085543351"><ele>741.0</ele><time>2026-05-02T14:34:39.511Z</time></trkpt><trkpt lat="45.782756755478516" lon="11.118453614435262"><ele>746.0</ele><time>2026-05-02T14:34:40.511Z</time></trkpt><trkpt lat="45.78273009060208" lon="11.118598957306075"><ele>751.0</ele><time>2026-05-02T14:34:41.511Z</time></trkpt><trkpt lat="45.78269945408947" lon="11.118728506773623"><ele>751.0</ele><time>2026-05-02T14:34:42.511Z</time></trkpt><trkpt lat="45.78272802194649" lon="11.118858376916172"><ele>751.0</ele><time>2026-05-02T14:34:43.511Z</time></trkpt><trkpt lat="45.78273611992733" lon="11.118987260689993"><ele>751.0</ele><time>2026-05-02T14:34:44.511Z</time></trkpt><trkpt lat="45.782750351141495" lon="11.119137195805449"><ele>751.0</ele><time>2026-05-02T14:34:45.511Z</time></trkpt><trkpt lat="45.78274958821452" lon="11.119285080810407"><ele>751.0</ele><time>2026-05-02T14:34:46.511Z</time></trkpt><trkpt lat="45.782762050777464" lon="11.119429899675179"><ele>749.75</ele><time>2026-05-02T14:34:47.511Z</time></trkpt><trkpt lat="45.782779070362395" lon="11.119582770255265"><ele>748.5</ele><time>2026-05-02T14:34:48.511Z</time></trkpt><trkpt lat="45.782802696746664" lon="11.11976007696943"><ele>747.25</ele><time>2026-05-02T14:34:49.511Z</time></trkpt><trkpt lat="45.78285618848808" lon="11.119904607145495"><ele>746.0</ele><time>2026-05-02T14:34:50.511Z</time></trkpt><trkpt lat="45.78288733278927" lon="11.120046803118756"><ele>745.4</ele><time>2026-05-02T14:34:51.511Z</time></trkpt><trkpt lat="45.78290841491281" lon="11.120185694522975"><ele>744.8</ele><time>2026-05-02T14:34:52.511Z</time></trkpt><trkpt lat="45.78291303053031" lon="11.120328433808893"><ele>744.1999999999999</ele><time>2026-05-02T14:34:53.511Z</time></trkpt><trkpt lat="45.782913823243476" lon="11.120472454094154"><ele>743.5999999999999</ele><time>2026-05-02T14:34:54.511Z</time></trkpt><trkpt lat="45.78288410190707" lon="11.120615755861374"><ele>743.0</ele><time>2026-05-02T14:34:55.511Z</time></trkpt><trkpt lat="45.78285146980225" lon="11.120767351350365"><ele>742.5999999999999</ele><time>2026-05-02T14:34:56.511Z</time></trkpt><trkpt lat="45.78279532166062" lon="11.120904103730902"><ele>742.1999999999999</ele><time>2026-05-02T14:34:57.511Z</time></trkpt><trkpt lat="45.782736500995064" lon="11.121034062890084"><ele>741.8</ele><time>2026-05-02T14:34:58.511Z</time></trkpt><trkpt lat="45.78267651091024" lon="11.121171581993757"><ele>741.4</ele><time>2026-05-02T14:34:59.511Z</time></trkpt><trkpt lat="45.782623416745174" lon="11.121315940279557"><ele>741.0</ele><time>2026-05-02T14:35:00.511Z</time></trkpt><trkpt lat="45.78255101809021" lon="11.121412984612224"><ele>738.0</ele><time>2026-05-02T14:35:01.511Z</time></trkpt><trkpt lat="45.78246656281167" lon="11.121482380352646"><ele>735.0</ele><time>2026-05-02T14:35:02.511Z</time></trkpt><trkpt lat="45.782434906104655" lon="11.121635672767985"><ele>732.0</ele><time>2026-05-02T14:35:03.511Z</time></trkpt><trkpt lat="45.78240367354096" lon="11.121756393069774"><ele>729.0</ele><time>2026-05-02T14:35:04.511Z</time></trkpt><trkpt lat="45.78237560960747" lon="11.121884923902515"><ele>726.0</ele><time>2026-05-02T14:35:05.511Z</time></trkpt><trkpt lat="45.782359837736756" lon="11.122026222174155"><ele>726.0</ele><time>2026-05-02T14:35:06.511Z</time></trkpt><trkpt lat="45.782361265300544" lon="11.122181904732313"><ele>726.0</ele><time>2026-05-02T14:35:07.511Z</time></trkpt><trkpt lat="45.782366340524405" lon="11.122376472477244"><ele>726.0</ele><time>2026-05-02T14:35:08.511Z</time></trkpt><trkpt lat="45.78239483442468" lon="11.122586050465573"><ele>726.0</ele><time>2026-05-02T14:35:09.511Z</time></trkpt><trkpt lat="45.78242576142709" lon="11.122823765213575"><ele>726.3333333333334</ele><time>2026-05-02T14:35:10.511Z</time></trkpt><trkpt lat="45.782467095004144" lon="11.123079808315543"><ele>726.6666666666667</ele><time>2026-05-02T14:35:11.511Z</time></trkpt><trkpt lat="45.7825053471789" lon="11.1233175935326"><ele>727.0</ele><time>2026-05-02T14:35:12.511Z</time></trkpt><trkpt lat="45.782542316439454" lon="11.123542040334678"><ele>728.0</ele><time>2026-05-02T14:35:13.511Z</time></trkpt><trkpt lat="45.7825900795555" lon="11.123785736119059"><ele>729.0</ele><time>2026-05-02T14:35:14.511Z</time></trkpt><trkpt lat="45.78266877199591" lon="11.124006260817445"><ele>730.0</ele><time>2026-05-02T14:35:15.511Z</time></trkpt><trkpt lat="45.78273519050678" lon="11.124202837749467"><ele>738.0</ele><time>2026-05-02T14:35:16.511Z</time></trkpt><trkpt lat="45.78277191928767" lon="11.12439819858034"><ele>746.0</ele><time>2026-05-02T14:35:17.511Z</time></trkpt><trkpt lat="45.782778001280484" lon="11.12458490920052"><ele>754.0</ele><time>2026-05-02T14:35:18.511Z</time></trkpt><trkpt lat="45.782779412181725" lon="11.124806043014493"><ele>762.0</ele><time>2026-05-02T14:35:19.511Z</time></trkpt><trkpt lat="45.78277665828475" lon="11.125036378454926"><ele>763.0</ele><time>2026-05-02T14:35:20.511Z</time></trkpt><trkpt lat="45.78278590152601" lon="11.12525915540216"><ele>764.0</ele><time>2026-05-02T14:35:21.511Z</time></trkpt><trkpt lat="45.7827857662569" lon="11.125467274955561"><ele>765.0</ele><time>2026-05-02T14:35:22.511Z</time></trkpt><trkpt lat="45.78277611999065" lon="11.125654619110826"><ele>766.0</ele><time>2026-05-02T14:35:23.511Z</time></trkpt><trkpt lat="45.782733464176154" lon="11.125809747366123"><ele>768.0</ele><time>2026-05-02T14:35:24.511Z</time></trkpt><trkpt lat="45.782733802319946" lon="11.125959496284759"><ele>770.0</ele><time>2026-05-02T14:35:25.511Z</time></trkpt><trkpt lat="45.78268998159988" lon="11.12605404437522"><ele>772.0</ele><time>2026-05-02T14:35:26.511Z</time></trkpt><trkpt lat="45.78264867604724" lon="11.126152775487004"><ele>774.0</ele><time>2026-05-02T14:35:27.511Z</time></trkpt><trkpt lat="45.78249529895028" lon="11.126170588878555"><ele>776.0</ele><time>2026-05-02T14:35:29.511Z</time></trkpt><trkpt lat="45.78234407929728" lon="11.126096164773031"><ele>767.5</ele><time>2026-05-02T14:35:30.511Z</time></trkpt><trkpt lat="45.78222826437751" lon="11.125997273098129"><ele>759.0</ele><time>2026-05-02T14:35:31.511Z</time></trkpt><trkpt lat="45.78216232624171" lon="11.125926362622536"><ele>750.5</ele><time>2026-05-02T14:35:32.511Z</time></trkpt><trkpt lat="45.78208685578544" lon="11.125725076359668"><ele>742.0</ele><time>2026-05-02T14:35:33.511Z</time></trkpt><trkpt lat="45.782020044863685" lon="11.125560929151156"><ele>740.0</ele><time>2026-05-02T14:35:34.511Z</time></trkpt><trkpt lat="45.781946089769974" lon="11.12541093410767"><ele>738.0</ele><time>2026-05-02T14:35:35.511Z</time></trkpt><trkpt lat="45.781892612827626" lon="11.125249539981795"><ele>736.0</ele><time>2026-05-02T14:35:36.511Z</time></trkpt><trkpt lat="45.78182469413912" lon="11.125098218432386"><ele>734.0</ele><time>2026-05-02T14:35:37.511Z</time></trkpt><trkpt lat="45.78175436732423" lon="11.124948614824394"><ele>733.2</ele><time>2026-05-02T14:35:38.511Z</time></trkpt><trkpt lat="45.78167602914258" lon="11.124814551917249"><ele>732.4000000000001</ele><time>2026-05-02T14:35:39.511Z</time></trkpt><trkpt lat="45.7816181208367" lon="11.1246785259721"><ele>731.6</ele><time>2026-05-02T14:35:40.511Z</time></trkpt><trkpt lat="45.781558704947116" lon="11.124548847850628"><ele>730.8</ele><time>2026-05-02T14:35:41.511Z</time></trkpt><trkpt lat="45.78150915805726" lon="11.124412972344226"><ele>730.0</ele><time>2026-05-02T14:35:42.511Z</time></trkpt><trkpt lat="45.781450019039795" lon="11.124295134454535"><ele>730.0</ele><time>2026-05-02T14:35:43.511Z</time></trkpt><trkpt lat="45.781386155148155" lon="11.1242075939675"><ele>730.0</ele><time>2026-05-02T14:35:44.511Z</time></trkpt><trkpt lat="45.78129961475071" lon="11.12421988825077"><ele>730.0</ele><time>2026-05-02T14:35:45.511Z</time></trkpt><trkpt lat="45.781224197836906" lon="11.124242355375513"><ele>730.0</ele><time>2026-05-02T14:35:46.511Z</time></trkpt><trkpt lat="45.781136263593545" lon="11.124288285869069"><ele>730.0</ele><time>2026-05-02T14:35:48.511Z</time></trkpt><trkpt lat="45.78110026225937" lon="11.124411302342658"><ele>730.0</ele><time>2026-05-02T14:35:54.511Z</time></trkpt><trkpt lat="45.78097661413775" lon="11.124526320034478"><ele>733.2</ele><time>2026-05-02T14:35:56.511Z</time></trkpt><trkpt lat="45.78087291743385" lon="11.124564471096935"><ele>736.4</ele><time>2026-05-02T14:35:57.511Z</time></trkpt><trkpt lat="45.780803710219395" lon="11.124576347249599"><ele>739.5999999999999</ele><time>2026-05-02T14:35:58.511Z</time></trkpt><trkpt lat="45.78069816756304" lon="11.124563745334495"><ele>742.8</ele><time>2026-05-02T14:36:00.511Z</time></trkpt><trkpt lat="45.78060641797832" lon="11.124570190492355"><ele>746.0</ele><time>2026-05-02T14:36:02.511Z</time></trkpt><trkpt lat="45.78051651802005" lon="11.124586593827747"><ele>746.0</ele><time>2026-05-02T14:36:04.511Z</time></trkpt><trkpt lat="45.7804254557743" lon="11.124598501347077"><ele>746.0</ele><time>2026-05-02T14:36:06.511Z</time></trkpt><trkpt lat="45.78031432296466" lon="11.12461379723298"><ele>746.0</ele><time>2026-05-02T14:36:08.511Z</time></trkpt><trkpt lat="45.780176541211375" lon="11.124613908430947"><ele>746.0</ele><time>2026-05-02T14:36:10.511Z</time></trkpt><trkpt lat="45.7800805018246" lon="11.124608353655537"><ele>746.0</ele><time>2026-05-02T14:36:11.511Z</time></trkpt><trkpt lat="45.7799719078757" lon="11.12460057170377"><ele>746.3333333333333</ele><time>2026-05-02T14:36:12.511Z</time></trkpt><trkpt lat="45.77981606507595" lon="11.12450845061227"><ele>746.6666666666666</ele><time>2026-05-02T14:36:13.511Z</time></trkpt><trkpt lat="45.77965638054619" lon="11.124345064620332"><ele>747.0</ele><time>2026-05-02T14:36:14.511Z</time></trkpt><trkpt lat="45.7794826049189" lon="11.12418991565824"><ele>746.0</ele><time>2026-05-02T14:36:15.511Z</time></trkpt><trkpt lat="45.77932267269176" lon="11.124070797955204"><ele>745.0</ele><time>2026-05-02T14:36:16.511Z</time></trkpt><trkpt lat="45.779168870301575" lon="11.123953874474697"><ele>744.0</ele><time>2026-05-02T14:36:17.511Z</time></trkpt><trkpt lat="45.779029293790295" lon="11.123848168580851"><ele>744.0</ele><time>2026-05-02T14:36:18.511Z</time></trkpt><trkpt lat="45.77891538971384" lon="11.123735052696372"><ele>744.0</ele><time>2026-05-02T14:36:19.511Z</time></trkpt><trkpt lat="45.77881717325225" lon="11.12363346062757"><ele>744.0</ele><time>2026-05-02T14:36:20.511Z</time></trkpt><trkpt lat="45.77873371268321" lon="11.123520647459596"><ele>744.0</ele><time>2026-05-02T14:36:21.511Z</time></trkpt><trkpt lat="45.77872771826399" lon="11.123273804651443"><ele>745.0</ele><time>2026-05-02T14:36:22.511Z</time></trkpt><trkpt lat="45.77871157669981" lon="11.12305029223018"><ele>746.0</ele><time>2026-05-02T14:36:23.511Z</time></trkpt><trkpt lat="45.778753477471334" lon="11.122817997322588"><ele>747.0</ele><time>2026-05-02T14:36:24.511Z</time></trkpt><trkpt lat="45.77881174173237" lon="11.122621121388095"><ele>747.0</ele><time>2026-05-02T14:36:25.511Z</time></trkpt><trkpt lat="45.778895562695155" lon="11.122398250600432"><ele>747.0</ele><time>2026-05-02T14:36:26.511Z</time></trkpt><trkpt lat="45.77905165954055" lon="11.122198814776159"><ele>747.0</ele><time>2026-05-02T14:36:27.511Z</time></trkpt><trkpt lat="45.779180135156885" lon="11.122005165342769"><ele>746.0</ele><time>2026-05-02T14:36:28.511Z</time></trkpt><trkpt lat="45.779236328922806" lon="11.121845225332645"><ele>745.0</ele><time>2026-05-02T14:36:29.511Z</time></trkpt><trkpt lat="45.77928634314097" lon="11.121676413219685"><ele>744.0</ele><time>2026-05-02T14:36:30.511Z</time></trkpt><trkpt lat="45.77926489637883" lon="11.121507292135444"><ele>743.0</ele><time>2026-05-02T14:36:31.511Z</time></trkpt><trkpt lat="45.77925196874561" lon="11.121368498490686"><ele>743.0</ele><time>2026-05-02T14:36:32.511Z</time></trkpt><trkpt lat="45.779232638690516" lon="11.12119337071764"><ele>743.0</ele><time>2026-05-02T14:36:33.511Z</time></trkpt><trkpt lat="45.779168001837625" lon="11.120980581095655"><ele>743.0</ele><time>2026-05-02T14:36:34.511Z</time></trkpt><trkpt lat="45.77911653788065" lon="11.120838251204693"><ele>743.0</ele><time>2026-05-02T14:36:35.511Z</time></trkpt><trkpt lat="45.77908554935203" lon="11.120706155733686"><ele>739.5</ele><time>2026-05-02T14:36:36.511Z</time></trkpt><trkpt lat="45.77902029028473" lon="11.120609017527554"><ele>736.0</ele><time>2026-05-02T14:36:37.511Z</time></trkpt><trkpt lat="45.77886439546089" lon="11.120525504532514"><ele>732.5</ele><time>2026-05-02T14:36:38.511Z</time></trkpt><trkpt lat="45.778699214997594" lon="11.120454133072474"><ele>729.0</ele><time>2026-05-02T14:36:39.511Z</time></trkpt><trkpt lat="45.77853768800944" lon="11.120371472921775"><ele>734.0</ele><time>2026-05-02T14:36:40.511Z</time></trkpt><trkpt lat="45.77831244635473" lon="11.120311070051923"><ele>739.0</ele><time>2026-05-02T14:36:41.511Z</time></trkpt><trkpt lat="45.778092101777204" lon="11.12025225766488"><ele>739.0</ele><time>2026-05-02T14:36:42.511Z</time></trkpt><trkpt lat="45.777909223166716" lon="11.120182647154543"><ele>739.0</ele><time>2026-05-02T14:36:43.511Z</time></trkpt><trkpt lat="45.777720176960095" lon="11.120141415722136"><ele>739.0</ele><time>2026-05-02T14:36:44.511Z</time></trkpt><trkpt lat="45.77757445583667" lon="11.120111898585813"><ele>739.25</ele><time>2026-05-02T14:36:45.511Z</time></trkpt><trkpt lat="45.777432127688364" lon="11.120117060268408"><ele>739.5</ele><time>2026-05-02T14:36:46.511Z</time></trkpt><trkpt lat="45.77731588807217" lon="11.12006916413355"><ele>739.75</ele><time>2026-05-02T14:36:47.511Z</time></trkpt><trkpt lat="45.77719604861492" lon="11.120111108807663"><ele>740.0</ele><time>2026-05-02T14:36:48.511Z</time></trkpt><trkpt lat="45.777077189836724" lon="11.12016149291868"><ele>740.0</ele><time>2026-05-02T14:36:49.511Z</time></trkpt><trkpt lat="45.77695410907618" lon="11.120260993002155"><ele>740.0</ele><time>2026-05-02T14:36:50.511Z</time></trkpt><trkpt lat="45.776829495411334" lon="11.120369122170818"><ele>740.0</ele><time>2026-05-02T14:36:51.511Z</time></trkpt><trkpt lat="45.77672250553791" lon="11.120494343314398"><ele>740.0</ele><time>2026-05-02T14:36:52.511Z</time></trkpt><trkpt lat="45.776614677816355" lon="11.120550337353027"><ele>737.25</ele><time>2026-05-02T14:36:53.511Z</time></trkpt><trkpt lat="45.77646631668078" lon="11.120535239697855"><ele>734.5</ele><time>2026-05-02T14:36:54.511Z</time></trkpt><trkpt lat="45.77632683964183" lon="11.120483945217991"><ele>731.75</ele><time>2026-05-02T14:36:55.511Z</time></trkpt><trkpt lat="45.77619433797881" lon="11.120452147768004"><ele>729.0</ele><time>2026-05-02T14:36:56.511Z</time></trkpt><trkpt lat="45.77607887267583" lon="11.120445070966552"><ele>724.25</ele><time>2026-05-02T14:36:57.511Z</time></trkpt><trkpt lat="45.775970371417955" lon="11.120479811743865"><ele>719.5</ele><time>2026-05-02T14:36:58.511Z</time></trkpt><trkpt lat="45.77585844167867" lon="11.120536468539276"><ele>714.75</ele><time>2026-05-02T14:36:59.511Z</time></trkpt><trkpt lat="45.775745387446605" lon="11.120601108757434"><ele>710.0</ele><time>2026-05-02T14:37:00.511Z</time></trkpt><trkpt lat="45.77565350313224" lon="11.120727497902493"><ele>721.0</ele><time>2026-05-02T14:37:01.511Z</time></trkpt><trkpt lat="45.775547091769035" lon="11.120875243704335"><ele>732.0</ele><time>2026-05-02T14:37:02.511Z</time></trkpt><trkpt lat="45.7754440544746" lon="11.121035033912724"><ele>743.0</ele><time>2026-05-02T14:37:03.511Z</time></trkpt><trkpt lat="45.775354223499576" lon="11.121216159490205"><ele>743.0</ele><time>2026-05-02T14:37:04.511Z</time></trkpt><trkpt lat="45.775278068644894" lon="11.12136668577191"><ele>743.0</ele><time>2026-05-02T14:37:05.511Z</time></trkpt><trkpt lat="45.775204770123615" lon="11.12151513781917"><ele>743.0</ele><time>2026-05-02T14:37:06.511Z</time></trkpt><trkpt lat="45.775120050450205" lon="11.12165086431521"><ele>743.0</ele><time>2026-05-02T14:37:07.511Z</time></trkpt><trkpt lat="45.775043571806926" lon="11.121798148743952"><ele>741.5999999999999</ele><time>2026-05-02T14:37:08.511Z</time></trkpt><trkpt lat="45.77497390206939" lon="11.121933409103958"><ele>740.1999999999999</ele><time>2026-05-02T14:37:09.511Z</time></trkpt><trkpt lat="45.774900878702525" lon="11.122049760803158"><ele>738.8</ele><time>2026-05-02T14:37:10.511Z</time></trkpt><trkpt lat="45.774824381855005" lon="11.122147317932406"><ele>737.4</ele><time>2026-05-02T14:37:11.511Z</time></trkpt><trkpt lat="45.77473997411159" lon="11.122225273598932"><ele>736.0</ele><time>2026-05-02T14:37:12.511Z</time></trkpt><trkpt lat="45.774611224035" lon="11.122220643469069"><ele>736.0</ele><time>2026-05-02T14:37:13.511Z</time></trkpt><trkpt lat="45.77451507759395" lon="11.122205036752025"><ele>736.0</ele><time>2026-05-02T14:37:14.511Z</time></trkpt><trkpt lat="45.7744052622975" lon="11.122176777875307"><ele>736.0</ele><time>2026-05-02T14:37:15.511Z</time></trkpt><trkpt lat="45.77429958153934" lon="11.122109500042061"><ele>736.0</ele><time>2026-05-02T14:37:16.511Z</time></trkpt><trkpt lat="45.774188735459155" lon="11.121988995054778"><ele>734.3333333333334</ele><time>2026-05-02T14:37:17.511Z</time></trkpt><trkpt lat="45.774088930346096" lon="11.12176604539263"><ele>732.6666666666666</ele><time>2026-05-02T14:37:18.511Z</time></trkpt><trkpt lat="45.774024777565245" lon="11.121531953972827"><ele>731.0</ele><time>2026-05-02T14:37:19.511Z</time></trkpt><trkpt lat="45.77400689333385" lon="11.12137878140615"><ele>725.5</ele><time>2026-05-02T14:37:20.511Z</time></trkpt><trkpt lat="45.77389718412515" lon="11.121304940683347"><ele>720.0</ele><time>2026-05-02T14:37:21.511Z</time></trkpt><trkpt lat="45.77377853061056" lon="11.121242852926537"><ele>714.5</ele><time>2026-05-02T14:37:22.511Z</time></trkpt><trkpt lat="45.77363579695182" lon="11.121241673815563"><ele>709.0</ele><time>2026-05-02T14:37:23.511Z</time></trkpt><trkpt lat="45.77350694844359" lon="11.121338730893553"><ele>703.0</ele><time>2026-05-02T14:37:24.511Z</time></trkpt><trkpt lat="45.77334441169484" lon="11.121448999769727"><ele>697.0</ele><time>2026-05-02T14:37:25.511Z</time></trkpt><trkpt lat="45.77318225754823" lon="11.12156945420617"><ele>691.0</ele><time>2026-05-02T14:37:26.511Z</time></trkpt><trkpt lat="45.77305065028231" lon="11.12168447159309"><ele>690.0</ele><time>2026-05-02T14:37:27.511Z</time></trkpt><trkpt lat="45.77292612967325" lon="11.121774118152727"><ele>689.0</ele><time>2026-05-02T14:37:28.511Z</time></trkpt><trkpt lat="45.77283149554118" lon="11.12185936005239"><ele>688.0</ele><time>2026-05-02T14:37:29.511Z</time></trkpt><trkpt lat="45.772737425958944" lon="11.121990419760076"><ele>687.0</ele><time>2026-05-02T14:37:30.511Z</time></trkpt><trkpt lat="45.772672368439615" lon="11.122191543777983"><ele>687.0</ele><time>2026-05-02T14:37:31.511Z</time></trkpt><trkpt lat="45.7726157265781" lon="11.122340575808433"><ele>687.0</ele><time>2026-05-02T14:37:32.511Z</time></trkpt><trkpt lat="45.77254830313455" lon="11.12252266510774"><ele>687.0</ele><time>2026-05-02T14:37:33.511Z</time></trkpt><trkpt lat="45.77251455569641" lon="11.122726448935936"><ele>687.0</ele><time>2026-05-02T14:37:34.511Z</time></trkpt><trkpt lat="45.772451681150116" lon="11.122902590603355"><ele>693.0</ele><time>2026-05-02T14:37:35.511Z</time></trkpt><trkpt lat="45.772408297284485" lon="11.123055385732666"><ele>699.0</ele><time>2026-05-02T14:37:36.511Z</time></trkpt><trkpt lat="45.77236456255162" lon="11.123212847985904"><ele>705.0</ele><time>2026-05-02T14:37:37.511Z</time></trkpt><trkpt lat="45.77240734118056" lon="11.123460988695772"><ele>711.0</ele><time>2026-05-02T14:37:38.511Z</time></trkpt><trkpt lat="45.77241056391372" lon="11.123662974415426"><ele>712.25</ele><time>2026-05-02T14:37:39.511Z</time></trkpt><trkpt lat="45.772421351072424" lon="11.123860347399525"><ele>713.5</ele><time>2026-05-02T14:37:40.511Z</time></trkpt><trkpt lat="45.77243833726247" lon="11.124039498311088"><ele>714.75</ele><time>2026-05-02T14:37:41.511Z</time></trkpt><trkpt lat="45.772411287587154" lon="11.124229905146674"><ele>716.0</ele><time>2026-05-02T14:37:42.511Z</time></trkpt><trkpt lat="45.77235753213831" lon="11.124402674323997"><ele>716.25</ele><time>2026-05-02T14:37:43.511Z</time></trkpt><trkpt lat="45.77230961124511" lon="11.12454994984172"><ele>716.5</ele><time>2026-05-02T14:37:44.511Z</time></trkpt><trkpt lat="45.77218674581066" lon="11.124659493114688"><ele>716.75</ele><time>2026-05-02T14:37:45.511Z</time></trkpt><trkpt lat="45.77206958760661" lon="11.124757096808297"><ele>717.0</ele><time>2026-05-02T14:37:46.511Z</time></trkpt><trkpt lat="45.77191318277523" lon="11.124735947060675"><ele>712.6666666666666</ele><time>2026-05-02T14:37:47.511Z</time></trkpt><trkpt lat="45.771735235708" lon="11.124649089855055"><ele>708.3333333333333</ele><time>2026-05-02T14:37:48.511Z</time></trkpt><trkpt lat="45.77153104423084" lon="11.124556689748342"><ele>704.0</ele><time>2026-05-02T14:37:49.511Z</time></trkpt><trkpt lat="45.77131414077082" lon="11.12452002234025"><ele>704.0</ele><time>2026-05-02T14:37:50.511Z</time></trkpt><trkpt lat="45.771173559159315" lon="11.124512275906055"><ele>704.0</ele><time>2026-05-02T14:37:51.511Z</time></trkpt><trkpt lat="45.77106259602884" lon="11.12447734960774"><ele>704.0</ele><time>2026-05-02T14:37:52.511Z</time></trkpt><trkpt lat="45.77092909722081" lon="11.124504293444236"><ele>704.0</ele><time>2026-05-02T14:37:53.511Z</time></trkpt><trkpt lat="45.770805071260796" lon="11.124581021750757"><ele>702.5</ele><time>2026-05-02T14:37:54.511Z</time></trkpt><trkpt lat="45.77068310154418" lon="11.124735985477978"><ele>701.0</ele><time>2026-05-02T14:37:55.511Z</time></trkpt><trkpt lat="45.77059288689056" lon="11.124875394745922"><ele>699.5</ele><time>2026-05-02T14:37:56.511Z</time></trkpt><trkpt lat="45.77045476000131" lon="11.124967004487335"><ele>698.0</ele><time>2026-05-02T14:37:57.511Z</time></trkpt><trkpt lat="45.77037358379807" lon="11.125014411252488"><ele>696.75</ele><time>2026-05-02T14:37:58.511Z</time></trkpt><trkpt lat="45.7702809942243" lon="11.125022379396206"><ele>695.5</ele><time>2026-05-02T14:37:59.511Z</time></trkpt><trkpt lat="45.770152267438355" lon="11.125016918882666"><ele>694.25</ele><time>2026-05-02T14:38:00.511Z</time></trkpt><trkpt lat="45.770001087065786" lon="11.124978983330042"><ele>693.0</ele><time>2026-05-02T14:38:01.511Z</time></trkpt><trkpt lat="45.76988484446602" lon="11.125014036783314"><ele>693.0</ele><time>2026-05-02T14:38:02.511Z</time></trkpt><trkpt lat="45.769774490418044" lon="11.125125174131462"><ele>693.0</ele><time>2026-05-02T14:38:03.511Z</time></trkpt><trkpt lat="45.76966056732229" lon="11.125227355951198"><ele>693.0</ele><time>2026-05-02T14:38:04.511Z</time></trkpt><trkpt lat="45.7695527176511" lon="11.125383432151981"><ele>693.0</ele><time>2026-05-02T14:38:05.511Z</time></trkpt><trkpt lat="45.769453858873355" lon="11.125543042432886"><ele>693.0</ele><time>2026-05-02T14:38:06.511Z</time></trkpt><trkpt lat="45.769375661616785" lon="11.125685855935805"><ele>693.0</ele><time>2026-05-02T14:38:07.511Z</time></trkpt><trkpt lat="45.769290879491464" lon="11.125824988921206"><ele>693.0</ele><time>2026-05-02T14:38:08.511Z</time></trkpt><trkpt lat="45.76919993427851" lon="11.125974553597258"><ele>693.0</ele><time>2026-05-02T14:38:09.511Z</time></trkpt><trkpt lat="45.76908160018606" lon="11.126064150013619"><ele>691.75</ele><time>2026-05-02T14:38:10.511Z</time></trkpt><trkpt lat="45.76894783009404" lon="11.126113685842896"><ele>690.5</ele><time>2026-05-02T14:38:11.512Z</time></trkpt><trkpt lat="45.768823552198356" lon="11.126166500640531"><ele>689.25</ele><time>2026-05-02T14:38:12.512Z</time></trkpt><trkpt lat="45.76868318140973" lon="11.126200257945346"><ele>688.0</ele><time>2026-05-02T14:38:13.512Z</time></trkpt><trkpt lat="45.76855670740662" lon="11.126305045602551"><ele>687.0</ele><time>2026-05-02T14:38:14.512Z</time></trkpt><trkpt lat="45.76845837771729" lon="11.126477895246252"><ele>686.0</ele><time>2026-05-02T14:38:15.512Z</time></trkpt><trkpt lat="45.76835501733115" lon="11.126620569458888"><ele>685.0</ele><time>2026-05-02T14:38:16.512Z</time></trkpt><trkpt lat="45.76825469532566" lon="11.126791132142282"><ele>685.0</ele><time>2026-05-02T14:38:17.512Z</time></trkpt><trkpt lat="45.76813858921471" lon="11.12695349786345"><ele>685.0</ele><time>2026-05-02T14:38:18.512Z</time></trkpt><trkpt lat="45.76800930488025" lon="11.127094961509863"><ele>685.0</ele><time>2026-05-02T14:38:19.512Z</time></trkpt><trkpt lat="45.767870962541025" lon="11.127237184532595"><ele>685.0</ele><time>2026-05-02T14:38:20.512Z</time></trkpt><trkpt lat="45.76772477084323" lon="11.127379065115043"><ele>685.0</ele><time>2026-05-02T14:38:21.512Z</time></trkpt><trkpt lat="45.76757791660622" lon="11.127512919620619"><ele>685.0</ele><time>2026-05-02T14:38:22.512Z</time></trkpt><trkpt lat="45.7674386845681" lon="11.127638923978653"><ele>681.3333333333334</ele><time>2026-05-02T14:38:23.512Z</time></trkpt><trkpt lat="45.767297667112466" lon="11.127744624459226"><ele>677.6666666666666</ele><time>2026-05-02T14:38:24.512Z</time></trkpt><trkpt lat="45.76714940353823" lon="11.127827927521285"><ele>674.0</ele><time>2026-05-02T14:38:25.512Z</time></trkpt><trkpt lat="45.76699594543647" lon="11.127887538582861"><ele>670.5</ele><time>2026-05-02T14:38:26.512Z</time></trkpt><trkpt lat="45.76684133018406" lon="11.127908401993551"><ele>667.0</ele><time>2026-05-02T14:38:27.512Z</time></trkpt><trkpt lat="45.766725892042736" lon="11.127935633675465"><ele>663.5</ele><time>2026-05-02T14:38:28.512Z</time></trkpt><trkpt lat="45.7666028865463" lon="11.128007255524034"><ele>660.0</ele><time>2026-05-02T14:38:29.512Z</time></trkpt><trkpt lat="45.76650302730298" lon="11.128171799283624"><ele>665.3333333333334</ele><time>2026-05-02T14:38:30.512Z</time></trkpt><trkpt lat="45.766396841333595" lon="11.128328684870542"><ele>670.6666666666667</ele><time>2026-05-02T14:38:31.512Z</time></trkpt><trkpt lat="45.76631127224544" lon="11.128503926306381"><ele>676.0</ele><time>2026-05-02T14:38:32.512Z</time></trkpt><trkpt lat="45.76620655951344" lon="11.128665892229193"><ele>676.0</ele><time>2026-05-02T14:38:33.512Z</time></trkpt><trkpt lat="45.766095342184826" lon="11.128852839623601"><ele>676.0</ele><time>2026-05-02T14:38:34.512Z</time></trkpt><trkpt lat="45.7660039011141" lon="11.129037110359668"><ele>676.0</ele><time>2026-05-02T14:38:35.512Z</time></trkpt><trkpt lat="45.765950418100964" lon="11.129227883881828"><ele>673.75</ele><time>2026-05-02T14:38:36.512Z</time></trkpt><trkpt lat="45.76588122645177" lon="11.129396038738843"><ele>671.5</ele><time>2026-05-02T14:38:37.512Z</time></trkpt><trkpt lat="45.76580074713305" lon="11.129555575771963"><ele>669.25</ele><time>2026-05-02T14:38:38.512Z</time></trkpt><trkpt lat="45.76568794346407" lon="11.12968803437448"><ele>667.0</ele><time>2026-05-02T14:38:39.512Z</time></trkpt><trkpt lat="45.765602828774284" lon="11.129848231879938"><ele>669.5</ele><time>2026-05-02T14:38:40.512Z</time></trkpt><trkpt lat="45.765522813920164" lon="11.130008300962805"><ele>672.0</ele><time>2026-05-02T14:38:41.512Z</time></trkpt><trkpt lat="45.76548458874811" lon="11.130190043702331"><ele>674.5</ele><time>2026-05-02T14:38:42.512Z</time></trkpt><trkpt lat="45.765400261755204" lon="11.130366005746094"><ele>677.0</ele><time>2026-05-02T14:38:43.512Z</time></trkpt><trkpt lat="45.765328336068876" lon="11.130560474274233"><ele>679.25</ele><time>2026-05-02T14:38:44.512Z</time></trkpt><trkpt lat="45.76526618273374" lon="11.130753514454238"><ele>681.5</ele><time>2026-05-02T14:38:45.512Z</time></trkpt><trkpt lat="45.76524237093428" lon="11.130921041725708"><ele>683.75</ele><time>2026-05-02T14:38:46.512Z</time></trkpt><trkpt lat="45.76520349873776" lon="11.131058264118513"><ele>686.0</ele><time>2026-05-02T14:38:47.512Z</time></trkpt><trkpt lat="45.76519797809338" lon="11.131191913580196"><ele>682.8</ele><time>2026-05-02T14:38:48.512Z</time></trkpt><trkpt lat="45.76515386070487" lon="11.131286560330834"><ele>679.5999999999999</ele><time>2026-05-02T14:38:49.512Z</time></trkpt><trkpt lat="45.76500665620113" lon="11.131218138200833"><ele>676.4</ele><time>2026-05-02T14:38:50.512Z</time></trkpt><trkpt lat="45.764931112465774" lon="11.131141057055743"><ele>673.2</ele><time>2026-05-02T14:38:51.512Z</time></trkpt><trkpt lat="45.764878465069046" lon="11.13108534532967"><ele>670.0</ele><time>2026-05-02T14:38:52.512Z</time></trkpt><trkpt lat="45.764829571860034" lon="11.130988268476802"><ele>670.0</ele><time>2026-05-02T14:38:53.512Z</time></trkpt><trkpt lat="45.76477507319275" lon="11.130790976445104"><ele>670.0</ele><time>2026-05-02T14:38:54.512Z</time></trkpt><trkpt lat="45.76470424854019" lon="11.130659192245894"><ele>670.0</ele><time>2026-05-02T14:38:55.512Z</time></trkpt><trkpt lat="45.76458260206363" lon="11.130609765450721"><ele>670.0</ele><time>2026-05-02T14:38:56.512Z</time></trkpt><trkpt lat="45.7644628940948" lon="11.130585113823791"><ele>669.25</ele><time>2026-05-02T14:38:57.512Z</time></trkpt><trkpt lat="45.764323462728605" lon="11.13066958318911"><ele>668.5</ele><time>2026-05-02T14:38:58.512Z</time></trkpt><trkpt lat="45.764187160892135" lon="11.13072559763743"><ele>667.75</ele><time>2026-05-02T14:38:59.512Z</time></trkpt><trkpt lat="45.76404741105412" lon="11.130786800723223"><ele>667.0</ele><time>2026-05-02T14:39:00.512Z</time></trkpt><trkpt lat="45.76390977389701" lon="11.130880776276545"><ele>670.5</ele><time>2026-05-02T14:39:01.512Z</time></trkpt><trkpt lat="45.7637792303416" lon="11.130960701907554"><ele>674.0</ele><time>2026-05-02T14:39:02.512Z</time></trkpt><trkpt lat="45.76365283147" lon="11.131031849942"><ele>677.5</ele><time>2026-05-02T14:39:03.512Z</time></trkpt><trkpt lat="45.76353840150715" lon="11.131063488309112"><ele>681.0</ele><time>2026-05-02T14:39:04.512Z</time></trkpt><trkpt lat="45.76345072636667" lon="11.13101169253013"><ele>681.0</ele><time>2026-05-02T14:39:05.512Z</time></trkpt><trkpt lat="45.76335899233473" lon="11.130958704310824"><ele>681.0</ele><time>2026-05-02T14:39:06.512Z</time></trkpt><trkpt lat="45.76331047991237" lon="11.131018495649435"><ele>681.0</ele><time>2026-05-02T14:39:07.512Z</time></trkpt><trkpt lat="45.76332279529273" lon="11.131150882177087"><ele>681.0</ele><time>2026-05-02T14:39:08.512Z</time></trkpt><trkpt lat="45.763354277099594" lon="11.131257992307262"><ele>681.0</ele><time>2026-05-02T14:39:09.512Z</time></trkpt><trkpt lat="45.763440569235954" lon="11.131286186829344"><ele>681.0</ele><time>2026-05-02T14:39:10.512Z</time></trkpt><trkpt lat="45.76358240875847" lon="11.131239483102435"><ele>681.0</ele><time>2026-05-02T14:39:11.512Z</time></trkpt><trkpt lat="45.76368439845401" lon="11.131205701479935"><ele>681.0</ele><time>2026-05-02T14:39:12.512Z</time></trkpt><trkpt lat="45.76380074476129" lon="11.13117766028458"><ele>681.0</ele><time>2026-05-02T14:39:13.512Z</time></trkpt><trkpt lat="45.763975297021524" lon="11.13105669942293"><ele>681.0</ele><time>2026-05-02T14:39:14.512Z</time></trkpt><trkpt lat="45.76409030806675" lon="11.130993611908332"><ele>681.0</ele><time>2026-05-02T14:39:15.512Z</time></trkpt><trkpt lat="45.764212447110985" lon="11.131003494500924"><ele>681.0</ele><time>2026-05-02T14:39:16.512Z</time></trkpt><trkpt lat="45.764331252323935" lon="11.131018508747774"><ele>681.0</ele><time>2026-05-02T14:39:17.512Z</time></trkpt><trkpt lat="45.76441312666482" lon="11.131075502873331"><ele>681.0</ele><time>2026-05-02T14:39:18.512Z</time></trkpt><trkpt lat="45.764462135511515" lon="11.131163424715108"><ele>681.0</ele><time>2026-05-02T14:39:19.512Z</time></trkpt><trkpt lat="45.764459668532545" lon="11.131284558653453"><ele>681.0</ele><time>2026-05-02T14:39:21.512Z</time></trkpt><trkpt lat="45.76439134306269" lon="11.131488730640607"><ele>681.0</ele><time>2026-05-02T14:39:22.512Z</time></trkpt><trkpt lat="45.76423531254171" lon="11.131371452351766"><ele>681.0</ele><time>2026-05-02T14:39:23.512Z</time></trkpt><trkpt lat="45.76415487627173" lon="11.131306407866795"><ele>681.0</ele><time>2026-05-02T14:39:24.512Z</time></trkpt><trkpt lat="45.76403810713907" lon="11.131231848723287"><ele>681.0</ele><time>2026-05-02T14:39:25.512Z</time></trkpt><trkpt lat="45.76391802777046" lon="11.131263368331275"><ele>681.0</ele><time>2026-05-02T14:39:26.512Z</time></trkpt><trkpt lat="45.76377569298581" lon="11.131350906305894"><ele>681.0</ele><time>2026-05-02T14:39:27.512Z</time></trkpt><trkpt lat="45.76363541624203" lon="11.131472867633116"><ele>681.0</ele><time>2026-05-02T14:39:28.512Z</time></trkpt><trkpt lat="45.763467034206776" lon="11.131574432562996"><ele>690.0</ele><time>2026-05-02T14:39:29.512Z</time></trkpt><trkpt lat="45.76328411755893" lon="11.131692070185869"><ele>699.0</ele><time>2026-05-02T14:39:30.512Z</time></trkpt><trkpt lat="45.763123163197065" lon="11.131825952866961"><ele>708.0</ele><time>2026-05-02T14:39:31.512Z</time></trkpt><trkpt lat="45.76297360523201" lon="11.13192873944302"><ele>708.0</ele><time>2026-05-02T14:39:32.512Z</time></trkpt><trkpt lat="45.762831898957025" lon="11.132064783164573"><ele>708.0</ele><time>2026-05-02T14:39:33.512Z</time></trkpt><trkpt lat="45.762700986948445" lon="11.132256651390659"><ele>708.0</ele><time>2026-05-02T14:39:34.512Z</time></trkpt><trkpt lat="45.76255506841736" lon="11.132457948947229"><ele>713.3333333333334</ele><time>2026-05-02T14:39:35.512Z</time></trkpt><trkpt lat="45.7623878659879" lon="11.132635125583095"><ele>718.6666666666667</ele><time>2026-05-02T14:39:36.512Z</time></trkpt><trkpt lat="45.76222995752671" lon="11.132771680326956"><ele>724.0</ele><time>2026-05-02T14:39:37.512Z</time></trkpt><trkpt lat="45.76205470854693" lon="11.132884238653627"><ele>724.0</ele><time>2026-05-02T14:39:38.512Z</time></trkpt><trkpt lat="45.76188512707845" lon="11.132961160165662"><ele>724.0</ele><time>2026-05-02T14:39:39.512Z</time></trkpt><trkpt lat="45.7617217616859" lon="11.133057984764891"><ele>724.0</ele><time>2026-05-02T14:39:40.512Z</time></trkpt><trkpt lat="45.76155489500645" lon="11.133178439039597"><ele>729.6666666666667</ele><time>2026-05-02T14:39:41.512Z</time></trkpt><trkpt lat="45.76141185788738" lon="11.133308905338"><ele>735.3333333333334</ele><time>2026-05-02T14:39:42.512Z</time></trkpt><trkpt lat="45.761275303715465" lon="11.133433884485106"><ele>741.0</ele><time>2026-05-02T14:39:43.512Z</time></trkpt><trkpt lat="45.76117085146661" lon="11.133597630552181"><ele>741.0</ele><time>2026-05-02T14:39:44.512Z</time></trkpt><trkpt lat="45.76104356687128" lon="11.133770364932149"><ele>741.0</ele><time>2026-05-02T14:39:45.512Z</time></trkpt><trkpt lat="45.76094790380138" lon="11.13403206309244"><ele>741.0</ele><time>2026-05-02T14:39:46.512Z</time></trkpt><trkpt lat="45.7608073098916" lon="11.134255948384038"><ele>743.0</ele><time>2026-05-02T14:39:47.512Z</time></trkpt><trkpt lat="45.760637780276966" lon="11.13448317402105"><ele>745.0</ele><time>2026-05-02T14:39:48.512Z</time></trkpt><trkpt lat="45.76046511490276" lon="11.134728967593793"><ele>742.5</ele><time>2026-05-02T14:39:49.512Z</time></trkpt><trkpt lat="45.76028609558621" lon="11.134974924539756"><ele>740.0</ele><time>2026-05-02T14:39:50.512Z</time></trkpt><trkpt lat="45.76009562656349" lon="11.135230537750033"><ele>740.0</ele><time>2026-05-02T14:39:51.512Z</time></trkpt><trkpt lat="45.759909634613976" lon="11.135453234100925"><ele>740.0</ele><time>2026-05-02T14:39:52.512Z</time></trkpt><trkpt lat="45.75973554027312" lon="11.135663909771049"><ele>737.3333333333333</ele><time>2026-05-02T14:39:53.512Z</time></trkpt><trkpt lat="45.75956186067963" lon="11.135852625969012"><ele>734.6666666666666</ele><time>2026-05-02T14:39:54.512Z</time></trkpt><trkpt lat="45.75943353072101" lon="11.136056213632763"><ele>732.0</ele><time>2026-05-02T14:39:55.512Z</time></trkpt><trkpt lat="45.759302634823754" lon="11.136230387697204"><ele>732.0</ele><time>2026-05-02T14:39:56.512Z</time></trkpt><trkpt lat="45.759145122110986" lon="11.13637553006777"><ele>732.0</ele><time>2026-05-02T14:39:57.512Z</time></trkpt><trkpt lat="45.75902784497177" lon="11.136517416637536"><ele>732.0</ele><time>2026-05-02T14:39:58.512Z</time></trkpt><trkpt lat="45.75888775437033" lon="11.136657756658426"><ele>735.0</ele><time>2026-05-02T14:39:59.512Z</time></trkpt><trkpt lat="45.758738484794776" lon="11.136747695645184"><ele>738.0</ele><time>2026-05-02T14:40:00.512Z</time></trkpt><trkpt lat="45.75861737804258" lon="11.136839012133414"><ele>741.0</ele><time>2026-05-02T14:40:01.512Z</time></trkpt><trkpt lat="45.75848983197793" lon="11.136901613009453"><ele>744.0</ele><time>2026-05-02T14:40:02.512Z</time></trkpt><trkpt lat="45.75840119236255" lon="11.13698746619586"><ele>744.0</ele><time>2026-05-02T14:40:03.512Z</time></trkpt><trkpt lat="45.75831781467779" lon="11.13706241333149"><ele>744.0</ele><time>2026-05-02T14:40:04.512Z</time></trkpt><trkpt lat="45.75822877313632" lon="11.137190057519053"><ele>744.0</ele><time>2026-05-02T14:40:05.512Z</time></trkpt><trkpt lat="45.75818833697721" lon="11.137428952804974"><ele>744.0</ele><time>2026-05-02T14:40:06.512Z</time></trkpt><trkpt lat="45.758123259767224" lon="11.137585966743515"><ele>748.8000000000001</ele><time>2026-05-02T14:40:07.512Z</time></trkpt><trkpt lat="45.75809773399233" lon="11.137713318310777"><ele>753.6</ele><time>2026-05-02T14:40:08.512Z</time></trkpt><trkpt lat="45.758097175386084" lon="11.137809174829286"><ele>758.4</ele><time>2026-05-02T14:40:09.512Z</time></trkpt><trkpt lat="45.75815090778088" lon="11.1378988251296"><ele>763.2</ele><time>2026-05-02T14:40:10.512Z</time></trkpt><trkpt lat="45.758269712726424" lon="11.137893669769843"><ele>768.0</ele><time>2026-05-02T14:40:11.512Z</time></trkpt><trkpt lat="45.75837286340476" lon="11.137760021580043"><ele>768.0</ele><time>2026-05-02T14:40:12.512Z</time></trkpt><trkpt lat="45.75837931712466" lon="11.137608107109973"><ele>768.0</ele><time>2026-05-02T14:40:13.512Z</time></trkpt><trkpt lat="45.75839949357721" lon="11.137471731665018"><ele>768.0</ele><time>2026-05-02T14:40:14.512Z</time></trkpt><trkpt lat="45.75843987088377" lon="11.13736004130308"><ele>768.0</ele><time>2026-05-02T14:40:15.512Z</time></trkpt><trkpt lat="45.75848440967393" lon="11.13724095225782"><ele>768.0</ele><time>2026-05-02T14:40:16.512Z</time></trkpt><trkpt lat="45.758538710699185" lon="11.137118182432866"><ele>767.5</ele><time>2026-05-02T14:40:17.512Z</time></trkpt><trkpt lat="45.75858833448603" lon="11.137001520809937"><ele>767.0</ele><time>2026-05-02T14:40:18.512Z</time></trkpt><trkpt lat="45.75863265852059" lon="11.13687910784758"><ele>766.5</ele><time>2026-05-02T14:40:19.512Z</time></trkpt><trkpt lat="45.75869627335374" lon="11.136792010526515"><ele>766.0</ele><time>2026-05-02T14:40:20.512Z</time></trkpt><trkpt lat="45.75907851849688" lon="11.136602934907666"><ele>766.0</ele><time>2026-05-02T14:40:21.512Z</time></trkpt><trkpt lat="45.7593120621602" lon="11.136730051684205"><ele>766.0</ele><time>2026-05-02T14:40:22.512Z</time></trkpt><trkpt lat="45.759476434062144" lon="11.136661972445637"><ele>766.0</ele><time>2026-05-02T14:40:23.512Z</time></trkpt><trkpt lat="45.759597645705654" lon="11.136513837194496"><ele>769.3333333333334</ele><time>2026-05-02T14:40:24.512Z</time></trkpt><trkpt lat="45.75969724813979" lon="11.136357294360963"><ele>772.6666666666667</ele><time>2026-05-02T14:40:25.512Z</time></trkpt><trkpt lat="45.759814413941626" lon="11.136204999240686"><ele>776.0</ele><time>2026-05-02T14:40:26.512Z</time></trkpt><trkpt lat="45.75994226186454" lon="11.136044058758985"><ele>776.0</ele><time>2026-05-02T14:40:27.512Z</time></trkpt><trkpt lat="45.7600866732192" lon="11.135898976865818"><ele>776.0</ele><time>2026-05-02T14:40:28.512Z</time></trkpt><trkpt lat="45.76023036713558" lon="11.135800611448117"><ele>776.0</ele><time>2026-05-02T14:40:29.512Z</time></trkpt><trkpt lat="45.76034375356473" lon="11.135693175381146"><ele>777.4</ele><time>2026-05-02T14:40:30.512Z</time></trkpt><trkpt lat="45.760436691848845" lon="11.135600827558937"><ele>778.8</ele><time>2026-05-02T14:40:31.512Z</time></trkpt><trkpt lat="45.76048207952279" lon="11.135522879133617"><ele>780.1999999999999</ele><time>2026-05-02T14:40:32.512Z</time></trkpt><trkpt lat="45.76057988334057" lon="11.13547171215446"><ele>781.5999999999999</ele><time>2026-05-02T14:40:34.512Z</time></trkpt><trkpt lat="45.76062883321959" lon="11.135560410359668"><ele>783.0</ele><time>2026-05-02T14:40:35.512Z</time></trkpt><trkpt lat="45.76054429742465" lon="11.135790197740858"><ele>780.6666666666667</ele><time>2026-05-02T14:40:37.512Z</time></trkpt><trkpt lat="45.76036666446702" lon="11.136020780781474"><ele>778.3333333333334</ele><time>2026-05-02T14:40:38.512Z</time></trkpt><trkpt lat="45.76018540094645" lon="11.136080977092586"><ele>776.0</ele><time>2026-05-02T14:40:39.512Z</time></trkpt><trkpt lat="45.76004811863682" lon="11.136214968086952"><ele>776.0</ele><time>2026-05-02T14:40:40.512Z</time></trkpt><trkpt lat="45.759940074533404" lon="11.136398208457459"><ele>776.0</ele><time>2026-05-02T14:40:41.512Z</time></trkpt><trkpt lat="45.75985186767993" lon="11.136578498524818"><ele>776.0</ele><time>2026-05-02T14:40:42.512Z</time></trkpt><trkpt lat="45.75978639162487" lon="11.136741385531264"><ele>783.0</ele><time>2026-05-02T14:40:43.512Z</time></trkpt><trkpt lat="45.75972593376729" lon="11.136906201285479"><ele>790.0</ele><time>2026-05-02T14:40:44.512Z</time></trkpt><trkpt lat="45.75964884694176" lon="11.137059284997573"><ele>797.0</ele><time>2026-05-02T14:40:45.512Z</time></trkpt><trkpt lat="45.75957456239121" lon="11.137222901561064"><ele>804.0</ele><time>2026-05-02T14:40:46.512Z</time></trkpt><trkpt lat="45.75949559302171" lon="11.13735669598749"><ele>802.5</ele><time>2026-05-02T14:40:47.512Z</time></trkpt><trkpt lat="45.7593767987384" lon="11.137445110402627"><ele>801.0</ele><time>2026-05-02T14:40:48.512Z</time></trkpt><trkpt lat="45.759239146365715" lon="11.137509784462143"><ele>799.5</ele><time>2026-05-02T14:40:49.512Z</time></trkpt><trkpt lat="45.75911116106962" lon="11.137593201268261"><ele>798.0</ele><time>2026-05-02T14:40:50.512Z</time></trkpt><trkpt lat="45.758974679626206" lon="11.137664755700142"><ele>798.0</ele><time>2026-05-02T14:40:51.512Z</time></trkpt><trkpt lat="45.758876373305405" lon="11.137740802217738"><ele>798.0</ele><time>2026-05-02T14:40:52.512Z</time></trkpt><trkpt lat="45.75878032474558" lon="11.137790487721912"><ele>798.0</ele><time>2026-05-02T14:40:53.512Z</time></trkpt><trkpt lat="45.75870231809852" lon="11.137843161000452"><ele>798.0</ele><time>2026-05-02T14:40:54.512Z</time></trkpt><trkpt lat="45.758648153206764" lon="11.137901497168368"><ele>798.0</ele><time>2026-05-02T14:40:55.512Z</time></trkpt><trkpt lat="45.75862466995497" lon="11.13800637819297"><ele>798.0</ele><time>2026-05-02T14:40:56.512Z</time></trkpt><trkpt lat="45.7586674440542" lon="11.138109808347277"><ele>798.0</ele><time>2026-05-02T14:40:57.512Z</time></trkpt><trkpt lat="45.75875754739569" lon="11.13813636728961"><ele>798.0</ele><time>2026-05-02T14:40:58.512Z</time></trkpt><trkpt lat="45.758838520653846" lon="11.138067713060348"><ele>798.0</ele><time>2026-05-02T14:40:59.512Z</time></trkpt><trkpt lat="45.7589190103327" lon="11.137951779501357"><ele>798.0</ele><time>2026-05-02T14:41:00.512Z</time></trkpt><trkpt lat="45.75900375093724" lon="11.137866055693992"><ele>798.0</ele><time>2026-05-02T14:41:01.512Z</time></trkpt><trkpt lat="45.759100497599476" lon="11.137774596954278"><ele>798.0</ele><time>2026-05-02T14:41:02.512Z</time></trkpt><trkpt lat="45.75922172596955" lon="11.137702114728176"><ele>798.0</ele><time>2026-05-02T14:41:03.512Z</time></trkpt><trkpt lat="45.75937045516125" lon="11.137617380103972"><ele>798.0</ele><time>2026-05-02T14:41:04.512Z</time></trkpt><trkpt lat="45.75956702948102" lon="11.137673524550596"><ele>799.5</ele><time>2026-05-02T14:41:05.512Z</time></trkpt><trkpt lat="45.759644861512676" lon="11.137540532957459"><ele>801.0</ele><time>2026-05-02T14:41:06.512Z</time></trkpt><trkpt lat="45.75974530912212" lon="11.137409401837337"><ele>802.5</ele><time>2026-05-02T14:41:07.512Z</time></trkpt><trkpt lat="45.75988990399007" lon="11.137257044709447"><ele>804.0</ele><time>2026-05-02T14:41:08.512Z</time></trkpt><trkpt lat="45.76000323766303" lon="11.13711093622264"><ele>804.0</ele><time>2026-05-02T14:41:09.512Z</time></trkpt><trkpt lat="45.76010378207003" lon="11.136979127213085"><ele>804.0</ele><time>2026-05-02T14:41:10.512Z</time></trkpt><trkpt lat="45.76020773238003" lon="11.136860784507085"><ele>804.0</ele><time>2026-05-02T14:41:11.512Z</time></trkpt><trkpt lat="45.76030385083598" lon="11.136722292982304"><ele>804.0</ele><time>2026-05-02T14:41:12.512Z</time></trkpt><trkpt lat="45.76042735307684" lon="11.136606297890802"><ele>808.0</ele><time>2026-05-02T14:41:13.512Z</time></trkpt><trkpt lat="45.760540541480836" lon="11.136483924340302"><ele>812.0</ele><time>2026-05-02T14:41:14.512Z</time></trkpt><trkpt lat="45.76070199023728" lon="11.136433551360764"><ele>816.0</ele><time>2026-05-02T14:41:15.512Z</time></trkpt><trkpt lat="45.76084280627456" lon="11.13633402843498"><ele>816.0</ele><time>2026-05-02T14:41:16.512Z</time></trkpt><trkpt lat="45.760935813695006" lon="11.136196044204565"><ele>816.0</ele><time>2026-05-02T14:41:17.512Z</time></trkpt><trkpt lat="45.76105307732392" lon="11.136107234854768"><ele>816.0</ele><time>2026-05-02T14:41:18.512Z</time></trkpt><trkpt lat="45.76111470410924" lon="11.135985375883973"><ele>816.0</ele><time>2026-05-02T14:41:19.512Z</time></trkpt><trkpt lat="45.7611813961986" lon="11.135886646373429"><ele>816.0</ele><time>2026-05-02T14:41:20.512Z</time></trkpt><trkpt lat="45.7612406892328" lon="11.135800087108356"><ele>816.0</ele><time>2026-05-02T14:41:21.512Z</time></trkpt><trkpt lat="45.76130091855682" lon="11.135763024013551"><ele>816.0</ele><time>2026-05-02T14:41:22.512Z</time></trkpt><trkpt lat="45.76121663074948" lon="11.1360681825731"><ele>816.0</ele><time>2026-05-02T14:41:26.512Z</time></trkpt><trkpt lat="45.76091576152132" lon="11.136439243969988"><ele>831.3333333333333</ele><time>2026-05-02T14:41:27.512Z</time></trkpt><trkpt lat="45.7607466473337" lon="11.136582160965375"><ele>846.6666666666666</ele><time>2026-05-02T14:41:28.512Z</time></trkpt><trkpt lat="45.76060593543207" lon="11.136803921319615"><ele>862.0</ele><time>2026-05-02T14:41:29.512Z</time></trkpt><trkpt lat="45.760468233964" lon="11.13700327568283"><ele>862.0</ele><time>2026-05-02T14:41:30.512Z</time></trkpt><trkpt lat="45.76032787915243" lon="11.137168858212492"><ele>862.0</ele><time>2026-05-02T14:41:31.512Z</time></trkpt><trkpt lat="45.76020791659613" lon="11.137347367990792"><ele>862.0</ele><time>2026-05-02T14:41:32.512Z</time></trkpt><trkpt lat="45.760079673393946" lon="11.137574621403143"><ele>866.6666666666666</ele><time>2026-05-02T14:41:33.512Z</time></trkpt><trkpt lat="45.75994964695658" lon="11.137832032552318"><ele>871.3333333333333</ele><time>2026-05-02T14:41:34.512Z</time></trkpt><trkpt lat="45.759838765237674" lon="11.138078390952202"><ele>876.0</ele><time>2026-05-02T14:41:35.512Z</time></trkpt><trkpt lat="45.75975473553134" lon="11.138243963936564"><ele>876.0</ele><time>2026-05-02T14:41:36.512Z</time></trkpt><trkpt lat="45.75964356281497" lon="11.138392840495799"><ele>876.0</ele><time>2026-05-02T14:41:37.512Z</time></trkpt><trkpt lat="45.75957980104747" lon="11.138522317201769"><ele>876.0</ele><time>2026-05-02T14:41:38.512Z</time></trkpt><trkpt lat="45.75951748121339" lon="11.138615250812345"><ele>876.0</ele><time>2026-05-02T14:41:39.512Z</time></trkpt><trkpt lat="45.759399567828844" lon="11.138574059589107"><ele>873.5</ele><time>2026-05-02T14:41:40.512Z</time></trkpt><trkpt lat="45.75925346364381" lon="11.138620316096942"><ele>871.0</ele><time>2026-05-02T14:41:41.512Z</time></trkpt><trkpt lat="45.75917391129247" lon="11.138724149539353"><ele>868.5</ele><time>2026-05-02T14:41:42.512Z</time></trkpt><trkpt lat="45.75911514955959" lon="11.138947548811917"><ele>866.0</ele><time>2026-05-02T14:41:43.512Z</time></trkpt><trkpt lat="45.759030034514396" lon="11.13914087732743"><ele>866.0</ele><time>2026-05-02T14:41:44.512Z</time></trkpt><trkpt lat="45.75895573122512" lon="11.139335318939983"><ele>866.0</ele><time>2026-05-02T14:41:45.512Z</time></trkpt><trkpt lat="45.75886818087551" lon="11.139505570014785"><ele>866.0</ele><time>2026-05-02T14:41:46.512Z</time></trkpt><trkpt lat="45.75877858955332" lon="11.13963767650888"><ele>866.0</ele><time>2026-05-02T14:41:47.512Z</time></trkpt><trkpt lat="45.75868496948122" lon="11.139745999508422"><ele>866.0</ele><time>2026-05-02T14:41:48.512Z</time></trkpt><trkpt lat="45.7585540308696" lon="11.139795919649613"><ele>866.0</ele><time>2026-05-02T14:41:49.512Z</time></trkpt><trkpt lat="45.75837068396256" lon="11.139841038678723"><ele>866.0</ele><time>2026-05-02T14:41:50.512Z</time></trkpt><trkpt lat="45.75821947935716" lon="11.139922811536788"><ele>866.5</ele><time>2026-05-02T14:41:51.512Z</time></trkpt><trkpt lat="45.7580937831947" lon="11.140004838908224"><ele>867.0</ele><time>2026-05-02T14:41:52.512Z</time></trkpt><trkpt lat="45.757970045752465" lon="11.140097576872382"><ele>867.5</ele><time>2026-05-02T14:41:53.512Z</time></trkpt><trkpt lat="45.75788143487228" lon="11.140236207356018"><ele>868.0</ele><time>2026-05-02T14:41:54.512Z</time></trkpt><trkpt lat="45.75778174122274" lon="11.140362359356585"><ele>871.0</ele><time>2026-05-02T14:41:55.512Z</time></trkpt><trkpt lat="45.75767549723939" lon="11.140480273159751"><ele>874.0</ele><time>2026-05-02T14:41:56.512Z</time></trkpt><trkpt lat="45.75755335436092" lon="11.140631198635743"><ele>877.0</ele><time>2026-05-02T14:41:57.512Z</time></trkpt><trkpt lat="45.757444186712206" lon="11.140817543909748"><ele>877.0</ele><time>2026-05-02T14:41:58.512Z</time></trkpt><trkpt lat="45.75731690782653" lon="11.14097479896306"><ele>877.0</ele><time>2026-05-02T14:41:59.512Z</time></trkpt><trkpt lat="45.757205204986086" lon="11.141104748304937"><ele>877.0</ele><time>2026-05-02T14:42:00.512Z</time></trkpt><trkpt lat="45.7570836884454" lon="11.1411911659168"><ele>877.0</ele><time>2026-05-02T14:42:01.512Z</time></trkpt><trkpt lat="45.756968706402475" lon="11.141255812619692"><ele>876.9999999999999</ele><time>2026-05-02T14:42:02.512Z</time></trkpt><trkpt lat="45.75689104716997" lon="11.141289018598728"><ele>877.0</ele><time>2026-05-02T14:42:03.512Z</time></trkpt><trkpt lat="45.7568127608001" lon="11.141333675072378"><ele>877.0</ele><time>2026-05-02T14:42:04.512Z</time></trkpt><trkpt lat="45.756824328877585" lon="11.141509557944879"><ele>877.0</ele><time>2026-05-02T14:42:06.512Z</time></trkpt><trkpt lat="45.7568768606511" lon="11.141601291714013"><ele>876.9999999999999</ele><time>2026-05-02T14:42:07.512Z</time></trkpt><trkpt lat="45.75694416440407" lon="11.141600555475824"><ele>877.0</ele><time>2026-05-02T14:42:08.512Z</time></trkpt><trkpt lat="45.75700414227805" lon="11.141545585529826"><ele>877.0</ele><time>2026-05-02T14:42:09.512Z</time></trkpt><trkpt lat="45.75707924097064" lon="11.141427141303998"><ele>877.0</ele><time>2026-05-02T14:42:10.512Z</time></trkpt><trkpt lat="45.75715400571886" lon="11.141338940224282"><ele>877.0</ele><time>2026-05-02T14:42:11.512Z</time></trkpt><trkpt lat="45.75723546907988" lon="11.1412501195169"><ele>877.0</ele><time>2026-05-02T14:42:12.512Z</time></trkpt><trkpt lat="45.75731874424397" lon="11.141214308823194"><ele>877.0</ele><time>2026-05-02T14:42:13.512Z</time></trkpt><trkpt lat="45.757394337206435" lon="11.14116849422807"><ele>877.0</ele><time>2026-05-02T14:42:14.512Z</time></trkpt><trkpt lat="45.757487418581135" lon="11.14113193144378"><ele>877.0</ele><time>2026-05-02T14:42:15.512Z</time></trkpt><trkpt lat="45.757572548739184" lon="11.14111379171186"><ele>877.0</ele><time>2026-05-02T14:42:16.512Z</time></trkpt><trkpt lat="45.75767066073615" lon="11.14114339642159"><ele>877.0</ele><time>2026-05-02T14:42:17.512Z</time></trkpt><trkpt lat="45.75779478658817" lon="11.141165768944887"><ele>877.0</ele><time>2026-05-02T14:42:18.512Z</time></trkpt><trkpt lat="45.75789725716046" lon="11.141137583755816"><ele>880.2</ele><time>2026-05-02T14:42:19.512Z</time></trkpt><trkpt lat="45.75799990250742" lon="11.141104843212997"><ele>883.4000000000001</ele><time>2026-05-02T14:42:20.512Z</time></trkpt><trkpt lat="45.75807026303602" lon="11.14109852948617"><ele>886.5999999999999</ele><time>2026-05-02T14:42:21.512Z</time></trkpt><trkpt lat="45.75816553095772" lon="11.14102461579349"><ele>889.8</ele><time>2026-05-02T14:42:22.512Z</time></trkpt><trkpt lat="45.75822701533833" lon="11.140886360905766"><ele>893.0</ele><time>2026-05-02T14:42:23.512Z</time></trkpt><trkpt lat="45.75831885711545" lon="11.140797390069931"><ele>893.0</ele><time>2026-05-02T14:42:24.512Z</time></trkpt><trkpt lat="45.75842008117808" lon="11.14072447831725"><ele>893.0</ele><time>2026-05-02T14:42:25.512Z</time></trkpt><trkpt lat="45.75853524461229" lon="11.140610609350144"><ele>893.0</ele><time>2026-05-02T14:42:26.512Z</time></trkpt><trkpt lat="45.75864875345084" lon="11.140463565118079"><ele>893.0</ele><time>2026-05-02T14:42:27.512Z</time></trkpt><trkpt lat="45.75876733665372" lon="11.140285515078018"><ele>897.0</ele><time>2026-05-02T14:42:28.512Z</time></trkpt><trkpt lat="45.758899061710665" lon="11.140128084421805"><ele>901.0</ele><time>2026-05-02T14:42:29.512Z</time></trkpt><trkpt lat="45.75903093385043" lon="11.139983037708445"><ele>905.0</ele><time>2026-05-02T14:42:30.512Z</time></trkpt><trkpt lat="45.759133874220375" lon="11.139865565185088"><ele>906.5</ele><time>2026-05-02T14:42:31.512Z</time></trkpt><trkpt lat="45.75922279633277" lon="11.139717786019629"><ele>908.0</ele><time>2026-05-02T14:42:32.512Z</time></trkpt><trkpt lat="45.75932394392977" lon="11.139582939615474"><ele>909.5</ele><time>2026-05-02T14:42:33.512Z</time></trkpt><trkpt lat="45.759485699079825" lon="11.139487853372529"><ele>911.0</ele><time>2026-05-02T14:42:34.512Z</time></trkpt><trkpt lat="45.759706375965074" lon="11.13945594906223"><ele>911.0</ele><time>2026-05-02T14:42:35.512Z</time></trkpt><trkpt lat="45.75981856329579" lon="11.139329788321536"><ele>910.9999999999999</ele><time>2026-05-02T14:42:36.512Z</time></trkpt><trkpt lat="45.75992231164326" lon="11.139272402577983"><ele>910.9999999999999</ele><time>2026-05-02T14:42:37.512Z</time></trkpt><trkpt lat="45.759995530278104" lon="11.13927239821744"><ele>911.0</ele><time>2026-05-02T14:42:38.512Z</time></trkpt><trkpt lat="45.760101812806624" lon="11.139278327622554"><ele>911.0</ele><time>2026-05-02T14:42:39.512Z</time></trkpt><trkpt lat="45.760177672082655" lon="11.1392494838993"><ele>911.0</ele><time>2026-05-02T14:42:40.512Z</time></trkpt><trkpt lat="45.76026228637609" lon="11.139284145598708"><ele>911.0</ele><time>2026-05-02T14:42:41.512Z</time></trkpt><trkpt lat="45.760200873395796" lon="11.139380637896005"><ele>911.0</ele><time>2026-05-02T14:42:42.512Z</time></trkpt><trkpt lat="45.760098290638155" lon="11.139495411918045"><ele>911.0</ele><time>2026-05-02T14:42:43.512Z</time></trkpt><trkpt lat="45.75986513333564" lon="11.139636458958167"><ele>911.0</ele><time>2026-05-02T14:42:44.512Z</time></trkpt><trkpt lat="45.75969497193453" lon="11.13968915622661"><ele>911.0</ele><time>2026-05-02T14:42:45.512Z</time></trkpt><trkpt lat="45.759560833944015" lon="11.139803203122305"><ele>911.0</ele><time>2026-05-02T14:42:46.512Z</time></trkpt><trkpt lat="45.75943015426933" lon="11.139932547719235"><ele>909.0</ele><time>2026-05-02T14:42:47.512Z</time></trkpt><trkpt lat="45.75932146850808" lon="11.140080374722734"><ele>907.0</ele><time>2026-05-02T14:42:48.512Z</time></trkpt><trkpt lat="45.75921384397634" lon="11.140274603801522"><ele>905.0</ele><time>2026-05-02T14:42:49.512Z</time></trkpt><trkpt lat="45.759111191627696" lon="11.140530202230021"><ele>916.0</ele><time>2026-05-02T14:42:50.512Z</time></trkpt><trkpt lat="45.75898289472428" lon="11.140743558508476"><ele>927.0</ele><time>2026-05-02T14:42:51.512Z</time></trkpt><trkpt lat="45.758858540617176" lon="11.140919968620372"><ele>938.0</ele><time>2026-05-02T14:42:52.512Z</time></trkpt><trkpt lat="45.75875704697298" lon="11.141056795296361"><ele>938.0</ele><time>2026-05-02T14:42:53.512Z</time></trkpt><trkpt lat="45.75869776336407" lon="11.14125230205601"><ele>938.0</ele><time>2026-05-02T14:42:54.512Z</time></trkpt><trkpt lat="45.75867451650637" lon="11.141460705604796"><ele>938.0</ele><time>2026-05-02T14:42:55.512Z</time></trkpt><trkpt lat="45.758623062114154" lon="11.141671930526009"><ele>942.6666666666667</ele><time>2026-05-02T14:42:56.512Z</time></trkpt><trkpt lat="45.7585385554774" lon="11.141852437101177"><ele>947.3333333333333</ele><time>2026-05-02T14:42:57.512Z</time></trkpt><trkpt lat="45.7584404437033" lon="11.14202345028165"><ele>952.0</ele><time>2026-05-02T14:42:58.512Z</time></trkpt><trkpt lat="45.758329421765644" lon="11.142187185375798"><ele>936.5</ele><time>2026-05-02T14:42:59.512Z</time></trkpt><trkpt lat="45.75806764507867" lon="11.142261764723306"><ele>921.0</ele><time>2026-05-02T14:43:00.512Z</time></trkpt><trkpt lat="45.757866072263354" lon="11.142308025755238"><ele>917.0</ele><time>2026-05-02T14:43:01.512Z</time></trkpt><trkpt lat="45.75766519809866" lon="11.14234252503709"><ele>913.0</ele><time>2026-05-02T14:43:02.512Z</time></trkpt><trkpt lat="45.75750514608105" lon="11.142376135600275"><ele>909.0</ele><time>2026-05-02T14:43:03.512Z</time></trkpt><trkpt lat="45.757352800150414" lon="11.14237007766003"><ele>917.5</ele><time>2026-05-02T14:43:04.512Z</time></trkpt><trkpt lat="45.757195876830075" lon="11.14240597197043"><ele>926.0</ele><time>2026-05-02T14:43:05.512Z</time></trkpt><trkpt lat="45.75708226269652" lon="11.14247208701691"><ele>934.5</ele><time>2026-05-02T14:43:06.512Z</time></trkpt><trkpt lat="45.757025187924356" lon="11.142587214244298"><ele>943.0</ele><time>2026-05-02T14:43:07.512Z</time></trkpt><trkpt lat="45.75697297823944" lon="11.142727749283498"><ele>943.0</ele><time>2026-05-02T14:43:08.512Z</time></trkpt><trkpt lat="45.75693251901044" lon="11.142899981233398"><ele>943.0</ele><time>2026-05-02T14:43:09.512Z</time></trkpt><trkpt lat="45.756942929982486" lon="11.143132122705802"><ele>943.0</ele><time>2026-05-02T14:43:10.512Z</time></trkpt><trkpt lat="45.75696634589088" lon="11.143369610878887"><ele>946.75</ele><time>2026-05-02T14:43:11.512Z</time></trkpt><trkpt lat="45.756966321713605" lon="11.143581747917715"><ele>950.5</ele><time>2026-05-02T14:43:12.512Z</time></trkpt><trkpt lat="45.75694778829013" lon="11.143773173057886"><ele>954.25</ele><time>2026-05-02T14:43:13.512Z</time></trkpt><trkpt lat="45.75689977719182" lon="11.143918076584415"><ele>958.0</ele><time>2026-05-02T14:43:14.512Z</time></trkpt><trkpt lat="45.75682641536706" lon="11.144085283964008"><ele>958.0</ele><time>2026-05-02T14:43:15.512Z</time></trkpt><trkpt lat="45.7567564852877" lon="11.144218751172204"><ele>958.0</ele><time>2026-05-02T14:43:16.512Z</time></trkpt><trkpt lat="45.75664494701012" lon="11.144326423775848"><ele>958.0</ele><time>2026-05-02T14:43:17.512Z</time></trkpt><trkpt lat="45.75656347323569" lon="11.144420860751326"><ele>958.0</ele><time>2026-05-02T14:43:18.512Z</time></trkpt><trkpt lat="45.75645912663522" lon="11.144455213393563"><ele>958.0</ele><time>2026-05-02T14:43:19.512Z</time></trkpt><trkpt lat="45.756321315725366" lon="11.144376400729909"><ele>958.0</ele><time>2026-05-02T14:43:20.512Z</time></trkpt><trkpt lat="45.75619037339265" lon="11.144272392133578"><ele>958.0</ele><time>2026-05-02T14:43:21.512Z</time></trkpt><trkpt lat="45.75607295553505" lon="11.144242482242385"><ele>958.0</ele><time>2026-05-02T14:43:22.512Z</time></trkpt><trkpt lat="45.755955187815985" lon="11.14420983969879"><ele>958.4</ele><time>2026-05-02T14:43:23.512Z</time></trkpt><trkpt lat="45.75586015035275" lon="11.144156464052752"><ele>958.8</ele><time>2026-05-02T14:43:24.512Z</time></trkpt><trkpt lat="45.75579814111351" lon="11.144214469932676"><ele>959.2</ele><time>2026-05-02T14:43:25.512Z</time></trkpt><trkpt lat="45.755800609863556" lon="11.144468683045497"><ele>959.6</ele><time>2026-05-02T14:43:27.512Z</time></trkpt><trkpt lat="45.755830044472766" lon="11.144597127772606"><ele>960.0</ele><time>2026-05-02T14:43:28.512Z</time></trkpt><trkpt lat="45.755930650801524" lon="11.14469789390746"><ele>960.0</ele><time>2026-05-02T14:43:29.512Z</time></trkpt><trkpt lat="45.756024891680525" lon="11.144815773765544"><ele>960.0</ele><time>2026-05-02T14:43:30.512Z</time></trkpt><trkpt lat="45.75620107343376" lon="11.144922786559379"><ele>960.0</ele><time>2026-05-02T14:43:31.512Z</time></trkpt><trkpt lat="45.75640262448341" lon="11.144908562071002"><ele>959.0</ele><time>2026-05-02T14:43:32.512Z</time></trkpt><trkpt lat="45.756667105346075" lon="11.144853494499086"><ele>958.0</ele><time>2026-05-02T14:43:33.512Z</time></trkpt><trkpt lat="45.756885146520304" lon="11.14487561147711"><ele>965.0</ele><time>2026-05-02T14:43:34.512Z</time></trkpt><trkpt lat="45.75706412191988" lon="11.14489624399513"><ele>972.0</ele><time>2026-05-02T14:43:35.512Z</time></trkpt><trkpt lat="45.75722493205412" lon="11.144902438636091"><ele>979.0</ele><time>2026-05-02T14:43:36.512Z</time></trkpt><trkpt lat="45.75734514277284" lon="11.14489725875959"><ele>979.0</ele><time>2026-05-02T14:43:37.512Z</time></trkpt><trkpt lat="45.75747703537567" lon="11.144885470531099"><ele>979.0</ele><time>2026-05-02T14:43:38.512Z</time></trkpt><trkpt lat="45.75760165401295" lon="11.144869811670942"><ele>979.0</ele><time>2026-05-02T14:43:39.512Z</time></trkpt><trkpt lat="45.75775316689683" lon="11.144818218036413"><ele>979.0</ele><time>2026-05-02T14:43:40.512Z</time></trkpt><trkpt lat="45.75788675578081" lon="11.144789011893325"><ele>980.0</ele><time>2026-05-02T14:43:41.512Z</time></trkpt><trkpt lat="45.75800340904905" lon="11.144782313032932"><ele>981.0</ele><time>2026-05-02T14:43:42.512Z</time></trkpt><trkpt lat="45.75809686311288" lon="11.144774986299542"><ele>982.0</ele><time>2026-05-02T14:43:43.512Z</time></trkpt><trkpt lat="45.75820562440698" lon="11.144897162957845"><ele>983.0</ele><time>2026-05-02T14:43:45.512Z</time></trkpt><trkpt lat="45.758241041453694" lon="11.145078487817827"><ele>983.5</ele><time>2026-05-02T14:43:46.512Z</time></trkpt><trkpt lat="45.75827542474037" lon="11.145247503297032"><ele>984.0</ele><time>2026-05-02T14:43:47.512Z</time></trkpt><trkpt lat="45.75830696097021" lon="11.145462254745917"><ele>984.5</ele><time>2026-05-02T14:43:48.512Z</time></trkpt><trkpt lat="45.7583670997572" lon="11.145603187682742"><ele>985.0</ele><time>2026-05-02T14:43:49.512Z</time></trkpt><trkpt lat="45.758403014929456" lon="11.145740060029386"><ele>985.0</ele><time>2026-05-02T14:43:50.512Z</time></trkpt><trkpt lat="45.75840567781626" lon="11.145905287014882"><ele>985.0</ele><time>2026-05-02T14:43:51.512Z</time></trkpt><trkpt lat="45.75839400571545" lon="11.146045763402228"><ele>985.0</ele><time>2026-05-02T14:43:52.512Z</time></trkpt><trkpt lat="45.75837435017781" lon="11.146171192256295"><ele>985.0</ele><time>2026-05-02T14:43:53.512Z</time></trkpt><trkpt lat="45.75829925903381" lon="11.146277389203332"><ele>985.0</ele><time>2026-05-02T14:43:54.512Z</time></trkpt><trkpt lat="45.75814865349697" lon="11.146315780842396"><ele>985.0</ele><time>2026-05-02T14:43:55.512Z</time></trkpt><trkpt lat="45.75802207957306" lon="11.146321067289653"><ele>985.0</ele><time>2026-05-02T14:43:56.512Z</time></trkpt><trkpt lat="45.757859737153694" lon="11.14631614906084"><ele>985.0</ele><time>2026-05-02T14:43:57.512Z</time></trkpt><trkpt lat="45.757696659341825" lon="11.146356263643623"><ele>985.0</ele><time>2026-05-02T14:43:58.512Z</time></trkpt><trkpt lat="45.75755522762141" lon="11.146400757248935"><ele>985.0</ele><time>2026-05-02T14:43:59.512Z</time></trkpt><trkpt lat="45.75743591802793" lon="11.146473694287891"><ele>985.0</ele><time>2026-05-02T14:44:00.512Z</time></trkpt><trkpt lat="45.757315745059934" lon="11.146557658730805"><ele>985.0</ele><time>2026-05-02T14:44:01.512Z</time></trkpt><trkpt lat="45.75720903729398" lon="11.14667255607393"><ele>984.0</ele><time>2026-05-02T14:44:02.512Z</time></trkpt><trkpt lat="45.75708820128028" lon="11.146760699227812"><ele>983.0</ele><time>2026-05-02T14:44:03.512Z</time></trkpt><trkpt lat="45.75697429548821" lon="11.146869026497672"><ele>982.0</ele><time>2026-05-02T14:44:04.512Z</time></trkpt><trkpt lat="45.75685609093657" lon="11.146966967061008"><ele>981.0</ele><time>2026-05-02T14:44:05.512Z</time></trkpt><trkpt lat="45.7567233732579" lon="11.147060039693605"><ele>985.0</ele><time>2026-05-02T14:44:06.512Z</time></trkpt><trkpt lat="45.75659590450714" lon="11.147141812721694"><ele>989.0</ele><time>2026-05-02T14:44:07.512Z</time></trkpt><trkpt lat="45.7564660011941" lon="11.147230243175864"><ele>993.0</ele><time>2026-05-02T14:44:08.512Z</time></trkpt><trkpt lat="45.7563420812938" lon="11.147315184184626"><ele>997.0</ele><time>2026-05-02T14:44:09.512Z</time></trkpt><trkpt lat="45.75621130000339" lon="11.147374117102403"><ele>996.5</ele><time>2026-05-02T14:44:10.512Z</time></trkpt><trkpt lat="45.75606887020242" lon="11.147393501891207"><ele>996.0</ele><time>2026-05-02T14:44:11.512Z</time></trkpt><trkpt lat="45.755935980740375" lon="11.147414320349464"><ele>995.5</ele><time>2026-05-02T14:44:12.512Z</time></trkpt><trkpt lat="45.755803929721345" lon="11.147448971071396"><ele>995.0</ele><time>2026-05-02T14:44:13.512Z</time></trkpt><trkpt lat="45.755667627333835" lon="11.147455806883142"><ele>995.0</ele><time>2026-05-02T14:44:14.512Z</time></trkpt><trkpt lat="45.75554399640897" lon="11.147508321565686"><ele>995.0</ele><time>2026-05-02T14:44:15.512Z</time></trkpt><trkpt lat="45.755435018202114" lon="11.147592794021518"><ele>995.0</ele><time>2026-05-02T14:44:16.512Z</time></trkpt><trkpt lat="45.75540871919941" lon="11.14780526441614"><ele>995.0</ele><time>2026-05-02T14:44:17.512Z</time></trkpt><trkpt lat="45.75531590228339" lon="11.147889158262853"><ele>995.0</ele><time>2026-05-02T14:44:18.512Z</time></trkpt><trkpt lat="45.75522648887172" lon="11.147983941441934"><ele>995.0</ele><time>2026-05-02T14:44:19.512Z</time></trkpt><trkpt lat="45.75512442268773" lon="11.148047765592452"><ele>995.0</ele><time>2026-05-02T14:44:20.512Z</time></trkpt><trkpt lat="45.75504221211892" lon="11.148084470727245"><ele>995.0</ele><time>2026-05-02T14:44:21.512Z</time></trkpt><trkpt lat="45.75498642203029" lon="11.148006531551063"><ele>995.0</ele><time>2026-05-02T14:44:22.512Z</time></trkpt><trkpt lat="45.75483841409608" lon="11.147963792668307"><ele>998.25</ele><time>2026-05-02T14:44:23.512Z</time></trkpt><trkpt lat="45.7546927828667" lon="11.14791712279798"><ele>1001.5</ele><time>2026-05-02T14:44:24.512Z</time></trkpt><trkpt lat="45.75457694362791" lon="11.147920995918435"><ele>1004.75</ele><time>2026-05-02T14:44:25.512Z</time></trkpt><trkpt lat="45.75445414031322" lon="11.147951745844008"><ele>1008.0</ele><time>2026-05-02T14:44:26.512Z</time></trkpt><trkpt lat="45.75433325712116" lon="11.14800272812911"><ele>1012.75</ele><time>2026-05-02T14:44:27.512Z</time></trkpt><trkpt lat="45.75421479322788" lon="11.148032279214474"><ele>1017.5</ele><time>2026-05-02T14:44:28.512Z</time></trkpt><trkpt lat="45.75409840576984" lon="11.148066644839432"><ele>1022.25</ele><time>2026-05-02T14:44:29.513Z</time></trkpt><trkpt lat="45.753999538058686" lon="11.148110374755221"><ele>1027.0</ele><time>2026-05-02T14:44:30.513Z</time></trkpt><trkpt lat="45.75386406912433" lon="11.148119910364345"><ele>1027.0</ele><time>2026-05-02T14:44:31.513Z</time></trkpt><trkpt lat="45.75374779712304" lon="11.14813286990957"><ele>1027.0</ele><time>2026-05-02T14:44:32.513Z</time></trkpt><trkpt lat="45.75368921112412" lon="11.148283402025447"><ele>1027.0</ele><time>2026-05-02T14:44:34.513Z</time></trkpt><trkpt lat="45.75373090569697" lon="11.148472656466048"><ele>1027.0</ele><time>2026-05-02T14:44:35.513Z</time></trkpt><trkpt lat="45.75378327866908" lon="11.14860145196496"><ele>1021.25</ele><time>2026-05-02T14:44:36.513Z</time></trkpt><trkpt lat="45.75388125235705" lon="11.148675496591538"><ele>1015.5</ele><time>2026-05-02T14:44:37.513Z</time></trkpt><trkpt lat="45.75401500085671" lon="11.148691692734047"><ele>1009.75</ele><time>2026-05-02T14:44:38.513Z</time></trkpt><trkpt lat="45.75412684451281" lon="11.148723049552572"><ele>1004.0</ele><time>2026-05-02T14:44:39.513Z</time></trkpt><trkpt lat="45.75423301018232" lon="11.148766067643233"><ele>1004.0</ele><time>2026-05-02T14:44:40.513Z</time></trkpt><trkpt lat="45.75435367718213" lon="11.14884155046239"><ele>1004.0</ele><time>2026-05-02T14:44:41.513Z</time></trkpt><trkpt lat="45.75447578824585" lon="11.148908718705043"><ele>1004.0</ele><time>2026-05-02T14:44:42.513Z</time></trkpt><trkpt lat="45.75459067484662" lon="11.148985891180468"><ele>1004.0</ele><time>2026-05-02T14:44:43.513Z</time></trkpt><trkpt lat="45.754709280260705" lon="11.149031025920817"><ele>1006.25</ele><time>2026-05-02T14:44:44.513Z</time></trkpt><trkpt lat="45.75485270222012" lon="11.148973044512774"><ele>1008.5</ele><time>2026-05-02T14:44:45.513Z</time></trkpt><trkpt lat="45.75497068162042" lon="11.149009941377688"><ele>1010.75</ele><time>2026-05-02T14:44:46.513Z</time></trkpt><trkpt lat="45.75508043266771" lon="11.149023818397257"><ele>1013.0</ele><time>2026-05-02T14:44:47.513Z</time></trkpt><trkpt lat="45.75517072549347" lon="11.149064318161097"><ele>1008.75</ele><time>2026-05-02T14:44:48.513Z</time></trkpt><trkpt lat="45.75528191751857" lon="11.14910603507147"><ele>1004.5</ele><time>2026-05-02T14:44:49.513Z</time></trkpt><trkpt lat="45.75538275648574" lon="11.14916555076653"><ele>1000.25</ele><time>2026-05-02T14:44:50.513Z</time></trkpt><trkpt lat="45.75550032925011" lon="11.149276024199995"><ele>996.0</ele><time>2026-05-02T14:44:51.513Z</time></trkpt><trkpt lat="45.755621559732056" lon="11.149350093734743"><ele>996.0</ele><time>2026-05-02T14:44:52.513Z</time></trkpt><trkpt lat="45.7557172799438" lon="11.149367327910678"><ele>996.0</ele><time>2026-05-02T14:44:53.513Z</time></trkpt><trkpt lat="45.75583210247724" lon="11.149421051753796"><ele>996.0</ele><time>2026-05-02T14:44:54.513Z</time></trkpt><trkpt lat="45.75595235647701" lon="11.149459875813552"><ele>996.0</ele><time>2026-05-02T14:44:55.513Z</time></trkpt><trkpt lat="45.75607359180211" lon="11.14950348445739"><ele>991.6666666666667</ele><time>2026-05-02T14:44:56.513Z</time></trkpt><trkpt lat="45.75618452711795" lon="11.149553340521118"><ele>987.3333333333334</ele><time>2026-05-02T14:44:57.513Z</time></trkpt><trkpt lat="45.756294791469344" lon="11.149621629705837"><ele>983.0</ele><time>2026-05-02T14:44:58.513Z</time></trkpt><trkpt lat="45.75647446185781" lon="11.149794692183127"><ele>983.0</ele><time>2026-05-02T14:44:59.513Z</time></trkpt><trkpt lat="45.75659585015342" lon="11.149834853314276"><ele>983.0</ele><time>2026-05-02T14:45:00.513Z</time></trkpt><trkpt lat="45.756713943436004" lon="11.149898574027493"><ele>983.0</ele><time>2026-05-02T14:45:01.513Z</time></trkpt><trkpt lat="45.75678799363779" lon="11.149977645614173"><ele>983.0</ele><time>2026-05-02T14:45:02.513Z</time></trkpt><trkpt lat="45.75688046233543" lon="11.150043861398661"><ele>983.0</ele><time>2026-05-02T14:45:03.513Z</time></trkpt><trkpt lat="45.75696299079434" lon="11.15010809462895"><ele>987.25</ele><time>2026-05-02T14:45:04.513Z</time></trkpt><trkpt lat="45.757039092944495" lon="11.150173160699007"><ele>991.5</ele><time>2026-05-02T14:45:05.513Z</time></trkpt><trkpt lat="45.75714897047674" lon="11.15029153775341"><ele>995.75</ele><time>2026-05-02T14:45:06.513Z</time></trkpt><trkpt lat="45.75726232592801" lon="11.150439423418675"><ele>1000.0</ele><time>2026-05-02T14:45:07.513Z</time></trkpt><trkpt lat="45.757350449930655" lon="11.15061159857723"><ele>1000.5</ele><time>2026-05-02T14:45:08.513Z</time></trkpt><trkpt lat="45.75741504633625" lon="11.15079847024657"><ele>1001.0</ele><time>2026-05-02T14:45:09.513Z</time></trkpt><trkpt lat="45.75747707602604" lon="11.150930434032842"><ele>1001.5</ele><time>2026-05-02T14:45:10.513Z</time></trkpt><trkpt lat="45.75765813350916" lon="11.15095149596448"><ele>1002.0</ele><time>2026-05-02T14:45:11.513Z</time></trkpt><trkpt lat="45.75773912120908" lon="11.151050630988657"><ele>1002.0</ele><time>2026-05-02T14:45:12.513Z</time></trkpt><trkpt lat="45.757813567931684" lon="11.151123711530829"><ele>1002.0</ele><time>2026-05-02T14:45:13.513Z</time></trkpt><trkpt lat="45.757897087183444" lon="11.151217849987917"><ele>1002.0</ele><time>2026-05-02T14:45:14.513Z</time></trkpt><trkpt lat="45.75797449589196" lon="11.151382908562452"><ele>1002.0</ele><time>2026-05-02T14:45:15.513Z</time></trkpt><trkpt lat="45.75800308247081" lon="11.15158350928746"><ele>1010.0</ele><time>2026-05-02T14:45:16.513Z</time></trkpt><trkpt lat="45.75796641710516" lon="11.15182802942061"><ele>1018.0</ele><time>2026-05-02T14:45:17.513Z</time></trkpt><trkpt lat="45.758015487565004" lon="11.151988174973711"><ele>1026.0</ele><time>2026-05-02T14:45:18.513Z</time></trkpt><trkpt lat="45.7580587542182" lon="11.152129180365236"><ele>1034.0</ele><time>2026-05-02T14:45:19.513Z</time></trkpt><trkpt lat="45.75809463656091" lon="11.152271967383758"><ele>1034.0</ele><time>2026-05-02T14:45:20.513Z</time></trkpt><trkpt lat="45.75817880710489" lon="11.152380520071334"><ele>1034.0</ele><time>2026-05-02T14:45:21.513Z</time></trkpt><trkpt lat="45.758278983926836" lon="11.152426347744262"><ele>1034.0</ele><time>2026-05-02T14:45:22.513Z</time></trkpt><trkpt lat="45.75839643124293" lon="11.152299214820667"><ele>1034.0</ele><time>2026-05-02T14:45:23.513Z</time></trkpt><trkpt lat="45.75849700845326" lon="11.152204431301545"><ele>1033.0</ele><time>2026-05-02T14:45:24.513Z</time></trkpt><trkpt lat="45.75860653430543" lon="11.152131298533941"><ele>1032.0</ele><time>2026-05-02T14:45:25.513Z</time></trkpt><trkpt lat="45.758709561070425" lon="11.152094554305737"><ele>1031.0</ele><time>2026-05-02T14:45:26.513Z</time></trkpt><trkpt lat="45.75881455988401" lon="11.1521083373587"><ele>1030.0</ele><time>2026-05-02T14:45:27.513Z</time></trkpt><trkpt lat="45.75893640606319" lon="11.152113164930066"><ele>1030.0</ele><time>2026-05-02T14:45:28.513Z</time></trkpt><trkpt lat="45.759060293519816" lon="11.152146862626719"><ele>1030.0</ele><time>2026-05-02T14:45:29.513Z</time></trkpt><trkpt lat="45.759165459008855" lon="11.152200480408139"><ele>1030.0</ele><time>2026-05-02T14:45:30.513Z</time></trkpt><trkpt lat="45.75924253230314" lon="11.152328852301716"><ele>1030.0</ele><time>2026-05-02T14:45:31.513Z</time></trkpt><trkpt lat="45.75929897632627" lon="11.152466745866082"><ele>1031.0</ele><time>2026-05-02T14:45:32.513Z</time></trkpt><trkpt lat="45.75931301959288" lon="11.152701682606125"><ele>1032.0</ele><time>2026-05-02T14:45:33.513Z</time></trkpt><trkpt lat="45.75934106949768" lon="11.15286410635409"><ele>1033.0</ele><time>2026-05-02T14:45:34.513Z</time></trkpt><trkpt lat="45.75940020508715" lon="11.152969675442558"><ele>1034.0</ele><time>2026-05-02T14:45:35.513Z</time></trkpt><trkpt lat="45.75939761344716" lon="11.153110055962255"><ele>1037.5</ele><time>2026-05-02T14:45:36.513Z</time></trkpt><trkpt lat="45.75937827691143" lon="11.15322079206489"><ele>1041.0</ele><time>2026-05-02T14:45:37.513Z</time></trkpt><trkpt lat="45.75922023747288" lon="11.153255892979887"><ele>1044.5</ele><time>2026-05-02T14:45:39.513Z</time></trkpt><trkpt lat="45.759166924523804" lon="11.153139779546208"><ele>1048.0</ele><time>2026-05-02T14:45:40.513Z</time></trkpt><trkpt lat="45.75906364905419" lon="11.152818603160457"><ele>1049.6666666666665</ele><time>2026-05-02T14:45:41.513Z</time></trkpt><trkpt lat="45.758909506334376" lon="11.152596141644464"><ele>1051.3333333333333</ele><time>2026-05-02T14:45:42.513Z</time></trkpt><trkpt lat="45.75878912039227" lon="11.15253113758824"><ele>1053.0</ele><time>2026-05-02T14:45:43.513Z</time></trkpt><trkpt lat="45.75866150752936" lon="11.152508276852602"><ele>1053.0</ele><time>2026-05-02T14:45:44.513Z</time></trkpt><trkpt lat="45.75854172508572" lon="11.152537334672875"><ele>1053.0</ele><time>2026-05-02T14:45:45.513Z</time></trkpt><trkpt lat="45.75844185461957" lon="11.15265340269894"><ele>1053.0</ele><time>2026-05-02T14:45:46.513Z</time></trkpt><trkpt lat="45.7583981118283" lon="11.152797763165788"><ele>1053.0</ele><time>2026-05-02T14:45:47.513Z</time></trkpt><trkpt lat="45.758352063828475" lon="11.152971003325463"><ele>1055.25</ele><time>2026-05-02T14:45:48.513Z</time></trkpt><trkpt lat="45.75832067000834" lon="11.153156537340285"><ele>1057.5</ele><time>2026-05-02T14:45:49.513Z</time></trkpt><trkpt lat="45.75829584512909" lon="11.153345063431454"><ele>1059.75</ele><time>2026-05-02T14:45:50.513Z</time></trkpt><trkpt lat="45.758318215280894" lon="11.153546548988825"><ele>1062.0</ele><time>2026-05-02T14:45:51.513Z</time></trkpt><trkpt lat="45.75837482459104" lon="11.153751716628715"><ele>1065.3333333333333</ele><time>2026-05-02T14:45:52.513Z</time></trkpt><trkpt lat="45.75841563291342" lon="11.153969913794668"><ele>1068.6666666666665</ele><time>2026-05-02T14:45:53.513Z</time></trkpt><trkpt lat="45.758519200814334" lon="11.154184197262035"><ele>1072.0</ele><time>2026-05-02T14:45:54.513Z</time></trkpt><trkpt lat="45.75858354781713" lon="11.154396963086151"><ele>1072.0</ele><time>2026-05-02T14:45:55.513Z</time></trkpt><trkpt lat="45.758658304384284" lon="11.154590232966001"><ele>1072.0</ele><time>2026-05-02T14:45:56.513Z</time></trkpt><trkpt lat="45.75873341390674" lon="11.154765243815246"><ele>1072.0</ele><time>2026-05-02T14:45:57.513Z</time></trkpt><trkpt lat="45.758817597916824" lon="11.154945388790088"><ele>1072.0</ele><time>2026-05-02T14:45:58.513Z</time></trkpt><trkpt lat="45.75888603051375" lon="11.155091070010993"><ele>1073.5</ele><time>2026-05-02T14:45:59.513Z</time></trkpt><trkpt lat="45.758979640624055" lon="11.155242528802262"><ele>1075.0</ele><time>2026-05-02T14:46:00.513Z</time></trkpt><trkpt lat="45.75905048897008" lon="11.155374556869704"><ele>1076.5</ele><time>2026-05-02T14:46:01.513Z</time></trkpt><trkpt lat="45.75911807585122" lon="11.155476322557208"><ele>1078.0</ele><time>2026-05-02T14:46:02.513Z</time></trkpt><trkpt lat="45.75910706261656" lon="11.15566720379391"><ele>1078.0</ele><time>2026-05-02T14:46:04.513Z</time></trkpt><trkpt lat="45.75913056560888" lon="11.155582354138184"><ele>1078.0</ele><time>2026-05-02T14:46:05.513Z</time></trkpt><trkpt lat="45.7590318809972" lon="11.155531820903306"><ele>1078.0</ele><time>2026-05-02T14:46:07.513Z</time></trkpt><trkpt lat="45.758986719515946" lon="11.155372907753652"><ele>1078.0</ele><time>2026-05-02T14:46:08.513Z</time></trkpt><trkpt lat="45.75888985229527" lon="11.155198664042807"><ele>1078.0</ele><time>2026-05-02T14:46:09.513Z</time></trkpt><trkpt lat="45.7587526668051" lon="11.154920374150162"><ele>1076.0</ele><time>2026-05-02T14:46:10.513Z</time></trkpt><trkpt lat="45.758624530323765" lon="11.154803056638155"><ele>1074.0</ele><time>2026-05-02T14:46:11.513Z</time></trkpt><trkpt lat="45.758467033187515" lon="11.154728650162474"><ele>1072.0</ele><time>2026-05-02T14:46:12.513Z</time></trkpt><trkpt lat="45.758315612827055" lon="11.154703480794293"><ele>1076.6666666666665</ele><time>2026-05-02T14:46:13.513Z</time></trkpt><trkpt lat="45.758139912889355" lon="11.154713175545274"><ele>1081.3333333333333</ele><time>2026-05-02T14:46:14.513Z</time></trkpt><trkpt lat="45.757956444178305" lon="11.154755910258773"><ele>1086.0</ele><time>2026-05-02T14:46:15.513Z</time></trkpt><trkpt lat="45.75779523640365" lon="11.15486224829722"><ele>1090.25</ele><time>2026-05-02T14:46:16.513Z</time></trkpt><trkpt lat="45.75765677897399" lon="11.154872808701853"><ele>1094.5</ele><time>2026-05-02T14:46:17.513Z</time></trkpt><trkpt lat="45.75752268889289" lon="11.154863743476385"><ele>1098.75</ele><time>2026-05-02T14:46:18.513Z</time></trkpt><trkpt lat="45.757406792835205" lon="11.154867585619018"><ele>1103.0</ele><time>2026-05-02T14:46:19.513Z</time></trkpt><trkpt lat="45.75728454461476" lon="11.154869810490618"><ele>1103.0</ele><time>2026-05-02T14:46:20.513Z</time></trkpt><trkpt lat="45.7572147263426" lon="11.154838189421737"><ele>1103.0</ele><time>2026-05-02T14:46:21.513Z</time></trkpt><trkpt lat="45.75706676691353" lon="11.154684594208021"><ele>1103.0</ele><time>2026-05-02T14:46:22.513Z</time></trkpt><trkpt lat="45.756885669284856" lon="11.15445005662483"><ele>1102.3333333333335</ele><time>2026-05-02T14:46:23.513Z</time></trkpt><trkpt lat="45.756835133659905" lon="11.154201808162556"><ele>1101.6666666666667</ele><time>2026-05-02T14:46:24.513Z</time></trkpt><trkpt lat="45.75686970256133" lon="11.154030083162983"><ele>1101.0</ele><time>2026-05-02T14:46:25.513Z</time></trkpt><trkpt lat="45.75691048589795" lon="11.153772021933559"><ele>1101.0</ele><time>2026-05-02T14:46:26.513Z</time></trkpt><trkpt lat="45.75702612956265" lon="11.15347977748132"><ele>1101.0</ele><time>2026-05-02T14:46:27.513Z</time></trkpt><trkpt lat="45.75706544810561" lon="11.153315401181645"><ele>1101.0</ele><time>2026-05-02T14:46:28.513Z</time></trkpt><trkpt lat="45.75702338039124" lon="11.153132047925602"><ele>1097.75</ele><time>2026-05-02T14:46:29.513Z</time></trkpt><trkpt lat="45.75696506852632" lon="11.153001794785258"><ele>1094.5</ele><time>2026-05-02T14:46:30.513Z</time></trkpt><trkpt lat="45.756872380719614" lon="11.152868937910752"><ele>1091.25</ele><time>2026-05-02T14:46:31.513Z</time></trkpt><trkpt lat="45.75673155613819" lon="11.152729672163554"><ele>1088.0</ele><time>2026-05-02T14:46:32.513Z</time></trkpt><trkpt lat="45.756633751388456" lon="11.152624561223938"><ele>1089.75</ele><time>2026-05-02T14:46:33.513Z</time></trkpt><trkpt lat="45.756518230745556" lon="11.15252743279357"><ele>1091.5</ele><time>2026-05-02T14:46:34.513Z</time></trkpt><trkpt lat="45.75640684062347" lon="11.152405822225482"><ele>1093.25</ele><time>2026-05-02T14:46:35.513Z</time></trkpt><trkpt lat="45.756315999299275" lon="11.152308326716101"><ele>1095.0</ele><time>2026-05-02T14:46:36.513Z</time></trkpt><trkpt lat="45.756238596516866" lon="11.15228140487716"><ele>1095.0</ele><time>2026-05-02T14:46:37.513Z</time></trkpt><trkpt lat="45.75616330539978" lon="11.152150874818085"><ele>1095.0</ele><time>2026-05-02T14:46:38.513Z</time></trkpt><trkpt lat="45.75608812670869" lon="11.152025286745642"><ele>1095.0</ele><time>2026-05-02T14:46:39.513Z</time></trkpt><trkpt lat="45.75600318191753" lon="11.151918974113398"><ele>1095.0</ele><time>2026-05-02T14:46:40.513Z</time></trkpt><trkpt lat="45.755903987465835" lon="11.151906659951871"><ele>1095.0</ele><time>2026-05-02T14:46:42.513Z</time></trkpt><trkpt lat="45.75578614564686" lon="11.1520245572866"><ele>1100.75</ele><time>2026-05-02T14:46:43.513Z</time></trkpt><trkpt lat="45.75579429388132" lon="11.152158189858548"><ele>1106.5</ele><time>2026-05-02T14:46:44.513Z</time></trkpt><trkpt lat="45.75580046803835" lon="11.152325504525002"><ele>1112.25</ele><time>2026-05-02T14:46:45.513Z</time></trkpt><trkpt lat="45.7558629267112" lon="11.152526994747593"><ele>1118.0</ele><time>2026-05-02T14:46:46.513Z</time></trkpt><trkpt lat="45.75590746699741" lon="11.152698294106239"><ele>1119.25</ele><time>2026-05-02T14:46:47.513Z</time></trkpt><trkpt lat="45.75595690279511" lon="11.152866751066876"><ele>1120.5</ele><time>2026-05-02T14:46:48.513Z</time></trkpt><trkpt lat="45.75601599714559" lon="11.153044984900985"><ele>1121.75</ele><time>2026-05-02T14:46:49.513Z</time></trkpt><trkpt lat="45.7560745052065" lon="11.153235801357772"><ele>1123.0</ele><time>2026-05-02T14:46:50.513Z</time></trkpt><trkpt lat="45.75616750925923" lon="11.153416975783147"><ele>1123.0</ele><time>2026-05-02T14:46:51.513Z</time></trkpt><trkpt lat="45.75622303229002" lon="11.153602291215796"><ele>1123.0</ele><time>2026-05-02T14:46:52.513Z</time></trkpt><trkpt lat="45.75627744871759" lon="11.153741279770985"><ele>1123.0</ele><time>2026-05-02T14:46:53.513Z</time></trkpt><trkpt lat="45.75632802173973" lon="11.1538933134721"><ele>1123.0</ele><time>2026-05-02T14:46:54.513Z</time></trkpt><trkpt lat="45.75638704332417" lon="11.154046024376445"><ele>1124.0</ele><time>2026-05-02T14:46:55.513Z</time></trkpt><trkpt lat="45.75642337901405" lon="11.154149102212246"><ele>1125.0</ele><time>2026-05-02T14:46:56.513Z</time></trkpt><trkpt lat="45.75645470427655" lon="11.154284893506906"><ele>1126.0</ele><time>2026-05-02T14:46:57.513Z</time></trkpt><trkpt lat="45.756438451982945" lon="11.154401926768623"><ele>1127.0</ele><time>2026-05-02T14:46:58.513Z</time></trkpt><trkpt lat="45.756359715722056" lon="11.154585940957025"><ele>1128.0</ele><time>2026-05-02T14:47:00.513Z</time></trkpt><trkpt lat="45.75631007015289" lon="11.154679144903572"><ele>1128.0</ele><time>2026-05-02T14:47:01.513Z</time></trkpt><trkpt lat="45.756332706415805" lon="11.154821868003465"><ele>1128.0</ele><time>2026-05-02T14:47:02.513Z</time></trkpt><trkpt lat="45.75632745449541" lon="11.154936958514853"><ele>1128.0</ele><time>2026-05-02T14:47:03.513Z</time></trkpt><trkpt lat="45.75636219116742" lon="11.155036404446736"><ele>1128.0</ele><time>2026-05-02T14:47:04.513Z</time></trkpt><trkpt lat="45.75638439515183" lon="11.155135237826299"><ele>1128.0</ele><time>2026-05-02T14:47:05.513Z</time></trkpt><trkpt lat="45.756395744600404" lon="11.15525781665092"><ele>1128.0</ele><time>2026-05-02T14:47:06.513Z</time></trkpt><trkpt lat="45.75634504197973" lon="11.155378149721418"><ele>1129.6</ele><time>2026-05-02T14:47:07.513Z</time></trkpt><trkpt lat="45.75633451358191" lon="11.155486784476333"><ele>1131.1999999999998</ele><time>2026-05-02T14:47:08.513Z</time></trkpt><trkpt lat="45.75637739646753" lon="11.155553093969266"><ele>1132.8</ele><time>2026-05-02T14:47:09.513Z</time></trkpt><trkpt lat="45.756409966598035" lon="11.155667489304546"><ele>1134.3999999999999</ele><time>2026-05-02T14:47:10.513Z</time></trkpt><trkpt lat="45.75646018258997" lon="11.15580175120079"><ele>1136.0</ele><time>2026-05-02T14:47:11.513Z</time></trkpt><trkpt lat="45.756525510049656" lon="11.155942357876361"><ele>1138.6666666666667</ele><time>2026-05-02T14:47:12.513Z</time></trkpt><trkpt lat="45.75666514385941" lon="11.156103570797066"><ele>1141.3333333333333</ele><time>2026-05-02T14:47:13.513Z</time></trkpt><trkpt lat="45.75674447642017" lon="11.156298999060464"><ele>1144.0</ele><time>2026-05-02T14:47:14.513Z</time></trkpt><trkpt lat="45.756795631710226" lon="11.156492819646449"><ele>1148.0</ele><time>2026-05-02T14:47:15.513Z</time></trkpt><trkpt lat="45.75686417893029" lon="11.15666982658368"><ele>1152.0</ele><time>2026-05-02T14:47:16.513Z</time></trkpt><trkpt lat="45.75690905042852" lon="11.156854673778907"><ele>1156.0</ele><time>2026-05-02T14:47:17.513Z</time></trkpt><trkpt lat="45.756840894458634" lon="11.157141544884274"><ele>1156.0</ele><time>2026-05-02T14:47:18.513Z</time></trkpt><trkpt lat="45.75676306376813" lon="11.15733543334381"><ele>1156.0</ele><time>2026-05-02T14:47:19.513Z</time></trkpt><trkpt lat="45.756638904508335" lon="11.15742624029157"><ele>1156.0</ele><time>2026-05-02T14:47:20.513Z</time></trkpt><trkpt lat="45.75658329359693" lon="11.157565924715326"><ele>1156.0</ele><time>2026-05-02T14:47:21.513Z</time></trkpt><trkpt lat="45.756663496998875" lon="11.1577089549297"><ele>1155.75</ele><time>2026-05-02T14:47:23.513Z</time></trkpt><trkpt lat="45.75679710518909" lon="11.157797685245514"><ele>1155.5</ele><time>2026-05-02T14:47:24.513Z</time></trkpt><trkpt lat="45.756886926012555" lon="11.157890645292905"><ele>1155.25</ele><time>2026-05-02T14:47:25.513Z</time></trkpt><trkpt lat="45.75703018604901" lon="11.158044579493357"><ele>1155.0</ele><time>2026-05-02T14:47:26.513Z</time></trkpt><trkpt lat="45.75714506202987" lon="11.158219474170096"><ele>1155.0</ele><time>2026-05-02T14:47:27.513Z</time></trkpt><trkpt lat="45.75726884573808" lon="11.158399598259692"><ele>1155.0</ele><time>2026-05-02T14:47:28.513Z</time></trkpt><trkpt lat="45.757378620963976" lon="11.158565392631429"><ele>1155.0</ele><time>2026-05-02T14:47:29.513Z</time></trkpt><trkpt lat="45.75749264035258" lon="11.158740001755094"><ele>1155.0</ele><time>2026-05-02T14:47:30.513Z</time></trkpt><trkpt lat="45.7575853214218" lon="11.15894426356629"><ele>1155.0</ele><time>2026-05-02T14:47:31.513Z</time></trkpt><trkpt lat="45.757662041521485" lon="11.159159150978425"><ele>1155.0</ele><time>2026-05-02T14:47:32.513Z</time></trkpt><trkpt lat="45.757739313757604" lon="11.159316512988166"><ele>1156.2</ele><time>2026-05-02T14:47:33.513Z</time></trkpt><trkpt lat="45.7577855323829" lon="11.159475838502756"><ele>1157.4</ele><time>2026-05-02T14:47:34.513Z</time></trkpt><trkpt lat="45.75775728299318" lon="11.159574286737122"><ele>1158.6</ele><time>2026-05-02T14:47:35.513Z</time></trkpt><trkpt lat="45.757789208089356" lon="11.159709456993294"><ele>1159.8</ele><time>2026-05-02T14:47:36.513Z</time></trkpt><trkpt lat="45.75772990632345" lon="11.159878812602631"><ele>1161.0</ele><time>2026-05-02T14:47:37.513Z</time></trkpt><trkpt lat="45.75748608760084" lon="11.160077218503638"><ele>1161.0</ele><time>2026-05-02T14:47:38.513Z</time></trkpt><trkpt lat="45.757300154215" lon="11.160080831282452"><ele>1161.0</ele><time>2026-05-02T14:47:39.513Z</time></trkpt><trkpt lat="45.757067142486605" lon="11.160115195454802"><ele>1161.0</ele><time>2026-05-02T14:47:40.513Z</time></trkpt><trkpt lat="45.75676881370627" lon="11.159951695163915"><ele>1165.5</ele><time>2026-05-02T14:47:41.513Z</time></trkpt><trkpt lat="45.75661399561969" lon="11.159989924521884"><ele>1170.0</ele><time>2026-05-02T14:47:42.513Z</time></trkpt><trkpt lat="45.75646856275532" lon="11.160064885894469"><ele>1174.5</ele><time>2026-05-02T14:47:43.513Z</time></trkpt><trkpt lat="45.75637494973966" lon="11.1601960607302"><ele>1179.0</ele><time>2026-05-02T14:47:44.513Z</time></trkpt><trkpt lat="45.756332004200715" lon="11.16038150932287"><ele>1179.0</ele><time>2026-05-02T14:47:45.513Z</time></trkpt><trkpt lat="45.75625560117736" lon="11.160528561466306"><ele>1179.0</ele><time>2026-05-02T14:47:46.513Z</time></trkpt><trkpt lat="45.75638456917656" lon="11.160781445396072"><ele>1179.0</ele><time>2026-05-02T14:47:47.513Z</time></trkpt><trkpt lat="45.75646846739863" lon="11.16098046501783"><ele>1178.2</ele><time>2026-05-02T14:47:48.513Z</time></trkpt><trkpt lat="45.75650633729927" lon="11.16114101351368"><ele>1177.4</ele><time>2026-05-02T14:47:49.513Z</time></trkpt><trkpt lat="45.75651768774033" lon="11.16130340623454"><ele>1176.6</ele><time>2026-05-02T14:47:50.513Z</time></trkpt><trkpt lat="45.75650944596805" lon="11.161449106050446"><ele>1175.8</ele><time>2026-05-02T14:47:51.513Z</time></trkpt><trkpt lat="45.756477660651576" lon="11.161530507105537"><ele>1175.0</ele><time>2026-05-02T14:47:52.513Z</time></trkpt><trkpt lat="45.75639224974731" lon="11.161673391410089"><ele>1174.5</ele><time>2026-05-02T14:47:53.513Z</time></trkpt><trkpt lat="45.756312371805436" lon="11.161859213710033"><ele>1174.0</ele><time>2026-05-02T14:47:54.513Z</time></trkpt><trkpt lat="45.75626839124154" lon="11.162015117282218"><ele>1173.5</ele><time>2026-05-02T14:47:55.513Z</time></trkpt><trkpt lat="45.75629460885489" lon="11.162245258212822"><ele>1173.0</ele><time>2026-05-02T14:47:56.513Z</time></trkpt><trkpt lat="45.75639197362584" lon="11.16248511131129"><ele>1174.75</ele><time>2026-05-02T14:47:57.513Z</time></trkpt><trkpt lat="45.75640451524238" lon="11.162700041540878"><ele>1176.5</ele><time>2026-05-02T14:47:58.513Z</time></trkpt><trkpt lat="45.75640071464509" lon="11.162883108000283"><ele>1178.25</ele><time>2026-05-02T14:47:59.513Z</time></trkpt><trkpt lat="45.756442819153065" lon="11.163063775103073"><ele>1180.0</ele><time>2026-05-02T14:48:00.513Z</time></trkpt><trkpt lat="45.756504218771546" lon="11.163200714567846"><ele>1180.5</ele><time>2026-05-02T14:48:01.513Z</time></trkpt><trkpt lat="45.75659456370477" lon="11.163279593684956"><ele>1181.0</ele><time>2026-05-02T14:48:02.513Z</time></trkpt><trkpt lat="45.756722428416325" lon="11.16332257627037"><ele>1181.5</ele><time>2026-05-02T14:48:03.513Z</time></trkpt><trkpt lat="45.75685953105149" lon="11.163364476286668"><ele>1182.0</ele><time>2026-05-02T14:48:04.513Z</time></trkpt><trkpt lat="45.757036787911865" lon="11.163326749218456"><ele>1182.0</ele><time>2026-05-02T14:48:05.513Z</time></trkpt><trkpt lat="45.757099104518026" lon="11.163302049576771"><ele>1182.0</ele><time>2026-05-02T14:48:06.513Z</time></trkpt><trkpt lat="45.75717970028255" lon="11.16336631965237"><ele>1182.0</ele><time>2026-05-02T14:48:07.513Z</time></trkpt><trkpt lat="45.75725224268507" lon="11.163448044326126"><ele>1182.0</ele><time>2026-05-02T14:48:08.513Z</time></trkpt><trkpt lat="45.75731394034255" lon="11.163526328414333"><ele>1182.0</ele><time>2026-05-02T14:48:09.513Z</time></trkpt><trkpt lat="45.75737731463511" lon="11.163605998906174"><ele>1182.0</ele><time>2026-05-02T14:48:10.513Z</time></trkpt><trkpt lat="45.757455182565224" lon="11.16361408580926"><ele>1182.0</ele><time>2026-05-02T14:48:11.513Z</time></trkpt><trkpt lat="45.75752047773206" lon="11.163605982620096"><ele>1182.0</ele><time>2026-05-02T14:48:15.513Z</time></trkpt><trkpt lat="45.75761501966213" lon="11.16359062447466"><ele>1182.0</ele><time>2026-05-02T14:48:41.514Z</time></trkpt><trkpt lat="45.75769305094785" lon="11.16375326295794"><ele>1182.0</ele><time>2026-05-02T14:48:43.514Z</time></trkpt><trkpt lat="45.75774548352641" lon="11.163836785355658"><ele>1182.0</ele><time>2026-05-02T14:48:44.514Z</time></trkpt><trkpt lat="45.75776530599038" lon="11.163952908351126"><ele>1183.4</ele><time>2026-05-02T14:48:45.514Z</time></trkpt><trkpt lat="45.75776030005335" lon="11.164109351919231"><ele>1184.8000000000002</ele><time>2026-05-02T14:48:46.514Z</time></trkpt><trkpt lat="45.757764717147204" lon="11.164275319159831"><ele>1186.2</ele><time>2026-05-02T14:48:47.514Z</time></trkpt><trkpt lat="45.757765714800705" lon="11.16439449913459"><ele>1187.6000000000001</ele><time>2026-05-02T14:48:48.514Z</time></trkpt><trkpt lat="45.75771591040327" lon="11.164551000212716"><ele>1189.0</ele><time>2026-05-02T14:48:49.514Z</time></trkpt><trkpt lat="45.75758308111437" lon="11.164721202412347"><ele>1188.25</ele><time>2026-05-02T14:48:50.514Z</time></trkpt><trkpt lat="45.757518243426844" lon="11.16486298404327"><ele>1187.5</ele><time>2026-05-02T14:48:51.514Z</time></trkpt><trkpt lat="45.75746018491239" lon="11.165009193176456"><ele>1186.75</ele><time>2026-05-02T14:48:52.514Z</time></trkpt><trkpt lat="45.75741427957832" lon="11.16517265991871"><ele>1186.0</ele><time>2026-05-02T14:48:53.514Z</time></trkpt><trkpt lat="45.757346723510395" lon="11.165298144179468"><ele>1186.0</ele><time>2026-05-02T14:48:54.514Z</time></trkpt><trkpt lat="45.75731128595223" lon="11.165458941598596"><ele>1186.0</ele><time>2026-05-02T14:48:55.514Z</time></trkpt><trkpt lat="45.75729110443955" lon="11.165622983457755"><ele>1186.0</ele><time>2026-05-02T14:48:56.514Z</time></trkpt><trkpt lat="45.75723948313943" lon="11.165767418029962"><ele>1186.0</ele><time>2026-05-02T14:48:57.514Z</time></trkpt><trkpt lat="45.757251868032114" lon="11.16595664673924"><ele>1186.25</ele><time>2026-05-02T14:48:58.514Z</time></trkpt><trkpt lat="45.75722994912781" lon="11.166137121928521"><ele>1186.5</ele><time>2026-05-02T14:48:59.514Z</time></trkpt><trkpt lat="45.757242976832245" lon="11.166328015871974"><ele>1186.75</ele><time>2026-05-02T14:49:00.514Z</time></trkpt><trkpt lat="45.75725931124401" lon="11.166463134953048"><ele>1187.0</ele><time>2026-05-02T14:49:01.514Z</time></trkpt><trkpt lat="45.757369208545" lon="11.166658429318431"><ele>1187.0</ele><time>2026-05-02T14:49:02.514Z</time></trkpt><trkpt lat="45.75747700141348" lon="11.16672352487765"><ele>1187.0</ele><time>2026-05-02T14:49:03.514Z</time></trkpt><trkpt lat="45.75750491201083" lon="11.166907717229153"><ele>1187.0</ele><time>2026-05-02T14:49:04.514Z</time></trkpt><trkpt lat="45.75753372842512" lon="11.16705840198484"><ele>1187.0</ele><time>2026-05-02T14:49:05.514Z</time></trkpt><trkpt lat="45.75757553387994" lon="11.167210557828735"><ele>1187.75</ele><time>2026-05-02T14:49:06.514Z</time></trkpt><trkpt lat="45.75757690402626" lon="11.167375656214826"><ele>1188.5</ele><time>2026-05-02T14:49:07.514Z</time></trkpt><trkpt lat="45.75760419468204" lon="11.167506949917323"><ele>1189.25</ele><time>2026-05-02T14:49:08.514Z</time></trkpt><trkpt lat="45.75759135405409" lon="11.167702056264039"><ele>1190.0</ele><time>2026-05-02T14:49:09.514Z</time></trkpt><trkpt lat="45.75757214812448" lon="11.167894176539734"><ele>1190.0</ele><time>2026-05-02T14:49:10.514Z</time></trkpt><trkpt lat="45.757559852160064" lon="11.168086280020239"><ele>1190.0</ele><time>2026-05-02T14:49:11.514Z</time></trkpt><trkpt lat="45.757537939502726" lon="11.168263419500022"><ele>1190.0</ele><time>2026-05-02T14:49:12.514Z</time></trkpt><trkpt lat="45.75751748164032" lon="11.168420591414312"><ele>1190.0</ele><time>2026-05-02T14:49:13.514Z</time></trkpt><trkpt lat="45.757492974321615" lon="11.168578335315967"><ele>1190.0</ele><time>2026-05-02T14:49:14.514Z</time></trkpt><trkpt lat="45.757470948098394" lon="11.168733919808416"><ele>1190.0</ele><time>2026-05-02T14:49:15.514Z</time></trkpt><trkpt lat="45.75744496060701" lon="11.168875800253792"><ele>1190.0</ele><time>2026-05-02T14:49:16.514Z</time></trkpt><trkpt lat="45.75742061905407" lon="11.169009654010553"><ele>1190.0</ele><time>2026-05-02T14:49:17.514Z</time></trkpt><trkpt lat="45.75739132476294" lon="11.169155377145936"><ele>1190.0</ele><time>2026-05-02T14:49:18.514Z</time></trkpt><trkpt lat="45.75737054326641" lon="11.16929193137941"><ele>1190.0</ele><time>2026-05-02T14:49:19.514Z</time></trkpt><trkpt lat="45.75734612043231" lon="11.169425476892009"><ele>1190.0</ele><time>2026-05-02T14:49:20.514Z</time></trkpt><trkpt lat="45.757320970278485" lon="11.169555164987125"><ele>1190.0</ele><time>2026-05-02T14:49:21.514Z</time></trkpt><trkpt lat="45.75730397999473" lon="11.169667957851932"><ele>1190.0</ele><time>2026-05-02T14:49:22.514Z</time></trkpt><trkpt lat="45.75732155559729" lon="11.169765458210563"><ele>1190.0</ele><time>2026-05-02T14:49:23.514Z</time></trkpt><trkpt lat="45.75736917452914" lon="11.169947148858215"><ele>1190.5</ele><time>2026-05-02T14:49:25.514Z</time></trkpt><trkpt lat="45.757469510748784" lon="11.169986720635483"><ele>1191.0</ele><time>2026-05-02T14:49:26.514Z</time></trkpt><trkpt lat="45.75754742993351" lon="11.170029713175513"><ele>1191.5</ele><time>2026-05-02T14:49:27.514Z</time></trkpt><trkpt lat="45.75763707488189" lon="11.170026063063784"><ele>1192.0</ele><time>2026-05-02T14:49:28.514Z</time></trkpt><trkpt lat="45.75772673427555" lon="11.170010675309308"><ele>1192.5</ele><time>2026-05-02T14:49:29.514Z</time></trkpt><trkpt lat="45.75780258962986" lon="11.170020653262005"><ele>1193.0</ele><time>2026-05-02T14:49:30.514Z</time></trkpt><trkpt lat="45.75787490045472" lon="11.170073681466272"><ele>1189.6</ele><time>2026-05-02T14:49:31.514Z</time></trkpt><trkpt lat="45.757937016318" lon="11.170120588221803"><ele>1186.1999999999998</ele><time>2026-05-02T14:49:32.514Z</time></trkpt><trkpt lat="45.758001132173554" lon="11.170193058404033"><ele>1182.8</ele><time>2026-05-02T14:49:33.514Z</time></trkpt><trkpt lat="45.758060518008605" lon="11.170342576972889"><ele>1179.3999999999999</ele><time>2026-05-02T14:49:34.514Z</time></trkpt><trkpt lat="45.75812011262774" lon="11.170451075189757"><ele>1176.0</ele><time>2026-05-02T14:49:35.514Z</time></trkpt><trkpt lat="45.75816863340141" lon="11.170555677434638"><ele>1176.0</ele><time>2026-05-02T14:49:36.514Z</time></trkpt><trkpt lat="45.75820864767103" lon="11.170666943785735"><ele>1176.0</ele><time>2026-05-02T14:49:37.514Z</time></trkpt><trkpt lat="45.758266912899614" lon="11.170743316986087"><ele>1176.0</ele><time>2026-05-02T14:49:38.514Z</time></trkpt><trkpt lat="45.758318273569515" lon="11.170834909000147"><ele>1176.0</ele><time>2026-05-02T14:49:39.514Z</time></trkpt><trkpt lat="45.758377319339445" lon="11.17091024755184"><ele>1176.0</ele><time>2026-05-02T14:49:40.514Z</time></trkpt><trkpt lat="45.75846166057891" lon="11.17090226810145"><ele>1176.0</ele><time>2026-05-02T14:49:41.514Z</time></trkpt><trkpt lat="45.75854003325151" lon="11.17094488631292"><ele>1175.25</ele><time>2026-05-02T14:49:42.514Z</time></trkpt><trkpt lat="45.7586508216191" lon="11.170981560478998"><ele>1174.5</ele><time>2026-05-02T14:49:43.514Z</time></trkpt><trkpt lat="45.75876442796502" lon="11.171006732420674"><ele>1173.75</ele><time>2026-05-02T14:49:44.514Z</time></trkpt><trkpt lat="45.75888670657333" lon="11.17094007702027"><ele>1173.0</ele><time>2026-05-02T14:49:45.514Z</time></trkpt><trkpt lat="45.75900436167605" lon="11.170887431180102"><ele>1173.0</ele><time>2026-05-02T14:49:46.514Z</time></trkpt><trkpt lat="45.75909557762791" lon="11.170865486722498"><ele>1173.0</ele><time>2026-05-02T14:49:47.514Z</time></trkpt><trkpt lat="45.75917503353602" lon="11.170888186556013"><ele>1173.0</ele><time>2026-05-02T14:49:48.514Z</time></trkpt><trkpt lat="45.759249419411844" lon="11.170902320608937"><ele>1173.0</ele><time>2026-05-02T14:49:49.514Z</time></trkpt><trkpt lat="45.759316122510675" lon="11.170939564520271"><ele>1173.0</ele><time>2026-05-02T14:49:50.514Z</time></trkpt><trkpt lat="45.75937030145933" lon="11.17100072474253"><ele>1173.0</ele><time>2026-05-02T14:49:51.514Z</time></trkpt><trkpt lat="45.75937571744926" lon="11.171288071536672"><ele>1170.4</ele><time>2026-05-02T14:49:52.514Z</time></trkpt><trkpt lat="45.75937787024719" lon="11.171416487339894"><ele>1167.8</ele><time>2026-05-02T14:49:53.514Z</time></trkpt><trkpt lat="45.759385285284196" lon="11.17157298516043"><ele>1165.2</ele><time>2026-05-02T14:49:54.514Z</time></trkpt><trkpt lat="45.759384060910826" lon="11.171724726964857"><ele>1162.6</ele><time>2026-05-02T14:49:55.514Z</time></trkpt><trkpt lat="45.75938761039886" lon="11.171849439941397"><ele>1160.0</ele><time>2026-05-02T14:49:56.514Z</time></trkpt><trkpt lat="45.75942443880547" lon="11.171973446816768"><ele>1160.0</ele><time>2026-05-02T14:49:57.514Z</time></trkpt><trkpt lat="45.75948031611904" lon="11.172069467590703"><ele>1160.0</ele><time>2026-05-02T14:49:58.514Z</time></trkpt><trkpt lat="45.75958225465918" lon="11.172156556575349"><ele>1160.0</ele><time>2026-05-02T14:49:59.514Z</time></trkpt><trkpt lat="45.75970871939174" lon="11.172207078088462"><ele>1160.0</ele><time>2026-05-02T14:50:00.514Z</time></trkpt><trkpt lat="45.759808611281365" lon="11.172253468904724"><ele>1160.0</ele><time>2026-05-02T14:50:01.514Z</time></trkpt><trkpt lat="45.75989749884446" lon="11.172311536297034"><ele>1160.6</ele><time>2026-05-02T14:50:02.514Z</time></trkpt><trkpt lat="45.75997934987752" lon="11.172378526464659"><ele>1161.2</ele><time>2026-05-02T14:50:03.514Z</time></trkpt><trkpt lat="45.760054362306384" lon="11.172465514050648"><ele>1161.8</ele><time>2026-05-02T14:50:04.514Z</time></trkpt><trkpt lat="45.76010845343245" lon="11.172550724686237"><ele>1162.4</ele><time>2026-05-02T14:50:05.514Z</time></trkpt><trkpt lat="45.76016156895352" lon="11.172672220494857"><ele>1163.0</ele><time>2026-05-02T14:50:06.514Z</time></trkpt><trkpt lat="45.760238772529085" lon="11.172758870549918"><ele>1163.0</ele><time>2026-05-02T14:50:08.514Z</time></trkpt><trkpt lat="45.76026202135788" lon="11.17287943811523"><ele>1163.0</ele><time>2026-05-02T14:50:11.514Z</time></trkpt><trkpt lat="45.76024900646258" lon="11.173013452270274"><ele>1163.0</ele><time>2026-05-02T14:50:14.514Z</time></trkpt><trkpt lat="45.760207497167016" lon="11.173096720683503"><ele>1163.0</ele><time>2026-05-02T14:50:16.514Z</time></trkpt><trkpt lat="45.76015876710589" lon="11.173186756850924"><ele>1163.0</ele><time>2026-05-02T14:50:19.514Z</time></trkpt><trkpt lat="45.76022728861893" lon="11.173228691888632"><ele>1163.0</ele><time>2026-05-02T14:51:49.515Z</time></trkpt><trkpt lat="45.760157849770955" lon="11.173188766401331"><ele>1163.2857142857142</ele><time>2026-05-02T14:57:07.517Z</time></trkpt><trkpt lat="45.76021318571661" lon="11.17312879487459"><ele>1163.5714285714284</ele><time>2026-05-02T14:58:51.517Z</time></trkpt><trkpt lat="45.76023907829981" lon="11.173025492928824"><ele>1163.8571428571427</ele><time>2026-05-02T15:00:50.154Z</time></trkpt><trkpt lat="45.760286146324795" lon="11.172932399662582"><ele>1164.142857142857</ele><time>2026-05-02T15:48:27.676Z</time></trkpt><trkpt lat="45.76022531309439" lon="11.172964132966335"><ele>1164.4285714285713</ele><time>2026-05-02T15:48:42.553Z</time></trkpt><trkpt lat="45.76024621118667" lon="11.17306596423649"><ele>1164.7142857142856</ele><time>2026-05-02T15:48:48.536Z</time></trkpt><trkpt lat="45.76028150481338" lon="11.173141150575939"><ele>1165.0</ele><time>2026-05-02T15:49:04.536Z</time></trkpt><trkpt lat="45.76026431928712" lon="11.173263274895216"><ele>1165.2</ele><time>2026-05-02T15:49:20.536Z</time></trkpt><trkpt lat="45.76028053558412" lon="11.173366489060445"><ele>1165.4</ele><time>2026-05-02T15:49:30.536Z</time></trkpt><trkpt lat="45.76034925563827" lon="11.17340738707175"><ele>1165.6</ele><time>2026-05-02T15:49:35.536Z</time></trkpt><trkpt lat="45.760268200590794" lon="11.173337878854857"><ele>1165.8</ele><time>2026-05-02T15:51:15.537Z</time></trkpt><trkpt lat="45.76010580542304" lon="11.173484778826747"><ele>1166.0</ele><time>2026-05-02T15:51:33.537Z</time></trkpt><trkpt lat="45.76003747731912" lon="11.173513196638718"><ele>1166.0</ele><time>2026-05-02T15:51:34.537Z</time></trkpt><trkpt lat="45.759995275665254" lon="11.173663844824395"><ele>1166.0</ele><time>2026-05-02T15:51:36.537Z</time></trkpt><trkpt lat="45.75994064927932" lon="11.17379146027028"><ele>1166.0</ele><time>2026-05-02T15:51:38.537Z</time></trkpt><trkpt lat="45.75989297266427" lon="11.173894136977275"><ele>1166.0</ele><time>2026-05-02T15:51:39.537Z</time></trkpt><trkpt lat="45.75981979290919" lon="11.173987808815015"><ele>1166.0</ele><time>2026-05-02T15:51:40.537Z</time></trkpt><trkpt lat="45.759741016424506" lon="11.174051418678633"><ele>1167.0</ele><time>2026-05-02T15:51:41.537Z</time></trkpt><trkpt lat="45.75966429578575" lon="11.174072747498975"><ele>1168.0</ele><time>2026-05-02T15:51:42.537Z</time></trkpt><trkpt lat="45.759554353347625" lon="11.174133549064598"><ele>1169.0</ele><time>2026-05-02T15:51:43.537Z</time></trkpt><trkpt lat="45.75947571769712" lon="11.174222955865611"><ele>1170.0</ele><time>2026-05-02T15:51:44.537Z</time></trkpt><trkpt lat="45.75940285450836" lon="11.174293728741526"><ele>1171.0</ele><time>2026-05-02T15:51:45.537Z</time></trkpt><trkpt lat="45.75934003663414" lon="11.174400372917166"><ele>1171.0</ele><time>2026-05-02T15:51:46.537Z</time></trkpt><trkpt lat="45.75927497128687" lon="11.17449843077823"><ele>1171.0</ele><time>2026-05-02T15:51:47.537Z</time></trkpt><trkpt lat="45.75921076495799" lon="11.17463073847279"><ele>1171.0</ele><time>2026-05-02T15:51:48.537Z</time></trkpt><trkpt lat="45.75919034891498" lon="11.174754939576738"><ele>1171.0</ele><time>2026-05-02T15:51:49.537Z</time></trkpt><trkpt lat="45.7591596502873" lon="11.174883934201766"><ele>1171.0</ele><time>2026-05-02T15:51:50.537Z</time></trkpt><trkpt lat="45.75913055998373" lon="11.1750103354793"><ele>1169.0</ele><time>2026-05-02T15:51:51.537Z</time></trkpt><trkpt lat="45.75908273454111" lon="11.175181180425872"><ele>1167.0</ele><time>2026-05-02T15:51:52.537Z</time></trkpt><trkpt lat="45.75904452691902" lon="11.175378612560605"><ele>1165.0</ele><time>2026-05-02T15:51:53.537Z</time></trkpt><trkpt lat="45.758924952365184" lon="11.175599711244603"><ele>1168.0</ele><time>2026-05-02T15:51:54.537Z</time></trkpt><trkpt lat="45.758843658511005" lon="11.17578287765323"><ele>1171.0</ele><time>2026-05-02T15:51:55.537Z</time></trkpt><trkpt lat="45.75873762037326" lon="11.175901801761253"><ele>1174.0</ele><time>2026-05-02T15:51:56.537Z</time></trkpt><trkpt lat="45.75865845231018" lon="11.175978491488488"><ele>1177.0</ele><time>2026-05-02T15:51:57.537Z</time></trkpt><trkpt lat="45.75859283862957" lon="11.176074125769336"><ele>1173.5</ele><time>2026-05-02T15:51:58.537Z</time></trkpt><trkpt lat="45.758532254523615" lon="11.176201180880762"><ele>1170.0</ele><time>2026-05-02T15:51:59.537Z</time></trkpt><trkpt lat="45.758477505223446" lon="11.176421871668872"><ele>1166.5</ele><time>2026-05-02T15:52:00.537Z</time></trkpt><trkpt lat="45.75842331721417" lon="11.176562752262626"><ele>1163.0</ele><time>2026-05-02T15:52:01.537Z</time></trkpt><trkpt lat="45.75836091241664" lon="11.176696683722692"><ele>1162.25</ele><time>2026-05-02T15:52:02.537Z</time></trkpt><trkpt lat="45.75829455985851" lon="11.176836421332725"><ele>1161.5</ele><time>2026-05-02T15:52:03.537Z</time></trkpt><trkpt lat="45.758224095254604" lon="11.177000054560466"><ele>1160.75</ele><time>2026-05-02T15:52:04.537Z</time></trkpt><trkpt lat="45.75815179115315" lon="11.177205134221891"><ele>1160.0</ele><time>2026-05-02T15:52:05.537Z</time></trkpt><trkpt lat="45.75807676901642" lon="11.177408643706988"><ele>1162.0</ele><time>2026-05-02T15:52:06.537Z</time></trkpt><trkpt lat="45.75801440880472" lon="11.17759278657156"><ele>1164.0</ele><time>2026-05-02T15:52:07.537Z</time></trkpt><trkpt lat="45.757948036945145" lon="11.17777663080034"><ele>1166.0</ele><time>2026-05-02T15:52:08.537Z</time></trkpt><trkpt lat="45.75788496282594" lon="11.177991391225197"><ele>1169.3333333333335</ele><time>2026-05-02T15:52:09.537Z</time></trkpt><trkpt lat="45.757824462637224" lon="11.178195260525483"><ele>1172.6666666666667</ele><time>2026-05-02T15:52:10.537Z</time></trkpt><trkpt lat="45.75777586088081" lon="11.178409125712143"><ele>1176.0</ele><time>2026-05-02T15:52:11.537Z</time></trkpt><trkpt lat="45.75774225575033" lon="11.178616922144368"><ele>1176.0</ele><time>2026-05-02T15:52:12.537Z</time></trkpt><trkpt lat="45.757706700545604" lon="11.178809610773897"><ele>1176.0</ele><time>2026-05-02T15:52:13.537Z</time></trkpt><trkpt lat="45.75766059494422" lon="11.17899635835285"><ele>1176.0</ele><time>2026-05-02T15:52:14.537Z</time></trkpt><trkpt lat="45.75761341550994" lon="11.179172495209661"><ele>1176.0</ele><time>2026-05-02T15:52:15.537Z</time></trkpt><trkpt lat="45.75757171854951" lon="11.179356873141328"><ele>1173.0</ele><time>2026-05-02T15:52:16.537Z</time></trkpt><trkpt lat="45.75755769892972" lon="11.179518340838312"><ele>1170.0</ele><time>2026-05-02T15:52:17.537Z</time></trkpt><trkpt lat="45.757606548894" lon="11.179708269724728"><ele>1167.0</ele><time>2026-05-02T15:52:18.537Z</time></trkpt><trkpt lat="45.7576349719933" lon="11.179907462732334"><ele>1164.0</ele><time>2026-05-02T15:52:19.537Z</time></trkpt><trkpt lat="45.757649439146064" lon="11.180124288463299"><ele>1164.0</ele><time>2026-05-02T15:52:20.537Z</time></trkpt><trkpt lat="45.75765752702448" lon="11.180344648371868"><ele>1164.0</ele><time>2026-05-02T15:52:21.537Z</time></trkpt><trkpt lat="45.75765460241172" lon="11.180568826567624"><ele>1164.0</ele><time>2026-05-02T15:52:22.537Z</time></trkpt><trkpt lat="45.75763335286167" lon="11.180830142183908"><ele>1161.6666666666667</ele><time>2026-05-02T15:52:23.537Z</time></trkpt><trkpt lat="45.757619739262005" lon="11.181074432545467"><ele>1159.3333333333335</ele><time>2026-05-02T15:52:24.537Z</time></trkpt><trkpt lat="45.75761428118375" lon="11.181292197852196"><ele>1157.0</ele><time>2026-05-02T15:52:25.537Z</time></trkpt><trkpt lat="45.75760046934024" lon="11.181534458262378"><ele>1153.75</ele><time>2026-05-02T15:52:26.537Z</time></trkpt><trkpt lat="45.75761112861382" lon="11.181734375983188"><ele>1150.5</ele><time>2026-05-02T15:52:27.537Z</time></trkpt><trkpt lat="45.757619531110066" lon="11.181954243757785"><ele>1147.25</ele><time>2026-05-02T15:52:28.537Z</time></trkpt><trkpt lat="45.75766795655259" lon="11.182097372026465"><ele>1144.0</ele><time>2026-05-02T15:52:29.537Z</time></trkpt><trkpt lat="45.75769865995606" lon="11.182336287908665"><ele>1153.3333333333333</ele><time>2026-05-02T15:52:30.537Z</time></trkpt><trkpt lat="45.75771762447421" lon="11.18255694579654"><ele>1162.6666666666667</ele><time>2026-05-02T15:52:31.537Z</time></trkpt><trkpt lat="45.75773697158778" lon="11.18277383899814"><ele>1172.0</ele><time>2026-05-02T15:52:32.537Z</time></trkpt><trkpt lat="45.75776289600385" lon="11.182988087023057"><ele>1166.0</ele><time>2026-05-02T15:52:33.537Z</time></trkpt><trkpt lat="45.757770222348675" lon="11.183198177453262"><ele>1160.0</ele><time>2026-05-02T15:52:34.537Z</time></trkpt><trkpt lat="45.75779043036331" lon="11.183423363183602"><ele>1154.0</ele><time>2026-05-02T15:52:35.537Z</time></trkpt><trkpt lat="45.75786250576388" lon="11.183622276983343"><ele>1154.0</ele><time>2026-05-02T15:52:36.537Z</time></trkpt><trkpt lat="45.75792301970678" lon="11.183844473901827"><ele>1154.0</ele><time>2026-05-02T15:52:37.537Z</time></trkpt><trkpt lat="45.75800245190231" lon="11.184091990947085"><ele>1154.0</ele><time>2026-05-02T15:52:38.537Z</time></trkpt><trkpt lat="45.75810921783336" lon="11.18433955779768"><ele>1149.0</ele><time>2026-05-02T15:52:39.537Z</time></trkpt><trkpt lat="45.758174627857755" lon="11.184553281423636"><ele>1144.0</ele><time>2026-05-02T15:52:40.537Z</time></trkpt><trkpt lat="45.75824869086769" lon="11.184733684433878"><ele>1139.0</ele><time>2026-05-02T15:52:41.537Z</time></trkpt><trkpt lat="45.75829174153862" lon="11.184888875286958"><ele>1134.0</ele><time>2026-05-02T15:52:42.537Z</time></trkpt><trkpt lat="45.75835003957322" lon="11.185029596922496"><ele>1130.8</ele><time>2026-05-02T15:52:43.537Z</time></trkpt><trkpt lat="45.75840239968583" lon="11.185172705982005"><ele>1127.6000000000001</ele><time>2026-05-02T15:52:44.537Z</time></trkpt><trkpt lat="45.75843234572398" lon="11.185332678577133"><ele>1124.4</ele><time>2026-05-02T15:52:45.537Z</time></trkpt><trkpt lat="45.75838457925199" lon="11.185480220460246"><ele>1121.2</ele><time>2026-05-02T15:52:46.537Z</time></trkpt><trkpt lat="45.75838038509368" lon="11.185599919003431"><ele>1118.0</ele><time>2026-05-02T15:52:47.537Z</time></trkpt><trkpt lat="45.75824706937331" lon="11.185744001482318"><ele>1116.75</ele><time>2026-05-02T15:52:48.537Z</time></trkpt><trkpt lat="45.758040195219024" lon="11.185692392272431"><ele>1115.5</ele><time>2026-05-02T15:52:49.537Z</time></trkpt><trkpt lat="45.757926091136014" lon="11.185731571703256"><ele>1114.25</ele><time>2026-05-02T15:52:50.537Z</time></trkpt><trkpt lat="45.757846127438356" lon="11.185845846080161"><ele>1113.0</ele><time>2026-05-02T15:52:51.537Z</time></trkpt><trkpt lat="45.75775770043804" lon="11.18605155609599"><ele>1108.4</ele><time>2026-05-02T15:52:52.537Z</time></trkpt><trkpt lat="45.75767241199664" lon="11.186188511096406"><ele>1103.8</ele><time>2026-05-02T15:52:53.537Z</time></trkpt><trkpt lat="45.75758393378567" lon="11.186311734890932"><ele>1099.2</ele><time>2026-05-02T15:52:54.537Z</time></trkpt><trkpt lat="45.75752634359264" lon="11.18642401665657"><ele>1094.6</ele><time>2026-05-02T15:52:55.537Z</time></trkpt><trkpt lat="45.757475023938156" lon="11.186499418376728"><ele>1090.0</ele><time>2026-05-02T15:52:56.538Z</time></trkpt><trkpt lat="45.75744013990266" lon="11.18657931134657"><ele>1090.0</ele><time>2026-05-02T15:52:57.538Z</time></trkpt><trkpt lat="45.757340013805454" lon="11.186600505769944"><ele>1090.0</ele><time>2026-05-02T15:52:59.538Z</time></trkpt><trkpt lat="45.75723195620293" lon="11.186511471322511"><ele>1090.0</ele><time>2026-05-02T15:53:01.538Z</time></trkpt><trkpt lat="45.75722887922932" lon="11.186273438881658"><ele>1090.0</ele><time>2026-05-02T15:53:02.538Z</time></trkpt><trkpt lat="45.75745810980864" lon="11.185900387632914"><ele>1087.75</ele><time>2026-05-02T15:53:03.538Z</time></trkpt><trkpt lat="45.757470032312376" lon="11.18571703216252"><ele>1085.5</ele><time>2026-05-02T15:53:04.538Z</time></trkpt><trkpt lat="45.75748447196987" lon="11.185530026737196"><ele>1083.25</ele><time>2026-05-02T15:53:05.538Z</time></trkpt><trkpt lat="45.75749352254082" lon="11.18538567856387"><ele>1081.0</ele><time>2026-05-02T15:53:06.538Z</time></trkpt><trkpt lat="45.75749214427051" lon="11.185243724898903"><ele>1081.0</ele><time>2026-05-02T15:53:07.538Z</time></trkpt><trkpt lat="45.75742960245033" lon="11.185262711622272"><ele>1081.0</ele><time>2026-05-02T15:53:08.538Z</time></trkpt><trkpt lat="45.757331565037205" lon="11.185261587594972"><ele>1081.0</ele><time>2026-05-02T15:53:10.538Z</time></trkpt><trkpt lat="45.75721647099317" lon="11.185442306954249"><ele>1081.0</ele><time>2026-05-02T15:53:11.538Z</time></trkpt><trkpt lat="45.757172880045665" lon="11.185619610265984"><ele>1081.0</ele><time>2026-05-02T15:53:12.538Z</time></trkpt><trkpt lat="45.757114047082105" lon="11.18573123430988"><ele>1081.0</ele><time>2026-05-02T15:53:13.538Z</time></trkpt><trkpt lat="45.75706597091344" lon="11.18584055229982"><ele>1081.0</ele><time>2026-05-02T15:53:14.538Z</time></trkpt><trkpt lat="45.757004189423036" lon="11.185938132743159"><ele>1081.0</ele><time>2026-05-02T15:53:15.538Z</time></trkpt><trkpt lat="45.756940048526154" lon="11.186035997047242"><ele>1081.0</ele><time>2026-05-02T15:53:16.538Z</time></trkpt><trkpt lat="45.75686732411018" lon="11.186080427420483"><ele>1074.0</ele><time>2026-05-02T15:53:17.538Z</time></trkpt><trkpt lat="45.756544083544384" lon="11.185879660355669"><ele>1067.0</ele><time>2026-05-02T15:53:18.538Z</time></trkpt><trkpt lat="45.75641423433094" lon="11.185885697380751"><ele>1067.0</ele><time>2026-05-02T15:53:19.538Z</time></trkpt><trkpt lat="45.756297347339085" lon="11.185870781670992"><ele>1067.0</ele><time>2026-05-02T15:53:20.538Z</time></trkpt><trkpt lat="45.7561867158789" lon="11.185844158207221"><ele>1067.0</ele><time>2026-05-02T15:53:21.538Z</time></trkpt><trkpt lat="45.75607916200279" lon="11.185823926862696"><ele>1067.0</ele><time>2026-05-02T15:53:22.538Z</time></trkpt><trkpt lat="45.75602512112936" lon="11.18595672580305"><ele>1067.0</ele><time>2026-05-02T15:53:24.538Z</time></trkpt><trkpt lat="45.75595116709635" lon="11.186025163775245"><ele>1065.0</ele><time>2026-05-02T15:53:25.538Z</time></trkpt><trkpt lat="45.75599269690971" lon="11.186385272482047"><ele>1063.0</ele><time>2026-05-02T15:53:26.538Z</time></trkpt><trkpt lat="45.75601529792411" lon="11.186601732295852"><ele>1061.0</ele><time>2026-05-02T15:53:27.538Z</time></trkpt><trkpt lat="45.75600473542894" lon="11.186782006950486"><ele>1061.0</ele><time>2026-05-02T15:53:28.538Z</time></trkpt><trkpt lat="45.755982803226935" lon="11.186939774646701"><ele>1061.0</ele><time>2026-05-02T15:53:29.538Z</time></trkpt><trkpt lat="45.756023651298555" lon="11.187037483970867"><ele>1061.0</ele><time>2026-05-02T15:53:30.538Z</time></trkpt><trkpt lat="45.756171016938254" lon="11.187150466537325"><ele>1061.0</ele><time>2026-05-02T15:53:31.538Z</time></trkpt><trkpt lat="45.756313486260886" lon="11.187257176416509"><ele>1061.5</ele><time>2026-05-02T15:53:32.538Z</time></trkpt><trkpt lat="45.75641153852599" lon="11.187295105566786"><ele>1062.0</ele><time>2026-05-02T15:53:33.538Z</time></trkpt><trkpt lat="45.75652850991018" lon="11.18741950683436"><ele>1062.5</ele><time>2026-05-02T15:53:34.538Z</time></trkpt><trkpt lat="45.75663293901171" lon="11.187580978050402"><ele>1063.0</ele><time>2026-05-02T15:53:35.538Z</time></trkpt><trkpt lat="45.75669767067034" lon="11.187780596266832"><ele>1062.25</ele><time>2026-05-02T15:53:36.538Z</time></trkpt><trkpt lat="45.7567596469111" lon="11.18793650397718"><ele>1061.5</ele><time>2026-05-02T15:53:37.538Z</time></trkpt><trkpt lat="45.75685355904309" lon="11.188065484529105"><ele>1060.75</ele><time>2026-05-02T15:53:38.538Z</time></trkpt><trkpt lat="45.757022346869526" lon="11.188196875474109"><ele>1060.0</ele><time>2026-05-02T15:53:39.538Z</time></trkpt><trkpt lat="45.75712752476329" lon="11.188352980494521"><ele>1060.0</ele><time>2026-05-02T15:53:40.538Z</time></trkpt><trkpt lat="45.75721884188916" lon="11.188507255827481"><ele>1060.0</ele><time>2026-05-02T15:53:41.538Z</time></trkpt><trkpt lat="45.75734261499816" lon="11.18875745694882"><ele>1060.0</ele><time>2026-05-02T15:53:42.538Z</time></trkpt><trkpt lat="45.75745338180442" lon="11.188995236930564"><ele>1064.0</ele><time>2026-05-02T15:53:43.538Z</time></trkpt><trkpt lat="45.75754554506563" lon="11.189262121407618"><ele>1068.0</ele><time>2026-05-02T15:53:44.538Z</time></trkpt><trkpt lat="45.7576499697168" lon="11.189468769953645"><ele>1072.0</ele><time>2026-05-02T15:53:45.538Z</time></trkpt><trkpt lat="45.75773926013776" lon="11.189646381584112"><ele>1069.25</ele><time>2026-05-02T15:53:46.538Z</time></trkpt><trkpt lat="45.75781548991973" lon="11.18985352945285"><ele>1066.5</ele><time>2026-05-02T15:53:47.538Z</time></trkpt><trkpt lat="45.75787561861127" lon="11.190060532911268"><ele>1063.75</ele><time>2026-05-02T15:53:48.538Z</time></trkpt><trkpt lat="45.75786381858416" lon="11.19024466087338"><ele>1061.0</ele><time>2026-05-02T15:53:49.538Z</time></trkpt><trkpt lat="45.757800242491285" lon="11.190429904892838"><ele>1061.0</ele><time>2026-05-02T15:53:50.538Z</time></trkpt><trkpt lat="45.75784588485157" lon="11.190589819528316"><ele>1061.0</ele><time>2026-05-02T15:53:51.538Z</time></trkpt><trkpt lat="45.757915939500165" lon="11.190755632856497"><ele>1061.0</ele><time>2026-05-02T15:53:52.538Z</time></trkpt><trkpt lat="45.757994002046274" lon="11.19091999079915"><ele>1061.0</ele><time>2026-05-02T15:53:53.538Z</time></trkpt><trkpt lat="45.758081227872566" lon="11.191069278300699"><ele>1055.0</ele><time>2026-05-02T15:53:54.538Z</time></trkpt><trkpt lat="45.75821203599181" lon="11.191080320512446"><ele>1049.0</ele><time>2026-05-02T15:53:55.538Z</time></trkpt><trkpt lat="45.75839249337392" lon="11.191173103102592"><ele>1043.0</ele><time>2026-05-02T15:53:56.538Z</time></trkpt><trkpt lat="45.75850647101569" lon="11.191238555981055"><ele>1037.0</ele><time>2026-05-02T15:53:57.538Z</time></trkpt><trkpt lat="45.75860491120666" lon="11.191325217290597"><ele>1037.0</ele><time>2026-05-02T15:53:58.538Z</time></trkpt><trkpt lat="45.75870199984572" lon="11.1914198155942"><ele>1037.0</ele><time>2026-05-02T15:53:59.538Z</time></trkpt><trkpt lat="45.75873963517762" lon="11.191577371277884"><ele>1037.0</ele><time>2026-05-02T15:54:00.538Z</time></trkpt><trkpt lat="45.758780923836746" lon="11.191711155924702"><ele>1037.0</ele><time>2026-05-02T15:54:01.538Z</time></trkpt><trkpt lat="45.7588128109362" lon="11.191916888590917"><ele>1028.0</ele><time>2026-05-02T15:54:02.538Z</time></trkpt><trkpt lat="45.75872753733386" lon="11.19227043925843"><ele>1019.0</ele><time>2026-05-02T15:54:03.538Z</time></trkpt><trkpt lat="45.758718086442535" lon="11.192490668241332"><ele>1010.0</ele><time>2026-05-02T15:54:04.538Z</time></trkpt><trkpt lat="45.758757456398904" lon="11.192657156980609"><ele>1008.4</ele><time>2026-05-02T15:54:05.538Z</time></trkpt><trkpt lat="45.758800912721085" lon="11.192812973457102"><ele>1006.8</ele><time>2026-05-02T15:54:06.538Z</time></trkpt><trkpt lat="45.75882646188318" lon="11.192953440845008"><ele>1005.2</ele><time>2026-05-02T15:54:07.538Z</time></trkpt><trkpt lat="45.758867667209884" lon="11.193074432208384"><ele>1003.6</ele><time>2026-05-02T15:54:08.538Z</time></trkpt><trkpt lat="45.75894921226476" lon="11.193160022300091"><ele>1002.0</ele><time>2026-05-02T15:54:09.538Z</time></trkpt><trkpt lat="45.75907470498347" lon="11.193187718173338"><ele>1002.0</ele><time>2026-05-02T15:54:10.538Z</time></trkpt><trkpt lat="45.75923591412063" lon="11.193143426021209"><ele>1002.0</ele><time>2026-05-02T15:54:11.538Z</time></trkpt><trkpt lat="45.759405746008134" lon="11.19306520518803"><ele>1002.0</ele><time>2026-05-02T15:54:12.538Z</time></trkpt><trkpt lat="45.75958251716941" lon="11.193056566358958"><ele>1000.25</ele><time>2026-05-02T15:54:13.538Z</time></trkpt><trkpt lat="45.759734574219046" lon="11.193057388603803"><ele>998.5</ele><time>2026-05-02T15:54:14.538Z</time></trkpt><trkpt lat="45.75986804815858" lon="11.193067267878597"><ele>996.75</ele><time>2026-05-02T15:54:15.538Z</time></trkpt><trkpt lat="45.76001276669953" lon="11.193075879951452"><ele>995.0</ele><time>2026-05-02T15:54:16.538Z</time></trkpt><trkpt lat="45.760153458565696" lon="11.193077526942503"><ele>994.75</ele><time>2026-05-02T15:54:17.538Z</time></trkpt><trkpt lat="45.76028746026711" lon="11.193077329976548"><ele>994.5</ele><time>2026-05-02T15:54:18.538Z</time></trkpt><trkpt lat="45.76042607277178" lon="11.193043366085726"><ele>994.25</ele><time>2026-05-02T15:54:19.538Z</time></trkpt><trkpt lat="45.76052462127359" lon="11.19297490358501"><ele>994.0</ele><time>2026-05-02T15:54:20.538Z</time></trkpt><trkpt lat="45.76062335628983" lon="11.192983643277008"><ele>994.0</ele><time>2026-05-02T15:54:21.538Z</time></trkpt><trkpt lat="45.760750261199696" lon="11.1930049152531"><ele>994.0</ele><time>2026-05-02T15:54:22.538Z</time></trkpt><trkpt lat="45.760909401160795" lon="11.19303096490115"><ele>994.0</ele><time>2026-05-02T15:54:23.538Z</time></trkpt><trkpt lat="45.76103871922418" lon="11.19305492117921"><ele>994.0</ele><time>2026-05-02T15:54:24.538Z</time></trkpt><trkpt lat="45.76115977406474" lon="11.193132592359373"><ele>986.0</ele><time>2026-05-02T15:54:25.538Z</time></trkpt><trkpt lat="45.761315532894486" lon="11.193373446456691"><ele>978.0</ele><time>2026-05-02T15:54:26.538Z</time></trkpt><trkpt lat="45.761433444516264" lon="11.193492809634419"><ele>970.0</ele><time>2026-05-02T15:54:27.538Z</time></trkpt><trkpt lat="45.761554022057574" lon="11.193579344505041"><ele>970.0</ele><time>2026-05-02T15:54:28.538Z</time></trkpt><trkpt lat="45.76167483580272" lon="11.193675025630014"><ele>970.0</ele><time>2026-05-02T15:54:29.538Z</time></trkpt><trkpt lat="45.761785805371346" lon="11.19376508593839"><ele>970.0</ele><time>2026-05-02T15:54:30.538Z</time></trkpt><trkpt lat="45.76186978221585" lon="11.193815144955945"><ele>970.0</ele><time>2026-05-02T15:54:31.538Z</time></trkpt><trkpt lat="45.76195499244301" lon="11.193857944282046"><ele>970.0</ele><time>2026-05-02T15:54:32.538Z</time></trkpt><trkpt lat="45.76203588132295" lon="11.193909238766734"><ele>965.25</ele><time>2026-05-02T15:54:33.538Z</time></trkpt><trkpt lat="45.762121408024946" lon="11.194021554818493"><ele>960.5</ele><time>2026-05-02T15:54:35.538Z</time></trkpt><trkpt lat="45.76197480588783" lon="11.194090699057107"><ele>955.75</ele><time>2026-05-02T15:54:38.538Z</time></trkpt><trkpt lat="45.76180321633036" lon="11.194043932144636"><ele>951.0</ele><time>2026-05-02T15:54:39.538Z</time></trkpt><trkpt lat="45.76167917899274" lon="11.194015190337009"><ele>955.75</ele><time>2026-05-02T15:54:40.538Z</time></trkpt><trkpt lat="45.76155487500463" lon="11.193958435518123"><ele>960.5</ele><time>2026-05-02T15:54:41.538Z</time></trkpt><trkpt lat="45.76142873286854" lon="11.193927953792945"><ele>965.25</ele><time>2026-05-02T15:54:42.538Z</time></trkpt><trkpt lat="45.76128115246393" lon="11.193875121682291"><ele>970.0</ele><time>2026-05-02T15:54:43.538Z</time></trkpt><trkpt lat="45.761145594071124" lon="11.193841093405885"><ele>968.75</ele><time>2026-05-02T15:54:44.538Z</time></trkpt><trkpt lat="45.76102341686604" lon="11.193771482462175"><ele>967.5</ele><time>2026-05-02T15:54:45.538Z</time></trkpt><trkpt lat="45.760884087403824" lon="11.193742590409073"><ele>966.25</ele><time>2026-05-02T15:54:46.538Z</time></trkpt><trkpt lat="45.76076034637028" lon="11.193715429984268"><ele>965.0</ele><time>2026-05-02T15:54:47.538Z</time></trkpt><trkpt lat="45.76064683460812" lon="11.193730330169808"><ele>965.0</ele><time>2026-05-02T15:54:48.538Z</time></trkpt><trkpt lat="45.760567973764076" lon="11.193786424986184"><ele>965.0</ele><time>2026-05-02T15:54:49.538Z</time></trkpt><trkpt lat="45.76047656169226" lon="11.193855097672257"><ele>965.0</ele><time>2026-05-02T15:54:50.538Z</time></trkpt><trkpt lat="45.76042360161561" lon="11.193952129988691"><ele>965.0</ele><time>2026-05-02T15:54:51.538Z</time></trkpt><trkpt lat="45.76036499347816" lon="11.194077890364312"><ele>965.0</ele><time>2026-05-02T15:54:52.538Z</time></trkpt><trkpt lat="45.760370366556955" lon="11.194227028152383"><ele>960.25</ele><time>2026-05-02T15:54:53.538Z</time></trkpt><trkpt lat="45.76042122400289" lon="11.194402894466146"><ele>955.5</ele><time>2026-05-02T15:54:54.538Z</time></trkpt><trkpt lat="45.76047556186484" lon="11.194559938957186"><ele>950.75</ele><time>2026-05-02T15:54:55.538Z</time></trkpt><trkpt lat="45.76056859651878" lon="11.194703338286851"><ele>946.0</ele><time>2026-05-02T15:54:56.538Z</time></trkpt><trkpt lat="45.76067535259746" lon="11.19483117262386"><ele>942.5</ele><time>2026-05-02T15:54:57.538Z</time></trkpt><trkpt lat="45.760787668795516" lon="11.194932595079596"><ele>939.0</ele><time>2026-05-02T15:54:58.538Z</time></trkpt><trkpt lat="45.760917242848244" lon="11.195029737212424"><ele>935.5</ele><time>2026-05-02T15:54:59.538Z</time></trkpt><trkpt lat="45.76108010742968" lon="11.195086202895581"><ele>932.0</ele><time>2026-05-02T15:55:00.538Z</time></trkpt><trkpt lat="45.76121808014941" lon="11.195113564610695"><ele>931.5</ele><time>2026-05-02T15:55:01.538Z</time></trkpt><trkpt lat="45.76134478233323" lon="11.195110327698645"><ele>931.0</ele><time>2026-05-02T15:55:02.539Z</time></trkpt><trkpt lat="45.76149767391448" lon="11.195104258528563"><ele>930.5</ele><time>2026-05-02T15:55:03.539Z</time></trkpt><trkpt lat="45.761629115165" lon="11.195124095580898"><ele>930.0</ele><time>2026-05-02T15:55:04.539Z</time></trkpt><trkpt lat="45.76172974643908" lon="11.19515209500063"><ele>930.0</ele><time>2026-05-02T15:55:05.539Z</time></trkpt><trkpt lat="45.76181896806205" lon="11.195200521128319"><ele>930.0</ele><time>2026-05-02T15:55:06.539Z</time></trkpt><trkpt lat="45.76192414512633" lon="11.195223436034176"><ele>930.0</ele><time>2026-05-02T15:55:07.539Z</time></trkpt><trkpt lat="45.76205834998376" lon="11.195188326296304"><ele>930.0</ele><time>2026-05-02T15:55:08.539Z</time></trkpt><trkpt lat="45.762161647009705" lon="11.195133919303059"><ele>930.0</ele><time>2026-05-02T15:55:09.539Z</time></trkpt><trkpt lat="45.762259414280805" lon="11.195090575524642"><ele>931.4</ele><time>2026-05-02T15:55:10.539Z</time></trkpt><trkpt lat="45.76235589679448" lon="11.195065981536155"><ele>932.8</ele><time>2026-05-02T15:55:11.539Z</time></trkpt><trkpt lat="45.7624524162732" lon="11.195020176744789"><ele>934.2</ele><time>2026-05-02T15:55:12.539Z</time></trkpt><trkpt lat="45.76254252973632" lon="11.194923611589884"><ele>935.6</ele><time>2026-05-02T15:55:13.539Z</time></trkpt><trkpt lat="45.76255976661427" lon="11.19480515227979"><ele>937.0</ele><time>2026-05-02T15:55:14.539Z</time></trkpt><trkpt lat="45.762585707334935" lon="11.194677706793458"><ele>937.0</ele><time>2026-05-02T15:55:15.539Z</time></trkpt><trkpt lat="45.76265452298215" lon="11.194533634380841"><ele>937.0</ele><time>2026-05-02T15:55:16.539Z</time></trkpt><trkpt lat="45.76274086132347" lon="11.19435568593858"><ele>937.0</ele><time>2026-05-02T15:55:17.539Z</time></trkpt><trkpt lat="45.76284117413288" lon="11.194212550474171"><ele>937.0</ele><time>2026-05-02T15:55:18.539Z</time></trkpt><trkpt lat="45.7629378988145" lon="11.194102762360057"><ele>938.0</ele><time>2026-05-02T15:55:19.539Z</time></trkpt><trkpt lat="45.76303516839259" lon="11.194033748308238"><ele>939.0</ele><time>2026-05-02T15:55:20.539Z</time></trkpt><trkpt lat="45.763149352606725" lon="11.193997785446326"><ele>940.0</ele><time>2026-05-02T15:55:21.539Z</time></trkpt><trkpt lat="45.76326734522427" lon="11.194047560472532"><ele>941.0</ele><time>2026-05-02T15:55:22.539Z</time></trkpt><trkpt lat="45.76337041584978" lon="11.194081262172872"><ele>939.0</ele><time>2026-05-02T15:55:23.539Z</time></trkpt><trkpt lat="45.76347556946597" lon="11.194130888314987"><ele>937.0</ele><time>2026-05-02T15:55:24.539Z</time></trkpt><trkpt lat="45.76358373257583" lon="11.19423849325047"><ele>935.0</ele><time>2026-05-02T15:55:25.539Z</time></trkpt><trkpt lat="45.763659668632414" lon="11.194370518371878"><ele>933.0</ele><time>2026-05-02T15:55:26.539Z</time></trkpt><trkpt lat="45.76371581833728" lon="11.194530958061208"><ele>933.0</ele><time>2026-05-02T15:55:27.539Z</time></trkpt><trkpt lat="45.76376016386183" lon="11.19467721770558"><ele>933.0</ele><time>2026-05-02T15:55:28.539Z</time></trkpt><trkpt lat="45.763756798936654" lon="11.194830255768322"><ele>933.0</ele><time>2026-05-02T15:55:29.539Z</time></trkpt><trkpt lat="45.76371194272704" lon="11.195057464139843"><ele>933.0</ele><time>2026-05-02T15:55:30.539Z</time></trkpt><trkpt lat="45.76365000225891" lon="11.195265590435122"><ele>933.25</ele><time>2026-05-02T15:55:31.539Z</time></trkpt><trkpt lat="45.76359775943715" lon="11.195463146082867"><ele>933.5</ele><time>2026-05-02T15:55:32.539Z</time></trkpt><trkpt lat="45.76356691284303" lon="11.195647967402675"><ele>933.75</ele><time>2026-05-02T15:55:33.539Z</time></trkpt><trkpt lat="45.763549080082086" lon="11.195812782021225"><ele>934.0</ele><time>2026-05-02T15:55:34.539Z</time></trkpt><trkpt lat="45.76358086083389" lon="11.19592532485765"><ele>933.6</ele><time>2026-05-02T15:55:35.539Z</time></trkpt><trkpt lat="45.76367627338631" lon="11.196036536261454"><ele>933.2</ele><time>2026-05-02T15:55:36.539Z</time></trkpt><trkpt lat="45.76378334866779" lon="11.196150132005402"><ele>932.8000000000001</ele><time>2026-05-02T15:55:37.539Z</time></trkpt><trkpt lat="45.763844553040116" lon="11.196260733102259"><ele>932.4000000000001</ele><time>2026-05-02T15:55:38.539Z</time></trkpt><trkpt lat="45.763867275768945" lon="11.196361166597702"><ele>932.0</ele><time>2026-05-02T15:55:39.539Z</time></trkpt><trkpt lat="45.76387781647426" lon="11.196482427432093"><ele>927.25</ele><time>2026-05-02T15:55:40.539Z</time></trkpt><trkpt lat="45.76386207633065" lon="11.19663438269176"><ele>922.5</ele><time>2026-05-02T15:55:41.539Z</time></trkpt><trkpt lat="45.7638137213588" lon="11.196798004257182"><ele>917.75</ele><time>2026-05-02T15:55:42.539Z</time></trkpt><trkpt lat="45.7637224860938" lon="11.196955307117815"><ele>913.0</ele><time>2026-05-02T15:55:43.539Z</time></trkpt><trkpt lat="45.76361872843419" lon="11.197080233799156"><ele>912.9999999999999</ele><time>2026-05-02T15:55:44.539Z</time></trkpt><trkpt lat="45.76354008423279" lon="11.197175465322724"><ele>913.0</ele><time>2026-05-02T15:55:45.539Z</time></trkpt><trkpt lat="45.7634770307614" lon="11.197207476613501"><ele>913.0</ele><time>2026-05-02T15:55:46.539Z</time></trkpt><trkpt lat="45.763394517843196" lon="11.197183991388755"><ele>913.0</ele><time>2026-05-02T15:55:47.539Z</time></trkpt><trkpt lat="45.763344723900104" lon="11.19709371039606"><ele>912.9999999999999</ele><time>2026-05-02T15:55:49.539Z</time></trkpt><trkpt lat="45.763347911469815" lon="11.19692979686153"><ele>913.0</ele><time>2026-05-02T15:55:50.539Z</time></trkpt><trkpt lat="45.763350088122614" lon="11.196676289199786"><ele>907.5999999999999</ele><time>2026-05-02T15:55:51.539Z</time></trkpt><trkpt lat="45.76338555753837" lon="11.196548638811088"><ele>902.1999999999999</ele><time>2026-05-02T15:55:52.539Z</time></trkpt><trkpt lat="45.76339503226753" lon="11.196407667764237"><ele>896.8</ele><time>2026-05-02T15:55:53.539Z</time></trkpt><trkpt lat="45.763402948024776" lon="11.196274288526642"><ele>891.4</ele><time>2026-05-02T15:55:54.539Z</time></trkpt><trkpt lat="45.76340742008399" lon="11.196149590456434"><ele>886.0</ele><time>2026-05-02T15:55:55.539Z</time></trkpt><trkpt lat="45.76340360801342" lon="11.196032143741517"><ele>886.0</ele><time>2026-05-02T15:55:56.539Z</time></trkpt><trkpt lat="45.7632617949348" lon="11.196041895475581"><ele>886.0</ele><time>2026-05-02T15:55:58.539Z</time></trkpt><trkpt lat="45.76316384531153" lon="11.196360536750802"><ele>886.0</ele><time>2026-05-02T15:55:59.539Z</time></trkpt><trkpt lat="45.76311891125694" lon="11.196537236538944"><ele>883.5</ele><time>2026-05-02T15:56:00.539Z</time></trkpt><trkpt lat="45.76308754662219" lon="11.196708422368694"><ele>881.0</ele><time>2026-05-02T15:56:01.539Z</time></trkpt><trkpt lat="45.7630429146073" lon="11.196853529404107"><ele>878.5</ele><time>2026-05-02T15:56:02.539Z</time></trkpt><trkpt lat="45.76298987868715" lon="11.197019281645597"><ele>876.0</ele><time>2026-05-02T15:56:03.539Z</time></trkpt><trkpt lat="45.762965163179764" lon="11.197153896500057"><ele>876.0</ele><time>2026-05-02T15:56:04.539Z</time></trkpt><trkpt lat="45.76297506550945" lon="11.197301337938212"><ele>876.0</ele><time>2026-05-02T15:56:05.539Z</time></trkpt><trkpt lat="45.762969435444234" lon="11.197439715386214"><ele>876.0</ele><time>2026-05-02T15:56:06.539Z</time></trkpt><trkpt lat="45.762975592157034" lon="11.197541190384486"><ele>876.0</ele><time>2026-05-02T15:56:07.539Z</time></trkpt><trkpt lat="45.76297054289844" lon="11.197649161583035"><ele>876.0</ele><time>2026-05-02T15:56:08.539Z</time></trkpt><trkpt lat="45.762940842040855" lon="11.197728938461353"><ele>876.0</ele><time>2026-05-02T15:56:09.539Z</time></trkpt><trkpt lat="45.76275651611127" lon="11.197483404408157"><ele>876.0</ele><time>2026-05-02T15:56:11.539Z</time></trkpt><trkpt lat="45.762831919275726" lon="11.19713732788195"><ele>876.0</ele><time>2026-05-02T15:56:12.539Z</time></trkpt><trkpt lat="45.762819673360724" lon="11.196994408097813"><ele>876.0</ele><time>2026-05-02T15:56:13.539Z</time></trkpt><trkpt lat="45.76282618214201" lon="11.196860482983995"><ele>876.0</ele><time>2026-05-02T15:56:14.539Z</time></trkpt><trkpt lat="45.76284504269712" lon="11.196754710344328"><ele>876.0</ele><time>2026-05-02T15:56:15.539Z</time></trkpt><trkpt lat="45.762904100991214" lon="11.19653465473753"><ele>876.0</ele><time>2026-05-02T15:56:16.539Z</time></trkpt><trkpt lat="45.76288319015386" lon="11.196380024384666"><ele>876.0</ele><time>2026-05-02T15:56:17.539Z</time></trkpt><trkpt lat="45.76267578814911" lon="11.196231425887218"><ele>879.0</ele><time>2026-05-02T15:56:19.539Z</time></trkpt><trkpt lat="45.76256321677749" lon="11.196277661419678"><ele>882.0</ele><time>2026-05-02T15:56:20.539Z</time></trkpt><trkpt lat="45.76245033461009" lon="11.196302675947178"><ele>885.0</ele><time>2026-05-02T15:56:21.539Z</time></trkpt><trkpt lat="45.76232461179262" lon="11.196407942370247"><ele>888.0</ele><time>2026-05-02T15:56:22.539Z</time></trkpt><trkpt lat="45.762192829065974" lon="11.196560476907667"><ele>885.5</ele><time>2026-05-02T15:56:23.539Z</time></trkpt><trkpt lat="45.762068745891696" lon="11.196654727590705"><ele>883.0</ele><time>2026-05-02T15:56:24.539Z</time></trkpt><trkpt lat="45.76195626656882" lon="11.196732789436073"><ele>880.5</ele><time>2026-05-02T15:56:25.539Z</time></trkpt><trkpt lat="45.76183798443711" lon="11.196812861416259"><ele>878.0</ele><time>2026-05-02T15:56:26.539Z</time></trkpt><trkpt lat="45.761765231547514" lon="11.196886609816108"><ele>878.0</ele><time>2026-05-02T15:56:27.539Z</time></trkpt><trkpt lat="45.76167414220728" lon="11.196982225916052"><ele>878.0</ele><time>2026-05-02T15:56:28.539Z</time></trkpt><trkpt lat="45.76156608800462" lon="11.197035872765522"><ele>878.0</ele><time>2026-05-02T15:56:29.539Z</time></trkpt><trkpt lat="45.761451556420745" lon="11.196746049838588"><ele>878.0</ele><time>2026-05-02T15:56:30.539Z</time></trkpt><trkpt lat="45.76137113552934" lon="11.196753254368414"><ele>878.0</ele><time>2026-05-02T15:56:31.539Z</time></trkpt><trkpt lat="45.761240553308696" lon="11.196724057336139"><ele>878.0</ele><time>2026-05-02T15:56:32.539Z</time></trkpt><trkpt lat="45.761109947063794" lon="11.19674930417339"><ele>878.0</ele><time>2026-05-02T15:56:33.539Z</time></trkpt><trkpt lat="45.76121257910326" lon="11.196733987703002"><ele>878.0</ele><time>2026-05-02T15:56:34.539Z</time></trkpt><trkpt lat="45.761097209550584" lon="11.196752404741586"><ele>875.25</ele><time>2026-05-02T15:56:35.539Z</time></trkpt><trkpt lat="45.76102025685332" lon="11.196729603192468"><ele>872.5</ele><time>2026-05-02T15:56:36.539Z</time></trkpt><trkpt lat="45.76090022082504" lon="11.196761446584429"><ele>869.75</ele><time>2026-05-02T15:56:37.539Z</time></trkpt><trkpt lat="45.76078132857113" lon="11.196809941350374"><ele>867.0</ele><time>2026-05-02T15:56:38.539Z</time></trkpt><trkpt lat="45.76066737661976" lon="11.196886050779614"><ele>867.0</ele><time>2026-05-02T15:56:39.539Z</time></trkpt><trkpt lat="45.76063834082402" lon="11.19697472939208"><ele>867.0</ele><time>2026-05-02T15:56:40.539Z</time></trkpt><trkpt lat="45.76062131259804" lon="11.197112926473844"><ele>867.0</ele><time>2026-05-02T15:56:41.539Z</time></trkpt><trkpt lat="45.76062131276997" lon="11.197323082064106"><ele>867.0</ele><time>2026-05-02T15:56:42.539Z</time></trkpt><trkpt lat="45.76057995081063" lon="11.197462965775705"><ele>867.0</ele><time>2026-05-02T15:56:43.539Z</time></trkpt><trkpt lat="45.760534670249996" lon="11.197608896340464"><ele>857.0</ele><time>2026-05-02T15:56:44.539Z</time></trkpt><trkpt lat="45.760512862138064" lon="11.197771045306299"><ele>847.0</ele><time>2026-05-02T15:56:45.539Z</time></trkpt><trkpt lat="45.76050925279336" lon="11.197961387613908"><ele>837.0</ele><time>2026-05-02T15:56:46.539Z</time></trkpt><trkpt lat="45.760481682478634" lon="11.198124990877831"><ele>827.0</ele><time>2026-05-02T15:56:47.539Z</time></trkpt><trkpt lat="45.76045924414305" lon="11.198279355263589"><ele>823.25</ele><time>2026-05-02T15:56:48.539Z</time></trkpt><trkpt lat="45.76042972087771" lon="11.198455622530567"><ele>819.5</ele><time>2026-05-02T15:56:49.539Z</time></trkpt><trkpt lat="45.76036358175843" lon="11.198597419128236"><ele>815.75</ele><time>2026-05-02T15:56:50.539Z</time></trkpt><trkpt lat="45.760320849996305" lon="11.198780425794439"><ele>812.0</ele><time>2026-05-02T15:56:51.539Z</time></trkpt><trkpt lat="45.76029099397958" lon="11.19895088348553"><ele>808.8</ele><time>2026-05-02T15:56:52.539Z</time></trkpt><trkpt lat="45.76025336479113" lon="11.19910587601744"><ele>805.6</ele><time>2026-05-02T15:56:53.539Z</time></trkpt><trkpt lat="45.760223027556954" lon="11.199247411551415"><ele>802.4</ele><time>2026-05-02T15:56:54.539Z</time></trkpt><trkpt lat="45.76015360671333" lon="11.199348851727448"><ele>799.1999999999999</ele><time>2026-05-02T15:56:55.539Z</time></trkpt><trkpt lat="45.76013143573091" lon="11.19945640460487"><ele>796.0</ele><time>2026-05-02T15:56:56.539Z</time></trkpt><trkpt lat="45.76010245420865" lon="11.199549679548234"><ele>796.0</ele><time>2026-05-02T15:56:58.539Z</time></trkpt><trkpt lat="45.760299249459834" lon="11.199682755561696"><ele>796.0</ele><time>2026-05-02T15:57:00.539Z</time></trkpt><trkpt lat="45.76037389235261" lon="11.199520820212118"><ele>796.0</ele><time>2026-05-02T15:57:01.539Z</time></trkpt><trkpt lat="45.76042388530247" lon="11.199343788305768"><ele>796.0</ele><time>2026-05-02T15:57:03.539Z</time></trkpt><trkpt lat="45.76043853229592" lon="11.199211974778464"><ele>796.0</ele><time>2026-05-02T15:57:04.539Z</time></trkpt><trkpt lat="45.76049238753391" lon="11.199031575114795"><ele>796.0</ele><time>2026-05-02T15:57:05.539Z</time></trkpt><trkpt lat="45.76059592944501" lon="11.198914619156511"><ele>796.0</ele><time>2026-05-02T15:57:06.539Z</time></trkpt><trkpt lat="45.76068437050115" lon="11.198801449198713"><ele>798.6666666666666</ele><time>2026-05-02T15:57:07.539Z</time></trkpt><trkpt lat="45.760780537386246" lon="11.198684111723537"><ele>801.3333333333333</ele><time>2026-05-02T15:57:08.54Z</time></trkpt><trkpt lat="45.76085644034956" lon="11.198600211144496"><ele>804.0</ele><time>2026-05-02T15:57:09.54Z</time></trkpt><trkpt lat="45.76090893357476" lon="11.198518507533612"><ele>806.6666666666667</ele><time>2026-05-02T15:57:10.54Z</time></trkpt><trkpt lat="45.76098275365014" lon="11.19852124004593"><ele>809.3333333333334</ele><time>2026-05-02T15:57:11.54Z</time></trkpt><trkpt lat="45.76104625616663" lon="11.198530442436619"><ele>812.0</ele><time>2026-05-02T15:57:12.54Z</time></trkpt><trkpt lat="45.76111105151147" lon="11.198555276747406"><ele>815.0</ele><time>2026-05-02T15:57:13.54Z</time></trkpt><trkpt lat="45.761154426128286" lon="11.19870765984699"><ele>818.0</ele><time>2026-05-02T15:57:15.54Z</time></trkpt><trkpt lat="45.761119825494234" lon="11.198838912175157"><ele>821.0</ele><time>2026-05-02T15:57:16.54Z</time></trkpt><trkpt lat="45.761122350649245" lon="11.198998489171839"><ele>824.0</ele><time>2026-05-02T15:57:18.54Z</time></trkpt><trkpt lat="45.761076052020854" lon="11.199079843494998"><ele>827.0</ele><time>2026-05-02T15:57:19.54Z</time></trkpt><trkpt lat="45.76092348244392" lon="11.199137404465219"><ele>820.8</ele><time>2026-05-02T15:57:21.54Z</time></trkpt><trkpt lat="45.760856529419634" lon="11.199217039365857"><ele>814.6</ele><time>2026-05-02T15:57:22.54Z</time></trkpt><trkpt lat="45.760777597392014" lon="11.19930455173184"><ele>808.4</ele><time>2026-05-02T15:57:23.54Z</time></trkpt><trkpt lat="45.76070616122033" lon="11.19941534147412"><ele>802.1999999999999</ele><time>2026-05-02T15:57:24.54Z</time></trkpt><trkpt lat="45.760648783815526" lon="11.19957867763111"><ele>796.0</ele><time>2026-05-02T15:57:25.54Z</time></trkpt><trkpt lat="45.76058699044462" lon="11.199711257623834"><ele>794.0</ele><time>2026-05-02T15:57:26.54Z</time></trkpt><trkpt lat="45.76051918655808" lon="11.199838609666317"><ele>792.0</ele><time>2026-05-02T15:57:27.54Z</time></trkpt><trkpt lat="45.760482903535525" lon="11.200009851144097"><ele>790.0</ele><time>2026-05-02T15:57:28.54Z</time></trkpt><trkpt lat="45.76048420378188" lon="11.200191309273931"><ele>788.0</ele><time>2026-05-02T15:57:29.54Z</time></trkpt><trkpt lat="45.76047541827676" lon="11.200359978259915"><ele>788.0</ele><time>2026-05-02T15:57:30.54Z</time></trkpt><trkpt lat="45.76043082224244" lon="11.200493011145992"><ele>788.0</ele><time>2026-05-02T15:57:31.54Z</time></trkpt><trkpt lat="45.76041895415403" lon="11.200652589463095"><ele>788.0</ele><time>2026-05-02T15:57:32.54Z</time></trkpt><trkpt lat="45.76039734159674" lon="11.200806185225016"><ele>788.0</ele><time>2026-05-02T15:57:33.54Z</time></trkpt><trkpt lat="45.760382100426426" lon="11.200937530682612"><ele>788.0</ele><time>2026-05-02T15:57:34.54Z</time></trkpt><trkpt lat="45.76032683894356" lon="11.2010751740307"><ele>784.75</ele><time>2026-05-02T15:57:35.54Z</time></trkpt><trkpt lat="45.760328038791535" lon="11.201291649530319"><ele>781.5</ele><time>2026-05-02T15:57:36.54Z</time></trkpt><trkpt lat="45.76033195651498" lon="11.201515437231022"><ele>778.25</ele><time>2026-05-02T15:57:37.54Z</time></trkpt><trkpt lat="45.76035607635835" lon="11.201715768216374"><ele>775.0</ele><time>2026-05-02T15:57:38.54Z</time></trkpt><trkpt lat="45.76034989921448" lon="11.201916967949295"><ele>778.6666666666666</ele><time>2026-05-02T15:57:39.54Z</time></trkpt><trkpt lat="45.760290292011994" lon="11.202111780811187"><ele>782.3333333333333</ele><time>2026-05-02T15:57:40.54Z</time></trkpt><trkpt lat="45.760220600710525" lon="11.202408737510451"><ele>786.0</ele><time>2026-05-02T15:57:41.54Z</time></trkpt><trkpt lat="45.76017823108362" lon="11.202690147545056"><ele>786.0</ele><time>2026-05-02T15:57:42.54Z</time></trkpt><trkpt lat="45.76014672797536" lon="11.202892359755507"><ele>786.0</ele><time>2026-05-02T15:57:43.54Z</time></trkpt><trkpt lat="45.76008322849683" lon="11.203079978130907"><ele>786.0</ele><time>2026-05-02T15:57:44.54Z</time></trkpt><trkpt lat="45.760008335785706" lon="11.203246103185485"><ele>786.0</ele><time>2026-05-02T15:57:45.54Z</time></trkpt><trkpt lat="45.75993074666454" lon="11.203395068910037"><ele>778.3333333333334</ele><time>2026-05-02T15:57:46.54Z</time></trkpt><trkpt lat="45.7598277767465" lon="11.203587830206253"><ele>770.6666666666667</ele><time>2026-05-02T15:57:47.54Z</time></trkpt><trkpt lat="45.759694911753726" lon="11.203804746357573"><ele>763.0</ele><time>2026-05-02T15:57:48.54Z</time></trkpt><trkpt lat="45.75957677251362" lon="11.203957155654916"><ele>765.6666666666667</ele><time>2026-05-02T15:57:49.54Z</time></trkpt><trkpt lat="45.7594345061285" lon="11.2041274685397"><ele>768.3333333333334</ele><time>2026-05-02T15:57:50.54Z</time></trkpt><trkpt lat="45.75926381593494" lon="11.204327094132427"><ele>771.0</ele><time>2026-05-02T15:57:51.54Z</time></trkpt><trkpt lat="45.75910211986029" lon="11.204537041143107"><ele>771.0</ele><time>2026-05-02T15:57:52.54Z</time></trkpt><trkpt lat="45.758964461967686" lon="11.204775675133922"><ele>771.0</ele><time>2026-05-02T15:57:53.54Z</time></trkpt><trkpt lat="45.758824034747185" lon="11.20508785029895"><ele>762.0</ele><time>2026-05-02T15:57:54.54Z</time></trkpt><trkpt lat="45.758716917096685" lon="11.205336774181776"><ele>753.0</ele><time>2026-05-02T15:57:55.54Z</time></trkpt><trkpt lat="45.75861325205377" lon="11.205584340492853"><ele>744.0</ele><time>2026-05-02T15:57:56.54Z</time></trkpt><trkpt lat="45.75846720584274" lon="11.205756758415042"><ele>744.0</ele><time>2026-05-02T15:57:57.54Z</time></trkpt><trkpt lat="45.75836822503202" lon="11.205923646172696"><ele>744.0</ele><time>2026-05-02T15:57:58.54Z</time></trkpt><trkpt lat="45.75824513348144" lon="11.20604443381338"><ele>744.0</ele><time>2026-05-02T15:57:59.54Z</time></trkpt><trkpt lat="45.75811449655669" lon="11.206168805006888"><ele>744.0</ele><time>2026-05-02T15:58:00.54Z</time></trkpt><trkpt lat="45.75803897535625" lon="11.206325855519387"><ele>744.0</ele><time>2026-05-02T15:58:01.54Z</time></trkpt><trkpt lat="45.75809604850243" lon="11.206467260524073"><ele>744.0</ele><time>2026-05-02T15:58:03.54Z</time></trkpt><trkpt lat="45.758186179902395" lon="11.206653628765949"><ele>744.0</ele><time>2026-05-02T15:58:05.54Z</time></trkpt><trkpt lat="45.75836032044252" lon="11.206479563850895"><ele>744.0</ele><time>2026-05-02T15:58:06.54Z</time></trkpt><trkpt lat="45.75841165744464" lon="11.2063634618745"><ele>744.0</ele><time>2026-05-02T15:58:07.54Z</time></trkpt><trkpt lat="45.75851636799965" lon="11.206254432278223"><ele>744.0</ele><time>2026-05-02T15:58:08.54Z</time></trkpt><trkpt lat="45.75867022013407" lon="11.206085280322531"><ele>744.0</ele><time>2026-05-02T15:58:09.54Z</time></trkpt><trkpt lat="45.75881278277011" lon="11.205897371790027"><ele>741.6666666666666</ele><time>2026-05-02T15:58:10.54Z</time></trkpt><trkpt lat="45.75894258673396" lon="11.205734524745239"><ele>739.3333333333333</ele><time>2026-05-02T15:58:11.54Z</time></trkpt><trkpt lat="45.75906459946529" lon="11.205588149443301"><ele>737.0</ele><time>2026-05-02T15:58:12.54Z</time></trkpt><trkpt lat="45.75917061198817" lon="11.205454724790519"><ele>737.0</ele><time>2026-05-02T15:58:13.54Z</time></trkpt><trkpt lat="45.75928405085504" lon="11.205313581509367"><ele>737.0</ele><time>2026-05-02T15:58:14.54Z</time></trkpt><trkpt lat="45.75938945585283" lon="11.20518243413986"><ele>737.0</ele><time>2026-05-02T15:58:15.54Z</time></trkpt><trkpt lat="45.75945298906465" lon="11.20510351928839"><ele>737.0</ele><time>2026-05-02T15:58:16.54Z</time></trkpt><trkpt lat="45.75955290353979" lon="11.2050371698148"><ele>737.0</ele><time>2026-05-02T15:58:17.54Z</time></trkpt><trkpt lat="45.75962006295159" lon="11.204941647336009"><ele>737.0</ele><time>2026-05-02T15:58:18.54Z</time></trkpt><trkpt lat="45.75967741734078" lon="11.204864173077144"><ele>737.0</ele><time>2026-05-02T15:58:19.54Z</time></trkpt><trkpt lat="45.7597525709341" lon="11.204799080561953"><ele>737.0</ele><time>2026-05-02T15:58:20.54Z</time></trkpt><trkpt lat="45.759833265906664" lon="11.204725421447847"><ele>737.0</ele><time>2026-05-02T15:58:21.54Z</time></trkpt><trkpt lat="45.75988394674078" lon="11.204665414026216"><ele>737.0</ele><time>2026-05-02T15:58:22.54Z</time></trkpt><trkpt lat="45.75994401973909" lon="11.204600652295403"><ele>737.0</ele><time>2026-05-02T15:58:23.54Z</time></trkpt><trkpt lat="45.760006099842464" lon="11.204562419048003"><ele>737.0</ele><time>2026-05-02T15:58:25.54Z</time></trkpt><trkpt lat="45.760014623564054" lon="11.204654821128624"><ele>737.0</ele><time>2026-05-02T15:58:26.54Z</time></trkpt><trkpt lat="45.7599658078074" lon="11.204743873408342"><ele>737.0</ele><time>2026-05-02T15:58:28.54Z</time></trkpt><trkpt lat="45.759915082213936" lon="11.204828451440164"><ele>737.0</ele><time>2026-05-02T15:58:29.54Z</time></trkpt><trkpt lat="45.75983186371271" lon="11.204927611402669"><ele>737.0</ele><time>2026-05-02T15:58:30.54Z</time></trkpt><trkpt lat="45.759735970838946" lon="11.205062707707999"><ele>732.0</ele><time>2026-05-02T15:58:31.54Z</time></trkpt><trkpt lat="45.75963743147633" lon="11.205190025247772"><ele>727.0</ele><time>2026-05-02T15:58:32.54Z</time></trkpt><trkpt lat="45.75955074221748" lon="11.205359417294117"><ele>722.0</ele><time>2026-05-02T15:58:33.54Z</time></trkpt><trkpt lat="45.759481341616755" lon="11.205528724698091"><ele>717.0</ele><time>2026-05-02T15:58:34.54Z</time></trkpt><trkpt lat="45.7594493394825" lon="11.205700907022814"><ele>713.75</ele><time>2026-05-02T15:58:35.54Z</time></trkpt><trkpt lat="45.75945462956673" lon="11.20584980837677"><ele>710.5</ele><time>2026-05-02T15:58:36.54Z</time></trkpt><trkpt lat="45.759510133623905" lon="11.206027234360185"><ele>707.25</ele><time>2026-05-02T15:58:37.54Z</time></trkpt><trkpt lat="45.759573364682915" lon="11.206186478123094"><ele>704.0</ele><time>2026-05-02T15:58:38.54Z</time></trkpt><trkpt lat="45.7596079002005" lon="11.206355830819247"><ele>701.0</ele><time>2026-05-02T15:58:39.54Z</time></trkpt><trkpt lat="45.759632943077634" lon="11.206517073822875"><ele>698.0</ele><time>2026-05-02T15:58:40.54Z</time></trkpt><trkpt lat="45.759617917705434" lon="11.206635303780484"><ele>695.0</ele><time>2026-05-02T15:58:41.54Z</time></trkpt><trkpt lat="45.75955777933015" lon="11.206803224494688"><ele>692.0</ele><time>2026-05-02T15:58:42.54Z</time></trkpt><trkpt lat="45.7595110663655" lon="11.20702398790678"><ele>692.0</ele><time>2026-05-02T15:58:43.54Z</time></trkpt><trkpt lat="45.75947078224064" lon="11.207213377232481"><ele>692.0</ele><time>2026-05-02T15:58:44.54Z</time></trkpt><trkpt lat="45.75943589626565" lon="11.2073942919892"><ele>692.0</ele><time>2026-05-02T15:58:45.54Z</time></trkpt><trkpt lat="45.75938265358915" lon="11.207567483540734"><ele>692.0</ele><time>2026-05-02T15:58:46.54Z</time></trkpt><trkpt lat="45.759318431161375" lon="11.207733720163214"><ele>693.5</ele><time>2026-05-02T15:58:47.54Z</time></trkpt><trkpt lat="45.759246851152696" lon="11.207913541262739"><ele>695.0</ele><time>2026-05-02T15:58:48.54Z</time></trkpt><trkpt lat="45.75917956357115" lon="11.208060397082724"><ele>696.5</ele><time>2026-05-02T15:58:49.54Z</time></trkpt><trkpt lat="45.75910392056752" lon="11.208201492641587"><ele>698.0</ele><time>2026-05-02T15:58:50.54Z</time></trkpt><trkpt lat="45.75901403212314" lon="11.20834696083419"><ele>694.0</ele><time>2026-05-02T15:58:51.54Z</time></trkpt><trkpt lat="45.75891650348502" lon="11.20850545672455"><ele>690.0</ele><time>2026-05-02T15:58:52.54Z</time></trkpt><trkpt lat="45.758841067421166" lon="11.20869703670521"><ele>686.0</ele><time>2026-05-02T15:58:53.54Z</time></trkpt><trkpt lat="45.75880732818717" lon="11.20895333588281"><ele>681.3333333333333</ele><time>2026-05-02T15:58:54.54Z</time></trkpt><trkpt lat="45.758779604231364" lon="11.209206966512545"><ele>676.6666666666666</ele><time>2026-05-02T15:58:55.54Z</time></trkpt><trkpt lat="45.758775752613026" lon="11.209440128588755"><ele>672.0</ele><time>2026-05-02T15:58:56.54Z</time></trkpt><trkpt lat="45.75877946148445" lon="11.209641833404948"><ele>668.5</ele><time>2026-05-02T15:58:57.54Z</time></trkpt><trkpt lat="45.75877099637896" lon="11.209859249016322"><ele>665.0</ele><time>2026-05-02T15:58:58.54Z</time></trkpt><trkpt lat="45.758754592505255" lon="11.210069291854435"><ele>661.5</ele><time>2026-05-02T15:58:59.54Z</time></trkpt><trkpt lat="45.75875237470649" lon="11.210262053662355"><ele>658.0</ele><time>2026-05-02T15:59:00.54Z</time></trkpt><trkpt lat="45.75874983024262" lon="11.210411890954303"><ele>658.0</ele><time>2026-05-02T15:59:01.54Z</time></trkpt><trkpt lat="45.758733652804096" lon="11.210588991296731"><ele>658.0</ele><time>2026-05-02T15:59:02.54Z</time></trkpt><trkpt lat="45.7586530818393" lon="11.210607359345167"><ele>658.0</ele><time>2026-05-02T15:59:03.54Z</time></trkpt><trkpt lat="45.758571369129754" lon="11.210732659185005"><ele>658.0</ele><time>2026-05-02T15:59:04.54Z</time></trkpt><trkpt lat="45.758517225755284" lon="11.21080428666539"><ele>658.0</ele><time>2026-05-02T15:59:05.54Z</time></trkpt><trkpt lat="45.758461785010084" lon="11.210853370055101"><ele>663.0</ele><time>2026-05-02T15:59:06.54Z</time></trkpt><trkpt lat="45.758110965841794" lon="11.210960437161862"><ele>668.0</ele><time>2026-05-02T15:59:08.54Z</time></trkpt><trkpt lat="45.758043875725484" lon="11.211039152619175"><ele>673.0</ele><time>2026-05-02T15:59:09.54Z</time></trkpt><trkpt lat="45.75793659657207" lon="11.211165021029418"><ele>673.0</ele><time>2026-05-02T15:59:10.54Z</time></trkpt><trkpt lat="45.75783820933117" lon="11.211253501761984"><ele>673.0</ele><time>2026-05-02T15:59:11.54Z</time></trkpt><trkpt lat="45.75774132009473" lon="11.211323972093217"><ele>673.0</ele><time>2026-05-02T15:59:12.54Z</time></trkpt><trkpt lat="45.757639078690865" lon="11.21139664456056"><ele>673.0</ele><time>2026-05-02T15:59:13.54Z</time></trkpt><trkpt lat="45.7575414396107" lon="11.211462436655037"><ele>673.0</ele><time>2026-05-02T15:59:14.541Z</time></trkpt><trkpt lat="45.75747470930402" lon="11.211516079051743"><ele>665.0</ele><time>2026-05-02T15:59:15.541Z</time></trkpt><trkpt lat="45.75723316331911" lon="11.211611716086093"><ele>657.0</ele><time>2026-05-02T15:59:16.541Z</time></trkpt><trkpt lat="45.75701696250677" lon="11.211701564159739"><ele>657.0</ele><time>2026-05-02T15:59:17.541Z</time></trkpt><trkpt lat="45.75688858192315" lon="11.211762461585382"><ele>657.0</ele><time>2026-05-02T15:59:18.541Z</time></trkpt><trkpt lat="45.75672836510067" lon="11.211846372582093"><ele>657.0</ele><time>2026-05-02T15:59:19.541Z</time></trkpt><trkpt lat="45.756546200021624" lon="11.212024890742484"><ele>662.6666666666666</ele><time>2026-05-02T15:59:20.541Z</time></trkpt><trkpt lat="45.75643427328894" lon="11.21221294904754"><ele>668.3333333333333</ele><time>2026-05-02T15:59:21.541Z</time></trkpt><trkpt lat="45.756322471617636" lon="11.212354615530757"><ele>674.0</ele><time>2026-05-02T15:59:22.541Z</time></trkpt><trkpt lat="45.756210646344435" lon="11.212505021990234"><ele>669.6666666666666</ele><time>2026-05-02T15:59:23.541Z</time></trkpt><trkpt lat="45.75609325402003" lon="11.212603594169316"><ele>665.3333333333334</ele><time>2026-05-02T15:59:24.541Z</time></trkpt><trkpt lat="45.75595024605515" lon="11.212649614247812"><ele>661.0</ele><time>2026-05-02T15:59:25.541Z</time></trkpt><trkpt lat="45.75579292348581" lon="11.21277914073414"><ele>661.0</ele><time>2026-05-02T15:59:26.541Z</time></trkpt><trkpt lat="45.75568220233299" lon="11.212890435697316"><ele>661.0</ele><time>2026-05-02T15:59:27.541Z</time></trkpt><trkpt lat="45.75554917699127" lon="11.213029614686539"><ele>661.0</ele><time>2026-05-02T15:59:28.541Z</time></trkpt><trkpt lat="45.75550568648493" lon="11.213196561502913"><ele>661.0</ele><time>2026-05-02T15:59:29.541Z</time></trkpt><trkpt lat="45.7554412597792" lon="11.213291425958003"><ele>653.6666666666667</ele><time>2026-05-02T15:59:30.541Z</time></trkpt><trkpt lat="45.7553152155132" lon="11.213409955471755"><ele>646.3333333333334</ele><time>2026-05-02T15:59:31.541Z</time></trkpt><trkpt lat="45.75515865782758" lon="11.213484512441525"><ele>639.0</ele><time>2026-05-02T15:59:32.541Z</time></trkpt><trkpt lat="45.754988770129366" lon="11.213504740561815"><ele>639.0</ele><time>2026-05-02T15:59:33.541Z</time></trkpt><trkpt lat="45.75490304774916" lon="11.213685116843704"><ele>639.0</ele><time>2026-05-02T15:59:34.541Z</time></trkpt><trkpt lat="45.75480518563486" lon="11.213824824509853"><ele>639.0</ele><time>2026-05-02T15:59:35.541Z</time></trkpt><trkpt lat="45.754733601862725" lon="11.214001636614414"><ele>639.0</ele><time>2026-05-02T15:59:36.541Z</time></trkpt><trkpt lat="45.75465701532182" lon="11.21421153318317"><ele>629.0</ele><time>2026-05-02T15:59:37.541Z</time></trkpt><trkpt lat="45.7545959194668" lon="11.214457801172705"><ele>619.0</ele><time>2026-05-02T15:59:38.541Z</time></trkpt><trkpt lat="45.754558404898255" lon="11.214691473623665"><ele>609.0</ele><time>2026-05-02T15:59:39.541Z</time></trkpt><trkpt lat="45.75453017727299" lon="11.214924453157787"><ele>603.6666666666666</ele><time>2026-05-02T15:59:40.541Z</time></trkpt><trkpt lat="45.75450487837894" lon="11.215160975589042"><ele>598.3333333333333</ele><time>2026-05-02T15:59:41.541Z</time></trkpt><trkpt lat="45.75448518845198" lon="11.215366341038683"><ele>593.0</ele><time>2026-05-02T15:59:42.541Z</time></trkpt><trkpt lat="45.75447636337403" lon="11.215573558637184"><ele>590.75</ele><time>2026-05-02T15:59:43.541Z</time></trkpt><trkpt lat="45.754440111611274" lon="11.215780411581871"><ele>588.5</ele><time>2026-05-02T15:59:44.541Z</time></trkpt><trkpt lat="45.754421467986354" lon="11.215968180446012"><ele>586.25</ele><time>2026-05-02T15:59:45.541Z</time></trkpt><trkpt lat="45.75440518611584" lon="11.21613328243889"><ele>584.0</ele><time>2026-05-02T15:59:46.541Z</time></trkpt><trkpt lat="45.75440092237647" lon="11.216269713026026"><ele>584.0</ele><time>2026-05-02T15:59:47.541Z</time></trkpt><trkpt lat="45.75437861888639" lon="11.216394596838857"><ele>584.0</ele><time>2026-05-02T15:59:48.541Z</time></trkpt><trkpt lat="45.754376985776425" lon="11.216484834712043"><ele>584.0</ele><time>2026-05-02T15:59:49.541Z</time></trkpt><trkpt lat="45.754444123704225" lon="11.216674311561741"><ele>584.0</ele><time>2026-05-02T15:59:51.541Z</time></trkpt><trkpt lat="45.75456410301926" lon="11.216562875317468"><ele>584.0</ele><time>2026-05-02T15:59:52.541Z</time></trkpt><trkpt lat="45.754586020895395" lon="11.216384117149486"><ele>584.0</ele><time>2026-05-02T15:59:53.541Z</time></trkpt><trkpt lat="45.75465833770235" lon="11.216202556459447"><ele>584.0</ele><time>2026-05-02T15:59:54.541Z</time></trkpt><trkpt lat="45.75470315623755" lon="11.216027802095562"><ele>584.0</ele><time>2026-05-02T15:59:55.541Z</time></trkpt><trkpt lat="45.75476868068219" lon="11.215875585459758"><ele>584.0</ele><time>2026-05-02T15:59:56.541Z</time></trkpt><trkpt lat="45.754828792569825" lon="11.215745999950814"><ele>586.25</ele><time>2026-05-02T15:59:57.541Z</time></trkpt><trkpt lat="45.754895456962586" lon="11.215618143011087"><ele>588.5</ele><time>2026-05-02T15:59:58.541Z</time></trkpt><trkpt lat="45.754959445358736" lon="11.215487078290723"><ele>590.75</ele><time>2026-05-02T15:59:59.541Z</time></trkpt><trkpt lat="45.7550324128617" lon="11.215360205378085"><ele>593.0</ele><time>2026-05-02T16:00:00.541Z</time></trkpt><trkpt lat="45.75507303361984" lon="11.215203527198573"><ele>593.0</ele><time>2026-05-02T16:00:01.541Z</time></trkpt><trkpt lat="45.755125409780625" lon="11.215066087526711"><ele>593.0</ele><time>2026-05-02T16:00:02.541Z</time></trkpt><trkpt lat="45.75518223417186" lon="11.21494891806316"><ele>593.0</ele><time>2026-05-02T16:00:03.541Z</time></trkpt><trkpt lat="45.75523008311141" lon="11.214851082832938"><ele>593.0</ele><time>2026-05-02T16:00:04.541Z</time></trkpt><trkpt lat="45.75527110938363" lon="11.214760108978318"><ele>593.0</ele><time>2026-05-02T16:00:05.541Z</time></trkpt><trkpt lat="45.75533663166932" lon="11.214613021960533"><ele>592.75</ele><time>2026-05-02T16:00:07.541Z</time></trkpt><trkpt lat="45.75540592457367" lon="11.214484657235477"><ele>592.5</ele><time>2026-05-02T16:00:09.541Z</time></trkpt><trkpt lat="45.755499538645516" lon="11.214502663876278"><ele>592.25</ele><time>2026-05-02T16:00:11.541Z</time></trkpt><trkpt lat="45.755473684253865" lon="11.214686886968297"><ele>592.0</ele><time>2026-05-02T16:00:13.541Z</time></trkpt><trkpt lat="45.75542450465324" lon="11.21484846792802"><ele>588.5</ele><time>2026-05-02T16:00:14.541Z</time></trkpt><trkpt lat="45.755375580022964" lon="11.215032607900984"><ele>585.0</ele><time>2026-05-02T16:00:15.541Z</time></trkpt><trkpt lat="45.75533728006294" lon="11.215184956620101"><ele>581.5</ele><time>2026-05-02T16:00:16.541Z</time></trkpt><trkpt lat="45.755290991264424" lon="11.215369083139208"><ele>578.0</ele><time>2026-05-02T16:00:17.541Z</time></trkpt><trkpt lat="45.75524232352103" lon="11.2155698174394"><ele>577.25</ele><time>2026-05-02T16:00:18.541Z</time></trkpt><trkpt lat="45.7552108885917" lon="11.215749745833726"><ele>576.5</ele><time>2026-05-02T16:00:19.541Z</time></trkpt><trkpt lat="45.75516926685927" lon="11.215924516446636"><ele>575.75</ele><time>2026-05-02T16:00:20.541Z</time></trkpt><trkpt lat="45.755145842124605" lon="11.216105090017455"><ele>575.0</ele><time>2026-05-02T16:00:21.541Z</time></trkpt><trkpt lat="45.75513195402035" lon="11.21629229450406"><ele>575.0</ele><time>2026-05-02T16:00:22.541Z</time></trkpt><trkpt lat="45.75513001358966" lon="11.21648268996517"><ele>575.0</ele><time>2026-05-02T16:00:23.541Z</time></trkpt><trkpt lat="45.75512469983439" lon="11.216687452160388"><ele>575.0</ele><time>2026-05-02T16:00:24.541Z</time></trkpt><trkpt lat="45.75512349524533" lon="11.216911062040978"><ele>575.0</ele><time>2026-05-02T16:00:25.541Z</time></trkpt><trkpt lat="45.75512114534452" lon="11.217128543969233"><ele>573.75</ele><time>2026-05-02T16:00:26.541Z</time></trkpt><trkpt lat="45.75511943398466" lon="11.217339457040227"><ele>572.5</ele><time>2026-05-02T16:00:27.541Z</time></trkpt><trkpt lat="45.75511815679072" lon="11.217548627219182"><ele>571.25</ele><time>2026-05-02T16:00:28.541Z</time></trkpt><trkpt lat="45.755130629544986" lon="11.217748358572612"><ele>570.0</ele><time>2026-05-02T16:00:29.541Z</time></trkpt><trkpt lat="45.75511213094761" lon="11.217947384563114"><ele>570.0</ele><time>2026-05-02T16:00:30.541Z</time></trkpt><trkpt lat="45.75508819113568" lon="11.218126638235818"><ele>570.0</ele><time>2026-05-02T16:00:31.541Z</time></trkpt><trkpt lat="45.755046348858684" lon="11.21829580978861"><ele>570.0</ele><time>2026-05-02T16:00:32.541Z</time></trkpt><trkpt lat="45.7550000804118" lon="11.218457387855155"><ele>570.0</ele><time>2026-05-02T16:00:33.541Z</time></trkpt><trkpt lat="45.75496162948259" lon="11.218597823785554"><ele>569.4</ele><time>2026-05-02T16:00:34.541Z</time></trkpt><trkpt lat="45.754922304959166" lon="11.218755993626596"><ele>568.8</ele><time>2026-05-02T16:00:35.541Z</time></trkpt><trkpt lat="45.75486540914275" lon="11.21886302921618"><ele>568.2</ele><time>2026-05-02T16:00:36.541Z</time></trkpt><trkpt lat="45.75482547497379" lon="11.218965336521675"><ele>567.6</ele><time>2026-05-02T16:00:37.541Z</time></trkpt><trkpt lat="45.75477381322797" lon="11.219065607488428"><ele>567.0</ele><time>2026-05-02T16:00:38.541Z</time></trkpt><trkpt lat="45.754733351037835" lon="11.219155364417512"><ele>565.2</ele><time>2026-05-02T16:00:39.541Z</time></trkpt><trkpt lat="45.75471295674793" lon="11.219265555615026"><ele>563.4000000000001</ele><time>2026-05-02T16:00:40.541Z</time></trkpt><trkpt lat="45.75476364941252" lon="11.219372338209103"><ele>561.5999999999999</ele><time>2026-05-02T16:00:41.541Z</time></trkpt><trkpt lat="45.754834038317526" lon="11.21947459750203"><ele>559.8</ele><time>2026-05-02T16:00:42.541Z</time></trkpt><trkpt lat="45.75491874127088" lon="11.219553057707659"><ele>558.0</ele><time>2026-05-02T16:00:43.541Z</time></trkpt><trkpt lat="45.75498313469805" lon="11.219629617330138"><ele>558.0</ele><time>2026-05-02T16:00:44.541Z</time></trkpt><trkpt lat="45.75501071997864" lon="11.219734446123871"><ele>558.0</ele><time>2026-05-02T16:00:45.541Z</time></trkpt><trkpt lat="45.75504045026752" lon="11.219844901138725"><ele>558.0</ele><time>2026-05-02T16:00:46.541Z</time></trkpt><trkpt lat="45.75507820048252" lon="11.219965633220113"><ele>558.0</ele><time>2026-05-02T16:00:47.541Z</time></trkpt><trkpt lat="45.75509758159715" lon="11.220099463313653"><ele>558.0</ele><time>2026-05-02T16:00:48.541Z</time></trkpt><trkpt lat="45.755098333419845" lon="11.220220396880682"><ele>558.0</ele><time>2026-05-02T16:00:49.541Z</time></trkpt><trkpt lat="45.75511205002087" lon="11.220336850660575"><ele>555.4</ele><time>2026-05-02T16:00:50.541Z</time></trkpt><trkpt lat="45.75511146729157" lon="11.220438968838717"><ele>552.8</ele><time>2026-05-02T16:00:51.541Z</time></trkpt><trkpt lat="45.75510839109028" lon="11.220540640360547"><ele>550.2</ele><time>2026-05-02T16:00:52.541Z</time></trkpt><trkpt lat="45.75504445222024" lon="11.220645449870347"><ele>547.6</ele><time>2026-05-02T16:00:53.541Z</time></trkpt><trkpt lat="45.75495475542022" lon="11.220771321294135"><ele>545.0</ele><time>2026-05-02T16:00:54.541Z</time></trkpt><trkpt lat="45.75486202153764" lon="11.220916811693646"><ele>542.75</ele><time>2026-05-02T16:00:55.541Z</time></trkpt><trkpt lat="45.75476319274324" lon="11.22102346786279"><ele>540.5</ele><time>2026-05-02T16:00:56.541Z</time></trkpt><trkpt lat="45.75466938532968" lon="11.22113976283938"><ele>538.25</ele><time>2026-05-02T16:00:57.541Z</time></trkpt><trkpt lat="45.754573826649526" lon="11.221254747598454"><ele>536.0</ele><time>2026-05-02T16:00:58.541Z</time></trkpt><trkpt lat="45.754484774660185" lon="11.221375669884578"><ele>533.0</ele><time>2026-05-02T16:00:59.541Z</time></trkpt><trkpt lat="45.7544009454696" lon="11.221541791345565"><ele>530.0</ele><time>2026-05-02T16:01:00.541Z</time></trkpt><trkpt lat="45.754340015339785" lon="11.221720591112721"><ele>527.0</ele><time>2026-05-02T16:01:01.541Z</time></trkpt><trkpt lat="45.7542731803506" lon="11.221888633166827"><ele>524.0</ele><time>2026-05-02T16:01:02.541Z</time></trkpt><trkpt lat="45.754202051475936" lon="11.222092582357174"><ele>521.6666666666666</ele><time>2026-05-02T16:01:03.541Z</time></trkpt><trkpt lat="45.754116783566374" lon="11.222325683712512"><ele>519.3333333333334</ele><time>2026-05-02T16:01:04.541Z</time></trkpt><trkpt lat="45.75404789522653" lon="11.222562105163819"><ele>517.0</ele><time>2026-05-02T16:01:05.541Z</time></trkpt><trkpt lat="45.75394438860108" lon="11.22280176377725"><ele>517.0</ele><time>2026-05-02T16:01:06.541Z</time></trkpt><trkpt lat="45.753849662663654" lon="11.223055979051319"><ele>517.0</ele><time>2026-05-02T16:01:07.541Z</time></trkpt><trkpt lat="45.75379287991223" lon="11.223307276758495"><ele>517.0</ele><time>2026-05-02T16:01:08.541Z</time></trkpt><trkpt lat="45.75376069075399" lon="11.223559958380093"><ele>514.3333333333334</ele><time>2026-05-02T16:01:09.541Z</time></trkpt><trkpt lat="45.75373643059251" lon="11.223786199811826"><ele>511.66666666666663</ele><time>2026-05-02T16:01:10.541Z</time></trkpt><trkpt lat="45.7536863506327" lon="11.224004278695984"><ele>509.0</ele><time>2026-05-02T16:01:11.541Z</time></trkpt><trkpt lat="45.753630537150805" lon="11.224214553467172"><ele>508.66666666666663</ele><time>2026-05-02T16:01:12.541Z</time></trkpt><trkpt lat="45.75354104540389" lon="11.22438785853062"><ele>508.33333333333337</ele><time>2026-05-02T16:01:13.541Z</time></trkpt><trkpt lat="45.7534621004589" lon="11.224580328138513"><ele>508.0</ele><time>2026-05-02T16:01:14.541Z</time></trkpt><trkpt lat="45.75333039810489" lon="11.224774238879137"><ele>504.33333333333337</ele><time>2026-05-02T16:01:15.541Z</time></trkpt><trkpt lat="45.75314793061242" lon="11.224978996522115"><ele>500.66666666666663</ele><time>2026-05-02T16:01:16.541Z</time></trkpt><trkpt lat="45.75298713304519" lon="11.225173393956732"><ele>497.0</ele><time>2026-05-02T16:01:17.541Z</time></trkpt><trkpt lat="45.75284691060188" lon="11.225367894780613"><ele>497.0</ele><time>2026-05-02T16:01:18.541Z</time></trkpt><trkpt lat="45.7527114131062" lon="11.22556182041461"><ele>497.0</ele><time>2026-05-02T16:01:19.541Z</time></trkpt><trkpt lat="45.75258003642618" lon="11.225747241813373"><ele>497.0</ele><time>2026-05-02T16:01:20.542Z</time></trkpt><trkpt lat="45.75244820420328" lon="11.225919090006359"><ele>496.0</ele><time>2026-05-02T16:01:21.542Z</time></trkpt><trkpt lat="45.7523224742897" lon="11.22609060697322"><ele>495.0</ele><time>2026-05-02T16:01:22.542Z</time></trkpt><trkpt lat="45.75218948464626" lon="11.226244975893117"><ele>494.0</ele><time>2026-05-02T16:01:23.542Z</time></trkpt><trkpt lat="45.75207149426364" lon="11.2264307219577"><ele>493.66666666666663</ele><time>2026-05-02T16:01:24.542Z</time></trkpt><trkpt lat="45.751944838441716" lon="11.2266069430726"><ele>493.33333333333337</ele><time>2026-05-02T16:01:25.542Z</time></trkpt><trkpt lat="45.75182291317354" lon="11.226779997790954"><ele>493.0</ele><time>2026-05-02T16:01:26.542Z</time></trkpt><trkpt lat="45.751703273494755" lon="11.22695040774573"><ele>493.0</ele><time>2026-05-02T16:01:27.542Z</time></trkpt><trkpt lat="45.75158659827102" lon="11.22713079373094"><ele>493.0</ele><time>2026-05-02T16:01:28.542Z</time></trkpt><trkpt lat="45.75146011299674" lon="11.227304286575729"><ele>493.0</ele><time>2026-05-02T16:01:29.542Z</time></trkpt><trkpt lat="45.751332388796214" lon="11.227495088190485"><ele>489.6666666666667</ele><time>2026-05-02T16:01:30.542Z</time></trkpt><trkpt lat="45.751207012687956" lon="11.22769321678564"><ele>486.33333333333337</ele><time>2026-05-02T16:01:31.542Z</time></trkpt><trkpt lat="45.751087451472884" lon="11.227887951450693"><ele>483.0</ele><time>2026-05-02T16:01:32.542Z</time></trkpt><trkpt lat="45.75098446730661" lon="11.228105607401787"><ele>485.33333333333337</ele><time>2026-05-02T16:01:33.542Z</time></trkpt><trkpt lat="45.75088494132142" lon="11.228379401630812"><ele>487.6666666666667</ele><time>2026-05-02T16:01:34.542Z</time></trkpt><trkpt lat="45.75079451464943" lon="11.22864851805377"><ele>490.0</ele><time>2026-05-02T16:01:35.542Z</time></trkpt><trkpt lat="45.750705436464614" lon="11.228897365050889"><ele>486.0</ele><time>2026-05-02T16:01:36.542Z</time></trkpt><trkpt lat="45.75061324086321" lon="11.229136966221269"><ele>482.0</ele><time>2026-05-02T16:01:37.542Z</time></trkpt><trkpt lat="45.75054520281934" lon="11.229381319253736"><ele>478.0</ele><time>2026-05-02T16:01:38.542Z</time></trkpt><trkpt lat="45.75049719774043" lon="11.229629386038004"><ele>475.6666666666667</ele><time>2026-05-02T16:01:39.542Z</time></trkpt><trkpt lat="45.75043268072489" lon="11.22985679369568"><ele>473.33333333333337</ele><time>2026-05-02T16:01:40.542Z</time></trkpt><trkpt lat="45.75036065103507" lon="11.230075628592857"><ele>471.0</ele><time>2026-05-02T16:01:41.542Z</time></trkpt><trkpt lat="45.75029422322686" lon="11.230286533902758"><ele>471.0</ele><time>2026-05-02T16:01:42.542Z</time></trkpt><trkpt lat="45.7502207933249" lon="11.230485054038597"><ele>471.0</ele><time>2026-05-02T16:01:43.542Z</time></trkpt><trkpt lat="45.75016079241942" lon="11.230714444248438"><ele>471.0</ele><time>2026-05-02T16:01:44.542Z</time></trkpt><trkpt lat="45.75014093070308" lon="11.230988092446694"><ele>471.66666666666663</ele><time>2026-05-02T16:01:45.542Z</time></trkpt><trkpt lat="45.750065717428065" lon="11.231239204838031"><ele>472.3333333333333</ele><time>2026-05-02T16:01:46.542Z</time></trkpt><trkpt lat="45.75002656875865" lon="11.23153496476197"><ele>473.0</ele><time>2026-05-02T16:01:47.542Z</time></trkpt><trkpt lat="45.74999117665795" lon="11.231802709756101"><ele>470.3333333333333</ele><time>2026-05-02T16:01:48.542Z</time></trkpt><trkpt lat="45.74995705721938" lon="11.232068879768086"><ele>467.66666666666663</ele><time>2026-05-02T16:01:49.542Z</time></trkpt><trkpt lat="45.749924878522734" lon="11.232325214395926"><ele>465.0</ele><time>2026-05-02T16:01:50.542Z</time></trkpt><trkpt lat="45.74989274014941" lon="11.23258532776549"><ele>462.33333333333337</ele><time>2026-05-02T16:01:51.542Z</time></trkpt><trkpt lat="45.74986168286518" lon="11.23283943235608"><ele>459.6666666666667</ele><time>2026-05-02T16:01:52.542Z</time></trkpt><trkpt lat="45.74983307350294" lon="11.233085472791215"><ele>457.0</ele><time>2026-05-02T16:01:53.542Z</time></trkpt><trkpt lat="45.74980467460223" lon="11.233329703331965"><ele>454.6666666666667</ele><time>2026-05-02T16:01:54.542Z</time></trkpt><trkpt lat="45.74977682091049" lon="11.233559275348256"><ele>452.33333333333337</ele><time>2026-05-02T16:01:55.542Z</time></trkpt><trkpt lat="45.749748368915824" lon="11.233788189431168"><ele>450.0</ele><time>2026-05-02T16:01:56.542Z</time></trkpt><trkpt lat="45.74971623390803" lon="11.234005507774878"><ele>448.33333333333337</ele><time>2026-05-02T16:01:57.542Z</time></trkpt><trkpt lat="45.74966573044353" lon="11.234200288457814"><ele>446.6666666666667</ele><time>2026-05-02T16:01:58.542Z</time></trkpt><trkpt lat="45.7495802422346" lon="11.234401354121236"><ele>445.0</ele><time>2026-05-02T16:01:59.542Z</time></trkpt><trkpt lat="45.74947567383747" lon="11.234618465209348"><ele>442.0</ele><time>2026-05-02T16:02:00.542Z</time></trkpt><trkpt lat="45.749391511635835" lon="11.234833837187816"><ele>439.0</ele><time>2026-05-02T16:02:01.542Z</time></trkpt><trkpt lat="45.74931220261967" lon="11.235044458995228"><ele>436.0</ele><time>2026-05-02T16:02:02.542Z</time></trkpt><trkpt lat="45.749244271100146" lon="11.235255442412035"><ele>438.0</ele><time>2026-05-02T16:02:03.542Z</time></trkpt><trkpt lat="45.749167933364696" lon="11.235444377026111"><ele>440.0</ele><time>2026-05-02T16:02:04.542Z</time></trkpt><trkpt lat="45.74908744564381" lon="11.23563248856529"><ele>442.0</ele><time>2026-05-02T16:02:05.542Z</time></trkpt><trkpt lat="45.748992948094354" lon="11.235799001449454"><ele>442.0</ele><time>2026-05-02T16:02:06.542Z</time></trkpt><trkpt lat="45.74889586361927" lon="11.235978408420968"><ele>442.0</ele><time>2026-05-02T16:02:07.542Z</time></trkpt><trkpt lat="45.74878937753073" lon="11.236120429190812"><ele>442.0</ele><time>2026-05-02T16:02:08.542Z</time></trkpt><trkpt lat="45.74865093504451" lon="11.236247812796696"><ele>439.6666666666667</ele><time>2026-05-02T16:02:09.542Z</time></trkpt><trkpt lat="45.748494318758084" lon="11.23634164759238"><ele>437.33333333333337</ele><time>2026-05-02T16:02:10.542Z</time></trkpt><trkpt lat="45.748332591099484" lon="11.236432772496995"><ele>435.0</ele><time>2026-05-02T16:02:11.542Z</time></trkpt><trkpt lat="45.74819893586058" lon="11.236519437495481"><ele>435.0</ele><time>2026-05-02T16:02:12.542Z</time></trkpt><trkpt lat="45.74804804538203" lon="11.236600139727836"><ele>435.0</ele><time>2026-05-02T16:02:13.542Z</time></trkpt><trkpt lat="45.74791183543141" lon="11.236679491309276"><ele>435.0</ele><time>2026-05-02T16:02:14.542Z</time></trkpt><trkpt lat="45.74781675583837" lon="11.236775502946859"><ele>435.0</ele><time>2026-05-02T16:02:15.542Z</time></trkpt><trkpt lat="45.74770449879787" lon="11.236847155348338"><ele>437.25</ele><time>2026-05-02T16:02:16.542Z</time></trkpt><trkpt lat="45.747571885947664" lon="11.236836711879091"><ele>439.5</ele><time>2026-05-02T16:02:17.542Z</time></trkpt><trkpt lat="45.74744293751229" lon="11.236827205833833"><ele>441.75</ele><time>2026-05-02T16:02:18.542Z</time></trkpt><trkpt lat="45.74730675071787" lon="11.236816359098967"><ele>444.0</ele><time>2026-05-02T16:02:19.542Z</time></trkpt><trkpt lat="45.747180510062584" lon="11.2367646429563"><ele>444.0</ele><time>2026-05-02T16:02:20.542Z</time></trkpt><trkpt lat="45.747058058426155" lon="11.236757081006992"><ele>444.0</ele><time>2026-05-02T16:02:21.542Z</time></trkpt><trkpt lat="45.746925493368245" lon="11.236763639514967"><ele>444.0</ele><time>2026-05-02T16:02:22.542Z</time></trkpt><trkpt lat="45.746774398847464" lon="11.236810614194209"><ele>444.0</ele><time>2026-05-02T16:02:23.542Z</time></trkpt><trkpt lat="45.7466514494262" lon="11.23686752472467"><ele>443.25</ele><time>2026-05-02T16:02:24.542Z</time></trkpt><trkpt lat="45.74653858642057" lon="11.236976454304507"><ele>442.5</ele><time>2026-05-02T16:02:25.542Z</time></trkpt><trkpt lat="45.74642369281822" lon="11.237076558654357"><ele>441.75</ele><time>2026-05-02T16:02:26.542Z</time></trkpt><trkpt lat="45.7463083805687" lon="11.237185114560832"><ele>441.0</ele><time>2026-05-02T16:02:27.542Z</time></trkpt><trkpt lat="45.74619035249105" lon="11.237265804594578"><ele>437.4</ele><time>2026-05-02T16:02:28.542Z</time></trkpt><trkpt lat="45.74608684301939" lon="11.237343682537194"><ele>433.8</ele><time>2026-05-02T16:02:29.542Z</time></trkpt><trkpt lat="45.74599477288458" lon="11.237404933558652"><ele>430.2</ele><time>2026-05-02T16:02:30.542Z</time></trkpt><trkpt lat="45.74587606776911" lon="11.23748095666137"><ele>426.59999999999997</ele><time>2026-05-02T16:02:31.542Z</time></trkpt><trkpt lat="45.74578954549744" lon="11.23753686893415"><ele>423.0</ele><time>2026-05-02T16:02:32.542Z</time></trkpt><trkpt lat="45.74570606658177" lon="11.237629679175736"><ele>423.0</ele><time>2026-05-02T16:02:33.542Z</time></trkpt><trkpt lat="45.7456149987808" lon="11.237709896968802"><ele>423.0</ele><time>2026-05-02T16:02:34.542Z</time></trkpt><trkpt lat="45.745534661888954" lon="11.23780108716463"><ele>423.0</ele><time>2026-05-02T16:02:35.542Z</time></trkpt><trkpt lat="45.745456762737426" lon="11.237902208161021"><ele>423.0</ele><time>2026-05-02T16:02:36.542Z</time></trkpt><trkpt lat="45.74536067264197" lon="11.237989727125067"><ele>423.0</ele><time>2026-05-02T16:02:37.542Z</time></trkpt><trkpt lat="45.74527337732064" lon="11.238070076171155"><ele>421.0</ele><time>2026-05-02T16:02:38.542Z</time></trkpt><trkpt lat="45.74517789519157" lon="11.238153446114778"><ele>419.0</ele><time>2026-05-02T16:02:39.542Z</time></trkpt><trkpt lat="45.74508681548479" lon="11.238240796834214"><ele>417.0</ele><time>2026-05-02T16:02:40.542Z</time></trkpt><trkpt lat="45.7449960173022" lon="11.238307391762058"><ele>415.0</ele><time>2026-05-02T16:02:41.542Z</time></trkpt><trkpt lat="45.74493031841142" lon="11.238395676063911"><ele>413.0</ele><time>2026-05-02T16:02:42.542Z</time></trkpt><trkpt lat="45.744848251601745" lon="11.238510108088265"><ele>413.0</ele><time>2026-05-02T16:02:43.542Z</time></trkpt><trkpt lat="45.74478297154185" lon="11.238649188741936"><ele>413.0</ele><time>2026-05-02T16:02:44.542Z</time></trkpt><trkpt lat="45.74472170243126" lon="11.23880366622326"><ele>413.0</ele><time>2026-05-02T16:02:45.542Z</time></trkpt><trkpt lat="45.74469797665918" lon="11.238996052685083"><ele>413.0</ele><time>2026-05-02T16:02:46.542Z</time></trkpt><trkpt lat="45.74468464476152" lon="11.23917612696635"><ele>412.4</ele><time>2026-05-02T16:02:47.542Z</time></trkpt><trkpt lat="45.74466689769084" lon="11.239331722977576"><ele>411.79999999999995</ele><time>2026-05-02T16:02:48.542Z</time></trkpt><trkpt lat="45.74464172776744" lon="11.239474456638428"><ele>411.2</ele><time>2026-05-02T16:02:49.542Z</time></trkpt><trkpt lat="45.74461052258406" lon="11.239624145556634"><ele>410.6</ele><time>2026-05-02T16:02:50.542Z</time></trkpt><trkpt lat="45.744542795699644" lon="11.239776015764074"><ele>410.0</ele><time>2026-05-02T16:02:51.542Z</time></trkpt><trkpt lat="45.74445762898077" lon="11.239917670506228"><ele>409.75</ele><time>2026-05-02T16:02:52.542Z</time></trkpt><trkpt lat="45.74438587135586" lon="11.240075115292548"><ele>409.5</ele><time>2026-05-02T16:02:53.542Z</time></trkpt><trkpt lat="45.74433967189811" lon="11.240224573003067"><ele>409.25</ele><time>2026-05-02T16:02:54.542Z</time></trkpt><trkpt lat="45.74429942238688" lon="11.240388606358536"><ele>409.0</ele><time>2026-05-02T16:02:55.542Z</time></trkpt><trkpt lat="45.7442635524236" lon="11.2405636263246"><ele>408.5</ele><time>2026-05-02T16:02:56.542Z</time></trkpt><trkpt lat="45.744226462209106" lon="11.24074798871473"><ele>408.0</ele><time>2026-05-02T16:02:57.542Z</time></trkpt><trkpt lat="45.74420217140819" lon="11.240942054191947"><ele>407.5</ele><time>2026-05-02T16:02:58.542Z</time></trkpt><trkpt lat="45.74416162125301" lon="11.2411253690924"><ele>407.0</ele><time>2026-05-02T16:02:59.542Z</time></trkpt><trkpt lat="45.74412326653677" lon="11.241302565460673"><ele>407.25</ele><time>2026-05-02T16:03:00.542Z</time></trkpt><trkpt lat="45.74409314503031" lon="11.241472127984398"><ele>407.5</ele><time>2026-05-02T16:03:01.542Z</time></trkpt><trkpt lat="45.74406274693499" lon="11.241657306299329"><ele>407.75</ele><time>2026-05-02T16:03:02.542Z</time></trkpt><trkpt lat="45.74402081257611" lon="11.24184483601499"><ele>408.0</ele><time>2026-05-02T16:03:03.542Z</time></trkpt><trkpt lat="45.74397519281775" lon="11.242019820667737"><ele>408.0</ele><time>2026-05-02T16:03:04.542Z</time></trkpt><trkpt lat="45.74392820144247" lon="11.242204546866907"><ele>408.0</ele><time>2026-05-02T16:03:05.542Z</time></trkpt><trkpt lat="45.74387364141977" lon="11.242387426534284"><ele>408.0</ele><time>2026-05-02T16:03:06.542Z</time></trkpt><trkpt lat="45.74383230690647" lon="11.242572573351643"><ele>408.0</ele><time>2026-05-02T16:03:07.542Z</time></trkpt><trkpt lat="45.74378571009333" lon="11.242741178143032"><ele>406.75</ele><time>2026-05-02T16:03:08.542Z</time></trkpt><trkpt lat="45.74374303500667" lon="11.242899677407209"><ele>405.5</ele><time>2026-05-02T16:03:09.542Z</time></trkpt><trkpt lat="45.74372245277427" lon="11.243073148783793"><ele>404.25</ele><time>2026-05-02T16:03:10.542Z</time></trkpt><trkpt lat="45.74371172634243" lon="11.243264665105174"><ele>403.0</ele><time>2026-05-02T16:03:11.542Z</time></trkpt><trkpt lat="45.743724305888115" lon="11.24347145082747"><ele>402.25</ele><time>2026-05-02T16:03:12.542Z</time></trkpt><trkpt lat="45.74376407993074" lon="11.243675707069475"><ele>401.5</ele><time>2026-05-02T16:03:13.542Z</time></trkpt><trkpt lat="45.74379842539148" lon="11.243866427621946"><ele>400.75</ele><time>2026-05-02T16:03:14.542Z</time></trkpt><trkpt lat="45.743813016665385" lon="11.244050539261252"><ele>400.0</ele><time>2026-05-02T16:03:15.542Z</time></trkpt><trkpt lat="45.74381299950387" lon="11.244245828368886"><ele>399.75</ele><time>2026-05-02T16:03:16.542Z</time></trkpt><trkpt lat="45.74381163462201" lon="11.244453320868757"><ele>399.5</ele><time>2026-05-02T16:03:17.542Z</time></trkpt><trkpt lat="45.74382482598428" lon="11.244665358486746"><ele>399.25</ele><time>2026-05-02T16:03:18.542Z</time></trkpt><trkpt lat="45.74381337067513" lon="11.244861781819145"><ele>399.0</ele><time>2026-05-02T16:03:19.542Z</time></trkpt><trkpt lat="45.743813301919545" lon="11.245072348790089"><ele>399.0</ele><time>2026-05-02T16:03:20.542Z</time></trkpt><trkpt lat="45.743829604161284" lon="11.245292593293385"><ele>399.0</ele><time>2026-05-02T16:03:21.542Z</time></trkpt><trkpt lat="45.74385728267997" lon="11.245506278030446"><ele>399.0</ele><time>2026-05-02T16:03:22.542Z</time></trkpt><trkpt lat="45.74388741179529" lon="11.245727746887907"><ele>399.25</ele><time>2026-05-02T16:03:23.542Z</time></trkpt><trkpt lat="45.74390904104309" lon="11.245939204149746"><ele>399.5</ele><time>2026-05-02T16:03:24.542Z</time></trkpt><trkpt lat="45.74392216024864" lon="11.246140949974189"><ele>399.75</ele><time>2026-05-02T16:03:25.542Z</time></trkpt><trkpt lat="45.7439193984359" lon="11.246339073908691"><ele>400.0</ele><time>2026-05-02T16:03:26.543Z</time></trkpt><trkpt lat="45.74391637606495" lon="11.24654323035161"><ele>399.5</ele><time>2026-05-02T16:03:27.543Z</time></trkpt><trkpt lat="45.743918447529815" lon="11.24673742734272"><ele>399.0</ele><time>2026-05-02T16:03:28.543Z</time></trkpt><trkpt lat="45.7439378804524" lon="11.246923661074554"><ele>398.5</ele><time>2026-05-02T16:03:29.543Z</time></trkpt><trkpt lat="45.74399533112316" lon="11.247108032767391"><ele>398.0</ele><time>2026-05-02T16:03:30.543Z</time></trkpt><trkpt lat="45.744047423378326" lon="11.247254405354681"><ele>397.75</ele><time>2026-05-02T16:03:31.543Z</time></trkpt><trkpt lat="45.74409964691842" lon="11.247416253766554"><ele>397.5</ele><time>2026-05-02T16:03:32.543Z</time></trkpt><trkpt lat="45.74413492541713" lon="11.247544545835025"><ele>397.25</ele><time>2026-05-02T16:03:33.543Z</time></trkpt><trkpt lat="45.74417297231657" lon="11.247708219595271"><ele>397.0</ele><time>2026-05-02T16:03:34.543Z</time></trkpt><trkpt lat="45.744196609640355" lon="11.247879617018"><ele>397.0</ele><time>2026-05-02T16:03:35.543Z</time></trkpt><trkpt lat="45.7442193323975" lon="11.248068404429464"><ele>397.0</ele><time>2026-05-02T16:03:36.543Z</time></trkpt><trkpt lat="45.7441940508409" lon="11.248265867821646"><ele>397.0</ele><time>2026-05-02T16:03:37.543Z</time></trkpt><trkpt lat="45.74418857724771" lon="11.248454076042693"><ele>397.0</ele><time>2026-05-02T16:03:38.543Z</time></trkpt><trkpt lat="45.74414939596393" lon="11.248651153332647"><ele>395.6666666666667</ele><time>2026-05-02T16:03:39.543Z</time></trkpt><trkpt lat="45.74411809644928" lon="11.248876899823571"><ele>394.33333333333337</ele><time>2026-05-02T16:03:40.543Z</time></trkpt><trkpt lat="45.74407803002189" lon="11.24910485407264"><ele>393.0</ele><time>2026-05-02T16:03:41.543Z</time></trkpt><trkpt lat="45.744044778266556" lon="11.249324089296517"><ele>392.33333333333337</ele><time>2026-05-02T16:03:42.543Z</time></trkpt><trkpt lat="45.744011601573334" lon="11.24955180914879"><ele>391.6666666666667</ele><time>2026-05-02T16:03:43.543Z</time></trkpt><trkpt lat="45.74397631124619" lon="11.24976854908725"><ele>391.0</ele><time>2026-05-02T16:03:44.543Z</time></trkpt><trkpt lat="45.74393681861988" lon="11.249959027628114"><ele>389.33333333333337</ele><time>2026-05-02T16:03:45.543Z</time></trkpt><trkpt lat="45.74388277143757" lon="11.250180029751363"><ele>387.66666666666663</ele><time>2026-05-02T16:03:46.543Z</time></trkpt><trkpt lat="45.743814047778315" lon="11.250411922251264"><ele>386.0</ele><time>2026-05-02T16:03:47.543Z</time></trkpt><trkpt lat="45.7437446857018" lon="11.250644471069442"><ele>383.66666666666663</ele><time>2026-05-02T16:03:48.543Z</time></trkpt><trkpt lat="45.74367592453533" lon="11.250862425199694"><ele>381.3333333333333</ele><time>2026-05-02T16:03:49.543Z</time></trkpt><trkpt lat="45.743602577178535" lon="11.251078009668573"><ele>379.0</ele><time>2026-05-02T16:03:50.543Z</time></trkpt><trkpt lat="45.74354000100055" lon="11.251294257194493"><ele>382.66666666666663</ele><time>2026-05-02T16:03:51.543Z</time></trkpt><trkpt lat="45.743478204183894" lon="11.251500864821196"><ele>386.3333333333333</ele><time>2026-05-02T16:03:52.543Z</time></trkpt><trkpt lat="45.74343512825196" lon="11.251710415720405"><ele>390.0</ele><time>2026-05-02T16:03:53.543Z</time></trkpt><trkpt lat="45.743413818918555" lon="11.251936203466334"><ele>390.0</ele><time>2026-05-02T16:03:54.543Z</time></trkpt><trkpt lat="45.743387750849266" lon="11.252155166340458"><ele>390.0</ele><time>2026-05-02T16:03:55.543Z</time></trkpt><trkpt lat="45.743372303018994" lon="11.252368530013912"><ele>390.0</ele><time>2026-05-02T16:03:56.543Z</time></trkpt><trkpt lat="45.743357783726026" lon="11.252592460002571"><ele>390.0</ele><time>2026-05-02T16:03:57.543Z</time></trkpt><trkpt lat="45.7433185923198" lon="11.252805818920088"><ele>390.0</ele><time>2026-05-02T16:03:58.543Z</time></trkpt><trkpt lat="45.74330091960927" lon="11.253025240366634"><ele>390.0</ele><time>2026-05-02T16:03:59.543Z</time></trkpt><trkpt lat="45.743288243151575" lon="11.253285610449979"><ele>388.0</ele><time>2026-05-02T16:04:00.543Z</time></trkpt><trkpt lat="45.743299033985" lon="11.253541472639746"><ele>386.0</ele><time>2026-05-02T16:04:01.543Z</time></trkpt><trkpt lat="45.743322777173546" lon="11.253787366368098"><ele>384.0</ele><time>2026-05-02T16:04:02.543Z</time></trkpt><trkpt lat="45.74336962256797" lon="11.254023038839808"><ele>383.6666666666667</ele><time>2026-05-02T16:04:03.543Z</time></trkpt><trkpt lat="45.74339770746031" lon="11.254261587244509"><ele>383.33333333333337</ele><time>2026-05-02T16:04:04.543Z</time></trkpt><trkpt lat="45.743397229474674" lon="11.254497340409548"><ele>383.0</ele><time>2026-05-02T16:04:05.543Z</time></trkpt><trkpt lat="45.74340670747406" lon="11.25472727281131"><ele>383.33333333333337</ele><time>2026-05-02T16:04:06.543Z</time></trkpt><trkpt lat="45.743436634581755" lon="11.254956600088862"><ele>383.6666666666667</ele><time>2026-05-02T16:04:07.543Z</time></trkpt><trkpt lat="45.743483991031404" lon="11.255164428154009"><ele>384.0</ele><time>2026-05-02T16:04:08.543Z</time></trkpt><trkpt lat="45.74354849242228" lon="11.25534685839445"><ele>380.25</ele><time>2026-05-02T16:04:09.543Z</time></trkpt><trkpt lat="45.7435879495434" lon="11.255530275536973"><ele>376.5</ele><time>2026-05-02T16:04:10.543Z</time></trkpt><trkpt lat="45.743611484386584" lon="11.255713325116128"><ele>372.75</ele><time>2026-05-02T16:04:11.543Z</time></trkpt><trkpt lat="45.743642241200526" lon="11.255864460412342"><ele>369.0</ele><time>2026-05-02T16:04:12.543Z</time></trkpt><trkpt lat="45.74363370225047" lon="11.256020070804281"><ele>368.75</ele><time>2026-05-02T16:04:13.543Z</time></trkpt><trkpt lat="45.74359005585021" lon="11.256178587124507"><ele>368.5</ele><time>2026-05-02T16:04:14.543Z</time></trkpt><trkpt lat="45.74353395196002" lon="11.256344512563944"><ele>368.25</ele><time>2026-05-02T16:04:15.543Z</time></trkpt><trkpt lat="45.74346649015686" lon="11.2565625168371"><ele>368.0</ele><time>2026-05-02T16:04:16.543Z</time></trkpt><trkpt lat="45.74343654845183" lon="11.256713384989956"><ele>369.25</ele><time>2026-05-02T16:04:17.543Z</time></trkpt><trkpt lat="45.74340200318526" lon="11.256905640914438"><ele>370.5</ele><time>2026-05-02T16:04:18.543Z</time></trkpt><trkpt lat="45.74334930234706" lon="11.25709962055103"><ele>371.75</ele><time>2026-05-02T16:04:19.543Z</time></trkpt><trkpt lat="45.743295882522595" lon="11.257287109434097"><ele>373.0</ele><time>2026-05-02T16:04:20.543Z</time></trkpt><trkpt lat="45.74324058575311" lon="11.257485057608966"><ele>370.5</ele><time>2026-05-02T16:04:21.543Z</time></trkpt><trkpt lat="45.74317966852713" lon="11.257663168896595"><ele>368.0</ele><time>2026-05-02T16:04:22.543Z</time></trkpt><trkpt lat="45.74312237596193" lon="11.257845076330867"><ele>365.5</ele><time>2026-05-02T16:04:23.543Z</time></trkpt><trkpt lat="45.743060814040184" lon="11.258010976558976"><ele>363.0</ele><time>2026-05-02T16:04:24.543Z</time></trkpt><trkpt lat="45.743011835101825" lon="11.25816235530331"><ele>360.75</ele><time>2026-05-02T16:04:25.543Z</time></trkpt><trkpt lat="45.74297760030209" lon="11.25832406249872"><ele>358.5</ele><time>2026-05-02T16:04:26.543Z</time></trkpt><trkpt lat="45.74291389376618" lon="11.258465535882612"><ele>356.25</ele><time>2026-05-02T16:04:27.543Z</time></trkpt><trkpt lat="45.74286341029312" lon="11.258615164323986"><ele>354.0</ele><time>2026-05-02T16:04:28.543Z</time></trkpt><trkpt lat="45.74281444363389" lon="11.25875362030679"><ele>354.0</ele><time>2026-05-02T16:04:29.543Z</time></trkpt><trkpt lat="45.742727893848574" lon="11.258876847804514"><ele>354.0</ele><time>2026-05-02T16:04:30.543Z</time></trkpt><trkpt lat="45.74261615674877" lon="11.258993563951408"><ele>354.0</ele><time>2026-05-02T16:04:31.543Z</time></trkpt><trkpt lat="45.74249936001754" lon="11.259089532944072"><ele>354.0</ele><time>2026-05-02T16:04:32.543Z</time></trkpt><trkpt lat="45.74238009439554" lon="11.259170080940736"><ele>355.5</ele><time>2026-05-02T16:04:33.543Z</time></trkpt><trkpt lat="45.74226726648607" lon="11.25924764418698"><ele>357.0</ele><time>2026-05-02T16:04:34.543Z</time></trkpt><trkpt lat="45.7421323748033" lon="11.25932314535915"><ele>358.5</ele><time>2026-05-02T16:04:35.543Z</time></trkpt><trkpt lat="45.74204085892609" lon="11.259405811199343"><ele>360.0</ele><time>2026-05-02T16:04:36.543Z</time></trkpt><trkpt lat="45.74194049702429" lon="11.259465049345492"><ele>358.0</ele><time>2026-05-02T16:04:37.543Z</time></trkpt><trkpt lat="45.741851074031" lon="11.259531119464501"><ele>356.0</ele><time>2026-05-02T16:04:38.543Z</time></trkpt><trkpt lat="45.74174710300525" lon="11.25961279090215"><ele>354.0</ele><time>2026-05-02T16:04:39.543Z</time></trkpt><trkpt lat="45.741650135537306" lon="11.259685676801222"><ele>352.0</ele><time>2026-05-02T16:04:40.543Z</time></trkpt><trkpt lat="45.74153716737624" lon="11.259734743686135"><ele>350.0</ele><time>2026-05-02T16:04:41.543Z</time></trkpt><trkpt lat="45.741446117152165" lon="11.2598094238712"><ele>350.0</ele><time>2026-05-02T16:04:42.543Z</time></trkpt><trkpt lat="45.74135309169116" lon="11.25983376904217"><ele>350.0</ele><time>2026-05-02T16:04:43.543Z</time></trkpt><trkpt lat="45.741265237430035" lon="11.25988508106797"><ele>350.0</ele><time>2026-05-02T16:04:44.543Z</time></trkpt><trkpt lat="45.74119580079093" lon="11.259931895654201"><ele>350.0</ele><time>2026-05-02T16:04:45.543Z</time></trkpt><trkpt lat="45.741098668114" lon="11.2600002591447"><ele>350.0</ele><time>2026-05-02T16:04:46.543Z</time></trkpt><trkpt lat="45.741008806833456" lon="11.260102854531919"><ele>349.0</ele><time>2026-05-02T16:04:47.543Z</time></trkpt><trkpt lat="45.74092320578945" lon="11.260205117932463"><ele>348.0</ele><time>2026-05-02T16:04:48.543Z</time></trkpt><trkpt lat="45.74085354286225" lon="11.260328972621817"><ele>347.0</ele><time>2026-05-02T16:04:49.543Z</time></trkpt><trkpt lat="45.74077344334044" lon="11.260464472746245"><ele>346.0</ele><time>2026-05-02T16:04:50.543Z</time></trkpt><trkpt lat="45.74070037174207" lon="11.260618500625926"><ele>346.0</ele><time>2026-05-02T16:04:51.543Z</time></trkpt><trkpt lat="45.74063123310046" lon="11.260767341867126"><ele>346.0</ele><time>2026-05-02T16:04:52.543Z</time></trkpt><trkpt lat="45.74055780472275" lon="11.260909880347276"><ele>346.0</ele><time>2026-05-02T16:04:53.543Z</time></trkpt><trkpt lat="45.74048161921373" lon="11.261037935456077"><ele>346.0</ele><time>2026-05-02T16:04:54.543Z</time></trkpt><trkpt lat="45.740421495929574" lon="11.261175450528572"><ele>346.0</ele><time>2026-05-02T16:04:55.543Z</time></trkpt><trkpt lat="45.740354018111006" lon="11.261314177284058"><ele>346.0</ele><time>2026-05-02T16:04:56.543Z</time></trkpt><trkpt lat="45.740288234138156" lon="11.261440624976219"><ele>346.0</ele><time>2026-05-02T16:04:57.543Z</time></trkpt><trkpt lat="45.74023148397801" lon="11.261572410377854"><ele>346.0</ele><time>2026-05-02T16:04:58.543Z</time></trkpt><trkpt lat="45.74017926338526" lon="11.261688901256777"><ele>346.0</ele><time>2026-05-02T16:04:59.543Z</time></trkpt><trkpt lat="45.74013822041326" lon="11.26179884810484"><ele>345.8333333333333</ele><time>2026-05-02T16:05:00.543Z</time></trkpt><trkpt lat="45.74010485797658" lon="11.261906987791301"><ele>345.66666666666663</ele><time>2026-05-02T16:05:01.543Z</time></trkpt><trkpt lat="45.74007323519797" lon="11.262009042080516"><ele>345.5</ele><time>2026-05-02T16:05:02.543Z</time></trkpt><trkpt lat="45.74003297677361" lon="11.262099164101516"><ele>345.3333333333333</ele><time>2026-05-02T16:05:03.543Z</time></trkpt><trkpt lat="45.74000554689903" lon="11.262194903848423"><ele>345.1666666666667</ele><time>2026-05-02T16:05:04.543Z</time></trkpt><trkpt lat="45.73996730365788" lon="11.262286442505012"><ele>345.0</ele><time>2026-05-02T16:05:05.543Z</time></trkpt><trkpt lat="45.73992028752816" lon="11.26244853495243"><ele>344.5</ele><time>2026-05-02T16:05:07.543Z</time></trkpt><trkpt lat="45.73997266797626" lon="11.262564530319182"><ele>344.0</ele><time>2026-05-02T16:05:09.543Z</time></trkpt><trkpt lat="45.73991383516689" lon="11.262661733130003"><ele>343.5</ele><time>2026-05-02T16:05:55.544Z</time></trkpt><trkpt lat="45.7399642887128" lon="11.262606288352213"><ele>343.0</ele><time>2026-05-02T16:06:10.544Z</time></trkpt><trkpt lat="45.74001178761627" lon="11.262524901608971"><ele>342.5</ele><time>2026-05-02T16:07:02.544Z</time></trkpt><trkpt lat="45.74000870962448" lon="11.262629247870507"><ele>342.0</ele><time>2026-05-02T16:07:35.544Z</time></trkpt><trkpt lat="45.73989861472433" lon="11.262670680417495"><ele>342.0</ele><time>2026-05-02T16:07:37.544Z</time></trkpt><trkpt lat="45.73982960656859" lon="11.262680503491538"><ele>342.0</ele><time>2026-05-02T16:07:38.545Z</time></trkpt><trkpt lat="45.739742837255285" lon="11.262918870324697"><ele>342.0</ele><time>2026-05-02T16:07:45.545Z</time></trkpt><trkpt lat="45.739696559321274" lon="11.263105220984924"><ele>342.0</ele><time>2026-05-02T16:07:46.545Z</time></trkpt><trkpt lat="45.73962815089142" lon="11.263232698252196"><ele>341.0</ele><time>2026-05-02T16:07:47.545Z</time></trkpt><trkpt lat="45.73955284404633" lon="11.263435713202577"><ele>340.0</ele><time>2026-05-02T16:07:48.545Z</time></trkpt><trkpt lat="45.73949387104759" lon="11.263641776816337"><ele>339.0</ele><time>2026-05-02T16:07:49.545Z</time></trkpt><trkpt lat="45.73945546987318" lon="11.263837803264751"><ele>339.0</ele><time>2026-05-02T16:07:50.545Z</time></trkpt><trkpt lat="45.73942124637189" lon="11.264010577191097"><ele>339.0</ele><time>2026-05-02T16:07:51.545Z</time></trkpt><trkpt lat="45.739386538834275" lon="11.264187355236501"><ele>339.0</ele><time>2026-05-02T16:07:52.545Z</time></trkpt><trkpt lat="45.7393586027679" lon="11.264332970872484"><ele>339.0</ele><time>2026-05-02T16:07:53.545Z</time></trkpt><trkpt lat="45.73934310130784" lon="11.264495598923505"><ele>339.0</ele><time>2026-05-02T16:07:54.545Z</time></trkpt><trkpt lat="45.739299759522986" lon="11.264664826497036"><ele>339.0</ele><time>2026-05-02T16:07:55.545Z</time></trkpt><trkpt lat="45.73925936093307" lon="11.264849348363855"><ele>339.0</ele><time>2026-05-02T16:07:56.545Z</time></trkpt><trkpt lat="45.73920661910702" lon="11.265017321501423"><ele>339.0</ele><time>2026-05-02T16:07:57.545Z</time></trkpt><trkpt lat="45.73916756304618" lon="11.265172696167093"><ele>340.3333333333333</ele><time>2026-05-02T16:07:58.545Z</time></trkpt><trkpt lat="45.73905161520056" lon="11.265316350761998"><ele>341.66666666666663</ele><time>2026-05-02T16:07:59.545Z</time></trkpt><trkpt lat="45.73889788889755" lon="11.26547941735554"><ele>343.0</ele><time>2026-05-02T16:08:00.545Z</time></trkpt><trkpt lat="45.738754922830786" lon="11.265626320077699"><ele>343.0</ele><time>2026-05-02T16:08:01.545Z</time></trkpt><trkpt lat="45.7386344725555" lon="11.265705854759892"><ele>343.0</ele><time>2026-05-02T16:08:02.545Z</time></trkpt><trkpt lat="45.7385250312167" lon="11.265752712977434"><ele>343.0</ele><time>2026-05-02T16:08:03.545Z</time></trkpt><trkpt lat="45.73841268084423" lon="11.265728372704212"><ele>343.0</ele><time>2026-05-02T16:08:04.545Z</time></trkpt><trkpt lat="45.7382792532317" lon="11.265718059819747"><ele>343.0</ele><time>2026-05-02T16:08:05.545Z</time></trkpt><trkpt lat="45.738116172303926" lon="11.265737955981281"><ele>343.0</ele><time>2026-05-02T16:08:06.545Z</time></trkpt><trkpt lat="45.73796181486359" lon="11.26579976062339"><ele>343.0</ele><time>2026-05-02T16:08:07.545Z</time></trkpt><trkpt lat="45.73782767881998" lon="11.265909550928036"><ele>343.25</ele><time>2026-05-02T16:08:08.545Z</time></trkpt><trkpt lat="45.73771427459213" lon="11.265982739070726"><ele>343.5</ele><time>2026-05-02T16:08:09.545Z</time></trkpt><trkpt lat="45.73759271361571" lon="11.266074917489732"><ele>343.75</ele><time>2026-05-02T16:08:10.545Z</time></trkpt><trkpt lat="45.73752717535447" lon="11.266263346747232"><ele>344.0</ele><time>2026-05-02T16:08:11.545Z</time></trkpt><trkpt lat="45.737441478001486" lon="11.266457453753755"><ele>344.0</ele><time>2026-05-02T16:08:12.545Z</time></trkpt><trkpt lat="45.7373583507831" lon="11.266603978642097"><ele>344.0</ele><time>2026-05-02T16:08:13.545Z</time></trkpt><trkpt lat="45.73730534626577" lon="11.266745418106996"><ele>344.0</ele><time>2026-05-02T16:08:14.545Z</time></trkpt><trkpt lat="45.737231847544315" lon="11.266879654763914"><ele>344.0</ele><time>2026-05-02T16:08:15.545Z</time></trkpt><trkpt lat="45.737153637457084" lon="11.267004740873922"><ele>344.0</ele><time>2026-05-02T16:08:16.545Z</time></trkpt><trkpt lat="45.7370828735558" lon="11.267156616844407"><ele>344.0</ele><time>2026-05-02T16:08:17.545Z</time></trkpt><trkpt lat="45.737011128599626" lon="11.2672958359412"><ele>344.0</ele><time>2026-05-02T16:08:18.545Z</time></trkpt><trkpt lat="45.73693780449053" lon="11.267447981116048"><ele>344.0</ele><time>2026-05-02T16:08:19.545Z</time></trkpt><trkpt lat="45.73685006532688" lon="11.267564314453189"><ele>342.5</ele><time>2026-05-02T16:08:20.545Z</time></trkpt><trkpt lat="45.736749362805234" lon="11.267682796665785"><ele>341.0</ele><time>2026-05-02T16:08:21.545Z</time></trkpt><trkpt lat="45.736650048426995" lon="11.267790751692988"><ele>339.5</ele><time>2026-05-02T16:08:22.545Z</time></trkpt><trkpt lat="45.736551158280854" lon="11.267904487473961"><ele>338.0</ele><time>2026-05-02T16:08:23.545Z</time></trkpt><trkpt lat="45.736460822606574" lon="11.268024988177809"><ele>338.75</ele><time>2026-05-02T16:08:24.545Z</time></trkpt><trkpt lat="45.73638198005203" lon="11.26815888530362"><ele>339.5</ele><time>2026-05-02T16:08:25.545Z</time></trkpt><trkpt lat="45.73632246889902" lon="11.268316439612406"><ele>340.25</ele><time>2026-05-02T16:08:26.545Z</time></trkpt><trkpt lat="45.736257261244084" lon="11.268468373081676"><ele>341.0</ele><time>2026-05-02T16:08:27.545Z</time></trkpt><trkpt lat="45.736179563075304" lon="11.268606704953994"><ele>341.0</ele><time>2026-05-02T16:08:28.545Z</time></trkpt><trkpt lat="45.73609919498215" lon="11.268767822851585"><ele>341.0</ele><time>2026-05-02T16:08:29.545Z</time></trkpt><trkpt lat="45.736012035879" lon="11.2689186793079"><ele>341.0</ele><time>2026-05-02T16:08:30.545Z</time></trkpt><trkpt lat="45.73590913064969" lon="11.26907393858033"><ele>341.0</ele><time>2026-05-02T16:08:31.545Z</time></trkpt><trkpt lat="45.73580401458551" lon="11.26924316964629"><ele>339.25</ele><time>2026-05-02T16:08:32.545Z</time></trkpt><trkpt lat="45.73568932935924" lon="11.269390146935564"><ele>337.5</ele><time>2026-05-02T16:08:33.545Z</time></trkpt><trkpt lat="45.735575708682696" lon="11.26952858973742"><ele>335.75</ele><time>2026-05-02T16:08:34.545Z</time></trkpt><trkpt lat="45.73546548459876" lon="11.269660390033566"><ele>334.0</ele><time>2026-05-02T16:08:35.545Z</time></trkpt><trkpt lat="45.73535860548066" lon="11.269807355724913"><ele>331.25</ele><time>2026-05-02T16:08:36.545Z</time></trkpt><trkpt lat="45.735258525358425" lon="11.269948541359302"><ele>328.5</ele><time>2026-05-02T16:08:37.545Z</time></trkpt><trkpt lat="45.735155012156284" lon="11.270094500014244"><ele>325.75</ele><time>2026-05-02T16:08:38.545Z</time></trkpt><trkpt lat="45.73504864370656" lon="11.270241410240269"><ele>323.0</ele><time>2026-05-02T16:08:39.545Z</time></trkpt><trkpt lat="45.73496163414591" lon="11.270402618390994"><ele>323.0</ele><time>2026-05-02T16:08:40.545Z</time></trkpt><trkpt lat="45.73489237864803" lon="11.270567300692273"><ele>323.0</ele><time>2026-05-02T16:08:41.545Z</time></trkpt><trkpt lat="45.73482082860665" lon="11.270713598624328"><ele>323.0</ele><time>2026-05-02T16:08:42.545Z</time></trkpt><trkpt lat="45.7347277846261" lon="11.270837184163735"><ele>323.0</ele><time>2026-05-02T16:08:43.545Z</time></trkpt><trkpt lat="45.734634039866634" lon="11.270949345550285"><ele>323.25</ele><time>2026-05-02T16:08:44.545Z</time></trkpt><trkpt lat="45.73454072544714" lon="11.27102977938982"><ele>323.5</ele><time>2026-05-02T16:08:45.545Z</time></trkpt><trkpt lat="45.73443689819933" lon="11.271135364924646"><ele>323.75</ele><time>2026-05-02T16:08:46.545Z</time></trkpt><trkpt lat="45.73433789124868" lon="11.271232666509404"><ele>324.0</ele><time>2026-05-02T16:08:47.545Z</time></trkpt><trkpt lat="45.73423462643741" lon="11.27130763634075"><ele>323.0</ele><time>2026-05-02T16:08:48.545Z</time></trkpt><trkpt lat="45.73413151147711" lon="11.271446119286372"><ele>322.0</ele><time>2026-05-02T16:08:49.545Z</time></trkpt><trkpt lat="45.73402862848424" lon="11.271558950944197"><ele>321.0</ele><time>2026-05-02T16:08:50.545Z</time></trkpt><trkpt lat="45.733924420570666" lon="11.271654321517678"><ele>320.0</ele><time>2026-05-02T16:08:51.545Z</time></trkpt><trkpt lat="45.73382475934222" lon="11.271760291322352"><ele>320.0</ele><time>2026-05-02T16:08:52.545Z</time></trkpt><trkpt lat="45.73374173862831" lon="11.271877369454835"><ele>320.0</ele><time>2026-05-02T16:08:53.545Z</time></trkpt><trkpt lat="45.73364838114365" lon="11.27198342759585"><ele>320.0</ele><time>2026-05-02T16:08:54.545Z</time></trkpt><trkpt lat="45.73355480669725" lon="11.272080158238497"><ele>320.0</ele><time>2026-05-02T16:08:55.545Z</time></trkpt><trkpt lat="45.73346333792364" lon="11.272176786183627"><ele>318.8</ele><time>2026-05-02T16:08:56.545Z</time></trkpt><trkpt lat="45.73337518132382" lon="11.272270322299727"><ele>317.6</ele><time>2026-05-02T16:08:57.545Z</time></trkpt><trkpt lat="45.73330082910539" lon="11.272375260505163"><ele>316.4</ele><time>2026-05-02T16:08:58.545Z</time></trkpt><trkpt lat="45.73325056216527" lon="11.272503961483569"><ele>315.2</ele><time>2026-05-02T16:08:59.545Z</time></trkpt><trkpt lat="45.73321385532827" lon="11.272657217044884"><ele>314.0</ele><time>2026-05-02T16:09:00.545Z</time></trkpt><trkpt lat="45.7331664393523" lon="11.272798260185159"><ele>314.0</ele><time>2026-05-02T16:09:01.545Z</time></trkpt><trkpt lat="45.73313730058707" lon="11.272949338613095"><ele>314.0</ele><time>2026-05-02T16:09:02.545Z</time></trkpt><trkpt lat="45.73308089125382" lon="11.273087966535991"><ele>314.0</ele><time>2026-05-02T16:09:03.545Z</time></trkpt><trkpt lat="45.73301454275846" lon="11.273242377365314"><ele>314.0</ele><time>2026-05-02T16:09:04.545Z</time></trkpt><trkpt lat="45.732955159622804" lon="11.273398889435446"><ele>313.75</ele><time>2026-05-02T16:09:05.545Z</time></trkpt><trkpt lat="45.73289231612927" lon="11.273560923739927"><ele>313.5</ele><time>2026-05-02T16:09:06.545Z</time></trkpt><trkpt lat="45.732819402046886" lon="11.273717537766093"><ele>313.25</ele><time>2026-05-02T16:09:07.545Z</time></trkpt><trkpt lat="45.732737042318966" lon="11.273843374387818"><ele>313.0</ele><time>2026-05-02T16:09:08.545Z</time></trkpt><trkpt lat="45.73265995755408" lon="11.2739700588771"><ele>313.0</ele><time>2026-05-02T16:09:09.545Z</time></trkpt><trkpt lat="45.732566461284065" lon="11.274071890708301"><ele>313.0</ele><time>2026-05-02T16:09:10.545Z</time></trkpt><trkpt lat="45.73247156770075" lon="11.274182934116737"><ele>313.0</ele><time>2026-05-02T16:09:11.545Z</time></trkpt><trkpt lat="45.732370715424715" lon="11.274300074575848"><ele>313.0</ele><time>2026-05-02T16:09:12.545Z</time></trkpt><trkpt lat="45.73228347640878" lon="11.274391377025546"><ele>313.0</ele><time>2026-05-02T16:09:13.545Z</time></trkpt><trkpt lat="45.73219462736331" lon="11.274461990989762"><ele>313.0</ele><time>2026-05-02T16:09:14.545Z</time></trkpt><trkpt lat="45.73211425152165" lon="11.274545978828089"><ele>313.0</ele><time>2026-05-02T16:09:15.545Z</time></trkpt><trkpt lat="45.732033290382226" lon="11.274615263352723"><ele>313.0</ele><time>2026-05-02T16:09:16.545Z</time></trkpt><trkpt lat="45.73196773964532" lon="11.274715098825332"><ele>313.0</ele><time>2026-05-02T16:09:17.545Z</time></trkpt><trkpt lat="45.73191445487119" lon="11.274833662147167"><ele>313.0</ele><time>2026-05-02T16:09:18.545Z</time></trkpt><trkpt lat="45.731870935291234" lon="11.274969543240685"><ele>313.0</ele><time>2026-05-02T16:09:19.545Z</time></trkpt><trkpt lat="45.731829713841044" lon="11.27510400452881"><ele>313.0</ele><time>2026-05-02T16:09:20.545Z</time></trkpt><trkpt lat="45.731773069740804" lon="11.275219365980456"><ele>313.0</ele><time>2026-05-02T16:09:21.545Z</time></trkpt><trkpt lat="45.731716701316" lon="11.275326343108985"><ele>313.0</ele><time>2026-05-02T16:09:22.545Z</time></trkpt><trkpt lat="45.7316541124962" lon="11.275427916005883"><ele>313.0</ele><time>2026-05-02T16:09:23.545Z</time></trkpt><trkpt lat="45.73157933127451" lon="11.275531911156149"><ele>313.0</ele><time>2026-05-02T16:09:24.545Z</time></trkpt><trkpt lat="45.73150458154798" lon="11.275635833240116"><ele>313.0</ele><time>2026-05-02T16:09:25.545Z</time></trkpt><trkpt lat="45.731417311390025" lon="11.275757170171191"><ele>313.0</ele><time>2026-05-02T16:09:26.545Z</time></trkpt><trkpt lat="45.73134119480462" lon="11.275859837773174"><ele>313.0</ele><time>2026-05-02T16:09:27.545Z</time></trkpt><trkpt lat="45.73126367936373" lon="11.275963424916657"><ele>313.25</ele><time>2026-05-02T16:09:28.545Z</time></trkpt><trkpt lat="45.731181628883945" lon="11.276077714740616"><ele>313.5</ele><time>2026-05-02T16:09:29.545Z</time></trkpt><trkpt lat="45.731098153934276" lon="11.27618580915509"><ele>313.75</ele><time>2026-05-02T16:09:30.545Z</time></trkpt><trkpt lat="45.73100570543015" lon="11.276284530728196"><ele>314.0</ele><time>2026-05-02T16:09:31.545Z</time></trkpt><trkpt lat="45.73093322566826" lon="11.276420011408803"><ele>313.5</ele><time>2026-05-02T16:09:32.545Z</time></trkpt><trkpt lat="45.73084989444486" lon="11.276552051844"><ele>313.0</ele><time>2026-05-02T16:09:33.545Z</time></trkpt><trkpt lat="45.73075905883808" lon="11.276680797620257"><ele>312.5</ele><time>2026-05-02T16:09:34.545Z</time></trkpt><trkpt lat="45.730675059305234" lon="11.276830282442376"><ele>312.0</ele><time>2026-05-02T16:09:35.545Z</time></trkpt><trkpt lat="45.73059451764213" lon="11.2769701704971"><ele>312.0</ele><time>2026-05-02T16:09:36.545Z</time></trkpt><trkpt lat="45.73050940777962" lon="11.277099561929811"><ele>312.0</ele><time>2026-05-02T16:09:37.545Z</time></trkpt><trkpt lat="45.73042173090325" lon="11.277220068524642"><ele>312.0</ele><time>2026-05-02T16:09:38.545Z</time></trkpt><trkpt lat="45.730344497821314" lon="11.277354407953363"><ele>312.0</ele><time>2026-05-02T16:09:39.545Z</time></trkpt><trkpt lat="45.73025404187781" lon="11.277448479767433"><ele>311.0</ele><time>2026-05-02T16:09:40.545Z</time></trkpt><trkpt lat="45.73016908576269" lon="11.277560259282879"><ele>310.0</ele><time>2026-05-02T16:09:41.545Z</time></trkpt><trkpt lat="45.73007003268242" lon="11.27766684577669"><ele>309.0</ele><time>2026-05-02T16:09:42.545Z</time></trkpt><trkpt lat="45.72996732352642" lon="11.277772466514584"><ele>308.0</ele><time>2026-05-02T16:09:43.545Z</time></trkpt><trkpt lat="45.729861180855785" lon="11.277874107352941"><ele>308.0</ele><time>2026-05-02T16:09:44.546Z</time></trkpt><trkpt lat="45.72975727917768" lon="11.277963997033531"><ele>308.0</ele><time>2026-05-02T16:09:45.546Z</time></trkpt><trkpt lat="45.72965136984908" lon="11.278053309558443"><ele>308.0</ele><time>2026-05-02T16:09:46.546Z</time></trkpt><trkpt lat="45.72953260094837" lon="11.278154129158219"><ele>308.0</ele><time>2026-05-02T16:09:47.546Z</time></trkpt><trkpt lat="45.72940428410313" lon="11.278264957360642"><ele>307.75</ele><time>2026-05-02T16:09:48.546Z</time></trkpt><trkpt lat="45.72928266152284" lon="11.278370029149542"><ele>307.5</ele><time>2026-05-02T16:09:49.546Z</time></trkpt><trkpt lat="45.72916578703711" lon="11.2784719353217"><ele>307.25</ele><time>2026-05-02T16:09:50.546Z</time></trkpt><trkpt lat="45.72904645188395" lon="11.278575350064562"><ele>307.0</ele><time>2026-05-02T16:09:51.546Z</time></trkpt><trkpt lat="45.72893676335154" lon="11.278670405138817"><ele>307.0</ele><time>2026-05-02T16:09:52.546Z</time></trkpt><trkpt lat="45.7288488599732" lon="11.278815589229644"><ele>307.0</ele><time>2026-05-02T16:09:53.546Z</time></trkpt><trkpt lat="45.72875405359128" lon="11.278903243772875"><ele>307.0</ele><time>2026-05-02T16:09:54.546Z</time></trkpt><trkpt lat="45.72866879463755" lon="11.278985401679737"><ele>307.0</ele><time>2026-05-02T16:09:55.546Z</time></trkpt><trkpt lat="45.728587792567716" lon="11.27905286722823"><ele>307.0</ele><time>2026-05-02T16:09:56.546Z</time></trkpt><trkpt lat="45.72848530474438" lon="11.279060884674097"><ele>306.16666666666663</ele><time>2026-05-02T16:09:57.546Z</time></trkpt><trkpt lat="45.72840886101967" lon="11.279113392913185"><ele>305.3333333333333</ele><time>2026-05-02T16:09:58.546Z</time></trkpt><trkpt lat="45.7283225097396" lon="11.279088933518352"><ele>304.5</ele><time>2026-05-02T16:09:59.546Z</time></trkpt><trkpt lat="45.728250814327396" lon="11.279043187426854"><ele>303.6666666666667</ele><time>2026-05-02T16:10:00.546Z</time></trkpt><trkpt lat="45.72820084836727" lon="11.278984050868328"><ele>302.83333333333337</ele><time>2026-05-02T16:10:01.546Z</time></trkpt><trkpt lat="45.728142562077004" lon="11.278921968821962"><ele>302.0</ele><time>2026-05-02T16:10:02.546Z</time></trkpt><trkpt lat="45.728022447252535" lon="11.278904234700258"><ele>302.0</ele><time>2026-05-02T16:10:04.546Z</time></trkpt><trkpt lat="45.72795353894688" lon="11.278958601026138"><ele>302.0</ele><time>2026-05-02T16:10:05.546Z</time></trkpt><trkpt lat="45.72787071378948" lon="11.279015477004013"><ele>302.0</ele><time>2026-05-02T16:10:06.546Z</time></trkpt><trkpt lat="45.72775791369766" lon="11.279151554058156"><ele>302.0</ele><time>2026-05-02T16:10:07.546Z</time></trkpt><trkpt lat="45.727654552937445" lon="11.279302960294515"><ele>302.4</ele><time>2026-05-02T16:10:08.546Z</time></trkpt><trkpt lat="45.727579250946604" lon="11.27942516368082"><ele>302.79999999999995</ele><time>2026-05-02T16:10:09.546Z</time></trkpt><trkpt lat="45.72751422999519" lon="11.279531603344141"><ele>303.2</ele><time>2026-05-02T16:10:10.546Z</time></trkpt><trkpt lat="45.72745483223365" lon="11.279617510571088"><ele>303.59999999999997</ele><time>2026-05-02T16:10:11.546Z</time></trkpt><trkpt lat="45.72739558262241" lon="11.279698455881007"><ele>304.0</ele><time>2026-05-02T16:10:12.546Z</time></trkpt><trkpt lat="45.727308047134834" lon="11.279804254305091"><ele>302.0</ele><time>2026-05-02T16:10:13.546Z</time></trkpt><trkpt lat="45.72717960272743" lon="11.279865798232757"><ele>300.0</ele><time>2026-05-02T16:10:14.546Z</time></trkpt><trkpt lat="45.727020901201264" lon="11.279895355415094"><ele>298.0</ele><time>2026-05-02T16:10:15.546Z</time></trkpt><trkpt lat="45.7268146833871" lon="11.279895597247856"><ele>297.3333333333333</ele><time>2026-05-02T16:10:16.546Z</time></trkpt><trkpt lat="45.726605204175826" lon="11.279903219452278"><ele>296.6666666666667</ele><time>2026-05-02T16:10:17.546Z</time></trkpt><trkpt lat="45.72639828948327" lon="11.279903994289297"><ele>296.0</ele><time>2026-05-02T16:10:18.546Z</time></trkpt><trkpt lat="45.72621454838242" lon="11.27991430048954"><ele>295.6666666666667</ele><time>2026-05-02T16:10:19.546Z</time></trkpt><trkpt lat="45.72605425502265" lon="11.279950280123352"><ele>295.3333333333333</ele><time>2026-05-02T16:10:20.546Z</time></trkpt><trkpt lat="45.725903110232366" lon="11.279995690459515"><ele>295.0</ele><time>2026-05-02T16:10:21.546Z</time></trkpt><trkpt lat="45.72574589686336" lon="11.280052076577174"><ele>295.0</ele><time>2026-05-02T16:10:22.546Z</time></trkpt><trkpt lat="45.725592432899006" lon="11.28011332454563"><ele>295.0</ele><time>2026-05-02T16:10:23.546Z</time></trkpt><trkpt lat="45.725443649314535" lon="11.280165579266296"><ele>295.0</ele><time>2026-05-02T16:10:24.546Z</time></trkpt><trkpt lat="45.72528477276006" lon="11.280240730764675"><ele>296.66666666666663</ele><time>2026-05-02T16:10:25.546Z</time></trkpt><trkpt lat="45.72511440011846" lon="11.280302298892442"><ele>298.3333333333333</ele><time>2026-05-02T16:10:26.546Z</time></trkpt><trkpt lat="45.72495399722599" lon="11.280395342360272"><ele>300.0</ele><time>2026-05-02T16:10:27.546Z</time></trkpt><trkpt lat="45.724834549506596" lon="11.28053169437257"><ele>298.3333333333333</ele><time>2026-05-02T16:10:28.546Z</time></trkpt><trkpt lat="45.72469460086323" lon="11.280655641155864"><ele>296.66666666666663</ele><time>2026-05-02T16:10:29.546Z</time></trkpt><trkpt lat="45.72452887763555" lon="11.280761579387262"><ele>295.0</ele><time>2026-05-02T16:10:30.546Z</time></trkpt><trkpt lat="45.7243534400243" lon="11.280861612483724"><ele>295.0</ele><time>2026-05-02T16:10:31.546Z</time></trkpt><trkpt lat="45.72420194249908" lon="11.280948448495847"><ele>295.0</ele><time>2026-05-02T16:10:32.546Z</time></trkpt><trkpt lat="45.72404596281345" lon="11.281041964817115"><ele>295.0</ele><time>2026-05-02T16:10:33.546Z</time></trkpt><trkpt lat="45.72390741724277" lon="11.281126606642935"><ele>295.0</ele><time>2026-05-02T16:10:34.546Z</time></trkpt><trkpt lat="45.72376774866287" lon="11.281196655580786"><ele>295.0</ele><time>2026-05-02T16:10:35.546Z</time></trkpt><trkpt lat="45.72362991115431" lon="11.281282178368997"><ele>295.0</ele><time>2026-05-02T16:10:36.546Z</time></trkpt><trkpt lat="45.7234986574558" lon="11.281367325595692"><ele>295.0</ele><time>2026-05-02T16:10:37.546Z</time></trkpt><trkpt lat="45.723377550863766" lon="11.281471145817484"><ele>293.25</ele><time>2026-05-02T16:10:38.546Z</time></trkpt><trkpt lat="45.7232845732767" lon="11.281591080105517"><ele>291.5</ele><time>2026-05-02T16:10:39.546Z</time></trkpt><trkpt lat="45.72319402292214" lon="11.28171951441784"><ele>289.75</ele><time>2026-05-02T16:10:40.546Z</time></trkpt><trkpt lat="45.723166833072554" lon="11.28192311518678"><ele>288.0</ele><time>2026-05-02T16:10:41.546Z</time></trkpt><trkpt lat="45.723171537591334" lon="11.282096408703538"><ele>288.0</ele><time>2026-05-02T16:10:42.546Z</time></trkpt><trkpt lat="45.72315693071924" lon="11.28224931657532"><ele>288.0</ele><time>2026-05-02T16:10:43.546Z</time></trkpt><trkpt lat="45.72308631971867" lon="11.282365107174492"><ele>288.0</ele><time>2026-05-02T16:10:44.546Z</time></trkpt><trkpt lat="45.72298705854631" lon="11.282474412194727"><ele>288.0</ele><time>2026-05-02T16:10:45.546Z</time></trkpt><trkpt lat="45.722879936543706" lon="11.282581500064843"><ele>287.75</ele><time>2026-05-02T16:10:46.546Z</time></trkpt><trkpt lat="45.72277634699238" lon="11.282682094003652"><ele>287.5</ele><time>2026-05-02T16:10:47.546Z</time></trkpt><trkpt lat="45.72268350382672" lon="11.282797511154156"><ele>287.25</ele><time>2026-05-02T16:10:48.546Z</time></trkpt><trkpt lat="45.72259676537455" lon="11.282925319923617"><ele>287.0</ele><time>2026-05-02T16:10:49.546Z</time></trkpt><trkpt lat="45.722510786566275" lon="11.283071196310669"><ele>291.6666666666667</ele><time>2026-05-02T16:10:50.546Z</time></trkpt><trkpt lat="45.72242425867474" lon="11.283284632492018"><ele>296.3333333333333</ele><time>2026-05-02T16:10:51.546Z</time></trkpt><trkpt lat="45.722348946445166" lon="11.283539301375981"><ele>301.0</ele><time>2026-05-02T16:10:52.546Z</time></trkpt><trkpt lat="45.72229236196726" lon="11.283777057288162"><ele>305.3333333333333</ele><time>2026-05-02T16:10:53.546Z</time></trkpt><trkpt lat="45.72221104526631" lon="11.283998407241643"><ele>309.6666666666667</ele><time>2026-05-02T16:10:54.546Z</time></trkpt><trkpt lat="45.72215350767034" lon="11.28422634317333"><ele>314.0</ele><time>2026-05-02T16:10:55.546Z</time></trkpt><trkpt lat="45.72210639129085" lon="11.284458884655956"><ele>314.0</ele><time>2026-05-02T16:10:56.546Z</time></trkpt><trkpt lat="45.722084681554236" lon="11.284671968664332"><ele>314.0</ele><time>2026-05-02T16:10:57.546Z</time></trkpt><trkpt lat="45.72203851273796" lon="11.28488561141288"><ele>314.0</ele><time>2026-05-02T16:10:58.546Z</time></trkpt><trkpt lat="45.7220166678211" lon="11.285094224300032"><ele>315.75</ele><time>2026-05-02T16:10:59.546Z</time></trkpt><trkpt lat="45.72200294913662" lon="11.285314624194955"><ele>317.5</ele><time>2026-05-02T16:11:00.546Z</time></trkpt><trkpt lat="45.72196753149163" lon="11.285493118501256"><ele>319.25</ele><time>2026-05-02T16:11:01.546Z</time></trkpt><trkpt lat="45.72192085282121" lon="11.285659152544127"><ele>321.0</ele><time>2026-05-02T16:11:02.546Z</time></trkpt><trkpt lat="45.7218753162391" lon="11.28582144184186"><ele>312.25</ele><time>2026-05-02T16:11:03.546Z</time></trkpt><trkpt lat="45.72182300906664" lon="11.28598337337674"><ele>303.5</ele><time>2026-05-02T16:11:04.546Z</time></trkpt><trkpt lat="45.72175466827223" lon="11.286169998813136"><ele>294.75</ele><time>2026-05-02T16:11:05.546Z</time></trkpt><trkpt lat="45.721672154156934" lon="11.286374271406123"><ele>286.0</ele><time>2026-05-02T16:11:06.546Z</time></trkpt><trkpt lat="45.72157625372912" lon="11.286599361044326"><ele>286.0</ele><time>2026-05-02T16:11:07.546Z</time></trkpt><trkpt lat="45.721481992166275" lon="11.286820120409997"><ele>286.0</ele><time>2026-05-02T16:11:08.546Z</time></trkpt><trkpt lat="45.721393056838686" lon="11.287027159469261"><ele>286.0</ele><time>2026-05-02T16:11:09.546Z</time></trkpt><trkpt lat="45.72131295729191" lon="11.287213629253866"><ele>288.0</ele><time>2026-05-02T16:11:10.546Z</time></trkpt><trkpt lat="45.7212345133906" lon="11.287396244743826"><ele>290.0</ele><time>2026-05-02T16:11:11.546Z</time></trkpt><trkpt lat="45.721164262277846" lon="11.287559787620882"><ele>292.0</ele><time>2026-05-02T16:11:12.546Z</time></trkpt><trkpt lat="45.721091264462636" lon="11.287729724113644"><ele>294.0</ele><time>2026-05-02T16:11:13.546Z</time></trkpt><trkpt lat="45.72101883203835" lon="11.287898345407575"><ele>289.75</ele><time>2026-05-02T16:11:14.546Z</time></trkpt><trkpt lat="45.72093944776656" lon="11.288083150282041"><ele>285.5</ele><time>2026-05-02T16:11:15.546Z</time></trkpt><trkpt lat="45.72086374752241" lon="11.288259685474545"><ele>281.25</ele><time>2026-05-02T16:11:16.546Z</time></trkpt><trkpt lat="45.72079094666341" lon="11.288414584603725"><ele>277.0</ele><time>2026-05-02T16:11:17.546Z</time></trkpt><trkpt lat="45.72071059112156" lon="11.288565891810359"><ele>277.0</ele><time>2026-05-02T16:11:18.546Z</time></trkpt><trkpt lat="45.72062778493698" lon="11.288708317414784"><ele>277.0</ele><time>2026-05-02T16:11:19.546Z</time></trkpt><trkpt lat="45.720546955418534" lon="11.28882764937279"><ele>277.0</ele><time>2026-05-02T16:11:20.546Z</time></trkpt><trkpt lat="45.720465803713054" lon="11.288942716305943"><ele>277.0</ele><time>2026-05-02T16:11:21.546Z</time></trkpt><trkpt lat="45.720389849968775" lon="11.289050413142725"><ele>276.25</ele><time>2026-05-02T16:11:22.546Z</time></trkpt><trkpt lat="45.72031021375197" lon="11.289155174450187"><ele>275.5</ele><time>2026-05-02T16:11:23.546Z</time></trkpt><trkpt lat="45.72021745681981" lon="11.289274320883573"><ele>274.75</ele><time>2026-05-02T16:11:24.546Z</time></trkpt><trkpt lat="45.72012114350067" lon="11.289397730559704"><ele>274.0</ele><time>2026-05-02T16:11:25.546Z</time></trkpt><trkpt lat="45.72001813024116" lon="11.28952982902039"><ele>274.0</ele><time>2026-05-02T16:11:26.546Z</time></trkpt><trkpt lat="45.71991410229517" lon="11.289663228434252"><ele>274.0</ele><time>2026-05-02T16:11:27.546Z</time></trkpt><trkpt lat="45.71980460466527" lon="11.289803641947248"><ele>274.0</ele><time>2026-05-02T16:11:28.546Z</time></trkpt><trkpt lat="45.71968936783582" lon="11.289952370471054"><ele>274.0</ele><time>2026-05-02T16:11:29.546Z</time></trkpt><trkpt lat="45.719569952765404" lon="11.290106891615801"><ele>273.66666666666663</ele><time>2026-05-02T16:11:30.546Z</time></trkpt><trkpt lat="45.71945092857374" lon="11.29026090678643"><ele>273.3333333333333</ele><time>2026-05-02T16:11:31.546Z</time></trkpt><trkpt lat="45.71933709650492" lon="11.290408203570122"><ele>273.0</ele><time>2026-05-02T16:11:32.546Z</time></trkpt><trkpt lat="45.719230039892224" lon="11.290551216817592"><ele>272.75</ele><time>2026-05-02T16:11:33.546Z</time></trkpt><trkpt lat="45.71912937422242" lon="11.290697659341914"><ele>272.5</ele><time>2026-05-02T16:11:34.546Z</time></trkpt><trkpt lat="45.719050297611" lon="11.29086840033246"><ele>272.25</ele><time>2026-05-02T16:11:35.546Z</time></trkpt><trkpt lat="45.71897588624456" lon="11.29103173539647"><ele>272.0</ele><time>2026-05-02T16:11:36.546Z</time></trkpt><trkpt lat="45.71889958384829" lon="11.291221943519295"><ele>273.33333333333337</ele><time>2026-05-02T16:11:37.546Z</time></trkpt><trkpt lat="45.71885674962038" lon="11.29143491144198"><ele>274.6666666666667</ele><time>2026-05-02T16:11:38.546Z</time></trkpt><trkpt lat="45.71881879961983" lon="11.291662590441419"><ele>276.0</ele><time>2026-05-02T16:11:39.546Z</time></trkpt><trkpt lat="45.71878224549174" lon="11.291907773517028"><ele>276.0</ele><time>2026-05-02T16:11:40.546Z</time></trkpt><trkpt lat="45.71875470875085" lon="11.292169583199978"><ele>276.0</ele><time>2026-05-02T16:11:41.546Z</time></trkpt><trkpt lat="45.718734826690024" lon="11.292445126571192"><ele>276.0</ele><time>2026-05-02T16:11:42.546Z</time></trkpt><trkpt lat="45.71872162065215" lon="11.292745041721236"><ele>277.0</ele><time>2026-05-02T16:11:43.546Z</time></trkpt><trkpt lat="45.71873329061929" lon="11.293035694380222"><ele>278.0</ele><time>2026-05-02T16:11:44.546Z</time></trkpt><trkpt lat="45.718722626503" lon="11.29329839291807"><ele>279.0</ele><time>2026-05-02T16:11:45.546Z</time></trkpt><trkpt lat="45.7187092091412" lon="11.293550636926067"><ele>280.3333333333333</ele><time>2026-05-02T16:11:46.546Z</time></trkpt><trkpt lat="45.718697525486924" lon="11.293786057380888"><ele>281.66666666666663</ele><time>2026-05-02T16:11:47.546Z</time></trkpt><trkpt lat="45.71866553379573" lon="11.294010370490309"><ele>283.0</ele><time>2026-05-02T16:11:48.546Z</time></trkpt><trkpt lat="45.71865617868226" lon="11.29422110047575"><ele>285.0</ele><time>2026-05-02T16:11:49.546Z</time></trkpt><trkpt lat="45.71864710780745" lon="11.294425427545127"><ele>287.0</ele><time>2026-05-02T16:11:50.546Z</time></trkpt><trkpt lat="45.718638482778964" lon="11.294618452288912"><ele>289.0</ele><time>2026-05-02T16:11:51.546Z</time></trkpt><trkpt lat="45.718629887691726" lon="11.294810423926611"><ele>291.0</ele><time>2026-05-02T16:11:52.546Z</time></trkpt><trkpt lat="45.71862238329924" lon="11.295019669233467"><ele>291.3333333333333</ele><time>2026-05-02T16:11:53.546Z</time></trkpt><trkpt lat="45.71861785591275" lon="11.29524173953839"><ele>291.66666666666663</ele><time>2026-05-02T16:11:54.546Z</time></trkpt><trkpt lat="45.71862457061547" lon="11.295472424621073"><ele>292.0</ele><time>2026-05-02T16:11:55.546Z</time></trkpt><trkpt lat="45.71864796859806" lon="11.295706955187423"><ele>290.3333333333333</ele><time>2026-05-02T16:11:56.546Z</time></trkpt><trkpt lat="45.718694467160375" lon="11.29594394414976"><ele>288.6666666666667</ele><time>2026-05-02T16:11:57.546Z</time></trkpt><trkpt lat="45.71874360885259" lon="11.296176245722137"><ele>287.0</ele><time>2026-05-02T16:11:58.546Z</time></trkpt><trkpt lat="45.71879396380394" lon="11.296413980984438"><ele>286.6666666666667</ele><time>2026-05-02T16:11:59.546Z</time></trkpt><trkpt lat="45.71884346104889" lon="11.296647740472247"><ele>286.3333333333333</ele><time>2026-05-02T16:12:00.546Z</time></trkpt><trkpt lat="45.71888824034502" lon="11.29687544033331"><ele>286.0</ele><time>2026-05-02T16:12:01.546Z</time></trkpt><trkpt lat="45.71894268176404" lon="11.297085956245674"><ele>286.0</ele><time>2026-05-02T16:12:02.546Z</time></trkpt><trkpt lat="45.718961174246374" lon="11.297307330309254"><ele>286.0</ele><time>2026-05-02T16:12:03.546Z</time></trkpt><trkpt lat="45.71894151382744" lon="11.297513875980677"><ele>286.0</ele><time>2026-05-02T16:12:04.546Z</time></trkpt><trkpt lat="45.71892093650894" lon="11.297725969238423"><ele>286.0</ele><time>2026-05-02T16:12:05.546Z</time></trkpt><trkpt lat="45.71892612402721" lon="11.297952497672568"><ele>286.0</ele><time>2026-05-02T16:12:06.546Z</time></trkpt><trkpt lat="45.718954602320466" lon="11.298183152512575"><ele>286.0</ele><time>2026-05-02T16:12:07.546Z</time></trkpt><trkpt lat="45.718990695795554" lon="11.298418366589043"><ele>283.66666666666663</ele><time>2026-05-02T16:12:08.546Z</time></trkpt><trkpt lat="45.719017936479425" lon="11.298663703889288"><ele>281.3333333333333</ele><time>2026-05-02T16:12:09.546Z</time></trkpt><trkpt lat="45.71903645471559" lon="11.298918540659212"><ele>279.0</ele><time>2026-05-02T16:12:10.546Z</time></trkpt><trkpt lat="45.719043955899984" lon="11.299176130225693"><ele>278.6666666666667</ele><time>2026-05-02T16:12:11.546Z</time></trkpt><trkpt lat="45.719043251180146" lon="11.299429577167746"><ele>278.33333333333337</ele><time>2026-05-02T16:12:12.546Z</time></trkpt><trkpt lat="45.71904053019414" lon="11.299662305936694"><ele>278.0</ele><time>2026-05-02T16:12:13.546Z</time></trkpt><trkpt lat="45.71904754220941" lon="11.299882638812992"><ele>276.75</ele><time>2026-05-02T16:12:14.546Z</time></trkpt><trkpt lat="45.71905757562722" lon="11.300083985383901"><ele>275.5</ele><time>2026-05-02T16:12:15.546Z</time></trkpt><trkpt lat="45.71906976530132" lon="11.300269215216455"><ele>274.25</ele><time>2026-05-02T16:12:16.546Z</time></trkpt><trkpt lat="45.7190876203385" lon="11.300458608584103"><ele>273.0</ele><time>2026-05-02T16:12:17.546Z</time></trkpt><trkpt lat="45.71911795898008" lon="11.300683421666673"><ele>272.5</ele><time>2026-05-02T16:12:18.546Z</time></trkpt><trkpt lat="45.71915559476916" lon="11.300907480083978"><ele>272.0</ele><time>2026-05-02T16:12:19.546Z</time></trkpt><trkpt lat="45.71918153399024" lon="11.301099904491219"><ele>271.5</ele><time>2026-05-02T16:12:20.546Z</time></trkpt><trkpt lat="45.7191987235774" lon="11.301286260149158"><ele>271.0</ele><time>2026-05-02T16:12:21.546Z</time></trkpt><trkpt lat="45.71922326876767" lon="11.301466642282573"><ele>271.0</ele><time>2026-05-02T16:12:22.546Z</time></trkpt><trkpt lat="45.71922919685979" lon="11.301652977209269"><ele>271.0</ele><time>2026-05-02T16:12:23.546Z</time></trkpt><trkpt lat="45.719213109255165" lon="11.301850645430314"><ele>271.0</ele><time>2026-05-02T16:12:24.546Z</time></trkpt><trkpt lat="45.71915507118157" lon="11.302043529047719"><ele>271.0</ele><time>2026-05-02T16:12:25.546Z</time></trkpt><trkpt lat="45.719080155725244" lon="11.302263787346218"><ele>270.66666666666663</ele><time>2026-05-02T16:12:26.546Z</time></trkpt><trkpt lat="45.719004102154045" lon="11.302510776640196"><ele>270.3333333333333</ele><time>2026-05-02T16:12:27.546Z</time></trkpt><trkpt lat="45.718942107977234" lon="11.302759133442175"><ele>270.0</ele><time>2026-05-02T16:12:28.546Z</time></trkpt><trkpt lat="45.71888364945038" lon="11.302996779915771"><ele>269.3333333333333</ele><time>2026-05-02T16:12:29.546Z</time></trkpt><trkpt lat="45.71882547357366" lon="11.303228537184898"><ele>268.66666666666663</ele><time>2026-05-02T16:12:30.546Z</time></trkpt><trkpt lat="45.71876961084454" lon="11.30345107939836"><ele>268.0</ele><time>2026-05-02T16:12:31.546Z</time></trkpt><trkpt lat="45.71871668716484" lon="11.303662781146892"><ele>268.0</ele><time>2026-05-02T16:12:32.546Z</time></trkpt><trkpt lat="45.71866415093766" lon="11.303870315582639"><ele>268.0</ele><time>2026-05-02T16:12:33.546Z</time></trkpt><trkpt lat="45.718614881918725" lon="11.304068015617089"><ele>268.0</ele><time>2026-05-02T16:12:34.546Z</time></trkpt><trkpt lat="45.71856682428431" lon="11.304260272378096"><ele>268.0</ele><time>2026-05-02T16:12:35.546Z</time></trkpt><trkpt lat="45.718519590919335" lon="11.304449231093063"><ele>264.75</ele><time>2026-05-02T16:12:36.546Z</time></trkpt><trkpt lat="45.71847617345528" lon="11.304623967269452"><ele>261.5</ele><time>2026-05-02T16:12:37.546Z</time></trkpt><trkpt lat="45.718433058154595" lon="11.304799383517164"><ele>258.25</ele><time>2026-05-02T16:12:38.546Z</time></trkpt><trkpt lat="45.718389798152145" lon="11.304972098892527"><ele>255.0</ele><time>2026-05-02T16:12:39.546Z</time></trkpt><trkpt lat="45.71834821860061" lon="11.305136394215578"><ele>255.0</ele><time>2026-05-02T16:12:40.546Z</time></trkpt><trkpt lat="45.71830359037954" lon="11.305306499407603"><ele>255.0</ele><time>2026-05-02T16:12:41.546Z</time></trkpt><trkpt lat="45.71825027626772" lon="11.30547923773606"><ele>255.0</ele><time>2026-05-02T16:12:42.546Z</time></trkpt><trkpt lat="45.718181476773466" lon="11.30565532892446"><ele>255.0</ele><time>2026-05-02T16:12:43.546Z</time></trkpt><trkpt lat="45.71809430449483" lon="11.305789267587743"><ele>254.66666666666669</ele><time>2026-05-02T16:12:44.546Z</time></trkpt><trkpt lat="45.71796094874387" lon="11.305933830088739"><ele>254.33333333333334</ele><time>2026-05-02T16:12:45.546Z</time></trkpt><trkpt lat="45.7178089134376" lon="11.306072135001822"><ele>254.0</ele><time>2026-05-02T16:12:46.546Z</time></trkpt><trkpt lat="45.71764781450208" lon="11.306212971218873"><ele>252.33333333333334</ele><time>2026-05-02T16:12:47.546Z</time></trkpt><trkpt lat="45.71750623027452" lon="11.306342815945193"><ele>250.66666666666669</ele><time>2026-05-02T16:12:48.546Z</time></trkpt><trkpt lat="45.71737654937681" lon="11.306512156651863"><ele>249.0</ele><time>2026-05-02T16:12:49.546Z</time></trkpt><trkpt lat="45.71727350951407" lon="11.30667932812089"><ele>248.33333333333331</ele><time>2026-05-02T16:12:50.546Z</time></trkpt><trkpt lat="45.71717996823085" lon="11.30685081399062"><ele>247.66666666666666</ele><time>2026-05-02T16:12:51.546Z</time></trkpt><trkpt lat="45.717089516078566" lon="11.30703058233542"><ele>247.0</ele><time>2026-05-02T16:12:52.546Z</time></trkpt><trkpt lat="45.716999234124785" lon="11.307249424977982"><ele>246.66666666666666</ele><time>2026-05-02T16:12:53.546Z</time></trkpt><trkpt lat="45.71689769794729" lon="11.307435733043397"><ele>246.33333333333331</ele><time>2026-05-02T16:12:54.546Z</time></trkpt><trkpt lat="45.71677849566179" lon="11.307622906230701"><ele>246.0</ele><time>2026-05-02T16:12:55.546Z</time></trkpt><trkpt lat="45.71666322162703" lon="11.307829139044756"><ele>246.0</ele><time>2026-05-02T16:12:56.546Z</time></trkpt><trkpt lat="45.71652402417743" lon="11.308018467626093"><ele>246.0</ele><time>2026-05-02T16:12:57.546Z</time></trkpt><trkpt lat="45.71637929732132" lon="11.308214715219115"><ele>246.0</ele><time>2026-05-02T16:12:58.546Z</time></trkpt><trkpt lat="45.716226241459495" lon="11.308404572288246"><ele>245.0</ele><time>2026-05-02T16:12:59.546Z</time></trkpt><trkpt lat="45.71606537208935" lon="11.308616724765892"><ele>244.0</ele><time>2026-05-02T16:13:00.546Z</time></trkpt><trkpt lat="45.715900903598" lon="11.308845644850438"><ele>243.0</ele><time>2026-05-02T16:13:01.546Z</time></trkpt><trkpt lat="45.715747260383544" lon="11.309039263833425"><ele>243.0</ele><time>2026-05-02T16:13:02.546Z</time></trkpt><trkpt lat="45.71558888025942" lon="11.309220296409888"><ele>243.0</ele><time>2026-05-02T16:13:03.546Z</time></trkpt><trkpt lat="45.71543576500896" lon="11.309382486868559"><ele>243.0</ele><time>2026-05-02T16:13:04.546Z</time></trkpt><trkpt lat="45.715288436111614" lon="11.30954614847703"><ele>242.66666666666669</ele><time>2026-05-02T16:13:05.546Z</time></trkpt><trkpt lat="45.715160522660824" lon="11.309712328046833"><ele>242.33333333333334</ele><time>2026-05-02T16:13:06.546Z</time></trkpt><trkpt lat="45.715033299986416" lon="11.309913528332478"><ele>242.0</ele><time>2026-05-02T16:13:07.546Z</time></trkpt><trkpt lat="45.714927784420865" lon="11.31012390689956"><ele>241.66666666666669</ele><time>2026-05-02T16:13:08.546Z</time></trkpt><trkpt lat="45.714830184294044" lon="11.310348278136855"><ele>241.33333333333331</ele><time>2026-05-02T16:13:09.546Z</time></trkpt><trkpt lat="45.71475700399515" lon="11.31058740640816"><ele>241.0</ele><time>2026-05-02T16:13:10.546Z</time></trkpt><trkpt lat="45.71470823350485" lon="11.3108202897386"><ele>240.5</ele><time>2026-05-02T16:13:11.546Z</time></trkpt><trkpt lat="45.71466595931394" lon="11.31104363737902"><ele>240.0</ele><time>2026-05-02T16:13:12.546Z</time></trkpt><trkpt lat="45.71462975705397" lon="11.311256558739476"><ele>239.5</ele><time>2026-05-02T16:13:13.546Z</time></trkpt><trkpt lat="45.71459830238831" lon="11.311423913999011"><ele>239.0</ele><time>2026-05-02T16:13:14.546Z</time></trkpt><trkpt lat="45.7145858265952" lon="11.311550922441228"><ele>238.6</ele><time>2026-05-02T16:13:15.546Z</time></trkpt><trkpt lat="45.714563921640874" lon="11.311651061357175"><ele>238.2</ele><time>2026-05-02T16:13:16.546Z</time></trkpt><trkpt lat="45.71452567996082" lon="11.311762403127364"><ele>237.79999999999998</ele><time>2026-05-02T16:13:18.546Z</time></trkpt><trkpt lat="45.71449846399086" lon="11.311938667577888"><ele>237.39999999999998</ele><time>2026-05-02T16:13:21.546Z</time></trkpt><trkpt lat="45.71447138958231" lon="11.312071592123656"><ele>237.0</ele><time>2026-05-02T16:13:22.546Z</time></trkpt><trkpt lat="45.7144330810094" lon="11.312186723528987"><ele>239.0</ele><time>2026-05-02T16:13:23.546Z</time></trkpt><trkpt lat="45.714390391592694" lon="11.312370149605622"><ele>241.0</ele><time>2026-05-02T16:13:24.546Z</time></trkpt><trkpt lat="45.714350473238085" lon="11.31254166931822"><ele>243.0</ele><time>2026-05-02T16:13:25.546Z</time></trkpt><trkpt lat="45.71431993958229" lon="11.312738732534571"><ele>245.0</ele><time>2026-05-02T16:13:26.546Z</time></trkpt><trkpt lat="45.71425793342322" lon="11.312973344574829"><ele>241.66666666666669</ele><time>2026-05-02T16:13:27.546Z</time></trkpt><trkpt lat="45.71420499086121" lon="11.313196281193655"><ele>238.33333333333331</ele><time>2026-05-02T16:13:28.546Z</time></trkpt><trkpt lat="45.714157625230364" lon="11.313414601273404"><ele>235.0</ele><time>2026-05-02T16:13:29.546Z</time></trkpt><trkpt lat="45.71409517014939" lon="11.313656376844103"><ele>235.0</ele><time>2026-05-02T16:13:30.546Z</time></trkpt><trkpt lat="45.71404091085412" lon="11.313886088218206"><ele>235.0</ele><time>2026-05-02T16:13:31.546Z</time></trkpt><trkpt lat="45.71397954478367" lon="11.314110663026048"><ele>235.0</ele><time>2026-05-02T16:13:32.546Z</time></trkpt><trkpt lat="45.71389667532089" lon="11.314339071322422"><ele>235.0</ele><time>2026-05-02T16:13:33.546Z</time></trkpt><trkpt lat="45.713810179210355" lon="11.314558569111645"><ele>235.0</ele><time>2026-05-02T16:13:34.546Z</time></trkpt><trkpt lat="45.7137307582936" lon="11.314784289631758"><ele>235.0</ele><time>2026-05-02T16:13:35.546Z</time></trkpt><trkpt lat="45.71365940796129" lon="11.31501104062947"><ele>235.0</ele><time>2026-05-02T16:13:36.546Z</time></trkpt><trkpt lat="45.71359891754073" lon="11.315254049468656"><ele>235.0</ele><time>2026-05-02T16:13:37.546Z</time></trkpt><trkpt lat="45.71354775671356" lon="11.31549476504454"><ele>235.0</ele><time>2026-05-02T16:13:38.546Z</time></trkpt><trkpt lat="45.713515795979426" lon="11.315751193173513"><ele>234.0</ele><time>2026-05-02T16:13:39.546Z</time></trkpt><trkpt lat="45.71350301086661" lon="11.316013693262695"><ele>233.0</ele><time>2026-05-02T16:13:40.546Z</time></trkpt><trkpt lat="45.713490473363684" lon="11.31627817913826"><ele>232.0</ele><time>2026-05-02T16:13:41.546Z</time></trkpt><trkpt lat="45.71349486257947" lon="11.316545723721548"><ele>232.0</ele><time>2026-05-02T16:13:42.546Z</time></trkpt><trkpt lat="45.71352128024596" lon="11.316820426419158"><ele>232.0</ele><time>2026-05-02T16:13:43.546Z</time></trkpt><trkpt lat="45.71356874448619" lon="11.317102903389348"><ele>232.0</ele><time>2026-05-02T16:13:44.546Z</time></trkpt><trkpt lat="45.71361860107776" lon="11.317365688894492"><ele>233.33333333333331</ele><time>2026-05-02T16:13:45.546Z</time></trkpt><trkpt lat="45.71367237190713" lon="11.317622862391078"><ele>234.66666666666669</ele><time>2026-05-02T16:13:46.546Z</time></trkpt><trkpt lat="45.713729636365706" lon="11.317887754805557"><ele>236.0</ele><time>2026-05-02T16:13:47.546Z</time></trkpt><trkpt lat="45.71377124045515" lon="11.318140893412046"><ele>236.0</ele><time>2026-05-02T16:13:48.546Z</time></trkpt><trkpt lat="45.7137962978503" lon="11.318391129322974"><ele>236.0</ele><time>2026-05-02T16:13:49.546Z</time></trkpt><trkpt lat="45.713801212082615" lon="11.318648756985379"><ele>236.0</ele><time>2026-05-02T16:13:50.546Z</time></trkpt><trkpt lat="45.71377961987077" lon="11.3189145398739"><ele>235.0</ele><time>2026-05-02T16:13:51.546Z</time></trkpt><trkpt lat="45.71374694914745" lon="11.319180920720022"><ele>234.0</ele><time>2026-05-02T16:13:52.546Z</time></trkpt><trkpt lat="45.71370089883231" lon="11.31945075167294"><ele>233.0</ele><time>2026-05-02T16:13:53.546Z</time></trkpt><trkpt lat="45.71365355651604" lon="11.3197125991582"><ele>231.33333333333334</ele><time>2026-05-02T16:13:54.546Z</time></trkpt><trkpt lat="45.71363173980616" lon="11.319996157286418"><ele>229.66666666666669</ele><time>2026-05-02T16:13:55.546Z</time></trkpt><trkpt lat="45.71361821531548" lon="11.32025911007166"><ele>228.0</ele><time>2026-05-02T16:13:56.547Z</time></trkpt><trkpt lat="45.71360333486788" lon="11.320538840063195"><ele>227.66666666666669</ele><time>2026-05-02T16:13:57.547Z</time></trkpt><trkpt lat="45.713598522886905" lon="11.320815069624954"><ele>227.33333333333334</ele><time>2026-05-02T16:13:58.547Z</time></trkpt><trkpt lat="45.71361568199489" lon="11.32109950541601"><ele>227.0</ele><time>2026-05-02T16:13:59.547Z</time></trkpt><trkpt lat="45.71364228991634" lon="11.321368854942746"><ele>227.0</ele><time>2026-05-02T16:14:00.547Z</time></trkpt><trkpt lat="45.71364816003057" lon="11.321646943894269"><ele>227.0</ele><time>2026-05-02T16:14:01.547Z</time></trkpt><trkpt lat="45.71367898545276" lon="11.32191964485138"><ele>227.0</ele><time>2026-05-02T16:14:02.547Z</time></trkpt><trkpt lat="45.71369869421919" lon="11.32220131906741"><ele>226.66666666666669</ele><time>2026-05-02T16:14:03.547Z</time></trkpt><trkpt lat="45.713707081402696" lon="11.322501679757266"><ele>226.33333333333331</ele><time>2026-05-02T16:14:04.547Z</time></trkpt><trkpt lat="45.71371478692622" lon="11.322798852140156"><ele>226.0</ele><time>2026-05-02T16:14:05.547Z</time></trkpt><trkpt lat="45.71372195962123" lon="11.323102064952273"><ele>226.0</ele><time>2026-05-02T16:14:06.547Z</time></trkpt><trkpt lat="45.71373227716936" lon="11.323377967684339"><ele>226.0</ele><time>2026-05-02T16:14:07.547Z</time></trkpt><trkpt lat="45.71373264647236" lon="11.323658414570634"><ele>226.0</ele><time>2026-05-02T16:14:08.547Z</time></trkpt><trkpt lat="45.71373984356724" lon="11.32393683428586"><ele>226.0</ele><time>2026-05-02T16:14:09.547Z</time></trkpt><trkpt lat="45.71372944853317" lon="11.324218059428938"><ele>226.0</ele><time>2026-05-02T16:14:10.547Z</time></trkpt><trkpt lat="45.71374151334339" lon="11.324492457549393"><ele>226.0</ele><time>2026-05-02T16:14:11.547Z</time></trkpt><trkpt lat="45.71374262260307" lon="11.324752755710753"><ele>225.66666666666666</ele><time>2026-05-02T16:14:12.547Z</time></trkpt><trkpt lat="45.7137483929763" lon="11.325010113853613"><ele>225.33333333333331</ele><time>2026-05-02T16:14:13.547Z</time></trkpt><trkpt lat="45.71375853358615" lon="11.325254212793135"><ele>225.0</ele><time>2026-05-02T16:14:14.547Z</time></trkpt><trkpt lat="45.71375806540616" lon="11.3254864020885"><ele>224.33333333333331</ele><time>2026-05-02T16:14:15.547Z</time></trkpt><trkpt lat="45.71377302397838" lon="11.3257143880555"><ele>223.66666666666666</ele><time>2026-05-02T16:14:16.547Z</time></trkpt><trkpt lat="45.71377234661842" lon="11.32595187473445"><ele>223.0</ele><time>2026-05-02T16:14:17.547Z</time></trkpt><trkpt lat="45.71376794477174" lon="11.326181349759336"><ele>222.5</ele><time>2026-05-02T16:14:18.547Z</time></trkpt><trkpt lat="45.71375943595916" lon="11.326399687499075"><ele>222.0</ele><time>2026-05-02T16:14:19.547Z</time></trkpt><trkpt lat="45.713747006035824" lon="11.326606143525982"><ele>221.5</ele><time>2026-05-02T16:14:20.547Z</time></trkpt><trkpt lat="45.71373156780911" lon="11.326813432502123"><ele>221.0</ele><time>2026-05-02T16:14:21.547Z</time></trkpt><trkpt lat="45.71371530229576" lon="11.327017349643778"><ele>221.0</ele><time>2026-05-02T16:14:22.547Z</time></trkpt><trkpt lat="45.71369948168997" lon="11.327197695328088"><ele>221.0</ele><time>2026-05-02T16:14:23.547Z</time></trkpt><trkpt lat="45.71367904412219" lon="11.327428905185952"><ele>221.0</ele><time>2026-05-02T16:14:24.547Z</time></trkpt><trkpt lat="45.71365667954571" lon="11.327684281826368"><ele>221.0</ele><time>2026-05-02T16:14:25.547Z</time></trkpt><trkpt lat="45.71363351340888" lon="11.327958541181461"><ele>221.0</ele><time>2026-05-02T16:14:26.547Z</time></trkpt><trkpt lat="45.71361091382942" lon="11.328248570916454"><ele>221.0</ele><time>2026-05-02T16:14:27.547Z</time></trkpt><trkpt lat="45.71359547731068" lon="11.328521266505632"><ele>221.0</ele><time>2026-05-02T16:14:28.547Z</time></trkpt><trkpt lat="45.713586622354036" lon="11.328786499449867"><ele>221.0</ele><time>2026-05-02T16:14:29.547Z</time></trkpt><trkpt lat="45.71358281373911" lon="11.32903986639542"><ele>221.0</ele><time>2026-05-02T16:14:30.547Z</time></trkpt><trkpt lat="45.713584279027664" lon="11.329271932141523"><ele>221.0</ele><time>2026-05-02T16:14:31.547Z</time></trkpt><trkpt lat="45.71358993649553" lon="11.329508716061069"><ele>221.0</ele><time>2026-05-02T16:14:32.547Z</time></trkpt><trkpt lat="45.71359536733282" lon="11.329738689150938"><ele>221.0</ele><time>2026-05-02T16:14:33.547Z</time></trkpt><trkpt lat="45.71360073887914" lon="11.329966627428357"><ele>221.0</ele><time>2026-05-02T16:14:34.547Z</time></trkpt><trkpt lat="45.713605176702394" lon="11.330182876688708"><ele>221.0</ele><time>2026-05-02T16:14:35.547Z</time></trkpt><trkpt lat="45.71360555564409" lon="11.33037099370921"><ele>221.0</ele><time>2026-05-02T16:14:36.547Z</time></trkpt><trkpt lat="45.71359758608642" lon="11.330595195189378"><ele>221.0</ele><time>2026-05-02T16:14:37.547Z</time></trkpt><trkpt lat="45.713577895138364" lon="11.330830834258832"><ele>219.33333333333334</ele><time>2026-05-02T16:14:38.547Z</time></trkpt><trkpt lat="45.713552661396534" lon="11.331085942253779"><ele>217.66666666666669</ele><time>2026-05-02T16:14:39.547Z</time></trkpt><trkpt lat="45.71352486929654" lon="11.331385564372232"><ele>216.0</ele><time>2026-05-02T16:14:40.547Z</time></trkpt><trkpt lat="45.71349699599885" lon="11.331651652570073"><ele>216.0</ele><time>2026-05-02T16:14:41.547Z</time></trkpt><trkpt lat="45.71345816139054" lon="11.331874220581298"><ele>216.0</ele><time>2026-05-02T16:14:42.547Z</time></trkpt><trkpt lat="45.71344790085517" lon="11.332094481979487"><ele>216.0</ele><time>2026-05-02T16:14:43.547Z</time></trkpt><trkpt lat="45.7134177794904" lon="11.332302562717915"><ele>215.75</ele><time>2026-05-02T16:14:44.547Z</time></trkpt><trkpt lat="45.713426337498575" lon="11.33250020580144"><ele>215.5</ele><time>2026-05-02T16:14:45.547Z</time></trkpt><trkpt lat="45.71342797837227" lon="11.332687780347234"><ele>215.25</ele><time>2026-05-02T16:14:46.547Z</time></trkpt><trkpt lat="45.713433379378365" lon="11.332870599542044"><ele>215.0</ele><time>2026-05-02T16:14:47.547Z</time></trkpt><trkpt lat="45.71343819869122" lon="11.333026299659444"><ele>215.0</ele><time>2026-05-02T16:14:48.547Z</time></trkpt><trkpt lat="45.713475437560405" lon="11.333173062143851"><ele>215.0</ele><time>2026-05-02T16:14:49.547Z</time></trkpt><trkpt lat="45.713541126450245" lon="11.333270465817808"><ele>215.0</ele><time>2026-05-02T16:14:50.547Z</time></trkpt><trkpt lat="45.71362308128309" lon="11.333337192736659"><ele>215.0</ele><time>2026-05-02T16:14:51.547Z</time></trkpt><trkpt lat="45.71372807486925" lon="11.33334176234671"><ele>215.0</ele><time>2026-05-02T16:14:52.547Z</time></trkpt><trkpt lat="45.71383176894617" lon="11.333261616904773"><ele>215.0</ele><time>2026-05-02T16:14:53.547Z</time></trkpt><trkpt lat="45.71392808596485" lon="11.333155933879201"><ele>215.0</ele><time>2026-05-02T16:14:54.547Z</time></trkpt><trkpt lat="45.714034754179" lon="11.33308615262207"><ele>215.0</ele><time>2026-05-02T16:14:55.547Z</time></trkpt><trkpt lat="45.71416851987063" lon="11.333060454330056"><ele>215.0</ele><time>2026-05-02T16:14:56.547Z</time></trkpt><trkpt lat="45.714311261040415" lon="11.333063972006407"><ele>215.75</ele><time>2026-05-02T16:14:57.547Z</time></trkpt><trkpt lat="45.714433589032865" lon="11.333082780880058"><ele>216.5</ele><time>2026-05-02T16:14:58.547Z</time></trkpt><trkpt lat="45.71454868602188" lon="11.333097790759059"><ele>217.25</ele><time>2026-05-02T16:14:59.547Z</time></trkpt><trkpt lat="45.71465549611891" lon="11.333125848419629"><ele>218.0</ele><time>2026-05-02T16:15:00.547Z</time></trkpt><trkpt lat="45.71476504158974" lon="11.33316247559763"><ele>218.0</ele><time>2026-05-02T16:15:01.547Z</time></trkpt><trkpt lat="45.71485644686857" lon="11.33323458908519"><ele>218.0</ele><time>2026-05-02T16:15:02.547Z</time></trkpt><trkpt lat="45.71493073391669" lon="11.333330213278865"><ele>218.0</ele><time>2026-05-02T16:15:03.547Z</time></trkpt><trkpt lat="45.71499597520833" lon="11.333432505516118"><ele>218.0</ele><time>2026-05-02T16:15:04.547Z</time></trkpt><trkpt lat="45.715047917285396" lon="11.333542618612999"><ele>218.0</ele><time>2026-05-02T16:15:05.547Z</time></trkpt><trkpt lat="45.71506831853384" lon="11.33367270439133"><ele>218.00000000000003</ele><time>2026-05-02T16:15:06.547Z</time></trkpt><trkpt lat="45.71508964354311" lon="11.333814693395597"><ele>218.0</ele><time>2026-05-02T16:15:07.547Z</time></trkpt><trkpt lat="45.7151023477798" lon="11.333943509067844"><ele>218.0</ele><time>2026-05-02T16:15:08.547Z</time></trkpt><trkpt lat="45.715111124013795" lon="11.33406550954164"><ele>218.0</ele><time>2026-05-02T16:15:09.547Z</time></trkpt><trkpt lat="45.71512685529657" lon="11.334180146768327"><ele>218.00000000000003</ele><time>2026-05-02T16:15:10.547Z</time></trkpt><trkpt lat="45.7151401545919" lon="11.334290589329047"><ele>218.0</ele><time>2026-05-02T16:15:11.547Z</time></trkpt><trkpt lat="45.715147907992886" lon="11.334399677895917"><ele>218.16666666666669</ele><time>2026-05-02T16:15:12.547Z</time></trkpt><trkpt lat="45.71515349165399" lon="11.334500459083586"><ele>218.33333333333334</ele><time>2026-05-02T16:15:13.547Z</time></trkpt><trkpt lat="45.71516090363339" lon="11.334591791974132"><ele>218.5</ele><time>2026-05-02T16:15:14.547Z</time></trkpt><trkpt lat="45.715158144000995" lon="11.334759981535898"><ele>218.66666666666669</ele><time>2026-05-02T16:15:16.547Z</time></trkpt><trkpt lat="45.71517854539268" lon="11.334893611985978"><ele>218.83333333333334</ele><time>2026-05-02T16:15:18.547Z</time></trkpt><trkpt lat="45.7151712032965" lon="11.335009082406259"><ele>219.0</ele><time>2026-05-02T16:15:20.547Z</time></trkpt><trkpt lat="45.71517577389385" lon="11.33514058772232"><ele>219.33333333333334</ele><time>2026-05-02T16:15:22.547Z</time></trkpt><trkpt lat="45.71517302522117" lon="11.335246204801788"><ele>219.66666666666669</ele><time>2026-05-02T16:15:23.547Z</time></trkpt><trkpt lat="45.715185892930535" lon="11.335378802514716"><ele>220.0</ele><time>2026-05-02T16:15:24.547Z</time></trkpt><trkpt lat="45.715199507767736" lon="11.335522363515352"><ele>220.33333333333334</ele><time>2026-05-02T16:15:25.547Z</time></trkpt><trkpt lat="45.71520463299138" lon="11.335656558905738"><ele>220.66666666666669</ele><time>2026-05-02T16:15:26.547Z</time></trkpt><trkpt lat="45.71520790663187" lon="11.335766322244599"><ele>221.0</ele><time>2026-05-02T16:15:27.547Z</time></trkpt><trkpt lat="45.71521669664822" lon="11.33587120295714"><ele>221.0</ele><time>2026-05-02T16:15:28.547Z</time></trkpt><trkpt lat="45.71521827390024" lon="11.33597684739407"><ele>221.00000000000003</ele><time>2026-05-02T16:15:29.547Z</time></trkpt><trkpt lat="45.7152217174736" lon="11.336072479073803"><ele>221.00000000000003</ele><time>2026-05-02T16:15:30.547Z</time></trkpt><trkpt lat="45.71523561727638" lon="11.33627812776179"><ele>221.0</ele><time>2026-05-02T16:15:32.547Z</time></trkpt><trkpt lat="45.71524877898101" lon="11.33642845728379"><ele>221.0</ele><time>2026-05-02T16:15:33.547Z</time></trkpt><trkpt lat="45.71526190404499" lon="11.336616980720407"><ele>221.25</ele><time>2026-05-02T16:15:34.547Z</time></trkpt><trkpt lat="45.71527649830745" lon="11.336820204795703"><ele>221.5</ele><time>2026-05-02T16:15:35.547Z</time></trkpt><trkpt lat="45.71528492252376" lon="11.337009575065212"><ele>221.75</ele><time>2026-05-02T16:15:36.547Z</time></trkpt><trkpt lat="45.715305105843576" lon="11.337217952951862"><ele>222.0</ele><time>2026-05-02T16:15:37.547Z</time></trkpt><trkpt lat="45.715321881113766" lon="11.337429275640904"><ele>221.5</ele><time>2026-05-02T16:15:38.547Z</time></trkpt><trkpt lat="45.715334522608615" lon="11.337622136504592"><ele>221.0</ele><time>2026-05-02T16:15:39.547Z</time></trkpt><trkpt lat="45.71534543151341" lon="11.33779977562193"><ele>220.5</ele><time>2026-05-02T16:15:40.547Z</time></trkpt><trkpt lat="45.715353880256906" lon="11.337969783035732"><ele>220.0</ele><time>2026-05-02T16:15:41.547Z</time></trkpt><trkpt lat="45.71536939157102" lon="11.338158187034654"><ele>219.75</ele><time>2026-05-02T16:15:42.547Z</time></trkpt><trkpt lat="45.71537473767268" lon="11.338327888993922"><ele>219.5</ele><time>2026-05-02T16:15:43.547Z</time></trkpt><trkpt lat="45.71538303101855" lon="11.338491827128673"><ele>219.25</ele><time>2026-05-02T16:15:44.547Z</time></trkpt><trkpt lat="45.71539476015059" lon="11.33865335274354"><ele>219.0</ele><time>2026-05-02T16:15:45.547Z</time></trkpt><trkpt lat="45.71539912971222" lon="11.338820206149714"><ele>218.39999999999998</ele><time>2026-05-02T16:15:46.547Z</time></trkpt><trkpt lat="45.71541623586012" lon="11.33896519779985"><ele>217.79999999999998</ele><time>2026-05-02T16:15:47.547Z</time></trkpt><trkpt lat="45.71543252818447" lon="11.339108600403978"><ele>217.20000000000002</ele><time>2026-05-02T16:15:48.547Z</time></trkpt><trkpt lat="45.71544832233394" lon="11.339246833241827"><ele>216.60000000000002</ele><time>2026-05-02T16:15:49.547Z</time></trkpt><trkpt lat="45.715457542882596" lon="11.339378672555643"><ele>216.0</ele><time>2026-05-02T16:15:50.547Z</time></trkpt><trkpt lat="45.71546491185187" lon="11.339515516832266"><ele>216.0</ele><time>2026-05-02T16:15:51.547Z</time></trkpt><trkpt lat="45.71547582483659" lon="11.339645527615678"><ele>216.00000000000003</ele><time>2026-05-02T16:15:52.547Z</time></trkpt><trkpt lat="45.71548464888001" lon="11.339776064843146"><ele>216.00000000000003</ele><time>2026-05-02T16:15:53.547Z</time></trkpt><trkpt lat="45.715500347903436" lon="11.339902853665562"><ele>216.0</ele><time>2026-05-02T16:15:54.547Z</time></trkpt><trkpt lat="45.71551373106906" lon="11.340063443817797"><ele>216.0</ele><time>2026-05-02T16:15:55.547Z</time></trkpt><trkpt lat="45.715527830273686" lon="11.340227932900293"><ele>215.60000000000002</ele><time>2026-05-02T16:15:56.547Z</time></trkpt><trkpt lat="45.71553423466801" lon="11.340379083491142"><ele>215.20000000000002</ele><time>2026-05-02T16:15:57.547Z</time></trkpt><trkpt lat="45.71553247506523" lon="11.340530254802525"><ele>214.79999999999998</ele><time>2026-05-02T16:15:58.547Z</time></trkpt><trkpt lat="45.71554113788277" lon="11.340651062931142"><ele>214.39999999999998</ele><time>2026-05-02T16:15:59.547Z</time></trkpt><trkpt lat="45.71554615699312" lon="11.340743759975695"><ele>214.0</ele><time>2026-05-02T16:16:00.547Z</time></trkpt><trkpt lat="45.71554483264586" lon="11.34089143471151"><ele>214.0</ele><time>2026-05-02T16:16:02.547Z</time></trkpt><trkpt lat="45.71559055166558" lon="11.341080116607545"><ele>213.99999999999997</ele><time>2026-05-02T16:16:04.547Z</time></trkpt><trkpt lat="45.715602513387225" lon="11.34122871134649"><ele>213.99999999999997</ele><time>2026-05-02T16:16:05.547Z</time></trkpt><trkpt lat="45.71561077705485" lon="11.3413652477236"><ele>214.0</ele><time>2026-05-02T16:16:06.547Z</time></trkpt><trkpt lat="45.71560592169919" lon="11.341491719177936"><ele>214.0</ele><time>2026-05-02T16:16:07.547Z</time></trkpt><trkpt lat="45.715608817900076" lon="11.341616168278147"><ele>213.49999999999997</ele><time>2026-05-02T16:16:08.547Z</time></trkpt><trkpt lat="45.715601832862156" lon="11.341771260979437"><ele>213.0</ele><time>2026-05-02T16:16:09.547Z</time></trkpt><trkpt lat="45.71559387098424" lon="11.34187591301698"><ele>212.5</ele><time>2026-05-02T16:16:10.547Z</time></trkpt><trkpt lat="45.71558305983723" lon="11.341984039075589"><ele>212.0</ele><time>2026-05-02T16:16:11.547Z</time></trkpt><trkpt lat="45.71557246733769" lon="11.342106646700113"><ele>211.49999999999997</ele><time>2026-05-02T16:16:12.547Z</time></trkpt><trkpt lat="45.715554542218456" lon="11.34223044727634"><ele>211.0</ele><time>2026-05-02T16:16:13.547Z</time></trkpt><trkpt lat="45.71552904441847" lon="11.342372677184194"><ele>211.0</ele><time>2026-05-02T16:16:14.547Z</time></trkpt><trkpt lat="45.71550080326502" lon="11.342529792297354"><ele>211.0</ele><time>2026-05-02T16:16:15.547Z</time></trkpt><trkpt lat="45.71546385815249" lon="11.342683929018097"><ele>211.0</ele><time>2026-05-02T16:16:16.547Z</time></trkpt><trkpt lat="45.71543126892926" lon="11.342812446805215"><ele>211.0</ele><time>2026-05-02T16:16:17.547Z</time></trkpt><trkpt lat="45.715388105452554" lon="11.34294797452693"><ele>211.0</ele><time>2026-05-02T16:16:18.547Z</time></trkpt><trkpt lat="45.71534342571645" lon="11.343086018378994"><ele>211.0</ele><time>2026-05-02T16:16:19.547Z</time></trkpt><trkpt lat="45.7153024408888" lon="11.343229319759246"><ele>211.0</ele><time>2026-05-02T16:16:20.547Z</time></trkpt><trkpt lat="45.715258603479064" lon="11.34338110551458"><ele>211.0</ele><time>2026-05-02T16:16:21.547Z</time></trkpt><trkpt lat="45.715215130048534" lon="11.343526002266264"><ele>211.0</ele><time>2026-05-02T16:16:22.547Z</time></trkpt><trkpt lat="45.71516919962529" lon="11.343666197682348"><ele>211.0</ele><time>2026-05-02T16:16:23.547Z</time></trkpt><trkpt lat="45.7151087002646" lon="11.34380642260357"><ele>210.5</ele><time>2026-05-02T16:16:24.547Z</time></trkpt><trkpt lat="45.71505942061137" lon="11.343957124545238"><ele>210.0</ele><time>2026-05-02T16:16:25.547Z</time></trkpt><trkpt lat="45.71502268271459" lon="11.344114693578273"><ele>209.5</ele><time>2026-05-02T16:16:26.547Z</time></trkpt><trkpt lat="45.71497176535305" lon="11.344271383646786"><ele>209.0</ele><time>2026-05-02T16:16:27.547Z</time></trkpt><trkpt lat="45.71491599799211" lon="11.344429438028572"><ele>209.0</ele><time>2026-05-02T16:16:28.547Z</time></trkpt><trkpt lat="45.71486565605231" lon="11.34458027851849"><ele>209.0</ele><time>2026-05-02T16:16:29.547Z</time></trkpt><trkpt lat="45.71481102321746" lon="11.3447283465718"><ele>209.0</ele><time>2026-05-02T16:16:30.547Z</time></trkpt><trkpt lat="45.71476805703852" lon="11.3448756560892"><ele>209.0</ele><time>2026-05-02T16:16:31.547Z</time></trkpt><trkpt lat="45.71471940644027" lon="11.345014415108603"><ele>208.5</ele><time>2026-05-02T16:16:32.547Z</time></trkpt><trkpt lat="45.71466391051111" lon="11.345171468045454"><ele>208.0</ele><time>2026-05-02T16:16:33.547Z</time></trkpt><trkpt lat="45.714609341273864" lon="11.345333417069511"><ele>207.5</ele><time>2026-05-02T16:16:34.547Z</time></trkpt><trkpt lat="45.71455745878517" lon="11.345509889134812"><ele>207.0</ele><time>2026-05-02T16:16:35.547Z</time></trkpt><trkpt lat="45.71450076547155" lon="11.345690449926284"><ele>207.0</ele><time>2026-05-02T16:16:36.547Z</time></trkpt><trkpt lat="45.71445081069105" lon="11.345848711528417"><ele>207.0</ele><time>2026-05-02T16:16:37.547Z</time></trkpt><trkpt lat="45.71439840433404" lon="11.34600427161813"><ele>207.0</ele><time>2026-05-02T16:16:38.547Z</time></trkpt><trkpt lat="45.71435113693709" lon="11.346164164680527"><ele>207.0</ele><time>2026-05-02T16:16:39.547Z</time></trkpt><trkpt lat="45.71430095844285" lon="11.346301558162049"><ele>207.0</ele><time>2026-05-02T16:16:40.547Z</time></trkpt><trkpt lat="45.71425557897024" lon="11.346458015002668"><ele>207.0</ele><time>2026-05-02T16:16:41.547Z</time></trkpt><trkpt lat="45.71419615606849" lon="11.346626201967673"><ele>207.0</ele><time>2026-05-02T16:16:42.547Z</time></trkpt><trkpt lat="45.714137478983574" lon="11.346815724930446"><ele>207.0</ele><time>2026-05-02T16:16:43.547Z</time></trkpt><trkpt lat="45.7140538563706" lon="11.347010240567661"><ele>206.66666666666669</ele><time>2026-05-02T16:16:44.547Z</time></trkpt><trkpt lat="45.713978263353006" lon="11.347245076475582"><ele>206.33333333333334</ele><time>2026-05-02T16:16:45.547Z</time></trkpt><trkpt lat="45.71389998589189" lon="11.347485479839603"><ele>206.0</ele><time>2026-05-02T16:16:46.547Z</time></trkpt><trkpt lat="45.71382102976509" lon="11.347727777959477"><ele>206.0</ele><time>2026-05-02T16:16:47.547Z</time></trkpt><trkpt lat="45.7137472321889" lon="11.347946708458958"><ele>206.0</ele><time>2026-05-02T16:16:48.547Z</time></trkpt><trkpt lat="45.71367564475148" lon="11.34816075004273"><ele>206.0</ele><time>2026-05-02T16:16:49.547Z</time></trkpt><trkpt lat="45.71361925772315" lon="11.348369220645088"><ele>205.66666666666669</ele><time>2026-05-02T16:16:50.547Z</time></trkpt><trkpt lat="45.71354139418038" lon="11.348563204203048"><ele>205.33333333333331</ele><time>2026-05-02T16:16:51.547Z</time></trkpt><trkpt lat="45.71347391006756" lon="11.348765506915615"><ele>205.0</ele><time>2026-05-02T16:16:52.547Z</time></trkpt><trkpt lat="45.713424779339036" lon="11.348966941342985"><ele>204.75</ele><time>2026-05-02T16:16:53.547Z</time></trkpt><trkpt lat="45.71334833662567" lon="11.349140752644889"><ele>204.5</ele><time>2026-05-02T16:16:54.547Z</time></trkpt><trkpt lat="45.71328619578706" lon="11.349326943697795"><ele>204.25</ele><time>2026-05-02T16:16:55.547Z</time></trkpt><trkpt lat="45.71322600683419" lon="11.349507286455292"><ele>204.0</ele><time>2026-05-02T16:16:56.547Z</time></trkpt><trkpt lat="45.71316516617852" lon="11.349689346639412"><ele>203.75</ele><time>2026-05-02T16:16:57.547Z</time></trkpt><trkpt lat="45.71310613657209" lon="11.349868190116462"><ele>203.5</ele><time>2026-05-02T16:16:58.547Z</time></trkpt><trkpt lat="45.713050965165074" lon="11.35003670558569"><ele>203.25</ele><time>2026-05-02T16:16:59.547Z</time></trkpt><trkpt lat="45.7130008905884" lon="11.350189653164263"><ele>203.0</ele><time>2026-05-02T16:17:00.547Z</time></trkpt><trkpt lat="45.71294886631905" lon="11.35034855599087"><ele>203.0</ele><time>2026-05-02T16:17:01.547Z</time></trkpt><trkpt lat="45.712896915146445" lon="11.350507235582587"><ele>203.0</ele><time>2026-05-02T16:17:02.547Z</time></trkpt><trkpt lat="45.71284467696604" lon="11.350666791779542"><ele>203.0</ele><time>2026-05-02T16:17:03.547Z</time></trkpt><trkpt lat="45.71279437904174" lon="11.350820421412164"><ele>203.0</ele><time>2026-05-02T16:17:04.547Z</time></trkpt><trkpt lat="45.71274301632161" lon="11.350977033560342"><ele>203.0</ele><time>2026-05-02T16:17:05.547Z</time></trkpt><trkpt lat="45.71269332625679" lon="11.351128558986334"><ele>203.0</ele><time>2026-05-02T16:17:06.547Z</time></trkpt><trkpt lat="45.712645968144706" lon="11.351272973475078"><ele>203.0</ele><time>2026-05-02T16:17:07.547Z</time></trkpt><trkpt lat="45.71259549870524" lon="11.351426875468157"><ele>203.0</ele><time>2026-05-02T16:17:08.547Z</time></trkpt><trkpt lat="45.712544077620315" lon="11.35158367954024"><ele>202.5</ele><time>2026-05-02T16:17:09.547Z</time></trkpt><trkpt lat="45.71250164805491" lon="11.351752525162809"><ele>202.0</ele><time>2026-05-02T16:17:10.547Z</time></trkpt><trkpt lat="45.712448026474476" lon="11.35190967013902"><ele>201.5</ele><time>2026-05-02T16:17:11.547Z</time></trkpt><trkpt lat="45.71239560496153" lon="11.352072829190858"><ele>201.0</ele><time>2026-05-02T16:17:12.547Z</time></trkpt><trkpt lat="45.71234265447279" lon="11.35222929650902"><ele>200.60000000000002</ele><time>2026-05-02T16:17:13.547Z</time></trkpt><trkpt lat="45.71229594833842" lon="11.352384346955434"><ele>200.2</ele><time>2026-05-02T16:17:14.547Z</time></trkpt><trkpt lat="45.71224726590072" lon="11.352521631146844"><ele>199.8</ele><time>2026-05-02T16:17:15.547Z</time></trkpt><trkpt lat="45.712208229108384" lon="11.352638637246752"><ele>199.39999999999998</ele><time>2026-05-02T16:17:16.547Z</time></trkpt><trkpt lat="45.712166903355055" lon="11.352749880900946"><ele>199.0</ele><time>2026-05-02T16:17:17.547Z</time></trkpt><trkpt lat="45.71212869981854" lon="11.352866447498762"><ele>198.99999999999997</ele><time>2026-05-02T16:17:18.547Z</time></trkpt><trkpt lat="45.71209284775273" lon="11.352962034836175"><ele>199.0</ele><time>2026-05-02T16:17:19.547Z</time></trkpt><trkpt lat="45.71205681139133" lon="11.353060321803852"><ele>199.0</ele><time>2026-05-02T16:17:20.547Z</time></trkpt><trkpt lat="45.712031304636874" lon="11.353143474582748"><ele>199.0</ele><time>2026-05-02T16:17:21.547Z</time></trkpt><trkpt lat="45.71196022774128" lon="11.353290171835813"><ele>198.99999999999997</ele><time>2026-05-02T16:17:23.547Z</time></trkpt><trkpt lat="45.71189803466545" lon="11.35341059497841"><ele>199.0</ele><time>2026-05-02T16:17:25.547Z</time></trkpt><trkpt lat="45.71186896575152" lon="11.353502462554063"><ele>199.0</ele><time>2026-05-02T16:17:29.547Z</time></trkpt><trkpt lat="45.71176745065381" lon="11.353528992125629"><ele>199.0</ele><time>2026-05-02T16:17:30.547Z</time></trkpt><trkpt lat="45.711824655816784" lon="11.353696452297989"><ele>199.0</ele><time>2026-05-02T16:17:31.547Z</time></trkpt><trkpt lat="45.71177367245112" lon="11.35386747915575"><ele>199.0</ele><time>2026-05-02T16:17:33.547Z</time></trkpt><trkpt lat="45.71174261348446" lon="11.353967896239466"><ele>199.0</ele><time>2026-05-02T16:17:34.547Z</time></trkpt><trkpt lat="45.71170284764949" lon="11.354094729791909"><ele>199.0</ele><time>2026-05-02T16:17:35.547Z</time></trkpt><trkpt lat="45.71166653386003" lon="11.354198476716629"><ele>199.0</ele><time>2026-05-02T16:17:36.547Z</time></trkpt><trkpt lat="45.711618072465285" lon="11.354339215197529"><ele>199.0</ele><time>2026-05-02T16:17:37.547Z</time></trkpt><trkpt lat="45.71157666146532" lon="11.354476866280358"><ele>199.0</ele><time>2026-05-02T16:17:38.547Z</time></trkpt><trkpt lat="45.7115264606266" lon="11.35461255354741"><ele>199.0</ele><time>2026-05-02T16:17:39.547Z</time></trkpt><trkpt lat="45.71147660170254" lon="11.35473004494178"><ele>199.2</ele><time>2026-05-02T16:17:40.547Z</time></trkpt><trkpt lat="45.71144675655017" lon="11.354841564201136"><ele>199.39999999999998</ele><time>2026-05-02T16:17:41.547Z</time></trkpt><trkpt lat="45.71143545766678" lon="11.354938706449742"><ele>199.6</ele><time>2026-05-02T16:17:42.547Z</time></trkpt><trkpt lat="45.71138168030632" lon="11.355049774749979"><ele>199.8</ele><time>2026-05-02T16:17:43.547Z</time></trkpt><trkpt lat="45.71133645748554" lon="11.355179693389713"><ele>200.0</ele><time>2026-05-02T16:17:44.547Z</time></trkpt><trkpt lat="45.711272688921774" lon="11.355303432923979"><ele>200.0</ele><time>2026-05-02T16:17:45.547Z</time></trkpt><trkpt lat="45.71119402767192" lon="11.355381396697405"><ele>200.0</ele><time>2026-05-02T16:17:46.547Z</time></trkpt><trkpt lat="45.71113017055736" lon="11.355427500631745"><ele>200.0</ele><time>2026-05-02T16:17:47.547Z</time></trkpt><trkpt lat="45.71104056040503" lon="11.355458421433495"><ele>200.0</ele><time>2026-05-02T16:17:48.547Z</time></trkpt><trkpt lat="45.710924797786774" lon="11.355451295560467"><ele>200.0</ele><time>2026-05-02T16:17:49.547Z</time></trkpt><trkpt lat="45.71077880414898" lon="11.355269951171877"><ele>199.50000000000003</ele><time>2026-05-02T16:17:50.547Z</time></trkpt><trkpt lat="45.71067055927647" lon="11.355238288655134"><ele>199.0</ele><time>2026-05-02T16:17:51.547Z</time></trkpt><trkpt lat="45.71058060987105" lon="11.355220954543505"><ele>198.5</ele><time>2026-05-02T16:17:52.547Z</time></trkpt><trkpt lat="45.710497419880795" lon="11.355138666440864"><ele>198.0</ele><time>2026-05-02T16:17:53.547Z</time></trkpt><trkpt lat="45.71042291923033" lon="11.355093077318571"><ele>197.50000000000003</ele><time>2026-05-02T16:17:54.547Z</time></trkpt><trkpt lat="45.71037678892587" lon="11.355029274862078"><ele>197.0</ele><time>2026-05-02T16:17:55.547Z</time></trkpt><trkpt lat="45.71036043795646" lon="11.354889527152773"><ele>197.6</ele><time>2026-05-02T16:17:57.547Z</time></trkpt><trkpt lat="45.710235847752145" lon="11.354835310102223"><ele>198.2</ele><time>2026-05-02T16:18:12.547Z</time></trkpt><trkpt lat="45.71015671993586" lon="11.354819557600035"><ele>198.8</ele><time>2026-05-02T16:18:14.547Z</time></trkpt><trkpt lat="45.71009332137248" lon="11.354853679419152"><ele>199.4</ele><time>2026-05-02T16:18:15.547Z</time></trkpt><trkpt lat="45.7100461677761" lon="11.354942921550823"><ele>200.0</ele><time>2026-05-02T16:18:16.547Z</time></trkpt><trkpt lat="45.70999779092034" lon="11.35509137699576"><ele>200.0</ele><time>2026-05-02T16:18:17.547Z</time></trkpt><trkpt lat="45.70995052288635" lon="11.355233156130634"><ele>200.0</ele><time>2026-05-02T16:18:18.547Z</time></trkpt><trkpt lat="45.70991380587979" lon="11.355414050732046"><ele>200.0</ele><time>2026-05-02T16:18:19.547Z</time></trkpt><trkpt lat="45.70985800437307" lon="11.355583165516471"><ele>200.0</ele><time>2026-05-02T16:18:20.547Z</time></trkpt><trkpt lat="45.70980560553652" lon="11.355740779556607"><ele>199.75</ele><time>2026-05-02T16:18:21.547Z</time></trkpt><trkpt lat="45.709760944311164" lon="11.355905773193328"><ele>199.5</ele><time>2026-05-02T16:18:22.547Z</time></trkpt><trkpt lat="45.70971210951733" lon="11.356048713852644"><ele>199.25</ele><time>2026-05-02T16:18:23.547Z</time></trkpt><trkpt lat="45.70968008627897" lon="11.35620806785592"><ele>199.0</ele><time>2026-05-02T16:18:24.547Z</time></trkpt><trkpt lat="45.709632325267386" lon="11.356358655890357"><ele>198.6</ele><time>2026-05-02T16:18:25.547Z</time></trkpt><trkpt lat="45.70957406089868" lon="11.356495877278121"><ele>198.2</ele><time>2026-05-02T16:18:26.547Z</time></trkpt><trkpt lat="45.709536803164426" lon="11.356660046954783"><ele>197.79999999999998</ele><time>2026-05-02T16:18:27.547Z</time></trkpt><trkpt lat="45.7094950767338" lon="11.356800579539817"><ele>197.39999999999998</ele><time>2026-05-02T16:18:28.547Z</time></trkpt><trkpt lat="45.709454330286654" lon="11.356938518448558"><ele>197.0</ele><time>2026-05-02T16:18:29.547Z</time></trkpt><trkpt lat="45.70940525301923" lon="11.357107514058084"><ele>195.75</ele><time>2026-05-02T16:18:30.547Z</time></trkpt><trkpt lat="45.70935696886941" lon="11.357280903299841"><ele>194.5</ele><time>2026-05-02T16:18:31.547Z</time></trkpt><trkpt lat="45.709310763941104" lon="11.357438311385064"><ele>193.25</ele><time>2026-05-02T16:18:32.547Z</time></trkpt><trkpt lat="45.70926038112864" lon="11.35758824466765"><ele>192.0</ele><time>2026-05-02T16:18:33.547Z</time></trkpt><trkpt lat="45.709212273132955" lon="11.357738425478146"><ele>192.0</ele><time>2026-05-02T16:18:34.547Z</time></trkpt><trkpt lat="45.7091907325557" lon="11.357925951930923"><ele>192.0</ele><time>2026-05-02T16:18:35.547Z</time></trkpt><trkpt lat="45.7091560905229" lon="11.358119446190834"><ele>192.0</ele><time>2026-05-02T16:18:36.547Z</time></trkpt><trkpt lat="45.709105288860385" lon="11.358294053928299"><ele>192.0</ele><time>2026-05-02T16:18:37.547Z</time></trkpt><trkpt lat="45.70906467660842" lon="11.358471066501627"><ele>191.75</ele><time>2026-05-02T16:18:38.547Z</time></trkpt><trkpt lat="45.70902398526153" lon="11.3586373869533"><ele>191.5</ele><time>2026-05-02T16:18:39.547Z</time></trkpt><trkpt lat="45.70898679218941" lon="11.358813684502888"><ele>191.25</ele><time>2026-05-02T16:18:40.547Z</time></trkpt><trkpt lat="45.70893957165363" lon="11.358969236969532"><ele>191.0</ele><time>2026-05-02T16:18:41.547Z</time></trkpt><trkpt lat="45.7089078706797" lon="11.359144451085655"><ele>191.0</ele><time>2026-05-02T16:18:42.547Z</time></trkpt><trkpt lat="45.70886204684005" lon="11.359311743137939"><ele>191.0</ele><time>2026-05-02T16:18:43.547Z</time></trkpt><trkpt lat="45.70883483628434" lon="11.35948666520301"><ele>191.0</ele><time>2026-05-02T16:18:44.547Z</time></trkpt><trkpt lat="45.70880063326406" lon="11.359665712438458"><ele>191.0</ele><time>2026-05-02T16:18:45.547Z</time></trkpt><trkpt lat="45.70875449414672" lon="11.359844796962902"><ele>190.75</ele><time>2026-05-02T16:18:46.547Z</time></trkpt><trkpt lat="45.70870916972539" lon="11.360043996735405"><ele>190.5</ele><time>2026-05-02T16:18:47.547Z</time></trkpt><trkpt lat="45.70866090007047" lon="11.36023286999389"><ele>190.25</ele><time>2026-05-02T16:18:48.547Z</time></trkpt><trkpt lat="45.70861118770362" lon="11.360407847213503"><ele>190.0</ele><time>2026-05-02T16:18:49.547Z</time></trkpt><trkpt lat="45.70857931105574" lon="11.360585580019787"><ele>189.0</ele><time>2026-05-02T16:18:50.547Z</time></trkpt><trkpt lat="45.70854757035739" lon="11.360772831711673"><ele>188.0</ele><time>2026-05-02T16:18:51.547Z</time></trkpt><trkpt lat="45.70851874036236" lon="11.360966433330091"><ele>187.0</ele><time>2026-05-02T16:18:52.547Z</time></trkpt><trkpt lat="45.70847737411174" lon="11.36115841596432"><ele>186.0</ele><time>2026-05-02T16:18:53.547Z</time></trkpt><trkpt lat="45.70844158082629" lon="11.361356237163148"><ele>186.25</ele><time>2026-05-02T16:18:54.547Z</time></trkpt><trkpt lat="45.70839372114286" lon="11.361538520538174"><ele>186.5</ele><time>2026-05-02T16:18:55.547Z</time></trkpt><trkpt lat="45.708347966776465" lon="11.36171370087113"><ele>186.75</ele><time>2026-05-02T16:18:56.547Z</time></trkpt><trkpt lat="45.708303651452184" lon="11.36188371778157"><ele>187.0</ele><time>2026-05-02T16:18:57.547Z</time></trkpt><trkpt lat="45.7082581081406" lon="11.362043369652163"><ele>187.5</ele><time>2026-05-02T16:18:58.547Z</time></trkpt><trkpt lat="45.70820689831349" lon="11.362223311890585"><ele>188.0</ele><time>2026-05-02T16:18:59.547Z</time></trkpt><trkpt lat="45.70815556527488" lon="11.362405461329296"><ele>188.5</ele><time>2026-05-02T16:19:00.547Z</time></trkpt><trkpt lat="45.708124738955306" lon="11.362584336381222"><ele>189.0</ele><time>2026-05-02T16:19:01.547Z</time></trkpt><trkpt lat="45.70809405125858" lon="11.362766384861587"><ele>189.0</ele><time>2026-05-02T16:19:02.547Z</time></trkpt><trkpt lat="45.70806063122094" lon="11.362921232347361"><ele>189.0</ele><time>2026-05-02T16:19:03.547Z</time></trkpt><trkpt lat="45.70805974530183" lon="11.363114011758178"><ele>189.0</ele><time>2026-05-02T16:19:04.547Z</time></trkpt><trkpt lat="45.70803982988635" lon="11.363289707491244"><ele>189.0</ele><time>2026-05-02T16:19:05.547Z</time></trkpt><trkpt lat="45.70804131059683" lon="11.363469807770706"><ele>189.0</ele><time>2026-05-02T16:19:06.547Z</time></trkpt><trkpt lat="45.70805525873657" lon="11.363646483367942"><ele>189.0</ele><time>2026-05-02T16:19:07.547Z</time></trkpt><trkpt lat="45.70807971796974" lon="11.36381440218339"><ele>189.0</ele><time>2026-05-02T16:19:08.547Z</time></trkpt><trkpt lat="45.70809791717762" lon="11.363981318511176"><ele>189.0</ele><time>2026-05-02T16:19:09.547Z</time></trkpt><trkpt lat="45.70812761440099" lon="11.364149326443966"><ele>188.6</ele><time>2026-05-02T16:19:10.547Z</time></trkpt><trkpt lat="45.70814646281597" lon="11.364302157114086"><ele>188.2</ele><time>2026-05-02T16:19:11.547Z</time></trkpt><trkpt lat="45.70816600570924" lon="11.36444469040607"><ele>187.79999999999998</ele><time>2026-05-02T16:19:12.547Z</time></trkpt><trkpt lat="45.7081841299416" lon="11.364579349915017"><ele>187.39999999999998</ele><time>2026-05-02T16:19:13.547Z</time></trkpt><trkpt lat="45.708193171193" lon="11.364686032325015"><ele>187.0</ele><time>2026-05-02T16:19:14.547Z</time></trkpt><trkpt lat="45.70821060957986" lon="11.36482337125354"><ele>187.0</ele><time>2026-05-02T16:19:16.547Z</time></trkpt><trkpt lat="45.708213870106654" lon="11.36496264756143"><ele>187.0</ele><time>2026-05-02T16:19:20.547Z</time></trkpt><trkpt lat="45.70819571639788" lon="11.365141828799851"><ele>187.0</ele><time>2026-05-02T16:19:22.547Z</time></trkpt><trkpt lat="45.70819289903075" lon="11.36526081755886"><ele>187.0</ele><time>2026-05-02T16:19:23.547Z</time></trkpt><trkpt lat="45.708171843810476" lon="11.365389335654893"><ele>187.0</ele><time>2026-05-02T16:19:24.547Z</time></trkpt><trkpt lat="45.70811916535228" lon="11.365517218826051"><ele>186.8</ele><time>2026-05-02T16:19:25.547Z</time></trkpt><trkpt lat="45.70807230355708" lon="11.365658946114934"><ele>186.6</ele><time>2026-05-02T16:19:26.547Z</time></trkpt><trkpt lat="45.707999304093576" lon="11.3657793237075"><ele>186.4</ele><time>2026-05-02T16:19:27.547Z</time></trkpt><trkpt lat="45.70794653397549" lon="11.365897007517708"><ele>186.20000000000002</ele><time>2026-05-02T16:19:28.547Z</time></trkpt><trkpt lat="45.707898132141665" lon="11.36600769050313"><ele>186.0</ele><time>2026-05-02T16:19:29.547Z</time></trkpt><trkpt lat="45.707864273134305" lon="11.366087620542412"><ele>186.0</ele><time>2026-05-02T16:19:30.547Z</time></trkpt><trkpt lat="45.707820483701674" lon="11.36619779411189"><ele>186.0</ele><time>2026-05-02T16:19:31.547Z</time></trkpt><trkpt lat="45.70776649155049" lon="11.366287853363236"><ele>186.0</ele><time>2026-05-02T16:19:32.547Z</time></trkpt><trkpt lat="45.7077165705093" lon="11.36639365398142"><ele>186.0</ele><time>2026-05-02T16:19:33.547Z</time></trkpt><trkpt lat="45.70767749363204" lon="11.366494854594208"><ele>186.0</ele><time>2026-05-02T16:19:34.547Z</time></trkpt><trkpt lat="45.70763758992337" lon="11.366590771638933"><ele>186.0</ele><time>2026-05-02T16:19:35.547Z</time></trkpt><trkpt lat="45.70759129449033" lon="11.366706925738624"><ele>185.60000000000002</ele><time>2026-05-02T16:19:36.547Z</time></trkpt><trkpt lat="45.707535613598054" lon="11.366829833482491"><ele>185.2</ele><time>2026-05-02T16:19:37.547Z</time></trkpt><trkpt lat="45.70747878817702" lon="11.366955698707255"><ele>184.8</ele><time>2026-05-02T16:19:38.547Z</time></trkpt><trkpt lat="45.70741979366869" lon="11.36707965148396"><ele>184.39999999999998</ele><time>2026-05-02T16:19:39.547Z</time></trkpt><trkpt lat="45.70736229301265" lon="11.367197909605892"><ele>184.0</ele><time>2026-05-02T16:19:40.547Z</time></trkpt><trkpt lat="45.707311695220085" lon="11.367307418223985"><ele>183.83333333333334</ele><time>2026-05-02T16:19:41.547Z</time></trkpt><trkpt lat="45.70726337595418" lon="11.367414763569384"><ele>183.66666666666669</ele><time>2026-05-02T16:19:42.547Z</time></trkpt><trkpt lat="45.70721508412764" lon="11.367515756472201"><ele>183.5</ele><time>2026-05-02T16:19:43.547Z</time></trkpt><trkpt lat="45.70717448238016" lon="11.367614398350371"><ele>183.33333333333334</ele><time>2026-05-02T16:19:44.547Z</time></trkpt><trkpt lat="45.707121635489635" lon="11.367711497681475"><ele>183.16666666666666</ele><time>2026-05-02T16:19:45.547Z</time></trkpt><trkpt lat="45.70707921051053" lon="11.367806499592808"><ele>183.0</ele><time>2026-05-02T16:19:46.547Z</time></trkpt><trkpt lat="45.70704138751651" lon="11.367898568463705"><ele>183.0</ele><time>2026-05-02T16:19:47.547Z</time></trkpt><trkpt lat="45.7069973618637" lon="11.368001494668727"><ele>183.0</ele><time>2026-05-02T16:19:48.547Z</time></trkpt><trkpt lat="45.70695819300482" lon="11.368124341664648"><ele>183.0</ele><time>2026-05-02T16:19:49.547Z</time></trkpt><trkpt lat="45.70690158015859" lon="11.368263503430741"><ele>183.0</ele><time>2026-05-02T16:19:50.547Z</time></trkpt><trkpt lat="45.706847786479436" lon="11.368408289162804"><ele>183.0</ele><time>2026-05-02T16:19:51.547Z</time></trkpt><trkpt lat="45.70679267673666" lon="11.368548041711769"><ele>182.83333333333334</ele><time>2026-05-02T16:19:52.547Z</time></trkpt><trkpt lat="45.70674531139103" lon="11.368665530862247"><ele>182.66666666666666</ele><time>2026-05-02T16:19:53.547Z</time></trkpt><trkpt lat="45.70670714945518" lon="11.36878108259395"><ele>182.5</ele><time>2026-05-02T16:19:54.547Z</time></trkpt><trkpt lat="45.706660085269036" lon="11.368890984261002"><ele>182.33333333333331</ele><time>2026-05-02T16:19:55.547Z</time></trkpt><trkpt lat="45.706614397707376" lon="11.3689863595174"><ele>182.16666666666666</ele><time>2026-05-02T16:19:56.547Z</time></trkpt><trkpt lat="45.7065738782128" lon="11.369077717868427"><ele>182.0</ele><time>2026-05-02T16:19:57.547Z</time></trkpt><trkpt lat="45.70652989208772" lon="11.369167533703958"><ele>182.0</ele><time>2026-05-02T16:19:58.547Z</time></trkpt><trkpt lat="45.70649380502492" lon="11.3692580194112"><ele>182.0</ele><time>2026-05-02T16:19:59.547Z</time></trkpt><trkpt lat="45.70645673899754" lon="11.369340266925589"><ele>182.0</ele><time>2026-05-02T16:20:00.547Z</time></trkpt><trkpt lat="45.706422812704865" lon="11.369429516522485"><ele>182.0</ele><time>2026-05-02T16:20:01.547Z</time></trkpt><trkpt lat="45.7063771009445" lon="11.369505103369844"><ele>182.0</ele><time>2026-05-02T16:20:02.547Z</time></trkpt><trkpt lat="45.7063378683656" lon="11.369576773729246"><ele>182.0</ele><time>2026-05-02T16:20:03.547Z</time></trkpt><trkpt lat="45.706285900443135" lon="11.369641455356225"><ele>182.0</ele><time>2026-05-02T16:20:04.547Z</time></trkpt><trkpt lat="45.706212412592826" lon="11.369703601696667"><ele>182.0</ele><time>2026-05-02T16:20:05.547Z</time></trkpt><trkpt lat="45.70610999376415" lon="11.36973303977659"><ele>182.0</ele><time>2026-05-02T16:20:06.547Z</time></trkpt><trkpt lat="45.70599774348199" lon="11.369717782805685"><ele>182.0</ele><time>2026-05-02T16:20:07.547Z</time></trkpt><trkpt lat="45.705862599783174" lon="11.369671366938537"><ele>182.0</ele><time>2026-05-02T16:20:08.547Z</time></trkpt><trkpt lat="45.70572050649943" lon="11.369630479374548"><ele>181.5</ele><time>2026-05-02T16:20:09.547Z</time></trkpt><trkpt lat="45.70560099590688" lon="11.369569373878766"><ele>181.0</ele><time>2026-05-02T16:20:10.547Z</time></trkpt><trkpt lat="45.705489257276156" lon="11.36950652802258"><ele>180.5</ele><time>2026-05-02T16:20:11.547Z</time></trkpt><trkpt lat="45.705374572171735" lon="11.369429221939315"><ele>180.0</ele><time>2026-05-02T16:20:12.547Z</time></trkpt><trkpt lat="45.705258540594244" lon="11.369332586335558"><ele>179.75</ele><time>2026-05-02T16:20:13.547Z</time></trkpt><trkpt lat="45.705148462923376" lon="11.369228194331736"><ele>179.5</ele><time>2026-05-02T16:20:14.548Z</time></trkpt><trkpt lat="45.70503216771139" lon="11.369118289064591"><ele>179.25</ele><time>2026-05-02T16:20:15.548Z</time></trkpt><trkpt lat="45.704926875043114" lon="11.369017072522395"><ele>179.0</ele><time>2026-05-02T16:20:16.548Z</time></trkpt><trkpt lat="45.70482475251951" lon="11.368917413131388"><ele>179.25</ele><time>2026-05-02T16:20:17.548Z</time></trkpt><trkpt lat="45.704717462849715" lon="11.368813356505509"><ele>179.5</ele><time>2026-05-02T16:20:18.548Z</time></trkpt><trkpt lat="45.70460845571494" lon="11.368707652382213"><ele>179.75</ele><time>2026-05-02T16:20:19.548Z</time></trkpt><trkpt lat="45.7045134962107" lon="11.36859064363891"><ele>180.0</ele><time>2026-05-02T16:20:20.548Z</time></trkpt><trkpt lat="45.70440730020954" lon="11.368542075323026"><ele>180.8</ele><time>2026-05-02T16:20:21.548Z</time></trkpt><trkpt lat="45.704335725378215" lon="11.368447799969843"><ele>181.6</ele><time>2026-05-02T16:20:22.548Z</time></trkpt><trkpt lat="45.704263885088515" lon="11.368373259623972"><ele>182.39999999999998</ele><time>2026-05-02T16:20:23.548Z</time></trkpt><trkpt lat="45.704172457996634" lon="11.368309732907562"><ele>183.2</ele><time>2026-05-02T16:20:24.548Z</time></trkpt><trkpt lat="45.704098724553724" lon="11.368192120099536"><ele>184.0</ele><time>2026-05-02T16:20:25.548Z</time></trkpt><trkpt lat="45.70400130018272" lon="11.368110505283223"><ele>184.5</ele><time>2026-05-02T16:20:26.548Z</time></trkpt><trkpt lat="45.70390364087635" lon="11.368019524965243"><ele>185.0</ele><time>2026-05-02T16:20:27.548Z</time></trkpt><trkpt lat="45.70379467744992" lon="11.367926695262138"><ele>185.5</ele><time>2026-05-02T16:20:28.548Z</time></trkpt><trkpt lat="45.70370878859057" lon="11.367762636971147"><ele>186.0</ele><time>2026-05-02T16:20:29.548Z</time></trkpt><trkpt lat="45.70358379329176" lon="11.367650246138556"><ele>186.0</ele><time>2026-05-02T16:20:30.548Z</time></trkpt><trkpt lat="45.70346194147421" lon="11.367526798998002"><ele>186.0</ele><time>2026-05-02T16:20:31.548Z</time></trkpt><trkpt lat="45.70335500198708" lon="11.36741846005643"><ele>186.0</ele><time>2026-05-02T16:20:32.548Z</time></trkpt><trkpt lat="45.703251723567625" lon="11.367313830580718"><ele>186.0</ele><time>2026-05-02T16:20:33.548Z</time></trkpt><trkpt lat="45.703152795504536" lon="11.367215420814397"><ele>186.25</ele><time>2026-05-02T16:20:34.548Z</time></trkpt><trkpt lat="45.70305393599645" lon="11.367103081591873"><ele>186.5</ele><time>2026-05-02T16:20:35.548Z</time></trkpt><trkpt lat="45.70297394623479" lon="11.36694185787816"><ele>186.75</ele><time>2026-05-02T16:20:36.548Z</time></trkpt><trkpt lat="45.702877290230255" lon="11.366818163532312"><ele>187.0</ele><time>2026-05-02T16:20:37.548Z</time></trkpt><trkpt lat="45.7027774843236" lon="11.366685248429214"><ele>187.0</ele><time>2026-05-02T16:20:38.548Z</time></trkpt><trkpt lat="45.70266801961741" lon="11.366568901307355"><ele>187.0</ele><time>2026-05-02T16:20:39.548Z</time></trkpt><trkpt lat="45.70257355309487" lon="11.36646137301431"><ele>187.0</ele><time>2026-05-02T16:20:40.548Z</time></trkpt><trkpt lat="45.70247782472214" lon="11.366368563356449"><ele>187.0</ele><time>2026-05-02T16:20:41.548Z</time></trkpt><trkpt lat="45.702382933268915" lon="11.36628552441877"><ele>187.0</ele><time>2026-05-02T16:20:42.548Z</time></trkpt><trkpt lat="45.70229852418439" lon="11.366206115405415"><ele>187.0</ele><time>2026-05-02T16:20:43.548Z</time></trkpt><trkpt lat="45.702204954191814" lon="11.366132094622637"><ele>187.0</ele><time>2026-05-02T16:20:44.548Z</time></trkpt><trkpt lat="45.70211561586073" lon="11.366055147798422"><ele>187.0</ele><time>2026-05-02T16:20:45.548Z</time></trkpt><trkpt lat="45.702036806970675" lon="11.365984323475034"><ele>187.0</ele><time>2026-05-02T16:20:46.548Z</time></trkpt><trkpt lat="45.70196399498254" lon="11.365916524215754"><ele>187.28571428571428</ele><time>2026-05-02T16:20:47.548Z</time></trkpt><trkpt lat="45.70189722163914" lon="11.365851248803029"><ele>187.57142857142858</ele><time>2026-05-02T16:20:48.548Z</time></trkpt><trkpt lat="45.701834306174234" lon="11.365778654504078"><ele>187.85714285714286</ele><time>2026-05-02T16:20:49.548Z</time></trkpt><trkpt lat="45.701778065501586" lon="11.365707509436037"><ele>188.14285714285714</ele><time>2026-05-02T16:20:50.548Z</time></trkpt><trkpt lat="45.70172960349942" lon="11.365630784986584"><ele>188.42857142857144</ele><time>2026-05-02T16:20:51.548Z</time></trkpt><trkpt lat="45.701689439367094" lon="11.365554527074108"><ele>188.71428571428572</ele><time>2026-05-02T16:20:52.548Z</time></trkpt><trkpt lat="45.70164629918075" lon="11.365480453689893"><ele>189.0</ele><time>2026-05-02T16:20:53.548Z</time></trkpt><trkpt lat="45.70153371017055" lon="11.365425159242788"><ele>189.0</ele><time>2026-05-02T16:20:55.548Z</time></trkpt><trkpt lat="45.7014641915154" lon="11.36545587739084"><ele>189.0</ele><time>2026-05-02T16:20:56.548Z</time></trkpt><trkpt lat="45.701400983790016" lon="11.36552747088026"><ele>189.0</ele><time>2026-05-02T16:20:57.548Z</time></trkpt><trkpt lat="45.70132675306992" lon="11.365616997486242"><ele>189.0</ele><time>2026-05-02T16:20:58.548Z</time></trkpt><trkpt lat="45.70122125923861" lon="11.365692600587984"><ele>189.0</ele><time>2026-05-02T16:20:59.548Z</time></trkpt><trkpt lat="45.70111177716067" lon="11.365737842179401"><ele>189.25</ele><time>2026-05-02T16:21:00.548Z</time></trkpt><trkpt lat="45.70099991570709" lon="11.365766880273597"><ele>189.5</ele><time>2026-05-02T16:21:01.548Z</time></trkpt><trkpt lat="45.70087930025609" lon="11.365824115924367"><ele>189.75</ele><time>2026-05-02T16:21:02.548Z</time></trkpt><trkpt lat="45.70075815982284" lon="11.365916491664326"><ele>190.0</ele><time>2026-05-02T16:21:03.548Z</time></trkpt><trkpt lat="45.700632191644445" lon="11.366010414304842"><ele>190.0</ele><time>2026-05-02T16:21:04.548Z</time></trkpt><trkpt lat="45.70051142306653" lon="11.366096888488714"><ele>190.0</ele><time>2026-05-02T16:21:05.548Z</time></trkpt><trkpt lat="45.70038749777079" lon="11.366181098459466"><ele>190.0</ele><time>2026-05-02T16:21:06.548Z</time></trkpt><trkpt lat="45.70025883789157" lon="11.366290601404911"><ele>190.0</ele><time>2026-05-02T16:21:07.548Z</time></trkpt><trkpt lat="45.70012693274651" lon="11.366382782750273"><ele>188.75</ele><time>2026-05-02T16:21:08.548Z</time></trkpt><trkpt lat="45.700002726375" lon="11.366467602184848"><ele>187.5</ele><time>2026-05-02T16:21:09.548Z</time></trkpt><trkpt lat="45.699871786693016" lon="11.366558527795831"><ele>186.25</ele><time>2026-05-02T16:21:10.548Z</time></trkpt><trkpt lat="45.699734594651154" lon="11.36664289017635"><ele>185.0</ele><time>2026-05-02T16:21:11.548Z</time></trkpt><trkpt lat="45.699601415789736" lon="11.366738312931336"><ele>185.0</ele><time>2026-05-02T16:21:12.548Z</time></trkpt><trkpt lat="45.69944824253618" lon="11.36684171493955"><ele>185.0</ele><time>2026-05-02T16:21:13.548Z</time></trkpt><trkpt lat="45.69929676871094" lon="11.366965565701166"><ele>185.0</ele><time>2026-05-02T16:21:14.548Z</time></trkpt><trkpt lat="45.699160756747794" lon="11.36707510133452"><ele>185.0</ele><time>2026-05-02T16:21:15.548Z</time></trkpt><trkpt lat="45.699026695696354" lon="11.367185088865813"><ele>185.0</ele><time>2026-05-02T16:21:16.548Z</time></trkpt><trkpt lat="45.69888604882604" lon="11.36728412792678"><ele>185.0</ele><time>2026-05-02T16:21:17.548Z</time></trkpt><trkpt lat="45.69874630702248" lon="11.367388565486268"><ele>185.33333333333331</ele><time>2026-05-02T16:21:18.548Z</time></trkpt><trkpt lat="45.698601728452864" lon="11.367475289305453"><ele>185.66666666666666</ele><time>2026-05-02T16:21:19.548Z</time></trkpt><trkpt lat="45.69846207190645" lon="11.367569972241892"><ele>186.0</ele><time>2026-05-02T16:21:20.548Z</time></trkpt><trkpt lat="45.69831147348747" lon="11.367681403462024"><ele>186.33333333333334</ele><time>2026-05-02T16:21:21.548Z</time></trkpt><trkpt lat="45.69815702063973" lon="11.367800450023045"><ele>186.66666666666669</ele><time>2026-05-02T16:21:22.548Z</time></trkpt><trkpt lat="45.697986251016204" lon="11.367939315071585"><ele>187.0</ele><time>2026-05-02T16:21:23.548Z</time></trkpt><trkpt lat="45.69779998166412" lon="11.368098431862371"><ele>186.33333333333334</ele><time>2026-05-02T16:21:24.548Z</time></trkpt><trkpt lat="45.69762552919444" lon="11.368267704438308"><ele>185.66666666666666</ele><time>2026-05-02T16:21:25.548Z</time></trkpt><trkpt lat="45.697463349619895" lon="11.368416779745512"><ele>185.0</ele><time>2026-05-02T16:21:26.548Z</time></trkpt><trkpt lat="45.697295568904515" lon="11.368582012039157"><ele>185.0</ele><time>2026-05-02T16:21:27.548Z</time></trkpt><trkpt lat="45.69711691768265" lon="11.368766785819592"><ele>185.0</ele><time>2026-05-02T16:21:28.548Z</time></trkpt><trkpt lat="45.69692358896056" lon="11.368962087172251"><ele>184.0</ele><time>2026-05-02T16:21:29.548Z</time></trkpt><trkpt lat="45.696712585221945" lon="11.369176379389467"><ele>183.0</ele><time>2026-05-02T16:21:30.548Z</time></trkpt><trkpt lat="45.69651433534236" lon="11.369376799078509"><ele>183.0</ele><time>2026-05-02T16:21:31.548Z</time></trkpt><trkpt lat="45.696330099762804" lon="11.369559550126688"><ele>183.0</ele><time>2026-05-02T16:21:32.548Z</time></trkpt><trkpt lat="45.696157845722254" lon="11.369728740457104"><ele>183.0</ele><time>2026-05-02T16:21:33.548Z</time></trkpt><trkpt lat="45.69600037825427" lon="11.369885267077061"><ele>182.0</ele><time>2026-05-02T16:21:34.548Z</time></trkpt><trkpt lat="45.69585785411221" lon="11.370022355538627"><ele>181.0</ele><time>2026-05-02T16:21:35.548Z</time></trkpt><trkpt lat="45.695718855322355" lon="11.370146707628724"><ele>180.0</ele><time>2026-05-02T16:21:36.548Z</time></trkpt><trkpt lat="45.695593150107015" lon="11.370270242215172"><ele>180.0</ele><time>2026-05-02T16:21:37.548Z</time></trkpt><trkpt lat="45.69547908220797" lon="11.37038439583299"><ele>180.0</ele><time>2026-05-02T16:21:38.548Z</time></trkpt><trkpt lat="45.69537650623418" lon="11.370490203375985"><ele>180.0</ele><time>2026-05-02T16:21:39.548Z</time></trkpt><trkpt lat="45.69527925296927" lon="11.370588353851806"><ele>180.0</ele><time>2026-05-02T16:21:40.548Z</time></trkpt><trkpt lat="45.69519187578135" lon="11.370661702891107"><ele>180.2</ele><time>2026-05-02T16:21:41.548Z</time></trkpt><trkpt lat="45.69510801824586" lon="11.370733727237862"><ele>180.4</ele><time>2026-05-02T16:21:42.548Z</time></trkpt><trkpt lat="45.69502834775151" lon="11.370793757210388"><ele>180.60000000000002</ele><time>2026-05-02T16:21:43.548Z</time></trkpt><trkpt lat="45.694932443186325" lon="11.370838199595843"><ele>180.8</ele><time>2026-05-02T16:21:44.548Z</time></trkpt><trkpt lat="45.69484220098411" lon="11.370898439040273"><ele>181.0</ele><time>2026-05-02T16:21:45.548Z</time></trkpt><trkpt lat="45.69474809951327" lon="11.370974379105633"><ele>181.0</ele><time>2026-05-02T16:21:46.548Z</time></trkpt><trkpt lat="45.694665949877425" lon="11.371091039569475"><ele>181.0</ele><time>2026-05-02T16:21:47.548Z</time></trkpt><trkpt lat="45.694590591221136" lon="11.371229659221843"><ele>181.0</ele><time>2026-05-02T16:21:48.548Z</time></trkpt><trkpt lat="45.69447835462655" lon="11.371365086449439"><ele>181.0</ele><time>2026-05-02T16:21:49.548Z</time></trkpt><trkpt lat="45.69434360041814" lon="11.371519607576591"><ele>180.66666666666669</ele><time>2026-05-02T16:21:50.548Z</time></trkpt><trkpt lat="45.69419111926613" lon="11.3716902232211"><ele>180.33333333333334</ele><time>2026-05-02T16:21:51.548Z</time></trkpt><trkpt lat="45.69402465453787" lon="11.371858045343608"><ele>180.0</ele><time>2026-05-02T16:21:52.548Z</time></trkpt><trkpt lat="45.693843965064254" lon="11.372023192715096"><ele>180.0</ele><time>2026-05-02T16:21:53.548Z</time></trkpt><trkpt lat="45.69367376658455" lon="11.372180125525427"><ele>180.0</ele><time>2026-05-02T16:21:54.548Z</time></trkpt><trkpt lat="45.69350401189044" lon="11.372346217482587"><ele>180.0</ele><time>2026-05-02T16:21:55.548Z</time></trkpt><trkpt lat="45.69334204476389" lon="11.372507895836593"><ele>179.33333333333334</ele><time>2026-05-02T16:21:56.548Z</time></trkpt><trkpt lat="45.693184743974385" lon="11.372661871119776"><ele>178.66666666666669</ele><time>2026-05-02T16:21:57.548Z</time></trkpt><trkpt lat="45.69302733866348" lon="11.372815357408289"><ele>178.0</ele><time>2026-05-02T16:21:58.548Z</time></trkpt><trkpt lat="45.69286600964143" lon="11.372961196638053"><ele>177.33333333333334</ele><time>2026-05-02T16:21:59.548Z</time></trkpt><trkpt lat="45.692712123756486" lon="11.373125922451788"><ele>176.66666666666666</ele><time>2026-05-02T16:22:00.548Z</time></trkpt><trkpt lat="45.69254750352535" lon="11.373290805460185"><ele>176.0</ele><time>2026-05-02T16:22:01.548Z</time></trkpt><trkpt lat="45.69236648554579" lon="11.373474612278548"><ele>176.0</ele><time>2026-05-02T16:22:02.548Z</time></trkpt><trkpt lat="45.69218795558019" lon="11.373659404400245"><ele>176.0</ele><time>2026-05-02T16:22:03.548Z</time></trkpt><trkpt lat="45.69201577986892" lon="11.373820932667991"><ele>176.0</ele><time>2026-05-02T16:22:04.548Z</time></trkpt><trkpt lat="45.69185292918714" lon="11.373976913137271"><ele>174.33333333333331</ele><time>2026-05-02T16:22:05.548Z</time></trkpt><trkpt lat="45.691691709306575" lon="11.374131388072927"><ele>172.66666666666666</ele><time>2026-05-02T16:22:06.548Z</time></trkpt><trkpt lat="45.69152677723197" lon="11.374291220789884"><ele>171.0</ele><time>2026-05-02T16:22:07.548Z</time></trkpt><trkpt lat="45.691364950858315" lon="11.374455595997313"><ele>171.0</ele><time>2026-05-02T16:22:08.548Z</time></trkpt><trkpt lat="45.69119618393919" lon="11.374620845407891"><ele>171.0</ele><time>2026-05-02T16:22:09.548Z</time></trkpt><trkpt lat="45.6910250993964" lon="11.374794829924289"><ele>171.0</ele><time>2026-05-02T16:22:10.548Z</time></trkpt><trkpt lat="45.69085093191769" lon="11.3749654571273"><ele>171.0</ele><time>2026-05-02T16:22:11.548Z</time></trkpt><trkpt lat="45.69067164333038" lon="11.375147091398539"><ele>171.0</ele><time>2026-05-02T16:22:12.548Z</time></trkpt><trkpt lat="45.69047414533176" lon="11.375337425750095"><ele>171.0</ele><time>2026-05-02T16:22:13.548Z</time></trkpt><trkpt lat="45.69027939970074" lon="11.375536681174532"><ele>171.0</ele><time>2026-05-02T16:22:14.548Z</time></trkpt><trkpt lat="45.690096522957084" lon="11.375714200141418"><ele>171.0</ele><time>2026-05-02T16:22:15.548Z</time></trkpt><trkpt lat="45.68992091139347" lon="11.375880145368832"><ele>171.0</ele><time>2026-05-02T16:22:16.548Z</time></trkpt><trkpt lat="45.68975698421631" lon="11.376045068882418"><ele>171.0</ele><time>2026-05-02T16:22:17.548Z</time></trkpt><trkpt lat="45.689588055458486" lon="11.376204614257956"><ele>170.0</ele><time>2026-05-02T16:22:18.548Z</time></trkpt><trkpt lat="45.68941812120285" lon="11.376375037679129"><ele>169.0</ele><time>2026-05-02T16:22:19.548Z</time></trkpt><trkpt lat="45.68924154912003" lon="11.376543561522908"><ele>168.0</ele><time>2026-05-02T16:22:20.548Z</time></trkpt><trkpt lat="45.68906139742969" lon="11.376707593089458"><ele>168.0</ele><time>2026-05-02T16:22:21.548Z</time></trkpt><trkpt lat="45.68888164352279" lon="11.37687363831409"><ele>168.0</ele><time>2026-05-02T16:22:22.548Z</time></trkpt><trkpt lat="45.68870078802206" lon="11.377051627066974"><ele>168.0</ele><time>2026-05-02T16:22:23.548Z</time></trkpt><trkpt lat="45.68852605139389" lon="11.377233033852818"><ele>168.0</ele><time>2026-05-02T16:22:24.548Z</time></trkpt><trkpt lat="45.68835104582096" lon="11.377412528131485"><ele>168.0</ele><time>2026-05-02T16:22:25.548Z</time></trkpt><trkpt lat="45.68816794105256" lon="11.377585283727147"><ele>168.0</ele><time>2026-05-02T16:22:26.548Z</time></trkpt><trkpt lat="45.68797811404644" lon="11.377754258409212"><ele>168.0</ele><time>2026-05-02T16:22:27.548Z</time></trkpt><trkpt lat="45.687801296651784" lon="11.377931315290564"><ele>168.0</ele><time>2026-05-02T16:22:28.548Z</time></trkpt><trkpt lat="45.687624425063575" lon="11.37810076010095"><ele>168.0</ele><time>2026-05-02T16:22:29.548Z</time></trkpt><trkpt lat="45.687455827012435" lon="11.378269288834538"><ele>167.33333333333334</ele><time>2026-05-02T16:22:30.548Z</time></trkpt><trkpt lat="45.68728295171298" lon="11.378433702356512"><ele>166.66666666666669</ele><time>2026-05-02T16:22:31.548Z</time></trkpt><trkpt lat="45.68710989318334" lon="11.378603253935234"><ele>166.0</ele><time>2026-05-02T16:22:32.548Z</time></trkpt><trkpt lat="45.686946620890446" lon="11.378782437631116"><ele>165.33333333333334</ele><time>2026-05-02T16:22:33.548Z</time></trkpt><trkpt lat="45.68677692989069" lon="11.37895799442399"><ele>164.66666666666666</ele><time>2026-05-02T16:22:34.548Z</time></trkpt><trkpt lat="45.68659975667943" lon="11.379131706686417"><ele>164.0</ele><time>2026-05-02T16:22:35.548Z</time></trkpt><trkpt lat="45.68641745423548" lon="11.379317014933502"><ele>164.0</ele><time>2026-05-02T16:22:36.548Z</time></trkpt><trkpt lat="45.68623192795836" lon="11.37949677484972"><ele>164.0</ele><time>2026-05-02T16:22:37.548Z</time></trkpt><trkpt lat="45.68605001051163" lon="11.379673775405543"><ele>164.0</ele><time>2026-05-02T16:22:38.548Z</time></trkpt><trkpt lat="45.6858814409393" lon="11.379849267386833"><ele>163.66666666666666</ele><time>2026-05-02T16:22:39.548Z</time></trkpt><trkpt lat="45.6857152061998" lon="11.380024244869555"><ele>163.33333333333334</ele><time>2026-05-02T16:22:40.548Z</time></trkpt><trkpt lat="45.685549430311994" lon="11.380199497550116"><ele>163.0</ele><time>2026-05-02T16:22:41.548Z</time></trkpt><trkpt lat="45.685374491220884" lon="11.380364114172382"><ele>162.0</ele><time>2026-05-02T16:22:42.548Z</time></trkpt><trkpt lat="45.68520405455518" lon="11.380530556666901"><ele>161.0</ele><time>2026-05-02T16:22:43.548Z</time></trkpt><trkpt lat="45.68504199615943" lon="11.380691665505871"><ele>160.0</ele><time>2026-05-02T16:22:44.548Z</time></trkpt><trkpt lat="45.684876770084166" lon="11.380851780462484"><ele>160.0</ele><time>2026-05-02T16:22:45.548Z</time></trkpt><trkpt lat="45.684712719491664" lon="11.381013428587138"><ele>160.0</ele><time>2026-05-02T16:22:46.548Z</time></trkpt><trkpt lat="45.68455293643937" lon="11.381178013696092"><ele>160.0</ele><time>2026-05-02T16:22:47.548Z</time></trkpt><trkpt lat="45.68439208512767" lon="11.38134337058112"><ele>159.33333333333334</ele><time>2026-05-02T16:22:48.548Z</time></trkpt><trkpt lat="45.68422694829669" lon="11.381503421987173"><ele>158.66666666666666</ele><time>2026-05-02T16:22:49.548Z</time></trkpt><trkpt lat="45.684071925609665" lon="11.381659559125564"><ele>158.0</ele><time>2026-05-02T16:22:50.548Z</time></trkpt><trkpt lat="45.68392290745583" lon="11.381811340784743"><ele>158.0</ele><time>2026-05-02T16:22:51.548Z</time></trkpt><trkpt lat="45.68378234456559" lon="11.381961004801925"><ele>158.0</ele><time>2026-05-02T16:22:52.548Z</time></trkpt><trkpt lat="45.68364391687145" lon="11.382106315729906"><ele>158.0</ele><time>2026-05-02T16:22:53.548Z</time></trkpt><trkpt lat="45.683511589520236" lon="11.38223573137974"><ele>158.0</ele><time>2026-05-02T16:22:54.548Z</time></trkpt><trkpt lat="45.68339113064548" lon="11.3823623580493"><ele>158.0</ele><time>2026-05-02T16:22:55.548Z</time></trkpt><trkpt lat="45.68327770184515" lon="11.382483978458042"><ele>158.0</ele><time>2026-05-02T16:22:56.548Z</time></trkpt><trkpt lat="45.68315581547007" lon="11.382578711928831"><ele>158.0</ele><time>2026-05-02T16:22:57.548Z</time></trkpt><trkpt lat="45.68304708884981" lon="11.382677469238537"><ele>158.0</ele><time>2026-05-02T16:22:58.548Z</time></trkpt><trkpt lat="45.6829445797439" lon="11.382772902389863"><ele>158.0</ele><time>2026-05-02T16:22:59.548Z</time></trkpt><trkpt lat="45.682828551694925" lon="11.382844326822061"><ele>158.0</ele><time>2026-05-02T16:23:00.548Z</time></trkpt><trkpt lat="45.682724398230725" lon="11.382881259167261"><ele>158.0</ele><time>2026-05-02T16:23:01.548Z</time></trkpt><trkpt lat="45.68262000037269" lon="11.382953589613054"><ele>157.75</ele><time>2026-05-02T16:23:02.548Z</time></trkpt><trkpt lat="45.68253688746079" lon="11.383069199579158"><ele>157.5</ele><time>2026-05-02T16:23:03.548Z</time></trkpt><trkpt lat="45.68245547758998" lon="11.383246171543892"><ele>157.25</ele><time>2026-05-02T16:23:04.548Z</time></trkpt><trkpt lat="45.682326981482554" lon="11.38339851311021"><ele>157.0</ele><time>2026-05-02T16:23:05.548Z</time></trkpt><trkpt lat="45.68216374806199" lon="11.383566452512133"><ele>157.0</ele><time>2026-05-02T16:23:06.548Z</time></trkpt><trkpt lat="45.68199732531049" lon="11.383717189815385"><ele>157.0</ele><time>2026-05-02T16:23:07.548Z</time></trkpt><trkpt lat="45.6818396113908" lon="11.383849166223005"><ele>157.0</ele><time>2026-05-02T16:23:08.548Z</time></trkpt><trkpt lat="45.68167761672431" lon="11.38397461075887"><ele>155.33333333333334</ele><time>2026-05-02T16:23:09.548Z</time></trkpt><trkpt lat="45.681499432774444" lon="11.384095766382835"><ele>153.66666666666666</ele><time>2026-05-02T16:23:10.548Z</time></trkpt><trkpt lat="45.68130318978949" lon="11.38421059627112"><ele>152.0</ele><time>2026-05-02T16:23:11.548Z</time></trkpt><trkpt lat="45.681088358800935" lon="11.384331156909136"><ele>151.5</ele><time>2026-05-02T16:23:12.548Z</time></trkpt><trkpt lat="45.68084660130231" lon="11.384441738775923"><ele>151.0</ele><time>2026-05-02T16:23:13.548Z</time></trkpt><trkpt lat="45.68060048807656" lon="11.38454517386813"><ele>151.0</ele><time>2026-05-02T16:23:14.548Z</time></trkpt><trkpt lat="45.68037452270163" lon="11.384620469498168"><ele>151.0</ele><time>2026-05-02T16:23:15.548Z</time></trkpt><trkpt lat="45.68016741120284" lon="11.3847071025318"><ele>151.0</ele><time>2026-05-02T16:23:16.548Z</time></trkpt><trkpt lat="45.67996146942128" lon="11.384785853806234"><ele>151.66666666666669</ele><time>2026-05-02T16:23:17.548Z</time></trkpt><trkpt lat="45.679766459917204" lon="11.384877496470587"><ele>152.33333333333334</ele><time>2026-05-02T16:23:18.548Z</time></trkpt><trkpt lat="45.679559549252424" lon="11.384989508286248"><ele>153.0</ele><time>2026-05-02T16:23:19.548Z</time></trkpt><trkpt lat="45.679354960637355" lon="11.38507737220469"><ele>153.0</ele><time>2026-05-02T16:23:20.548Z</time></trkpt><trkpt lat="45.679137086428206" lon="11.385158810062556"><ele>153.0</ele><time>2026-05-02T16:23:21.548Z</time></trkpt><trkpt lat="45.678917810881075" lon="11.385256729358494"><ele>153.0</ele><time>2026-05-02T16:23:22.548Z</time></trkpt><trkpt lat="45.678702971248924" lon="11.385336912678481"><ele>153.0</ele><time>2026-05-02T16:23:23.548Z</time></trkpt><trkpt lat="45.678489032849996" lon="11.385413453677307"><ele>153.0</ele><time>2026-05-02T16:23:24.548Z</time></trkpt><trkpt lat="45.67828169199885" lon="11.385495414819276"><ele>151.66666666666666</ele><time>2026-05-02T16:23:25.548Z</time></trkpt><trkpt lat="45.678076151256754" lon="11.385582093788218"><ele>150.33333333333331</ele><time>2026-05-02T16:23:26.548Z</time></trkpt><trkpt lat="45.67786425429685" lon="11.385667603388065"><ele>149.0</ele><time>2026-05-02T16:23:27.548Z</time></trkpt><trkpt lat="45.677653421480166" lon="11.385751662751842"><ele>149.0</ele><time>2026-05-02T16:23:28.548Z</time></trkpt><trkpt lat="45.677440356654905" lon="11.385841682089579"><ele>149.0</ele><time>2026-05-02T16:23:29.548Z</time></trkpt><trkpt lat="45.67720509006027" lon="11.385930670645779"><ele>149.0</ele><time>2026-05-02T16:23:30.548Z</time></trkpt><trkpt lat="45.67696037122945" lon="11.386059445136516"><ele>149.0</ele><time>2026-05-02T16:23:31.548Z</time></trkpt><trkpt lat="45.67670156360361" lon="11.386164348167174"><ele>147.0</ele><time>2026-05-02T16:23:32.548Z</time></trkpt><trkpt lat="45.6764465886552" lon="11.386258577043698"><ele>145.0</ele><time>2026-05-02T16:23:33.548Z</time></trkpt><trkpt lat="45.67621008020181" lon="11.386338340376806"><ele>144.0</ele><time>2026-05-02T16:23:34.548Z</time></trkpt><trkpt lat="45.67598133041622" lon="11.386435977794719"><ele>143.0</ele><time>2026-05-02T16:23:35.548Z</time></trkpt><trkpt lat="45.675755331079586" lon="11.386555541436682"><ele>143.0</ele><time>2026-05-02T16:23:36.548Z</time></trkpt><trkpt lat="45.67552194479056" lon="11.386683198109978"><ele>143.0</ele><time>2026-05-02T16:23:37.548Z</time></trkpt><trkpt lat="45.67530998998155" lon="11.386833910780178"><ele>143.0</ele><time>2026-05-02T16:23:38.548Z</time></trkpt><trkpt lat="45.67509661433447" lon="11.387004984710888"><ele>143.0</ele><time>2026-05-02T16:23:39.548Z</time></trkpt><trkpt lat="45.67487974809525" lon="11.387200128956694"><ele>142.5</ele><time>2026-05-02T16:23:40.548Z</time></trkpt><trkpt lat="45.674667814520504" lon="11.38739925019794"><ele>142.0</ele><time>2026-05-02T16:23:41.548Z</time></trkpt><trkpt lat="45.674468844733404" lon="11.387591078891687"><ele>142.0</ele><time>2026-05-02T16:23:42.548Z</time></trkpt><trkpt lat="45.67428350756718" lon="11.387777051731078"><ele>142.0</ele><time>2026-05-02T16:23:43.548Z</time></trkpt><trkpt lat="45.674106614436845" lon="11.387954919894106"><ele>142.0</ele><time>2026-05-02T16:23:44.548Z</time></trkpt><trkpt lat="45.67393856464296" lon="11.388126873247023"><ele>142.33333333333334</ele><time>2026-05-02T16:23:45.548Z</time></trkpt><trkpt lat="45.673780087185875" lon="11.38828770736646"><ele>142.66666666666666</ele><time>2026-05-02T16:23:46.548Z</time></trkpt><trkpt lat="45.67362653530223" lon="11.388445669610961"><ele>143.0</ele><time>2026-05-02T16:23:47.548Z</time></trkpt><trkpt lat="45.673462115090544" lon="11.388612044603079"><ele>143.0</ele><time>2026-05-02T16:23:48.548Z</time></trkpt><trkpt lat="45.67329061732891" lon="11.388774351578084"><ele>143.0</ele><time>2026-05-02T16:23:49.548Z</time></trkpt><trkpt lat="45.67311574535498" lon="11.388946029004114"><ele>143.0</ele><time>2026-05-02T16:23:50.548Z</time></trkpt><trkpt lat="45.67293018668967" lon="11.389124208057737"><ele>141.5</ele><time>2026-05-02T16:23:51.548Z</time></trkpt><trkpt lat="45.67273716129674" lon="11.389324830394393"><ele>140.0</ele><time>2026-05-02T16:23:52.548Z</time></trkpt><trkpt lat="45.67252854986172" lon="11.389540117629348"><ele>140.0</ele><time>2026-05-02T16:23:53.548Z</time></trkpt><trkpt lat="45.67232484233477" lon="11.389740856489055"><ele>140.0</ele><time>2026-05-02T16:23:54.548Z</time></trkpt><trkpt lat="45.67213546288549" lon="11.38992133210501"><ele>140.0</ele><time>2026-05-02T16:23:55.548Z</time></trkpt><trkpt lat="45.67194778076563" lon="11.390105076098616"><ele>140.0</ele><time>2026-05-02T16:23:56.548Z</time></trkpt><trkpt lat="45.67176851702153" lon="11.390280463971251"><ele>140.0</ele><time>2026-05-02T16:23:57.548Z</time></trkpt><trkpt lat="45.671585980118955" lon="11.390458768140864"><ele>139.0</ele><time>2026-05-02T16:23:58.548Z</time></trkpt><trkpt lat="45.6714105681539" lon="11.39062094755578"><ele>138.0</ele><time>2026-05-02T16:23:59.548Z</time></trkpt><trkpt lat="45.671245620844076" lon="11.390790936532023"><ele>137.0</ele><time>2026-05-02T16:24:00.548Z</time></trkpt><trkpt lat="45.6710887871677" lon="11.390946896766613"><ele>136.66666666666666</ele><time>2026-05-02T16:24:01.548Z</time></trkpt><trkpt lat="45.670947767037795" lon="11.39107619755591"><ele>136.33333333333334</ele><time>2026-05-02T16:24:02.548Z</time></trkpt><trkpt lat="45.67081795010546" lon="11.391197568149801"><ele>136.0</ele><time>2026-05-02T16:24:03.548Z</time></trkpt><trkpt lat="45.67068213146176" lon="11.391315965514359"><ele>136.0</ele><time>2026-05-02T16:24:04.548Z</time></trkpt><trkpt lat="45.67055138819714" lon="11.391453373472917"><ele>136.0</ele><time>2026-05-02T16:24:05.548Z</time></trkpt><trkpt lat="45.670411288673414" lon="11.391591798032968"><ele>136.0</ele><time>2026-05-02T16:24:06.548Z</time></trkpt><trkpt lat="45.67027910391489" lon="11.391739784835808"><ele>136.0</ele><time>2026-05-02T16:24:07.548Z</time></trkpt><trkpt lat="45.6701377286553" lon="11.391883123857813"><ele>136.0</ele><time>2026-05-02T16:24:08.548Z</time></trkpt><trkpt lat="45.669994223808914" lon="11.392022919618876"><ele>136.0</ele><time>2026-05-02T16:24:09.548Z</time></trkpt><trkpt lat="45.66984928093084" lon="11.392166810514443"><ele>136.0</ele><time>2026-05-02T16:24:10.548Z</time></trkpt><trkpt lat="45.669700454025126" lon="11.39231315696394"><ele>136.0</ele><time>2026-05-02T16:24:11.548Z</time></trkpt><trkpt lat="45.66955477860469" lon="11.39245602216922"><ele>136.0</ele><time>2026-05-02T16:24:12.548Z</time></trkpt><trkpt lat="45.66941139480399" lon="11.392601687410773"><ele>135.66666666666669</ele><time>2026-05-02T16:24:13.548Z</time></trkpt><trkpt lat="45.66926707201138" lon="11.392759845974432"><ele>135.33333333333334</ele><time>2026-05-02T16:24:14.548Z</time></trkpt><trkpt lat="45.66911174152339" lon="11.392905525814733"><ele>135.0</ele><time>2026-05-02T16:24:15.548Z</time></trkpt><trkpt lat="45.668953846703495" lon="11.393050214820633"><ele>135.0</ele><time>2026-05-02T16:24:16.548Z</time></trkpt><trkpt lat="45.66880063422815" lon="11.393205534196467"><ele>135.0</ele><time>2026-05-02T16:24:17.548Z</time></trkpt><trkpt lat="45.668650117376075" lon="11.393373641559512"><ele>135.0</ele><time>2026-05-02T16:24:18.548Z</time></trkpt><trkpt lat="45.66849593935985" lon="11.39352582135868"><ele>134.66666666666666</ele><time>2026-05-02T16:24:19.548Z</time></trkpt><trkpt lat="45.6683463143125" lon="11.393677413376553"><ele>134.33333333333331</ele><time>2026-05-02T16:24:20.548Z</time></trkpt><trkpt lat="45.668192435713" lon="11.393829462482229"><ele>134.0</ele><time>2026-05-02T16:24:21.548Z</time></trkpt><trkpt lat="45.668041001315224" lon="11.393981662353804"><ele>133.66666666666666</ele><time>2026-05-02T16:24:22.548Z</time></trkpt><trkpt lat="45.667891982412094" lon="11.39412997709222"><ele>133.33333333333334</ele><time>2026-05-02T16:24:23.548Z</time></trkpt><trkpt lat="45.66775959893936" lon="11.394270092392494"><ele>133.0</ele><time>2026-05-02T16:24:24.548Z</time></trkpt><trkpt lat="45.667618117214154" lon="11.394408222179468"><ele>132.33333333333334</ele><time>2026-05-02T16:24:25.548Z</time></trkpt><trkpt lat="45.66748637050137" lon="11.394540600206268"><ele>131.66666666666666</ele><time>2026-05-02T16:24:26.549Z</time></trkpt><trkpt lat="45.667355136595155" lon="11.394671825486663"><ele>131.0</ele><time>2026-05-02T16:24:27.549Z</time></trkpt><trkpt lat="45.667232530283535" lon="11.394788059920936"><ele>131.0</ele><time>2026-05-02T16:24:28.549Z</time></trkpt><trkpt lat="45.66711693076087" lon="11.39490804390215"><ele>131.0</ele><time>2026-05-02T16:24:29.549Z</time></trkpt><trkpt lat="45.66699853658657" lon="11.395016979713837"><ele>131.0</ele><time>2026-05-02T16:24:30.549Z</time></trkpt><trkpt lat="45.66689215603237" lon="11.395125616058401"><ele>131.0</ele><time>2026-05-02T16:24:31.549Z</time></trkpt><trkpt lat="45.66678930084515" lon="11.395238121610793"><ele>130.75</ele><time>2026-05-02T16:24:32.549Z</time></trkpt><trkpt lat="45.66668699671539" lon="11.395356265567056"><ele>130.5</ele><time>2026-05-02T16:24:33.549Z</time></trkpt><trkpt lat="45.666589912878585" lon="11.395478986221839"><ele>130.25</ele><time>2026-05-02T16:24:34.549Z</time></trkpt><trkpt lat="45.66648946014984" lon="11.395590698874823"><ele>130.0</ele><time>2026-05-02T16:24:35.549Z</time></trkpt><trkpt lat="45.66638249643123" lon="11.395674689070015"><ele>130.25</ele><time>2026-05-02T16:24:36.549Z</time></trkpt><trkpt lat="45.66627044582039" lon="11.395714146363185"><ele>130.5</ele><time>2026-05-02T16:24:37.549Z</time></trkpt><trkpt lat="45.666157239454606" lon="11.39569857263122"><ele>130.75</ele><time>2026-05-02T16:24:38.549Z</time></trkpt><trkpt lat="45.666053196905125" lon="11.395740084629018"><ele>131.0</ele><time>2026-05-02T16:24:39.549Z</time></trkpt><trkpt lat="45.665965922003735" lon="11.395853411754203"><ele>131.0</ele><time>2026-05-02T16:24:40.549Z</time></trkpt><trkpt lat="45.66591369253103" lon="11.396018609829435"><ele>131.0</ele><time>2026-05-02T16:24:41.549Z</time></trkpt><trkpt lat="45.6658880649424" lon="11.39620646625784"><ele>131.0</ele><time>2026-05-02T16:24:42.549Z</time></trkpt><trkpt lat="45.66585374735618" lon="11.396400258677911"><ele>131.0</ele><time>2026-05-02T16:24:43.549Z</time></trkpt><trkpt lat="45.665690265316826" lon="11.396546923744218"><ele>130.66666666666666</ele><time>2026-05-02T16:24:44.549Z</time></trkpt><trkpt lat="45.66554081521038" lon="11.396716812817205"><ele>130.33333333333334</ele><time>2026-05-02T16:24:45.549Z</time></trkpt><trkpt lat="45.665378577203725" lon="11.396900134137345"><ele>130.0</ele><time>2026-05-02T16:24:46.549Z</time></trkpt><trkpt lat="45.66523020356131" lon="11.397063604979394"><ele>129.0</ele><time>2026-05-02T16:24:47.549Z</time></trkpt><trkpt lat="45.66507970098694" lon="11.397235438475699"><ele>128.0</ele><time>2026-05-02T16:24:48.549Z</time></trkpt><trkpt lat="45.664928796673486" lon="11.397415386775457"><ele>127.0</ele><time>2026-05-02T16:24:49.549Z</time></trkpt><trkpt lat="45.66476677911258" lon="11.39762519830579"><ele>127.0</ele><time>2026-05-02T16:24:50.549Z</time></trkpt><trkpt lat="45.66459912968234" lon="11.397824161646987"><ele>127.0</ele><time>2026-05-02T16:24:51.549Z</time></trkpt><trkpt lat="45.66445016599089" lon="11.398008126930655"><ele>127.0</ele><time>2026-05-02T16:24:52.549Z</time></trkpt><trkpt lat="45.66430897593765" lon="11.398159337525406"><ele>127.33333333333334</ele><time>2026-05-02T16:24:53.549Z</time></trkpt><trkpt lat="45.664182544107945" lon="11.398321423509282"><ele>127.66666666666666</ele><time>2026-05-02T16:24:54.549Z</time></trkpt><trkpt lat="45.664056619636945" lon="11.398452545357125"><ele>128.0</ele><time>2026-05-02T16:24:55.549Z</time></trkpt><trkpt lat="45.66395336721411" lon="11.39858499527933"><ele>128.0</ele><time>2026-05-02T16:24:56.549Z</time></trkpt><trkpt lat="45.66385027967602" lon="11.398707262261725"><ele>128.0</ele><time>2026-05-02T16:24:57.549Z</time></trkpt><trkpt lat="45.66374175725399" lon="11.398829257055135"><ele>128.0</ele><time>2026-05-02T16:24:58.549Z</time></trkpt><trkpt lat="45.663649019136884" lon="11.398952147672334"><ele>128.0</ele><time>2026-05-02T16:24:59.549Z</time></trkpt><trkpt lat="45.66354894757074" lon="11.399067432769225"><ele>129.0</ele><time>2026-05-02T16:25:00.549Z</time></trkpt><trkpt lat="45.663448064599145" lon="11.399192768467474"><ele>130.0</ele><time>2026-05-02T16:25:01.549Z</time></trkpt><trkpt lat="45.66333839130857" lon="11.39931819719145"><ele>131.0</ele><time>2026-05-02T16:25:02.549Z</time></trkpt><trkpt lat="45.663228707260316" lon="11.399442917625224"><ele>132.0</ele><time>2026-05-02T16:25:03.549Z</time></trkpt><trkpt lat="45.66312226073779" lon="11.39956711066539"><ele>130.66666666666666</ele><time>2026-05-02T16:25:04.549Z</time></trkpt><trkpt lat="45.663029495324565" lon="11.399678337944794"><ele>129.33333333333331</ele><time>2026-05-02T16:25:05.549Z</time></trkpt><trkpt lat="45.6629130266792" lon="11.399842678786293"><ele>128.0</ele><time>2026-05-02T16:25:06.549Z</time></trkpt><trkpt lat="45.66276767271185" lon="11.400013195658866"><ele>128.0</ele><time>2026-05-02T16:25:07.549Z</time></trkpt><trkpt lat="45.662628730430285" lon="11.40022406274709"><ele>128.0</ele><time>2026-05-02T16:25:08.549Z</time></trkpt><trkpt lat="45.662504098131" lon="11.40041247065228"><ele>128.0</ele><time>2026-05-02T16:25:09.549Z</time></trkpt><trkpt lat="45.66239529089332" lon="11.400588160966757"><ele>126.66666666666666</ele><time>2026-05-02T16:25:10.549Z</time></trkpt><trkpt lat="45.66228637037202" lon="11.4007525185377"><ele>125.33333333333334</ele><time>2026-05-02T16:25:11.549Z</time></trkpt><trkpt lat="45.66219042657514" lon="11.40093294021573"><ele>124.0</ele><time>2026-05-02T16:25:12.549Z</time></trkpt><trkpt lat="45.662074939254694" lon="11.401084164968626"><ele>124.0</ele><time>2026-05-02T16:25:13.549Z</time></trkpt><trkpt lat="45.661966919616674" lon="11.401262742602327"><ele>124.0</ele><time>2026-05-02T16:25:14.549Z</time></trkpt><trkpt lat="45.66185373854025" lon="11.401431141781769"><ele>124.0</ele><time>2026-05-02T16:25:15.549Z</time></trkpt><trkpt lat="45.661751161910054" lon="11.401592958873605"><ele>123.75</ele><time>2026-05-02T16:25:16.549Z</time></trkpt><trkpt lat="45.66165111152649" lon="11.40174259471102"><ele>123.5</ele><time>2026-05-02T16:25:17.549Z</time></trkpt><trkpt lat="45.66156578537782" lon="11.401884263348485"><ele>123.25</ele><time>2026-05-02T16:25:18.549Z</time></trkpt><trkpt lat="45.66148524254524" lon="11.402000985984765"><ele>123.0</ele><time>2026-05-02T16:25:19.549Z</time></trkpt><trkpt lat="45.66140796119822" lon="11.40209216522564"><ele>122.80000000000001</ele><time>2026-05-02T16:25:20.549Z</time></trkpt><trkpt lat="45.66132772855366" lon="11.402166821514225"><ele>122.60000000000001</ele><time>2026-05-02T16:25:21.549Z</time></trkpt><trkpt lat="45.66124311798188" lon="11.402214634300803"><ele>122.39999999999999</ele><time>2026-05-02T16:25:22.549Z</time></trkpt><trkpt lat="45.66114192790766" lon="11.402222790307189"><ele>122.19999999999999</ele><time>2026-05-02T16:25:23.549Z</time></trkpt><trkpt lat="45.66103230953617" lon="11.40221569284331"><ele>122.0</ele><time>2026-05-02T16:25:24.549Z</time></trkpt><trkpt lat="45.660913770276615" lon="11.402178853830321"><ele>122.0</ele><time>2026-05-02T16:25:25.549Z</time></trkpt><trkpt lat="45.660785057512925" lon="11.402074032944398"><ele>122.0</ele><time>2026-05-02T16:25:26.549Z</time></trkpt><trkpt lat="45.66067604342503" lon="11.401930386010742"><ele>122.0</ele><time>2026-05-02T16:25:27.549Z</time></trkpt><trkpt lat="45.66053508952631" lon="11.401765173770418"><ele>122.0</ele><time>2026-05-02T16:25:28.549Z</time></trkpt><trkpt lat="45.660404112781826" lon="11.401631971948033"><ele>122.0</ele><time>2026-05-02T16:25:29.549Z</time></trkpt><trkpt lat="45.66028300436223" lon="11.401494486451805"><ele>122.0</ele><time>2026-05-02T16:25:30.549Z</time></trkpt><trkpt lat="45.6601801179081" lon="11.401338888566917"><ele>122.0</ele><time>2026-05-02T16:25:31.549Z</time></trkpt><trkpt lat="45.6600541222669" lon="11.401211052079647"><ele>122.0</ele><time>2026-05-02T16:25:32.549Z</time></trkpt><trkpt lat="45.65993565038396" lon="11.401049480724936"><ele>122.0</ele><time>2026-05-02T16:25:33.549Z</time></trkpt><trkpt lat="45.659812927824845" lon="11.40089733793395"><ele>122.0</ele><time>2026-05-02T16:25:34.549Z</time></trkpt><trkpt lat="45.65968032930974" lon="11.400754271668385"><ele>122.0</ele><time>2026-05-02T16:25:35.549Z</time></trkpt><trkpt lat="45.65955233917375" lon="11.400604309896826"><ele>122.0</ele><time>2026-05-02T16:25:36.549Z</time></trkpt><trkpt lat="45.65941877248884" lon="11.400450071908852"><ele>121.33333333333333</ele><time>2026-05-02T16:25:37.549Z</time></trkpt><trkpt lat="45.65928729198751" lon="11.400287885840285"><ele>120.66666666666666</ele><time>2026-05-02T16:25:38.549Z</time></trkpt><trkpt lat="45.659156937281274" lon="11.400133707285482"><ele>120.0</ele><time>2026-05-02T16:25:39.549Z</time></trkpt><trkpt lat="45.65903822560025" lon="11.399993817121302"><ele>120.0</ele><time>2026-05-02T16:25:40.549Z</time></trkpt><trkpt lat="45.65892516843774" lon="11.399863176060396"><ele>120.0</ele><time>2026-05-02T16:25:41.549Z</time></trkpt><trkpt lat="45.65880989053414" lon="11.399731453742575"><ele>120.0</ele><time>2026-05-02T16:25:42.549Z</time></trkpt><trkpt lat="45.65870948846739" lon="11.399608934103082"><ele>120.0</ele><time>2026-05-02T16:25:43.549Z</time></trkpt><trkpt lat="45.65862134711212" lon="11.399475562332759"><ele>119.75</ele><time>2026-05-02T16:25:44.549Z</time></trkpt><trkpt lat="45.6585237680631" lon="11.399359440434933"><ele>119.5</ele><time>2026-05-02T16:25:45.549Z</time></trkpt><trkpt lat="45.65843260582503" lon="11.399251584543649"><ele>119.25</ele><time>2026-05-02T16:25:46.549Z</time></trkpt><trkpt lat="45.658359902605" lon="11.399137724123051"><ele>119.0</ele><time>2026-05-02T16:25:47.549Z</time></trkpt><trkpt lat="45.65835381873394" lon="11.398973577397095"><ele>119.5</ele><time>2026-05-02T16:25:48.549Z</time></trkpt><trkpt lat="45.65832970094663" lon="11.39881143668312"><ele>120.0</ele><time>2026-05-02T16:25:49.549Z</time></trkpt><trkpt lat="45.658270638569014" lon="11.39868316869894"><ele>120.5</ele><time>2026-05-02T16:25:50.549Z</time></trkpt><trkpt lat="45.65816661133542" lon="11.398597401635426"><ele>121.0</ele><time>2026-05-02T16:25:51.549Z</time></trkpt><trkpt lat="45.658023335732246" lon="11.398675962360532"><ele>121.0</ele><time>2026-05-02T16:25:52.549Z</time></trkpt><trkpt lat="45.657917018035334" lon="11.398726831257294"><ele>121.0</ele><time>2026-05-02T16:25:53.549Z</time></trkpt><trkpt lat="45.657818027978365" lon="11.39874376154213"><ele>121.0</ele><time>2026-05-02T16:25:54.549Z</time></trkpt><trkpt lat="45.65767222361907" lon="11.398722164444198"><ele>121.0</ele><time>2026-05-02T16:25:55.549Z</time></trkpt><trkpt lat="45.65755477068418" lon="11.39863379896074"><ele>119.75</ele><time>2026-05-02T16:25:56.549Z</time></trkpt><trkpt lat="45.65742694688311" lon="11.398604016464287"><ele>118.5</ele><time>2026-05-02T16:25:57.549Z</time></trkpt><trkpt lat="45.65728553172142" lon="11.398575202344848"><ele>117.25</ele><time>2026-05-02T16:25:58.549Z</time></trkpt><trkpt lat="45.65713137451291" lon="11.39854665471614"><ele>116.0</ele><time>2026-05-02T16:25:59.549Z</time></trkpt><trkpt lat="45.65696424234446" lon="11.398536002670143"><ele>115.66666666666666</ele><time>2026-05-02T16:26:00.549Z</time></trkpt><trkpt lat="45.65679401905138" lon="11.398490272790669"><ele>115.33333333333334</ele><time>2026-05-02T16:26:01.549Z</time></trkpt><trkpt lat="45.65661345152298" lon="11.398452250453078"><ele>115.0</ele><time>2026-05-02T16:26:02.549Z</time></trkpt><trkpt lat="45.65642075986638" lon="11.398406586604635"><ele>115.0</ele><time>2026-05-02T16:26:03.549Z</time></trkpt><trkpt lat="45.656239584851164" lon="11.398365648653035"><ele>115.0</ele><time>2026-05-02T16:26:04.549Z</time></trkpt><trkpt lat="45.65606968479224" lon="11.398317127389474"><ele>115.0</ele><time>2026-05-02T16:26:05.549Z</time></trkpt><trkpt lat="45.655910481835" lon="11.398235044877453"><ele>115.0</ele><time>2026-05-02T16:26:06.549Z</time></trkpt><trkpt lat="45.65575344115551" lon="11.398110307788695"><ele>115.0</ele><time>2026-05-02T16:26:07.549Z</time></trkpt><trkpt lat="45.65560576558476" lon="11.39795447013544"><ele>115.0</ele><time>2026-05-02T16:26:08.549Z</time></trkpt><trkpt lat="45.65547898982572" lon="11.397781934597706"><ele>115.0</ele><time>2026-05-02T16:26:09.549Z</time></trkpt><trkpt lat="45.655374382916726" lon="11.397598109403202"><ele>115.0</ele><time>2026-05-02T16:26:10.549Z</time></trkpt><trkpt lat="45.6552855299991" lon="11.39738197592411"><ele>115.0</ele><time>2026-05-02T16:26:11.549Z</time></trkpt><trkpt lat="45.65519937876054" lon="11.397159910490032"><ele>114.66666666666667</ele><time>2026-05-02T16:26:12.549Z</time></trkpt><trkpt lat="45.655121810031396" lon="11.396947406127369"><ele>114.33333333333334</ele><time>2026-05-02T16:26:13.549Z</time></trkpt><trkpt lat="45.65504055769986" lon="11.396750125828666"><ele>114.0</ele><time>2026-05-02T16:26:14.549Z</time></trkpt><trkpt lat="45.65495314471367" lon="11.39656247659313"><ele>114.0</ele><time>2026-05-02T16:26:15.549Z</time></trkpt><trkpt lat="45.6548802229311" lon="11.396357069675355"><ele>114.0</ele><time>2026-05-02T16:26:16.549Z</time></trkpt><trkpt lat="45.654800309178064" lon="11.396145871841648"><ele>114.0</ele><time>2026-05-02T16:26:17.549Z</time></trkpt><trkpt lat="45.65471752977939" lon="11.395928089385697"><ele>114.33333333333334</ele><time>2026-05-02T16:26:18.549Z</time></trkpt><trkpt lat="45.65463492935138" lon="11.395709503855931"><ele>114.66666666666667</ele><time>2026-05-02T16:26:19.549Z</time></trkpt><trkpt lat="45.654556811412135" lon="11.395493169516408"><ele>115.0</ele><time>2026-05-02T16:26:20.549Z</time></trkpt><trkpt lat="45.65448124354503" lon="11.395270662679621"><ele>115.66666666666667</ele><time>2026-05-02T16:26:21.549Z</time></trkpt><trkpt lat="45.65439423139435" lon="11.395068233065805"><ele>116.33333333333334</ele><time>2026-05-02T16:26:22.549Z</time></trkpt><trkpt lat="45.65430591158813" lon="11.394860979593334"><ele>117.0</ele><time>2026-05-02T16:26:23.549Z</time></trkpt><trkpt lat="45.65422868590676" lon="11.39466383420285"><ele>117.25</ele><time>2026-05-02T16:26:24.549Z</time></trkpt><trkpt lat="45.65415044061" lon="11.394488509201198"><ele>117.5</ele><time>2026-05-02T16:26:25.549Z</time></trkpt><trkpt lat="45.65407425081353" lon="11.394327959496964"><ele>117.75</ele><time>2026-05-02T16:26:26.549Z</time></trkpt><trkpt lat="45.65401630159288" lon="11.394188906288289"><ele>118.0</ele><time>2026-05-02T16:26:27.549Z</time></trkpt><trkpt lat="45.65396097106101" lon="11.394070293362407"><ele>118.0</ele><time>2026-05-02T16:26:28.549Z</time></trkpt><trkpt lat="45.653924166170164" lon="11.393947716187116"><ele>118.00000000000001</ele><time>2026-05-02T16:26:29.549Z</time></trkpt><trkpt lat="45.65388479863743" lon="11.39385267682582"><ele>118.00000000000001</ele><time>2026-05-02T16:26:30.549Z</time></trkpt><trkpt lat="45.65387529511643" lon="11.393724249526317"><ele>118.0</ele><time>2026-05-02T16:26:31.549Z</time></trkpt><trkpt lat="45.65384566194178" lon="11.393582879287733"><ele>118.0</ele><time>2026-05-02T16:26:32.549Z</time></trkpt><trkpt lat="45.653781716457914" lon="11.393479234761493"><ele>118.0</ele><time>2026-05-02T16:26:33.549Z</time></trkpt><trkpt lat="45.6536875272826" lon="11.393420190128804"><ele>118.0</ele><time>2026-05-02T16:26:34.549Z</time></trkpt><trkpt lat="45.65365395022334" lon="11.393242663438425"><ele>118.0</ele><time>2026-05-02T16:26:35.549Z</time></trkpt><trkpt lat="45.65358779765428" lon="11.393065198192874"><ele>118.0</ele><time>2026-05-02T16:26:36.549Z</time></trkpt><trkpt lat="45.65350007208883" lon="11.39285093095572"><ele>118.33333333333334</ele><time>2026-05-02T16:26:37.549Z</time></trkpt><trkpt lat="45.653409108717376" lon="11.392619022230459"><ele>118.66666666666666</ele><time>2026-05-02T16:26:38.549Z</time></trkpt><trkpt lat="45.65332680995728" lon="11.39240788267792"><ele>119.0</ele><time>2026-05-02T16:26:39.549Z</time></trkpt><trkpt lat="45.65322995914223" lon="11.392199521662889"><ele>119.66666666666666</ele><time>2026-05-02T16:26:40.549Z</time></trkpt><trkpt lat="45.65315228801293" lon="11.391962478901757"><ele>120.33333333333334</ele><time>2026-05-02T16:26:41.549Z</time></trkpt><trkpt lat="45.6530627333721" lon="11.39173542645388"><ele>121.0</ele><time>2026-05-02T16:26:42.549Z</time></trkpt><trkpt lat="45.65297050206497" lon="11.391501587716812"><ele>120.66666666666667</ele><time>2026-05-02T16:26:43.549Z</time></trkpt><trkpt lat="45.652873123042525" lon="11.391254697713597"><ele>120.33333333333334</ele><time>2026-05-02T16:26:44.549Z</time></trkpt><trkpt lat="45.652770400435564" lon="11.390993821607523"><ele>120.0</ele><time>2026-05-02T16:26:45.549Z</time></trkpt><trkpt lat="45.65266985365339" lon="11.39073677881207"><ele>120.33333333333334</ele><time>2026-05-02T16:26:46.549Z</time></trkpt><trkpt lat="45.652564979767796" lon="11.39046863296409"><ele>120.66666666666667</ele><time>2026-05-02T16:26:47.549Z</time></trkpt><trkpt lat="45.65246190299903" lon="11.390206263334436"><ele>121.0</ele><time>2026-05-02T16:26:48.549Z</time></trkpt><trkpt lat="45.65236380632815" lon="11.38995669938771"><ele>121.0</ele><time>2026-05-02T16:26:49.549Z</time></trkpt><trkpt lat="45.652261402300496" lon="11.389697388699407"><ele>121.0</ele><time>2026-05-02T16:26:50.549Z</time></trkpt><trkpt lat="45.65215844963393" lon="11.389437942787003"><ele>121.0</ele><time>2026-05-02T16:26:51.549Z</time></trkpt><trkpt lat="45.65204686746155" lon="11.389187677359384"><ele>121.33333333333334</ele><time>2026-05-02T16:26:52.549Z</time></trkpt><trkpt lat="45.65194448717682" lon="11.388921647371705"><ele>121.66666666666666</ele><time>2026-05-02T16:26:53.549Z</time></trkpt><trkpt lat="45.65184531556191" lon="11.388650214028978"><ele>122.0</ele><time>2026-05-02T16:26:54.549Z</time></trkpt><trkpt lat="45.65174727205863" lon="11.388375030782425"><ele>122.0</ele><time>2026-05-02T16:26:55.549Z</time></trkpt><trkpt lat="45.65163906246401" lon="11.388105905762426"><ele>122.0</ele><time>2026-05-02T16:26:56.549Z</time></trkpt><trkpt lat="45.65153504808505" lon="11.387839372277366"><ele>122.0</ele><time>2026-05-02T16:26:57.549Z</time></trkpt><trkpt lat="45.65142598536051" lon="11.387574633090159"><ele>122.0</ele><time>2026-05-02T16:26:58.549Z</time></trkpt><trkpt lat="45.65131518092911" lon="11.38733665878402"><ele>122.0</ele><time>2026-05-02T16:26:59.549Z</time></trkpt><trkpt lat="45.65119544557257" lon="11.387119118961632"><ele>122.0</ele><time>2026-05-02T16:27:00.549Z</time></trkpt><trkpt lat="45.6510517015391" lon="11.38692615320522"><ele>122.66666666666666</ele><time>2026-05-02T16:27:01.549Z</time></trkpt><trkpt lat="45.6508851263888" lon="11.38676411264732"><ele>123.33333333333334</ele><time>2026-05-02T16:27:02.549Z</time></trkpt><trkpt lat="45.65071810692429" lon="11.386601057991882"><ele>124.0</ele><time>2026-05-02T16:27:03.549Z</time></trkpt><trkpt lat="45.65050512800642" lon="11.386508839651471"><ele>124.0</ele><time>2026-05-02T16:27:04.549Z</time></trkpt><trkpt lat="45.65029211003152" lon="11.386400588161093"><ele>124.0</ele><time>2026-05-02T16:27:05.549Z</time></trkpt><trkpt lat="45.65009242307484" lon="11.386355543118935"><ele>124.0</ele><time>2026-05-02T16:27:06.549Z</time></trkpt><trkpt lat="45.649889337187595" lon="11.386294368612969"><ele>124.66666666666667</ele><time>2026-05-02T16:27:07.549Z</time></trkpt><trkpt lat="45.649693554466246" lon="11.386205733340946"><ele>125.33333333333334</ele><time>2026-05-02T16:27:08.549Z</time></trkpt><trkpt lat="45.64950587664937" lon="11.386165916551784"><ele>126.0</ele><time>2026-05-02T16:27:09.549Z</time></trkpt><trkpt lat="45.64931884088023" lon="11.38609739156795"><ele>126.33333333333334</ele><time>2026-05-02T16:27:10.549Z</time></trkpt><trkpt lat="45.64912434945317" lon="11.386042051890657"><ele>126.66666666666667</ele><time>2026-05-02T16:27:11.549Z</time></trkpt><trkpt lat="45.648928415022" lon="11.385985335233702"><ele>127.0</ele><time>2026-05-02T16:27:12.549Z</time></trkpt><trkpt lat="45.648732575990245" lon="11.385912190784074"><ele>127.0</ele><time>2026-05-02T16:27:13.549Z</time></trkpt><trkpt lat="45.64853907622985" lon="11.385853379810056"><ele>127.0</ele><time>2026-05-02T16:27:14.549Z</time></trkpt><trkpt lat="45.648344097212586" lon="11.385791015467012"><ele>127.0</ele><time>2026-05-02T16:27:15.549Z</time></trkpt><trkpt lat="45.64815224361131" lon="11.385727570214726"><ele>127.0</ele><time>2026-05-02T16:27:16.549Z</time></trkpt><trkpt lat="45.647960831377354" lon="11.385654018158686"><ele>127.0</ele><time>2026-05-02T16:27:17.549Z</time></trkpt><trkpt lat="45.6477707473121" lon="11.385577457164901"><ele>127.0</ele><time>2026-05-02T16:27:18.549Z</time></trkpt><trkpt lat="45.64758052679416" lon="11.385512667789984"><ele>128.33333333333334</ele><time>2026-05-02T16:27:19.549Z</time></trkpt><trkpt lat="45.6473867927306" lon="11.385436630041374"><ele>129.66666666666666</ele><time>2026-05-02T16:27:20.549Z</time></trkpt><trkpt lat="45.64717550446872" lon="11.385354152673672"><ele>131.0</ele><time>2026-05-02T16:27:21.549Z</time></trkpt><trkpt lat="45.64695158611076" lon="11.385277304042253"><ele>132.0</ele><time>2026-05-02T16:27:22.549Z</time></trkpt><trkpt lat="45.64671329860325" lon="11.385206931570298"><ele>133.0</ele><time>2026-05-02T16:27:23.549Z</time></trkpt><trkpt lat="45.646485337603565" lon="11.385134321216583"><ele>133.0</ele><time>2026-05-02T16:27:24.549Z</time></trkpt><trkpt lat="45.64627907381501" lon="11.385059230466988"><ele>133.0</ele><time>2026-05-02T16:27:25.549Z</time></trkpt><trkpt lat="45.64606859703668" lon="11.384998003080165"><ele>133.0</ele><time>2026-05-02T16:27:26.549Z</time></trkpt><trkpt lat="45.64585224119941" lon="11.384919008173826"><ele>133.0</ele><time>2026-05-02T16:27:27.549Z</time></trkpt><trkpt lat="45.64563188584383" lon="11.384845227498529"><ele>133.0</ele><time>2026-05-02T16:27:28.549Z</time></trkpt><trkpt lat="45.64543617399328" lon="11.384776562139674"><ele>133.0</ele><time>2026-05-02T16:27:29.549Z</time></trkpt><trkpt lat="45.64525277439448" lon="11.384722604906031"><ele>134.0</ele><time>2026-05-02T16:27:30.549Z</time></trkpt><trkpt lat="45.645082550671496" lon="11.384665465774995"><ele>135.0</ele><time>2026-05-02T16:27:31.549Z</time></trkpt><trkpt lat="45.64491830167986" lon="11.3846180896027"><ele>136.0</ele><time>2026-05-02T16:27:32.549Z</time></trkpt><trkpt lat="45.644747878702496" lon="11.384563657464314"><ele>136.0</ele><time>2026-05-02T16:27:33.549Z</time></trkpt><trkpt lat="45.64455484943155" lon="11.384474766585722"><ele>136.0</ele><time>2026-05-02T16:27:34.549Z</time></trkpt><trkpt lat="45.64434080479869" lon="11.384401599671406"><ele>136.0</ele><time>2026-05-02T16:27:35.549Z</time></trkpt><trkpt lat="45.644107647053005" lon="11.384321899337507"><ele>136.0</ele><time>2026-05-02T16:27:36.549Z</time></trkpt><trkpt lat="45.643851564919444" lon="11.384234362751855"><ele>136.0</ele><time>2026-05-02T16:27:37.549Z</time></trkpt><trkpt lat="45.64359661944035" lon="11.384148052302026"><ele>135.5</ele><time>2026-05-02T16:27:38.549Z</time></trkpt><trkpt lat="45.64332615917005" lon="11.384056924551954"><ele>135.0</ele><time>2026-05-02T16:27:39.549Z</time></trkpt><trkpt lat="45.643078570491014" lon="11.383973503129479"><ele>135.0</ele><time>2026-05-02T16:27:40.549Z</time></trkpt><trkpt lat="45.642842738068246" lon="11.383925690191427"><ele>135.0</ele><time>2026-05-02T16:27:41.549Z</time></trkpt><trkpt lat="45.6426246851016" lon="11.383847740298682"><ele>140.66666666666666</ele><time>2026-05-02T16:27:42.549Z</time></trkpt><trkpt lat="45.642419733648076" lon="11.383769691732185"><ele>146.33333333333331</ele><time>2026-05-02T16:27:43.549Z</time></trkpt><trkpt lat="45.642238938843846" lon="11.383704096788236"><ele>152.0</ele><time>2026-05-02T16:27:44.549Z</time></trkpt><trkpt lat="45.64206013060892" lon="11.383616692643947"><ele>150.0</ele><time>2026-05-02T16:27:45.549Z</time></trkpt><trkpt lat="45.64189479008421" lon="11.38348752286513"><ele>148.0</ele><time>2026-05-02T16:27:46.549Z</time></trkpt><trkpt lat="45.64174511798119" lon="11.383311282504867"><ele>146.0</ele><time>2026-05-02T16:27:47.549Z</time></trkpt><trkpt lat="45.64160829232171" lon="11.383109765267667"><ele>150.33333333333331</ele><time>2026-05-02T16:27:48.549Z</time></trkpt><trkpt lat="45.64147815485711" lon="11.382877108271096"><ele>154.66666666666666</ele><time>2026-05-02T16:27:49.549Z</time></trkpt><trkpt lat="45.641358306011696" lon="11.382625495482715"><ele>159.0</ele><time>2026-05-02T16:27:50.549Z</time></trkpt><trkpt lat="45.6412736915488" lon="11.382376149384397"><ele>161.66666666666666</ele><time>2026-05-02T16:27:51.549Z</time></trkpt><trkpt lat="45.641203889221096" lon="11.382107466814562"><ele>164.33333333333331</ele><time>2026-05-02T16:27:52.549Z</time></trkpt><trkpt lat="45.641159235564594" lon="11.381848105946993"><ele>167.0</ele><time>2026-05-02T16:27:53.549Z</time></trkpt><trkpt lat="45.64113921352888" lon="11.381577437309394"><ele>161.0</ele><time>2026-05-02T16:27:54.549Z</time></trkpt><trkpt lat="45.64113164916248" lon="11.38131262674555"><ele>155.0</ele><time>2026-05-02T16:27:55.549Z</time></trkpt><trkpt lat="45.641124082275326" lon="11.381087384634268"><ele>149.0</ele><time>2026-05-02T16:27:56.549Z</time></trkpt><trkpt lat="45.641100080968116" lon="11.38088087983916"><ele>149.0</ele><time>2026-05-02T16:27:57.549Z</time></trkpt><trkpt lat="45.6410455246004" lon="11.380668572124241"><ele>149.0</ele><time>2026-05-02T16:27:58.549Z</time></trkpt><trkpt lat="45.640954480714484" lon="11.380465241992743"><ele>149.0</ele><time>2026-05-02T16:27:59.549Z</time></trkpt><trkpt lat="45.64084332594489" lon="11.380275346945716"><ele>149.75</ele><time>2026-05-02T16:28:00.549Z</time></trkpt><trkpt lat="45.640745102923596" lon="11.380101248698582"><ele>150.5</ele><time>2026-05-02T16:28:01.549Z</time></trkpt><trkpt lat="45.6406693734529" lon="11.379930689491681"><ele>151.25</ele><time>2026-05-02T16:28:02.549Z</time></trkpt><trkpt lat="45.64062451079927" lon="11.379761758703953"><ele>152.0</ele><time>2026-05-02T16:28:03.549Z</time></trkpt><trkpt lat="45.6406095594752" lon="11.379568209733552"><ele>153.25</ele><time>2026-05-02T16:28:04.549Z</time></trkpt><trkpt lat="45.64062455638756" lon="11.379375111204943"><ele>154.5</ele><time>2026-05-02T16:28:05.549Z</time></trkpt><trkpt lat="45.640668780232" lon="11.379182050293817"><ele>155.75</ele><time>2026-05-02T16:28:06.549Z</time></trkpt><trkpt lat="45.64073603883728" lon="11.37903866180478"><ele>157.0</ele><time>2026-05-02T16:28:07.549Z</time></trkpt><trkpt lat="45.64083345985956" lon="11.378912876636443"><ele>158.2</ele><time>2026-05-02T16:28:08.549Z</time></trkpt><trkpt lat="45.64094776364982" lon="11.378839642809858"><ele>159.39999999999998</ele><time>2026-05-02T16:28:09.549Z</time></trkpt><trkpt lat="45.6410231547486" lon="11.378730445755021"><ele>160.60000000000002</ele><time>2026-05-02T16:28:10.549Z</time></trkpt><trkpt lat="45.64104893197231" lon="11.378594298371558"><ele>161.8</ele><time>2026-05-02T16:28:11.549Z</time></trkpt><trkpt lat="45.64102632387082" lon="11.378440411335008"><ele>163.0</ele><time>2026-05-02T16:28:12.549Z</time></trkpt><trkpt lat="45.64097783679775" lon="11.378299306181747"><ele>163.0</ele><time>2026-05-02T16:28:13.549Z</time></trkpt><trkpt lat="45.6409018854051" lon="11.378180616889793"><ele>163.0</ele><time>2026-05-02T16:28:14.549Z</time></trkpt><trkpt lat="45.64078549609849" lon="11.378081729594173"><ele>163.0</ele><time>2026-05-02T16:28:15.549Z</time></trkpt><trkpt lat="45.640688842418946" lon="11.377977523160617"><ele>163.0</ele><time>2026-05-02T16:28:16.549Z</time></trkpt><trkpt lat="45.640604259619955" lon="11.377885425527243"><ele>164.66666666666669</ele><time>2026-05-02T16:28:17.549Z</time></trkpt><trkpt lat="45.640544704929084" lon="11.377767049238235"><ele>166.33333333333334</ele><time>2026-05-02T16:28:18.549Z</time></trkpt><trkpt lat="45.64051326166476" lon="11.37765268772179"><ele>168.0</ele><time>2026-05-02T16:28:19.549Z</time></trkpt><trkpt lat="45.64049827175473" lon="11.377533314307641"><ele>169.66666666666666</ele><time>2026-05-02T16:28:20.549Z</time></trkpt><trkpt lat="45.6404736771812" lon="11.377413673947498"><ele>171.33333333333331</ele><time>2026-05-02T16:28:21.549Z</time></trkpt><trkpt lat="45.640422290722654" lon="11.377313190002898"><ele>173.0</ele><time>2026-05-02T16:28:22.549Z</time></trkpt><trkpt lat="45.64030596342924" lon="11.377329188710355"><ele>173.5</ele><time>2026-05-02T16:28:23.549Z</time></trkpt><trkpt lat="45.64023024929754" lon="11.377389287412786"><ele>174.0</ele><time>2026-05-02T16:28:24.549Z</time></trkpt><trkpt lat="45.64014024229964" lon="11.377529189942026"><ele>174.5</ele><time>2026-05-02T16:28:25.549Z</time></trkpt><trkpt lat="45.64005840981445" lon="11.377685669871829"><ele>175.0</ele><time>2026-05-02T16:28:26.549Z</time></trkpt><trkpt lat="45.639974345921885" lon="11.377833308625837"><ele>175.0</ele><time>2026-05-02T16:28:27.549Z</time></trkpt><trkpt lat="45.63990488702726" lon="11.37794859291417"><ele>175.0</ele><time>2026-05-02T16:28:28.549Z</time></trkpt><trkpt lat="45.63983096035218" lon="11.378071964806074"><ele>175.0</ele><time>2026-05-02T16:28:29.549Z</time></trkpt><trkpt lat="45.63973531573548" lon="11.378145883703011"><ele>175.0</ele><time>2026-05-02T16:28:30.549Z</time></trkpt><trkpt lat="45.639624667356784" lon="11.378165095750905"><ele>175.0</ele><time>2026-05-02T16:28:31.549Z</time></trkpt><trkpt lat="45.63950943103205" lon="11.378124129309903"><ele>175.5</ele><time>2026-05-02T16:28:32.549Z</time></trkpt><trkpt lat="45.63940970103603" lon="11.378012850271132"><ele>176.0</ele><time>2026-05-02T16:28:33.549Z</time></trkpt><trkpt lat="45.63935354063482" lon="11.377848327016435"><ele>176.5</ele><time>2026-05-02T16:28:34.549Z</time></trkpt><trkpt lat="45.63929847657549" lon="11.377683352947932"><ele>177.0</ele><time>2026-05-02T16:28:35.549Z</time></trkpt><trkpt lat="45.63930933312542" lon="11.377486412719716"><ele>177.0</ele><time>2026-05-02T16:28:36.549Z</time></trkpt><trkpt lat="45.63933051789931" lon="11.377285412056198"><ele>177.0</ele><time>2026-05-02T16:28:37.549Z</time></trkpt><trkpt lat="45.63941555304934" lon="11.377103187512025"><ele>177.0</ele><time>2026-05-02T16:28:38.55Z</time></trkpt><trkpt lat="45.639498197669084" lon="11.376893816944074"><ele>179.66666666666666</ele><time>2026-05-02T16:28:39.55Z</time></trkpt><trkpt lat="45.63960084550807" lon="11.376661965080006"><ele>182.33333333333331</ele><time>2026-05-02T16:28:40.55Z</time></trkpt><trkpt lat="45.63973601973656" lon="11.376438744855173"><ele>185.0</ele><time>2026-05-02T16:28:41.55Z</time></trkpt><trkpt lat="45.639873140066165" lon="11.37622901286641"><ele>186.5</ele><time>2026-05-02T16:28:42.55Z</time></trkpt><trkpt lat="45.64001726790585" lon="11.37607177541836"><ele>188.0</ele><time>2026-05-02T16:28:43.55Z</time></trkpt><trkpt lat="45.640118272652195" lon="11.375931583636396"><ele>189.5</ele><time>2026-05-02T16:28:44.55Z</time></trkpt><trkpt lat="45.64018312879135" lon="11.375785508312408"><ele>191.0</ele><time>2026-05-02T16:28:45.55Z</time></trkpt><trkpt lat="45.64019701541267" lon="11.375656746168886"><ele>193.5</ele><time>2026-05-02T16:28:46.55Z</time></trkpt><trkpt lat="45.6401604603087" lon="11.37551319066988"><ele>196.0</ele><time>2026-05-02T16:28:47.55Z</time></trkpt><trkpt lat="45.64006917004988" lon="11.375400723975218"><ele>198.5</ele><time>2026-05-02T16:28:48.55Z</time></trkpt><trkpt lat="45.639948770195645" lon="11.375355795915521"><ele>201.0</ele><time>2026-05-02T16:28:49.55Z</time></trkpt><trkpt lat="45.639811389063105" lon="11.375379534161823"><ele>201.0</ele><time>2026-05-02T16:28:50.55Z</time></trkpt><trkpt lat="45.63966576089129" lon="11.375485794176894"><ele>201.0</ele><time>2026-05-02T16:28:51.55Z</time></trkpt><trkpt lat="45.639515293662264" lon="11.375624460523769"><ele>201.0</ele><time>2026-05-02T16:28:52.55Z</time></trkpt><trkpt lat="45.63939266931173" lon="11.375713776665693"><ele>201.25</ele><time>2026-05-02T16:28:53.55Z</time></trkpt><trkpt lat="45.63928456883739" lon="11.375744351738268"><ele>201.5</ele><time>2026-05-02T16:28:54.55Z</time></trkpt><trkpt lat="45.6391873488158" lon="11.37570515583316"><ele>201.75</ele><time>2026-05-02T16:28:55.55Z</time></trkpt><trkpt lat="45.639095078088" lon="11.375591896976028"><ele>202.0</ele><time>2026-05-02T16:28:56.55Z</time></trkpt><trkpt lat="45.639034635589425" lon="11.37540016358501"><ele>202.0</ele><time>2026-05-02T16:28:57.55Z</time></trkpt><trkpt lat="45.63892285076722" lon="11.375186926254168"><ele>202.0</ele><time>2026-05-02T16:28:58.55Z</time></trkpt><trkpt lat="45.63883309546227" lon="11.374953604480964"><ele>202.0</ele><time>2026-05-02T16:28:59.55Z</time></trkpt><trkpt lat="45.63870725486266" lon="11.374746808642712"><ele>203.33333333333331</ele><time>2026-05-02T16:29:00.55Z</time></trkpt><trkpt lat="45.638558987996916" lon="11.37457536867064"><ele>204.66666666666669</ele><time>2026-05-02T16:29:01.55Z</time></trkpt><trkpt lat="45.63839563434447" lon="11.374424049357485"><ele>206.0</ele><time>2026-05-02T16:29:02.55Z</time></trkpt><trkpt lat="45.638231449508275" lon="11.374342034189615"><ele>206.0</ele><time>2026-05-02T16:29:03.55Z</time></trkpt><trkpt lat="45.63807332338588" lon="11.374285763296047"><ele>206.0</ele><time>2026-05-02T16:29:04.55Z</time></trkpt><trkpt lat="45.637942806942426" lon="11.374191363459952"><ele>206.0</ele><time>2026-05-02T16:29:05.55Z</time></trkpt><trkpt lat="45.63781440655632" lon="11.374096741961838"><ele>206.25</ele><time>2026-05-02T16:29:06.55Z</time></trkpt><trkpt lat="45.63770833519873" lon="11.373961293194077"><ele>206.5</ele><time>2026-05-02T16:29:07.55Z</time></trkpt><trkpt lat="45.63763701600911" lon="11.373782195834256"><ele>206.75</ele><time>2026-05-02T16:29:08.55Z</time></trkpt><trkpt lat="45.63757469481295" lon="11.373584566569283"><ele>207.0</ele><time>2026-05-02T16:29:09.55Z</time></trkpt><trkpt lat="45.637505707958205" lon="11.373379552878259"><ele>207.66666666666669</ele><time>2026-05-02T16:29:10.55Z</time></trkpt><trkpt lat="45.63742147492048" lon="11.373167146870406"><ele>208.33333333333334</ele><time>2026-05-02T16:29:11.55Z</time></trkpt><trkpt lat="45.637323357949555" lon="11.37293608996945"><ele>209.0</ele><time>2026-05-02T16:29:12.55Z</time></trkpt><trkpt lat="45.63721479477946" lon="11.372729865403489"><ele>210.66666666666669</ele><time>2026-05-02T16:29:13.55Z</time></trkpt><trkpt lat="45.637086987471136" lon="11.372561768858564"><ele>212.33333333333331</ele><time>2026-05-02T16:29:14.55Z</time></trkpt><trkpt lat="45.6369259652864" lon="11.372459748680768"><ele>214.0</ele><time>2026-05-02T16:29:15.55Z</time></trkpt><trkpt lat="45.636738258976514" lon="11.37236806343236"><ele>214.0</ele><time>2026-05-02T16:29:16.55Z</time></trkpt><trkpt lat="45.636543766408785" lon="11.372288824129733"><ele>214.0</ele><time>2026-05-02T16:29:17.55Z</time></trkpt><trkpt lat="45.63632857156715" lon="11.372185282782441"><ele>214.0</ele><time>2026-05-02T16:29:18.55Z</time></trkpt><trkpt lat="45.63614538134263" lon="11.37210617506638"><ele>215.33333333333331</ele><time>2026-05-02T16:29:19.55Z</time></trkpt><trkpt lat="45.63597004935786" lon="11.372080536550135"><ele>216.66666666666669</ele><time>2026-05-02T16:29:20.55Z</time></trkpt><trkpt lat="45.63577480228522" lon="11.372115297650044"><ele>218.0</ele><time>2026-05-02T16:29:21.55Z</time></trkpt><trkpt lat="45.63559222256796" lon="11.372207385760857"><ele>218.0</ele><time>2026-05-02T16:29:22.55Z</time></trkpt><trkpt lat="45.63540888763147" lon="11.372352479371653"><ele>218.0</ele><time>2026-05-02T16:29:23.55Z</time></trkpt><trkpt lat="45.63525104740761" lon="11.372470945458884"><ele>218.0</ele><time>2026-05-02T16:29:24.55Z</time></trkpt><trkpt lat="45.635134828005704" lon="11.372558667562423"><ele>224.75</ele><time>2026-05-02T16:29:25.55Z</time></trkpt><trkpt lat="45.63506409907067" lon="11.372676345133751"><ele>231.5</ele><time>2026-05-02T16:29:26.55Z</time></trkpt><trkpt lat="45.635034081429986" lon="11.372836498013479"><ele>238.25</ele><time>2026-05-02T16:29:27.55Z</time></trkpt><trkpt lat="45.635026532412574" lon="11.372989232168793"><ele>245.0</ele><time>2026-05-02T16:29:28.55Z</time></trkpt><trkpt lat="45.6350998020051" lon="11.373125861714326"><ele>245.0</ele><time>2026-05-02T16:29:29.55Z</time></trkpt><trkpt lat="45.6352311359337" lon="11.37319541141632"><ele>245.0</ele><time>2026-05-02T16:29:30.55Z</time></trkpt><trkpt lat="45.635357443848086" lon="11.373228643176073"><ele>245.0</ele><time>2026-05-02T16:29:31.55Z</time></trkpt><trkpt lat="45.63550507244717" lon="11.373279868526568"><ele>245.0</ele><time>2026-05-02T16:29:32.55Z</time></trkpt><trkpt lat="45.635611061316546" lon="11.373406281778166"><ele>248.0</ele><time>2026-05-02T16:29:33.55Z</time></trkpt><trkpt lat="45.63570791703134" lon="11.373562122922799"><ele>251.0</ele><time>2026-05-02T16:29:34.55Z</time></trkpt><trkpt lat="45.63584690745428" lon="11.373717077262876"><ele>254.0</ele><time>2026-05-02T16:29:35.55Z</time></trkpt><trkpt lat="45.63599285093138" lon="11.373865662374243"><ele>254.0</ele><time>2026-05-02T16:29:36.55Z</time></trkpt><trkpt lat="45.63611899678634" lon="11.373951404988661"><ele>253.99999999999997</ele><time>2026-05-02T16:29:37.55Z</time></trkpt><trkpt lat="45.63621539690944" lon="11.373991206287524"><ele>253.99999999999997</ele><time>2026-05-02T16:29:38.55Z</time></trkpt><trkpt lat="45.63630200220291" lon="11.374023416664881"><ele>254.0</ele><time>2026-05-02T16:29:39.55Z</time></trkpt><trkpt lat="45.63638090034747" lon="11.37410442563023"><ele>254.0</ele><time>2026-05-02T16:29:41.55Z</time></trkpt><trkpt lat="45.636263430710834" lon="11.374197957116039"><ele>254.0</ele><time>2026-05-02T16:29:43.55Z</time></trkpt><trkpt lat="45.636183466445026" lon="11.374118589348473"><ele>254.0</ele><time>2026-05-02T16:29:44.55Z</time></trkpt><trkpt lat="45.636077156300914" lon="11.374046613949506"><ele>254.0</ele><time>2026-05-02T16:29:45.55Z</time></trkpt><trkpt lat="45.63592667133309" lon="11.373978513924808"><ele>254.0</ele><time>2026-05-02T16:29:46.55Z</time></trkpt><trkpt lat="45.63577388589856" lon="11.37386873579041"><ele>243.33333333333334</ele><time>2026-05-02T16:29:47.55Z</time></trkpt><trkpt lat="45.63559032574603" lon="11.373720785021664"><ele>232.66666666666669</ele><time>2026-05-02T16:29:48.55Z</time></trkpt><trkpt lat="45.63543879340908" lon="11.37360688444242"><ele>222.0</ele><time>2026-05-02T16:29:49.55Z</time></trkpt><trkpt lat="45.63531098703095" lon="11.373543631149655"><ele>229.66666666666669</ele><time>2026-05-02T16:29:50.55Z</time></trkpt><trkpt lat="45.63516805290919" lon="11.37353956886094"><ele>237.33333333333334</ele><time>2026-05-02T16:29:51.55Z</time></trkpt><trkpt lat="45.63499980129714" lon="11.373563795354222"><ele>245.0</ele><time>2026-05-02T16:29:52.55Z</time></trkpt><trkpt lat="45.63481698555049" lon="11.373614283519938"><ele>245.0</ele><time>2026-05-02T16:29:53.55Z</time></trkpt><trkpt lat="45.63464796510257" lon="11.373658049741133"><ele>245.0</ele><time>2026-05-02T16:29:54.55Z</time></trkpt><trkpt lat="45.63449413716119" lon="11.373653247922835"><ele>245.0</ele><time>2026-05-02T16:29:55.55Z</time></trkpt><trkpt lat="45.63433437422172" lon="11.3735664841656"><ele>249.66666666666669</ele><time>2026-05-02T16:29:56.55Z</time></trkpt><trkpt lat="45.63417227059576" lon="11.37347661554282"><ele>254.33333333333331</ele><time>2026-05-02T16:29:57.55Z</time></trkpt><trkpt lat="45.634040050317864" lon="11.373402620352351"><ele>259.0</ele><time>2026-05-02T16:29:58.55Z</time></trkpt><trkpt lat="45.633899307345615" lon="11.373348301861071"><ele>259.0</ele><time>2026-05-02T16:29:59.55Z</time></trkpt><trkpt lat="45.6337684717335" lon="11.37327111883128"><ele>259.0</ele><time>2026-05-02T16:30:00.55Z</time></trkpt><trkpt lat="45.633636737153516" lon="11.373209716331614"><ele>259.0</ele><time>2026-05-02T16:30:01.55Z</time></trkpt><trkpt lat="45.63351581167606" lon="11.37314000817218"><ele>259.0</ele><time>2026-05-02T16:30:02.55Z</time></trkpt><trkpt lat="45.63340081812367" lon="11.373076538034107"><ele>258.5</ele><time>2026-05-02T16:30:03.55Z</time></trkpt><trkpt lat="45.633285193630456" lon="11.372988870463239"><ele>258.0</ele><time>2026-05-02T16:30:04.55Z</time></trkpt><trkpt lat="45.63316485917785" lon="11.372917394778616"><ele>257.5</ele><time>2026-05-02T16:30:05.55Z</time></trkpt><trkpt lat="45.63305095049045" lon="11.3728524231393"><ele>257.0</ele><time>2026-05-02T16:30:06.55Z</time></trkpt><trkpt lat="45.63294540079311" lon="11.372793937961557"><ele>257.0</ele><time>2026-05-02T16:30:07.55Z</time></trkpt><trkpt lat="45.63284557152605" lon="11.372729745798235"><ele>257.0</ele><time>2026-05-02T16:30:08.55Z</time></trkpt><trkpt lat="45.632735312362456" lon="11.372654996979753"><ele>257.0</ele><time>2026-05-02T16:30:09.55Z</time></trkpt><trkpt lat="45.63263352169517" lon="11.372600474474037"><ele>257.0</ele><time>2026-05-02T16:30:10.55Z</time></trkpt><trkpt lat="45.63253193327001" lon="11.372524681850352"><ele>255.5</ele><time>2026-05-02T16:30:11.55Z</time></trkpt><trkpt lat="45.63243166669473" lon="11.372467135434087"><ele>254.0</ele><time>2026-05-02T16:30:12.55Z</time></trkpt><trkpt lat="45.632333635968855" lon="11.372441327875586"><ele>252.5</ele><time>2026-05-02T16:30:13.55Z</time></trkpt><trkpt lat="45.632218008226005" lon="11.372399212329327"><ele>251.0</ele><time>2026-05-02T16:30:14.55Z</time></trkpt><trkpt lat="45.6320845201223" lon="11.372408190744391"><ele>250.66666666666669</ele><time>2026-05-02T16:30:15.55Z</time></trkpt><trkpt lat="45.631947523198704" lon="11.372460670919285"><ele>250.33333333333331</ele><time>2026-05-02T16:30:16.55Z</time></trkpt><trkpt lat="45.631812101709" lon="11.37256156005281"><ele>250.0</ele><time>2026-05-02T16:30:17.55Z</time></trkpt><trkpt lat="45.63168667109619" lon="11.372693882638316"><ele>250.0</ele><time>2026-05-02T16:30:18.55Z</time></trkpt><trkpt lat="45.631537001591234" lon="11.372845840696868"><ele>250.0</ele><time>2026-05-02T16:30:19.55Z</time></trkpt><trkpt lat="45.63139474892598" lon="11.37301513025784"><ele>250.0</ele><time>2026-05-02T16:30:20.55Z</time></trkpt><trkpt lat="45.63126422106925" lon="11.373165543723461"><ele>251.0</ele><time>2026-05-02T16:30:21.55Z</time></trkpt><trkpt lat="45.63112998829967" lon="11.373320227082008"><ele>252.0</ele><time>2026-05-02T16:30:22.55Z</time></trkpt><trkpt lat="45.630997072592585" lon="11.37347542266582"><ele>253.0</ele><time>2026-05-02T16:30:23.55Z</time></trkpt><trkpt lat="45.630867036712274" lon="11.373626128822178"><ele>253.0</ele><time>2026-05-02T16:30:24.55Z</time></trkpt><trkpt lat="45.630741737511165" lon="11.373791610319461"><ele>253.0</ele><time>2026-05-02T16:30:25.55Z</time></trkpt><trkpt lat="45.630610967325836" lon="11.373936616504846"><ele>253.0</ele><time>2026-05-02T16:30:26.55Z</time></trkpt><trkpt lat="45.63048956169045" lon="11.374087795498074"><ele>252.33333333333331</ele><time>2026-05-02T16:30:27.55Z</time></trkpt><trkpt lat="45.63037273520641" lon="11.374224050602875"><ele>251.66666666666669</ele><time>2026-05-02T16:30:28.55Z</time></trkpt><trkpt lat="45.63023857270343" lon="11.374356043563425"><ele>251.0</ele><time>2026-05-02T16:30:29.55Z</time></trkpt><trkpt lat="45.63010681731231" lon="11.374489876254497"><ele>251.0</ele><time>2026-05-02T16:30:30.55Z</time></trkpt><trkpt lat="45.62997149891864" lon="11.374612128152178"><ele>251.0</ele><time>2026-05-02T16:30:31.55Z</time></trkpt><trkpt lat="45.62982411159995" lon="11.374720774267583"><ele>251.0</ele><time>2026-05-02T16:30:32.55Z</time></trkpt><trkpt lat="45.62967505156712" lon="11.37481964277436"><ele>250.0</ele><time>2026-05-02T16:30:33.55Z</time></trkpt><trkpt lat="45.62952133967991" lon="11.374918394923375"><ele>249.0</ele><time>2026-05-02T16:30:34.55Z</time></trkpt><trkpt lat="45.62936904184348" lon="11.375024961880465"><ele>248.0</ele><time>2026-05-02T16:30:35.55Z</time></trkpt><trkpt lat="45.629215371753546" lon="11.375136550363838"><ele>247.0</ele><time>2026-05-02T16:30:36.55Z</time></trkpt><trkpt lat="45.6290614244448" lon="11.375261702072518"><ele>246.0</ele><time>2026-05-02T16:30:37.55Z</time></trkpt><trkpt lat="45.62890466049681" lon="11.375376003544929"><ele>245.0</ele><time>2026-05-02T16:30:38.55Z</time></trkpt><trkpt lat="45.62875051309977" lon="11.375483550691266"><ele>244.66666666666669</ele><time>2026-05-02T16:30:39.55Z</time></trkpt><trkpt lat="45.62859212828952" lon="11.375594562567406"><ele>244.33333333333331</ele><time>2026-05-02T16:30:40.55Z</time></trkpt><trkpt lat="45.62843388977468" lon="11.375695762444133"><ele>244.0</ele><time>2026-05-02T16:30:41.55Z</time></trkpt><trkpt lat="45.62827633616173" lon="11.375802806744066"><ele>244.0</ele><time>2026-05-02T16:30:42.55Z</time></trkpt><trkpt lat="45.62811981531001" lon="11.375910208922619"><ele>244.0</ele><time>2026-05-02T16:30:43.55Z</time></trkpt><trkpt lat="45.62795748626518" lon="11.376020744594442"><ele>244.0</ele><time>2026-05-02T16:30:44.55Z</time></trkpt><trkpt lat="45.62779286461064" lon="11.376115403294872"><ele>245.0</ele><time>2026-05-02T16:30:45.55Z</time></trkpt><trkpt lat="45.62763180497806" lon="11.376212140040375"><ele>246.0</ele><time>2026-05-02T16:30:46.55Z</time></trkpt><trkpt lat="45.62747019055173" lon="11.376301864477732"><ele>247.0</ele><time>2026-05-02T16:30:47.55Z</time></trkpt><trkpt lat="45.62727997613912" lon="11.376359654901005"><ele>244.0</ele><time>2026-05-02T16:30:48.55Z</time></trkpt><trkpt lat="45.62710788548309" lon="11.376428336068154"><ele>241.0</ele><time>2026-05-02T16:30:49.55Z</time></trkpt><trkpt lat="45.62694259208599" lon="11.376508180097394"><ele>238.0</ele><time>2026-05-02T16:30:50.55Z</time></trkpt><trkpt lat="45.6267628888651" lon="11.376558760462016"><ele>238.0</ele><time>2026-05-02T16:30:51.55Z</time></trkpt><trkpt lat="45.626591692756016" lon="11.376627010588907"><ele>238.0</ele><time>2026-05-02T16:30:52.55Z</time></trkpt><trkpt lat="45.626418150725684" lon="11.37669120009912"><ele>238.0</ele><time>2026-05-02T16:30:53.55Z</time></trkpt><trkpt lat="45.62625545176983" lon="11.376744223361879"><ele>238.33333333333331</ele><time>2026-05-02T16:30:54.55Z</time></trkpt><trkpt lat="45.62607680725571" lon="11.376755120216663"><ele>238.66666666666669</ele><time>2026-05-02T16:30:55.55Z</time></trkpt><trkpt lat="45.62590493023722" lon="11.376795807290863"><ele>239.0</ele><time>2026-05-02T16:30:56.55Z</time></trkpt><trkpt lat="45.62574022203233" lon="11.376861947383782"><ele>239.0</ele><time>2026-05-02T16:30:57.55Z</time></trkpt><trkpt lat="45.62556887559729" lon="11.376916322959792"><ele>239.0</ele><time>2026-05-02T16:30:58.55Z</time></trkpt><trkpt lat="45.62540094791435" lon="11.376970287253402"><ele>239.0</ele><time>2026-05-02T16:30:59.55Z</time></trkpt><trkpt lat="45.625229717133244" lon="11.377022977525877"><ele>235.66666666666669</ele><time>2026-05-02T16:31:00.55Z</time></trkpt><trkpt lat="45.625055856737106" lon="11.377078285138229"><ele>232.33333333333331</ele><time>2026-05-02T16:31:01.55Z</time></trkpt><trkpt lat="45.62487574617696" lon="11.377163792480815"><ele>229.0</ele><time>2026-05-02T16:31:02.55Z</time></trkpt><trkpt lat="45.62469941392085" lon="11.377277259895273"><ele>229.0</ele><time>2026-05-02T16:31:03.55Z</time></trkpt><trkpt lat="45.62454187028842" lon="11.377418678965604"><ele>229.0</ele><time>2026-05-02T16:31:04.55Z</time></trkpt><trkpt lat="45.624383570581415" lon="11.377598219911354"><ele>229.0</ele><time>2026-05-02T16:31:05.55Z</time></trkpt><trkpt lat="45.62423368345423" lon="11.37778299994777"><ele>229.66666666666666</ele><time>2026-05-02T16:31:06.55Z</time></trkpt><trkpt lat="45.62408837522816" lon="11.37795587719301"><ele>230.33333333333331</ele><time>2026-05-02T16:31:07.55Z</time></trkpt><trkpt lat="45.623941406849134" lon="11.37810506566085"><ele>231.0</ele><time>2026-05-02T16:31:08.55Z</time></trkpt><trkpt lat="45.62378749764588" lon="11.37824152869647"><ele>236.33333333333331</ele><time>2026-05-02T16:31:09.55Z</time></trkpt><trkpt lat="45.623616135212174" lon="11.378361602330466"><ele>241.66666666666666</ele><time>2026-05-02T16:31:10.55Z</time></trkpt><trkpt lat="45.62342958947781" lon="11.378473876126378"><ele>247.0</ele><time>2026-05-02T16:31:11.55Z</time></trkpt><trkpt lat="45.6232368786571" lon="11.378538537118366"><ele>247.0</ele><time>2026-05-02T16:31:12.55Z</time></trkpt><trkpt lat="45.62305528718255" lon="11.378602622218631"><ele>247.0</ele><time>2026-05-02T16:31:13.55Z</time></trkpt><trkpt lat="45.62289467643142" lon="11.37870145819437"><ele>247.0</ele><time>2026-05-02T16:31:14.55Z</time></trkpt><trkpt lat="45.622706455341515" lon="11.378811707295528"><ele>241.66666666666666</ele><time>2026-05-02T16:31:15.55Z</time></trkpt><trkpt lat="45.622582313420175" lon="11.37905230791396"><ele>236.33333333333331</ele><time>2026-05-02T16:31:16.55Z</time></trkpt><trkpt lat="45.62241280343531" lon="11.379267787673783"><ele>231.0</ele><time>2026-05-02T16:31:17.55Z</time></trkpt><trkpt lat="45.62224792490343" lon="11.379515794287872"><ele>229.5</ele><time>2026-05-02T16:31:18.55Z</time></trkpt><trkpt lat="45.62206959290288" lon="11.379800815852663"><ele>228.0</ele><time>2026-05-02T16:31:19.55Z</time></trkpt><trkpt lat="45.62191805277063" lon="11.380067318956753"><ele>228.0</ele><time>2026-05-02T16:31:20.55Z</time></trkpt><trkpt lat="45.62178135295508" lon="11.380334446053793"><ele>228.0</ele><time>2026-05-02T16:31:21.55Z</time></trkpt><trkpt lat="45.62163924781222" lon="11.380565240470306"><ele>228.0</ele><time>2026-05-02T16:31:22.55Z</time></trkpt><trkpt lat="45.621493941659615" lon="11.38078167670224"><ele>226.33333333333331</ele><time>2026-05-02T16:31:23.55Z</time></trkpt><trkpt lat="45.62134727188628" lon="11.380991772705901"><ele>224.66666666666666</ele><time>2026-05-02T16:31:24.55Z</time></trkpt><trkpt lat="45.62119695945957" lon="11.38116146023687"><ele>223.0</ele><time>2026-05-02T16:31:25.55Z</time></trkpt><trkpt lat="45.621041698773574" lon="11.381345940486579"><ele>217.33333333333331</ele><time>2026-05-02T16:31:26.55Z</time></trkpt><trkpt lat="45.62085631111151" lon="11.381492851078102"><ele>211.66666666666669</ele><time>2026-05-02T16:31:27.55Z</time></trkpt><trkpt lat="45.620679940936796" lon="11.38162811862795"><ele>206.0</ele><time>2026-05-02T16:31:28.55Z</time></trkpt><trkpt lat="45.620494034598885" lon="11.381738496772023"><ele>207.0</ele><time>2026-05-02T16:31:29.55Z</time></trkpt><trkpt lat="45.62028655086527" lon="11.381811160717154"><ele>208.0</ele><time>2026-05-02T16:31:30.55Z</time></trkpt><trkpt lat="45.62008334527616" lon="11.381862971159249"><ele>209.0</ele><time>2026-05-02T16:31:31.55Z</time></trkpt><trkpt lat="45.61984315134124" lon="11.381862032541394"><ele>209.0</ele><time>2026-05-02T16:31:32.55Z</time></trkpt><trkpt lat="45.61958600977751" lon="11.381852234372467"><ele>209.0</ele><time>2026-05-02T16:31:33.55Z</time></trkpt><trkpt lat="45.619324565249286" lon="11.381834780156884"><ele>205.0</ele><time>2026-05-02T16:31:34.55Z</time></trkpt><trkpt lat="45.619082945169055" lon="11.381827681746964"><ele>201.0</ele><time>2026-05-02T16:31:35.55Z</time></trkpt><trkpt lat="45.61885443966429" lon="11.381820372752479"><ele>199.66666666666669</ele><time>2026-05-02T16:31:36.55Z</time></trkpt><trkpt lat="45.61864962346113" lon="11.381796560931553"><ele>198.33333333333334</ele><time>2026-05-02T16:31:37.55Z</time></trkpt><trkpt lat="45.61843242913717" lon="11.381809233946063"><ele>197.0</ele><time>2026-05-02T16:31:38.55Z</time></trkpt><trkpt lat="45.61821955396603" lon="11.38184483680742"><ele>197.0</ele><time>2026-05-02T16:31:39.55Z</time></trkpt><trkpt lat="45.6179982936637" lon="11.381876868522703"><ele>197.0</ele><time>2026-05-02T16:31:40.55Z</time></trkpt><trkpt lat="45.61777674994039" lon="11.3819151520354"><ele>197.0</ele><time>2026-05-02T16:31:41.55Z</time></trkpt><trkpt lat="45.61754960091793" lon="11.381952238820062"><ele>194.33333333333334</ele><time>2026-05-02T16:31:42.55Z</time></trkpt><trkpt lat="45.61732694319012" lon="11.381962839738328"><ele>191.66666666666669</ele><time>2026-05-02T16:31:43.55Z</time></trkpt><trkpt lat="45.617106424901756" lon="11.38196258356894"><ele>189.0</ele><time>2026-05-02T16:31:44.55Z</time></trkpt><trkpt lat="45.61688006244452" lon="11.381932011195786"><ele>188.0</ele><time>2026-05-02T16:31:45.55Z</time></trkpt><trkpt lat="45.61666000116642" lon="11.381874623188894"><ele>187.0</ele><time>2026-05-02T16:31:46.55Z</time></trkpt><trkpt lat="45.6164408186843" lon="11.381805552506332"><ele>186.0</ele><time>2026-05-02T16:31:47.55Z</time></trkpt><trkpt lat="45.61622070419251" lon="11.381724107819888"><ele>182.0</ele><time>2026-05-02T16:31:48.55Z</time></trkpt><trkpt lat="45.61600840208783" lon="11.381601166555196"><ele>178.0</ele><time>2026-05-02T16:31:49.55Z</time></trkpt><trkpt lat="45.61579778035828" lon="11.381458370296903"><ele>177.66666666666669</ele><time>2026-05-02T16:31:50.55Z</time></trkpt><trkpt lat="45.61559751215577" lon="11.381301416532613"><ele>177.33333333333334</ele><time>2026-05-02T16:31:51.55Z</time></trkpt><trkpt lat="45.615415492062795" lon="11.38115236263857"><ele>177.0</ele><time>2026-05-02T16:31:52.55Z</time></trkpt><trkpt lat="45.61523738851679" lon="11.380998076519756"><ele>177.0</ele><time>2026-05-02T16:31:53.55Z</time></trkpt><trkpt lat="45.61504519364363" lon="11.38086254709422"><ele>177.0</ele><time>2026-05-02T16:31:54.55Z</time></trkpt><trkpt lat="45.61485112285685" lon="11.380741843746089"><ele>177.0</ele><time>2026-05-02T16:31:55.55Z</time></trkpt><trkpt lat="45.614665171782846" lon="11.380636521730986"><ele>176.33333333333334</ele><time>2026-05-02T16:31:56.55Z</time></trkpt><trkpt lat="45.614473354020774" lon="11.380566941070779"><ele>175.66666666666669</ele><time>2026-05-02T16:31:57.55Z</time></trkpt><trkpt lat="45.61426709493783" lon="11.38050224533877"><ele>175.0</ele><time>2026-05-02T16:31:58.55Z</time></trkpt><trkpt lat="45.61405263234775" lon="11.380460605608253"><ele>175.0</ele><time>2026-05-02T16:31:59.55Z</time></trkpt><trkpt lat="45.613851730502994" lon="11.380413074714411"><ele>175.0</ele><time>2026-05-02T16:32:00.55Z</time></trkpt><trkpt lat="45.61365278521405" lon="11.380375936637284"><ele>175.0</ele><time>2026-05-02T16:32:01.55Z</time></trkpt><trkpt lat="45.61345547225556" lon="11.380343083328937"><ele>174.66666666666669</ele><time>2026-05-02T16:32:02.55Z</time></trkpt><trkpt lat="45.61325153172219" lon="11.380303564848877"><ele>174.33333333333334</ele><time>2026-05-02T16:32:03.55Z</time></trkpt><trkpt lat="45.613047455653664" lon="11.380277499263617"><ele>174.0</ele><time>2026-05-02T16:32:04.55Z</time></trkpt><trkpt lat="45.61284989884717" lon="11.380240547505071"><ele>174.33333333333334</ele><time>2026-05-02T16:32:05.55Z</time></trkpt><trkpt lat="45.6126669534873" lon="11.380194036403385"><ele>174.66666666666669</ele><time>2026-05-02T16:32:06.55Z</time></trkpt><trkpt lat="45.61248220819748" lon="11.380136746165656"><ele>175.0</ele><time>2026-05-02T16:32:07.55Z</time></trkpt><trkpt lat="45.612291178826354" lon="11.380102195687583"><ele>175.0</ele><time>2026-05-02T16:32:08.55Z</time></trkpt><trkpt lat="45.612098970716296" lon="11.380052709750023"><ele>175.0</ele><time>2026-05-02T16:32:09.55Z</time></trkpt><trkpt lat="45.61190382903398" lon="11.380012152603392"><ele>175.0</ele><time>2026-05-02T16:32:10.55Z</time></trkpt><trkpt lat="45.61170481592138" lon="11.3799596195442"><ele>173.33333333333334</ele><time>2026-05-02T16:32:11.55Z</time></trkpt><trkpt lat="45.611494137575455" lon="11.379884712972673"><ele>171.66666666666666</ele><time>2026-05-02T16:32:12.55Z</time></trkpt><trkpt lat="45.61127797652485" lon="11.379786761129019"><ele>170.0</ele><time>2026-05-02T16:32:13.55Z</time></trkpt><trkpt lat="45.61106258296671" lon="11.379698124180015"><ele>170.33333333333331</ele><time>2026-05-02T16:32:14.55Z</time></trkpt><trkpt lat="45.6108568715507" lon="11.379619150600183"><ele>170.66666666666666</ele><time>2026-05-02T16:32:15.55Z</time></trkpt><trkpt lat="45.61065771018229" lon="11.379545900505708"><ele>171.0</ele><time>2026-05-02T16:32:16.55Z</time></trkpt><trkpt lat="45.61045145214143" lon="11.379465342538953"><ele>169.33333333333334</ele><time>2026-05-02T16:32:17.55Z</time></trkpt><trkpt lat="45.61026285184419" lon="11.379412031490661"><ele>167.66666666666669</ele><time>2026-05-02T16:32:18.55Z</time></trkpt><trkpt lat="45.61006344625054" lon="11.379357789868553"><ele>166.0</ele><time>2026-05-02T16:32:19.55Z</time></trkpt><trkpt lat="45.609860988341644" lon="11.379341081945332"><ele>166.0</ele><time>2026-05-02T16:32:20.55Z</time></trkpt><trkpt lat="45.60966499233444" lon="11.379318613236542"><ele>166.0</ele><time>2026-05-02T16:32:21.55Z</time></trkpt><trkpt lat="45.609451462406064" lon="11.379293046761278"><ele>166.0</ele><time>2026-05-02T16:32:22.55Z</time></trkpt><trkpt lat="45.60924558348551" lon="11.379269413064275"><ele>165.0</ele><time>2026-05-02T16:32:23.55Z</time></trkpt><trkpt lat="45.60903393391739" lon="11.379258598065695"><ele>164.0</ele><time>2026-05-02T16:32:24.55Z</time></trkpt><trkpt lat="45.608817164814546" lon="11.379225425653795"><ele>163.0</ele><time>2026-05-02T16:32:25.55Z</time></trkpt><trkpt lat="45.60860642261706" lon="11.3792151712467"><ele>162.0</ele><time>2026-05-02T16:32:26.55Z</time></trkpt><trkpt lat="45.60839086397299" lon="11.37923126471775"><ele>161.0</ele><time>2026-05-02T16:32:27.55Z</time></trkpt><trkpt lat="45.60815510256687" lon="11.379255737469197"><ele>161.0</ele><time>2026-05-02T16:32:28.55Z</time></trkpt><trkpt lat="45.607939155264944" lon="11.379321019386403"><ele>161.0</ele><time>2026-05-02T16:32:29.55Z</time></trkpt><trkpt lat="45.60772184831704" lon="11.37938650391765"><ele>161.0</ele><time>2026-05-02T16:32:30.55Z</time></trkpt><trkpt lat="45.6075131622401" lon="11.379476527490429"><ele>160.66666666666666</ele><time>2026-05-02T16:32:31.55Z</time></trkpt><trkpt lat="45.60731492966817" lon="11.379587828997076"><ele>160.33333333333334</ele><time>2026-05-02T16:32:32.55Z</time></trkpt><trkpt lat="45.6071177281376" lon="11.379723094966133"><ele>160.0</ele><time>2026-05-02T16:32:33.55Z</time></trkpt><trkpt lat="45.606911772885915" lon="11.379877227491239"><ele>160.0</ele><time>2026-05-02T16:32:34.55Z</time></trkpt><trkpt lat="45.60669608870155" lon="11.380054127562357"><ele>160.0</ele><time>2026-05-02T16:32:35.55Z</time></trkpt><trkpt lat="45.60646548806481" lon="11.380239547048"><ele>160.0</ele><time>2026-05-02T16:32:36.55Z</time></trkpt><trkpt lat="45.6062236741014" lon="11.380434725621821"><ele>160.0</ele><time>2026-05-02T16:32:37.55Z</time></trkpt><trkpt lat="45.606000173332646" lon="11.380613795098615"><ele>157.5</ele><time>2026-05-02T16:32:38.55Z</time></trkpt><trkpt lat="45.60579095309588" lon="11.3807946795924"><ele>155.0</ele><time>2026-05-02T16:32:39.55Z</time></trkpt><trkpt lat="45.60559494745928" lon="11.380941997224802"><ele>155.0</ele><time>2026-05-02T16:32:40.55Z</time></trkpt><trkpt lat="45.60540597267503" lon="11.381104043524708"><ele>155.0</ele><time>2026-05-02T16:32:41.55Z</time></trkpt><trkpt lat="45.60521134340468" lon="11.381241094419558"><ele>155.0</ele><time>2026-05-02T16:32:42.55Z</time></trkpt><trkpt lat="45.60501562440302" lon="11.381380871267366"><ele>154.66666666666666</ele><time>2026-05-02T16:32:43.55Z</time></trkpt><trkpt lat="45.604821401466296" lon="11.38151831260376"><ele>154.33333333333334</ele><time>2026-05-02T16:32:44.55Z</time></trkpt><trkpt lat="45.60461693295762" lon="11.381638969746023"><ele>154.0</ele><time>2026-05-02T16:32:45.55Z</time></trkpt><trkpt lat="45.60441149312483" lon="11.381748068301828"><ele>152.66666666666669</ele><time>2026-05-02T16:32:46.55Z</time></trkpt><trkpt lat="45.60421102054717" lon="11.381844404249222"><ele>151.33333333333334</ele><time>2026-05-02T16:32:47.55Z</time></trkpt><trkpt lat="45.6040058228233" lon="11.381919555666434"><ele>150.0</ele><time>2026-05-02T16:32:48.55Z</time></trkpt><trkpt lat="45.60380262834152" lon="11.38194908030688"><ele>149.66666666666666</ele><time>2026-05-02T16:32:49.55Z</time></trkpt><trkpt lat="45.603586829930414" lon="11.381993772292013"><ele>149.33333333333331</ele><time>2026-05-02T16:32:50.551Z</time></trkpt><trkpt lat="45.60338619574879" lon="11.382020267396287"><ele>149.0</ele><time>2026-05-02T16:32:51.551Z</time></trkpt><trkpt lat="45.603174832085365" lon="11.382034248866823"><ele>149.0</ele><time>2026-05-02T16:32:52.551Z</time></trkpt><trkpt lat="45.602969091119384" lon="11.38205584428091"><ele>149.0</ele><time>2026-05-02T16:32:53.551Z</time></trkpt><trkpt lat="45.60275594100974" lon="11.382053673627924"><ele>149.0</ele><time>2026-05-02T16:32:54.551Z</time></trkpt><trkpt lat="45.60254658612948" lon="11.38201497673988"><ele>149.66666666666666</ele><time>2026-05-02T16:32:55.551Z</time></trkpt><trkpt lat="45.602335746469734" lon="11.382013939948473"><ele>150.33333333333334</ele><time>2026-05-02T16:32:56.551Z</time></trkpt><trkpt lat="45.602134647693816" lon="11.382043164492703"><ele>151.0</ele><time>2026-05-02T16:32:57.551Z</time></trkpt><trkpt lat="45.60193015487018" lon="11.382053820702472"><ele>151.0</ele><time>2026-05-02T16:32:58.551Z</time></trkpt><trkpt lat="45.60171670686543" lon="11.382022307522048"><ele>151.0</ele><time>2026-05-02T16:32:59.551Z</time></trkpt><trkpt lat="45.6015017600547" lon="11.382039352578062"><ele>151.0</ele><time>2026-05-02T16:33:00.551Z</time></trkpt><trkpt lat="45.601296582166306" lon="11.382031038472523"><ele>151.66666666666669</ele><time>2026-05-02T16:33:01.551Z</time></trkpt><trkpt lat="45.601085869677526" lon="11.382024528161306"><ele>152.33333333333334</ele><time>2026-05-02T16:33:02.551Z</time></trkpt><trkpt lat="45.600877392852254" lon="11.382009764826892"><ele>153.0</ele><time>2026-05-02T16:33:03.551Z</time></trkpt><trkpt lat="45.60066447662155" lon="11.381967842485473"><ele>153.0</ele><time>2026-05-02T16:33:04.551Z</time></trkpt><trkpt lat="45.60047328883914" lon="11.38191355185471"><ele>153.0</ele><time>2026-05-02T16:33:05.551Z</time></trkpt><trkpt lat="45.60029046248695" lon="11.381841180641564"><ele>153.0</ele><time>2026-05-02T16:33:06.551Z</time></trkpt><trkpt lat="45.60010008099944" lon="11.38174885595623"><ele>153.33333333333334</ele><time>2026-05-02T16:33:07.551Z</time></trkpt><trkpt lat="45.599922476328324" lon="11.381642357612852"><ele>153.66666666666669</ele><time>2026-05-02T16:33:08.551Z</time></trkpt><trkpt lat="45.5997532192861" lon="11.381514658822947"><ele>154.0</ele><time>2026-05-02T16:33:09.551Z</time></trkpt><trkpt lat="45.59958889207735" lon="11.381385041804853"><ele>155.0</ele><time>2026-05-02T16:33:10.551Z</time></trkpt><trkpt lat="45.5994242654347" lon="11.381293413675753"><ele>156.0</ele><time>2026-05-02T16:33:11.551Z</time></trkpt><trkpt lat="45.599255849775545" lon="11.381156938533422"><ele>157.0</ele><time>2026-05-02T16:33:12.551Z</time></trkpt><trkpt lat="45.59909648700076" lon="11.380993922050683"><ele>157.0</ele><time>2026-05-02T16:33:13.551Z</time></trkpt><trkpt lat="45.59895134301645" lon="11.380806204445838"><ele>157.0</ele><time>2026-05-02T16:33:14.551Z</time></trkpt><trkpt lat="45.59881102430537" lon="11.380636454766444"><ele>157.0</ele><time>2026-05-02T16:33:15.551Z</time></trkpt><trkpt lat="45.598687799110394" lon="11.38044197529604"><ele>157.0</ele><time>2026-05-02T16:33:16.551Z</time></trkpt><trkpt lat="45.5985596584127" lon="11.380241024724139"><ele>157.0</ele><time>2026-05-02T16:33:17.551Z</time></trkpt><trkpt lat="45.59843350236395" lon="11.38003197703097"><ele>157.0</ele><time>2026-05-02T16:33:18.551Z</time></trkpt><trkpt lat="45.59831791386229" lon="11.379810124384434"><ele>157.0</ele><time>2026-05-02T16:33:19.551Z</time></trkpt><trkpt lat="45.59820933049765" lon="11.379569131836892"><ele>157.0</ele><time>2026-05-02T16:33:20.551Z</time></trkpt><trkpt lat="45.59809369994377" lon="11.379336281103532"><ele>157.0</ele><time>2026-05-02T16:33:21.551Z</time></trkpt><trkpt lat="45.59801233081193" lon="11.379107383601857"><ele>157.0</ele><time>2026-05-02T16:33:22.551Z</time></trkpt><trkpt lat="45.59790977568333" lon="11.37890537580993"><ele>157.0</ele><time>2026-05-02T16:33:23.551Z</time></trkpt><trkpt lat="45.59783057949309" lon="11.378703176132271"><ele>157.0</ele><time>2026-05-02T16:33:24.551Z</time></trkpt><trkpt lat="45.59775413405901" lon="11.378515450723738"><ele>156.75</ele><time>2026-05-02T16:33:25.551Z</time></trkpt><trkpt lat="45.59767910010818" lon="11.378318187856785"><ele>156.5</ele><time>2026-05-02T16:33:26.551Z</time></trkpt><trkpt lat="45.59761801710745" lon="11.37814014246913"><ele>156.25</ele><time>2026-05-02T16:33:27.551Z</time></trkpt><trkpt lat="45.59754478004978" lon="11.377968606701776"><ele>156.0</ele><time>2026-05-02T16:33:28.551Z</time></trkpt><trkpt lat="45.59746740095106" lon="11.377822742813484"><ele>156.0</ele><time>2026-05-02T16:33:29.551Z</time></trkpt><trkpt lat="45.59740134584898" lon="11.377679681176113"><ele>156.0</ele><time>2026-05-02T16:33:30.551Z</time></trkpt><trkpt lat="45.597345631546" lon="11.377535670072788"><ele>156.0</ele><time>2026-05-02T16:33:31.551Z</time></trkpt><trkpt lat="45.597293822245" lon="11.377399359054204"><ele>156.0</ele><time>2026-05-02T16:33:32.551Z</time></trkpt><trkpt lat="45.597241564097864" lon="11.377286902452058"><ele>156.0</ele><time>2026-05-02T16:33:33.551Z</time></trkpt><trkpt lat="45.597260381750154" lon="11.377105400607052"><ele>156.0</ele><time>2026-05-02T16:33:34.551Z</time></trkpt><trkpt lat="45.597223233190775" lon="11.37696071039682"><ele>156.0</ele><time>2026-05-02T16:33:35.551Z</time></trkpt><trkpt lat="45.597156879342855" lon="11.376839042419153"><ele>156.0</ele><time>2026-05-02T16:33:36.551Z</time></trkpt><trkpt lat="45.59706188064042" lon="11.376757437086049"><ele>156.0</ele><time>2026-05-02T16:33:37.551Z</time></trkpt><trkpt lat="45.59693569203006" lon="11.376722551861972"><ele>156.0</ele><time>2026-05-02T16:33:38.551Z</time></trkpt><trkpt lat="45.59679575790067" lon="11.376771016409787"><ele>156.0</ele><time>2026-05-02T16:33:39.551Z</time></trkpt><trkpt lat="45.596649733996365" lon="11.376557963662512"><ele>156.0</ele><time>2026-05-02T16:33:40.551Z</time></trkpt><trkpt lat="45.596514556031046" lon="11.376390252961482"><ele>156.66666666666666</ele><time>2026-05-02T16:33:41.551Z</time></trkpt><trkpt lat="45.596387331535254" lon="11.376237920313024"><ele>157.33333333333331</ele><time>2026-05-02T16:33:42.551Z</time></trkpt><trkpt lat="45.59625373312429" lon="11.37611121217294"><ele>158.0</ele><time>2026-05-02T16:33:43.551Z</time></trkpt><trkpt lat="45.59611787959075" lon="11.375982937868"><ele>158.0</ele><time>2026-05-02T16:33:44.551Z</time></trkpt><trkpt lat="45.595969886801655" lon="11.375860667502511"><ele>158.0</ele><time>2026-05-02T16:33:45.551Z</time></trkpt><trkpt lat="45.59582337123844" lon="11.37573830772244"><ele>158.0</ele><time>2026-05-02T16:33:46.551Z</time></trkpt><trkpt lat="45.595669423927745" lon="11.37562629028286"><ele>158.0</ele><time>2026-05-02T16:33:47.551Z</time></trkpt><trkpt lat="45.595505892957746" lon="11.37553011863974"><ele>158.0</ele><time>2026-05-02T16:33:48.551Z</time></trkpt><trkpt lat="45.5953468195818" lon="11.375442912158416"><ele>158.0</ele><time>2026-05-02T16:33:49.551Z</time></trkpt><trkpt lat="45.595196524900096" lon="11.375364785591163"><ele>158.25</ele><time>2026-05-02T16:33:50.551Z</time></trkpt><trkpt lat="45.59504642481717" lon="11.375293031538176"><ele>158.5</ele><time>2026-05-02T16:33:51.551Z</time></trkpt><trkpt lat="45.594904215589054" lon="11.375233848419208"><ele>158.75</ele><time>2026-05-02T16:33:52.551Z</time></trkpt><trkpt lat="45.594769306443645" lon="11.37518546300316"><ele>159.0</ele><time>2026-05-02T16:33:53.551Z</time></trkpt><trkpt lat="45.5946392439612" lon="11.375145116137166"><ele>159.0</ele><time>2026-05-02T16:33:54.551Z</time></trkpt><trkpt lat="45.59452577018385" lon="11.375103199261813"><ele>159.0</ele><time>2026-05-02T16:33:55.551Z</time></trkpt><trkpt lat="45.59442122053408" lon="11.37507443960182"><ele>159.0</ele><time>2026-05-02T16:33:56.551Z</time></trkpt><trkpt lat="45.594332420860034" lon="11.375048831233785"><ele>159.0</ele><time>2026-05-02T16:33:57.551Z</time></trkpt><trkpt lat="45.59425183155449" lon="11.37502125635599"><ele>159.0</ele><time>2026-05-02T16:33:58.551Z</time></trkpt><trkpt lat="45.59419550900936" lon="11.374973217491625"><ele>158.75</ele><time>2026-05-02T16:34:00.551Z</time></trkpt><trkpt lat="45.59412997191595" lon="11.374943608161928"><ele>158.5</ele><time>2026-05-02T16:34:04.551Z</time></trkpt><trkpt lat="45.593951312445576" lon="11.374947705573708"><ele>158.25</ele><time>2026-05-02T16:37:12.552Z</time></trkpt><trkpt lat="45.5938287755289" lon="11.374879877163625"><ele>158.0</ele><time>2026-05-02T16:37:13.552Z</time></trkpt><trkpt lat="45.59373211752815" lon="11.374834334380525"><ele>158.0</ele><time>2026-05-02T16:37:14.552Z</time></trkpt><trkpt lat="45.59365368146184" lon="11.374751013956057"><ele>158.0</ele><time>2026-05-02T16:37:15.552Z</time></trkpt><trkpt lat="45.59358623015266" lon="11.374630906634188"><ele>158.0</ele><time>2026-05-02T16:37:16.552Z</time></trkpt><trkpt lat="45.593526649813796" lon="11.374545742308968"><ele>158.0</ele><time>2026-05-02T16:37:17.552Z</time></trkpt><trkpt lat="45.59348748063331" lon="11.374470306618107"><ele>158.0</ele><time>2026-05-02T16:37:18.552Z</time></trkpt><trkpt lat="45.59370798117304" lon="11.374128627849089"><ele>158.33333333333331</ele><time>2026-05-02T16:37:20.552Z</time></trkpt><trkpt lat="45.593849642659286" lon="11.373955607452002"><ele>158.66666666666666</ele><time>2026-05-02T16:37:21.552Z</time></trkpt><trkpt lat="45.59403830623435" lon="11.373748018326758"><ele>159.0</ele><time>2026-05-02T16:37:22.552Z</time></trkpt><trkpt lat="45.59425061301432" lon="11.373605773676017"><ele>159.0</ele><time>2026-05-02T16:37:23.552Z</time></trkpt><trkpt lat="45.59441403723753" lon="11.37339082484457"><ele>159.0</ele><time>2026-05-02T16:37:24.552Z</time></trkpt><trkpt lat="45.59456721151658" lon="11.373189357998829"><ele>159.0</ele><time>2026-05-02T16:37:25.552Z</time></trkpt><trkpt lat="45.594704251033406" lon="11.37300478016518"><ele>159.0</ele><time>2026-05-02T16:37:26.552Z</time></trkpt><trkpt lat="45.59482908726939" lon="11.37283664890014"><ele>159.0</ele><time>2026-05-02T16:37:27.552Z</time></trkpt><trkpt lat="45.59494067620186" lon="11.372686767909515"><ele>159.0</ele><time>2026-05-02T16:37:28.552Z</time></trkpt><trkpt lat="45.59504624784081" lon="11.372544971723974"><ele>159.0</ele><time>2026-05-02T16:37:29.552Z</time></trkpt><trkpt lat="45.59512866070048" lon="11.372365519853322"><ele>159.0</ele><time>2026-05-02T16:37:30.552Z</time></trkpt><trkpt lat="45.59523956342704" lon="11.372222156529784"><ele>159.0</ele><time>2026-05-02T16:37:31.552Z</time></trkpt><trkpt lat="45.59533661054075" lon="11.372070137487494"><ele>159.0</ele><time>2026-05-02T16:37:32.552Z</time></trkpt><trkpt lat="45.595487398261064" lon="11.37190289561762"><ele>159.5</ele><time>2026-05-02T16:37:33.552Z</time></trkpt><trkpt lat="45.595641011355916" lon="11.371660212701853"><ele>160.0</ele><time>2026-05-02T16:37:34.552Z</time></trkpt><trkpt lat="45.59584247513497" lon="11.371434795343458"><ele>160.0</ele><time>2026-05-02T16:37:35.552Z</time></trkpt><trkpt lat="45.59604402539018" lon="11.371135764165873"><ele>160.0</ele><time>2026-05-02T16:37:36.552Z</time></trkpt><trkpt lat="45.59620290678119" lon="11.370859950238096"><ele>160.5</ele><time>2026-05-02T16:37:37.552Z</time></trkpt><trkpt lat="45.59636553599203" lon="11.37059709041691"><ele>161.0</ele><time>2026-05-02T16:37:38.552Z</time></trkpt><trkpt lat="45.59651886095701" lon="11.370321638443045"><ele>161.5</ele><time>2026-05-02T16:37:39.552Z</time></trkpt><trkpt lat="45.596681856023096" lon="11.370049041240463"><ele>162.0</ele><time>2026-05-02T16:37:40.552Z</time></trkpt><trkpt lat="45.59684889936812" lon="11.369807491864432"><ele>162.33333333333334</ele><time>2026-05-02T16:37:41.552Z</time></trkpt><trkpt lat="45.596980430700285" lon="11.369533082578611"><ele>162.66666666666669</ele><time>2026-05-02T16:37:42.552Z</time></trkpt><trkpt lat="45.59711369630689" lon="11.369296056621383"><ele>163.0</ele><time>2026-05-02T16:37:43.552Z</time></trkpt><trkpt lat="45.597235834430734" lon="11.369058844409746"><ele>163.66666666666669</ele><time>2026-05-02T16:37:44.552Z</time></trkpt><trkpt lat="45.597349950653566" lon="11.368829496109532"><ele>164.33333333333334</ele><time>2026-05-02T16:37:45.552Z</time></trkpt><trkpt lat="45.5974638116343" lon="11.368579507425068"><ele>165.0</ele><time>2026-05-02T16:37:46.552Z</time></trkpt><trkpt lat="45.597571976091636" lon="11.368344426168445"><ele>165.0</ele><time>2026-05-02T16:37:47.552Z</time></trkpt><trkpt lat="45.59768362068209" lon="11.368094011153374"><ele>165.0</ele><time>2026-05-02T16:37:48.552Z</time></trkpt><trkpt lat="45.5978019156673" lon="11.367848303074178"><ele>165.0</ele><time>2026-05-02T16:37:49.552Z</time></trkpt><trkpt lat="45.59793076543907" lon="11.367625803666288"><ele>165.33333333333334</ele><time>2026-05-02T16:37:50.552Z</time></trkpt><trkpt lat="45.598036200554795" lon="11.367395321619608"><ele>165.66666666666669</ele><time>2026-05-02T16:37:51.552Z</time></trkpt><trkpt lat="45.5981023637234" lon="11.367188580790584"><ele>166.0</ele><time>2026-05-02T16:37:52.552Z</time></trkpt><trkpt lat="45.5981720059715" lon="11.367038500330784"><ele>166.0</ele><time>2026-05-02T16:37:53.552Z</time></trkpt><trkpt lat="45.59822765961025" lon="11.366909694977755"><ele>166.0</ele><time>2026-05-02T16:37:54.552Z</time></trkpt><trkpt lat="45.59827480228914" lon="11.366828704835447"><ele>166.0</ele><time>2026-05-02T16:37:55.552Z</time></trkpt><trkpt lat="45.59832458510806" lon="11.366763570093458"><ele>166.0</ele><time>2026-05-02T16:37:57.552Z</time></trkpt><trkpt lat="45.59836485758403" lon="11.36667559322618"><ele>166.0</ele><time>2026-05-02T16:37:59.552Z</time></trkpt><trkpt lat="45.59841900696373" lon="11.366557084790882"><ele>166.0</ele><time>2026-05-02T16:38:01.552Z</time></trkpt><trkpt lat="45.59846279595661" lon="11.366461447863976"><ele>166.0</ele><time>2026-05-02T16:38:02.552Z</time></trkpt><trkpt lat="45.598502213026194" lon="11.36633744149644"><ele>166.0</ele><time>2026-05-02T16:38:03.552Z</time></trkpt><trkpt lat="45.598557535974685" lon="11.366220353412997"><ele>166.0</ele><time>2026-05-02T16:38:04.552Z</time></trkpt><trkpt lat="45.59860756856732" lon="11.366116710108145"><ele>166.0</ele><time>2026-05-02T16:38:05.552Z</time></trkpt><trkpt lat="45.59866057200831" lon="11.366014653003978"><ele>166.0</ele><time>2026-05-02T16:38:06.552Z</time></trkpt><trkpt lat="45.59872179869407" lon="11.365899645052963"><ele>166.0</ele><time>2026-05-02T16:38:08.552Z</time></trkpt><trkpt lat="45.598777526761516" lon="11.365822965750644"><ele>166.0</ele><time>2026-05-02T16:38:11.552Z</time></trkpt><trkpt lat="45.59891001718992" lon="11.365826043109951"><ele>166.0</ele><time>2026-05-02T16:38:13.552Z</time></trkpt><trkpt lat="45.59897333172133" lon="11.365885674425659"><ele>166.0</ele><time>2026-05-02T16:38:14.552Z</time></trkpt><trkpt lat="45.599057045164834" lon="11.36598558994542"><ele>166.0</ele><time>2026-05-02T16:38:15.552Z</time></trkpt><trkpt lat="45.59915868804343" lon="11.366138326562533"><ele>166.0</ele><time>2026-05-02T16:38:16.552Z</time></trkpt><trkpt lat="45.59933404740081" lon="11.366321189936217"><ele>166.0</ele><time>2026-05-02T16:38:17.552Z</time></trkpt><trkpt lat="45.59950489490764" lon="11.366476813656034"><ele>166.0</ele><time>2026-05-02T16:38:18.552Z</time></trkpt><trkpt lat="45.59964492835679" lon="11.366608094324473"><ele>165.75</ele><time>2026-05-02T16:38:19.552Z</time></trkpt><trkpt lat="45.599763822856936" lon="11.366730087828701"><ele>165.5</ele><time>2026-05-02T16:38:20.552Z</time></trkpt><trkpt lat="45.59988653879652" lon="11.366844302272423"><ele>165.25</ele><time>2026-05-02T16:38:21.552Z</time></trkpt><trkpt lat="45.59998693166705" lon="11.366952528884793"><ele>165.0</ele><time>2026-05-02T16:38:22.552Z</time></trkpt><trkpt lat="45.60005624044449" lon="11.367012800192892"><ele>165.0</ele><time>2026-05-02T16:38:23.552Z</time></trkpt><trkpt lat="45.600109763520194" lon="11.367089354384172"><ele>165.0</ele><time>2026-05-02T16:38:24.552Z</time></trkpt><trkpt lat="45.60011772843502" lon="11.367200106760167"><ele>165.0</ele><time>2026-05-02T16:38:25.552Z</time></trkpt><trkpt lat="45.60012287305952" lon="11.367309808996804"><ele>165.0</ele><time>2026-05-02T16:38:26.552Z</time></trkpt><trkpt lat="45.60022005826053" lon="11.367337708700502"><ele>165.0</ele><time>2026-05-02T16:38:28.552Z</time></trkpt><trkpt lat="45.60026203581283" lon="11.367270073425338"><ele>165.0</ele><time>2026-05-02T16:38:29.552Z</time></trkpt><trkpt lat="45.60024452754072" lon="11.367050730270675"><ele>165.0</ele><time>2026-05-02T16:38:31.552Z</time></trkpt><trkpt lat="45.600306242334185" lon="11.366923407583043"><ele>165.0</ele><time>2026-05-02T16:38:32.552Z</time></trkpt><trkpt lat="45.60040610665956" lon="11.366763874850808"><ele>165.0</ele><time>2026-05-02T16:38:33.552Z</time></trkpt><trkpt lat="45.60053544712424" lon="11.36655560382884"><ele>165.66666666666666</ele><time>2026-05-02T16:38:34.552Z</time></trkpt><trkpt lat="45.60068585316058" lon="11.366299545644798"><ele>166.33333333333331</ele><time>2026-05-02T16:38:35.552Z</time></trkpt><trkpt lat="45.6007776112798" lon="11.366069896272888"><ele>167.0</ele><time>2026-05-02T16:38:36.552Z</time></trkpt><trkpt lat="45.60090097260053" lon="11.365806644998017"><ele>167.0</ele><time>2026-05-02T16:38:37.552Z</time></trkpt><trkpt lat="45.60107388593132" lon="11.365524070250636"><ele>167.0</ele><time>2026-05-02T16:38:38.552Z</time></trkpt><trkpt lat="45.60119894795845" lon="11.36519953331021"><ele>167.0</ele><time>2026-05-02T16:38:39.552Z</time></trkpt><trkpt lat="45.60133110458883" lon="11.364901620320094"><ele>167.0</ele><time>2026-05-02T16:38:40.552Z</time></trkpt><trkpt lat="45.6014685841116" lon="11.364616985567732"><ele>167.0</ele><time>2026-05-02T16:38:41.552Z</time></trkpt><trkpt lat="45.60159691819118" lon="11.364359290738205"><ele>167.0</ele><time>2026-05-02T16:38:42.552Z</time></trkpt><trkpt lat="45.60173816117183" lon="11.364095040666554"><ele>167.0</ele><time>2026-05-02T16:38:43.552Z</time></trkpt><trkpt lat="45.601861785396586" lon="11.36387627519808"><ele>167.0</ele><time>2026-05-02T16:38:44.552Z</time></trkpt><trkpt lat="45.601984382856116" lon="11.363675313914621"><ele>167.0</ele><time>2026-05-02T16:38:45.552Z</time></trkpt><trkpt lat="45.602085488853646" lon="11.363496789997873"><ele>167.75</ele><time>2026-05-02T16:38:46.552Z</time></trkpt><trkpt lat="45.60217270855378" lon="11.363321015969186"><ele>168.5</ele><time>2026-05-02T16:38:47.552Z</time></trkpt><trkpt lat="45.60223044320438" lon="11.363173320586926"><ele>169.25</ele><time>2026-05-02T16:38:48.552Z</time></trkpt><trkpt lat="45.60228068741464" lon="11.363027676563327"><ele>170.0</ele><time>2026-05-02T16:38:49.552Z</time></trkpt><trkpt lat="45.6023330758238" lon="11.362856729901022"><ele>170.0</ele><time>2026-05-02T16:38:50.552Z</time></trkpt><trkpt lat="45.60238988024262" lon="11.362668719554769"><ele>170.0</ele><time>2026-05-02T16:38:51.552Z</time></trkpt><trkpt lat="45.60246345855577" lon="11.362434358010546"><ele>170.0</ele><time>2026-05-02T16:38:52.552Z</time></trkpt><trkpt lat="45.60253447642036" lon="11.362187875937806"><ele>170.0</ele><time>2026-05-02T16:38:53.552Z</time></trkpt><trkpt lat="45.6025987521601" lon="11.361933520689336"><ele>170.0</ele><time>2026-05-02T16:38:54.552Z</time></trkpt><trkpt lat="45.602644756515296" lon="11.361724282774695"><ele>170.0</ele><time>2026-05-02T16:38:55.552Z</time></trkpt><trkpt lat="45.60268354948105" lon="11.361544271631558"><ele>169.66666666666666</ele><time>2026-05-02T16:38:56.552Z</time></trkpt><trkpt lat="45.60273480885362" lon="11.361311357372058"><ele>169.33333333333334</ele><time>2026-05-02T16:38:57.552Z</time></trkpt><trkpt lat="45.602796525379745" lon="11.361072450511017"><ele>169.0</ele><time>2026-05-02T16:38:58.552Z</time></trkpt><trkpt lat="45.60287180825809" lon="11.360828778706257"><ele>169.33333333333334</ele><time>2026-05-02T16:38:59.552Z</time></trkpt><trkpt lat="45.60297315752598" lon="11.360574629574021"><ele>169.66666666666666</ele><time>2026-05-02T16:39:00.552Z</time></trkpt><trkpt lat="45.603108952505494" lon="11.360293203888562"><ele>170.0</ele><time>2026-05-02T16:39:01.552Z</time></trkpt><trkpt lat="45.603275262493064" lon="11.359986765857355"><ele>170.0</ele><time>2026-05-02T16:39:02.552Z</time></trkpt><trkpt lat="45.603432488854" lon="11.359712788134463"><ele>170.0</ele><time>2026-05-02T16:39:03.552Z</time></trkpt><trkpt lat="45.603575712737914" lon="11.35946246191775"><ele>171.66666666666666</ele><time>2026-05-02T16:39:04.552Z</time></trkpt><trkpt lat="45.60371294914848" lon="11.35922088890399"><ele>173.33333333333334</ele><time>2026-05-02T16:39:05.552Z</time></trkpt><trkpt lat="45.60383769359919" lon="11.35900276241084"><ele>175.0</ele><time>2026-05-02T16:39:06.552Z</time></trkpt><trkpt lat="45.603963708633806" lon="11.358783352475067"><ele>175.0</ele><time>2026-05-02T16:39:07.552Z</time></trkpt><trkpt lat="45.604068910172714" lon="11.358570172941306"><ele>175.0</ele><time>2026-05-02T16:39:08.553Z</time></trkpt><trkpt lat="45.60417975738327" lon="11.358384110670539"><ele>175.0</ele><time>2026-05-02T16:39:09.553Z</time></trkpt><trkpt lat="45.60429690316637" lon="11.358205523374412"><ele>175.0</ele><time>2026-05-02T16:39:10.553Z</time></trkpt><trkpt lat="45.60441462036111" lon="11.358036652741847"><ele>175.0</ele><time>2026-05-02T16:39:11.553Z</time></trkpt><trkpt lat="45.60451295227167" lon="11.357879877269484"><ele>175.0</ele><time>2026-05-02T16:39:12.553Z</time></trkpt><trkpt lat="45.60461257799989" lon="11.357724038493624"><ele>175.33333333333334</ele><time>2026-05-02T16:39:13.553Z</time></trkpt><trkpt lat="45.60472431746912" lon="11.357558254346756"><ele>175.66666666666666</ele><time>2026-05-02T16:39:14.553Z</time></trkpt><trkpt lat="45.604819563235374" lon="11.35740015653666"><ele>176.0</ele><time>2026-05-02T16:39:15.553Z</time></trkpt><trkpt lat="45.604863488605126" lon="11.357180483667223"><ele>175.5</ele><time>2026-05-02T16:39:16.553Z</time></trkpt><trkpt lat="45.60493880092989" lon="11.357014129318507"><ele>175.0</ele><time>2026-05-02T16:39:17.553Z</time></trkpt><trkpt lat="45.60500360507918" lon="11.356819894753643"><ele>174.5</ele><time>2026-05-02T16:39:18.553Z</time></trkpt><trkpt lat="45.60507426230138" lon="11.356630455315946"><ele>174.0</ele><time>2026-05-02T16:39:19.553Z</time></trkpt><trkpt lat="45.605149434865055" lon="11.356437541318282"><ele>174.0</ele><time>2026-05-02T16:39:20.553Z</time></trkpt><trkpt lat="45.60523728889356" lon="11.35624487649066"><ele>174.0</ele><time>2026-05-02T16:39:21.553Z</time></trkpt><trkpt lat="45.60531781488179" lon="11.356036781313948"><ele>174.0</ele><time>2026-05-02T16:39:22.553Z</time></trkpt><trkpt lat="45.60539833086019" lon="11.355835831661226"><ele>174.25</ele><time>2026-05-02T16:39:23.553Z</time></trkpt><trkpt lat="45.605463334312965" lon="11.355642489689055"><ele>174.5</ele><time>2026-05-02T16:39:24.553Z</time></trkpt><trkpt lat="45.60552082552758" lon="11.355459647050543"><ele>174.75</ele><time>2026-05-02T16:39:25.553Z</time></trkpt><trkpt lat="45.60559279003927" lon="11.355276831359257"><ele>175.0</ele><time>2026-05-02T16:39:26.553Z</time></trkpt><trkpt lat="45.6056845020607" lon="11.355114660225542"><ele>175.0</ele><time>2026-05-02T16:39:27.553Z</time></trkpt><trkpt lat="45.6058132051204" lon="11.354977136138913"><ele>175.0</ele><time>2026-05-02T16:39:28.553Z</time></trkpt><trkpt lat="45.60592828942081" lon="11.354829747193818"><ele>175.0</ele><time>2026-05-02T16:39:29.553Z</time></trkpt><trkpt lat="45.60605943071977" lon="11.35471709166261"><ele>175.75</ele><time>2026-05-02T16:39:30.553Z</time></trkpt><trkpt lat="45.60619231499227" lon="11.354625138294459"><ele>176.5</ele><time>2026-05-02T16:39:31.553Z</time></trkpt><trkpt lat="45.60631370718686" lon="11.354521090608156"><ele>177.25</ele><time>2026-05-02T16:39:32.553Z</time></trkpt><trkpt lat="45.60642452249404" lon="11.354417954493767"><ele>178.0</ele><time>2026-05-02T16:39:33.553Z</time></trkpt><trkpt lat="45.606530143803994" lon="11.35430896050647"><ele>178.0</ele><time>2026-05-02T16:39:34.553Z</time></trkpt><trkpt lat="45.60662825553448" lon="11.354197379594819"><ele>178.0</ele><time>2026-05-02T16:39:35.553Z</time></trkpt><trkpt lat="45.60671312747208" lon="11.354091972107895"><ele>178.0</ele><time>2026-05-02T16:39:36.553Z</time></trkpt><trkpt lat="45.6068119781269" lon="11.353960017510717"><ele>178.0</ele><time>2026-05-02T16:39:37.553Z</time></trkpt><trkpt lat="45.6069015745288" lon="11.353866779239167"><ele>178.0</ele><time>2026-05-02T16:39:38.553Z</time></trkpt><trkpt lat="45.60697624023682" lon="11.353743822435376"><ele>178.0</ele><time>2026-05-02T16:39:39.553Z</time></trkpt><trkpt lat="45.60706308468478" lon="11.353654741103197"><ele>178.0</ele><time>2026-05-02T16:39:40.553Z</time></trkpt><trkpt lat="45.60713504842323" lon="11.353552744104531"><ele>178.0</ele><time>2026-05-02T16:39:41.553Z</time></trkpt><trkpt lat="45.607216347464664" lon="11.35344463891626"><ele>178.0</ele><time>2026-05-02T16:39:42.553Z</time></trkpt><trkpt lat="45.6072866278948" lon="11.353330468574997"><ele>178.75</ele><time>2026-05-02T16:39:43.553Z</time></trkpt><trkpt lat="45.60737213459869" lon="11.35321756161837"><ele>179.5</ele><time>2026-05-02T16:39:44.553Z</time></trkpt><trkpt lat="45.60746558229984" lon="11.35310355418357"><ele>180.25</ele><time>2026-05-02T16:39:45.553Z</time></trkpt><trkpt lat="45.607544416285954" lon="11.352977110204856"><ele>181.0</ele><time>2026-05-02T16:39:46.553Z</time></trkpt><trkpt lat="45.60762670908732" lon="11.352866525224012"><ele>181.0</ele><time>2026-05-02T16:39:47.553Z</time></trkpt><trkpt lat="45.60770705085196" lon="11.352754355521828"><ele>181.0</ele><time>2026-05-02T16:39:48.553Z</time></trkpt><trkpt lat="45.607776295210705" lon="11.352622910401168"><ele>181.0</ele><time>2026-05-02T16:39:49.553Z</time></trkpt><trkpt lat="45.60783511454044" lon="11.352510334157344"><ele>181.0</ele><time>2026-05-02T16:39:50.553Z</time></trkpt><trkpt lat="45.607874096497895" lon="11.35239905029957"><ele>181.0</ele><time>2026-05-02T16:39:51.553Z</time></trkpt><trkpt lat="45.60791274017596" lon="11.352272433501179"><ele>181.16666666666669</ele><time>2026-05-02T16:39:52.553Z</time></trkpt><trkpt lat="45.60795080519162" lon="11.352162387928775"><ele>181.33333333333334</ele><time>2026-05-02T16:39:53.553Z</time></trkpt><trkpt lat="45.60801159227194" lon="11.352084480481777"><ele>181.5</ele><time>2026-05-02T16:39:55.553Z</time></trkpt><trkpt lat="45.60808443137921" lon="11.352203130132384"><ele>181.66666666666666</ele><time>2026-05-02T16:39:56.553Z</time></trkpt><trkpt lat="45.60814656908344" lon="11.352249600728161"><ele>181.83333333333331</ele><time>2026-05-02T16:39:57.553Z</time></trkpt><trkpt lat="45.608236977714746" lon="11.352312982721411"><ele>182.0</ele><time>2026-05-02T16:39:58.553Z</time></trkpt><trkpt lat="45.60833759564986" lon="11.352375703235259"><ele>182.0</ele><time>2026-05-02T16:39:59.553Z</time></trkpt><trkpt lat="45.608436344428576" lon="11.352423390656845"><ele>182.0</ele><time>2026-05-02T16:40:00.553Z</time></trkpt><trkpt lat="45.60850231237066" lon="11.352463194589113"><ele>182.0</ele><time>2026-05-02T16:40:01.553Z</time></trkpt><trkpt lat="45.60857560479108" lon="11.352507229806594"><ele>182.0</ele><time>2026-05-02T16:40:02.553Z</time></trkpt><trkpt lat="45.60865352218656" lon="11.352561085642781"><ele>182.0</ele><time>2026-05-02T16:40:04.553Z</time></trkpt><trkpt lat="45.608609121791496" lon="11.352671555060555"><ele>182.0</ele><time>2026-05-02T16:40:06.553Z</time></trkpt><trkpt lat="45.60855203982182" lon="11.352738086087253"><ele>182.0</ele><time>2026-05-02T16:40:07.553Z</time></trkpt><trkpt lat="45.60849202761382" lon="11.352856676217337"><ele>182.0</ele><time>2026-05-02T16:40:09.553Z</time></trkpt><trkpt lat="45.60845894850768" lon="11.3529851118086"><ele>182.0</ele><time>2026-05-02T16:40:11.553Z</time></trkpt><trkpt lat="45.60852283212375" lon="11.35309752371583"><ele>182.0</ele><time>2026-05-02T16:40:13.553Z</time></trkpt><trkpt lat="45.60862266551982" lon="11.353106626432602"><ele>182.0</ele><time>2026-05-02T16:40:14.553Z</time></trkpt><trkpt lat="45.608685213919806" lon="11.353147330186244"><ele>186.8</ele><time>2026-05-02T16:40:15.553Z</time></trkpt><trkpt lat="45.60877012717737" lon="11.353237485467615"><ele>191.6</ele><time>2026-05-02T16:40:17.553Z</time></trkpt><trkpt lat="45.60867220743107" lon="11.353321429259141"><ele>196.4</ele><time>2026-05-02T16:40:21.553Z</time></trkpt><trkpt lat="45.608664376292396" lon="11.353478810520672"><ele>201.20000000000002</ele><time>2026-05-02T16:40:23.553Z</time></trkpt><trkpt lat="45.60876713257926" lon="11.35356332660119"><ele>206.0</ele><time>2026-05-02T16:40:25.553Z</time></trkpt><trkpt lat="45.60882722216931" lon="11.35368574300975"><ele>206.00000000000003</ele><time>2026-05-02T16:40:27.553Z</time></trkpt><trkpt lat="45.60875763299164" lon="11.35376864368522"><ele>206.0</ele><time>2026-05-02T16:40:30.553Z</time></trkpt><trkpt lat="45.608679918840714" lon="11.353887364971655"><ele>206.0</ele><time>2026-05-02T16:40:32.553Z</time></trkpt><trkpt lat="45.608635063659264" lon="11.353959337541998"><ele>206.0</ele><time>2026-05-02T16:40:33.553Z</time></trkpt><trkpt lat="45.60859050248002" lon="11.35403881322246"><ele>206.00000000000003</ele><time>2026-05-02T16:40:34.553Z</time></trkpt><trkpt lat="45.60854034856456" lon="11.35412826414149"><ele>206.0</ele><time>2026-05-02T16:40:35.553Z</time></trkpt><trkpt lat="45.60846905093875" lon="11.354241436768707"><ele>194.0</ele><time>2026-05-02T16:40:37.553Z</time></trkpt><trkpt lat="45.60842472246833" lon="11.354329308997492"><ele>194.0</ele><time>2026-05-02T16:40:38.553Z</time></trkpt><trkpt lat="45.60836657629002" lon="11.354365567898885"><ele>194.0</ele><time>2026-05-02T16:40:39.553Z</time></trkpt><trkpt lat="45.608289536117745" lon="11.354459534255966"><ele>194.0</ele><time>2026-05-02T16:40:41.553Z</time></trkpt><trkpt lat="45.60822141328082" lon="11.354501756779849"><ele>194.0</ele><time>2026-05-02T16:40:44.553Z</time></trkpt></trkseg></trk></gpx>